<?xml version="1.0" encoding="UTF-8" standalone="no" ?>
<gpx xmlns="http://www.topografix.com/GPX/1/1" xmlns:xsi="http://www.w3.org/2001/XMLSchema-instance" xsi:schemaLocation="http://www.topografix.com/GPX/1/1 http://www.topografix.com/GPX/1/1/gpx.xsd" version="1.1" creator="VisuGPX - https://www.visugpx.com">
  <metadata>
    <name>Tracked with NOSMTracker for Android?</name>
  </metadata>
  <trk>
    <name><![CDATA[Tracked with NOSMTracker for Android™]]></name>
    <trkseg>
      <trkpt lat="43.59735" lon="7.09452">
        <ele>129.50274658203</ele>
        <time>2020-05-14T12:20:33Z</time>
      </trkpt>
      <trkpt lat="43.59735" lon="7.09453">
        <ele>132.14514160156</ele>
        <time>2020-05-14T12:20:34Z</time>
      </trkpt>
      <trkpt lat="43.59738" lon="7.0945">
        <ele>132.17297363281</ele>
        <time>2020-05-14T12:20:35Z</time>
      </trkpt>
      <trkpt lat="43.5974" lon="7.09452">
        <ele>132.60113525391</ele>
        <time>2020-05-14T12:20:36Z</time>
      </trkpt>
      <trkpt lat="43.59741" lon="7.09451">
        <ele>132.62097167969</ele>
        <time>2020-05-14T12:20:37Z</time>
      </trkpt>
      <trkpt lat="43.5974" lon="7.09451">
        <ele>132.70092773438</ele>
        <time>2020-05-14T12:20:38Z</time>
      </trkpt>
      <trkpt lat="43.5974" lon="7.09453">
        <ele>132.95129394531</ele>
        <time>2020-05-14T12:20:39Z</time>
      </trkpt>
      <trkpt lat="43.59738" lon="7.09453">
        <ele>132.75634765625</ele>
        <time>2020-05-14T12:20:40Z</time>
      </trkpt>
      <trkpt lat="43.59739" lon="7.09454">
        <ele>133.45379638672</ele>
        <time>2020-05-14T12:20:41Z</time>
      </trkpt>
      <trkpt lat="43.59739" lon="7.09454">
        <ele>133.85827636719</ele>
        <time>2020-05-14T12:20:42Z</time>
      </trkpt>
      <trkpt lat="43.59739" lon="7.09452">
        <ele>133.6025390625</ele>
        <time>2020-05-14T12:20:43Z</time>
      </trkpt>
      <trkpt lat="43.59735" lon="7.09448">
        <ele>132.75775146484</ele>
        <time>2020-05-14T12:20:44Z</time>
      </trkpt>
      <trkpt lat="43.5973" lon="7.09447">
        <ele>132.77587890625</ele>
        <time>2020-05-14T12:20:45Z</time>
      </trkpt>
      <trkpt lat="43.59735" lon="7.09448">
        <ele>132.59417724609</ele>
        <time>2020-05-14T12:20:46Z</time>
      </trkpt>
      <trkpt lat="43.59736" lon="7.09447">
        <ele>131.94384765625</ele>
        <time>2020-05-14T12:20:47Z</time>
      </trkpt>
      <trkpt lat="43.59736" lon="7.09447">
        <ele>131.59045410156</ele>
        <time>2020-05-14T12:20:48Z</time>
      </trkpt>
      <trkpt lat="43.59736" lon="7.09447">
        <ele>130.18646240234</ele>
        <time>2020-05-14T12:20:49Z</time>
      </trkpt>
      <trkpt lat="43.59735" lon="7.09447">
        <ele>130.36151123047</ele>
        <time>2020-05-14T12:20:50Z</time>
      </trkpt>
      <trkpt lat="43.59735" lon="7.09447">
        <ele>130.59753417969</ele>
        <time>2020-05-14T12:20:51Z</time>
      </trkpt>
      <trkpt lat="43.59735" lon="7.09446">
        <ele>130.96179199219</ele>
        <time>2020-05-14T12:20:52Z</time>
      </trkpt>
      <trkpt lat="43.59734" lon="7.09446">
        <ele>131.22827148438</ele>
        <time>2020-05-14T12:20:53Z</time>
      </trkpt>
      <trkpt lat="43.59734" lon="7.09447">
        <ele>131.52673339844</ele>
        <time>2020-05-14T12:20:54Z</time>
      </trkpt>
      <trkpt lat="43.59735" lon="7.09447">
        <ele>131.80200195312</ele>
        <time>2020-05-14T12:20:55Z</time>
      </trkpt>
      <trkpt lat="43.59735" lon="7.09447">
        <ele>132.22277832031</ele>
        <time>2020-05-14T12:20:56Z</time>
      </trkpt>
      <trkpt lat="43.59735" lon="7.09448">
        <ele>132.11865234375</ele>
        <time>2020-05-14T12:20:57Z</time>
      </trkpt>
      <trkpt lat="43.59735" lon="7.09449">
        <ele>131.88549804688</ele>
        <time>2020-05-14T12:20:58Z</time>
      </trkpt>
      <trkpt lat="43.59735" lon="7.09449">
        <ele>131.80334472656</ele>
        <time>2020-05-14T12:20:59Z</time>
      </trkpt>
      <trkpt lat="43.59735" lon="7.09449">
        <ele>131.81988525391</ele>
        <time>2020-05-14T12:21:00Z</time>
      </trkpt>
      <trkpt lat="43.59735" lon="7.0945">
        <ele>131.45916748047</ele>
        <time>2020-05-14T12:21:01Z</time>
      </trkpt>
      <trkpt lat="43.59736" lon="7.0945">
        <ele>131.1376953125</ele>
        <time>2020-05-14T12:21:02Z</time>
      </trkpt>
      <trkpt lat="43.59736" lon="7.09451">
        <ele>130.27587890625</ele>
        <time>2020-05-14T12:21:03Z</time>
      </trkpt>
      <trkpt lat="43.59736" lon="7.09451">
        <ele>130.36065673828</ele>
        <time>2020-05-14T12:21:04Z</time>
      </trkpt>
      <trkpt lat="43.59736" lon="7.09451">
        <ele>130.19091796875</ele>
        <time>2020-05-14T12:21:05Z</time>
      </trkpt>
      <trkpt lat="43.59736" lon="7.09451">
        <ele>130.10437011719</ele>
        <time>2020-05-14T12:21:06Z</time>
      </trkpt>
      <trkpt lat="43.59737" lon="7.09451">
        <ele>130.24011230469</ele>
        <time>2020-05-14T12:21:07Z</time>
      </trkpt>
      <trkpt lat="43.59737" lon="7.09451">
        <ele>130.1572265625</ele>
        <time>2020-05-14T12:21:08Z</time>
      </trkpt>
      <trkpt lat="43.59737" lon="7.09451">
        <ele>130.21063232422</ele>
        <time>2020-05-14T12:21:09Z</time>
      </trkpt>
      <trkpt lat="43.59737" lon="7.09451">
        <ele>130.12902832031</ele>
        <time>2020-05-14T12:21:10Z</time>
      </trkpt>
      <trkpt lat="43.59737" lon="7.09451">
        <ele>130.48126220703</ele>
        <time>2020-05-14T12:21:11Z</time>
      </trkpt>
      <trkpt lat="43.59737" lon="7.09451">
        <ele>130.37548828125</ele>
        <time>2020-05-14T12:21:12Z</time>
      </trkpt>
      <trkpt lat="43.59737" lon="7.0945">
        <ele>130.48559570312</ele>
        <time>2020-05-14T12:21:13Z</time>
      </trkpt>
      <trkpt lat="43.59737" lon="7.0945">
        <ele>130.44708251953</ele>
        <time>2020-05-14T12:21:14Z</time>
      </trkpt>
      <trkpt lat="43.59737" lon="7.0945">
        <ele>130.42669677734</ele>
        <time>2020-05-14T12:21:15Z</time>
      </trkpt>
      <trkpt lat="43.59737" lon="7.0945">
        <ele>130.40203857422</ele>
        <time>2020-05-14T12:21:16Z</time>
      </trkpt>
      <trkpt lat="43.59737" lon="7.0945">
        <ele>130.39862060547</ele>
        <time>2020-05-14T12:21:17Z</time>
      </trkpt>
      <trkpt lat="43.59737" lon="7.0945">
        <ele>130.39654541016</ele>
        <time>2020-05-14T12:21:18Z</time>
      </trkpt>
      <trkpt lat="43.59737" lon="7.0945">
        <ele>130.39617919922</ele>
        <time>2020-05-14T12:21:19Z</time>
      </trkpt>
      <trkpt lat="43.59737" lon="7.0945">
        <ele>130.38629150391</ele>
        <time>2020-05-14T12:21:20Z</time>
      </trkpt>
      <trkpt lat="43.59737" lon="7.0945">
        <ele>130.38140869141</ele>
        <time>2020-05-14T12:21:21Z</time>
      </trkpt>
      <trkpt lat="43.59737" lon="7.0945">
        <ele>130.37768554688</ele>
        <time>2020-05-14T12:21:22Z</time>
      </trkpt>
      <trkpt lat="43.59737" lon="7.0945">
        <ele>130.3779296875</ele>
        <time>2020-05-14T12:21:23Z</time>
      </trkpt>
      <trkpt lat="43.59737" lon="7.0945">
        <ele>130.37756347656</ele>
        <time>2020-05-14T12:21:24Z</time>
      </trkpt>
      <trkpt lat="43.59737" lon="7.0945">
        <ele>130.37512207031</ele>
        <time>2020-05-14T12:21:25Z</time>
      </trkpt>
      <trkpt lat="43.59737" lon="7.0945">
        <ele>130.4833984375</ele>
        <time>2020-05-14T12:21:26Z</time>
      </trkpt>
      <trkpt lat="43.59737" lon="7.0945">
        <ele>130.46899414062</ele>
        <time>2020-05-14T12:21:27Z</time>
      </trkpt>
      <trkpt lat="43.59737" lon="7.0945">
        <ele>130.46716308594</ele>
        <time>2020-05-14T12:21:28Z</time>
      </trkpt>
      <trkpt lat="43.59737" lon="7.0945">
        <ele>130.50524902344</ele>
        <time>2020-05-14T12:21:29Z</time>
      </trkpt>
      <trkpt lat="43.59737" lon="7.0945">
        <ele>130.52514648438</ele>
        <time>2020-05-14T12:21:30Z</time>
      </trkpt>
      <trkpt lat="43.59737" lon="7.0945">
        <ele>130.5263671875</ele>
        <time>2020-05-14T12:21:31Z</time>
      </trkpt>
      <trkpt lat="43.59737" lon="7.0945">
        <ele>130.53485107422</ele>
        <time>2020-05-14T12:21:32Z</time>
      </trkpt>
      <trkpt lat="43.59737" lon="7.0945">
        <ele>130.53833007812</ele>
        <time>2020-05-14T12:21:33Z</time>
      </trkpt>
      <trkpt lat="43.59737" lon="7.0945">
        <ele>130.53802490234</ele>
        <time>2020-05-14T12:21:34Z</time>
      </trkpt>
      <trkpt lat="43.59737" lon="7.0945">
        <ele>130.53979492188</ele>
        <time>2020-05-14T12:21:35Z</time>
      </trkpt>
      <trkpt lat="43.59737" lon="7.0945">
        <ele>130.53826904297</ele>
        <time>2020-05-14T12:21:36Z</time>
      </trkpt>
      <trkpt lat="43.59737" lon="7.0945">
        <ele>130.53723144531</ele>
        <time>2020-05-14T12:21:37Z</time>
      </trkpt>
      <trkpt lat="43.59737" lon="7.0945">
        <ele>130.53894042969</ele>
        <time>2020-05-14T12:21:38Z</time>
      </trkpt>
      <trkpt lat="43.59737" lon="7.0945">
        <ele>130.54071044922</ele>
        <time>2020-05-14T12:21:39Z</time>
      </trkpt>
      <trkpt lat="43.59737" lon="7.0945">
        <ele>130.54382324219</ele>
        <time>2020-05-14T12:21:40Z</time>
      </trkpt>
      <trkpt lat="43.59737" lon="7.0945">
        <ele>130.546875</ele>
        <time>2020-05-14T12:21:41Z</time>
      </trkpt>
      <trkpt lat="43.59737" lon="7.0945">
        <ele>130.55206298828</ele>
        <time>2020-05-14T12:21:42Z</time>
      </trkpt>
      <trkpt lat="43.59737" lon="7.0945">
        <ele>130.55541992188</ele>
        <time>2020-05-14T12:21:43Z</time>
      </trkpt>
      <trkpt lat="43.59737" lon="7.0945">
        <ele>130.55786132812</ele>
        <time>2020-05-14T12:21:44Z</time>
      </trkpt>
      <trkpt lat="43.59737" lon="7.0945">
        <ele>130.55883789062</ele>
        <time>2020-05-14T12:21:45Z</time>
      </trkpt>
      <trkpt lat="43.59737" lon="7.0945">
        <ele>130.56048583984</ele>
        <time>2020-05-14T12:21:46Z</time>
      </trkpt>
      <trkpt lat="43.59737" lon="7.0945">
        <ele>130.56384277344</ele>
        <time>2020-05-14T12:21:47Z</time>
      </trkpt>
      <trkpt lat="43.59737" lon="7.0945">
        <ele>130.56188964844</ele>
        <time>2020-05-14T12:21:48Z</time>
      </trkpt>
      <trkpt lat="43.59737" lon="7.0945">
        <ele>130.55816650391</ele>
        <time>2020-05-14T12:21:49Z</time>
      </trkpt>
      <trkpt lat="43.59737" lon="7.0945">
        <ele>130.5595703125</ele>
        <time>2020-05-14T12:21:50Z</time>
      </trkpt>
      <trkpt lat="43.59737" lon="7.0945">
        <ele>130.55883789062</ele>
        <time>2020-05-14T12:21:51Z</time>
      </trkpt>
      <trkpt lat="43.59737" lon="7.0945">
        <ele>130.56237792969</ele>
        <time>2020-05-14T12:21:52Z</time>
      </trkpt>
      <trkpt lat="43.59737" lon="7.0945">
        <ele>130.54046630859</ele>
        <time>2020-05-14T12:21:53Z</time>
      </trkpt>
      <trkpt lat="43.59737" lon="7.0945">
        <ele>130.71807861328</ele>
        <time>2020-05-14T12:21:54Z</time>
      </trkpt>
      <trkpt lat="43.59737" lon="7.09451">
        <ele>130.85479736328</ele>
        <time>2020-05-14T12:21:55Z</time>
      </trkpt>
      <trkpt lat="43.59737" lon="7.09451">
        <ele>131.02520751953</ele>
        <time>2020-05-14T12:21:56Z</time>
      </trkpt>
      <trkpt lat="43.59736" lon="7.09451">
        <ele>131.13500976562</ele>
        <time>2020-05-14T12:21:57Z</time>
      </trkpt>
      <trkpt lat="43.59736" lon="7.09451">
        <ele>131.01708984375</ele>
        <time>2020-05-14T12:21:58Z</time>
      </trkpt>
      <trkpt lat="43.59736" lon="7.09451">
        <ele>131.03771972656</ele>
        <time>2020-05-14T12:21:59Z</time>
      </trkpt>
      <trkpt lat="43.59736" lon="7.09451">
        <ele>131.009765625</ele>
        <time>2020-05-14T12:22:00Z</time>
      </trkpt>
      <trkpt lat="43.59736" lon="7.09451">
        <ele>130.77606201172</ele>
        <time>2020-05-14T12:22:01Z</time>
      </trkpt>
      <trkpt lat="43.59737" lon="7.09451">
        <ele>130.669921875</ele>
        <time>2020-05-14T12:22:02Z</time>
      </trkpt>
      <trkpt lat="43.59737" lon="7.09451">
        <ele>130.5791015625</ele>
        <time>2020-05-14T12:22:03Z</time>
      </trkpt>
      <trkpt lat="43.59737" lon="7.09451">
        <ele>130.60559082031</ele>
        <time>2020-05-14T12:22:04Z</time>
      </trkpt>
      <trkpt lat="43.59737" lon="7.09451">
        <ele>130.59997558594</ele>
        <time>2020-05-14T12:22:05Z</time>
      </trkpt>
      <trkpt lat="43.59737" lon="7.09451">
        <ele>130.60211181641</ele>
        <time>2020-05-14T12:22:06Z</time>
      </trkpt>
      <trkpt lat="43.59737" lon="7.09451">
        <ele>130.59973144531</ele>
        <time>2020-05-14T12:22:07Z</time>
      </trkpt>
      <trkpt lat="43.59737" lon="7.09451">
        <ele>130.59997558594</ele>
        <time>2020-05-14T12:22:08Z</time>
      </trkpt>
      <trkpt lat="43.59737" lon="7.09451">
        <ele>130.59893798828</ele>
        <time>2020-05-14T12:22:09Z</time>
      </trkpt>
      <trkpt lat="43.59737" lon="7.09451">
        <ele>130.59777832031</ele>
        <time>2020-05-14T12:22:10Z</time>
      </trkpt>
      <trkpt lat="43.59737" lon="7.09451">
        <ele>130.59820556641</ele>
        <time>2020-05-14T12:22:11Z</time>
      </trkpt>
      <trkpt lat="43.59737" lon="7.09451">
        <ele>130.65612792969</ele>
        <time>2020-05-14T12:22:12Z</time>
      </trkpt>
      <trkpt lat="43.59737" lon="7.09451">
        <ele>130.69030761719</ele>
        <time>2020-05-14T12:22:13Z</time>
      </trkpt>
      <trkpt lat="43.59737" lon="7.09451">
        <ele>130.71008300781</ele>
        <time>2020-05-14T12:22:14Z</time>
      </trkpt>
      <trkpt lat="43.59737" lon="7.09451">
        <ele>130.71722412109</ele>
        <time>2020-05-14T12:22:15Z</time>
      </trkpt>
      <trkpt lat="43.59737" lon="7.09451">
        <ele>130.72229003906</ele>
        <time>2020-05-14T12:22:16Z</time>
      </trkpt>
      <trkpt lat="43.59737" lon="7.09451">
        <ele>130.72625732422</ele>
        <time>2020-05-14T12:22:17Z</time>
      </trkpt>
      <trkpt lat="43.59737" lon="7.09451">
        <ele>130.72955322266</ele>
        <time>2020-05-14T12:22:18Z</time>
      </trkpt>
      <trkpt lat="43.59737" lon="7.09451">
        <ele>130.73272705078</ele>
        <time>2020-05-14T12:22:19Z</time>
      </trkpt>
      <trkpt lat="43.59737" lon="7.09451">
        <ele>130.73541259766</ele>
        <time>2020-05-14T12:22:20Z</time>
      </trkpt>
      <trkpt lat="43.59737" lon="7.09451">
        <ele>130.98132324219</ele>
        <time>2020-05-14T12:22:21Z</time>
      </trkpt>
      <trkpt lat="43.59737" lon="7.09451">
        <ele>131.43475341797</ele>
        <time>2020-05-14T12:22:22Z</time>
      </trkpt>
      <trkpt lat="43.59738" lon="7.09452">
        <ele>131.53131103516</ele>
        <time>2020-05-14T12:22:23Z</time>
      </trkpt>
      <trkpt lat="43.59739" lon="7.09453">
        <ele>131.65075683594</ele>
        <time>2020-05-14T12:22:24Z</time>
      </trkpt>
      <trkpt lat="43.59741" lon="7.09453">
        <ele>131.833984375</ele>
        <time>2020-05-14T12:22:25Z</time>
      </trkpt>
      <trkpt lat="43.59743" lon="7.09452">
        <ele>131.91284179688</ele>
        <time>2020-05-14T12:22:26Z</time>
      </trkpt>
      <trkpt lat="43.59745" lon="7.09451">
        <ele>131.81793212891</ele>
        <time>2020-05-14T12:22:27Z</time>
      </trkpt>
      <trkpt lat="43.59746" lon="7.09451">
        <ele>132.01031494141</ele>
        <time>2020-05-14T12:22:28Z</time>
      </trkpt>
      <trkpt lat="43.59746" lon="7.09451">
        <ele>131.50250244141</ele>
        <time>2020-05-14T12:22:29Z</time>
      </trkpt>
      <trkpt lat="43.59747" lon="7.0945">
        <ele>131.55407714844</ele>
        <time>2020-05-14T12:22:30Z</time>
      </trkpt>
      <trkpt lat="43.59749" lon="7.0945">
        <ele>131.47143554688</ele>
        <time>2020-05-14T12:22:31Z</time>
      </trkpt>
      <trkpt lat="43.59752" lon="7.09449">
        <ele>131.01568603516</ele>
        <time>2020-05-14T12:22:32Z</time>
      </trkpt>
      <trkpt lat="43.59755" lon="7.09447">
        <ele>130.89147949219</ele>
        <time>2020-05-14T12:22:33Z</time>
      </trkpt>
      <trkpt lat="43.5976" lon="7.09442">
        <ele>130.85968017578</ele>
        <time>2020-05-14T12:22:34Z</time>
      </trkpt>
      <trkpt lat="43.59765" lon="7.09439">
        <ele>130.65185546875</ele>
        <time>2020-05-14T12:22:35Z</time>
      </trkpt>
      <trkpt lat="43.5977" lon="7.09438">
        <ele>130.71624755859</ele>
        <time>2020-05-14T12:22:36Z</time>
      </trkpt>
      <trkpt lat="43.59776" lon="7.09437">
        <ele>130.67352294922</ele>
        <time>2020-05-14T12:22:37Z</time>
      </trkpt>
      <trkpt lat="43.59782" lon="7.09438">
        <ele>130.5048828125</ele>
        <time>2020-05-14T12:22:38Z</time>
      </trkpt>
      <trkpt lat="43.59788" lon="7.09438">
        <ele>130.72027587891</ele>
        <time>2020-05-14T12:22:39Z</time>
      </trkpt>
      <trkpt lat="43.59794" lon="7.09438">
        <ele>130.26257324219</ele>
        <time>2020-05-14T12:22:40Z</time>
      </trkpt>
      <trkpt lat="43.598" lon="7.09438">
        <ele>130.19262695312</ele>
        <time>2020-05-14T12:22:41Z</time>
      </trkpt>
      <trkpt lat="43.59807" lon="7.09435">
        <ele>129.57238769531</ele>
        <time>2020-05-14T12:22:42Z</time>
      </trkpt>
      <trkpt lat="43.59813" lon="7.0943">
        <ele>128.91021728516</ele>
        <time>2020-05-14T12:22:43Z</time>
      </trkpt>
      <trkpt lat="43.59817" lon="7.09421">
        <ele>128.09631347656</ele>
        <time>2020-05-14T12:22:44Z</time>
      </trkpt>
      <trkpt lat="43.5982" lon="7.09412">
        <ele>127.91510009766</ele>
        <time>2020-05-14T12:22:45Z</time>
      </trkpt>
      <trkpt lat="43.59822" lon="7.09402">
        <ele>127.80364990234</ele>
        <time>2020-05-14T12:22:46Z</time>
      </trkpt>
      <trkpt lat="43.59822" lon="7.09392">
        <ele>127.94085693359</ele>
        <time>2020-05-14T12:22:47Z</time>
      </trkpt>
      <trkpt lat="43.59822" lon="7.09383">
        <ele>127.77691650391</ele>
        <time>2020-05-14T12:22:48Z</time>
      </trkpt>
      <trkpt lat="43.59822" lon="7.09374">
        <ele>127.85174560547</ele>
        <time>2020-05-14T12:22:49Z</time>
      </trkpt>
      <trkpt lat="43.59822" lon="7.09365">
        <ele>127.76031494141</ele>
        <time>2020-05-14T12:22:50Z</time>
      </trkpt>
      <trkpt lat="43.59823" lon="7.09358">
        <ele>128.20678710938</ele>
        <time>2020-05-14T12:22:51Z</time>
      </trkpt>
      <trkpt lat="43.59823" lon="7.0935">
        <ele>128.79046630859</ele>
        <time>2020-05-14T12:22:52Z</time>
      </trkpt>
      <trkpt lat="43.59824" lon="7.09343">
        <ele>128.74731445312</ele>
        <time>2020-05-14T12:22:53Z</time>
      </trkpt>
      <trkpt lat="43.59824" lon="7.09337">
        <ele>129.25909423828</ele>
        <time>2020-05-14T12:22:54Z</time>
      </trkpt>
      <trkpt lat="43.59825" lon="7.09331">
        <ele>129.61767578125</ele>
        <time>2020-05-14T12:22:55Z</time>
      </trkpt>
      <trkpt lat="43.59825" lon="7.09325">
        <ele>129.71496582031</ele>
        <time>2020-05-14T12:22:56Z</time>
      </trkpt>
      <trkpt lat="43.59826" lon="7.0932">
        <ele>130.52996826172</ele>
        <time>2020-05-14T12:22:57Z</time>
      </trkpt>
      <trkpt lat="43.59826" lon="7.09315">
        <ele>131.12329101562</ele>
        <time>2020-05-14T12:22:58Z</time>
      </trkpt>
      <trkpt lat="43.59827" lon="7.0931">
        <ele>131.2314453125</ele>
        <time>2020-05-14T12:22:59Z</time>
      </trkpt>
      <trkpt lat="43.59827" lon="7.09306">
        <ele>131.52258300781</ele>
        <time>2020-05-14T12:23:00Z</time>
      </trkpt>
      <trkpt lat="43.59827" lon="7.09301">
        <ele>131.88354492188</ele>
        <time>2020-05-14T12:23:01Z</time>
      </trkpt>
      <trkpt lat="43.59828" lon="7.09296">
        <ele>131.92272949219</ele>
        <time>2020-05-14T12:23:02Z</time>
      </trkpt>
      <trkpt lat="43.59828" lon="7.09291">
        <ele>132.05725097656</ele>
        <time>2020-05-14T12:23:03Z</time>
      </trkpt>
      <trkpt lat="43.59828" lon="7.09286">
        <ele>132.26483154297</ele>
        <time>2020-05-14T12:23:04Z</time>
      </trkpt>
      <trkpt lat="43.59829" lon="7.09282">
        <ele>132.19940185547</ele>
        <time>2020-05-14T12:23:05Z</time>
      </trkpt>
      <trkpt lat="43.59829" lon="7.09277">
        <ele>132.23297119141</ele>
        <time>2020-05-14T12:23:06Z</time>
      </trkpt>
      <trkpt lat="43.5983" lon="7.09273">
        <ele>132.95483398438</ele>
        <time>2020-05-14T12:23:07Z</time>
      </trkpt>
      <trkpt lat="43.59831" lon="7.09268">
        <ele>133.41882324219</ele>
        <time>2020-05-14T12:23:08Z</time>
      </trkpt>
      <trkpt lat="43.59831" lon="7.09263">
        <ele>133.16955566406</ele>
        <time>2020-05-14T12:23:09Z</time>
      </trkpt>
      <trkpt lat="43.59832" lon="7.09258">
        <ele>133.55688476562</ele>
        <time>2020-05-14T12:23:10Z</time>
      </trkpt>
      <trkpt lat="43.59833" lon="7.09254">
        <ele>133.90393066406</ele>
        <time>2020-05-14T12:23:11Z</time>
      </trkpt>
      <trkpt lat="43.59834" lon="7.09248">
        <ele>134.42395019531</ele>
        <time>2020-05-14T12:23:12Z</time>
      </trkpt>
      <trkpt lat="43.59834" lon="7.09243">
        <ele>134.63739013672</ele>
        <time>2020-05-14T12:23:13Z</time>
      </trkpt>
      <trkpt lat="43.59836" lon="7.09238">
        <ele>134.79376220703</ele>
        <time>2020-05-14T12:23:14Z</time>
      </trkpt>
      <trkpt lat="43.59837" lon="7.09233">
        <ele>134.63562011719</ele>
        <time>2020-05-14T12:23:15Z</time>
      </trkpt>
      <trkpt lat="43.59839" lon="7.09228">
        <ele>135.19201660156</ele>
        <time>2020-05-14T12:23:16Z</time>
      </trkpt>
      <trkpt lat="43.59841" lon="7.09224">
        <ele>135.15576171875</ele>
        <time>2020-05-14T12:23:17Z</time>
      </trkpt>
      <trkpt lat="43.59843" lon="7.0922">
        <ele>133.79699707031</ele>
        <time>2020-05-14T12:23:18Z</time>
      </trkpt>
      <trkpt lat="43.59845" lon="7.09215">
        <ele>133.98547363281</ele>
        <time>2020-05-14T12:23:19Z</time>
      </trkpt>
      <trkpt lat="43.59848" lon="7.09211">
        <ele>134.1552734375</ele>
        <time>2020-05-14T12:23:20Z</time>
      </trkpt>
      <trkpt lat="43.59851" lon="7.09207">
        <ele>133.66436767578</ele>
        <time>2020-05-14T12:23:21Z</time>
      </trkpt>
      <trkpt lat="43.59853" lon="7.09203">
        <ele>134.18646240234</ele>
        <time>2020-05-14T12:23:22Z</time>
      </trkpt>
      <trkpt lat="43.59856" lon="7.09198">
        <ele>133.63763427734</ele>
        <time>2020-05-14T12:23:23Z</time>
      </trkpt>
      <trkpt lat="43.59859" lon="7.09194">
        <ele>132.9765625</ele>
        <time>2020-05-14T12:23:24Z</time>
      </trkpt>
      <trkpt lat="43.59864" lon="7.09189">
        <ele>132.39910888672</ele>
        <time>2020-05-14T12:23:25Z</time>
      </trkpt>
      <trkpt lat="43.59868" lon="7.09184">
        <ele>132.25347900391</ele>
        <time>2020-05-14T12:23:26Z</time>
      </trkpt>
      <trkpt lat="43.59872" lon="7.09179">
        <ele>131.9365234375</ele>
        <time>2020-05-14T12:23:27Z</time>
      </trkpt>
      <trkpt lat="43.59876" lon="7.09174">
        <ele>131.54650878906</ele>
        <time>2020-05-14T12:23:28Z</time>
      </trkpt>
      <trkpt lat="43.5988" lon="7.0917">
        <ele>131.38726806641</ele>
        <time>2020-05-14T12:23:29Z</time>
      </trkpt>
      <trkpt lat="43.59885" lon="7.09167">
        <ele>131.16394042969</ele>
        <time>2020-05-14T12:23:30Z</time>
      </trkpt>
      <trkpt lat="43.59891" lon="7.09163">
        <ele>131.23547363281</ele>
        <time>2020-05-14T12:23:31Z</time>
      </trkpt>
      <trkpt lat="43.59897" lon="7.0916">
        <ele>130.95422363281</ele>
        <time>2020-05-14T12:23:32Z</time>
      </trkpt>
      <trkpt lat="43.59903" lon="7.09157">
        <ele>130.78723144531</ele>
        <time>2020-05-14T12:23:33Z</time>
      </trkpt>
      <trkpt lat="43.59909" lon="7.09155">
        <ele>130.50842285156</ele>
        <time>2020-05-14T12:23:34Z</time>
      </trkpt>
      <trkpt lat="43.59916" lon="7.09151">
        <ele>130.42626953125</ele>
        <time>2020-05-14T12:23:35Z</time>
      </trkpt>
      <trkpt lat="43.59922" lon="7.09147">
        <ele>129.8828125</ele>
        <time>2020-05-14T12:23:36Z</time>
      </trkpt>
      <trkpt lat="43.59929" lon="7.09143">
        <ele>130.01989746094</ele>
        <time>2020-05-14T12:23:37Z</time>
      </trkpt>
      <trkpt lat="43.59936" lon="7.09139">
        <ele>130.16662597656</ele>
        <time>2020-05-14T12:23:38Z</time>
      </trkpt>
      <trkpt lat="43.59943" lon="7.09135">
        <ele>129.89831542969</ele>
        <time>2020-05-14T12:23:39Z</time>
      </trkpt>
      <trkpt lat="43.5995" lon="7.09129">
        <ele>129.08221435547</ele>
        <time>2020-05-14T12:23:40Z</time>
      </trkpt>
      <trkpt lat="43.59957" lon="7.09124">
        <ele>128.01470947266</ele>
        <time>2020-05-14T12:23:41Z</time>
      </trkpt>
      <trkpt lat="43.59965" lon="7.09117">
        <ele>128.20788574219</ele>
        <time>2020-05-14T12:23:42Z</time>
      </trkpt>
      <trkpt lat="43.59973" lon="7.09112">
        <ele>128.06396484375</ele>
        <time>2020-05-14T12:23:43Z</time>
      </trkpt>
      <trkpt lat="43.59982" lon="7.09107">
        <ele>127.08428955078</ele>
        <time>2020-05-14T12:23:44Z</time>
      </trkpt>
      <trkpt lat="43.59991" lon="7.09103">
        <ele>125.85925292969</ele>
        <time>2020-05-14T12:23:45Z</time>
      </trkpt>
      <trkpt lat="43.6" lon="7.091">
        <ele>124.98901367188</ele>
        <time>2020-05-14T12:23:46Z</time>
      </trkpt>
      <trkpt lat="43.60009" lon="7.09098">
        <ele>124.47454833984</ele>
        <time>2020-05-14T12:23:47Z</time>
      </trkpt>
      <trkpt lat="43.60018" lon="7.09099">
        <ele>123.24206542969</ele>
        <time>2020-05-14T12:23:48Z</time>
      </trkpt>
      <trkpt lat="43.60027" lon="7.09097">
        <ele>123.12298583984</ele>
        <time>2020-05-14T12:23:49Z</time>
      </trkpt>
      <trkpt lat="43.60036" lon="7.09094">
        <ele>123.26263427734</ele>
        <time>2020-05-14T12:23:50Z</time>
      </trkpt>
      <trkpt lat="43.60044" lon="7.09092">
        <ele>123.44610595703</ele>
        <time>2020-05-14T12:23:51Z</time>
      </trkpt>
      <trkpt lat="43.60052" lon="7.09096">
        <ele>123.6884765625</ele>
        <time>2020-05-14T12:23:52Z</time>
      </trkpt>
      <trkpt lat="43.60058" lon="7.09099">
        <ele>124.28131103516</ele>
        <time>2020-05-14T12:23:53Z</time>
      </trkpt>
      <trkpt lat="43.60065" lon="7.09103">
        <ele>125.09344482422</ele>
        <time>2020-05-14T12:23:54Z</time>
      </trkpt>
      <trkpt lat="43.60069" lon="7.09108">
        <ele>125.51861572266</ele>
        <time>2020-05-14T12:23:55Z</time>
      </trkpt>
      <trkpt lat="43.60074" lon="7.09111">
        <ele>126.52593994141</ele>
        <time>2020-05-14T12:23:56Z</time>
      </trkpt>
      <trkpt lat="43.60079" lon="7.09114">
        <ele>126.97875976562</ele>
        <time>2020-05-14T12:23:57Z</time>
      </trkpt>
      <trkpt lat="43.60083" lon="7.09116">
        <ele>127.39331054688</ele>
        <time>2020-05-14T12:23:58Z</time>
      </trkpt>
      <trkpt lat="43.60086" lon="7.09119">
        <ele>127.42895507812</ele>
        <time>2020-05-14T12:23:59Z</time>
      </trkpt>
      <trkpt lat="43.60089" lon="7.09121">
        <ele>127.84197998047</ele>
        <time>2020-05-14T12:24:00Z</time>
      </trkpt>
      <trkpt lat="43.60093" lon="7.09123">
        <ele>128.14965820312</ele>
        <time>2020-05-14T12:24:01Z</time>
      </trkpt>
      <trkpt lat="43.60096" lon="7.09125">
        <ele>128.46069335938</ele>
        <time>2020-05-14T12:24:02Z</time>
      </trkpt>
      <trkpt lat="43.60099" lon="7.09127">
        <ele>129.18182373047</ele>
        <time>2020-05-14T12:24:03Z</time>
      </trkpt>
      <trkpt lat="43.60103" lon="7.09129">
        <ele>129.64965820312</ele>
        <time>2020-05-14T12:24:04Z</time>
      </trkpt>
      <trkpt lat="43.60106" lon="7.09131">
        <ele>130.20330810547</ele>
        <time>2020-05-14T12:24:05Z</time>
      </trkpt>
      <trkpt lat="43.6011" lon="7.09133">
        <ele>131.09887695312</ele>
        <time>2020-05-14T12:24:06Z</time>
      </trkpt>
      <trkpt lat="43.60113" lon="7.09135">
        <ele>131.61206054688</ele>
        <time>2020-05-14T12:24:07Z</time>
      </trkpt>
      <trkpt lat="43.60117" lon="7.09136">
        <ele>134.09991455078</ele>
        <time>2020-05-14T12:24:08Z</time>
      </trkpt>
      <trkpt lat="43.60121" lon="7.09138">
        <ele>133.89978027344</ele>
        <time>2020-05-14T12:24:09Z</time>
      </trkpt>
      <trkpt lat="43.60124" lon="7.0914">
        <ele>133.51721191406</ele>
        <time>2020-05-14T12:24:10Z</time>
      </trkpt>
      <trkpt lat="43.60127" lon="7.09142">
        <ele>133.28527832031</ele>
        <time>2020-05-14T12:24:11Z</time>
      </trkpt>
      <trkpt lat="43.6013" lon="7.09145">
        <ele>133.03436279297</ele>
        <time>2020-05-14T12:24:12Z</time>
      </trkpt>
      <trkpt lat="43.60134" lon="7.09147">
        <ele>133.51898193359</ele>
        <time>2020-05-14T12:24:13Z</time>
      </trkpt>
      <trkpt lat="43.60137" lon="7.0915">
        <ele>133.37652587891</ele>
        <time>2020-05-14T12:24:14Z</time>
      </trkpt>
      <trkpt lat="43.60141" lon="7.09152">
        <ele>133.23229980469</ele>
        <time>2020-05-14T12:24:15Z</time>
      </trkpt>
      <trkpt lat="43.60145" lon="7.09154">
        <ele>132.22436523438</ele>
        <time>2020-05-14T12:24:16Z</time>
      </trkpt>
      <trkpt lat="43.60149" lon="7.09155">
        <ele>132.60375976562</ele>
        <time>2020-05-14T12:24:17Z</time>
      </trkpt>
      <trkpt lat="43.60153" lon="7.09156">
        <ele>133.67944335938</ele>
        <time>2020-05-14T12:24:18Z</time>
      </trkpt>
      <trkpt lat="43.60157" lon="7.09157">
        <ele>134.91717529297</ele>
        <time>2020-05-14T12:24:19Z</time>
      </trkpt>
      <trkpt lat="43.60161" lon="7.09158">
        <ele>135.57757568359</ele>
        <time>2020-05-14T12:24:20Z</time>
      </trkpt>
      <trkpt lat="43.60165" lon="7.09159">
        <ele>136.23120117188</ele>
        <time>2020-05-14T12:24:21Z</time>
      </trkpt>
      <trkpt lat="43.60169" lon="7.0916">
        <ele>136.26519775391</ele>
        <time>2020-05-14T12:24:22Z</time>
      </trkpt>
      <trkpt lat="43.60172" lon="7.09161">
        <ele>136.04931640625</ele>
        <time>2020-05-14T12:24:23Z</time>
      </trkpt>
      <trkpt lat="43.60176" lon="7.09162">
        <ele>136.06188964844</ele>
        <time>2020-05-14T12:24:24Z</time>
      </trkpt>
      <trkpt lat="43.60179" lon="7.09163">
        <ele>136.65350341797</ele>
        <time>2020-05-14T12:24:25Z</time>
      </trkpt>
      <trkpt lat="43.60183" lon="7.09164">
        <ele>137.14916992188</ele>
        <time>2020-05-14T12:24:26Z</time>
      </trkpt>
      <trkpt lat="43.60186" lon="7.09164">
        <ele>137.3681640625</ele>
        <time>2020-05-14T12:24:27Z</time>
      </trkpt>
      <trkpt lat="43.6019" lon="7.09165">
        <ele>138.64801025391</ele>
        <time>2020-05-14T12:24:28Z</time>
      </trkpt>
      <trkpt lat="43.60193" lon="7.09164">
        <ele>138.73059082031</ele>
        <time>2020-05-14T12:24:29Z</time>
      </trkpt>
      <trkpt lat="43.60196" lon="7.09163">
        <ele>138.95275878906</ele>
        <time>2020-05-14T12:24:30Z</time>
      </trkpt>
      <trkpt lat="43.602" lon="7.09162">
        <ele>138.70385742188</ele>
        <time>2020-05-14T12:24:31Z</time>
      </trkpt>
      <trkpt lat="43.60204" lon="7.09162">
        <ele>138.41760253906</ele>
        <time>2020-05-14T12:24:32Z</time>
      </trkpt>
      <trkpt lat="43.60208" lon="7.09163">
        <ele>139.25109863281</ele>
        <time>2020-05-14T12:24:33Z</time>
      </trkpt>
      <trkpt lat="43.60212" lon="7.09164">
        <ele>138.71807861328</ele>
        <time>2020-05-14T12:24:34Z</time>
      </trkpt>
      <trkpt lat="43.60216" lon="7.09166">
        <ele>138.22875976562</ele>
        <time>2020-05-14T12:24:35Z</time>
      </trkpt>
      <trkpt lat="43.6022" lon="7.09166">
        <ele>137.70837402344</ele>
        <time>2020-05-14T12:24:36Z</time>
      </trkpt>
      <trkpt lat="43.60224" lon="7.09167">
        <ele>137.42340087891</ele>
        <time>2020-05-14T12:24:37Z</time>
      </trkpt>
      <trkpt lat="43.60228" lon="7.09167">
        <ele>136.49688720703</ele>
        <time>2020-05-14T12:24:38Z</time>
      </trkpt>
      <trkpt lat="43.60232" lon="7.09168">
        <ele>137.01220703125</ele>
        <time>2020-05-14T12:24:39Z</time>
      </trkpt>
      <trkpt lat="43.60236" lon="7.09168">
        <ele>136.46801757812</ele>
        <time>2020-05-14T12:24:40Z</time>
      </trkpt>
      <trkpt lat="43.6024" lon="7.09166">
        <ele>136.91101074219</ele>
        <time>2020-05-14T12:24:41Z</time>
      </trkpt>
      <trkpt lat="43.60243" lon="7.09164">
        <ele>137.05981445312</ele>
        <time>2020-05-14T12:24:42Z</time>
      </trkpt>
      <trkpt lat="43.60246" lon="7.09159">
        <ele>136.89886474609</ele>
        <time>2020-05-14T12:24:43Z</time>
      </trkpt>
      <trkpt lat="43.60245" lon="7.09151">
        <ele>137.08679199219</ele>
        <time>2020-05-14T12:24:44Z</time>
      </trkpt>
      <trkpt lat="43.60245" lon="7.09144">
        <ele>136.22326660156</ele>
        <time>2020-05-14T12:24:45Z</time>
      </trkpt>
      <trkpt lat="43.60244" lon="7.09137">
        <ele>136.40112304688</ele>
        <time>2020-05-14T12:24:46Z</time>
      </trkpt>
      <trkpt lat="43.60243" lon="7.0913">
        <ele>136.58337402344</ele>
        <time>2020-05-14T12:24:47Z</time>
      </trkpt>
      <trkpt lat="43.60242" lon="7.09122">
        <ele>136.27819824219</ele>
        <time>2020-05-14T12:24:48Z</time>
      </trkpt>
      <trkpt lat="43.60241" lon="7.09114">
        <ele>135.93859863281</ele>
        <time>2020-05-14T12:24:49Z</time>
      </trkpt>
      <trkpt lat="43.60242" lon="7.09105">
        <ele>135.95550537109</ele>
        <time>2020-05-14T12:24:50Z</time>
      </trkpt>
      <trkpt lat="43.60244" lon="7.09096">
        <ele>136.4404296875</ele>
        <time>2020-05-14T12:24:51Z</time>
      </trkpt>
      <trkpt lat="43.60247" lon="7.09087">
        <ele>137.42254638672</ele>
        <time>2020-05-14T12:24:52Z</time>
      </trkpt>
      <trkpt lat="43.6025" lon="7.0908">
        <ele>137.59924316406</ele>
        <time>2020-05-14T12:24:53Z</time>
      </trkpt>
      <trkpt lat="43.60252" lon="7.0907">
        <ele>137.35260009766</ele>
        <time>2020-05-14T12:24:54Z</time>
      </trkpt>
      <trkpt lat="43.60253" lon="7.09062">
        <ele>137.05621337891</ele>
        <time>2020-05-14T12:24:55Z</time>
      </trkpt>
      <trkpt lat="43.60256" lon="7.09054">
        <ele>137.30908203125</ele>
        <time>2020-05-14T12:24:56Z</time>
      </trkpt>
      <trkpt lat="43.60257" lon="7.09047">
        <ele>137.23559570312</ele>
        <time>2020-05-14T12:24:57Z</time>
      </trkpt>
      <trkpt lat="43.60258" lon="7.09037">
        <ele>137.17742919922</ele>
        <time>2020-05-14T12:24:58Z</time>
      </trkpt>
      <trkpt lat="43.60261" lon="7.09029">
        <ele>135.8388671875</ele>
        <time>2020-05-14T12:24:59Z</time>
      </trkpt>
      <trkpt lat="43.60263" lon="7.09021">
        <ele>135.76196289062</ele>
        <time>2020-05-14T12:25:00Z</time>
      </trkpt>
      <trkpt lat="43.60264" lon="7.09012">
        <ele>135.95104980469</ele>
        <time>2020-05-14T12:25:01Z</time>
      </trkpt>
      <trkpt lat="43.60266" lon="7.09003">
        <ele>135.80889892578</ele>
        <time>2020-05-14T12:25:02Z</time>
      </trkpt>
      <trkpt lat="43.60267" lon="7.08995">
        <ele>136.07678222656</ele>
        <time>2020-05-14T12:25:03Z</time>
      </trkpt>
      <trkpt lat="43.60268" lon="7.08985">
        <ele>136.65014648438</ele>
        <time>2020-05-14T12:25:04Z</time>
      </trkpt>
      <trkpt lat="43.6027" lon="7.08978">
        <ele>136.34838867188</ele>
        <time>2020-05-14T12:25:05Z</time>
      </trkpt>
      <trkpt lat="43.60271" lon="7.08968">
        <ele>137.31524658203</ele>
        <time>2020-05-14T12:25:06Z</time>
      </trkpt>
      <trkpt lat="43.60272" lon="7.08961">
        <ele>137.3046875</ele>
        <time>2020-05-14T12:25:07Z</time>
      </trkpt>
      <trkpt lat="43.60273" lon="7.08952">
        <ele>137.26025390625</ele>
        <time>2020-05-14T12:25:08Z</time>
      </trkpt>
      <trkpt lat="43.60275" lon="7.08945">
        <ele>136.74499511719</ele>
        <time>2020-05-14T12:25:09Z</time>
      </trkpt>
      <trkpt lat="43.60277" lon="7.08936">
        <ele>136.64898681641</ele>
        <time>2020-05-14T12:25:10Z</time>
      </trkpt>
      <trkpt lat="43.60279" lon="7.08927">
        <ele>136.62365722656</ele>
        <time>2020-05-14T12:25:11Z</time>
      </trkpt>
      <trkpt lat="43.6028" lon="7.08919">
        <ele>136.41772460938</ele>
        <time>2020-05-14T12:25:12Z</time>
      </trkpt>
      <trkpt lat="43.60282" lon="7.08909">
        <ele>136.72387695312</ele>
        <time>2020-05-14T12:25:13Z</time>
      </trkpt>
      <trkpt lat="43.60284" lon="7.089">
        <ele>136.74664306641</ele>
        <time>2020-05-14T12:25:14Z</time>
      </trkpt>
      <trkpt lat="43.60286" lon="7.08893">
        <ele>138.08807373047</ele>
        <time>2020-05-14T12:25:15Z</time>
      </trkpt>
      <trkpt lat="43.60287" lon="7.08884">
        <ele>139.41217041016</ele>
        <time>2020-05-14T12:25:16Z</time>
      </trkpt>
      <trkpt lat="43.60286" lon="7.08875">
        <ele>139.68371582031</ele>
        <time>2020-05-14T12:25:17Z</time>
      </trkpt>
      <trkpt lat="43.60287" lon="7.08868">
        <ele>139.93829345703</ele>
        <time>2020-05-14T12:25:18Z</time>
      </trkpt>
      <trkpt lat="43.60288" lon="7.08859">
        <ele>139.97082519531</ele>
        <time>2020-05-14T12:25:19Z</time>
      </trkpt>
      <trkpt lat="43.60287" lon="7.0885">
        <ele>140.09460449219</ele>
        <time>2020-05-14T12:25:20Z</time>
      </trkpt>
      <trkpt lat="43.60286" lon="7.08841">
        <ele>140.12390136719</ele>
        <time>2020-05-14T12:25:21Z</time>
      </trkpt>
      <trkpt lat="43.60285" lon="7.08833">
        <ele>140.70556640625</ele>
        <time>2020-05-14T12:25:22Z</time>
      </trkpt>
      <trkpt lat="43.60283" lon="7.08825">
        <ele>140.72192382812</ele>
        <time>2020-05-14T12:25:23Z</time>
      </trkpt>
      <trkpt lat="43.60282" lon="7.08816">
        <ele>140.30682373047</ele>
        <time>2020-05-14T12:25:24Z</time>
      </trkpt>
      <trkpt lat="43.60281" lon="7.08808">
        <ele>140.462890625</ele>
        <time>2020-05-14T12:25:25Z</time>
      </trkpt>
      <trkpt lat="43.60278" lon="7.08803">
        <ele>139.98864746094</ele>
        <time>2020-05-14T12:25:26Z</time>
      </trkpt>
      <trkpt lat="43.60277" lon="7.08797">
        <ele>140.2548828125</ele>
        <time>2020-05-14T12:25:27Z</time>
      </trkpt>
      <trkpt lat="43.60277" lon="7.08787">
        <ele>140.22784423828</ele>
        <time>2020-05-14T12:25:28Z</time>
      </trkpt>
      <trkpt lat="43.60275" lon="7.08779">
        <ele>140.69860839844</ele>
        <time>2020-05-14T12:25:29Z</time>
      </trkpt>
      <trkpt lat="43.60274" lon="7.08772">
        <ele>141.1826171875</ele>
        <time>2020-05-14T12:25:30Z</time>
      </trkpt>
      <trkpt lat="43.60273" lon="7.08764">
        <ele>141.75146484375</ele>
        <time>2020-05-14T12:25:31Z</time>
      </trkpt>
      <trkpt lat="43.60271" lon="7.08756">
        <ele>141.87426757812</ele>
        <time>2020-05-14T12:25:32Z</time>
      </trkpt>
      <trkpt lat="43.6027" lon="7.0875">
        <ele>141.92980957031</ele>
        <time>2020-05-14T12:25:33Z</time>
      </trkpt>
      <trkpt lat="43.60268" lon="7.08742">
        <ele>142.12280273438</ele>
        <time>2020-05-14T12:25:34Z</time>
      </trkpt>
      <trkpt lat="43.60266" lon="7.08735">
        <ele>142.82690429688</ele>
        <time>2020-05-14T12:25:35Z</time>
      </trkpt>
      <trkpt lat="43.60265" lon="7.08727">
        <ele>143.26849365234</ele>
        <time>2020-05-14T12:25:36Z</time>
      </trkpt>
      <trkpt lat="43.60263" lon="7.08721">
        <ele>141.73779296875</ele>
        <time>2020-05-14T12:25:37Z</time>
      </trkpt>
      <trkpt lat="43.60261" lon="7.08714">
        <ele>141.70013427734</ele>
        <time>2020-05-14T12:25:38Z</time>
      </trkpt>
      <trkpt lat="43.6026" lon="7.08707">
        <ele>141.5234375</ele>
        <time>2020-05-14T12:25:39Z</time>
      </trkpt>
      <trkpt lat="43.60259" lon="7.087">
        <ele>141.12438964844</ele>
        <time>2020-05-14T12:25:40Z</time>
      </trkpt>
      <trkpt lat="43.6026" lon="7.08691">
        <ele>140.74578857422</ele>
        <time>2020-05-14T12:25:41Z</time>
      </trkpt>
      <trkpt lat="43.6026" lon="7.08685">
        <ele>140.28485107422</ele>
        <time>2020-05-14T12:25:42Z</time>
      </trkpt>
      <trkpt lat="43.60259" lon="7.08678">
        <ele>140.23620605469</ele>
        <time>2020-05-14T12:25:43Z</time>
      </trkpt>
      <trkpt lat="43.6026" lon="7.0867">
        <ele>140.59729003906</ele>
        <time>2020-05-14T12:25:44Z</time>
      </trkpt>
      <trkpt lat="43.60261" lon="7.08664">
        <ele>141.06530761719</ele>
        <time>2020-05-14T12:25:45Z</time>
      </trkpt>
      <trkpt lat="43.6026" lon="7.08657">
        <ele>141.01989746094</ele>
        <time>2020-05-14T12:25:46Z</time>
      </trkpt>
      <trkpt lat="43.60259" lon="7.0865">
        <ele>140.89416503906</ele>
        <time>2020-05-14T12:25:47Z</time>
      </trkpt>
      <trkpt lat="43.60258" lon="7.08644">
        <ele>140.48083496094</ele>
        <time>2020-05-14T12:25:48Z</time>
      </trkpt>
      <trkpt lat="43.60258" lon="7.08637">
        <ele>141.00714111328</ele>
        <time>2020-05-14T12:25:49Z</time>
      </trkpt>
      <trkpt lat="43.60258" lon="7.08631">
        <ele>140.34936523438</ele>
        <time>2020-05-14T12:25:50Z</time>
      </trkpt>
      <trkpt lat="43.60258" lon="7.08624">
        <ele>140.71630859375</ele>
        <time>2020-05-14T12:25:51Z</time>
      </trkpt>
      <trkpt lat="43.60258" lon="7.08616">
        <ele>139.71447753906</ele>
        <time>2020-05-14T12:25:52Z</time>
      </trkpt>
      <trkpt lat="43.60258" lon="7.08611">
        <ele>140.24249267578</ele>
        <time>2020-05-14T12:25:53Z</time>
      </trkpt>
      <trkpt lat="43.60257" lon="7.08605">
        <ele>139.99353027344</ele>
        <time>2020-05-14T12:25:54Z</time>
      </trkpt>
      <trkpt lat="43.60257" lon="7.08598">
        <ele>140.25317382812</ele>
        <time>2020-05-14T12:25:55Z</time>
      </trkpt>
      <trkpt lat="43.60256" lon="7.08592">
        <ele>140.25134277344</ele>
        <time>2020-05-14T12:25:56Z</time>
      </trkpt>
      <trkpt lat="43.60257" lon="7.08586">
        <ele>140.52331542969</ele>
        <time>2020-05-14T12:25:57Z</time>
      </trkpt>
      <trkpt lat="43.60257" lon="7.0858">
        <ele>140.46868896484</ele>
        <time>2020-05-14T12:25:58Z</time>
      </trkpt>
      <trkpt lat="43.60257" lon="7.08574">
        <ele>140.39709472656</ele>
        <time>2020-05-14T12:25:59Z</time>
      </trkpt>
      <trkpt lat="43.60257" lon="7.08568">
        <ele>140.51324462891</ele>
        <time>2020-05-14T12:26:00Z</time>
      </trkpt>
      <trkpt lat="43.60257" lon="7.08562">
        <ele>140.74615478516</ele>
        <time>2020-05-14T12:26:01Z</time>
      </trkpt>
      <trkpt lat="43.60259" lon="7.08558">
        <ele>140.95263671875</ele>
        <time>2020-05-14T12:26:02Z</time>
      </trkpt>
      <trkpt lat="43.60261" lon="7.08552">
        <ele>141.39587402344</ele>
        <time>2020-05-14T12:26:03Z</time>
      </trkpt>
      <trkpt lat="43.60263" lon="7.08548">
        <ele>140.91845703125</ele>
        <time>2020-05-14T12:26:04Z</time>
      </trkpt>
      <trkpt lat="43.60267" lon="7.08543">
        <ele>140.84594726562</ele>
        <time>2020-05-14T12:26:05Z</time>
      </trkpt>
      <trkpt lat="43.60271" lon="7.08541">
        <ele>141.84423828125</ele>
        <time>2020-05-14T12:26:06Z</time>
      </trkpt>
      <trkpt lat="43.60275" lon="7.08537">
        <ele>141.81506347656</ele>
        <time>2020-05-14T12:26:07Z</time>
      </trkpt>
      <trkpt lat="43.60277" lon="7.08531">
        <ele>141.89562988281</ele>
        <time>2020-05-14T12:26:08Z</time>
      </trkpt>
      <trkpt lat="43.60278" lon="7.08525">
        <ele>141.92639160156</ele>
        <time>2020-05-14T12:26:09Z</time>
      </trkpt>
      <trkpt lat="43.60278" lon="7.08517">
        <ele>142.21813964844</ele>
        <time>2020-05-14T12:26:10Z</time>
      </trkpt>
      <trkpt lat="43.60279" lon="7.08511">
        <ele>142.21179199219</ele>
        <time>2020-05-14T12:26:11Z</time>
      </trkpt>
      <trkpt lat="43.60281" lon="7.08505">
        <ele>141.42071533203</ele>
        <time>2020-05-14T12:26:12Z</time>
      </trkpt>
      <trkpt lat="43.60286" lon="7.08499">
        <ele>141.06994628906</ele>
        <time>2020-05-14T12:26:13Z</time>
      </trkpt>
      <trkpt lat="43.6029" lon="7.08495">
        <ele>140.6484375</ele>
        <time>2020-05-14T12:26:14Z</time>
      </trkpt>
      <trkpt lat="43.60296" lon="7.0849">
        <ele>140.29913330078</ele>
        <time>2020-05-14T12:26:15Z</time>
      </trkpt>
      <trkpt lat="43.60304" lon="7.08485">
        <ele>140.51177978516</ele>
        <time>2020-05-14T12:26:16Z</time>
      </trkpt>
      <trkpt lat="43.6031" lon="7.08481">
        <ele>140.40783691406</ele>
        <time>2020-05-14T12:26:17Z</time>
      </trkpt>
      <trkpt lat="43.60317" lon="7.08478">
        <ele>139.99230957031</ele>
        <time>2020-05-14T12:26:18Z</time>
      </trkpt>
      <trkpt lat="43.60325" lon="7.08473">
        <ele>140.29235839844</ele>
        <time>2020-05-14T12:26:19Z</time>
      </trkpt>
      <trkpt lat="43.60332" lon="7.08469">
        <ele>140.18444824219</ele>
        <time>2020-05-14T12:26:20Z</time>
      </trkpt>
      <trkpt lat="43.60339" lon="7.08466">
        <ele>140.12390136719</ele>
        <time>2020-05-14T12:26:21Z</time>
      </trkpt>
      <trkpt lat="43.60347" lon="7.08462">
        <ele>140.04583740234</ele>
        <time>2020-05-14T12:26:22Z</time>
      </trkpt>
      <trkpt lat="43.60354" lon="7.08459">
        <ele>139.59228515625</ele>
        <time>2020-05-14T12:26:23Z</time>
      </trkpt>
      <trkpt lat="43.60362" lon="7.08455">
        <ele>139.49243164062</ele>
        <time>2020-05-14T12:26:24Z</time>
      </trkpt>
      <trkpt lat="43.60372" lon="7.08445">
        <ele>139.2080078125</ele>
        <time>2020-05-14T12:26:25Z</time>
      </trkpt>
      <trkpt lat="43.60376" lon="7.08435">
        <ele>139.02575683594</ele>
        <time>2020-05-14T12:26:26Z</time>
      </trkpt>
      <trkpt lat="43.6038" lon="7.0843">
        <ele>139.0087890625</ele>
        <time>2020-05-14T12:26:27Z</time>
      </trkpt>
      <trkpt lat="43.60381" lon="7.08422">
        <ele>138.38024902344</ele>
        <time>2020-05-14T12:26:28Z</time>
      </trkpt>
      <trkpt lat="43.60381" lon="7.08413">
        <ele>137.78302001953</ele>
        <time>2020-05-14T12:26:29Z</time>
      </trkpt>
      <trkpt lat="43.60382" lon="7.08402">
        <ele>137.52697753906</ele>
        <time>2020-05-14T12:26:30Z</time>
      </trkpt>
      <trkpt lat="43.60383" lon="7.08393">
        <ele>137.80407714844</ele>
        <time>2020-05-14T12:26:31Z</time>
      </trkpt>
      <trkpt lat="43.60384" lon="7.08383">
        <ele>138.36242675781</ele>
        <time>2020-05-14T12:26:32Z</time>
      </trkpt>
      <trkpt lat="43.60385" lon="7.08373">
        <ele>138.30554199219</ele>
        <time>2020-05-14T12:26:33Z</time>
      </trkpt>
      <trkpt lat="43.60386" lon="7.08363">
        <ele>137.57141113281</ele>
        <time>2020-05-14T12:26:34Z</time>
      </trkpt>
      <trkpt lat="43.60389" lon="7.08353">
        <ele>135.28308105469</ele>
        <time>2020-05-14T12:26:35Z</time>
      </trkpt>
      <trkpt lat="43.60392" lon="7.08344">
        <ele>135.34069824219</ele>
        <time>2020-05-14T12:26:36Z</time>
      </trkpt>
      <trkpt lat="43.60394" lon="7.08335">
        <ele>135.42211914062</ele>
        <time>2020-05-14T12:26:37Z</time>
      </trkpt>
      <trkpt lat="43.60398" lon="7.08328">
        <ele>135.36297607422</ele>
        <time>2020-05-14T12:26:38Z</time>
      </trkpt>
      <trkpt lat="43.60403" lon="7.0832">
        <ele>135.25720214844</ele>
        <time>2020-05-14T12:26:39Z</time>
      </trkpt>
      <trkpt lat="43.60408" lon="7.08314">
        <ele>135.85363769531</ele>
        <time>2020-05-14T12:26:40Z</time>
      </trkpt>
      <trkpt lat="43.60413" lon="7.08308">
        <ele>136.14080810547</ele>
        <time>2020-05-14T12:26:41Z</time>
      </trkpt>
      <trkpt lat="43.60419" lon="7.08303">
        <ele>137.08764648438</ele>
        <time>2020-05-14T12:26:42Z</time>
      </trkpt>
      <trkpt lat="43.60426" lon="7.083">
        <ele>137.47747802734</ele>
        <time>2020-05-14T12:26:43Z</time>
      </trkpt>
      <trkpt lat="43.60432" lon="7.08296">
        <ele>137.63861083984</ele>
        <time>2020-05-14T12:26:44Z</time>
      </trkpt>
      <trkpt lat="43.60437" lon="7.08292">
        <ele>137.95855712891</ele>
        <time>2020-05-14T12:26:45Z</time>
      </trkpt>
      <trkpt lat="43.60442" lon="7.08289">
        <ele>138.12634277344</ele>
        <time>2020-05-14T12:26:46Z</time>
      </trkpt>
      <trkpt lat="43.60447" lon="7.08284">
        <ele>138.14135742188</ele>
        <time>2020-05-14T12:26:47Z</time>
      </trkpt>
      <trkpt lat="43.60451" lon="7.0828">
        <ele>137.96911621094</ele>
        <time>2020-05-14T12:26:48Z</time>
      </trkpt>
      <trkpt lat="43.60456" lon="7.08276">
        <ele>137.85705566406</ele>
        <time>2020-05-14T12:26:49Z</time>
      </trkpt>
      <trkpt lat="43.60461" lon="7.08274">
        <ele>137.53283691406</ele>
        <time>2020-05-14T12:26:50Z</time>
      </trkpt>
      <trkpt lat="43.60467" lon="7.08272">
        <ele>136.39758300781</ele>
        <time>2020-05-14T12:26:51Z</time>
      </trkpt>
      <trkpt lat="43.60473" lon="7.08269">
        <ele>137.37078857422</ele>
        <time>2020-05-14T12:26:52Z</time>
      </trkpt>
      <trkpt lat="43.60479" lon="7.08266">
        <ele>136.37640380859</ele>
        <time>2020-05-14T12:26:53Z</time>
      </trkpt>
      <trkpt lat="43.60485" lon="7.08262">
        <ele>136.30548095703</ele>
        <time>2020-05-14T12:26:54Z</time>
      </trkpt>
      <trkpt lat="43.6049" lon="7.08259">
        <ele>136.77423095703</ele>
        <time>2020-05-14T12:26:55Z</time>
      </trkpt>
      <trkpt lat="43.60494" lon="7.08256">
        <ele>136.85430908203</ele>
        <time>2020-05-14T12:26:56Z</time>
      </trkpt>
      <trkpt lat="43.60499" lon="7.08251">
        <ele>136.08282470703</ele>
        <time>2020-05-14T12:26:57Z</time>
      </trkpt>
      <trkpt lat="43.60503" lon="7.08248">
        <ele>136.92236328125</ele>
        <time>2020-05-14T12:26:58Z</time>
      </trkpt>
      <trkpt lat="43.60507" lon="7.08244">
        <ele>136.75695800781</ele>
        <time>2020-05-14T12:26:59Z</time>
      </trkpt>
      <trkpt lat="43.6051" lon="7.08241">
        <ele>136.75286865234</ele>
        <time>2020-05-14T12:27:00Z</time>
      </trkpt>
      <trkpt lat="43.60513" lon="7.08236">
        <ele>137.30059814453</ele>
        <time>2020-05-14T12:27:01Z</time>
      </trkpt>
      <trkpt lat="43.60516" lon="7.08232">
        <ele>137.69421386719</ele>
        <time>2020-05-14T12:27:02Z</time>
      </trkpt>
      <trkpt lat="43.60518" lon="7.08227">
        <ele>137.97351074219</ele>
        <time>2020-05-14T12:27:03Z</time>
      </trkpt>
      <trkpt lat="43.60519" lon="7.08221">
        <ele>137.71594238281</ele>
        <time>2020-05-14T12:27:04Z</time>
      </trkpt>
      <trkpt lat="43.6052" lon="7.08214">
        <ele>137.21044921875</ele>
        <time>2020-05-14T12:27:05Z</time>
      </trkpt>
      <trkpt lat="43.60519" lon="7.08208">
        <ele>137.72515869141</ele>
        <time>2020-05-14T12:27:06Z</time>
      </trkpt>
      <trkpt lat="43.60519" lon="7.08203">
        <ele>137.70617675781</ele>
        <time>2020-05-14T12:27:07Z</time>
      </trkpt>
      <trkpt lat="43.60519" lon="7.08197">
        <ele>138.38763427734</ele>
        <time>2020-05-14T12:27:08Z</time>
      </trkpt>
      <trkpt lat="43.60519" lon="7.08191">
        <ele>138.56683349609</ele>
        <time>2020-05-14T12:27:09Z</time>
      </trkpt>
      <trkpt lat="43.60519" lon="7.08183">
        <ele>137.63336181641</ele>
        <time>2020-05-14T12:27:10Z</time>
      </trkpt>
      <trkpt lat="43.60518" lon="7.08176">
        <ele>137.59289550781</ele>
        <time>2020-05-14T12:27:11Z</time>
      </trkpt>
      <trkpt lat="43.60519" lon="7.0817">
        <ele>138.61517333984</ele>
        <time>2020-05-14T12:27:12Z</time>
      </trkpt>
      <trkpt lat="43.60519" lon="7.08164">
        <ele>138.62231445312</ele>
        <time>2020-05-14T12:27:13Z</time>
      </trkpt>
      <trkpt lat="43.6052" lon="7.08158">
        <ele>139.76745605469</ele>
        <time>2020-05-14T12:27:14Z</time>
      </trkpt>
      <trkpt lat="43.6052" lon="7.08152">
        <ele>140.69616699219</ele>
        <time>2020-05-14T12:27:15Z</time>
      </trkpt>
      <trkpt lat="43.60521" lon="7.08146">
        <ele>141.56750488281</ele>
        <time>2020-05-14T12:27:16Z</time>
      </trkpt>
      <trkpt lat="43.60521" lon="7.0814">
        <ele>141.02612304688</ele>
        <time>2020-05-14T12:27:17Z</time>
      </trkpt>
      <trkpt lat="43.6052" lon="7.08133">
        <ele>140.72430419922</ele>
        <time>2020-05-14T12:27:18Z</time>
      </trkpt>
      <trkpt lat="43.60521" lon="7.08127">
        <ele>141.37615966797</ele>
        <time>2020-05-14T12:27:19Z</time>
      </trkpt>
      <trkpt lat="43.60521" lon="7.08121">
        <ele>141.07446289062</ele>
        <time>2020-05-14T12:27:20Z</time>
      </trkpt>
      <trkpt lat="43.60522" lon="7.08116">
        <ele>141.34088134766</ele>
        <time>2020-05-14T12:27:21Z</time>
      </trkpt>
      <trkpt lat="43.60521" lon="7.0811">
        <ele>141.62835693359</ele>
        <time>2020-05-14T12:27:22Z</time>
      </trkpt>
      <trkpt lat="43.60521" lon="7.08106">
        <ele>140.87719726562</ele>
        <time>2020-05-14T12:27:23Z</time>
      </trkpt>
      <trkpt lat="43.60521" lon="7.08101">
        <ele>140.37640380859</ele>
        <time>2020-05-14T12:27:24Z</time>
      </trkpt>
      <trkpt lat="43.60521" lon="7.08095">
        <ele>140.09423828125</ele>
        <time>2020-05-14T12:27:25Z</time>
      </trkpt>
      <trkpt lat="43.60521" lon="7.0809">
        <ele>140.80249023438</ele>
        <time>2020-05-14T12:27:26Z</time>
      </trkpt>
      <trkpt lat="43.60521" lon="7.08084">
        <ele>141.19250488281</ele>
        <time>2020-05-14T12:27:27Z</time>
      </trkpt>
      <trkpt lat="43.60521" lon="7.08079">
        <ele>141.3310546875</ele>
        <time>2020-05-14T12:27:28Z</time>
      </trkpt>
      <trkpt lat="43.60522" lon="7.08073">
        <ele>141.20404052734</ele>
        <time>2020-05-14T12:27:29Z</time>
      </trkpt>
      <trkpt lat="43.60522" lon="7.08067">
        <ele>140.78845214844</ele>
        <time>2020-05-14T12:27:30Z</time>
      </trkpt>
      <trkpt lat="43.60522" lon="7.08061">
        <ele>140.88000488281</ele>
        <time>2020-05-14T12:27:31Z</time>
      </trkpt>
      <trkpt lat="43.60522" lon="7.08056">
        <ele>141.20202636719</ele>
        <time>2020-05-14T12:27:32Z</time>
      </trkpt>
      <trkpt lat="43.60523" lon="7.0805">
        <ele>140.78472900391</ele>
        <time>2020-05-14T12:27:33Z</time>
      </trkpt>
      <trkpt lat="43.60524" lon="7.08045">
        <ele>140.67291259766</ele>
        <time>2020-05-14T12:27:34Z</time>
      </trkpt>
      <trkpt lat="43.60526" lon="7.0804">
        <ele>140.82580566406</ele>
        <time>2020-05-14T12:27:35Z</time>
      </trkpt>
      <trkpt lat="43.60528" lon="7.08035">
        <ele>140.54553222656</ele>
        <time>2020-05-14T12:27:36Z</time>
      </trkpt>
      <trkpt lat="43.60531" lon="7.0803">
        <ele>141.82293701172</ele>
        <time>2020-05-14T12:27:37Z</time>
      </trkpt>
      <trkpt lat="43.60534" lon="7.08025">
        <ele>141.67102050781</ele>
        <time>2020-05-14T12:27:38Z</time>
      </trkpt>
      <trkpt lat="43.60539" lon="7.08022">
        <ele>141.63116455078</ele>
        <time>2020-05-14T12:27:39Z</time>
      </trkpt>
      <trkpt lat="43.60542" lon="7.08018">
        <ele>141.62164306641</ele>
        <time>2020-05-14T12:27:40Z</time>
      </trkpt>
      <trkpt lat="43.60545" lon="7.08016">
        <ele>141.38562011719</ele>
        <time>2020-05-14T12:27:41Z</time>
      </trkpt>
      <trkpt lat="43.60549" lon="7.08013">
        <ele>141.40716552734</ele>
        <time>2020-05-14T12:27:42Z</time>
      </trkpt>
      <trkpt lat="43.60552" lon="7.08008">
        <ele>141.52087402344</ele>
        <time>2020-05-14T12:27:43Z</time>
      </trkpt>
      <trkpt lat="43.60555" lon="7.08003">
        <ele>142.02923583984</ele>
        <time>2020-05-14T12:27:44Z</time>
      </trkpt>
      <trkpt lat="43.60558" lon="7.07998">
        <ele>142.00866699219</ele>
        <time>2020-05-14T12:27:45Z</time>
      </trkpt>
      <trkpt lat="43.60561" lon="7.07993">
        <ele>140.80230712891</ele>
        <time>2020-05-14T12:27:46Z</time>
      </trkpt>
      <trkpt lat="43.60563" lon="7.07987">
        <ele>140.16577148438</ele>
        <time>2020-05-14T12:27:47Z</time>
      </trkpt>
      <trkpt lat="43.60566" lon="7.07982">
        <ele>139.80932617188</ele>
        <time>2020-05-14T12:27:48Z</time>
      </trkpt>
      <trkpt lat="43.60568" lon="7.07976">
        <ele>139.70855712891</ele>
        <time>2020-05-14T12:27:49Z</time>
      </trkpt>
      <trkpt lat="43.6057" lon="7.0797">
        <ele>139.40399169922</ele>
        <time>2020-05-14T12:27:50Z</time>
      </trkpt>
      <trkpt lat="43.60572" lon="7.07963">
        <ele>139.93176269531</ele>
        <time>2020-05-14T12:27:51Z</time>
      </trkpt>
      <trkpt lat="43.60574" lon="7.07957">
        <ele>139.97741699219</ele>
        <time>2020-05-14T12:27:52Z</time>
      </trkpt>
      <trkpt lat="43.60577" lon="7.07951">
        <ele>140.43884277344</ele>
        <time>2020-05-14T12:27:53Z</time>
      </trkpt>
      <trkpt lat="43.60579" lon="7.07945">
        <ele>141.22808837891</ele>
        <time>2020-05-14T12:27:54Z</time>
      </trkpt>
      <trkpt lat="43.60581" lon="7.07938">
        <ele>140.66937255859</ele>
        <time>2020-05-14T12:27:55Z</time>
      </trkpt>
      <trkpt lat="43.60583" lon="7.07931">
        <ele>140.73864746094</ele>
        <time>2020-05-14T12:27:56Z</time>
      </trkpt>
      <trkpt lat="43.60586" lon="7.07925">
        <ele>141.32733154297</ele>
        <time>2020-05-14T12:27:57Z</time>
      </trkpt>
      <trkpt lat="43.60588" lon="7.07919">
        <ele>141.54095458984</ele>
        <time>2020-05-14T12:27:58Z</time>
      </trkpt>
      <trkpt lat="43.60592" lon="7.07914">
        <ele>141.59350585938</ele>
        <time>2020-05-14T12:27:59Z</time>
      </trkpt>
      <trkpt lat="43.60594" lon="7.07908">
        <ele>141.83526611328</ele>
        <time>2020-05-14T12:28:00Z</time>
      </trkpt>
      <trkpt lat="43.60596" lon="7.07902">
        <ele>141.59832763672</ele>
        <time>2020-05-14T12:28:01Z</time>
      </trkpt>
      <trkpt lat="43.60599" lon="7.07896">
        <ele>141.74389648438</ele>
        <time>2020-05-14T12:28:02Z</time>
      </trkpt>
      <trkpt lat="43.60601" lon="7.07889">
        <ele>141.59350585938</ele>
        <time>2020-05-14T12:28:03Z</time>
      </trkpt>
      <trkpt lat="43.60604" lon="7.07882">
        <ele>141.26513671875</ele>
        <time>2020-05-14T12:28:04Z</time>
      </trkpt>
      <trkpt lat="43.60606" lon="7.07874">
        <ele>141.59832763672</ele>
        <time>2020-05-14T12:28:05Z</time>
      </trkpt>
      <trkpt lat="43.60609" lon="7.07866">
        <ele>141.21630859375</ele>
        <time>2020-05-14T12:28:06Z</time>
      </trkpt>
      <trkpt lat="43.60611" lon="7.07857">
        <ele>140.63586425781</ele>
        <time>2020-05-14T12:28:07Z</time>
      </trkpt>
      <trkpt lat="43.60614" lon="7.07848">
        <ele>140.61218261719</ele>
        <time>2020-05-14T12:28:08Z</time>
      </trkpt>
      <trkpt lat="43.60617" lon="7.07841">
        <ele>140.48071289062</ele>
        <time>2020-05-14T12:28:09Z</time>
      </trkpt>
      <trkpt lat="43.60619" lon="7.07833">
        <ele>140.607421875</ele>
        <time>2020-05-14T12:28:10Z</time>
      </trkpt>
      <trkpt lat="43.60624" lon="7.07828">
        <ele>139.40515136719</ele>
        <time>2020-05-14T12:28:11Z</time>
      </trkpt>
      <trkpt lat="43.60627" lon="7.0782">
        <ele>139.51690673828</ele>
        <time>2020-05-14T12:28:12Z</time>
      </trkpt>
      <trkpt lat="43.6063" lon="7.07812">
        <ele>139.83483886719</ele>
        <time>2020-05-14T12:28:13Z</time>
      </trkpt>
      <trkpt lat="43.60633" lon="7.07805">
        <ele>140.49206542969</ele>
        <time>2020-05-14T12:28:14Z</time>
      </trkpt>
      <trkpt lat="43.60636" lon="7.07797">
        <ele>139.98937988281</ele>
        <time>2020-05-14T12:28:15Z</time>
      </trkpt>
      <trkpt lat="43.60639" lon="7.0779">
        <ele>139.10540771484</ele>
        <time>2020-05-14T12:28:16Z</time>
      </trkpt>
      <trkpt lat="43.60642" lon="7.07783">
        <ele>139.50793457031</ele>
        <time>2020-05-14T12:28:17Z</time>
      </trkpt>
      <trkpt lat="43.60645" lon="7.07776">
        <ele>139.82470703125</ele>
        <time>2020-05-14T12:28:18Z</time>
      </trkpt>
      <trkpt lat="43.60649" lon="7.07768">
        <ele>139.79748535156</ele>
        <time>2020-05-14T12:28:19Z</time>
      </trkpt>
      <trkpt lat="43.60652" lon="7.07761">
        <ele>139.34283447266</ele>
        <time>2020-05-14T12:28:20Z</time>
      </trkpt>
      <trkpt lat="43.60655" lon="7.07754">
        <ele>139.94207763672</ele>
        <time>2020-05-14T12:28:21Z</time>
      </trkpt>
      <trkpt lat="43.60658" lon="7.07747">
        <ele>139.80096435547</ele>
        <time>2020-05-14T12:28:22Z</time>
      </trkpt>
      <trkpt lat="43.60661" lon="7.07739">
        <ele>139.46966552734</ele>
        <time>2020-05-14T12:28:23Z</time>
      </trkpt>
      <trkpt lat="43.60664" lon="7.07732">
        <ele>139.64788818359</ele>
        <time>2020-05-14T12:28:24Z</time>
      </trkpt>
      <trkpt lat="43.60666" lon="7.07726">
        <ele>139.31176757812</ele>
        <time>2020-05-14T12:28:25Z</time>
      </trkpt>
      <trkpt lat="43.60669" lon="7.07718">
        <ele>139.59106445312</ele>
        <time>2020-05-14T12:28:26Z</time>
      </trkpt>
      <trkpt lat="43.60672" lon="7.07711">
        <ele>140.09136962891</ele>
        <time>2020-05-14T12:28:27Z</time>
      </trkpt>
      <trkpt lat="43.60676" lon="7.07704">
        <ele>140.24645996094</ele>
        <time>2020-05-14T12:28:28Z</time>
      </trkpt>
      <trkpt lat="43.60679" lon="7.07697">
        <ele>140.35314941406</ele>
        <time>2020-05-14T12:28:29Z</time>
      </trkpt>
      <trkpt lat="43.60683" lon="7.07689">
        <ele>140.47174072266</ele>
        <time>2020-05-14T12:28:30Z</time>
      </trkpt>
      <trkpt lat="43.60686" lon="7.07682">
        <ele>140.64916992188</ele>
        <time>2020-05-14T12:28:31Z</time>
      </trkpt>
      <trkpt lat="43.6069" lon="7.07676">
        <ele>140.71960449219</ele>
        <time>2020-05-14T12:28:32Z</time>
      </trkpt>
      <trkpt lat="43.60692" lon="7.07669">
        <ele>139.85607910156</ele>
        <time>2020-05-14T12:28:33Z</time>
      </trkpt>
      <trkpt lat="43.60694" lon="7.0766">
        <ele>140.6708984375</ele>
        <time>2020-05-14T12:28:34Z</time>
      </trkpt>
      <trkpt lat="43.60694" lon="7.07653">
        <ele>140.07873535156</ele>
        <time>2020-05-14T12:28:35Z</time>
      </trkpt>
      <trkpt lat="43.60693" lon="7.07646">
        <ele>139.27520751953</ele>
        <time>2020-05-14T12:28:36Z</time>
      </trkpt>
      <trkpt lat="43.60694" lon="7.07636">
        <ele>138.59332275391</ele>
        <time>2020-05-14T12:28:37Z</time>
      </trkpt>
      <trkpt lat="43.60696" lon="7.07629">
        <ele>139.16918945312</ele>
        <time>2020-05-14T12:28:38Z</time>
      </trkpt>
      <trkpt lat="43.60696" lon="7.07622">
        <ele>139.48083496094</ele>
        <time>2020-05-14T12:28:39Z</time>
      </trkpt>
      <trkpt lat="43.60697" lon="7.07614">
        <ele>140.25927734375</ele>
        <time>2020-05-14T12:28:40Z</time>
      </trkpt>
      <trkpt lat="43.60697" lon="7.07606">
        <ele>134.15789794922</ele>
        <time>2020-05-14T12:28:41Z</time>
      </trkpt>
      <trkpt lat="43.60697" lon="7.07596">
        <ele>134.44366455078</ele>
        <time>2020-05-14T12:28:42Z</time>
      </trkpt>
      <trkpt lat="43.60699" lon="7.07588">
        <ele>135.57373046875</ele>
        <time>2020-05-14T12:28:43Z</time>
      </trkpt>
      <trkpt lat="43.60702" lon="7.07581">
        <ele>136.51879882812</ele>
        <time>2020-05-14T12:28:44Z</time>
      </trkpt>
      <trkpt lat="43.60706" lon="7.07575">
        <ele>140.47808837891</ele>
        <time>2020-05-14T12:28:45Z</time>
      </trkpt>
      <trkpt lat="43.6071" lon="7.07569">
        <ele>139.24719238281</ele>
        <time>2020-05-14T12:28:46Z</time>
      </trkpt>
      <trkpt lat="43.60715" lon="7.07564">
        <ele>140.60601806641</ele>
        <time>2020-05-14T12:28:47Z</time>
      </trkpt>
      <trkpt lat="43.6072" lon="7.0756">
        <ele>141.02801513672</ele>
        <time>2020-05-14T12:28:48Z</time>
      </trkpt>
      <trkpt lat="43.60724" lon="7.07557">
        <ele>143.12774658203</ele>
        <time>2020-05-14T12:28:49Z</time>
      </trkpt>
      <trkpt lat="43.60729" lon="7.07554">
        <ele>143.45184326172</ele>
        <time>2020-05-14T12:28:50Z</time>
      </trkpt>
      <trkpt lat="43.60734" lon="7.0755">
        <ele>144.0908203125</ele>
        <time>2020-05-14T12:28:51Z</time>
      </trkpt>
      <trkpt lat="43.60739" lon="7.07547">
        <ele>144.20654296875</ele>
        <time>2020-05-14T12:28:52Z</time>
      </trkpt>
      <trkpt lat="43.60745" lon="7.07543">
        <ele>145.11279296875</ele>
        <time>2020-05-14T12:28:53Z</time>
      </trkpt>
      <trkpt lat="43.6075" lon="7.07539">
        <ele>144.75537109375</ele>
        <time>2020-05-14T12:28:54Z</time>
      </trkpt>
      <trkpt lat="43.60756" lon="7.07535">
        <ele>145.07415771484</ele>
        <time>2020-05-14T12:28:55Z</time>
      </trkpt>
      <trkpt lat="43.60763" lon="7.0753">
        <ele>145.671875</ele>
        <time>2020-05-14T12:28:56Z</time>
      </trkpt>
      <trkpt lat="43.60769" lon="7.07523">
        <ele>144.91467285156</ele>
        <time>2020-05-14T12:28:57Z</time>
      </trkpt>
      <trkpt lat="43.60775" lon="7.07518">
        <ele>145.04248046875</ele>
        <time>2020-05-14T12:28:58Z</time>
      </trkpt>
      <trkpt lat="43.60782" lon="7.07514">
        <ele>145.0595703125</ele>
        <time>2020-05-14T12:28:59Z</time>
      </trkpt>
      <trkpt lat="43.60788" lon="7.07507">
        <ele>144.79284667969</ele>
        <time>2020-05-14T12:29:00Z</time>
      </trkpt>
      <trkpt lat="43.60795" lon="7.07498">
        <ele>144.32983398438</ele>
        <time>2020-05-14T12:29:01Z</time>
      </trkpt>
      <trkpt lat="43.60804" lon="7.0749">
        <ele>144.64898681641</ele>
        <time>2020-05-14T12:29:02Z</time>
      </trkpt>
      <trkpt lat="43.60812" lon="7.07482">
        <ele>144.33068847656</ele>
        <time>2020-05-14T12:29:03Z</time>
      </trkpt>
      <trkpt lat="43.60818" lon="7.0747">
        <ele>144.6513671875</ele>
        <time>2020-05-14T12:29:04Z</time>
      </trkpt>
      <trkpt lat="43.60824" lon="7.07457">
        <ele>144.38726806641</ele>
        <time>2020-05-14T12:29:05Z</time>
      </trkpt>
      <trkpt lat="43.60829" lon="7.07444">
        <ele>143.79943847656</ele>
        <time>2020-05-14T12:29:06Z</time>
      </trkpt>
      <trkpt lat="43.60834" lon="7.0743">
        <ele>143.63214111328</ele>
        <time>2020-05-14T12:29:07Z</time>
      </trkpt>
      <trkpt lat="43.60841" lon="7.07417">
        <ele>143.56188964844</ele>
        <time>2020-05-14T12:29:08Z</time>
      </trkpt>
      <trkpt lat="43.60848" lon="7.07404">
        <ele>125.74853515625</ele>
        <time>2020-05-14T12:29:09Z</time>
      </trkpt>
      <trkpt lat="43.60857" lon="7.07392">
        <ele>126.27380371094</ele>
        <time>2020-05-14T12:29:10Z</time>
      </trkpt>
      <trkpt lat="43.60867" lon="7.07383">
        <ele>126.71997070312</ele>
        <time>2020-05-14T12:29:11Z</time>
      </trkpt>
      <trkpt lat="43.60879" lon="7.07377">
        <ele>123.77966308594</ele>
        <time>2020-05-14T12:29:12Z</time>
      </trkpt>
      <trkpt lat="43.60891" lon="7.07372">
        <ele>123.98992919922</ele>
        <time>2020-05-14T12:29:13Z</time>
      </trkpt>
      <trkpt lat="43.60902" lon="7.07368">
        <ele>123.990234375</ele>
        <time>2020-05-14T12:29:14Z</time>
      </trkpt>
      <trkpt lat="43.60914" lon="7.07365">
        <ele>129.76147460938</ele>
        <time>2020-05-14T12:29:15Z</time>
      </trkpt>
      <trkpt lat="43.60925" lon="7.07365">
        <ele>129.83544921875</ele>
        <time>2020-05-14T12:29:16Z</time>
      </trkpt>
      <trkpt lat="43.60936" lon="7.07365">
        <ele>132.05767822266</ele>
        <time>2020-05-14T12:29:17Z</time>
      </trkpt>
      <trkpt lat="43.60947" lon="7.07364">
        <ele>134.78186035156</ele>
        <time>2020-05-14T12:29:18Z</time>
      </trkpt>
      <trkpt lat="43.60955" lon="7.07365">
        <ele>135.83856201172</ele>
        <time>2020-05-14T12:29:19Z</time>
      </trkpt>
      <trkpt lat="43.60965" lon="7.07364">
        <ele>136.00463867188</ele>
        <time>2020-05-14T12:29:20Z</time>
      </trkpt>
      <trkpt lat="43.60975" lon="7.07364">
        <ele>136.15063476562</ele>
        <time>2020-05-14T12:29:21Z</time>
      </trkpt>
      <trkpt lat="43.60985" lon="7.07362">
        <ele>137.02734375</ele>
        <time>2020-05-14T12:29:22Z</time>
      </trkpt>
      <trkpt lat="43.60993" lon="7.07361">
        <ele>137.13195800781</ele>
        <time>2020-05-14T12:29:23Z</time>
      </trkpt>
      <trkpt lat="43.61001" lon="7.07359">
        <ele>137.22119140625</ele>
        <time>2020-05-14T12:29:24Z</time>
      </trkpt>
      <trkpt lat="43.61008" lon="7.07356">
        <ele>142.47772216797</ele>
        <time>2020-05-14T12:29:25Z</time>
      </trkpt>
      <trkpt lat="43.61013" lon="7.07352">
        <ele>142.22900390625</ele>
        <time>2020-05-14T12:29:26Z</time>
      </trkpt>
      <trkpt lat="43.61019" lon="7.07349">
        <ele>140.90026855469</ele>
        <time>2020-05-14T12:29:27Z</time>
      </trkpt>
      <trkpt lat="43.61024" lon="7.07344">
        <ele>140.39343261719</ele>
        <time>2020-05-14T12:29:28Z</time>
      </trkpt>
      <trkpt lat="43.61029" lon="7.07339">
        <ele>141.02941894531</ele>
        <time>2020-05-14T12:29:29Z</time>
      </trkpt>
      <trkpt lat="43.61034" lon="7.07335">
        <ele>139.35192871094</ele>
        <time>2020-05-14T12:29:30Z</time>
      </trkpt>
      <trkpt lat="43.6104" lon="7.07331">
        <ele>138.91107177734</ele>
        <time>2020-05-14T12:29:31Z</time>
      </trkpt>
      <trkpt lat="43.61044" lon="7.07326">
        <ele>138.68707275391</ele>
        <time>2020-05-14T12:29:32Z</time>
      </trkpt>
      <trkpt lat="43.61049" lon="7.07321">
        <ele>138.85144042969</ele>
        <time>2020-05-14T12:29:33Z</time>
      </trkpt>
      <trkpt lat="43.61053" lon="7.07315">
        <ele>138.60949707031</ele>
        <time>2020-05-14T12:29:34Z</time>
      </trkpt>
      <trkpt lat="43.61057" lon="7.07309">
        <ele>138.75366210938</ele>
        <time>2020-05-14T12:29:35Z</time>
      </trkpt>
      <trkpt lat="43.61061" lon="7.07303">
        <ele>139.16687011719</ele>
        <time>2020-05-14T12:29:36Z</time>
      </trkpt>
      <trkpt lat="43.61065" lon="7.07296">
        <ele>139.40197753906</ele>
        <time>2020-05-14T12:29:37Z</time>
      </trkpt>
      <trkpt lat="43.61069" lon="7.07289">
        <ele>139.00402832031</ele>
        <time>2020-05-14T12:29:38Z</time>
      </trkpt>
      <trkpt lat="43.61071" lon="7.07281">
        <ele>139.23651123047</ele>
        <time>2020-05-14T12:29:39Z</time>
      </trkpt>
      <trkpt lat="43.61073" lon="7.07273">
        <ele>139.06048583984</ele>
        <time>2020-05-14T12:29:40Z</time>
      </trkpt>
      <trkpt lat="43.61076" lon="7.07264">
        <ele>139.02893066406</ele>
        <time>2020-05-14T12:29:41Z</time>
      </trkpt>
      <trkpt lat="43.61079" lon="7.07257">
        <ele>139.13122558594</ele>
        <time>2020-05-14T12:29:42Z</time>
      </trkpt>
      <trkpt lat="43.61082" lon="7.07249">
        <ele>138.66937255859</ele>
        <time>2020-05-14T12:29:43Z</time>
      </trkpt>
      <trkpt lat="43.61085" lon="7.0724">
        <ele>138.13055419922</ele>
        <time>2020-05-14T12:29:44Z</time>
      </trkpt>
      <trkpt lat="43.61089" lon="7.07231">
        <ele>137.56842041016</ele>
        <time>2020-05-14T12:29:45Z</time>
      </trkpt>
      <trkpt lat="43.61092" lon="7.07223">
        <ele>137.56433105469</ele>
        <time>2020-05-14T12:29:46Z</time>
      </trkpt>
      <trkpt lat="43.61096" lon="7.07213">
        <ele>137.94555664062</ele>
        <time>2020-05-14T12:29:47Z</time>
      </trkpt>
      <trkpt lat="43.611" lon="7.07202">
        <ele>137.06134033203</ele>
        <time>2020-05-14T12:29:48Z</time>
      </trkpt>
      <trkpt lat="43.61103" lon="7.07192">
        <ele>136.73040771484</ele>
        <time>2020-05-14T12:29:49Z</time>
      </trkpt>
      <trkpt lat="43.61107" lon="7.07181">
        <ele>136.52331542969</ele>
        <time>2020-05-14T12:29:50Z</time>
      </trkpt>
      <trkpt lat="43.61111" lon="7.07171">
        <ele>136.36065673828</ele>
        <time>2020-05-14T12:29:51Z</time>
      </trkpt>
      <trkpt lat="43.61115" lon="7.07161">
        <ele>134.31842041016</ele>
        <time>2020-05-14T12:29:52Z</time>
      </trkpt>
      <trkpt lat="43.61119" lon="7.07151">
        <ele>132.38580322266</ele>
        <time>2020-05-14T12:29:53Z</time>
      </trkpt>
      <trkpt lat="43.61124" lon="7.07142">
        <ele>131.74755859375</ele>
        <time>2020-05-14T12:29:54Z</time>
      </trkpt>
      <trkpt lat="43.6113" lon="7.07134">
        <ele>131.603515625</ele>
        <time>2020-05-14T12:29:55Z</time>
      </trkpt>
      <trkpt lat="43.61138" lon="7.07129">
        <ele>130.82702636719</ele>
        <time>2020-05-14T12:29:56Z</time>
      </trkpt>
      <trkpt lat="43.61148" lon="7.07127">
        <ele>129.6494140625</ele>
        <time>2020-05-14T12:29:57Z</time>
      </trkpt>
      <trkpt lat="43.61158" lon="7.07125">
        <ele>131.07983398438</ele>
        <time>2020-05-14T12:29:58Z</time>
      </trkpt>
      <trkpt lat="43.61166" lon="7.07129">
        <ele>130.90173339844</ele>
        <time>2020-05-14T12:29:59Z</time>
      </trkpt>
      <trkpt lat="43.61174" lon="7.07132">
        <ele>130.888671875</ele>
        <time>2020-05-14T12:30:00Z</time>
      </trkpt>
      <trkpt lat="43.61182" lon="7.07135">
        <ele>131.44421386719</ele>
        <time>2020-05-14T12:30:01Z</time>
      </trkpt>
      <trkpt lat="43.6119" lon="7.07137">
        <ele>131.53686523438</ele>
        <time>2020-05-14T12:30:02Z</time>
      </trkpt>
      <trkpt lat="43.61197" lon="7.07139">
        <ele>130.13244628906</ele>
        <time>2020-05-14T12:30:03Z</time>
      </trkpt>
      <trkpt lat="43.61204" lon="7.07141">
        <ele>130.48266601562</ele>
        <time>2020-05-14T12:30:04Z</time>
      </trkpt>
      <trkpt lat="43.61211" lon="7.07144">
        <ele>129.78509521484</ele>
        <time>2020-05-14T12:30:05Z</time>
      </trkpt>
      <trkpt lat="43.61218" lon="7.07145">
        <ele>129.85217285156</ele>
        <time>2020-05-14T12:30:06Z</time>
      </trkpt>
      <trkpt lat="43.61226" lon="7.07146">
        <ele>129.61975097656</ele>
        <time>2020-05-14T12:30:07Z</time>
      </trkpt>
      <trkpt lat="43.61232" lon="7.07148">
        <ele>130.68914794922</ele>
        <time>2020-05-14T12:30:08Z</time>
      </trkpt>
      <trkpt lat="43.61238" lon="7.07151">
        <ele>129.93395996094</ele>
        <time>2020-05-14T12:30:09Z</time>
      </trkpt>
      <trkpt lat="43.61244" lon="7.07154">
        <ele>130.18859863281</ele>
        <time>2020-05-14T12:30:10Z</time>
      </trkpt>
      <trkpt lat="43.61249" lon="7.07157">
        <ele>130.61401367188</ele>
        <time>2020-05-14T12:30:11Z</time>
      </trkpt>
      <trkpt lat="43.61253" lon="7.07161">
        <ele>130.90924072266</ele>
        <time>2020-05-14T12:30:12Z</time>
      </trkpt>
      <trkpt lat="43.61257" lon="7.07164">
        <ele>133.12536621094</ele>
        <time>2020-05-14T12:30:13Z</time>
      </trkpt>
      <trkpt lat="43.6126" lon="7.07168">
        <ele>132.06561279297</ele>
        <time>2020-05-14T12:30:14Z</time>
      </trkpt>
      <trkpt lat="43.61262" lon="7.07172">
        <ele>132.77691650391</ele>
        <time>2020-05-14T12:30:15Z</time>
      </trkpt>
      <trkpt lat="43.61264" lon="7.07175">
        <ele>132.50347900391</ele>
        <time>2020-05-14T12:30:16Z</time>
      </trkpt>
      <trkpt lat="43.61267" lon="7.07179">
        <ele>132.32092285156</ele>
        <time>2020-05-14T12:30:17Z</time>
      </trkpt>
      <trkpt lat="43.61268" lon="7.07183">
        <ele>132.66040039062</ele>
        <time>2020-05-14T12:30:18Z</time>
      </trkpt>
      <trkpt lat="43.61269" lon="7.07188">
        <ele>133.33483886719</ele>
        <time>2020-05-14T12:30:19Z</time>
      </trkpt>
      <trkpt lat="43.6127" lon="7.07193">
        <ele>133.87915039062</ele>
        <time>2020-05-14T12:30:20Z</time>
      </trkpt>
      <trkpt lat="43.6127" lon="7.07198">
        <ele>133.69616699219</ele>
        <time>2020-05-14T12:30:21Z</time>
      </trkpt>
      <trkpt lat="43.6127" lon="7.07203">
        <ele>133.51055908203</ele>
        <time>2020-05-14T12:30:22Z</time>
      </trkpt>
      <trkpt lat="43.61271" lon="7.07207">
        <ele>133.99133300781</ele>
        <time>2020-05-14T12:30:23Z</time>
      </trkpt>
      <trkpt lat="43.61272" lon="7.07211">
        <ele>134.47741699219</ele>
        <time>2020-05-14T12:30:24Z</time>
      </trkpt>
      <trkpt lat="43.61272" lon="7.07216">
        <ele>134.67761230469</ele>
        <time>2020-05-14T12:30:25Z</time>
      </trkpt>
      <trkpt lat="43.61273" lon="7.0722">
        <ele>135.37469482422</ele>
        <time>2020-05-14T12:30:26Z</time>
      </trkpt>
      <trkpt lat="43.61273" lon="7.07225">
        <ele>135.63604736328</ele>
        <time>2020-05-14T12:30:27Z</time>
      </trkpt>
      <trkpt lat="43.61273" lon="7.07229">
        <ele>134.91473388672</ele>
        <time>2020-05-14T12:30:28Z</time>
      </trkpt>
      <trkpt lat="43.61272" lon="7.07234">
        <ele>136.27618408203</ele>
        <time>2020-05-14T12:30:29Z</time>
      </trkpt>
      <trkpt lat="43.61272" lon="7.07239">
        <ele>137.87939453125</ele>
        <time>2020-05-14T12:30:30Z</time>
      </trkpt>
      <trkpt lat="43.61272" lon="7.07244">
        <ele>137.59619140625</ele>
        <time>2020-05-14T12:30:31Z</time>
      </trkpt>
      <trkpt lat="43.61273" lon="7.07249">
        <ele>137.72265625</ele>
        <time>2020-05-14T12:30:32Z</time>
      </trkpt>
      <trkpt lat="43.61273" lon="7.07254">
        <ele>137.32946777344</ele>
        <time>2020-05-14T12:30:33Z</time>
      </trkpt>
      <trkpt lat="43.61274" lon="7.07258">
        <ele>137.35308837891</ele>
        <time>2020-05-14T12:30:34Z</time>
      </trkpt>
      <trkpt lat="43.61275" lon="7.07263">
        <ele>137.30743408203</ele>
        <time>2020-05-14T12:30:35Z</time>
      </trkpt>
      <trkpt lat="43.61277" lon="7.07267">
        <ele>136.90856933594</ele>
        <time>2020-05-14T12:30:36Z</time>
      </trkpt>
      <trkpt lat="43.61279" lon="7.07272">
        <ele>136.10552978516</ele>
        <time>2020-05-14T12:30:37Z</time>
      </trkpt>
      <trkpt lat="43.61281" lon="7.07276">
        <ele>135.98352050781</ele>
        <time>2020-05-14T12:30:38Z</time>
      </trkpt>
      <trkpt lat="43.61283" lon="7.07279">
        <ele>136.60003662109</ele>
        <time>2020-05-14T12:30:39Z</time>
      </trkpt>
      <trkpt lat="43.61286" lon="7.07282">
        <ele>136.93914794922</ele>
        <time>2020-05-14T12:30:40Z</time>
      </trkpt>
      <trkpt lat="43.61289" lon="7.07285">
        <ele>137.18182373047</ele>
        <time>2020-05-14T12:30:41Z</time>
      </trkpt>
      <trkpt lat="43.61292" lon="7.07288">
        <ele>138.33288574219</ele>
        <time>2020-05-14T12:30:42Z</time>
      </trkpt>
      <trkpt lat="43.61295" lon="7.0729">
        <ele>138.81286621094</ele>
        <time>2020-05-14T12:30:43Z</time>
      </trkpt>
      <trkpt lat="43.61298" lon="7.07292">
        <ele>138.89770507812</ele>
        <time>2020-05-14T12:30:44Z</time>
      </trkpt>
      <trkpt lat="43.61302" lon="7.07294">
        <ele>139.18127441406</ele>
        <time>2020-05-14T12:30:45Z</time>
      </trkpt>
      <trkpt lat="43.61305" lon="7.07296">
        <ele>139.40502929688</ele>
        <time>2020-05-14T12:30:46Z</time>
      </trkpt>
      <trkpt lat="43.61308" lon="7.07297">
        <ele>139.59893798828</ele>
        <time>2020-05-14T12:30:47Z</time>
      </trkpt>
      <trkpt lat="43.6131" lon="7.07298">
        <ele>139.87829589844</ele>
        <time>2020-05-14T12:30:48Z</time>
      </trkpt>
      <trkpt lat="43.61313" lon="7.07299">
        <ele>139.84521484375</ele>
        <time>2020-05-14T12:30:49Z</time>
      </trkpt>
      <trkpt lat="43.61316" lon="7.07299">
        <ele>139.94116210938</ele>
        <time>2020-05-14T12:30:50Z</time>
      </trkpt>
      <trkpt lat="43.61318" lon="7.07299">
        <ele>140.18310546875</ele>
        <time>2020-05-14T12:30:51Z</time>
      </trkpt>
      <trkpt lat="43.61321" lon="7.073">
        <ele>140.20867919922</ele>
        <time>2020-05-14T12:30:52Z</time>
      </trkpt>
      <trkpt lat="43.61324" lon="7.07301">
        <ele>140.63214111328</ele>
        <time>2020-05-14T12:30:53Z</time>
      </trkpt>
      <trkpt lat="43.61326" lon="7.07301">
        <ele>141.77819824219</ele>
        <time>2020-05-14T12:30:54Z</time>
      </trkpt>
      <trkpt lat="43.61329" lon="7.07302">
        <ele>142.15533447266</ele>
        <time>2020-05-14T12:30:55Z</time>
      </trkpt>
      <trkpt lat="43.61331" lon="7.07302">
        <ele>142.70587158203</ele>
        <time>2020-05-14T12:30:56Z</time>
      </trkpt>
      <trkpt lat="43.61334" lon="7.07303">
        <ele>142.99200439453</ele>
        <time>2020-05-14T12:30:57Z</time>
      </trkpt>
      <trkpt lat="43.61336" lon="7.07304">
        <ele>142.39025878906</ele>
        <time>2020-05-14T12:30:58Z</time>
      </trkpt>
      <trkpt lat="43.61338" lon="7.07306">
        <ele>142.51348876953</ele>
        <time>2020-05-14T12:30:59Z</time>
      </trkpt>
      <trkpt lat="43.61341" lon="7.07307">
        <ele>142.38195800781</ele>
        <time>2020-05-14T12:31:00Z</time>
      </trkpt>
      <trkpt lat="43.61343" lon="7.07308">
        <ele>142.99560546875</ele>
        <time>2020-05-14T12:31:01Z</time>
      </trkpt>
      <trkpt lat="43.61346" lon="7.07309">
        <ele>143.27349853516</ele>
        <time>2020-05-14T12:31:02Z</time>
      </trkpt>
      <trkpt lat="43.61348" lon="7.0731">
        <ele>143.453125</ele>
        <time>2020-05-14T12:31:03Z</time>
      </trkpt>
      <trkpt lat="43.61351" lon="7.07312">
        <ele>143.65014648438</ele>
        <time>2020-05-14T12:31:04Z</time>
      </trkpt>
      <trkpt lat="43.61353" lon="7.07313">
        <ele>144.31616210938</ele>
        <time>2020-05-14T12:31:05Z</time>
      </trkpt>
      <trkpt lat="43.61355" lon="7.07315">
        <ele>144.58685302734</ele>
        <time>2020-05-14T12:31:06Z</time>
      </trkpt>
      <trkpt lat="43.61358" lon="7.07316">
        <ele>144.24798583984</ele>
        <time>2020-05-14T12:31:07Z</time>
      </trkpt>
      <trkpt lat="43.6136" lon="7.07318">
        <ele>145.20318603516</ele>
        <time>2020-05-14T12:31:08Z</time>
      </trkpt>
      <trkpt lat="43.61363" lon="7.0732">
        <ele>145.45141601562</ele>
        <time>2020-05-14T12:31:09Z</time>
      </trkpt>
      <trkpt lat="43.61365" lon="7.07323">
        <ele>145.06512451172</ele>
        <time>2020-05-14T12:31:10Z</time>
      </trkpt>
      <trkpt lat="43.61367" lon="7.07326">
        <ele>144.69653320312</ele>
        <time>2020-05-14T12:31:11Z</time>
      </trkpt>
      <trkpt lat="43.61368" lon="7.07329">
        <ele>144.57745361328</ele>
        <time>2020-05-14T12:31:12Z</time>
      </trkpt>
      <trkpt lat="43.6137" lon="7.07332">
        <ele>143.93981933594</ele>
        <time>2020-05-14T12:31:13Z</time>
      </trkpt>
      <trkpt lat="43.61371" lon="7.07336">
        <ele>144.49011230469</ele>
        <time>2020-05-14T12:31:14Z</time>
      </trkpt>
      <trkpt lat="43.61373" lon="7.07339">
        <ele>144.49182128906</ele>
        <time>2020-05-14T12:31:15Z</time>
      </trkpt>
      <trkpt lat="43.61374" lon="7.07342">
        <ele>144.02746582031</ele>
        <time>2020-05-14T12:31:16Z</time>
      </trkpt>
      <trkpt lat="43.61375" lon="7.07346">
        <ele>144.10546875</ele>
        <time>2020-05-14T12:31:17Z</time>
      </trkpt>
      <trkpt lat="43.61377" lon="7.07349">
        <ele>143.90588378906</ele>
        <time>2020-05-14T12:31:18Z</time>
      </trkpt>
      <trkpt lat="43.61378" lon="7.07351">
        <ele>144.89874267578</ele>
        <time>2020-05-14T12:31:19Z</time>
      </trkpt>
      <trkpt lat="43.6138" lon="7.07354">
        <ele>144.76232910156</ele>
        <time>2020-05-14T12:31:20Z</time>
      </trkpt>
      <trkpt lat="43.61382" lon="7.07356">
        <ele>145.05163574219</ele>
        <time>2020-05-14T12:31:21Z</time>
      </trkpt>
      <trkpt lat="43.61384" lon="7.07359">
        <ele>144.9619140625</ele>
        <time>2020-05-14T12:31:22Z</time>
      </trkpt>
      <trkpt lat="43.61386" lon="7.07361">
        <ele>145.27301025391</ele>
        <time>2020-05-14T12:31:23Z</time>
      </trkpt>
      <trkpt lat="43.61388" lon="7.07363">
        <ele>144.96936035156</ele>
        <time>2020-05-14T12:31:24Z</time>
      </trkpt>
      <trkpt lat="43.6139" lon="7.07364">
        <ele>144.6982421875</ele>
        <time>2020-05-14T12:31:25Z</time>
      </trkpt>
      <trkpt lat="43.61393" lon="7.07366">
        <ele>145.25866699219</ele>
        <time>2020-05-14T12:31:26Z</time>
      </trkpt>
      <trkpt lat="43.61396" lon="7.07367">
        <ele>145.39581298828</ele>
        <time>2020-05-14T12:31:27Z</time>
      </trkpt>
      <trkpt lat="43.61399" lon="7.07368">
        <ele>145.88903808594</ele>
        <time>2020-05-14T12:31:28Z</time>
      </trkpt>
      <trkpt lat="43.61402" lon="7.07369">
        <ele>145.86260986328</ele>
        <time>2020-05-14T12:31:29Z</time>
      </trkpt>
      <trkpt lat="43.61405" lon="7.0737">
        <ele>145.90936279297</ele>
        <time>2020-05-14T12:31:30Z</time>
      </trkpt>
      <trkpt lat="43.61408" lon="7.07371">
        <ele>145.70013427734</ele>
        <time>2020-05-14T12:31:31Z</time>
      </trkpt>
      <trkpt lat="43.61411" lon="7.07371">
        <ele>145.79321289062</ele>
        <time>2020-05-14T12:31:32Z</time>
      </trkpt>
      <trkpt lat="43.61414" lon="7.07371">
        <ele>145.63098144531</ele>
        <time>2020-05-14T12:31:33Z</time>
      </trkpt>
      <trkpt lat="43.61418" lon="7.07372">
        <ele>145.51000976562</ele>
        <time>2020-05-14T12:31:34Z</time>
      </trkpt>
      <trkpt lat="43.61421" lon="7.07372">
        <ele>145.47418212891</ele>
        <time>2020-05-14T12:31:35Z</time>
      </trkpt>
      <trkpt lat="43.61425" lon="7.07373">
        <ele>145.50817871094</ele>
        <time>2020-05-14T12:31:36Z</time>
      </trkpt>
      <trkpt lat="43.61429" lon="7.07374">
        <ele>145.39190673828</ele>
        <time>2020-05-14T12:31:37Z</time>
      </trkpt>
      <trkpt lat="43.61432" lon="7.07375">
        <ele>145.3154296875</ele>
        <time>2020-05-14T12:31:38Z</time>
      </trkpt>
      <trkpt lat="43.61436" lon="7.07376">
        <ele>145.60821533203</ele>
        <time>2020-05-14T12:31:39Z</time>
      </trkpt>
      <trkpt lat="43.61439" lon="7.07377">
        <ele>145.65771484375</ele>
        <time>2020-05-14T12:31:40Z</time>
      </trkpt>
      <trkpt lat="43.61443" lon="7.07379">
        <ele>145.95166015625</ele>
        <time>2020-05-14T12:31:41Z</time>
      </trkpt>
      <trkpt lat="43.61447" lon="7.0738">
        <ele>145.56909179688</ele>
        <time>2020-05-14T12:31:42Z</time>
      </trkpt>
      <trkpt lat="43.6145" lon="7.07382">
        <ele>145.17456054688</ele>
        <time>2020-05-14T12:31:43Z</time>
      </trkpt>
      <trkpt lat="43.61454" lon="7.07383">
        <ele>144.94970703125</ele>
        <time>2020-05-14T12:31:44Z</time>
      </trkpt>
      <trkpt lat="43.61457" lon="7.07384">
        <ele>144.72772216797</ele>
        <time>2020-05-14T12:31:45Z</time>
      </trkpt>
      <trkpt lat="43.61461" lon="7.07385">
        <ele>144.87939453125</ele>
        <time>2020-05-14T12:31:46Z</time>
      </trkpt>
      <trkpt lat="43.61465" lon="7.07386">
        <ele>145.06481933594</ele>
        <time>2020-05-14T12:31:47Z</time>
      </trkpt>
      <trkpt lat="43.61468" lon="7.07386">
        <ele>145.42413330078</ele>
        <time>2020-05-14T12:31:48Z</time>
      </trkpt>
      <trkpt lat="43.61471" lon="7.07387">
        <ele>145.72790527344</ele>
        <time>2020-05-14T12:31:49Z</time>
      </trkpt>
      <trkpt lat="43.61475" lon="7.07388">
        <ele>146.02673339844</ele>
        <time>2020-05-14T12:31:50Z</time>
      </trkpt>
      <trkpt lat="43.61478" lon="7.07389">
        <ele>148.06719970703</ele>
        <time>2020-05-14T12:31:51Z</time>
      </trkpt>
      <trkpt lat="43.61481" lon="7.07391">
        <ele>148.05334472656</ele>
        <time>2020-05-14T12:31:52Z</time>
      </trkpt>
      <trkpt lat="43.61484" lon="7.07392">
        <ele>148.64434814453</ele>
        <time>2020-05-14T12:31:53Z</time>
      </trkpt>
      <trkpt lat="43.61487" lon="7.07394">
        <ele>148.64099121094</ele>
        <time>2020-05-14T12:31:54Z</time>
      </trkpt>
      <trkpt lat="43.6149" lon="7.07395">
        <ele>149.05126953125</ele>
        <time>2020-05-14T12:31:55Z</time>
      </trkpt>
      <trkpt lat="43.61493" lon="7.07397">
        <ele>149.23608398438</ele>
        <time>2020-05-14T12:31:56Z</time>
      </trkpt>
      <trkpt lat="43.61495" lon="7.07399">
        <ele>149.38891601562</ele>
        <time>2020-05-14T12:31:57Z</time>
      </trkpt>
      <trkpt lat="43.61498" lon="7.07401">
        <ele>149.71466064453</ele>
        <time>2020-05-14T12:31:58Z</time>
      </trkpt>
      <trkpt lat="43.615" lon="7.07403">
        <ele>149.79028320312</ele>
        <time>2020-05-14T12:31:59Z</time>
      </trkpt>
      <trkpt lat="43.61503" lon="7.07405">
        <ele>149.32678222656</ele>
        <time>2020-05-14T12:32:00Z</time>
      </trkpt>
      <trkpt lat="43.61505" lon="7.07407">
        <ele>149.61730957031</ele>
        <time>2020-05-14T12:32:01Z</time>
      </trkpt>
      <trkpt lat="43.61508" lon="7.07409">
        <ele>149.90295410156</ele>
        <time>2020-05-14T12:32:02Z</time>
      </trkpt>
      <trkpt lat="43.6151" lon="7.07411">
        <ele>150.25402832031</ele>
        <time>2020-05-14T12:32:03Z</time>
      </trkpt>
      <trkpt lat="43.61512" lon="7.07412">
        <ele>150.46356201172</ele>
        <time>2020-05-14T12:32:04Z</time>
      </trkpt>
      <trkpt lat="43.61515" lon="7.07414">
        <ele>150.65936279297</ele>
        <time>2020-05-14T12:32:05Z</time>
      </trkpt>
      <trkpt lat="43.61517" lon="7.07416">
        <ele>150.65118408203</ele>
        <time>2020-05-14T12:32:06Z</time>
      </trkpt>
      <trkpt lat="43.61519" lon="7.07418">
        <ele>151.02380371094</ele>
        <time>2020-05-14T12:32:07Z</time>
      </trkpt>
      <trkpt lat="43.61522" lon="7.0742">
        <ele>151.39599609375</ele>
        <time>2020-05-14T12:32:08Z</time>
      </trkpt>
      <trkpt lat="43.61524" lon="7.07422">
        <ele>151.40344238281</ele>
        <time>2020-05-14T12:32:09Z</time>
      </trkpt>
      <trkpt lat="43.61526" lon="7.07424">
        <ele>151.71166992188</ele>
        <time>2020-05-14T12:32:10Z</time>
      </trkpt>
      <trkpt lat="43.61529" lon="7.07426">
        <ele>151.51580810547</ele>
        <time>2020-05-14T12:32:11Z</time>
      </trkpt>
      <trkpt lat="43.61531" lon="7.07427">
        <ele>151.5517578125</ele>
        <time>2020-05-14T12:32:12Z</time>
      </trkpt>
      <trkpt lat="43.61533" lon="7.07429">
        <ele>151.98394775391</ele>
        <time>2020-05-14T12:32:13Z</time>
      </trkpt>
      <trkpt lat="43.61535" lon="7.07431">
        <ele>152.28662109375</ele>
        <time>2020-05-14T12:32:14Z</time>
      </trkpt>
      <trkpt lat="43.61538" lon="7.07432">
        <ele>152.32409667969</ele>
        <time>2020-05-14T12:32:15Z</time>
      </trkpt>
      <trkpt lat="43.6154" lon="7.07433">
        <ele>152.93859863281</ele>
        <time>2020-05-14T12:32:16Z</time>
      </trkpt>
      <trkpt lat="43.61543" lon="7.07433">
        <ele>153.181640625</ele>
        <time>2020-05-14T12:32:17Z</time>
      </trkpt>
      <trkpt lat="43.61545" lon="7.07434">
        <ele>153.41870117188</ele>
        <time>2020-05-14T12:32:18Z</time>
      </trkpt>
      <trkpt lat="43.61548" lon="7.07435">
        <ele>153.81652832031</ele>
        <time>2020-05-14T12:32:19Z</time>
      </trkpt>
      <trkpt lat="43.6155" lon="7.07436">
        <ele>153.734375</ele>
        <time>2020-05-14T12:32:20Z</time>
      </trkpt>
      <trkpt lat="43.61553" lon="7.07438">
        <ele>154.00823974609</ele>
        <time>2020-05-14T12:32:21Z</time>
      </trkpt>
      <trkpt lat="43.61555" lon="7.07439">
        <ele>154.21020507812</ele>
        <time>2020-05-14T12:32:22Z</time>
      </trkpt>
      <trkpt lat="43.61558" lon="7.0744">
        <ele>154.48034667969</ele>
        <time>2020-05-14T12:32:23Z</time>
      </trkpt>
      <trkpt lat="43.6156" lon="7.07441">
        <ele>154.68817138672</ele>
        <time>2020-05-14T12:32:24Z</time>
      </trkpt>
      <trkpt lat="43.61562" lon="7.07441">
        <ele>154.53106689453</ele>
        <time>2020-05-14T12:32:25Z</time>
      </trkpt>
      <trkpt lat="43.61565" lon="7.07442">
        <ele>154.75317382812</ele>
        <time>2020-05-14T12:32:26Z</time>
      </trkpt>
      <trkpt lat="43.61567" lon="7.07442">
        <ele>154.81036376953</ele>
        <time>2020-05-14T12:32:27Z</time>
      </trkpt>
      <trkpt lat="43.6157" lon="7.07442">
        <ele>155.01373291016</ele>
        <time>2020-05-14T12:32:28Z</time>
      </trkpt>
      <trkpt lat="43.61572" lon="7.07443">
        <ele>155.24957275391</ele>
        <time>2020-05-14T12:32:29Z</time>
      </trkpt>
      <trkpt lat="43.61575" lon="7.07443">
        <ele>155.22351074219</ele>
        <time>2020-05-14T12:32:30Z</time>
      </trkpt>
      <trkpt lat="43.61577" lon="7.07442">
        <ele>155.33624267578</ele>
        <time>2020-05-14T12:32:31Z</time>
      </trkpt>
      <trkpt lat="43.6158" lon="7.07442">
        <ele>155.46203613281</ele>
        <time>2020-05-14T12:32:32Z</time>
      </trkpt>
      <trkpt lat="43.61583" lon="7.07441">
        <ele>155.74108886719</ele>
        <time>2020-05-14T12:32:33Z</time>
      </trkpt>
      <trkpt lat="43.61585" lon="7.0744">
        <ele>156.01257324219</ele>
        <time>2020-05-14T12:32:34Z</time>
      </trkpt>
      <trkpt lat="43.61588" lon="7.0744">
        <ele>156.04675292969</ele>
        <time>2020-05-14T12:32:35Z</time>
      </trkpt>
      <trkpt lat="43.6159" lon="7.07439">
        <ele>156.40753173828</ele>
        <time>2020-05-14T12:32:36Z</time>
      </trkpt>
      <trkpt lat="43.61593" lon="7.07439">
        <ele>156.65679931641</ele>
        <time>2020-05-14T12:32:37Z</time>
      </trkpt>
      <trkpt lat="43.61596" lon="7.07439">
        <ele>156.75378417969</ele>
        <time>2020-05-14T12:32:38Z</time>
      </trkpt>
      <trkpt lat="43.61598" lon="7.07438">
        <ele>156.98291015625</ele>
        <time>2020-05-14T12:32:39Z</time>
      </trkpt>
      <trkpt lat="43.61601" lon="7.07437">
        <ele>157.27783203125</ele>
        <time>2020-05-14T12:32:40Z</time>
      </trkpt>
      <trkpt lat="43.61603" lon="7.07435">
        <ele>157.43908691406</ele>
        <time>2020-05-14T12:32:41Z</time>
      </trkpt>
      <trkpt lat="43.61606" lon="7.07434">
        <ele>157.60272216797</ele>
        <time>2020-05-14T12:32:42Z</time>
      </trkpt>
      <trkpt lat="43.61608" lon="7.07432">
        <ele>155.35357666016</ele>
        <time>2020-05-14T12:32:43Z</time>
      </trkpt>
      <trkpt lat="43.61611" lon="7.07431">
        <ele>156.57983398438</ele>
        <time>2020-05-14T12:32:44Z</time>
      </trkpt>
      <trkpt lat="43.61613" lon="7.07429">
        <ele>155.376953125</ele>
        <time>2020-05-14T12:32:45Z</time>
      </trkpt>
      <trkpt lat="43.61616" lon="7.07427">
        <ele>155.31286621094</ele>
        <time>2020-05-14T12:32:46Z</time>
      </trkpt>
      <trkpt lat="43.61618" lon="7.07425">
        <ele>154.23114013672</ele>
        <time>2020-05-14T12:32:47Z</time>
      </trkpt>
      <trkpt lat="43.61621" lon="7.07423">
        <ele>154.24114990234</ele>
        <time>2020-05-14T12:32:48Z</time>
      </trkpt>
      <trkpt lat="43.61623" lon="7.07421">
        <ele>154.48620605469</ele>
        <time>2020-05-14T12:32:49Z</time>
      </trkpt>
      <trkpt lat="43.61625" lon="7.07418">
        <ele>154.59088134766</ele>
        <time>2020-05-14T12:32:50Z</time>
      </trkpt>
      <trkpt lat="43.61627" lon="7.07416">
        <ele>154.69653320312</ele>
        <time>2020-05-14T12:32:51Z</time>
      </trkpt>
      <trkpt lat="43.6163" lon="7.07413">
        <ele>154.92303466797</ele>
        <time>2020-05-14T12:32:52Z</time>
      </trkpt>
      <trkpt lat="43.61632" lon="7.07411">
        <ele>154.89874267578</ele>
        <time>2020-05-14T12:32:53Z</time>
      </trkpt>
      <trkpt lat="43.61634" lon="7.07408">
        <ele>154.7001953125</ele>
        <time>2020-05-14T12:32:54Z</time>
      </trkpt>
      <trkpt lat="43.61636" lon="7.07406">
        <ele>157.07299804688</ele>
        <time>2020-05-14T12:32:55Z</time>
      </trkpt>
      <trkpt lat="43.61638" lon="7.07403">
        <ele>150.75769042969</ele>
        <time>2020-05-14T12:32:56Z</time>
      </trkpt>
      <trkpt lat="43.6164" lon="7.074">
        <ele>154.93176269531</ele>
        <time>2020-05-14T12:32:57Z</time>
      </trkpt>
      <trkpt lat="43.61641" lon="7.07398">
        <ele>154.62829589844</ele>
        <time>2020-05-14T12:32:58Z</time>
      </trkpt>
      <trkpt lat="43.61643" lon="7.07395">
        <ele>153.48449707031</ele>
        <time>2020-05-14T12:32:59Z</time>
      </trkpt>
      <trkpt lat="43.61644" lon="7.07392">
        <ele>151.75909423828</ele>
        <time>2020-05-14T12:33:00Z</time>
      </trkpt>
      <trkpt lat="43.61645" lon="7.07388">
        <ele>150.78234863281</ele>
        <time>2020-05-14T12:33:01Z</time>
      </trkpt>
      <trkpt lat="43.61646" lon="7.07384">
        <ele>146.09118652344</ele>
        <time>2020-05-14T12:33:02Z</time>
      </trkpt>
      <trkpt lat="43.61647" lon="7.0738">
        <ele>225.68365478516</ele>
        <time>2020-05-14T12:33:03Z</time>
      </trkpt>
      <trkpt lat="43.61647" lon="7.07376">
        <ele>229.24542236328</ele>
        <time>2020-05-14T12:33:04Z</time>
      </trkpt>
      <trkpt lat="43.61648" lon="7.07373">
        <ele>235.07855224609</ele>
        <time>2020-05-14T12:33:05Z</time>
      </trkpt>
      <trkpt lat="43.61649" lon="7.07369">
        <ele>235.93310546875</ele>
        <time>2020-05-14T12:33:06Z</time>
      </trkpt>
      <trkpt lat="43.61651" lon="7.07365">
        <ele>213.04364013672</ele>
        <time>2020-05-14T12:33:07Z</time>
      </trkpt>
      <trkpt lat="43.61652" lon="7.07361">
        <ele>214.33654785156</ele>
        <time>2020-05-14T12:33:08Z</time>
      </trkpt>
      <trkpt lat="43.61654" lon="7.07358">
        <ele>217.45404052734</ele>
        <time>2020-05-14T12:33:09Z</time>
      </trkpt>
      <trkpt lat="43.61656" lon="7.07355">
        <ele>220.12219238281</ele>
        <time>2020-05-14T12:33:10Z</time>
      </trkpt>
      <trkpt lat="43.61658" lon="7.07352">
        <ele>218.7421875</ele>
        <time>2020-05-14T12:33:11Z</time>
      </trkpt>
      <trkpt lat="43.6166" lon="7.07348">
        <ele>221.2333984375</ele>
        <time>2020-05-14T12:33:12Z</time>
      </trkpt>
      <trkpt lat="43.61661" lon="7.07344">
        <ele>224.54052734375</ele>
        <time>2020-05-14T12:33:13Z</time>
      </trkpt>
      <trkpt lat="43.61663" lon="7.0734">
        <ele>226.87438964844</ele>
        <time>2020-05-14T12:33:14Z</time>
      </trkpt>
      <trkpt lat="43.61664" lon="7.07336">
        <ele>230.35266113281</ele>
        <time>2020-05-14T12:33:15Z</time>
      </trkpt>
      <trkpt lat="43.61665" lon="7.07332">
        <ele>233.26208496094</ele>
        <time>2020-05-14T12:33:16Z</time>
      </trkpt>
      <trkpt lat="43.61665" lon="7.07328">
        <ele>235.43792724609</ele>
        <time>2020-05-14T12:33:17Z</time>
      </trkpt>
      <trkpt lat="43.61666" lon="7.07324">
        <ele>234.98669433594</ele>
        <time>2020-05-14T12:33:18Z</time>
      </trkpt>
      <trkpt lat="43.61666" lon="7.0732">
        <ele>232.99255371094</ele>
        <time>2020-05-14T12:33:19Z</time>
      </trkpt>
      <trkpt lat="43.61666" lon="7.07316">
        <ele>229.71423339844</ele>
        <time>2020-05-14T12:33:20Z</time>
      </trkpt>
      <trkpt lat="43.61667" lon="7.07312">
        <ele>227.29644775391</ele>
        <time>2020-05-14T12:33:21Z</time>
      </trkpt>
      <trkpt lat="43.61667" lon="7.07308">
        <ele>225.10974121094</ele>
        <time>2020-05-14T12:33:22Z</time>
      </trkpt>
      <trkpt lat="43.61667" lon="7.07304">
        <ele>229.16772460938</ele>
        <time>2020-05-14T12:33:23Z</time>
      </trkpt>
      <trkpt lat="43.61668" lon="7.073">
        <ele>239.29541015625</ele>
        <time>2020-05-14T12:33:24Z</time>
      </trkpt>
      <trkpt lat="43.61669" lon="7.07295">
        <ele>244.55065917969</ele>
        <time>2020-05-14T12:33:25Z</time>
      </trkpt>
      <trkpt lat="43.6167" lon="7.07292">
        <ele>244.41595458984</ele>
        <time>2020-05-14T12:33:26Z</time>
      </trkpt>
      <trkpt lat="43.6167" lon="7.07288">
        <ele>242.91491699219</ele>
        <time>2020-05-14T12:33:27Z</time>
      </trkpt>
      <trkpt lat="43.61671" lon="7.07285">
        <ele>242.22314453125</ele>
        <time>2020-05-14T12:33:28Z</time>
      </trkpt>
      <trkpt lat="43.61672" lon="7.07281">
        <ele>240.77435302734</ele>
        <time>2020-05-14T12:33:29Z</time>
      </trkpt>
      <trkpt lat="43.61672" lon="7.07278">
        <ele>246.34698486328</ele>
        <time>2020-05-14T12:33:30Z</time>
      </trkpt>
      <trkpt lat="43.61673" lon="7.07275">
        <ele>224.66168212891</ele>
        <time>2020-05-14T12:33:31Z</time>
      </trkpt>
      <trkpt lat="43.61674" lon="7.07271">
        <ele>228.38146972656</ele>
        <time>2020-05-14T12:33:32Z</time>
      </trkpt>
      <trkpt lat="43.61675" lon="7.07267">
        <ele>228.06506347656</ele>
        <time>2020-05-14T12:33:33Z</time>
      </trkpt>
      <trkpt lat="43.61677" lon="7.07264">
        <ele>226.12939453125</ele>
        <time>2020-05-14T12:33:34Z</time>
      </trkpt>
      <trkpt lat="43.61678" lon="7.0726">
        <ele>226.59106445312</ele>
        <time>2020-05-14T12:33:35Z</time>
      </trkpt>
      <trkpt lat="43.6168" lon="7.07256">
        <ele>227.72583007812</ele>
        <time>2020-05-14T12:33:36Z</time>
      </trkpt>
      <trkpt lat="43.61682" lon="7.07254">
        <ele>224.21252441406</ele>
        <time>2020-05-14T12:33:37Z</time>
      </trkpt>
      <trkpt lat="43.61684" lon="7.07251">
        <ele>219.36981201172</ele>
        <time>2020-05-14T12:33:38Z</time>
      </trkpt>
      <trkpt lat="43.61686" lon="7.07248">
        <ele>217.16528320312</ele>
        <time>2020-05-14T12:33:39Z</time>
      </trkpt>
      <trkpt lat="43.61687" lon="7.07246">
        <ele>217.16833496094</ele>
        <time>2020-05-14T12:33:40Z</time>
      </trkpt>
      <trkpt lat="43.61688" lon="7.07243">
        <ele>214.74194335938</ele>
        <time>2020-05-14T12:33:41Z</time>
      </trkpt>
      <trkpt lat="43.61689" lon="7.07241">
        <ele>214.76831054688</ele>
        <time>2020-05-14T12:33:42Z</time>
      </trkpt>
      <trkpt lat="43.6169" lon="7.07238">
        <ele>232.06115722656</ele>
        <time>2020-05-14T12:33:43Z</time>
      </trkpt>
      <trkpt lat="43.61692" lon="7.07234">
        <ele>235.21899414062</ele>
        <time>2020-05-14T12:33:44Z</time>
      </trkpt>
      <trkpt lat="43.61693" lon="7.07231">
        <ele>240.52728271484</ele>
        <time>2020-05-14T12:33:45Z</time>
      </trkpt>
      <trkpt lat="43.61694" lon="7.07228">
        <ele>221.27722167969</ele>
        <time>2020-05-14T12:33:46Z</time>
      </trkpt>
      <trkpt lat="43.61695" lon="7.07225">
        <ele>223.35534667969</ele>
        <time>2020-05-14T12:33:47Z</time>
      </trkpt>
      <trkpt lat="43.61696" lon="7.07221">
        <ele>219.60278320312</ele>
        <time>2020-05-14T12:33:48Z</time>
      </trkpt>
      <trkpt lat="43.61697" lon="7.07219">
        <ele>220.14727783203</ele>
        <time>2020-05-14T12:33:49Z</time>
      </trkpt>
      <trkpt lat="43.61699" lon="7.07216">
        <ele>216.01147460938</ele>
        <time>2020-05-14T12:33:50Z</time>
      </trkpt>
      <trkpt lat="43.617" lon="7.07213">
        <ele>212.10803222656</ele>
        <time>2020-05-14T12:33:51Z</time>
      </trkpt>
      <trkpt lat="43.61701" lon="7.0721">
        <ele>209.69354248047</ele>
        <time>2020-05-14T12:33:52Z</time>
      </trkpt>
      <trkpt lat="43.61702" lon="7.07207">
        <ele>206.19372558594</ele>
        <time>2020-05-14T12:33:53Z</time>
      </trkpt>
      <trkpt lat="43.61703" lon="7.07205">
        <ele>223.28912353516</ele>
        <time>2020-05-14T12:33:54Z</time>
      </trkpt>
      <trkpt lat="43.61704" lon="7.07202">
        <ele>230.75415039062</ele>
        <time>2020-05-14T12:33:55Z</time>
      </trkpt>
      <trkpt lat="43.61705" lon="7.072">
        <ele>233.42065429688</ele>
        <time>2020-05-14T12:33:56Z</time>
      </trkpt>
      <trkpt lat="43.61705" lon="7.07197">
        <ele>150.55987548828</ele>
        <time>2020-05-14T12:33:57Z</time>
      </trkpt>
      <trkpt lat="43.61706" lon="7.07195">
        <ele>154.69512939453</ele>
        <time>2020-05-14T12:33:58Z</time>
      </trkpt>
      <trkpt lat="43.61707" lon="7.07191">
        <ele>155.19494628906</ele>
        <time>2020-05-14T12:33:59Z</time>
      </trkpt>
      <trkpt lat="43.61707" lon="7.07188">
        <ele>153.11474609375</ele>
        <time>2020-05-14T12:34:00Z</time>
      </trkpt>
      <trkpt lat="43.61708" lon="7.07185">
        <ele>160.11871337891</ele>
        <time>2020-05-14T12:34:01Z</time>
      </trkpt>
      <trkpt lat="43.61708" lon="7.07182">
        <ele>157.94476318359</ele>
        <time>2020-05-14T12:34:02Z</time>
      </trkpt>
      <trkpt lat="43.61708" lon="7.0718">
        <ele>157.43096923828</ele>
        <time>2020-05-14T12:34:03Z</time>
      </trkpt>
      <trkpt lat="43.61708" lon="7.07179">
        <ele>157.39221191406</ele>
        <time>2020-05-14T12:34:04Z</time>
      </trkpt>
      <trkpt lat="43.61708" lon="7.07178">
        <ele>155.48449707031</ele>
        <time>2020-05-14T12:34:05Z</time>
      </trkpt>
      <trkpt lat="43.61708" lon="7.07178">
        <ele>164.78979492188</ele>
        <time>2020-05-14T12:34:06Z</time>
      </trkpt>
      <trkpt lat="43.61708" lon="7.07178">
        <ele>162.52685546875</ele>
        <time>2020-05-14T12:34:07Z</time>
      </trkpt>
      <trkpt lat="43.61708" lon="7.07177">
        <ele>162.90472412109</ele>
        <time>2020-05-14T12:34:08Z</time>
      </trkpt>
      <trkpt lat="43.61708" lon="7.07177">
        <ele>163.38525390625</ele>
        <time>2020-05-14T12:34:09Z</time>
      </trkpt>
      <trkpt lat="43.61708" lon="7.07177">
        <ele>162.10131835938</ele>
        <time>2020-05-14T12:34:10Z</time>
      </trkpt>
      <trkpt lat="43.61708" lon="7.07177">
        <ele>162.0947265625</ele>
        <time>2020-05-14T12:34:11Z</time>
      </trkpt>
      <trkpt lat="43.61708" lon="7.07177">
        <ele>159.50335693359</ele>
        <time>2020-05-14T12:34:12Z</time>
      </trkpt>
      <trkpt lat="43.61708" lon="7.07176">
        <ele>156.318359375</ele>
        <time>2020-05-14T12:34:13Z</time>
      </trkpt>
      <trkpt lat="43.61708" lon="7.07176">
        <ele>163.33862304688</ele>
        <time>2020-05-14T12:34:14Z</time>
      </trkpt>
      <trkpt lat="43.61707" lon="7.07176">
        <ele>161.78869628906</ele>
        <time>2020-05-14T12:34:15Z</time>
      </trkpt>
      <trkpt lat="43.61707" lon="7.07176">
        <ele>164.51171875</ele>
        <time>2020-05-14T12:34:16Z</time>
      </trkpt>
      <trkpt lat="43.61707" lon="7.07175">
        <ele>164.60192871094</ele>
        <time>2020-05-14T12:34:17Z</time>
      </trkpt>
      <trkpt lat="43.61707" lon="7.07176">
        <ele>165.10028076172</ele>
        <time>2020-05-14T12:34:18Z</time>
      </trkpt>
      <trkpt lat="43.61707" lon="7.07175">
        <ele>164.88598632812</ele>
        <time>2020-05-14T12:34:19Z</time>
      </trkpt>
      <trkpt lat="43.61707" lon="7.07175">
        <ele>164.69329833984</ele>
        <time>2020-05-14T12:34:20Z</time>
      </trkpt>
      <trkpt lat="43.61706" lon="7.07175">
        <ele>164.39562988281</ele>
        <time>2020-05-14T12:34:21Z</time>
      </trkpt>
      <trkpt lat="43.61706" lon="7.07175">
        <ele>164.32342529297</ele>
        <time>2020-05-14T12:34:22Z</time>
      </trkpt>
      <trkpt lat="43.61706" lon="7.07175">
        <ele>164.35272216797</ele>
        <time>2020-05-14T12:34:23Z</time>
      </trkpt>
      <trkpt lat="43.61706" lon="7.07175">
        <ele>164.05871582031</ele>
        <time>2020-05-14T12:34:24Z</time>
      </trkpt>
      <trkpt lat="43.61706" lon="7.07176">
        <ele>163.79626464844</ele>
        <time>2020-05-14T12:34:25Z</time>
      </trkpt>
      <trkpt lat="43.61706" lon="7.07176">
        <ele>163.82147216797</ele>
        <time>2020-05-14T12:34:26Z</time>
      </trkpt>
      <trkpt lat="43.61707" lon="7.07176">
        <ele>163.84692382812</ele>
        <time>2020-05-14T12:34:27Z</time>
      </trkpt>
      <trkpt lat="43.61707" lon="7.07176">
        <ele>163.76043701172</ele>
        <time>2020-05-14T12:34:28Z</time>
      </trkpt>
      <trkpt lat="43.61707" lon="7.07176">
        <ele>162.94342041016</ele>
        <time>2020-05-14T12:34:29Z</time>
      </trkpt>
      <trkpt lat="43.61707" lon="7.07176">
        <ele>162.58081054688</ele>
        <time>2020-05-14T12:34:30Z</time>
      </trkpt>
      <trkpt lat="43.61707" lon="7.07175">
        <ele>162.23986816406</ele>
        <time>2020-05-14T12:34:31Z</time>
      </trkpt>
      <trkpt lat="43.61707" lon="7.07175">
        <ele>163.37567138672</ele>
        <time>2020-05-14T12:34:32Z</time>
      </trkpt>
      <trkpt lat="43.61707" lon="7.07175">
        <ele>160.70861816406</ele>
        <time>2020-05-14T12:34:33Z</time>
      </trkpt>
      <trkpt lat="43.61707" lon="7.07175">
        <ele>160.17169189453</ele>
        <time>2020-05-14T12:34:34Z</time>
      </trkpt>
      <trkpt lat="43.61706" lon="7.07175">
        <ele>159.36743164062</ele>
        <time>2020-05-14T12:34:35Z</time>
      </trkpt>
      <trkpt lat="43.61706" lon="7.07175">
        <ele>157.78594970703</ele>
        <time>2020-05-14T12:34:36Z</time>
      </trkpt>
      <trkpt lat="43.61706" lon="7.07175">
        <ele>158.56573486328</ele>
        <time>2020-05-14T12:34:37Z</time>
      </trkpt>
      <trkpt lat="43.61706" lon="7.07175">
        <ele>157.33209228516</ele>
        <time>2020-05-14T12:34:38Z</time>
      </trkpt>
      <trkpt lat="43.61706" lon="7.07175">
        <ele>157.56506347656</ele>
        <time>2020-05-14T12:34:39Z</time>
      </trkpt>
      <trkpt lat="43.61706" lon="7.07175">
        <ele>157.49993896484</ele>
        <time>2020-05-14T12:34:40Z</time>
      </trkpt>
      <trkpt lat="43.61706" lon="7.07175">
        <ele>157.36456298828</ele>
        <time>2020-05-14T12:34:41Z</time>
      </trkpt>
      <trkpt lat="43.61706" lon="7.07175">
        <ele>157.37493896484</ele>
        <time>2020-05-14T12:34:42Z</time>
      </trkpt>
      <trkpt lat="43.61706" lon="7.07175">
        <ele>156.166015625</ele>
        <time>2020-05-14T12:34:43Z</time>
      </trkpt>
      <trkpt lat="43.61706" lon="7.07175">
        <ele>155.35357666016</ele>
        <time>2020-05-14T12:34:44Z</time>
      </trkpt>
      <trkpt lat="43.61706" lon="7.07175">
        <ele>153.00756835938</ele>
        <time>2020-05-14T12:34:45Z</time>
      </trkpt>
      <trkpt lat="43.61706" lon="7.07175">
        <ele>152.32287597656</ele>
        <time>2020-05-14T12:34:46Z</time>
      </trkpt>
      <trkpt lat="43.61706" lon="7.07175">
        <ele>151.55444335938</ele>
        <time>2020-05-14T12:34:47Z</time>
      </trkpt>
      <trkpt lat="43.61706" lon="7.07175">
        <ele>150.59924316406</ele>
        <time>2020-05-14T12:34:48Z</time>
      </trkpt>
      <trkpt lat="43.61706" lon="7.07175">
        <ele>151.11804199219</ele>
        <time>2020-05-14T12:34:49Z</time>
      </trkpt>
      <trkpt lat="43.61706" lon="7.07175">
        <ele>151.88446044922</ele>
        <time>2020-05-14T12:34:50Z</time>
      </trkpt>
      <trkpt lat="43.61706" lon="7.07175">
        <ele>151.67144775391</ele>
        <time>2020-05-14T12:34:51Z</time>
      </trkpt>
      <trkpt lat="43.61706" lon="7.07175">
        <ele>151.529296875</ele>
        <time>2020-05-14T12:34:52Z</time>
      </trkpt>
      <trkpt lat="43.61706" lon="7.07175">
        <ele>152.10711669922</ele>
        <time>2020-05-14T12:34:53Z</time>
      </trkpt>
      <trkpt lat="43.61706" lon="7.07175">
        <ele>149.31207275391</ele>
        <time>2020-05-14T12:34:54Z</time>
      </trkpt>
      <trkpt lat="43.61706" lon="7.07175">
        <ele>149.76977539062</ele>
        <time>2020-05-14T12:34:55Z</time>
      </trkpt>
      <trkpt lat="43.61706" lon="7.07175">
        <ele>149.96398925781</ele>
        <time>2020-05-14T12:34:56Z</time>
      </trkpt>
      <trkpt lat="43.61706" lon="7.07175">
        <ele>150.49139404297</ele>
        <time>2020-05-14T12:34:57Z</time>
      </trkpt>
      <trkpt lat="43.61706" lon="7.07175">
        <ele>150.89672851562</ele>
        <time>2020-05-14T12:34:58Z</time>
      </trkpt>
      <trkpt lat="43.61706" lon="7.07175">
        <ele>149.47351074219</ele>
        <time>2020-05-14T12:34:59Z</time>
      </trkpt>
      <trkpt lat="43.61706" lon="7.07175">
        <ele>148.59033203125</ele>
        <time>2020-05-14T12:35:00Z</time>
      </trkpt>
      <trkpt lat="43.61706" lon="7.07175">
        <ele>149.03259277344</ele>
        <time>2020-05-14T12:35:01Z</time>
      </trkpt>
      <trkpt lat="43.61706" lon="7.07175">
        <ele>149.89135742188</ele>
        <time>2020-05-14T12:35:02Z</time>
      </trkpt>
      <trkpt lat="43.61706" lon="7.07175">
        <ele>149.99066162109</ele>
        <time>2020-05-14T12:35:03Z</time>
      </trkpt>
      <trkpt lat="43.61706" lon="7.07175">
        <ele>149.25817871094</ele>
        <time>2020-05-14T12:35:04Z</time>
      </trkpt>
      <trkpt lat="43.61706" lon="7.07175">
        <ele>149.923828125</ele>
        <time>2020-05-14T12:35:05Z</time>
      </trkpt>
      <trkpt lat="43.61706" lon="7.07175">
        <ele>146.93981933594</ele>
        <time>2020-05-14T12:35:06Z</time>
      </trkpt>
      <trkpt lat="43.61706" lon="7.07175">
        <ele>147.42761230469</ele>
        <time>2020-05-14T12:35:07Z</time>
      </trkpt>
      <trkpt lat="43.61706" lon="7.07175">
        <ele>146.73742675781</ele>
        <time>2020-05-14T12:35:08Z</time>
      </trkpt>
      <trkpt lat="43.61706" lon="7.07175">
        <ele>147.13110351562</ele>
        <time>2020-05-14T12:35:09Z</time>
      </trkpt>
      <trkpt lat="43.61706" lon="7.07175">
        <ele>147.82800292969</ele>
        <time>2020-05-14T12:35:10Z</time>
      </trkpt>
      <trkpt lat="43.61706" lon="7.07175">
        <ele>148.48455810547</ele>
        <time>2020-05-14T12:35:11Z</time>
      </trkpt>
      <trkpt lat="43.61706" lon="7.07175">
        <ele>148.56359863281</ele>
        <time>2020-05-14T12:35:12Z</time>
      </trkpt>
      <trkpt lat="43.61706" lon="7.07175">
        <ele>146.63800048828</ele>
        <time>2020-05-14T12:35:13Z</time>
      </trkpt>
      <trkpt lat="43.61706" lon="7.07175">
        <ele>144.79748535156</ele>
        <time>2020-05-14T12:35:14Z</time>
      </trkpt>
      <trkpt lat="43.61706" lon="7.07175">
        <ele>144.00073242188</ele>
        <time>2020-05-14T12:35:15Z</time>
      </trkpt>
      <trkpt lat="43.61706" lon="7.07175">
        <ele>143.71771240234</ele>
        <time>2020-05-14T12:35:16Z</time>
      </trkpt>
      <trkpt lat="43.61706" lon="7.07175">
        <ele>143.9638671875</ele>
        <time>2020-05-14T12:35:17Z</time>
      </trkpt>
      <trkpt lat="43.61706" lon="7.07175">
        <ele>144.36822509766</ele>
        <time>2020-05-14T12:35:18Z</time>
      </trkpt>
      <trkpt lat="43.61706" lon="7.07175">
        <ele>144.23681640625</ele>
        <time>2020-05-14T12:35:19Z</time>
      </trkpt>
      <trkpt lat="43.61706" lon="7.07175">
        <ele>143.85559082031</ele>
        <time>2020-05-14T12:35:20Z</time>
      </trkpt>
      <trkpt lat="43.61706" lon="7.07175">
        <ele>142.35046386719</ele>
        <time>2020-05-14T12:35:21Z</time>
      </trkpt>
      <trkpt lat="43.61706" lon="7.07175">
        <ele>142.50823974609</ele>
        <time>2020-05-14T12:35:22Z</time>
      </trkpt>
      <trkpt lat="43.61706" lon="7.07175">
        <ele>148.353515625</ele>
        <time>2020-05-14T12:35:23Z</time>
      </trkpt>
      <trkpt lat="43.61706" lon="7.07175">
        <ele>145.38708496094</ele>
        <time>2020-05-14T12:35:24Z</time>
      </trkpt>
      <trkpt lat="43.61706" lon="7.07175">
        <ele>145.01940917969</ele>
        <time>2020-05-14T12:35:25Z</time>
      </trkpt>
      <trkpt lat="43.61706" lon="7.07175">
        <ele>145.35784912109</ele>
        <time>2020-05-14T12:35:26Z</time>
      </trkpt>
      <trkpt lat="43.61706" lon="7.07175">
        <ele>144.80700683594</ele>
        <time>2020-05-14T12:35:27Z</time>
      </trkpt>
      <trkpt lat="43.61706" lon="7.07175">
        <ele>145.26049804688</ele>
        <time>2020-05-14T12:35:28Z</time>
      </trkpt>
      <trkpt lat="43.61706" lon="7.07175">
        <ele>143.78198242188</ele>
        <time>2020-05-14T12:35:29Z</time>
      </trkpt>
      <trkpt lat="43.61706" lon="7.07175">
        <ele>143.71051025391</ele>
        <time>2020-05-14T12:35:30Z</time>
      </trkpt>
      <trkpt lat="43.61706" lon="7.07175">
        <ele>142.39434814453</ele>
        <time>2020-05-14T12:35:31Z</time>
      </trkpt>
      <trkpt lat="43.61706" lon="7.07175">
        <ele>140.75189208984</ele>
        <time>2020-05-14T12:35:32Z</time>
      </trkpt>
      <trkpt lat="43.61706" lon="7.07175">
        <ele>141.67071533203</ele>
        <time>2020-05-14T12:35:33Z</time>
      </trkpt>
      <trkpt lat="43.61706" lon="7.07175">
        <ele>142.50366210938</ele>
        <time>2020-05-14T12:35:34Z</time>
      </trkpt>
      <trkpt lat="43.61706" lon="7.07175">
        <ele>143.56262207031</ele>
        <time>2020-05-14T12:35:35Z</time>
      </trkpt>
      <trkpt lat="43.61706" lon="7.07175">
        <ele>145.61584472656</ele>
        <time>2020-05-14T12:35:36Z</time>
      </trkpt>
      <trkpt lat="43.61706" lon="7.07175">
        <ele>147.03259277344</ele>
        <time>2020-05-14T12:35:37Z</time>
      </trkpt>
      <trkpt lat="43.61706" lon="7.07175">
        <ele>146.80609130859</ele>
        <time>2020-05-14T12:35:38Z</time>
      </trkpt>
      <trkpt lat="43.61706" lon="7.07175">
        <ele>145.71520996094</ele>
        <time>2020-05-14T12:35:39Z</time>
      </trkpt>
      <trkpt lat="43.61706" lon="7.07175">
        <ele>147.01422119141</ele>
        <time>2020-05-14T12:35:40Z</time>
      </trkpt>
      <trkpt lat="43.61706" lon="7.07175">
        <ele>147.69561767578</ele>
        <time>2020-05-14T12:35:41Z</time>
      </trkpt>
      <trkpt lat="43.61706" lon="7.07175">
        <ele>146.96423339844</ele>
        <time>2020-05-14T12:35:42Z</time>
      </trkpt>
      <trkpt lat="43.61706" lon="7.07175">
        <ele>146.59643554688</ele>
        <time>2020-05-14T12:35:43Z</time>
      </trkpt>
      <trkpt lat="43.61706" lon="7.07175">
        <ele>146.71765136719</ele>
        <time>2020-05-14T12:35:44Z</time>
      </trkpt>
      <trkpt lat="43.61706" lon="7.07175">
        <ele>147.13421630859</ele>
        <time>2020-05-14T12:35:45Z</time>
      </trkpt>
      <trkpt lat="43.61706" lon="7.07175">
        <ele>147.26519775391</ele>
        <time>2020-05-14T12:35:46Z</time>
      </trkpt>
      <trkpt lat="43.61706" lon="7.07175">
        <ele>146.41821289062</ele>
        <time>2020-05-14T12:35:47Z</time>
      </trkpt>
      <trkpt lat="43.61706" lon="7.07175">
        <ele>146.76440429688</ele>
        <time>2020-05-14T12:35:48Z</time>
      </trkpt>
      <trkpt lat="43.61706" lon="7.07175">
        <ele>146.92468261719</ele>
        <time>2020-05-14T12:35:49Z</time>
      </trkpt>
      <trkpt lat="43.61706" lon="7.07175">
        <ele>146.76385498047</ele>
        <time>2020-05-14T12:35:50Z</time>
      </trkpt>
      <trkpt lat="43.61706" lon="7.07175">
        <ele>147.22119140625</ele>
        <time>2020-05-14T12:35:51Z</time>
      </trkpt>
      <trkpt lat="43.61706" lon="7.07175">
        <ele>145.65313720703</ele>
        <time>2020-05-14T12:35:52Z</time>
      </trkpt>
      <trkpt lat="43.61706" lon="7.07175">
        <ele>144.97845458984</ele>
        <time>2020-05-14T12:35:53Z</time>
      </trkpt>
      <trkpt lat="43.61706" lon="7.07175">
        <ele>145.33337402344</ele>
        <time>2020-05-14T12:35:54Z</time>
      </trkpt>
      <trkpt lat="43.61706" lon="7.07175">
        <ele>145.12420654297</ele>
        <time>2020-05-14T12:35:55Z</time>
      </trkpt>
      <trkpt lat="43.61706" lon="7.07175">
        <ele>146.18627929688</ele>
        <time>2020-05-14T12:35:56Z</time>
      </trkpt>
      <trkpt lat="43.61706" lon="7.07175">
        <ele>147.30712890625</ele>
        <time>2020-05-14T12:35:57Z</time>
      </trkpt>
      <trkpt lat="43.61706" lon="7.07175">
        <ele>146.22692871094</ele>
        <time>2020-05-14T12:35:58Z</time>
      </trkpt>
      <trkpt lat="43.61706" lon="7.07175">
        <ele>146.77526855469</ele>
        <time>2020-05-14T12:35:59Z</time>
      </trkpt>
      <trkpt lat="43.61706" lon="7.07175">
        <ele>146.61499023438</ele>
        <time>2020-05-14T12:36:00Z</time>
      </trkpt>
      <trkpt lat="43.61706" lon="7.07175">
        <ele>145.93579101562</ele>
        <time>2020-05-14T12:36:01Z</time>
      </trkpt>
      <trkpt lat="43.61706" lon="7.07175">
        <ele>146.62744140625</ele>
        <time>2020-05-14T12:36:02Z</time>
      </trkpt>
      <trkpt lat="43.61706" lon="7.07175">
        <ele>147.00634765625</ele>
        <time>2020-05-14T12:36:03Z</time>
      </trkpt>
      <trkpt lat="43.61706" lon="7.07175">
        <ele>148.84802246094</ele>
        <time>2020-05-14T12:36:04Z</time>
      </trkpt>
      <trkpt lat="43.61706" lon="7.07175">
        <ele>149.05297851562</ele>
        <time>2020-05-14T12:36:05Z</time>
      </trkpt>
      <trkpt lat="43.61706" lon="7.07175">
        <ele>149.37316894531</ele>
        <time>2020-05-14T12:36:06Z</time>
      </trkpt>
      <trkpt lat="43.61706" lon="7.07175">
        <ele>150.24084472656</ele>
        <time>2020-05-14T12:36:07Z</time>
      </trkpt>
      <trkpt lat="43.61706" lon="7.07175">
        <ele>149.66882324219</ele>
        <time>2020-05-14T12:36:08Z</time>
      </trkpt>
      <trkpt lat="43.61706" lon="7.07175">
        <ele>146.64318847656</ele>
        <time>2020-05-14T12:36:09Z</time>
      </trkpt>
      <trkpt lat="43.61706" lon="7.07175">
        <ele>145.43023681641</ele>
        <time>2020-05-14T12:36:10Z</time>
      </trkpt>
      <trkpt lat="43.61706" lon="7.07174">
        <ele>144.02062988281</ele>
        <time>2020-05-14T12:36:11Z</time>
      </trkpt>
      <trkpt lat="43.61706" lon="7.07173">
        <ele>143.54034423828</ele>
        <time>2020-05-14T12:36:12Z</time>
      </trkpt>
      <trkpt lat="43.61705" lon="7.07172">
        <ele>142.17712402344</ele>
        <time>2020-05-14T12:36:13Z</time>
      </trkpt>
      <trkpt lat="43.61705" lon="7.07172">
        <ele>142.09899902344</ele>
        <time>2020-05-14T12:36:14Z</time>
      </trkpt>
      <trkpt lat="43.61705" lon="7.07173">
        <ele>147.94421386719</ele>
        <time>2020-05-14T12:36:15Z</time>
      </trkpt>
      <trkpt lat="43.61704" lon="7.07173">
        <ele>145.43640136719</ele>
        <time>2020-05-14T12:36:16Z</time>
      </trkpt>
      <trkpt lat="43.61704" lon="7.07172">
        <ele>145.48352050781</ele>
        <time>2020-05-14T12:36:17Z</time>
      </trkpt>
      <trkpt lat="43.61703" lon="7.07171">
        <ele>147.42639160156</ele>
        <time>2020-05-14T12:36:18Z</time>
      </trkpt>
      <trkpt lat="43.61703" lon="7.0717">
        <ele>146.40460205078</ele>
        <time>2020-05-14T12:36:19Z</time>
      </trkpt>
      <trkpt lat="43.61702" lon="7.07167">
        <ele>147.13116455078</ele>
        <time>2020-05-14T12:36:20Z</time>
      </trkpt>
      <trkpt lat="43.61701" lon="7.07164">
        <ele>145.64868164062</ele>
        <time>2020-05-14T12:36:21Z</time>
      </trkpt>
      <trkpt lat="43.61701" lon="7.0716">
        <ele>143.95745849609</ele>
        <time>2020-05-14T12:36:22Z</time>
      </trkpt>
      <trkpt lat="43.61702" lon="7.07155">
        <ele>143.84350585938</ele>
        <time>2020-05-14T12:36:23Z</time>
      </trkpt>
      <trkpt lat="43.61702" lon="7.07151">
        <ele>143.91076660156</ele>
        <time>2020-05-14T12:36:24Z</time>
      </trkpt>
      <trkpt lat="43.61702" lon="7.07146">
        <ele>145.33850097656</ele>
        <time>2020-05-14T12:36:25Z</time>
      </trkpt>
      <trkpt lat="43.61702" lon="7.07141">
        <ele>144.74688720703</ele>
        <time>2020-05-14T12:36:26Z</time>
      </trkpt>
      <trkpt lat="43.61703" lon="7.07136">
        <ele>143.9189453125</ele>
        <time>2020-05-14T12:36:27Z</time>
      </trkpt>
      <trkpt lat="43.61703" lon="7.07131">
        <ele>143</ele>
        <time>2020-05-14T12:36:28Z</time>
      </trkpt>
      <trkpt lat="43.61703" lon="7.07126">
        <ele>142.79711914062</ele>
        <time>2020-05-14T12:36:29Z</time>
      </trkpt>
      <trkpt lat="43.61703" lon="7.07121">
        <ele>143.03784179688</ele>
        <time>2020-05-14T12:36:30Z</time>
      </trkpt>
      <trkpt lat="43.61704" lon="7.07116">
        <ele>143.60754394531</ele>
        <time>2020-05-14T12:36:31Z</time>
      </trkpt>
      <trkpt lat="43.61704" lon="7.0711">
        <ele>148.52685546875</ele>
        <time>2020-05-14T12:36:32Z</time>
      </trkpt>
      <trkpt lat="43.61705" lon="7.07104">
        <ele>146.61779785156</ele>
        <time>2020-05-14T12:36:33Z</time>
      </trkpt>
      <trkpt lat="43.61706" lon="7.07099">
        <ele>145.66845703125</ele>
        <time>2020-05-14T12:36:34Z</time>
      </trkpt>
      <trkpt lat="43.61707" lon="7.07093">
        <ele>144.95202636719</ele>
        <time>2020-05-14T12:36:35Z</time>
      </trkpt>
      <trkpt lat="43.61709" lon="7.07087">
        <ele>146.56616210938</ele>
        <time>2020-05-14T12:36:36Z</time>
      </trkpt>
      <trkpt lat="43.61709" lon="7.07082">
        <ele>144.73773193359</ele>
        <time>2020-05-14T12:36:37Z</time>
      </trkpt>
      <trkpt lat="43.61709" lon="7.07075">
        <ele>144.43176269531</ele>
        <time>2020-05-14T12:36:38Z</time>
      </trkpt>
      <trkpt lat="43.61709" lon="7.07068">
        <ele>143.26000976562</ele>
        <time>2020-05-14T12:36:39Z</time>
      </trkpt>
      <trkpt lat="43.61708" lon="7.07063">
        <ele>143.244140625</ele>
        <time>2020-05-14T12:36:40Z</time>
      </trkpt>
      <trkpt lat="43.61707" lon="7.07057">
        <ele>143.99920654297</ele>
        <time>2020-05-14T12:36:41Z</time>
      </trkpt>
      <trkpt lat="43.61706" lon="7.07052">
        <ele>143.54962158203</ele>
        <time>2020-05-14T12:36:42Z</time>
      </trkpt>
      <trkpt lat="43.61705" lon="7.07046">
        <ele>141.00469970703</ele>
        <time>2020-05-14T12:36:43Z</time>
      </trkpt>
      <trkpt lat="43.61704" lon="7.07039">
        <ele>146.66137695312</ele>
        <time>2020-05-14T12:36:44Z</time>
      </trkpt>
      <trkpt lat="43.61704" lon="7.07032">
        <ele>146.45666503906</ele>
        <time>2020-05-14T12:36:45Z</time>
      </trkpt>
      <trkpt lat="43.61704" lon="7.07025">
        <ele>148.59912109375</ele>
        <time>2020-05-14T12:36:46Z</time>
      </trkpt>
      <trkpt lat="43.61703" lon="7.0702">
        <ele>148.38098144531</ele>
        <time>2020-05-14T12:36:47Z</time>
      </trkpt>
      <trkpt lat="43.61702" lon="7.07014">
        <ele>147.248046875</ele>
        <time>2020-05-14T12:36:48Z</time>
      </trkpt>
      <trkpt lat="43.61701" lon="7.07009">
        <ele>147.38360595703</ele>
        <time>2020-05-14T12:36:49Z</time>
      </trkpt>
      <trkpt lat="43.61699" lon="7.07005">
        <ele>146.95031738281</ele>
        <time>2020-05-14T12:36:50Z</time>
      </trkpt>
      <trkpt lat="43.61698" lon="7.06999">
        <ele>145.76080322266</ele>
        <time>2020-05-14T12:36:51Z</time>
      </trkpt>
      <trkpt lat="43.61697" lon="7.06994">
        <ele>144.72595214844</ele>
        <time>2020-05-14T12:36:52Z</time>
      </trkpt>
      <trkpt lat="43.61697" lon="7.0699">
        <ele>145.57330322266</ele>
        <time>2020-05-14T12:36:53Z</time>
      </trkpt>
      <trkpt lat="43.61695" lon="7.06984">
        <ele>146.00329589844</ele>
        <time>2020-05-14T12:36:54Z</time>
      </trkpt>
      <trkpt lat="43.61695" lon="7.06978">
        <ele>145.80999755859</ele>
        <time>2020-05-14T12:36:55Z</time>
      </trkpt>
      <trkpt lat="43.61693" lon="7.06972">
        <ele>143.22357177734</ele>
        <time>2020-05-14T12:36:56Z</time>
      </trkpt>
      <trkpt lat="43.61692" lon="7.06966">
        <ele>142.44274902344</ele>
        <time>2020-05-14T12:36:57Z</time>
      </trkpt>
      <trkpt lat="43.6169" lon="7.06959">
        <ele>142.54327392578</ele>
        <time>2020-05-14T12:36:58Z</time>
      </trkpt>
      <trkpt lat="43.61689" lon="7.06955">
        <ele>141.46234130859</ele>
        <time>2020-05-14T12:36:59Z</time>
      </trkpt>
      <trkpt lat="43.61687" lon="7.06949">
        <ele>140.26531982422</ele>
        <time>2020-05-14T12:37:00Z</time>
      </trkpt>
      <trkpt lat="43.61684" lon="7.06945">
        <ele>140.08044433594</ele>
        <time>2020-05-14T12:37:01Z</time>
      </trkpt>
      <trkpt lat="43.61681" lon="7.06939">
        <ele>145.32861328125</ele>
        <time>2020-05-14T12:37:02Z</time>
      </trkpt>
      <trkpt lat="43.61678" lon="7.06935">
        <ele>145.36956787109</ele>
        <time>2020-05-14T12:37:03Z</time>
      </trkpt>
      <trkpt lat="43.61676" lon="7.0693">
        <ele>145.32897949219</ele>
        <time>2020-05-14T12:37:04Z</time>
      </trkpt>
      <trkpt lat="43.61673" lon="7.06927">
        <ele>243.13220214844</ele>
        <time>2020-05-14T12:37:05Z</time>
      </trkpt>
      <trkpt lat="43.61669" lon="7.06923">
        <ele>251.48010253906</ele>
        <time>2020-05-14T12:37:06Z</time>
      </trkpt>
      <trkpt lat="43.61664" lon="7.06923">
        <ele>250.41418457031</ele>
        <time>2020-05-14T12:37:07Z</time>
      </trkpt>
      <trkpt lat="43.61659" lon="7.0692">
        <ele>249.39855957031</ele>
        <time>2020-05-14T12:37:08Z</time>
      </trkpt>
      <trkpt lat="43.61655" lon="7.06917">
        <ele>247.33239746094</ele>
        <time>2020-05-14T12:37:09Z</time>
      </trkpt>
      <trkpt lat="43.61651" lon="7.06914">
        <ele>249.66912841797</ele>
        <time>2020-05-14T12:37:10Z</time>
      </trkpt>
      <trkpt lat="43.61647" lon="7.06909">
        <ele>248.67047119141</ele>
        <time>2020-05-14T12:37:11Z</time>
      </trkpt>
      <trkpt lat="43.61643" lon="7.06904">
        <ele>251.52319335938</ele>
        <time>2020-05-14T12:37:12Z</time>
      </trkpt>
      <trkpt lat="43.6164" lon="7.06899">
        <ele>237.68786621094</ele>
        <time>2020-05-14T12:37:13Z</time>
      </trkpt>
      <trkpt lat="43.61637" lon="7.06892">
        <ele>239.35668945312</ele>
        <time>2020-05-14T12:37:14Z</time>
      </trkpt>
      <trkpt lat="43.61635" lon="7.06886">
        <ele>240.06628417969</ele>
        <time>2020-05-14T12:37:15Z</time>
      </trkpt>
      <trkpt lat="43.61634" lon="7.06878">
        <ele>236.30053710938</ele>
        <time>2020-05-14T12:37:16Z</time>
      </trkpt>
      <trkpt lat="43.61632" lon="7.0687">
        <ele>231.88934326172</ele>
        <time>2020-05-14T12:37:17Z</time>
      </trkpt>
      <trkpt lat="43.6163" lon="7.06862">
        <ele>226.58483886719</ele>
        <time>2020-05-14T12:37:18Z</time>
      </trkpt>
      <trkpt lat="43.61628" lon="7.06853">
        <ele>222.16015625</ele>
        <time>2020-05-14T12:37:19Z</time>
      </trkpt>
      <trkpt lat="43.61627" lon="7.06845">
        <ele>220.31420898438</ele>
        <time>2020-05-14T12:37:20Z</time>
      </trkpt>
      <trkpt lat="43.61625" lon="7.06836">
        <ele>228.31176757812</ele>
        <time>2020-05-14T12:37:21Z</time>
      </trkpt>
      <trkpt lat="43.61624" lon="7.06828">
        <ele>230.08477783203</ele>
        <time>2020-05-14T12:37:22Z</time>
      </trkpt>
      <trkpt lat="43.61622" lon="7.06819">
        <ele>230.92987060547</ele>
        <time>2020-05-14T12:37:23Z</time>
      </trkpt>
      <trkpt lat="43.61619" lon="7.06812">
        <ele>229.91741943359</ele>
        <time>2020-05-14T12:37:24Z</time>
      </trkpt>
      <trkpt lat="43.61618" lon="7.06803">
        <ele>241.73681640625</ele>
        <time>2020-05-14T12:37:25Z</time>
      </trkpt>
      <trkpt lat="43.61617" lon="7.06794">
        <ele>241.59680175781</ele>
        <time>2020-05-14T12:37:26Z</time>
      </trkpt>
      <trkpt lat="43.61615" lon="7.06784">
        <ele>242.22961425781</ele>
        <time>2020-05-14T12:37:27Z</time>
      </trkpt>
      <trkpt lat="43.61614" lon="7.06776">
        <ele>139.02844238281</ele>
        <time>2020-05-14T12:37:28Z</time>
      </trkpt>
      <trkpt lat="43.61613" lon="7.06769">
        <ele>139.44323730469</ele>
        <time>2020-05-14T12:37:29Z</time>
      </trkpt>
      <trkpt lat="43.61613" lon="7.0676">
        <ele>146.44323730469</ele>
        <time>2020-05-14T12:37:30Z</time>
      </trkpt>
      <trkpt lat="43.61613" lon="7.06751">
        <ele>143.57977294922</ele>
        <time>2020-05-14T12:37:31Z</time>
      </trkpt>
      <trkpt lat="43.61612" lon="7.06743">
        <ele>144.16668701172</ele>
        <time>2020-05-14T12:37:32Z</time>
      </trkpt>
      <trkpt lat="43.61611" lon="7.06733">
        <ele>145.43334960938</ele>
        <time>2020-05-14T12:37:33Z</time>
      </trkpt>
      <trkpt lat="43.61611" lon="7.06722">
        <ele>145.87701416016</ele>
        <time>2020-05-14T12:37:34Z</time>
      </trkpt>
      <trkpt lat="43.6161" lon="7.06712">
        <ele>145.99285888672</ele>
        <time>2020-05-14T12:37:35Z</time>
      </trkpt>
      <trkpt lat="43.6161" lon="7.06702">
        <ele>145.18896484375</ele>
        <time>2020-05-14T12:37:36Z</time>
      </trkpt>
      <trkpt lat="43.6161" lon="7.06693">
        <ele>143.65924072266</ele>
        <time>2020-05-14T12:37:37Z</time>
      </trkpt>
      <trkpt lat="43.61609" lon="7.06683">
        <ele>144.51104736328</ele>
        <time>2020-05-14T12:37:38Z</time>
      </trkpt>
      <trkpt lat="43.61609" lon="7.06674">
        <ele>143.54876708984</ele>
        <time>2020-05-14T12:37:39Z</time>
      </trkpt>
      <trkpt lat="43.6161" lon="7.06664">
        <ele>142.89282226562</ele>
        <time>2020-05-14T12:37:40Z</time>
      </trkpt>
      <trkpt lat="43.61611" lon="7.06654">
        <ele>143.54364013672</ele>
        <time>2020-05-14T12:37:41Z</time>
      </trkpt>
      <trkpt lat="43.61611" lon="7.06642">
        <ele>142.58654785156</ele>
        <time>2020-05-14T12:37:42Z</time>
      </trkpt>
      <trkpt lat="43.61611" lon="7.06632">
        <ele>142.30181884766</ele>
        <time>2020-05-14T12:37:43Z</time>
      </trkpt>
      <trkpt lat="43.6161" lon="7.06623">
        <ele>142.42822265625</ele>
        <time>2020-05-14T12:37:44Z</time>
      </trkpt>
      <trkpt lat="43.61608" lon="7.06613">
        <ele>142.18298339844</ele>
        <time>2020-05-14T12:37:45Z</time>
      </trkpt>
      <trkpt lat="43.61606" lon="7.06605">
        <ele>142.19226074219</ele>
        <time>2020-05-14T12:37:46Z</time>
      </trkpt>
      <trkpt lat="43.61603" lon="7.06596">
        <ele>141.98297119141</ele>
        <time>2020-05-14T12:37:47Z</time>
      </trkpt>
      <trkpt lat="43.61605" lon="7.06581">
        <ele>138.79064941406</ele>
        <time>2020-05-14T12:37:48Z</time>
      </trkpt>
      <trkpt lat="43.61606" lon="7.06573">
        <ele>137.83233642578</ele>
        <time>2020-05-14T12:37:49Z</time>
      </trkpt>
      <trkpt lat="43.61609" lon="7.06566">
        <ele>137.79138183594</ele>
        <time>2020-05-14T12:37:50Z</time>
      </trkpt>
      <trkpt lat="43.61611" lon="7.06559">
        <ele>139.27526855469</ele>
        <time>2020-05-14T12:37:51Z</time>
      </trkpt>
      <trkpt lat="43.61614" lon="7.06553">
        <ele>140.11676025391</ele>
        <time>2020-05-14T12:37:52Z</time>
      </trkpt>
      <trkpt lat="43.61616" lon="7.06545">
        <ele>139.89868164062</ele>
        <time>2020-05-14T12:37:53Z</time>
      </trkpt>
      <trkpt lat="43.6162" lon="7.06539">
        <ele>138.73248291016</ele>
        <time>2020-05-14T12:37:54Z</time>
      </trkpt>
      <trkpt lat="43.61622" lon="7.06532">
        <ele>140.17291259766</ele>
        <time>2020-05-14T12:37:55Z</time>
      </trkpt>
      <trkpt lat="43.61623" lon="7.06523">
        <ele>141.20111083984</ele>
        <time>2020-05-14T12:37:56Z</time>
      </trkpt>
      <trkpt lat="43.61624" lon="7.06515">
        <ele>141.97900390625</ele>
        <time>2020-05-14T12:37:57Z</time>
      </trkpt>
      <trkpt lat="43.61626" lon="7.06507">
        <ele>142.66119384766</ele>
        <time>2020-05-14T12:37:58Z</time>
      </trkpt>
      <trkpt lat="43.61627" lon="7.06498">
        <ele>141.49877929688</ele>
        <time>2020-05-14T12:37:59Z</time>
      </trkpt>
      <trkpt lat="43.61628" lon="7.06489">
        <ele>140.59515380859</ele>
        <time>2020-05-14T12:38:00Z</time>
      </trkpt>
      <trkpt lat="43.61631" lon="7.06483">
        <ele>139.8837890625</ele>
        <time>2020-05-14T12:38:01Z</time>
      </trkpt>
      <trkpt lat="43.61633" lon="7.06476">
        <ele>139.91943359375</ele>
        <time>2020-05-14T12:38:02Z</time>
      </trkpt>
      <trkpt lat="43.61635" lon="7.06469">
        <ele>139.42510986328</ele>
        <time>2020-05-14T12:38:03Z</time>
      </trkpt>
      <trkpt lat="43.61636" lon="7.06461">
        <ele>137.74200439453</ele>
        <time>2020-05-14T12:38:04Z</time>
      </trkpt>
      <trkpt lat="43.61638" lon="7.06456">
        <ele>135.90472412109</ele>
        <time>2020-05-14T12:38:05Z</time>
      </trkpt>
      <trkpt lat="43.61639" lon="7.06449">
        <ele>135.97937011719</ele>
        <time>2020-05-14T12:38:06Z</time>
      </trkpt>
      <trkpt lat="43.6164" lon="7.06441">
        <ele>140.25756835938</ele>
        <time>2020-05-14T12:38:07Z</time>
      </trkpt>
      <trkpt lat="43.61641" lon="7.06436">
        <ele>143.94891357422</ele>
        <time>2020-05-14T12:38:08Z</time>
      </trkpt>
      <trkpt lat="43.61641" lon="7.06429">
        <ele>149.16693115234</ele>
        <time>2020-05-14T12:38:09Z</time>
      </trkpt>
      <trkpt lat="43.61641" lon="7.06421">
        <ele>151.29949951172</ele>
        <time>2020-05-14T12:38:10Z</time>
      </trkpt>
      <trkpt lat="43.6164" lon="7.06415">
        <ele>153.515625</ele>
        <time>2020-05-14T12:38:11Z</time>
      </trkpt>
      <trkpt lat="43.61641" lon="7.06408">
        <ele>155.05041503906</ele>
        <time>2020-05-14T12:38:12Z</time>
      </trkpt>
      <trkpt lat="43.61641" lon="7.06401">
        <ele>156.43402099609</ele>
        <time>2020-05-14T12:38:13Z</time>
      </trkpt>
      <trkpt lat="43.61642" lon="7.06393">
        <ele>156.21850585938</ele>
        <time>2020-05-14T12:38:14Z</time>
      </trkpt>
      <trkpt lat="43.61643" lon="7.06386">
        <ele>151.89001464844</ele>
        <time>2020-05-14T12:38:15Z</time>
      </trkpt>
      <trkpt lat="43.61644" lon="7.0638">
        <ele>151.66809082031</ele>
        <time>2020-05-14T12:38:16Z</time>
      </trkpt>
      <trkpt lat="43.61644" lon="7.06373">
        <ele>150.92193603516</ele>
        <time>2020-05-14T12:38:17Z</time>
      </trkpt>
      <trkpt lat="43.61645" lon="7.06367">
        <ele>151.20068359375</ele>
        <time>2020-05-14T12:38:18Z</time>
      </trkpt>
      <trkpt lat="43.61646" lon="7.0636">
        <ele>151.31701660156</ele>
        <time>2020-05-14T12:38:19Z</time>
      </trkpt>
      <trkpt lat="43.61649" lon="7.06355">
        <ele>145.70104980469</ele>
        <time>2020-05-14T12:38:20Z</time>
      </trkpt>
      <trkpt lat="43.61651" lon="7.06348">
        <ele>145.07537841797</ele>
        <time>2020-05-14T12:38:21Z</time>
      </trkpt>
      <trkpt lat="43.61653" lon="7.06343">
        <ele>142.53631591797</ele>
        <time>2020-05-14T12:38:22Z</time>
      </trkpt>
      <trkpt lat="43.61656" lon="7.06335">
        <ele>140.93530273438</ele>
        <time>2020-05-14T12:38:23Z</time>
      </trkpt>
      <trkpt lat="43.61657" lon="7.06329">
        <ele>138.69445800781</ele>
        <time>2020-05-14T12:38:24Z</time>
      </trkpt>
      <trkpt lat="43.61658" lon="7.06322">
        <ele>139.35302734375</ele>
        <time>2020-05-14T12:38:25Z</time>
      </trkpt>
      <trkpt lat="43.61659" lon="7.06317">
        <ele>144.18951416016</ele>
        <time>2020-05-14T12:38:26Z</time>
      </trkpt>
      <trkpt lat="43.6166" lon="7.06311">
        <ele>142.17016601562</ele>
        <time>2020-05-14T12:38:27Z</time>
      </trkpt>
      <trkpt lat="43.61661" lon="7.06305">
        <ele>147.69226074219</ele>
        <time>2020-05-14T12:38:28Z</time>
      </trkpt>
      <trkpt lat="43.61662" lon="7.063">
        <ele>147.61547851562</ele>
        <time>2020-05-14T12:38:29Z</time>
      </trkpt>
      <trkpt lat="43.61663" lon="7.06294">
        <ele>143.96240234375</ele>
        <time>2020-05-14T12:38:30Z</time>
      </trkpt>
      <trkpt lat="43.61665" lon="7.06288">
        <ele>144.10070800781</ele>
        <time>2020-05-14T12:38:31Z</time>
      </trkpt>
      <trkpt lat="43.61666" lon="7.06283">
        <ele>144.69384765625</ele>
        <time>2020-05-14T12:38:32Z</time>
      </trkpt>
      <trkpt lat="43.61667" lon="7.06276">
        <ele>143.74670410156</ele>
        <time>2020-05-14T12:38:33Z</time>
      </trkpt>
      <trkpt lat="43.61668" lon="7.06269">
        <ele>143.81274414062</ele>
        <time>2020-05-14T12:38:34Z</time>
      </trkpt>
      <trkpt lat="43.61669" lon="7.06262">
        <ele>144.86578369141</ele>
        <time>2020-05-14T12:38:35Z</time>
      </trkpt>
      <trkpt lat="43.61669" lon="7.06256">
        <ele>145.02886962891</ele>
        <time>2020-05-14T12:38:36Z</time>
      </trkpt>
      <trkpt lat="43.6167" lon="7.06249">
        <ele>145.29254150391</ele>
        <time>2020-05-14T12:38:37Z</time>
      </trkpt>
      <trkpt lat="43.61671" lon="7.06243">
        <ele>145.65594482422</ele>
        <time>2020-05-14T12:38:38Z</time>
      </trkpt>
      <trkpt lat="43.61673" lon="7.06238">
        <ele>144.8876953125</ele>
        <time>2020-05-14T12:38:39Z</time>
      </trkpt>
      <trkpt lat="43.61675" lon="7.0623">
        <ele>143.46801757812</ele>
        <time>2020-05-14T12:38:40Z</time>
      </trkpt>
      <trkpt lat="43.61676" lon="7.06224">
        <ele>143.13116455078</ele>
        <time>2020-05-14T12:38:41Z</time>
      </trkpt>
      <trkpt lat="43.61677" lon="7.06219">
        <ele>149.57794189453</ele>
        <time>2020-05-14T12:38:42Z</time>
      </trkpt>
      <trkpt lat="43.61678" lon="7.06212">
        <ele>149.43939208984</ele>
        <time>2020-05-14T12:38:43Z</time>
      </trkpt>
      <trkpt lat="43.61679" lon="7.06205">
        <ele>150.29998779297</ele>
        <time>2020-05-14T12:38:44Z</time>
      </trkpt>
      <trkpt lat="43.61679" lon="7.06199">
        <ele>151.05999755859</ele>
        <time>2020-05-14T12:38:45Z</time>
      </trkpt>
      <trkpt lat="43.6168" lon="7.06192">
        <ele>152.43127441406</ele>
        <time>2020-05-14T12:38:46Z</time>
      </trkpt>
      <trkpt lat="43.6168" lon="7.06186">
        <ele>153.80346679688</ele>
        <time>2020-05-14T12:38:47Z</time>
      </trkpt>
      <trkpt lat="43.6168" lon="7.0618">
        <ele>154.20935058594</ele>
        <time>2020-05-14T12:38:48Z</time>
      </trkpt>
      <trkpt lat="43.6168" lon="7.06172">
        <ele>151.25012207031</ele>
        <time>2020-05-14T12:38:49Z</time>
      </trkpt>
      <trkpt lat="43.6168" lon="7.06166">
        <ele>150.07104492188</ele>
        <time>2020-05-14T12:38:50Z</time>
      </trkpt>
      <trkpt lat="43.61681" lon="7.06159">
        <ele>150.95422363281</ele>
        <time>2020-05-14T12:38:51Z</time>
      </trkpt>
      <trkpt lat="43.61681" lon="7.06153">
        <ele>150.5595703125</ele>
        <time>2020-05-14T12:38:52Z</time>
      </trkpt>
      <trkpt lat="43.61682" lon="7.06147">
        <ele>151.44580078125</ele>
        <time>2020-05-14T12:38:53Z</time>
      </trkpt>
      <trkpt lat="43.61683" lon="7.06141">
        <ele>150.58630371094</ele>
        <time>2020-05-14T12:38:54Z</time>
      </trkpt>
      <trkpt lat="43.61684" lon="7.06134">
        <ele>151.53668212891</ele>
        <time>2020-05-14T12:38:55Z</time>
      </trkpt>
      <trkpt lat="43.61686" lon="7.06127">
        <ele>152.1904296875</ele>
        <time>2020-05-14T12:38:56Z</time>
      </trkpt>
      <trkpt lat="43.61687" lon="7.0612">
        <ele>155.85290527344</ele>
        <time>2020-05-14T12:38:57Z</time>
      </trkpt>
      <trkpt lat="43.61687" lon="7.06115">
        <ele>153.28466796875</ele>
        <time>2020-05-14T12:38:58Z</time>
      </trkpt>
      <trkpt lat="43.61688" lon="7.06109">
        <ele>152.61877441406</ele>
        <time>2020-05-14T12:38:59Z</time>
      </trkpt>
      <trkpt lat="43.61689" lon="7.06102">
        <ele>151.56170654297</ele>
        <time>2020-05-14T12:39:00Z</time>
      </trkpt>
      <trkpt lat="43.61691" lon="7.06095">
        <ele>153.23864746094</ele>
        <time>2020-05-14T12:39:01Z</time>
      </trkpt>
      <trkpt lat="43.61691" lon="7.06088">
        <ele>149.20587158203</ele>
        <time>2020-05-14T12:39:02Z</time>
      </trkpt>
      <trkpt lat="43.61692" lon="7.06082">
        <ele>155.45812988281</ele>
        <time>2020-05-14T12:39:03Z</time>
      </trkpt>
      <trkpt lat="43.61693" lon="7.06076">
        <ele>157.63061523438</ele>
        <time>2020-05-14T12:39:04Z</time>
      </trkpt>
      <trkpt lat="43.61694" lon="7.0607">
        <ele>159.34875488281</ele>
        <time>2020-05-14T12:39:05Z</time>
      </trkpt>
      <trkpt lat="43.61695" lon="7.06063">
        <ele>158.4970703125</ele>
        <time>2020-05-14T12:39:06Z</time>
      </trkpt>
      <trkpt lat="43.61696" lon="7.06057">
        <ele>231.65087890625</ele>
        <time>2020-05-14T12:39:07Z</time>
      </trkpt>
      <trkpt lat="43.61697" lon="7.06049">
        <ele>221.73815917969</ele>
        <time>2020-05-14T12:39:08Z</time>
      </trkpt>
      <trkpt lat="43.61699" lon="7.06044">
        <ele>225.55517578125</ele>
        <time>2020-05-14T12:39:09Z</time>
      </trkpt>
      <trkpt lat="43.617" lon="7.06039">
        <ele>228.60424804688</ele>
        <time>2020-05-14T12:39:10Z</time>
      </trkpt>
      <trkpt lat="43.61702" lon="7.06032">
        <ele>228.97766113281</ele>
        <time>2020-05-14T12:39:11Z</time>
      </trkpt>
      <trkpt lat="43.61702" lon="7.06025">
        <ele>231.83776855469</ele>
        <time>2020-05-14T12:39:12Z</time>
      </trkpt>
      <trkpt lat="43.61702" lon="7.06018">
        <ele>232.10681152344</ele>
        <time>2020-05-14T12:39:13Z</time>
      </trkpt>
      <trkpt lat="43.61703" lon="7.06013">
        <ele>232.26123046875</ele>
        <time>2020-05-14T12:39:14Z</time>
      </trkpt>
      <trkpt lat="43.61704" lon="7.06006">
        <ele>235.55078125</ele>
        <time>2020-05-14T12:39:15Z</time>
      </trkpt>
      <trkpt lat="43.61705" lon="7.05999">
        <ele>236.47918701172</ele>
        <time>2020-05-14T12:39:16Z</time>
      </trkpt>
      <trkpt lat="43.61706" lon="7.05993">
        <ele>238.03436279297</ele>
        <time>2020-05-14T12:39:17Z</time>
      </trkpt>
      <trkpt lat="43.61706" lon="7.05986">
        <ele>236.52490234375</ele>
        <time>2020-05-14T12:39:18Z</time>
      </trkpt>
      <trkpt lat="43.61707" lon="7.05982">
        <ele>233.35375976562</ele>
        <time>2020-05-14T12:39:19Z</time>
      </trkpt>
      <trkpt lat="43.61707" lon="7.05977">
        <ele>229.19836425781</ele>
        <time>2020-05-14T12:39:20Z</time>
      </trkpt>
      <trkpt lat="43.61709" lon="7.05974">
        <ele>230.26086425781</ele>
        <time>2020-05-14T12:39:21Z</time>
      </trkpt>
      <trkpt lat="43.61713" lon="7.05974">
        <ele>231.89013671875</ele>
        <time>2020-05-14T12:39:22Z</time>
      </trkpt>
      <trkpt lat="43.61717" lon="7.05975">
        <ele>230.52600097656</ele>
        <time>2020-05-14T12:39:23Z</time>
      </trkpt>
      <trkpt lat="43.61722" lon="7.05975">
        <ele>229.14221191406</ele>
        <time>2020-05-14T12:39:24Z</time>
      </trkpt>
      <trkpt lat="43.61726" lon="7.05974">
        <ele>227.51831054688</ele>
        <time>2020-05-14T12:39:25Z</time>
      </trkpt>
      <trkpt lat="43.6173" lon="7.05971">
        <ele>223.08740234375</ele>
        <time>2020-05-14T12:39:26Z</time>
      </trkpt>
      <trkpt lat="43.61733" lon="7.05967">
        <ele>222.064453125</ele>
        <time>2020-05-14T12:39:27Z</time>
      </trkpt>
      <trkpt lat="43.61736" lon="7.05965">
        <ele>226.56506347656</ele>
        <time>2020-05-14T12:39:28Z</time>
      </trkpt>
      <trkpt lat="43.61739" lon="7.05961">
        <ele>229.06286621094</ele>
        <time>2020-05-14T12:39:29Z</time>
      </trkpt>
      <trkpt lat="43.61742" lon="7.05958">
        <ele>227.31561279297</ele>
        <time>2020-05-14T12:39:30Z</time>
      </trkpt>
      <trkpt lat="43.61746" lon="7.05954">
        <ele>227.88031005859</ele>
        <time>2020-05-14T12:39:31Z</time>
      </trkpt>
      <trkpt lat="43.61749" lon="7.05951">
        <ele>231.39721679688</ele>
        <time>2020-05-14T12:39:32Z</time>
      </trkpt>
      <trkpt lat="43.61751" lon="7.05947">
        <ele>230.85516357422</ele>
        <time>2020-05-14T12:39:33Z</time>
      </trkpt>
      <trkpt lat="43.61754" lon="7.05942">
        <ele>228.78448486328</ele>
        <time>2020-05-14T12:39:34Z</time>
      </trkpt>
      <trkpt lat="43.61756" lon="7.05937">
        <ele>230.73590087891</ele>
        <time>2020-05-14T12:39:35Z</time>
      </trkpt>
      <trkpt lat="43.61757" lon="7.05931">
        <ele>228.71325683594</ele>
        <time>2020-05-14T12:39:36Z</time>
      </trkpt>
      <trkpt lat="43.61758" lon="7.05924">
        <ele>237.51885986328</ele>
        <time>2020-05-14T12:39:37Z</time>
      </trkpt>
      <trkpt lat="43.6176" lon="7.05919">
        <ele>239.30163574219</ele>
        <time>2020-05-14T12:39:38Z</time>
      </trkpt>
      <trkpt lat="43.61761" lon="7.05913">
        <ele>242.09197998047</ele>
        <time>2020-05-14T12:39:39Z</time>
      </trkpt>
      <trkpt lat="43.61763" lon="7.05908">
        <ele>228.11376953125</ele>
        <time>2020-05-14T12:39:40Z</time>
      </trkpt>
      <trkpt lat="43.61766" lon="7.059">
        <ele>230.38037109375</ele>
        <time>2020-05-14T12:39:41Z</time>
      </trkpt>
      <trkpt lat="43.61768" lon="7.05894">
        <ele>216.15783691406</ele>
        <time>2020-05-14T12:39:42Z</time>
      </trkpt>
      <trkpt lat="43.61769" lon="7.05888">
        <ele>224.56164550781</ele>
        <time>2020-05-14T12:39:43Z</time>
      </trkpt>
      <trkpt lat="43.61771" lon="7.0588">
        <ele>230.14697265625</ele>
        <time>2020-05-14T12:39:44Z</time>
      </trkpt>
      <trkpt lat="43.61774" lon="7.05874">
        <ele>227.72204589844</ele>
        <time>2020-05-14T12:39:45Z</time>
      </trkpt>
      <trkpt lat="43.61775" lon="7.05869">
        <ele>228.73944091797</ele>
        <time>2020-05-14T12:39:46Z</time>
      </trkpt>
      <trkpt lat="43.61777" lon="7.05859">
        <ele>229.27471923828</ele>
        <time>2020-05-14T12:39:47Z</time>
      </trkpt>
      <trkpt lat="43.61781" lon="7.05853">
        <ele>229.56579589844</ele>
        <time>2020-05-14T12:39:48Z</time>
      </trkpt>
      <trkpt lat="43.61783" lon="7.05847">
        <ele>229.04510498047</ele>
        <time>2020-05-14T12:39:49Z</time>
      </trkpt>
      <trkpt lat="43.61784" lon="7.05842">
        <ele>230.90936279297</ele>
        <time>2020-05-14T12:39:50Z</time>
      </trkpt>
      <trkpt lat="43.61787" lon="7.05835">
        <ele>230.82952880859</ele>
        <time>2020-05-14T12:39:51Z</time>
      </trkpt>
      <trkpt lat="43.6179" lon="7.05831">
        <ele>231.05590820312</ele>
        <time>2020-05-14T12:39:52Z</time>
      </trkpt>
      <trkpt lat="43.61794" lon="7.05826">
        <ele>229.92803955078</ele>
        <time>2020-05-14T12:39:53Z</time>
      </trkpt>
      <trkpt lat="43.618" lon="7.05822">
        <ele>230.28967285156</ele>
        <time>2020-05-14T12:39:54Z</time>
      </trkpt>
      <trkpt lat="43.61803" lon="7.05817">
        <ele>229.16345214844</ele>
        <time>2020-05-14T12:39:55Z</time>
      </trkpt>
      <trkpt lat="43.61808" lon="7.05812">
        <ele>227.84643554688</ele>
        <time>2020-05-14T12:39:56Z</time>
      </trkpt>
      <trkpt lat="43.61812" lon="7.05807">
        <ele>226.90124511719</ele>
        <time>2020-05-14T12:39:57Z</time>
      </trkpt>
      <trkpt lat="43.61817" lon="7.05802">
        <ele>224.69573974609</ele>
        <time>2020-05-14T12:39:58Z</time>
      </trkpt>
      <trkpt lat="43.61821" lon="7.05799">
        <ele>225.24517822266</ele>
        <time>2020-05-14T12:39:59Z</time>
      </trkpt>
      <trkpt lat="43.61826" lon="7.05794">
        <ele>224.24664306641</ele>
        <time>2020-05-14T12:40:00Z</time>
      </trkpt>
      <trkpt lat="43.61831" lon="7.0579">
        <ele>221.32385253906</ele>
        <time>2020-05-14T12:40:01Z</time>
      </trkpt>
      <trkpt lat="43.61835" lon="7.05786">
        <ele>225.26013183594</ele>
        <time>2020-05-14T12:40:02Z</time>
      </trkpt>
      <trkpt lat="43.6184" lon="7.05783">
        <ele>223.81042480469</ele>
        <time>2020-05-14T12:40:03Z</time>
      </trkpt>
      <trkpt lat="43.61845" lon="7.05778">
        <ele>153.37524414062</ele>
        <time>2020-05-14T12:40:04Z</time>
      </trkpt>
      <trkpt lat="43.6185" lon="7.05772">
        <ele>155.73431396484</ele>
        <time>2020-05-14T12:40:05Z</time>
      </trkpt>
      <trkpt lat="43.61854" lon="7.05765">
        <ele>154.83343505859</ele>
        <time>2020-05-14T12:40:06Z</time>
      </trkpt>
      <trkpt lat="43.61859" lon="7.05758">
        <ele>155.5517578125</ele>
        <time>2020-05-14T12:40:07Z</time>
      </trkpt>
      <trkpt lat="43.61864" lon="7.05752">
        <ele>155.884765625</ele>
        <time>2020-05-14T12:40:08Z</time>
      </trkpt>
      <trkpt lat="43.61867" lon="7.05743">
        <ele>155.11560058594</ele>
        <time>2020-05-14T12:40:09Z</time>
      </trkpt>
      <trkpt lat="43.6187" lon="7.05735">
        <ele>154.99237060547</ele>
        <time>2020-05-14T12:40:10Z</time>
      </trkpt>
      <trkpt lat="43.61873" lon="7.05725">
        <ele>155.31457519531</ele>
        <time>2020-05-14T12:40:11Z</time>
      </trkpt>
      <trkpt lat="43.61874" lon="7.05715">
        <ele>155.22003173828</ele>
        <time>2020-05-14T12:40:12Z</time>
      </trkpt>
      <trkpt lat="43.61876" lon="7.05706">
        <ele>155.66809082031</ele>
        <time>2020-05-14T12:40:13Z</time>
      </trkpt>
      <trkpt lat="43.61879" lon="7.05696">
        <ele>155.32708740234</ele>
        <time>2020-05-14T12:40:14Z</time>
      </trkpt>
      <trkpt lat="43.61883" lon="7.05687">
        <ele>155.41778564453</ele>
        <time>2020-05-14T12:40:15Z</time>
      </trkpt>
      <trkpt lat="43.61888" lon="7.0568">
        <ele>152.04144287109</ele>
        <time>2020-05-14T12:40:16Z</time>
      </trkpt>
      <trkpt lat="43.61892" lon="7.05672">
        <ele>150.83648681641</ele>
        <time>2020-05-14T12:40:17Z</time>
      </trkpt>
      <trkpt lat="43.61897" lon="7.05663">
        <ele>151.91278076172</ele>
        <time>2020-05-14T12:40:18Z</time>
      </trkpt>
      <trkpt lat="43.61902" lon="7.05655">
        <ele>157.95941162109</ele>
        <time>2020-05-14T12:40:19Z</time>
      </trkpt>
      <trkpt lat="43.61907" lon="7.05646">
        <ele>154.3876953125</ele>
        <time>2020-05-14T12:40:20Z</time>
      </trkpt>
      <trkpt lat="43.61913" lon="7.05638">
        <ele>153.00524902344</ele>
        <time>2020-05-14T12:40:21Z</time>
      </trkpt>
      <trkpt lat="43.61917" lon="7.05632">
        <ele>151.83319091797</ele>
        <time>2020-05-14T12:40:22Z</time>
      </trkpt>
      <trkpt lat="43.61922" lon="7.05624">
        <ele>153.30603027344</ele>
        <time>2020-05-14T12:40:23Z</time>
      </trkpt>
      <trkpt lat="43.61926" lon="7.05615">
        <ele>154.63757324219</ele>
        <time>2020-05-14T12:40:24Z</time>
      </trkpt>
      <trkpt lat="43.61932" lon="7.05607">
        <ele>153.56567382812</ele>
        <time>2020-05-14T12:40:25Z</time>
      </trkpt>
      <trkpt lat="43.61937" lon="7.05597">
        <ele>155.35815429688</ele>
        <time>2020-05-14T12:40:26Z</time>
      </trkpt>
      <trkpt lat="43.61943" lon="7.05589">
        <ele>164.85052490234</ele>
        <time>2020-05-14T12:40:27Z</time>
      </trkpt>
      <trkpt lat="43.61948" lon="7.0558">
        <ele>162.48034667969</ele>
        <time>2020-05-14T12:40:28Z</time>
      </trkpt>
      <trkpt lat="43.61954" lon="7.05574">
        <ele>163.34594726562</ele>
        <time>2020-05-14T12:40:29Z</time>
      </trkpt>
      <trkpt lat="43.61962" lon="7.05567">
        <ele>170.19946289062</ele>
        <time>2020-05-14T12:40:30Z</time>
      </trkpt>
      <trkpt lat="43.61969" lon="7.05561">
        <ele>170.95941162109</ele>
        <time>2020-05-14T12:40:31Z</time>
      </trkpt>
      <trkpt lat="43.61977" lon="7.05558">
        <ele>172.85321044922</ele>
        <time>2020-05-14T12:40:32Z</time>
      </trkpt>
      <trkpt lat="43.61985" lon="7.05556">
        <ele>172.25744628906</ele>
        <time>2020-05-14T12:40:33Z</time>
      </trkpt>
      <trkpt lat="43.61991" lon="7.05556">
        <ele>172.47772216797</ele>
        <time>2020-05-14T12:40:34Z</time>
      </trkpt>
      <trkpt lat="43.61999" lon="7.05557">
        <ele>171.91943359375</ele>
        <time>2020-05-14T12:40:35Z</time>
      </trkpt>
      <trkpt lat="43.62006" lon="7.0556">
        <ele>171.85595703125</ele>
        <time>2020-05-14T12:40:36Z</time>
      </trkpt>
      <trkpt lat="43.62011" lon="7.05562">
        <ele>171.23419189453</ele>
        <time>2020-05-14T12:40:37Z</time>
      </trkpt>
      <trkpt lat="43.62017" lon="7.05562">
        <ele>169.80126953125</ele>
        <time>2020-05-14T12:40:38Z</time>
      </trkpt>
      <trkpt lat="43.62023" lon="7.05563">
        <ele>168.98425292969</ele>
        <time>2020-05-14T12:40:39Z</time>
      </trkpt>
      <trkpt lat="43.62026" lon="7.05564">
        <ele>168.74200439453</ele>
        <time>2020-05-14T12:40:40Z</time>
      </trkpt>
      <trkpt lat="43.62031" lon="7.05564">
        <ele>168.28015136719</ele>
        <time>2020-05-14T12:40:41Z</time>
      </trkpt>
      <trkpt lat="43.62036" lon="7.05564">
        <ele>168.5634765625</ele>
        <time>2020-05-14T12:40:42Z</time>
      </trkpt>
      <trkpt lat="43.62039" lon="7.05564">
        <ele>142.84564208984</ele>
        <time>2020-05-14T12:40:43Z</time>
      </trkpt>
      <trkpt lat="43.62043" lon="7.05565">
        <ele>146.80126953125</ele>
        <time>2020-05-14T12:40:44Z</time>
      </trkpt>
      <trkpt lat="43.62045" lon="7.05565">
        <ele>145.6396484375</ele>
        <time>2020-05-14T12:40:45Z</time>
      </trkpt>
      <trkpt lat="43.62048" lon="7.05563">
        <ele>146.96911621094</ele>
        <time>2020-05-14T12:40:46Z</time>
      </trkpt>
      <trkpt lat="43.62049" lon="7.0556">
        <ele>147.20098876953</ele>
        <time>2020-05-14T12:40:47Z</time>
      </trkpt>
      <trkpt lat="43.62048" lon="7.05555">
        <ele>147.01177978516</ele>
        <time>2020-05-14T12:40:48Z</time>
      </trkpt>
      <trkpt lat="43.62049" lon="7.05549">
        <ele>146.41546630859</ele>
        <time>2020-05-14T12:40:49Z</time>
      </trkpt>
      <trkpt lat="43.62047" lon="7.05542">
        <ele>146.3447265625</ele>
        <time>2020-05-14T12:40:50Z</time>
      </trkpt>
      <trkpt lat="43.62047" lon="7.05535">
        <ele>145.08093261719</ele>
        <time>2020-05-14T12:40:51Z</time>
      </trkpt>
      <trkpt lat="43.62046" lon="7.05529">
        <ele>144.02758789062</ele>
        <time>2020-05-14T12:40:52Z</time>
      </trkpt>
      <trkpt lat="43.62046" lon="7.05525">
        <ele>142.36010742188</ele>
        <time>2020-05-14T12:40:53Z</time>
      </trkpt>
      <trkpt lat="43.62047" lon="7.05517">
        <ele>141.20733642578</ele>
        <time>2020-05-14T12:40:54Z</time>
      </trkpt>
      <trkpt lat="43.62047" lon="7.05511">
        <ele>140.51574707031</ele>
        <time>2020-05-14T12:40:55Z</time>
      </trkpt>
      <trkpt lat="43.62047" lon="7.05504">
        <ele>139.83941650391</ele>
        <time>2020-05-14T12:40:56Z</time>
      </trkpt>
      <trkpt lat="43.62048" lon="7.05496">
        <ele>139.33422851562</ele>
        <time>2020-05-14T12:40:57Z</time>
      </trkpt>
      <trkpt lat="43.62048" lon="7.05489">
        <ele>141.31872558594</ele>
        <time>2020-05-14T12:40:58Z</time>
      </trkpt>
      <trkpt lat="43.62049" lon="7.05482">
        <ele>142.10528564453</ele>
        <time>2020-05-14T12:40:59Z</time>
      </trkpt>
      <trkpt lat="43.62048" lon="7.05475">
        <ele>141.95812988281</ele>
        <time>2020-05-14T12:41:00Z</time>
      </trkpt>
      <trkpt lat="43.62049" lon="7.05469">
        <ele>142.95721435547</ele>
        <time>2020-05-14T12:41:01Z</time>
      </trkpt>
      <trkpt lat="43.62048" lon="7.05463">
        <ele>143.69537353516</ele>
        <time>2020-05-14T12:41:02Z</time>
      </trkpt>
      <trkpt lat="43.62048" lon="7.05458">
        <ele>144.17810058594</ele>
        <time>2020-05-14T12:41:03Z</time>
      </trkpt>
      <trkpt lat="43.62048" lon="7.05453">
        <ele>144.76538085938</ele>
        <time>2020-05-14T12:41:04Z</time>
      </trkpt>
      <trkpt lat="43.62047" lon="7.05448">
        <ele>145.07849121094</ele>
        <time>2020-05-14T12:41:05Z</time>
      </trkpt>
      <trkpt lat="43.62047" lon="7.05442">
        <ele>144.46014404297</ele>
        <time>2020-05-14T12:41:06Z</time>
      </trkpt>
      <trkpt lat="43.62046" lon="7.05436">
        <ele>145.98571777344</ele>
        <time>2020-05-14T12:41:07Z</time>
      </trkpt>
      <trkpt lat="43.62045" lon="7.0543">
        <ele>144.99932861328</ele>
        <time>2020-05-14T12:41:08Z</time>
      </trkpt>
      <trkpt lat="43.62044" lon="7.05425">
        <ele>144.65899658203</ele>
        <time>2020-05-14T12:41:09Z</time>
      </trkpt>
      <trkpt lat="43.62042" lon="7.05421">
        <ele>143.32934570312</ele>
        <time>2020-05-14T12:41:10Z</time>
      </trkpt>
      <trkpt lat="43.62042" lon="7.05414">
        <ele>141.0791015625</ele>
        <time>2020-05-14T12:41:11Z</time>
      </trkpt>
      <trkpt lat="43.6204" lon="7.05409">
        <ele>141.35510253906</ele>
        <time>2020-05-14T12:41:12Z</time>
      </trkpt>
      <trkpt lat="43.62039" lon="7.05404">
        <ele>146.25787353516</ele>
        <time>2020-05-14T12:41:13Z</time>
      </trkpt>
      <trkpt lat="43.62037" lon="7.05399">
        <ele>144.61633300781</ele>
        <time>2020-05-14T12:41:14Z</time>
      </trkpt>
      <trkpt lat="43.62036" lon="7.05394">
        <ele>144.48095703125</ele>
        <time>2020-05-14T12:41:15Z</time>
      </trkpt>
      <trkpt lat="43.62036" lon="7.05389">
        <ele>144.46789550781</ele>
        <time>2020-05-14T12:41:16Z</time>
      </trkpt>
      <trkpt lat="43.62035" lon="7.05385">
        <ele>144.96185302734</ele>
        <time>2020-05-14T12:41:17Z</time>
      </trkpt>
      <trkpt lat="43.62034" lon="7.05379">
        <ele>145.10211181641</ele>
        <time>2020-05-14T12:41:18Z</time>
      </trkpt>
      <trkpt lat="43.62033" lon="7.05373">
        <ele>146.20471191406</ele>
        <time>2020-05-14T12:41:19Z</time>
      </trkpt>
      <trkpt lat="43.62032" lon="7.05367">
        <ele>146.29650878906</ele>
        <time>2020-05-14T12:41:20Z</time>
      </trkpt>
      <trkpt lat="43.62032" lon="7.05361">
        <ele>143.60656738281</ele>
        <time>2020-05-14T12:41:21Z</time>
      </trkpt>
      <trkpt lat="43.62032" lon="7.05356">
        <ele>143.56182861328</ele>
        <time>2020-05-14T12:41:22Z</time>
      </trkpt>
      <trkpt lat="43.62031" lon="7.0535">
        <ele>141.90942382812</ele>
        <time>2020-05-14T12:41:23Z</time>
      </trkpt>
      <trkpt lat="43.6203" lon="7.05344">
        <ele>140.31500244141</ele>
        <time>2020-05-14T12:41:24Z</time>
      </trkpt>
      <trkpt lat="43.6203" lon="7.05338">
        <ele>139.16540527344</ele>
        <time>2020-05-14T12:41:25Z</time>
      </trkpt>
      <trkpt lat="43.6203" lon="7.05331">
        <ele>138.20654296875</ele>
        <time>2020-05-14T12:41:26Z</time>
      </trkpt>
      <trkpt lat="43.62029" lon="7.05325">
        <ele>140.25604248047</ele>
        <time>2020-05-14T12:41:27Z</time>
      </trkpt>
      <trkpt lat="43.62028" lon="7.05319">
        <ele>139.00354003906</ele>
        <time>2020-05-14T12:41:28Z</time>
      </trkpt>
      <trkpt lat="43.62028" lon="7.05314">
        <ele>138.68627929688</ele>
        <time>2020-05-14T12:41:29Z</time>
      </trkpt>
      <trkpt lat="43.62027" lon="7.05308">
        <ele>139.01293945312</ele>
        <time>2020-05-14T12:41:30Z</time>
      </trkpt>
      <trkpt lat="43.62026" lon="7.05303">
        <ele>138.79205322266</ele>
        <time>2020-05-14T12:41:31Z</time>
      </trkpt>
      <trkpt lat="43.62024" lon="7.05297">
        <ele>138.37109375</ele>
        <time>2020-05-14T12:41:32Z</time>
      </trkpt>
      <trkpt lat="43.62022" lon="7.05291">
        <ele>138.66638183594</ele>
        <time>2020-05-14T12:41:33Z</time>
      </trkpt>
      <trkpt lat="43.62022" lon="7.05286">
        <ele>138.54992675781</ele>
        <time>2020-05-14T12:41:34Z</time>
      </trkpt>
      <trkpt lat="43.62021" lon="7.05281">
        <ele>139.33538818359</ele>
        <time>2020-05-14T12:41:35Z</time>
      </trkpt>
      <trkpt lat="43.62021" lon="7.05274">
        <ele>138.46423339844</ele>
        <time>2020-05-14T12:41:36Z</time>
      </trkpt>
      <trkpt lat="43.6202" lon="7.05268">
        <ele>138.73742675781</ele>
        <time>2020-05-14T12:41:37Z</time>
      </trkpt>
      <trkpt lat="43.62017" lon="7.05262">
        <ele>138.85229492188</ele>
        <time>2020-05-14T12:41:38Z</time>
      </trkpt>
      <trkpt lat="43.62017" lon="7.05257">
        <ele>139.26062011719</ele>
        <time>2020-05-14T12:41:39Z</time>
      </trkpt>
      <trkpt lat="43.62016" lon="7.05251">
        <ele>139.60034179688</ele>
        <time>2020-05-14T12:41:40Z</time>
      </trkpt>
      <trkpt lat="43.62016" lon="7.05246">
        <ele>140.16998291016</ele>
        <time>2020-05-14T12:41:41Z</time>
      </trkpt>
      <trkpt lat="43.62015" lon="7.0524">
        <ele>140.22985839844</ele>
        <time>2020-05-14T12:41:42Z</time>
      </trkpt>
      <trkpt lat="43.62013" lon="7.05237">
        <ele>139.54791259766</ele>
        <time>2020-05-14T12:41:43Z</time>
      </trkpt>
      <trkpt lat="43.62013" lon="7.05234">
        <ele>138.13671875</ele>
        <time>2020-05-14T12:41:44Z</time>
      </trkpt>
      <trkpt lat="43.62014" lon="7.05229">
        <ele>138.220703125</ele>
        <time>2020-05-14T12:41:45Z</time>
      </trkpt>
      <trkpt lat="43.62014" lon="7.05223">
        <ele>137.79309082031</ele>
        <time>2020-05-14T12:41:46Z</time>
      </trkpt>
      <trkpt lat="43.62015" lon="7.05219">
        <ele>136.97021484375</ele>
        <time>2020-05-14T12:41:47Z</time>
      </trkpt>
      <trkpt lat="43.62015" lon="7.05214">
        <ele>137.01885986328</ele>
        <time>2020-05-14T12:41:48Z</time>
      </trkpt>
      <trkpt lat="43.62015" lon="7.0521">
        <ele>136.87335205078</ele>
        <time>2020-05-14T12:41:49Z</time>
      </trkpt>
      <trkpt lat="43.62016" lon="7.05205">
        <ele>136.921875</ele>
        <time>2020-05-14T12:41:50Z</time>
      </trkpt>
      <trkpt lat="43.62017" lon="7.052">
        <ele>137.62084960938</ele>
        <time>2020-05-14T12:41:51Z</time>
      </trkpt>
      <trkpt lat="43.62018" lon="7.05195">
        <ele>138.29827880859</ele>
        <time>2020-05-14T12:41:52Z</time>
      </trkpt>
      <trkpt lat="43.62019" lon="7.0519">
        <ele>138.52478027344</ele>
        <time>2020-05-14T12:41:53Z</time>
      </trkpt>
      <trkpt lat="43.62021" lon="7.05185">
        <ele>138.42126464844</ele>
        <time>2020-05-14T12:41:54Z</time>
      </trkpt>
      <trkpt lat="43.62022" lon="7.05179">
        <ele>138.5400390625</ele>
        <time>2020-05-14T12:41:55Z</time>
      </trkpt>
      <trkpt lat="43.62024" lon="7.05171">
        <ele>139.068359375</ele>
        <time>2020-05-14T12:41:56Z</time>
      </trkpt>
      <trkpt lat="43.62025" lon="7.05166">
        <ele>139.77020263672</ele>
        <time>2020-05-14T12:41:57Z</time>
      </trkpt>
      <trkpt lat="43.62026" lon="7.0516">
        <ele>140.64013671875</ele>
        <time>2020-05-14T12:41:58Z</time>
      </trkpt>
      <trkpt lat="43.62028" lon="7.05155">
        <ele>141.27673339844</ele>
        <time>2020-05-14T12:41:59Z</time>
      </trkpt>
      <trkpt lat="43.62028" lon="7.05151">
        <ele>140.70202636719</ele>
        <time>2020-05-14T12:42:00Z</time>
      </trkpt>
      <trkpt lat="43.62029" lon="7.05147">
        <ele>140.67956542969</ele>
        <time>2020-05-14T12:42:01Z</time>
      </trkpt>
      <trkpt lat="43.6203" lon="7.05142">
        <ele>141.17004394531</ele>
        <time>2020-05-14T12:42:02Z</time>
      </trkpt>
      <trkpt lat="43.6203" lon="7.05136">
        <ele>145.48504638672</ele>
        <time>2020-05-14T12:42:03Z</time>
      </trkpt>
      <trkpt lat="43.62031" lon="7.05131">
        <ele>144.61389160156</ele>
        <time>2020-05-14T12:42:04Z</time>
      </trkpt>
      <trkpt lat="43.62032" lon="7.05124">
        <ele>143.56243896484</ele>
        <time>2020-05-14T12:42:05Z</time>
      </trkpt>
      <trkpt lat="43.62033" lon="7.05118">
        <ele>143.69470214844</ele>
        <time>2020-05-14T12:42:06Z</time>
      </trkpt>
      <trkpt lat="43.62035" lon="7.05112">
        <ele>144.17449951172</ele>
        <time>2020-05-14T12:42:07Z</time>
      </trkpt>
      <trkpt lat="43.62035" lon="7.05106">
        <ele>142.85534667969</ele>
        <time>2020-05-14T12:42:08Z</time>
      </trkpt>
      <trkpt lat="43.62035" lon="7.051">
        <ele>142.31512451172</ele>
        <time>2020-05-14T12:42:09Z</time>
      </trkpt>
      <trkpt lat="43.62035" lon="7.05095">
        <ele>142.51959228516</ele>
        <time>2020-05-14T12:42:10Z</time>
      </trkpt>
      <trkpt lat="43.62036" lon="7.0509">
        <ele>140.4375</ele>
        <time>2020-05-14T12:42:11Z</time>
      </trkpt>
      <trkpt lat="43.62036" lon="7.05085">
        <ele>140.07214355469</ele>
        <time>2020-05-14T12:42:12Z</time>
      </trkpt>
      <trkpt lat="43.62037" lon="7.0508">
        <ele>144.83245849609</ele>
        <time>2020-05-14T12:42:13Z</time>
      </trkpt>
      <trkpt lat="43.62037" lon="7.05075">
        <ele>144.39038085938</ele>
        <time>2020-05-14T12:42:14Z</time>
      </trkpt>
      <trkpt lat="43.62038" lon="7.05071">
        <ele>143.51782226562</ele>
        <time>2020-05-14T12:42:15Z</time>
      </trkpt>
      <trkpt lat="43.62038" lon="7.05066">
        <ele>144.28497314453</ele>
        <time>2020-05-14T12:42:16Z</time>
      </trkpt>
      <trkpt lat="43.62038" lon="7.05061">
        <ele>145.4931640625</ele>
        <time>2020-05-14T12:42:17Z</time>
      </trkpt>
      <trkpt lat="43.62039" lon="7.05056">
        <ele>144.03448486328</ele>
        <time>2020-05-14T12:42:18Z</time>
      </trkpt>
      <trkpt lat="43.6204" lon="7.05051">
        <ele>143.8447265625</ele>
        <time>2020-05-14T12:42:19Z</time>
      </trkpt>
      <trkpt lat="43.62041" lon="7.05045">
        <ele>144.13287353516</ele>
        <time>2020-05-14T12:42:20Z</time>
      </trkpt>
      <trkpt lat="43.62041" lon="7.0504">
        <ele>143.33026123047</ele>
        <time>2020-05-14T12:42:21Z</time>
      </trkpt>
      <trkpt lat="43.62041" lon="7.05034">
        <ele>143.13757324219</ele>
        <time>2020-05-14T12:42:22Z</time>
      </trkpt>
      <trkpt lat="43.62041" lon="7.0503">
        <ele>143.41156005859</ele>
        <time>2020-05-14T12:42:23Z</time>
      </trkpt>
      <trkpt lat="43.62042" lon="7.05025">
        <ele>143.35369873047</ele>
        <time>2020-05-14T12:42:24Z</time>
      </trkpt>
      <trkpt lat="43.62042" lon="7.0502">
        <ele>145.13140869141</ele>
        <time>2020-05-14T12:42:25Z</time>
      </trkpt>
      <trkpt lat="43.62042" lon="7.05017">
        <ele>144.85369873047</ele>
        <time>2020-05-14T12:42:26Z</time>
      </trkpt>
      <trkpt lat="43.62041" lon="7.05014">
        <ele>145.74401855469</ele>
        <time>2020-05-14T12:42:27Z</time>
      </trkpt>
      <trkpt lat="43.62041" lon="7.05011">
        <ele>144.708984375</ele>
        <time>2020-05-14T12:42:28Z</time>
      </trkpt>
      <trkpt lat="43.62041" lon="7.05008">
        <ele>144.80224609375</ele>
        <time>2020-05-14T12:42:29Z</time>
      </trkpt>
      <trkpt lat="43.62042" lon="7.05006">
        <ele>142.92193603516</ele>
        <time>2020-05-14T12:42:30Z</time>
      </trkpt>
      <trkpt lat="43.62043" lon="7.05003">
        <ele>143.87976074219</ele>
        <time>2020-05-14T12:42:31Z</time>
      </trkpt>
      <trkpt lat="43.62044" lon="7.05">
        <ele>143.24108886719</ele>
        <time>2020-05-14T12:42:32Z</time>
      </trkpt>
      <trkpt lat="43.62046" lon="7.04998">
        <ele>143.57464599609</ele>
        <time>2020-05-14T12:42:33Z</time>
      </trkpt>
      <trkpt lat="43.62048" lon="7.04996">
        <ele>143.95935058594</ele>
        <time>2020-05-14T12:42:34Z</time>
      </trkpt>
      <trkpt lat="43.6205" lon="7.04994">
        <ele>143.88977050781</ele>
        <time>2020-05-14T12:42:35Z</time>
      </trkpt>
      <trkpt lat="43.62052" lon="7.04992">
        <ele>140.20837402344</ele>
        <time>2020-05-14T12:42:36Z</time>
      </trkpt>
      <trkpt lat="43.62053" lon="7.04991">
        <ele>147.1328125</ele>
        <time>2020-05-14T12:42:37Z</time>
      </trkpt>
      <trkpt lat="43.62055" lon="7.0499">
        <ele>147.79547119141</ele>
        <time>2020-05-14T12:42:38Z</time>
      </trkpt>
      <trkpt lat="43.62057" lon="7.04989">
        <ele>152.72784423828</ele>
        <time>2020-05-14T12:42:39Z</time>
      </trkpt>
      <trkpt lat="43.6206" lon="7.04987">
        <ele>156.35131835938</ele>
        <time>2020-05-14T12:42:40Z</time>
      </trkpt>
      <trkpt lat="43.62063" lon="7.04985">
        <ele>157.24548339844</ele>
        <time>2020-05-14T12:42:41Z</time>
      </trkpt>
      <trkpt lat="43.62065" lon="7.04983">
        <ele>157.40771484375</ele>
        <time>2020-05-14T12:42:42Z</time>
      </trkpt>
      <trkpt lat="43.62068" lon="7.04981">
        <ele>157.26318359375</ele>
        <time>2020-05-14T12:42:43Z</time>
      </trkpt>
      <trkpt lat="43.6207" lon="7.04979">
        <ele>157.50860595703</ele>
        <time>2020-05-14T12:42:44Z</time>
      </trkpt>
      <trkpt lat="43.62073" lon="7.04977">
        <ele>157.67340087891</ele>
        <time>2020-05-14T12:42:45Z</time>
      </trkpt>
      <trkpt lat="43.62076" lon="7.04974">
        <ele>158.00964355469</ele>
        <time>2020-05-14T12:42:46Z</time>
      </trkpt>
      <trkpt lat="43.62078" lon="7.04971">
        <ele>158.66998291016</ele>
        <time>2020-05-14T12:42:47Z</time>
      </trkpt>
      <trkpt lat="43.6208" lon="7.04967">
        <ele>159.40380859375</ele>
        <time>2020-05-14T12:42:48Z</time>
      </trkpt>
      <trkpt lat="43.6208" lon="7.04962">
        <ele>159.37774658203</ele>
        <time>2020-05-14T12:42:49Z</time>
      </trkpt>
      <trkpt lat="43.62079" lon="7.04957">
        <ele>159.46118164062</ele>
        <time>2020-05-14T12:42:50Z</time>
      </trkpt>
      <trkpt lat="43.62078" lon="7.04952">
        <ele>159.20483398438</ele>
        <time>2020-05-14T12:42:51Z</time>
      </trkpt>
      <trkpt lat="43.62074" lon="7.04946">
        <ele>159.18243408203</ele>
        <time>2020-05-14T12:42:52Z</time>
      </trkpt>
      <trkpt lat="43.6207" lon="7.0494">
        <ele>159.37945556641</ele>
        <time>2020-05-14T12:42:53Z</time>
      </trkpt>
      <trkpt lat="43.62069" lon="7.04933">
        <ele>159.53735351562</ele>
        <time>2020-05-14T12:42:54Z</time>
      </trkpt>
      <trkpt lat="43.62066" lon="7.04929">
        <ele>159.22680664062</ele>
        <time>2020-05-14T12:42:55Z</time>
      </trkpt>
      <trkpt lat="43.62062" lon="7.04924">
        <ele>159.42419433594</ele>
        <time>2020-05-14T12:42:56Z</time>
      </trkpt>
      <trkpt lat="43.62059" lon="7.04919">
        <ele>159.38159179688</ele>
        <time>2020-05-14T12:42:57Z</time>
      </trkpt>
      <trkpt lat="43.62055" lon="7.04915">
        <ele>159.48999023438</ele>
        <time>2020-05-14T12:42:58Z</time>
      </trkpt>
      <trkpt lat="43.62051" lon="7.0491">
        <ele>159.53137207031</ele>
        <time>2020-05-14T12:42:59Z</time>
      </trkpt>
      <trkpt lat="43.62047" lon="7.04907">
        <ele>159.267578125</ele>
        <time>2020-05-14T12:43:00Z</time>
      </trkpt>
      <trkpt lat="43.62043" lon="7.04903">
        <ele>159.26110839844</ele>
        <time>2020-05-14T12:43:01Z</time>
      </trkpt>
      <trkpt lat="43.62039" lon="7.049">
        <ele>159.64501953125</ele>
        <time>2020-05-14T12:43:02Z</time>
      </trkpt>
      <trkpt lat="43.62034" lon="7.04896">
        <ele>159.30810546875</ele>
        <time>2020-05-14T12:43:03Z</time>
      </trkpt>
      <trkpt lat="43.6203" lon="7.04895">
        <ele>158.04888916016</ele>
        <time>2020-05-14T12:43:04Z</time>
      </trkpt>
      <trkpt lat="43.62025" lon="7.04893">
        <ele>157.85375976562</ele>
        <time>2020-05-14T12:43:05Z</time>
      </trkpt>
      <trkpt lat="43.62022" lon="7.04892">
        <ele>158.30297851562</ele>
        <time>2020-05-14T12:43:06Z</time>
      </trkpt>
      <trkpt lat="43.62019" lon="7.04891">
        <ele>158.60986328125</ele>
        <time>2020-05-14T12:43:07Z</time>
      </trkpt>
      <trkpt lat="43.62017" lon="7.04892">
        <ele>158.47564697266</ele>
        <time>2020-05-14T12:43:08Z</time>
      </trkpt>
      <trkpt lat="43.62016" lon="7.04888">
        <ele>157.84411621094</ele>
        <time>2020-05-14T12:43:09Z</time>
      </trkpt>
      <trkpt lat="43.62014" lon="7.04888">
        <ele>158.16723632812</ele>
        <time>2020-05-14T12:43:10Z</time>
      </trkpt>
      <trkpt lat="43.62011" lon="7.04888">
        <ele>158.54840087891</ele>
        <time>2020-05-14T12:43:11Z</time>
      </trkpt>
      <trkpt lat="43.62007" lon="7.04891">
        <ele>158.3359375</ele>
        <time>2020-05-14T12:43:12Z</time>
      </trkpt>
      <trkpt lat="43.62004" lon="7.04892">
        <ele>158.45269775391</ele>
        <time>2020-05-14T12:43:13Z</time>
      </trkpt>
      <trkpt lat="43.62001" lon="7.04891">
        <ele>158.60180664062</ele>
        <time>2020-05-14T12:43:14Z</time>
      </trkpt>
      <trkpt lat="43.61998" lon="7.04888">
        <ele>159.2646484375</ele>
        <time>2020-05-14T12:43:15Z</time>
      </trkpt>
      <trkpt lat="43.61996" lon="7.04885">
        <ele>159.36291503906</ele>
        <time>2020-05-14T12:43:16Z</time>
      </trkpt>
      <trkpt lat="43.61993" lon="7.04883">
        <ele>158.58422851562</ele>
        <time>2020-05-14T12:43:17Z</time>
      </trkpt>
      <trkpt lat="43.61989" lon="7.04882">
        <ele>158.75897216797</ele>
        <time>2020-05-14T12:43:18Z</time>
      </trkpt>
      <trkpt lat="43.61985" lon="7.04881">
        <ele>159.79357910156</ele>
        <time>2020-05-14T12:43:19Z</time>
      </trkpt>
      <trkpt lat="43.61981" lon="7.04881">
        <ele>158.70373535156</ele>
        <time>2020-05-14T12:43:20Z</time>
      </trkpt>
      <trkpt lat="43.61977" lon="7.04881">
        <ele>158.85986328125</ele>
        <time>2020-05-14T12:43:21Z</time>
      </trkpt>
      <trkpt lat="43.61973" lon="7.04881">
        <ele>159.09869384766</ele>
        <time>2020-05-14T12:43:22Z</time>
      </trkpt>
      <trkpt lat="43.61969" lon="7.04881">
        <ele>159.92370605469</ele>
        <time>2020-05-14T12:43:23Z</time>
      </trkpt>
      <trkpt lat="43.61965" lon="7.04881">
        <ele>159.9833984375</ele>
        <time>2020-05-14T12:43:24Z</time>
      </trkpt>
      <trkpt lat="43.61962" lon="7.04882">
        <ele>159.69250488281</ele>
        <time>2020-05-14T12:43:25Z</time>
      </trkpt>
      <trkpt lat="43.61958" lon="7.04882">
        <ele>160.01599121094</ele>
        <time>2020-05-14T12:43:26Z</time>
      </trkpt>
      <trkpt lat="43.61954" lon="7.04882">
        <ele>160.36065673828</ele>
        <time>2020-05-14T12:43:27Z</time>
      </trkpt>
      <trkpt lat="43.6195" lon="7.04882">
        <ele>160.39782714844</ele>
        <time>2020-05-14T12:43:28Z</time>
      </trkpt>
      <trkpt lat="43.61946" lon="7.04881">
        <ele>160.10034179688</ele>
        <time>2020-05-14T12:43:29Z</time>
      </trkpt>
      <trkpt lat="43.61942" lon="7.0488">
        <ele>160.95989990234</ele>
        <time>2020-05-14T12:43:30Z</time>
      </trkpt>
      <trkpt lat="43.61939" lon="7.04878">
        <ele>160.64782714844</ele>
        <time>2020-05-14T12:43:31Z</time>
      </trkpt>
      <trkpt lat="43.61935" lon="7.04875">
        <ele>160.84149169922</ele>
        <time>2020-05-14T12:43:32Z</time>
      </trkpt>
      <trkpt lat="43.61932" lon="7.04872">
        <ele>160.70611572266</ele>
        <time>2020-05-14T12:43:33Z</time>
      </trkpt>
      <trkpt lat="43.61929" lon="7.04869">
        <ele>160.11657714844</ele>
        <time>2020-05-14T12:43:34Z</time>
      </trkpt>
      <trkpt lat="43.61926" lon="7.04865">
        <ele>159.80212402344</ele>
        <time>2020-05-14T12:43:35Z</time>
      </trkpt>
      <trkpt lat="43.61924" lon="7.0486">
        <ele>159.77276611328</ele>
        <time>2020-05-14T12:43:36Z</time>
      </trkpt>
      <trkpt lat="43.61922" lon="7.04856">
        <ele>159.88513183594</ele>
        <time>2020-05-14T12:43:37Z</time>
      </trkpt>
      <trkpt lat="43.6192" lon="7.04852">
        <ele>160.04272460938</ele>
        <time>2020-05-14T12:43:38Z</time>
      </trkpt>
      <trkpt lat="43.61918" lon="7.04848">
        <ele>160.71520996094</ele>
        <time>2020-05-14T12:43:39Z</time>
      </trkpt>
      <trkpt lat="43.61916" lon="7.04844">
        <ele>161.60101318359</ele>
        <time>2020-05-14T12:43:40Z</time>
      </trkpt>
      <trkpt lat="43.61913" lon="7.04841">
        <ele>162.08862304688</ele>
        <time>2020-05-14T12:43:41Z</time>
      </trkpt>
      <trkpt lat="43.61911" lon="7.04838">
        <ele>162.11730957031</ele>
        <time>2020-05-14T12:43:42Z</time>
      </trkpt>
      <trkpt lat="43.61909" lon="7.04836">
        <ele>162.36206054688</ele>
        <time>2020-05-14T12:43:43Z</time>
      </trkpt>
      <trkpt lat="43.61907" lon="7.04834">
        <ele>161.55297851562</ele>
        <time>2020-05-14T12:43:44Z</time>
      </trkpt>
      <trkpt lat="43.61904" lon="7.04832">
        <ele>161.14599609375</ele>
        <time>2020-05-14T12:43:45Z</time>
      </trkpt>
      <trkpt lat="43.61901" lon="7.0483">
        <ele>161.08459472656</ele>
        <time>2020-05-14T12:43:46Z</time>
      </trkpt>
      <trkpt lat="43.61899" lon="7.04827">
        <ele>160.91070556641</ele>
        <time>2020-05-14T12:43:47Z</time>
      </trkpt>
      <trkpt lat="43.61896" lon="7.04823">
        <ele>160.66552734375</ele>
        <time>2020-05-14T12:43:48Z</time>
      </trkpt>
      <trkpt lat="43.61894" lon="7.04819">
        <ele>160.84136962891</ele>
        <time>2020-05-14T12:43:49Z</time>
      </trkpt>
      <trkpt lat="43.61893" lon="7.04814">
        <ele>160.78649902344</ele>
        <time>2020-05-14T12:43:50Z</time>
      </trkpt>
      <trkpt lat="43.61892" lon="7.04809">
        <ele>160.19409179688</ele>
        <time>2020-05-14T12:43:51Z</time>
      </trkpt>
      <trkpt lat="43.61891" lon="7.04803">
        <ele>161.27197265625</ele>
        <time>2020-05-14T12:43:52Z</time>
      </trkpt>
      <trkpt lat="43.6189" lon="7.04798">
        <ele>161.61096191406</ele>
        <time>2020-05-14T12:43:53Z</time>
      </trkpt>
      <trkpt lat="43.61889" lon="7.04793">
        <ele>161.81475830078</ele>
        <time>2020-05-14T12:43:54Z</time>
      </trkpt>
      <trkpt lat="43.61887" lon="7.04788">
        <ele>161.74249267578</ele>
        <time>2020-05-14T12:43:55Z</time>
      </trkpt>
      <trkpt lat="43.61886" lon="7.04784">
        <ele>161.78112792969</ele>
        <time>2020-05-14T12:43:56Z</time>
      </trkpt>
      <trkpt lat="43.61885" lon="7.04779">
        <ele>161.3642578125</ele>
        <time>2020-05-14T12:43:57Z</time>
      </trkpt>
      <trkpt lat="43.61885" lon="7.04775">
        <ele>160.91998291016</ele>
        <time>2020-05-14T12:43:58Z</time>
      </trkpt>
      <trkpt lat="43.61885" lon="7.04771">
        <ele>161.21264648438</ele>
        <time>2020-05-14T12:43:59Z</time>
      </trkpt>
      <trkpt lat="43.61885" lon="7.04766">
        <ele>160.82421875</ele>
        <time>2020-05-14T12:44:00Z</time>
      </trkpt>
      <trkpt lat="43.61885" lon="7.04762">
        <ele>160.67767333984</ele>
        <time>2020-05-14T12:44:01Z</time>
      </trkpt>
      <trkpt lat="43.61884" lon="7.04759">
        <ele>160.63800048828</ele>
        <time>2020-05-14T12:44:02Z</time>
      </trkpt>
      <trkpt lat="43.61881" lon="7.04756">
        <ele>159.81176757812</ele>
        <time>2020-05-14T12:44:03Z</time>
      </trkpt>
      <trkpt lat="43.61878" lon="7.04754">
        <ele>159.27258300781</ele>
        <time>2020-05-14T12:44:04Z</time>
      </trkpt>
      <trkpt lat="43.61875" lon="7.04753">
        <ele>159.16070556641</ele>
        <time>2020-05-14T12:44:05Z</time>
      </trkpt>
      <trkpt lat="43.61871" lon="7.04751">
        <ele>159.18402099609</ele>
        <time>2020-05-14T12:44:06Z</time>
      </trkpt>
      <trkpt lat="43.61868" lon="7.04749">
        <ele>159.64678955078</ele>
        <time>2020-05-14T12:44:07Z</time>
      </trkpt>
      <trkpt lat="43.61865" lon="7.04746">
        <ele>161.72479248047</ele>
        <time>2020-05-14T12:44:08Z</time>
      </trkpt>
      <trkpt lat="43.61863" lon="7.04743">
        <ele>162.56945800781</ele>
        <time>2020-05-14T12:44:09Z</time>
      </trkpt>
      <trkpt lat="43.61861" lon="7.04739">
        <ele>161.90930175781</ele>
        <time>2020-05-14T12:44:10Z</time>
      </trkpt>
      <trkpt lat="43.61859" lon="7.04735">
        <ele>161.94958496094</ele>
        <time>2020-05-14T12:44:11Z</time>
      </trkpt>
      <trkpt lat="43.61857" lon="7.04732">
        <ele>161.65484619141</ele>
        <time>2020-05-14T12:44:12Z</time>
      </trkpt>
      <trkpt lat="43.61855" lon="7.04729">
        <ele>161.5419921875</ele>
        <time>2020-05-14T12:44:13Z</time>
      </trkpt>
      <trkpt lat="43.61853" lon="7.04725">
        <ele>164.00592041016</ele>
        <time>2020-05-14T12:44:14Z</time>
      </trkpt>
      <trkpt lat="43.61851" lon="7.04721">
        <ele>163.51837158203</ele>
        <time>2020-05-14T12:44:15Z</time>
      </trkpt>
      <trkpt lat="43.61849" lon="7.04718">
        <ele>163.7470703125</ele>
        <time>2020-05-14T12:44:16Z</time>
      </trkpt>
      <trkpt lat="43.61847" lon="7.04713">
        <ele>163.83483886719</ele>
        <time>2020-05-14T12:44:17Z</time>
      </trkpt>
      <trkpt lat="43.61845" lon="7.04709">
        <ele>163.37255859375</ele>
        <time>2020-05-14T12:44:18Z</time>
      </trkpt>
      <trkpt lat="43.61843" lon="7.04705">
        <ele>162.04650878906</ele>
        <time>2020-05-14T12:44:19Z</time>
      </trkpt>
      <trkpt lat="43.6184" lon="7.04701">
        <ele>160.25378417969</ele>
        <time>2020-05-14T12:44:20Z</time>
      </trkpt>
      <trkpt lat="43.61838" lon="7.04697">
        <ele>160.46496582031</ele>
        <time>2020-05-14T12:44:21Z</time>
      </trkpt>
      <trkpt lat="43.61835" lon="7.04692">
        <ele>161.67657470703</ele>
        <time>2020-05-14T12:44:22Z</time>
      </trkpt>
      <trkpt lat="43.61833" lon="7.04687">
        <ele>161.251953125</ele>
        <time>2020-05-14T12:44:23Z</time>
      </trkpt>
      <trkpt lat="43.61831" lon="7.04683">
        <ele>160.9482421875</ele>
        <time>2020-05-14T12:44:24Z</time>
      </trkpt>
      <trkpt lat="43.61829" lon="7.04679">
        <ele>160.58807373047</ele>
        <time>2020-05-14T12:44:25Z</time>
      </trkpt>
      <trkpt lat="43.61827" lon="7.04675">
        <ele>159.62384033203</ele>
        <time>2020-05-14T12:44:26Z</time>
      </trkpt>
      <trkpt lat="43.61825" lon="7.04671">
        <ele>159.49670410156</ele>
        <time>2020-05-14T12:44:27Z</time>
      </trkpt>
      <trkpt lat="43.61823" lon="7.04667">
        <ele>159.81237792969</ele>
        <time>2020-05-14T12:44:28Z</time>
      </trkpt>
      <trkpt lat="43.61821" lon="7.04662">
        <ele>159.91198730469</ele>
        <time>2020-05-14T12:44:29Z</time>
      </trkpt>
      <trkpt lat="43.61818" lon="7.04658">
        <ele>161.349609375</ele>
        <time>2020-05-14T12:44:30Z</time>
      </trkpt>
      <trkpt lat="43.61817" lon="7.04654">
        <ele>161.57977294922</ele>
        <time>2020-05-14T12:44:31Z</time>
      </trkpt>
      <trkpt lat="43.61815" lon="7.0465">
        <ele>161.43658447266</ele>
        <time>2020-05-14T12:44:32Z</time>
      </trkpt>
      <trkpt lat="43.61813" lon="7.04646">
        <ele>161.18878173828</ele>
        <time>2020-05-14T12:44:33Z</time>
      </trkpt>
      <trkpt lat="43.61812" lon="7.04642">
        <ele>161.42279052734</ele>
        <time>2020-05-14T12:44:34Z</time>
      </trkpt>
      <trkpt lat="43.6181" lon="7.04637">
        <ele>160.48797607422</ele>
        <time>2020-05-14T12:44:35Z</time>
      </trkpt>
      <trkpt lat="43.61808" lon="7.04633">
        <ele>160.54608154297</ele>
        <time>2020-05-14T12:44:36Z</time>
      </trkpt>
      <trkpt lat="43.61806" lon="7.04629">
        <ele>160.82562255859</ele>
        <time>2020-05-14T12:44:37Z</time>
      </trkpt>
      <trkpt lat="43.61804" lon="7.04624">
        <ele>162.53601074219</ele>
        <time>2020-05-14T12:44:38Z</time>
      </trkpt>
      <trkpt lat="43.61802" lon="7.04619">
        <ele>162.52557373047</ele>
        <time>2020-05-14T12:44:39Z</time>
      </trkpt>
      <trkpt lat="43.618" lon="7.04614">
        <ele>162.17846679688</ele>
        <time>2020-05-14T12:44:40Z</time>
      </trkpt>
      <trkpt lat="43.61798" lon="7.04609">
        <ele>161.81817626953</ele>
        <time>2020-05-14T12:44:41Z</time>
      </trkpt>
      <trkpt lat="43.61795" lon="7.04605">
        <ele>162.28576660156</ele>
        <time>2020-05-14T12:44:42Z</time>
      </trkpt>
      <trkpt lat="43.61793" lon="7.04601">
        <ele>162.01141357422</ele>
        <time>2020-05-14T12:44:43Z</time>
      </trkpt>
      <trkpt lat="43.61791" lon="7.04597">
        <ele>162.47540283203</ele>
        <time>2020-05-14T12:44:44Z</time>
      </trkpt>
      <trkpt lat="43.61788" lon="7.04592">
        <ele>162.40496826172</ele>
        <time>2020-05-14T12:44:45Z</time>
      </trkpt>
      <trkpt lat="43.61786" lon="7.04588">
        <ele>161.72729492188</ele>
        <time>2020-05-14T12:44:46Z</time>
      </trkpt>
      <trkpt lat="43.61784" lon="7.04584">
        <ele>162.49633789062</ele>
        <time>2020-05-14T12:44:47Z</time>
      </trkpt>
      <trkpt lat="43.61781" lon="7.0458">
        <ele>163.49737548828</ele>
        <time>2020-05-14T12:44:48Z</time>
      </trkpt>
      <trkpt lat="43.61779" lon="7.04576">
        <ele>163.26696777344</ele>
        <time>2020-05-14T12:44:49Z</time>
      </trkpt>
      <trkpt lat="43.61776" lon="7.04572">
        <ele>163.06237792969</ele>
        <time>2020-05-14T12:44:50Z</time>
      </trkpt>
      <trkpt lat="43.61774" lon="7.04568">
        <ele>163.43292236328</ele>
        <time>2020-05-14T12:44:51Z</time>
      </trkpt>
      <trkpt lat="43.61772" lon="7.04565">
        <ele>163.52429199219</ele>
        <time>2020-05-14T12:44:52Z</time>
      </trkpt>
      <trkpt lat="43.6177" lon="7.04561">
        <ele>162.17718505859</ele>
        <time>2020-05-14T12:44:53Z</time>
      </trkpt>
      <trkpt lat="43.61768" lon="7.04557">
        <ele>163.16485595703</ele>
        <time>2020-05-14T12:44:54Z</time>
      </trkpt>
      <trkpt lat="43.61766" lon="7.04553">
        <ele>165.98004150391</ele>
        <time>2020-05-14T12:44:55Z</time>
      </trkpt>
      <trkpt lat="43.61764" lon="7.04548">
        <ele>166.13781738281</ele>
        <time>2020-05-14T12:44:56Z</time>
      </trkpt>
      <trkpt lat="43.61762" lon="7.04544">
        <ele>166.19140625</ele>
        <time>2020-05-14T12:44:57Z</time>
      </trkpt>
      <trkpt lat="43.61761" lon="7.04541">
        <ele>165.77783203125</ele>
        <time>2020-05-14T12:44:58Z</time>
      </trkpt>
      <trkpt lat="43.61759" lon="7.04537">
        <ele>165.25189208984</ele>
        <time>2020-05-14T12:44:59Z</time>
      </trkpt>
      <trkpt lat="43.61757" lon="7.04532">
        <ele>165.84844970703</ele>
        <time>2020-05-14T12:45:00Z</time>
      </trkpt>
      <trkpt lat="43.61755" lon="7.04527">
        <ele>166.25231933594</ele>
        <time>2020-05-14T12:45:01Z</time>
      </trkpt>
      <trkpt lat="43.61753" lon="7.04523">
        <ele>165.60601806641</ele>
        <time>2020-05-14T12:45:02Z</time>
      </trkpt>
      <trkpt lat="43.61751" lon="7.04518">
        <ele>166.44750976562</ele>
        <time>2020-05-14T12:45:03Z</time>
      </trkpt>
      <trkpt lat="43.61749" lon="7.04514">
        <ele>167.13946533203</ele>
        <time>2020-05-14T12:45:04Z</time>
      </trkpt>
      <trkpt lat="43.61747" lon="7.0451">
        <ele>166.05804443359</ele>
        <time>2020-05-14T12:45:05Z</time>
      </trkpt>
      <trkpt lat="43.61745" lon="7.04507">
        <ele>166.65966796875</ele>
        <time>2020-05-14T12:45:06Z</time>
      </trkpt>
      <trkpt lat="43.61743" lon="7.04503">
        <ele>166.35046386719</ele>
        <time>2020-05-14T12:45:07Z</time>
      </trkpt>
      <trkpt lat="43.6174" lon="7.04499">
        <ele>166.65887451172</ele>
        <time>2020-05-14T12:45:08Z</time>
      </trkpt>
      <trkpt lat="43.61737" lon="7.04494">
        <ele>166.43334960938</ele>
        <time>2020-05-14T12:45:09Z</time>
      </trkpt>
      <trkpt lat="43.61734" lon="7.04491">
        <ele>166.73712158203</ele>
        <time>2020-05-14T12:45:10Z</time>
      </trkpt>
      <trkpt lat="43.6173" lon="7.04487">
        <ele>166.74432373047</ele>
        <time>2020-05-14T12:45:11Z</time>
      </trkpt>
      <trkpt lat="43.61725" lon="7.04482">
        <ele>169.96795654297</ele>
        <time>2020-05-14T12:45:12Z</time>
      </trkpt>
      <trkpt lat="43.61721" lon="7.04477">
        <ele>169.42077636719</ele>
        <time>2020-05-14T12:45:13Z</time>
      </trkpt>
      <trkpt lat="43.61718" lon="7.04473">
        <ele>167.65093994141</ele>
        <time>2020-05-14T12:45:14Z</time>
      </trkpt>
      <trkpt lat="43.61714" lon="7.04468">
        <ele>166.53088378906</ele>
        <time>2020-05-14T12:45:15Z</time>
      </trkpt>
      <trkpt lat="43.61712" lon="7.04462">
        <ele>166.86682128906</ele>
        <time>2020-05-14T12:45:16Z</time>
      </trkpt>
      <trkpt lat="43.61709" lon="7.04456">
        <ele>166.76245117188</ele>
        <time>2020-05-14T12:45:17Z</time>
      </trkpt>
      <trkpt lat="43.61707" lon="7.04452">
        <ele>166.27813720703</ele>
        <time>2020-05-14T12:45:18Z</time>
      </trkpt>
      <trkpt lat="43.61706" lon="7.04446">
        <ele>165.90673828125</ele>
        <time>2020-05-14T12:45:19Z</time>
      </trkpt>
      <trkpt lat="43.61705" lon="7.0444">
        <ele>167.7744140625</ele>
        <time>2020-05-14T12:45:20Z</time>
      </trkpt>
      <trkpt lat="43.61704" lon="7.04433">
        <ele>166.54144287109</ele>
        <time>2020-05-14T12:45:21Z</time>
      </trkpt>
      <trkpt lat="43.61705" lon="7.04427">
        <ele>166.67224121094</ele>
        <time>2020-05-14T12:45:22Z</time>
      </trkpt>
      <trkpt lat="43.61704" lon="7.04421">
        <ele>166.53570556641</ele>
        <time>2020-05-14T12:45:23Z</time>
      </trkpt>
      <trkpt lat="43.61704" lon="7.04416">
        <ele>166.18273925781</ele>
        <time>2020-05-14T12:45:24Z</time>
      </trkpt>
      <trkpt lat="43.61703" lon="7.04411">
        <ele>166.13452148438</ele>
        <time>2020-05-14T12:45:25Z</time>
      </trkpt>
      <trkpt lat="43.61703" lon="7.04406">
        <ele>165.78826904297</ele>
        <time>2020-05-14T12:45:26Z</time>
      </trkpt>
      <trkpt lat="43.61703" lon="7.044">
        <ele>165.95440673828</ele>
        <time>2020-05-14T12:45:27Z</time>
      </trkpt>
      <trkpt lat="43.61702" lon="7.04395">
        <ele>166.43328857422</ele>
        <time>2020-05-14T12:45:28Z</time>
      </trkpt>
      <trkpt lat="43.61702" lon="7.04389">
        <ele>167.22314453125</ele>
        <time>2020-05-14T12:45:29Z</time>
      </trkpt>
      <trkpt lat="43.61701" lon="7.04384">
        <ele>164.75366210938</ele>
        <time>2020-05-14T12:45:30Z</time>
      </trkpt>
      <trkpt lat="43.617" lon="7.04378">
        <ele>164.53344726562</ele>
        <time>2020-05-14T12:45:31Z</time>
      </trkpt>
      <trkpt lat="43.61697" lon="7.04372">
        <ele>165.28308105469</ele>
        <time>2020-05-14T12:45:32Z</time>
      </trkpt>
      <trkpt lat="43.61695" lon="7.04367">
        <ele>165.88269042969</ele>
        <time>2020-05-14T12:45:33Z</time>
      </trkpt>
      <trkpt lat="43.61693" lon="7.04361">
        <ele>166.30114746094</ele>
        <time>2020-05-14T12:45:34Z</time>
      </trkpt>
      <trkpt lat="43.6169" lon="7.04355">
        <ele>165.78686523438</ele>
        <time>2020-05-14T12:45:35Z</time>
      </trkpt>
      <trkpt lat="43.61687" lon="7.0435">
        <ele>165.01043701172</ele>
        <time>2020-05-14T12:45:36Z</time>
      </trkpt>
      <trkpt lat="43.61685" lon="7.04347">
        <ele>163.55944824219</ele>
        <time>2020-05-14T12:45:37Z</time>
      </trkpt>
      <trkpt lat="43.61681" lon="7.04342">
        <ele>165.55902099609</ele>
        <time>2020-05-14T12:45:38Z</time>
      </trkpt>
      <trkpt lat="43.61679" lon="7.04338">
        <ele>165.61218261719</ele>
        <time>2020-05-14T12:45:39Z</time>
      </trkpt>
      <trkpt lat="43.61676" lon="7.04334">
        <ele>165.39996337891</ele>
        <time>2020-05-14T12:45:40Z</time>
      </trkpt>
      <trkpt lat="43.61674" lon="7.04327">
        <ele>164.10180664062</ele>
        <time>2020-05-14T12:45:41Z</time>
      </trkpt>
      <trkpt lat="43.61672" lon="7.04321">
        <ele>164.16943359375</ele>
        <time>2020-05-14T12:45:42Z</time>
      </trkpt>
      <trkpt lat="43.61671" lon="7.04314">
        <ele>164.50427246094</ele>
        <time>2020-05-14T12:45:43Z</time>
      </trkpt>
      <trkpt lat="43.61668" lon="7.04308">
        <ele>164.4052734375</ele>
        <time>2020-05-14T12:45:44Z</time>
      </trkpt>
      <trkpt lat="43.61665" lon="7.04302">
        <ele>164.66387939453</ele>
        <time>2020-05-14T12:45:45Z</time>
      </trkpt>
      <trkpt lat="43.61663" lon="7.04298">
        <ele>164.7763671875</ele>
        <time>2020-05-14T12:45:46Z</time>
      </trkpt>
      <trkpt lat="43.61661" lon="7.04294">
        <ele>164.93664550781</ele>
        <time>2020-05-14T12:45:47Z</time>
      </trkpt>
      <trkpt lat="43.61658" lon="7.04288">
        <ele>165.37976074219</ele>
        <time>2020-05-14T12:45:48Z</time>
      </trkpt>
      <trkpt lat="43.61657" lon="7.04283">
        <ele>163.96270751953</ele>
        <time>2020-05-14T12:45:49Z</time>
      </trkpt>
      <trkpt lat="43.61655" lon="7.04278">
        <ele>164.26220703125</ele>
        <time>2020-05-14T12:45:50Z</time>
      </trkpt>
      <trkpt lat="43.61652" lon="7.04273">
        <ele>163.94854736328</ele>
        <time>2020-05-14T12:45:51Z</time>
      </trkpt>
      <trkpt lat="43.6165" lon="7.04269">
        <ele>163.35931396484</ele>
        <time>2020-05-14T12:45:52Z</time>
      </trkpt>
      <trkpt lat="43.61647" lon="7.04264">
        <ele>163.78308105469</ele>
        <time>2020-05-14T12:45:53Z</time>
      </trkpt>
      <trkpt lat="43.61645" lon="7.04259">
        <ele>163.68786621094</ele>
        <time>2020-05-14T12:45:54Z</time>
      </trkpt>
      <trkpt lat="43.61643" lon="7.04255">
        <ele>162.78271484375</ele>
        <time>2020-05-14T12:45:55Z</time>
      </trkpt>
      <trkpt lat="43.61641" lon="7.04249">
        <ele>162.84033203125</ele>
        <time>2020-05-14T12:45:56Z</time>
      </trkpt>
      <trkpt lat="43.61641" lon="7.04242">
        <ele>164.77752685547</ele>
        <time>2020-05-14T12:45:57Z</time>
      </trkpt>
      <trkpt lat="43.61641" lon="7.04237">
        <ele>164.22344970703</ele>
        <time>2020-05-14T12:45:58Z</time>
      </trkpt>
      <trkpt lat="43.61645" lon="7.04231">
        <ele>164.21850585938</ele>
        <time>2020-05-14T12:45:59Z</time>
      </trkpt>
      <trkpt lat="43.61648" lon="7.04227">
        <ele>165.56579589844</ele>
        <time>2020-05-14T12:46:00Z</time>
      </trkpt>
      <trkpt lat="43.6165" lon="7.04224">
        <ele>166.25390625</ele>
        <time>2020-05-14T12:46:01Z</time>
      </trkpt>
      <trkpt lat="43.61653" lon="7.0422">
        <ele>167.61987304688</ele>
        <time>2020-05-14T12:46:02Z</time>
      </trkpt>
      <trkpt lat="43.61655" lon="7.04217">
        <ele>167.73046875</ele>
        <time>2020-05-14T12:46:03Z</time>
      </trkpt>
      <trkpt lat="43.61657" lon="7.04213">
        <ele>167.56085205078</ele>
        <time>2020-05-14T12:46:04Z</time>
      </trkpt>
      <trkpt lat="43.61659" lon="7.04207">
        <ele>165.38586425781</ele>
        <time>2020-05-14T12:46:05Z</time>
      </trkpt>
      <trkpt lat="43.6166" lon="7.04202">
        <ele>164.98443603516</ele>
        <time>2020-05-14T12:46:06Z</time>
      </trkpt>
      <trkpt lat="43.61657" lon="7.04198">
        <ele>165.20886230469</ele>
        <time>2020-05-14T12:46:07Z</time>
      </trkpt>
      <trkpt lat="43.61655" lon="7.04194">
        <ele>166.0498046875</ele>
        <time>2020-05-14T12:46:08Z</time>
      </trkpt>
      <trkpt lat="43.61652" lon="7.0419">
        <ele>165.73699951172</ele>
        <time>2020-05-14T12:46:09Z</time>
      </trkpt>
      <trkpt lat="43.61649" lon="7.04187">
        <ele>165.51696777344</ele>
        <time>2020-05-14T12:46:10Z</time>
      </trkpt>
      <trkpt lat="43.61646" lon="7.04183">
        <ele>165.29089355469</ele>
        <time>2020-05-14T12:46:11Z</time>
      </trkpt>
      <trkpt lat="43.61643" lon="7.0418">
        <ele>165.43701171875</ele>
        <time>2020-05-14T12:46:12Z</time>
      </trkpt>
      <trkpt lat="43.6164" lon="7.04177">
        <ele>164.95568847656</ele>
        <time>2020-05-14T12:46:13Z</time>
      </trkpt>
      <trkpt lat="43.61637" lon="7.04174">
        <ele>164.5693359375</ele>
        <time>2020-05-14T12:46:14Z</time>
      </trkpt>
      <trkpt lat="43.61635" lon="7.04171">
        <ele>168.31811523438</ele>
        <time>2020-05-14T12:46:15Z</time>
      </trkpt>
      <trkpt lat="43.61632" lon="7.04169">
        <ele>167.55114746094</ele>
        <time>2020-05-14T12:46:16Z</time>
      </trkpt>
      <trkpt lat="43.61631" lon="7.04166">
        <ele>167.06109619141</ele>
        <time>2020-05-14T12:46:17Z</time>
      </trkpt>
      <trkpt lat="43.61629" lon="7.04164">
        <ele>166.97985839844</ele>
        <time>2020-05-14T12:46:18Z</time>
      </trkpt>
      <trkpt lat="43.61627" lon="7.04162">
        <ele>167.21466064453</ele>
        <time>2020-05-14T12:46:19Z</time>
      </trkpt>
      <trkpt lat="43.61625" lon="7.04161">
        <ele>166.83178710938</ele>
        <time>2020-05-14T12:46:20Z</time>
      </trkpt>
      <trkpt lat="43.61624" lon="7.0416">
        <ele>167.26184082031</ele>
        <time>2020-05-14T12:46:21Z</time>
      </trkpt>
      <trkpt lat="43.61622" lon="7.04159">
        <ele>166.94006347656</ele>
        <time>2020-05-14T12:46:22Z</time>
      </trkpt>
      <trkpt lat="43.6162" lon="7.04156">
        <ele>164.29638671875</ele>
        <time>2020-05-14T12:46:23Z</time>
      </trkpt>
      <trkpt lat="43.61619" lon="7.04154">
        <ele>164.24694824219</ele>
        <time>2020-05-14T12:46:24Z</time>
      </trkpt>
      <trkpt lat="43.61618" lon="7.04151">
        <ele>168.07702636719</ele>
        <time>2020-05-14T12:46:25Z</time>
      </trkpt>
      <trkpt lat="43.61617" lon="7.04149">
        <ele>167.63464355469</ele>
        <time>2020-05-14T12:46:26Z</time>
      </trkpt>
      <trkpt lat="43.61616" lon="7.04147">
        <ele>167.32885742188</ele>
        <time>2020-05-14T12:46:27Z</time>
      </trkpt>
      <trkpt lat="43.61615" lon="7.04144">
        <ele>168.10180664062</ele>
        <time>2020-05-14T12:46:28Z</time>
      </trkpt>
      <trkpt lat="43.61614" lon="7.04141">
        <ele>165.69543457031</ele>
        <time>2020-05-14T12:46:29Z</time>
      </trkpt>
      <trkpt lat="43.61613" lon="7.04139">
        <ele>166.4091796875</ele>
        <time>2020-05-14T12:46:30Z</time>
      </trkpt>
      <trkpt lat="43.61611" lon="7.04136">
        <ele>165.51257324219</ele>
        <time>2020-05-14T12:46:31Z</time>
      </trkpt>
      <trkpt lat="43.61608" lon="7.04134">
        <ele>169.48828125</ele>
        <time>2020-05-14T12:46:32Z</time>
      </trkpt>
      <trkpt lat="43.61606" lon="7.04131">
        <ele>168.98718261719</ele>
        <time>2020-05-14T12:46:33Z</time>
      </trkpt>
      <trkpt lat="43.61604" lon="7.04129">
        <ele>168.69763183594</ele>
        <time>2020-05-14T12:46:34Z</time>
      </trkpt>
      <trkpt lat="43.61603" lon="7.04126">
        <ele>169.24127197266</ele>
        <time>2020-05-14T12:46:35Z</time>
      </trkpt>
      <trkpt lat="43.61601" lon="7.04124">
        <ele>171.36865234375</ele>
        <time>2020-05-14T12:46:36Z</time>
      </trkpt>
      <trkpt lat="43.61601" lon="7.04122">
        <ele>170.01599121094</ele>
        <time>2020-05-14T12:46:37Z</time>
      </trkpt>
      <trkpt lat="43.61601" lon="7.04119">
        <ele>170.24554443359</ele>
        <time>2020-05-14T12:46:38Z</time>
      </trkpt>
      <trkpt lat="43.61602" lon="7.04115">
        <ele>170.9462890625</ele>
        <time>2020-05-14T12:46:39Z</time>
      </trkpt>
      <trkpt lat="43.61603" lon="7.04112">
        <ele>171.279296875</ele>
        <time>2020-05-14T12:46:40Z</time>
      </trkpt>
      <trkpt lat="43.61605" lon="7.04108">
        <ele>170.96508789062</ele>
        <time>2020-05-14T12:46:41Z</time>
      </trkpt>
      <trkpt lat="43.61606" lon="7.04104">
        <ele>170.43121337891</ele>
        <time>2020-05-14T12:46:42Z</time>
      </trkpt>
      <trkpt lat="43.61607" lon="7.04101">
        <ele>170.55041503906</ele>
        <time>2020-05-14T12:46:43Z</time>
      </trkpt>
      <trkpt lat="43.61609" lon="7.04097">
        <ele>169.88739013672</ele>
        <time>2020-05-14T12:46:44Z</time>
      </trkpt>
      <trkpt lat="43.61609" lon="7.04093">
        <ele>168.99157714844</ele>
        <time>2020-05-14T12:46:45Z</time>
      </trkpt>
      <trkpt lat="43.6161" lon="7.0409">
        <ele>169.80700683594</ele>
        <time>2020-05-14T12:46:46Z</time>
      </trkpt>
      <trkpt lat="43.6161" lon="7.04086">
        <ele>169.81701660156</ele>
        <time>2020-05-14T12:46:47Z</time>
      </trkpt>
      <trkpt lat="43.61611" lon="7.04083">
        <ele>170.91998291016</ele>
        <time>2020-05-14T12:46:48Z</time>
      </trkpt>
      <trkpt lat="43.61611" lon="7.04081">
        <ele>168.81292724609</ele>
        <time>2020-05-14T12:46:49Z</time>
      </trkpt>
      <trkpt lat="43.61611" lon="7.04078">
        <ele>168.4931640625</ele>
        <time>2020-05-14T12:46:50Z</time>
      </trkpt>
      <trkpt lat="43.61612" lon="7.04075">
        <ele>169.47869873047</ele>
        <time>2020-05-14T12:46:51Z</time>
      </trkpt>
      <trkpt lat="43.61614" lon="7.04071">
        <ele>168.04272460938</ele>
        <time>2020-05-14T12:46:52Z</time>
      </trkpt>
      <trkpt lat="43.61615" lon="7.04067">
        <ele>167.77990722656</ele>
        <time>2020-05-14T12:46:53Z</time>
      </trkpt>
      <trkpt lat="43.61617" lon="7.04063">
        <ele>168.12609863281</ele>
        <time>2020-05-14T12:46:54Z</time>
      </trkpt>
      <trkpt lat="43.6162" lon="7.04059">
        <ele>168.59552001953</ele>
        <time>2020-05-14T12:46:55Z</time>
      </trkpt>
      <trkpt lat="43.61622" lon="7.04055">
        <ele>168.98126220703</ele>
        <time>2020-05-14T12:46:56Z</time>
      </trkpt>
      <trkpt lat="43.61624" lon="7.04051">
        <ele>168.67150878906</ele>
        <time>2020-05-14T12:46:57Z</time>
      </trkpt>
      <trkpt lat="43.61626" lon="7.04047">
        <ele>167.05523681641</ele>
        <time>2020-05-14T12:46:58Z</time>
      </trkpt>
      <trkpt lat="43.61628" lon="7.04043">
        <ele>166.07800292969</ele>
        <time>2020-05-14T12:46:59Z</time>
      </trkpt>
      <trkpt lat="43.6163" lon="7.04038">
        <ele>165.5947265625</ele>
        <time>2020-05-14T12:47:00Z</time>
      </trkpt>
      <trkpt lat="43.61631" lon="7.04033">
        <ele>166.46319580078</ele>
        <time>2020-05-14T12:47:01Z</time>
      </trkpt>
      <trkpt lat="43.61633" lon="7.04029">
        <ele>170.46820068359</ele>
        <time>2020-05-14T12:47:02Z</time>
      </trkpt>
      <trkpt lat="43.61635" lon="7.04025">
        <ele>169.32775878906</ele>
        <time>2020-05-14T12:47:03Z</time>
      </trkpt>
      <trkpt lat="43.61636" lon="7.0402">
        <ele>170.22198486328</ele>
        <time>2020-05-14T12:47:04Z</time>
      </trkpt>
      <trkpt lat="43.61637" lon="7.04015">
        <ele>170.69183349609</ele>
        <time>2020-05-14T12:47:05Z</time>
      </trkpt>
      <trkpt lat="43.61639" lon="7.0401">
        <ele>171.82781982422</ele>
        <time>2020-05-14T12:47:06Z</time>
      </trkpt>
      <trkpt lat="43.6164" lon="7.04006">
        <ele>172.52893066406</ele>
        <time>2020-05-14T12:47:07Z</time>
      </trkpt>
      <trkpt lat="43.61642" lon="7.04001">
        <ele>172.18090820312</ele>
        <time>2020-05-14T12:47:08Z</time>
      </trkpt>
      <trkpt lat="43.61644" lon="7.03997">
        <ele>169.29467773438</ele>
        <time>2020-05-14T12:47:09Z</time>
      </trkpt>
      <trkpt lat="43.61646" lon="7.03993">
        <ele>168.68072509766</ele>
        <time>2020-05-14T12:47:10Z</time>
      </trkpt>
      <trkpt lat="43.61648" lon="7.03987">
        <ele>168.92797851562</ele>
        <time>2020-05-14T12:47:11Z</time>
      </trkpt>
      <trkpt lat="43.6165" lon="7.03982">
        <ele>169.62902832031</ele>
        <time>2020-05-14T12:47:12Z</time>
      </trkpt>
      <trkpt lat="43.61651" lon="7.03977">
        <ele>169.3291015625</ele>
        <time>2020-05-14T12:47:13Z</time>
      </trkpt>
      <trkpt lat="43.61653" lon="7.03973">
        <ele>169.1767578125</ele>
        <time>2020-05-14T12:47:14Z</time>
      </trkpt>
      <trkpt lat="43.61655" lon="7.03968">
        <ele>174.95166015625</ele>
        <time>2020-05-14T12:47:15Z</time>
      </trkpt>
      <trkpt lat="43.61657" lon="7.03963">
        <ele>173.00042724609</ele>
        <time>2020-05-14T12:47:16Z</time>
      </trkpt>
      <trkpt lat="43.61659" lon="7.03959">
        <ele>169.29895019531</ele>
        <time>2020-05-14T12:47:17Z</time>
      </trkpt>
      <trkpt lat="43.61661" lon="7.03953">
        <ele>168.07348632812</ele>
        <time>2020-05-14T12:47:18Z</time>
      </trkpt>
      <trkpt lat="43.61662" lon="7.03948">
        <ele>171.98687744141</ele>
        <time>2020-05-14T12:47:19Z</time>
      </trkpt>
      <trkpt lat="43.61664" lon="7.03944">
        <ele>170.4443359375</ele>
        <time>2020-05-14T12:47:20Z</time>
      </trkpt>
      <trkpt lat="43.61666" lon="7.03939">
        <ele>170.7578125</ele>
        <time>2020-05-14T12:47:21Z</time>
      </trkpt>
      <trkpt lat="43.61667" lon="7.03934">
        <ele>172.00207519531</ele>
        <time>2020-05-14T12:47:22Z</time>
      </trkpt>
      <trkpt lat="43.61669" lon="7.0393">
        <ele>169.07354736328</ele>
        <time>2020-05-14T12:47:23Z</time>
      </trkpt>
      <trkpt lat="43.61671" lon="7.03926">
        <ele>168.27709960938</ele>
        <time>2020-05-14T12:47:24Z</time>
      </trkpt>
      <trkpt lat="43.61672" lon="7.03921">
        <ele>173.80603027344</ele>
        <time>2020-05-14T12:47:25Z</time>
      </trkpt>
      <trkpt lat="43.61674" lon="7.03916">
        <ele>172.03295898438</ele>
        <time>2020-05-14T12:47:26Z</time>
      </trkpt>
      <trkpt lat="43.61675" lon="7.03912">
        <ele>170.87377929688</ele>
        <time>2020-05-14T12:47:27Z</time>
      </trkpt>
      <trkpt lat="43.61676" lon="7.03907">
        <ele>170.60083007812</ele>
        <time>2020-05-14T12:47:28Z</time>
      </trkpt>
      <trkpt lat="43.61678" lon="7.03902">
        <ele>171.18029785156</ele>
        <time>2020-05-14T12:47:29Z</time>
      </trkpt>
      <trkpt lat="43.61679" lon="7.03897">
        <ele>171.42706298828</ele>
        <time>2020-05-14T12:47:30Z</time>
      </trkpt>
      <trkpt lat="43.61679" lon="7.03892">
        <ele>172.34820556641</ele>
        <time>2020-05-14T12:47:31Z</time>
      </trkpt>
      <trkpt lat="43.6168" lon="7.03888">
        <ele>172.87127685547</ele>
        <time>2020-05-14T12:47:32Z</time>
      </trkpt>
      <trkpt lat="43.61682" lon="7.03884">
        <ele>168.26690673828</ele>
        <time>2020-05-14T12:47:33Z</time>
      </trkpt>
      <trkpt lat="43.61683" lon="7.03879">
        <ele>168.19427490234</ele>
        <time>2020-05-14T12:47:34Z</time>
      </trkpt>
      <trkpt lat="43.61685" lon="7.03874">
        <ele>167.99011230469</ele>
        <time>2020-05-14T12:47:35Z</time>
      </trkpt>
      <trkpt lat="43.61686" lon="7.03869">
        <ele>167.52673339844</ele>
        <time>2020-05-14T12:47:36Z</time>
      </trkpt>
      <trkpt lat="43.61688" lon="7.03865">
        <ele>168.8818359375</ele>
        <time>2020-05-14T12:47:37Z</time>
      </trkpt>
      <trkpt lat="43.61689" lon="7.0386">
        <ele>174.34460449219</ele>
        <time>2020-05-14T12:47:38Z</time>
      </trkpt>
      <trkpt lat="43.61691" lon="7.03855">
        <ele>173.55310058594</ele>
        <time>2020-05-14T12:47:39Z</time>
      </trkpt>
      <trkpt lat="43.61693" lon="7.0385">
        <ele>172.14697265625</ele>
        <time>2020-05-14T12:47:40Z</time>
      </trkpt>
      <trkpt lat="43.61695" lon="7.03845">
        <ele>172.72424316406</ele>
        <time>2020-05-14T12:47:41Z</time>
      </trkpt>
      <trkpt lat="43.61697" lon="7.03841">
        <ele>169.18713378906</ele>
        <time>2020-05-14T12:47:42Z</time>
      </trkpt>
      <trkpt lat="43.617" lon="7.03837">
        <ele>169.35485839844</ele>
        <time>2020-05-14T12:47:43Z</time>
      </trkpt>
      <trkpt lat="43.61703" lon="7.03833">
        <ele>168.57556152344</ele>
        <time>2020-05-14T12:47:44Z</time>
      </trkpt>
      <trkpt lat="43.61708" lon="7.03831">
        <ele>169.69970703125</ele>
        <time>2020-05-14T12:47:45Z</time>
      </trkpt>
      <trkpt lat="43.61712" lon="7.03826">
        <ele>173.59185791016</ele>
        <time>2020-05-14T12:47:46Z</time>
      </trkpt>
      <trkpt lat="43.61715" lon="7.03822">
        <ele>173.44311523438</ele>
        <time>2020-05-14T12:47:47Z</time>
      </trkpt>
      <trkpt lat="43.61719" lon="7.03817">
        <ele>174.15771484375</ele>
        <time>2020-05-14T12:47:48Z</time>
      </trkpt>
      <trkpt lat="43.61722" lon="7.03813">
        <ele>173.81622314453</ele>
        <time>2020-05-14T12:47:49Z</time>
      </trkpt>
      <trkpt lat="43.61724" lon="7.03806">
        <ele>173.00750732422</ele>
        <time>2020-05-14T12:47:50Z</time>
      </trkpt>
      <trkpt lat="43.61726" lon="7.03801">
        <ele>173.15374755859</ele>
        <time>2020-05-14T12:47:51Z</time>
      </trkpt>
      <trkpt lat="43.61728" lon="7.03796">
        <ele>172.04626464844</ele>
        <time>2020-05-14T12:47:52Z</time>
      </trkpt>
      <trkpt lat="43.61729" lon="7.03789">
        <ele>171.21917724609</ele>
        <time>2020-05-14T12:47:53Z</time>
      </trkpt>
      <trkpt lat="43.61731" lon="7.03783">
        <ele>171.40710449219</ele>
        <time>2020-05-14T12:47:54Z</time>
      </trkpt>
      <trkpt lat="43.61731" lon="7.03777">
        <ele>171.86120605469</ele>
        <time>2020-05-14T12:47:55Z</time>
      </trkpt>
      <trkpt lat="43.61731" lon="7.03773">
        <ele>172.31042480469</ele>
        <time>2020-05-14T12:47:56Z</time>
      </trkpt>
      <trkpt lat="43.61731" lon="7.03767">
        <ele>172.6279296875</ele>
        <time>2020-05-14T12:47:57Z</time>
      </trkpt>
      <trkpt lat="43.61731" lon="7.03763">
        <ele>173.46734619141</ele>
        <time>2020-05-14T12:47:58Z</time>
      </trkpt>
      <trkpt lat="43.61731" lon="7.03757">
        <ele>173.70922851562</ele>
        <time>2020-05-14T12:47:59Z</time>
      </trkpt>
      <trkpt lat="43.61731" lon="7.03752">
        <ele>173.24475097656</ele>
        <time>2020-05-14T12:48:00Z</time>
      </trkpt>
      <trkpt lat="43.61731" lon="7.03747">
        <ele>173.51702880859</ele>
        <time>2020-05-14T12:48:01Z</time>
      </trkpt>
      <trkpt lat="43.61731" lon="7.03742">
        <ele>172.16577148438</ele>
        <time>2020-05-14T12:48:02Z</time>
      </trkpt>
      <trkpt lat="43.61733" lon="7.03738">
        <ele>172.74792480469</ele>
        <time>2020-05-14T12:48:03Z</time>
      </trkpt>
      <trkpt lat="43.61735" lon="7.03733">
        <ele>172.91564941406</ele>
        <time>2020-05-14T12:48:04Z</time>
      </trkpt>
      <trkpt lat="43.61738" lon="7.03729">
        <ele>172.26605224609</ele>
        <time>2020-05-14T12:48:05Z</time>
      </trkpt>
      <trkpt lat="43.6174" lon="7.03725">
        <ele>172.52276611328</ele>
        <time>2020-05-14T12:48:06Z</time>
      </trkpt>
      <trkpt lat="43.61744" lon="7.03721">
        <ele>172.92681884766</ele>
        <time>2020-05-14T12:48:07Z</time>
      </trkpt>
      <trkpt lat="43.61746" lon="7.03715">
        <ele>173.56921386719</ele>
        <time>2020-05-14T12:48:08Z</time>
      </trkpt>
      <trkpt lat="43.61749" lon="7.03709">
        <ele>173.15905761719</ele>
        <time>2020-05-14T12:48:09Z</time>
      </trkpt>
      <trkpt lat="43.61752" lon="7.03703">
        <ele>173.21936035156</ele>
        <time>2020-05-14T12:48:10Z</time>
      </trkpt>
      <trkpt lat="43.61755" lon="7.03696">
        <ele>173.55657958984</ele>
        <time>2020-05-14T12:48:11Z</time>
      </trkpt>
      <trkpt lat="43.61758" lon="7.0369">
        <ele>173.82470703125</ele>
        <time>2020-05-14T12:48:12Z</time>
      </trkpt>
      <trkpt lat="43.6176" lon="7.03684">
        <ele>174.65130615234</ele>
        <time>2020-05-14T12:48:13Z</time>
      </trkpt>
      <trkpt lat="43.61763" lon="7.03678">
        <ele>171.98004150391</ele>
        <time>2020-05-14T12:48:14Z</time>
      </trkpt>
      <trkpt lat="43.61766" lon="7.03671">
        <ele>172.35125732422</ele>
        <time>2020-05-14T12:48:15Z</time>
      </trkpt>
      <trkpt lat="43.61768" lon="7.03665">
        <ele>173.04180908203</ele>
        <time>2020-05-14T12:48:16Z</time>
      </trkpt>
      <trkpt lat="43.61771" lon="7.03659">
        <ele>178.27508544922</ele>
        <time>2020-05-14T12:48:17Z</time>
      </trkpt>
      <trkpt lat="43.61773" lon="7.03653">
        <ele>175.82556152344</ele>
        <time>2020-05-14T12:48:18Z</time>
      </trkpt>
      <trkpt lat="43.61775" lon="7.03646">
        <ele>175.72497558594</ele>
        <time>2020-05-14T12:48:19Z</time>
      </trkpt>
      <trkpt lat="43.61777" lon="7.03639">
        <ele>176.00433349609</ele>
        <time>2020-05-14T12:48:20Z</time>
      </trkpt>
      <trkpt lat="43.61779" lon="7.03632">
        <ele>176.56433105469</ele>
        <time>2020-05-14T12:48:21Z</time>
      </trkpt>
      <trkpt lat="43.61781" lon="7.03624">
        <ele>177.484375</ele>
        <time>2020-05-14T12:48:22Z</time>
      </trkpt>
      <trkpt lat="43.61782" lon="7.03617">
        <ele>178.13415527344</ele>
        <time>2020-05-14T12:48:23Z</time>
      </trkpt>
      <trkpt lat="43.61784" lon="7.03609">
        <ele>182.67395019531</ele>
        <time>2020-05-14T12:48:24Z</time>
      </trkpt>
      <trkpt lat="43.61786" lon="7.03603">
        <ele>181.05627441406</ele>
        <time>2020-05-14T12:48:25Z</time>
      </trkpt>
      <trkpt lat="43.61788" lon="7.03595">
        <ele>179.16625976562</ele>
        <time>2020-05-14T12:48:26Z</time>
      </trkpt>
      <trkpt lat="43.6179" lon="7.03588">
        <ele>178.60266113281</ele>
        <time>2020-05-14T12:48:27Z</time>
      </trkpt>
      <trkpt lat="43.61792" lon="7.03582">
        <ele>176.41705322266</ele>
        <time>2020-05-14T12:48:28Z</time>
      </trkpt>
      <trkpt lat="43.61793" lon="7.03575">
        <ele>176.91876220703</ele>
        <time>2020-05-14T12:48:29Z</time>
      </trkpt>
      <trkpt lat="43.61795" lon="7.03568">
        <ele>176.41906738281</ele>
        <time>2020-05-14T12:48:30Z</time>
      </trkpt>
      <trkpt lat="43.61797" lon="7.03562">
        <ele>182.94940185547</ele>
        <time>2020-05-14T12:48:31Z</time>
      </trkpt>
      <trkpt lat="43.61799" lon="7.03557">
        <ele>185.64196777344</ele>
        <time>2020-05-14T12:48:32Z</time>
      </trkpt>
      <trkpt lat="43.61801" lon="7.0355">
        <ele>185.38232421875</ele>
        <time>2020-05-14T12:48:33Z</time>
      </trkpt>
      <trkpt lat="43.61803" lon="7.03543">
        <ele>184.91265869141</ele>
        <time>2020-05-14T12:48:34Z</time>
      </trkpt>
      <trkpt lat="43.61805" lon="7.03538">
        <ele>184.85308837891</ele>
        <time>2020-05-14T12:48:35Z</time>
      </trkpt>
      <trkpt lat="43.61808" lon="7.03532">
        <ele>185.65576171875</ele>
        <time>2020-05-14T12:48:36Z</time>
      </trkpt>
      <trkpt lat="43.61811" lon="7.03526">
        <ele>185.640625</ele>
        <time>2020-05-14T12:48:37Z</time>
      </trkpt>
      <trkpt lat="43.61813" lon="7.0352">
        <ele>185.18884277344</ele>
        <time>2020-05-14T12:48:38Z</time>
      </trkpt>
      <trkpt lat="43.61815" lon="7.03514">
        <ele>184.99438476562</ele>
        <time>2020-05-14T12:48:39Z</time>
      </trkpt>
      <trkpt lat="43.61818" lon="7.03508">
        <ele>185.39184570312</ele>
        <time>2020-05-14T12:48:40Z</time>
      </trkpt>
      <trkpt lat="43.6182" lon="7.03501">
        <ele>184.92266845703</ele>
        <time>2020-05-14T12:48:41Z</time>
      </trkpt>
      <trkpt lat="43.61821" lon="7.03495">
        <ele>185.98083496094</ele>
        <time>2020-05-14T12:48:42Z</time>
      </trkpt>
      <trkpt lat="43.61822" lon="7.03488">
        <ele>186.38995361328</ele>
        <time>2020-05-14T12:48:43Z</time>
      </trkpt>
      <trkpt lat="43.61823" lon="7.03482">
        <ele>186.4736328125</ele>
        <time>2020-05-14T12:48:44Z</time>
      </trkpt>
      <trkpt lat="43.61825" lon="7.03475">
        <ele>186.24291992188</ele>
        <time>2020-05-14T12:48:45Z</time>
      </trkpt>
      <trkpt lat="43.61827" lon="7.03467">
        <ele>170.06079101562</ele>
        <time>2020-05-14T12:48:46Z</time>
      </trkpt>
      <trkpt lat="43.61829" lon="7.03461">
        <ele>173.22003173828</ele>
        <time>2020-05-14T12:48:47Z</time>
      </trkpt>
      <trkpt lat="43.61831" lon="7.03456">
        <ele>171.22583007812</ele>
        <time>2020-05-14T12:48:48Z</time>
      </trkpt>
      <trkpt lat="43.61832" lon="7.03447">
        <ele>170.88024902344</ele>
        <time>2020-05-14T12:48:49Z</time>
      </trkpt>
      <trkpt lat="43.61833" lon="7.03441">
        <ele>171.00457763672</ele>
        <time>2020-05-14T12:48:50Z</time>
      </trkpt>
      <trkpt lat="43.61835" lon="7.03435">
        <ele>170.57238769531</ele>
        <time>2020-05-14T12:48:51Z</time>
      </trkpt>
      <trkpt lat="43.61837" lon="7.0343">
        <ele>171.59759521484</ele>
        <time>2020-05-14T12:48:52Z</time>
      </trkpt>
      <trkpt lat="43.61838" lon="7.03424">
        <ele>172.20104980469</ele>
        <time>2020-05-14T12:48:53Z</time>
      </trkpt>
      <trkpt lat="43.61838" lon="7.03418">
        <ele>172.51281738281</ele>
        <time>2020-05-14T12:48:54Z</time>
      </trkpt>
      <trkpt lat="43.6184" lon="7.03413">
        <ele>172.89404296875</ele>
        <time>2020-05-14T12:48:55Z</time>
      </trkpt>
      <trkpt lat="43.61841" lon="7.03406">
        <ele>173.09722900391</ele>
        <time>2020-05-14T12:48:56Z</time>
      </trkpt>
      <trkpt lat="43.61842" lon="7.034">
        <ele>174.27465820312</ele>
        <time>2020-05-14T12:48:57Z</time>
      </trkpt>
      <trkpt lat="43.61842" lon="7.03393">
        <ele>173.89245605469</ele>
        <time>2020-05-14T12:48:58Z</time>
      </trkpt>
      <trkpt lat="43.61843" lon="7.03386">
        <ele>174.75134277344</ele>
        <time>2020-05-14T12:48:59Z</time>
      </trkpt>
      <trkpt lat="43.61844" lon="7.0338">
        <ele>175.74725341797</ele>
        <time>2020-05-14T12:49:00Z</time>
      </trkpt>
      <trkpt lat="43.61845" lon="7.03374">
        <ele>175.10137939453</ele>
        <time>2020-05-14T12:49:01Z</time>
      </trkpt>
      <trkpt lat="43.61846" lon="7.03367">
        <ele>174.11468505859</ele>
        <time>2020-05-14T12:49:02Z</time>
      </trkpt>
      <trkpt lat="43.61846" lon="7.0336">
        <ele>174.39251708984</ele>
        <time>2020-05-14T12:49:03Z</time>
      </trkpt>
      <trkpt lat="43.61845" lon="7.03352">
        <ele>173.56787109375</ele>
        <time>2020-05-14T12:49:04Z</time>
      </trkpt>
      <trkpt lat="43.61846" lon="7.03348">
        <ele>173.63049316406</ele>
        <time>2020-05-14T12:49:05Z</time>
      </trkpt>
      <trkpt lat="43.61849" lon="7.03341">
        <ele>171.86279296875</ele>
        <time>2020-05-14T12:49:06Z</time>
      </trkpt>
      <trkpt lat="43.61849" lon="7.03334">
        <ele>171.01831054688</ele>
        <time>2020-05-14T12:49:07Z</time>
      </trkpt>
      <trkpt lat="43.61849" lon="7.0333">
        <ele>170.68536376953</ele>
        <time>2020-05-14T12:49:08Z</time>
      </trkpt>
      <trkpt lat="43.61849" lon="7.03325">
        <ele>170.26873779297</ele>
        <time>2020-05-14T12:49:09Z</time>
      </trkpt>
      <trkpt lat="43.6185" lon="7.03319">
        <ele>171.15625</ele>
        <time>2020-05-14T12:49:10Z</time>
      </trkpt>
      <trkpt lat="43.61851" lon="7.03313">
        <ele>172.57946777344</ele>
        <time>2020-05-14T12:49:11Z</time>
      </trkpt>
      <trkpt lat="43.61853" lon="7.03308">
        <ele>173.37054443359</ele>
        <time>2020-05-14T12:49:12Z</time>
      </trkpt>
      <trkpt lat="43.61856" lon="7.03302">
        <ele>172.16827392578</ele>
        <time>2020-05-14T12:49:13Z</time>
      </trkpt>
      <trkpt lat="43.61858" lon="7.03296">
        <ele>172.39495849609</ele>
        <time>2020-05-14T12:49:14Z</time>
      </trkpt>
      <trkpt lat="43.6186" lon="7.03291">
        <ele>171.75036621094</ele>
        <time>2020-05-14T12:49:15Z</time>
      </trkpt>
      <trkpt lat="43.61862" lon="7.03285">
        <ele>171.20727539062</ele>
        <time>2020-05-14T12:49:16Z</time>
      </trkpt>
      <trkpt lat="43.61863" lon="7.03279">
        <ele>172.46228027344</ele>
        <time>2020-05-14T12:49:17Z</time>
      </trkpt>
      <trkpt lat="43.61866" lon="7.03274">
        <ele>172.66265869141</ele>
        <time>2020-05-14T12:49:18Z</time>
      </trkpt>
      <trkpt lat="43.61868" lon="7.03269">
        <ele>172.36303710938</ele>
        <time>2020-05-14T12:49:19Z</time>
      </trkpt>
      <trkpt lat="43.6187" lon="7.03263">
        <ele>171.64422607422</ele>
        <time>2020-05-14T12:49:20Z</time>
      </trkpt>
      <trkpt lat="43.61871" lon="7.03258">
        <ele>171.70465087891</ele>
        <time>2020-05-14T12:49:21Z</time>
      </trkpt>
      <trkpt lat="43.61873" lon="7.03252">
        <ele>171.73468017578</ele>
        <time>2020-05-14T12:49:22Z</time>
      </trkpt>
      <trkpt lat="43.61877" lon="7.03247">
        <ele>170.34552001953</ele>
        <time>2020-05-14T12:49:23Z</time>
      </trkpt>
      <trkpt lat="43.61879" lon="7.03242">
        <ele>171.19372558594</ele>
        <time>2020-05-14T12:49:24Z</time>
      </trkpt>
      <trkpt lat="43.6188" lon="7.03237">
        <ele>171.58612060547</ele>
        <time>2020-05-14T12:49:25Z</time>
      </trkpt>
      <trkpt lat="43.61881" lon="7.03232">
        <ele>172.11254882812</ele>
        <time>2020-05-14T12:49:26Z</time>
      </trkpt>
      <trkpt lat="43.61883" lon="7.03227">
        <ele>172.19921875</ele>
        <time>2020-05-14T12:49:27Z</time>
      </trkpt>
      <trkpt lat="43.61884" lon="7.03221">
        <ele>172.78918457031</ele>
        <time>2020-05-14T12:49:28Z</time>
      </trkpt>
      <trkpt lat="43.61886" lon="7.03216">
        <ele>173.96435546875</ele>
        <time>2020-05-14T12:49:29Z</time>
      </trkpt>
      <trkpt lat="43.61888" lon="7.0321">
        <ele>173.74359130859</ele>
        <time>2020-05-14T12:49:30Z</time>
      </trkpt>
      <trkpt lat="43.6189" lon="7.03205">
        <ele>176.12048339844</ele>
        <time>2020-05-14T12:49:31Z</time>
      </trkpt>
      <trkpt lat="43.61893" lon="7.03199">
        <ele>178.10675048828</ele>
        <time>2020-05-14T12:49:32Z</time>
      </trkpt>
      <trkpt lat="43.61895" lon="7.03194">
        <ele>179.11560058594</ele>
        <time>2020-05-14T12:49:33Z</time>
      </trkpt>
      <trkpt lat="43.61899" lon="7.0319">
        <ele>177.44348144531</ele>
        <time>2020-05-14T12:49:34Z</time>
      </trkpt>
      <trkpt lat="43.61904" lon="7.03187">
        <ele>176.40264892578</ele>
        <time>2020-05-14T12:49:35Z</time>
      </trkpt>
      <trkpt lat="43.61907" lon="7.03182">
        <ele>176.81225585938</ele>
        <time>2020-05-14T12:49:36Z</time>
      </trkpt>
      <trkpt lat="43.61909" lon="7.03175">
        <ele>175.36242675781</ele>
        <time>2020-05-14T12:49:37Z</time>
      </trkpt>
      <trkpt lat="43.61912" lon="7.03169">
        <ele>183.46069335938</ele>
        <time>2020-05-14T12:49:38Z</time>
      </trkpt>
      <trkpt lat="43.61914" lon="7.03163">
        <ele>181.25689697266</ele>
        <time>2020-05-14T12:49:39Z</time>
      </trkpt>
      <trkpt lat="43.61916" lon="7.03156">
        <ele>179.439453125</ele>
        <time>2020-05-14T12:49:40Z</time>
      </trkpt>
      <trkpt lat="43.61919" lon="7.0315">
        <ele>176.8388671875</ele>
        <time>2020-05-14T12:49:41Z</time>
      </trkpt>
      <trkpt lat="43.61922" lon="7.03145">
        <ele>178.06842041016</ele>
        <time>2020-05-14T12:49:42Z</time>
      </trkpt>
      <trkpt lat="43.61924" lon="7.0314">
        <ele>186.43627929688</ele>
        <time>2020-05-14T12:49:43Z</time>
      </trkpt>
      <trkpt lat="43.61927" lon="7.03135">
        <ele>184.67395019531</ele>
        <time>2020-05-14T12:49:44Z</time>
      </trkpt>
      <trkpt lat="43.6193" lon="7.0313">
        <ele>185.6396484375</ele>
        <time>2020-05-14T12:49:45Z</time>
      </trkpt>
      <trkpt lat="43.61933" lon="7.03124">
        <ele>186.98010253906</ele>
        <time>2020-05-14T12:49:46Z</time>
      </trkpt>
      <trkpt lat="43.61936" lon="7.0312">
        <ele>191.38330078125</ele>
        <time>2020-05-14T12:49:47Z</time>
      </trkpt>
      <trkpt lat="43.61941" lon="7.03118">
        <ele>188.47424316406</ele>
        <time>2020-05-14T12:49:48Z</time>
      </trkpt>
      <trkpt lat="43.61944" lon="7.03113">
        <ele>184.70886230469</ele>
        <time>2020-05-14T12:49:49Z</time>
      </trkpt>
      <trkpt lat="43.61946" lon="7.03109">
        <ele>184.29437255859</ele>
        <time>2020-05-14T12:49:50Z</time>
      </trkpt>
      <trkpt lat="43.61949" lon="7.03104">
        <ele>185.55487060547</ele>
        <time>2020-05-14T12:49:51Z</time>
      </trkpt>
      <trkpt lat="43.61951" lon="7.03099">
        <ele>186.5634765625</ele>
        <time>2020-05-14T12:49:52Z</time>
      </trkpt>
      <trkpt lat="43.61954" lon="7.03094">
        <ele>187.31323242188</ele>
        <time>2020-05-14T12:49:53Z</time>
      </trkpt>
      <trkpt lat="43.61955" lon="7.03088">
        <ele>187.01342773438</ele>
        <time>2020-05-14T12:49:54Z</time>
      </trkpt>
      <trkpt lat="43.61957" lon="7.03084">
        <ele>186.42492675781</ele>
        <time>2020-05-14T12:49:55Z</time>
      </trkpt>
      <trkpt lat="43.61959" lon="7.03078">
        <ele>185.46838378906</ele>
        <time>2020-05-14T12:49:56Z</time>
      </trkpt>
      <trkpt lat="43.6196" lon="7.03072">
        <ele>186.91186523438</ele>
        <time>2020-05-14T12:49:57Z</time>
      </trkpt>
      <trkpt lat="43.61962" lon="7.03066">
        <ele>186.28118896484</ele>
        <time>2020-05-14T12:49:58Z</time>
      </trkpt>
      <trkpt lat="43.61963" lon="7.03061">
        <ele>188.06170654297</ele>
        <time>2020-05-14T12:49:59Z</time>
      </trkpt>
      <trkpt lat="43.61965" lon="7.03055">
        <ele>189.10491943359</ele>
        <time>2020-05-14T12:50:00Z</time>
      </trkpt>
      <trkpt lat="43.61967" lon="7.0305">
        <ele>186.88562011719</ele>
        <time>2020-05-14T12:50:01Z</time>
      </trkpt>
      <trkpt lat="43.61968" lon="7.03045">
        <ele>185.91241455078</ele>
        <time>2020-05-14T12:50:02Z</time>
      </trkpt>
      <trkpt lat="43.6197" lon="7.0304">
        <ele>185.30847167969</ele>
        <time>2020-05-14T12:50:03Z</time>
      </trkpt>
      <trkpt lat="43.61972" lon="7.03035">
        <ele>184.85699462891</ele>
        <time>2020-05-14T12:50:04Z</time>
      </trkpt>
      <trkpt lat="43.61974" lon="7.03031">
        <ele>192.90124511719</ele>
        <time>2020-05-14T12:50:05Z</time>
      </trkpt>
      <trkpt lat="43.61977" lon="7.03026">
        <ele>191.92553710938</ele>
        <time>2020-05-14T12:50:06Z</time>
      </trkpt>
      <trkpt lat="43.61979" lon="7.03021">
        <ele>190.00689697266</ele>
        <time>2020-05-14T12:50:07Z</time>
      </trkpt>
      <trkpt lat="43.61981" lon="7.03015">
        <ele>190.7021484375</ele>
        <time>2020-05-14T12:50:08Z</time>
      </trkpt>
      <trkpt lat="43.61982" lon="7.03008">
        <ele>189.08563232422</ele>
        <time>2020-05-14T12:50:09Z</time>
      </trkpt>
      <trkpt lat="43.61983" lon="7.03002">
        <ele>186.87530517578</ele>
        <time>2020-05-14T12:50:10Z</time>
      </trkpt>
      <trkpt lat="43.61986" lon="7.02999">
        <ele>188.93383789062</ele>
        <time>2020-05-14T12:50:11Z</time>
      </trkpt>
      <trkpt lat="43.61987" lon="7.02994">
        <ele>185.94775390625</ele>
        <time>2020-05-14T12:50:12Z</time>
      </trkpt>
      <trkpt lat="43.61988" lon="7.02989">
        <ele>193.34423828125</ele>
        <time>2020-05-14T12:50:13Z</time>
      </trkpt>
      <trkpt lat="43.61991" lon="7.02985">
        <ele>192.12017822266</ele>
        <time>2020-05-14T12:50:14Z</time>
      </trkpt>
      <trkpt lat="43.61992" lon="7.0298">
        <ele>191.69104003906</ele>
        <time>2020-05-14T12:50:15Z</time>
      </trkpt>
      <trkpt lat="43.61993" lon="7.02976">
        <ele>191.58715820312</ele>
        <time>2020-05-14T12:50:16Z</time>
      </trkpt>
      <trkpt lat="43.61995" lon="7.02971">
        <ele>191.3564453125</ele>
        <time>2020-05-14T12:50:17Z</time>
      </trkpt>
      <trkpt lat="43.61996" lon="7.02967">
        <ele>189.79382324219</ele>
        <time>2020-05-14T12:50:18Z</time>
      </trkpt>
      <trkpt lat="43.61997" lon="7.02962">
        <ele>191.18341064453</ele>
        <time>2020-05-14T12:50:19Z</time>
      </trkpt>
      <trkpt lat="43.61999" lon="7.02957">
        <ele>190.44226074219</ele>
        <time>2020-05-14T12:50:20Z</time>
      </trkpt>
      <trkpt lat="43.62" lon="7.02952">
        <ele>189.88598632812</ele>
        <time>2020-05-14T12:50:21Z</time>
      </trkpt>
      <trkpt lat="43.62002" lon="7.02947">
        <ele>190.61499023438</ele>
        <time>2020-05-14T12:50:22Z</time>
      </trkpt>
      <trkpt lat="43.62004" lon="7.02943">
        <ele>189.97991943359</ele>
        <time>2020-05-14T12:50:23Z</time>
      </trkpt>
      <trkpt lat="43.62006" lon="7.02938">
        <ele>189.46649169922</ele>
        <time>2020-05-14T12:50:24Z</time>
      </trkpt>
      <trkpt lat="43.62008" lon="7.02933">
        <ele>191.03875732422</ele>
        <time>2020-05-14T12:50:25Z</time>
      </trkpt>
      <trkpt lat="43.6201" lon="7.02928">
        <ele>190.15515136719</ele>
        <time>2020-05-14T12:50:26Z</time>
      </trkpt>
      <trkpt lat="43.62012" lon="7.02923">
        <ele>189.41290283203</ele>
        <time>2020-05-14T12:50:27Z</time>
      </trkpt>
      <trkpt lat="43.62015" lon="7.02917">
        <ele>189.70642089844</ele>
        <time>2020-05-14T12:50:28Z</time>
      </trkpt>
      <trkpt lat="43.62017" lon="7.02912">
        <ele>192.32049560547</ele>
        <time>2020-05-14T12:50:29Z</time>
      </trkpt>
      <trkpt lat="43.62019" lon="7.02907">
        <ele>191.59875488281</ele>
        <time>2020-05-14T12:50:30Z</time>
      </trkpt>
      <trkpt lat="43.62022" lon="7.02901">
        <ele>191.67663574219</ele>
        <time>2020-05-14T12:50:31Z</time>
      </trkpt>
      <trkpt lat="43.62024" lon="7.02896">
        <ele>193.64678955078</ele>
        <time>2020-05-14T12:50:32Z</time>
      </trkpt>
      <trkpt lat="43.62027" lon="7.02891">
        <ele>193.75177001953</ele>
        <time>2020-05-14T12:50:33Z</time>
      </trkpt>
      <trkpt lat="43.62029" lon="7.02886">
        <ele>195.01654052734</ele>
        <time>2020-05-14T12:50:34Z</time>
      </trkpt>
      <trkpt lat="43.62031" lon="7.0288">
        <ele>195.52532958984</ele>
        <time>2020-05-14T12:50:35Z</time>
      </trkpt>
      <trkpt lat="43.62033" lon="7.02875">
        <ele>195.18780517578</ele>
        <time>2020-05-14T12:50:36Z</time>
      </trkpt>
      <trkpt lat="43.62035" lon="7.0287">
        <ele>195.58752441406</ele>
        <time>2020-05-14T12:50:37Z</time>
      </trkpt>
      <trkpt lat="43.62039" lon="7.02865">
        <ele>195.552734375</ele>
        <time>2020-05-14T12:50:38Z</time>
      </trkpt>
      <trkpt lat="43.62042" lon="7.0286">
        <ele>195.56610107422</ele>
        <time>2020-05-14T12:50:39Z</time>
      </trkpt>
      <trkpt lat="43.62045" lon="7.02856">
        <ele>193.43359375</ele>
        <time>2020-05-14T12:50:40Z</time>
      </trkpt>
      <trkpt lat="43.62048" lon="7.02851">
        <ele>192.09997558594</ele>
        <time>2020-05-14T12:50:41Z</time>
      </trkpt>
      <trkpt lat="43.6205" lon="7.02845">
        <ele>190.77111816406</ele>
        <time>2020-05-14T12:50:42Z</time>
      </trkpt>
      <trkpt lat="43.62053" lon="7.0284">
        <ele>192.67810058594</ele>
        <time>2020-05-14T12:50:43Z</time>
      </trkpt>
      <trkpt lat="43.62056" lon="7.02836">
        <ele>195.37396240234</ele>
        <time>2020-05-14T12:50:44Z</time>
      </trkpt>
      <trkpt lat="43.62059" lon="7.02831">
        <ele>195.68756103516</ele>
        <time>2020-05-14T12:50:45Z</time>
      </trkpt>
      <trkpt lat="43.62062" lon="7.02826">
        <ele>196.05065917969</ele>
        <time>2020-05-14T12:50:46Z</time>
      </trkpt>
      <trkpt lat="43.62064" lon="7.02821">
        <ele>198.38702392578</ele>
        <time>2020-05-14T12:50:47Z</time>
      </trkpt>
      <trkpt lat="43.62067" lon="7.02816">
        <ele>197.11865234375</ele>
        <time>2020-05-14T12:50:48Z</time>
      </trkpt>
      <trkpt lat="43.62071" lon="7.02811">
        <ele>196.92724609375</ele>
        <time>2020-05-14T12:50:49Z</time>
      </trkpt>
      <trkpt lat="43.62072" lon="7.02805">
        <ele>197.55834960938</ele>
        <time>2020-05-14T12:50:50Z</time>
      </trkpt>
      <trkpt lat="43.62074" lon="7.02799">
        <ele>198.59240722656</ele>
        <time>2020-05-14T12:50:51Z</time>
      </trkpt>
      <trkpt lat="43.62076" lon="7.02793">
        <ele>196.26806640625</ele>
        <time>2020-05-14T12:50:52Z</time>
      </trkpt>
      <trkpt lat="43.6208" lon="7.0279">
        <ele>194.09942626953</ele>
        <time>2020-05-14T12:50:53Z</time>
      </trkpt>
      <trkpt lat="43.62082" lon="7.02784">
        <ele>190.73889160156</ele>
        <time>2020-05-14T12:50:54Z</time>
      </trkpt>
      <trkpt lat="43.62085" lon="7.0278">
        <ele>192.15405273438</ele>
        <time>2020-05-14T12:50:55Z</time>
      </trkpt>
      <trkpt lat="43.62087" lon="7.02775">
        <ele>191.89971923828</ele>
        <time>2020-05-14T12:50:56Z</time>
      </trkpt>
      <trkpt lat="43.62089" lon="7.0277">
        <ele>192.26916503906</ele>
        <time>2020-05-14T12:50:57Z</time>
      </trkpt>
      <trkpt lat="43.62091" lon="7.02763">
        <ele>191.55645751953</ele>
        <time>2020-05-14T12:50:58Z</time>
      </trkpt>
      <trkpt lat="43.62092" lon="7.02756">
        <ele>199.92449951172</ele>
        <time>2020-05-14T12:50:59Z</time>
      </trkpt>
      <trkpt lat="43.62093" lon="7.0275">
        <ele>195.38482666016</ele>
        <time>2020-05-14T12:51:00Z</time>
      </trkpt>
      <trkpt lat="43.62095" lon="7.02743">
        <ele>194.73034667969</ele>
        <time>2020-05-14T12:51:01Z</time>
      </trkpt>
      <trkpt lat="43.62097" lon="7.02736">
        <ele>195.94696044922</ele>
        <time>2020-05-14T12:51:02Z</time>
      </trkpt>
      <trkpt lat="43.62098" lon="7.02729">
        <ele>196.17816162109</ele>
        <time>2020-05-14T12:51:03Z</time>
      </trkpt>
      <trkpt lat="43.62101" lon="7.02723">
        <ele>194.90521240234</ele>
        <time>2020-05-14T12:51:04Z</time>
      </trkpt>
      <trkpt lat="43.62104" lon="7.02717">
        <ele>195.09088134766</ele>
        <time>2020-05-14T12:51:05Z</time>
      </trkpt>
      <trkpt lat="43.62107" lon="7.0271">
        <ele>195.28247070312</ele>
        <time>2020-05-14T12:51:06Z</time>
      </trkpt>
      <trkpt lat="43.62109" lon="7.02704">
        <ele>196.48388671875</ele>
        <time>2020-05-14T12:51:07Z</time>
      </trkpt>
      <trkpt lat="43.62112" lon="7.02698">
        <ele>196.81896972656</ele>
        <time>2020-05-14T12:51:08Z</time>
      </trkpt>
      <trkpt lat="43.62115" lon="7.02692">
        <ele>197.63647460938</ele>
        <time>2020-05-14T12:51:09Z</time>
      </trkpt>
      <trkpt lat="43.62118" lon="7.02685">
        <ele>196.05487060547</ele>
        <time>2020-05-14T12:51:10Z</time>
      </trkpt>
      <trkpt lat="43.62119" lon="7.02679">
        <ele>194.34051513672</ele>
        <time>2020-05-14T12:51:11Z</time>
      </trkpt>
      <trkpt lat="43.62122" lon="7.02672">
        <ele>194.96087646484</ele>
        <time>2020-05-14T12:51:12Z</time>
      </trkpt>
      <trkpt lat="43.62124" lon="7.02666">
        <ele>190.98004150391</ele>
        <time>2020-05-14T12:51:13Z</time>
      </trkpt>
      <trkpt lat="43.62127" lon="7.0266">
        <ele>188.39923095703</ele>
        <time>2020-05-14T12:51:14Z</time>
      </trkpt>
      <trkpt lat="43.6213" lon="7.02652">
        <ele>188.63891601562</ele>
        <time>2020-05-14T12:51:15Z</time>
      </trkpt>
      <trkpt lat="43.62132" lon="7.02646">
        <ele>189.42468261719</ele>
        <time>2020-05-14T12:51:16Z</time>
      </trkpt>
      <trkpt lat="43.62135" lon="7.02639">
        <ele>190.271484375</ele>
        <time>2020-05-14T12:51:17Z</time>
      </trkpt>
      <trkpt lat="43.62138" lon="7.02634">
        <ele>190.72137451172</ele>
        <time>2020-05-14T12:51:18Z</time>
      </trkpt>
      <trkpt lat="43.62142" lon="7.02628">
        <ele>190.19268798828</ele>
        <time>2020-05-14T12:51:19Z</time>
      </trkpt>
      <trkpt lat="43.62144" lon="7.02621">
        <ele>188.49542236328</ele>
        <time>2020-05-14T12:51:20Z</time>
      </trkpt>
      <trkpt lat="43.62147" lon="7.02615">
        <ele>183.29370117188</ele>
        <time>2020-05-14T12:51:21Z</time>
      </trkpt>
      <trkpt lat="43.62148" lon="7.02609">
        <ele>183.82983398438</ele>
        <time>2020-05-14T12:51:22Z</time>
      </trkpt>
      <trkpt lat="43.6215" lon="7.02603">
        <ele>183.54119873047</ele>
        <time>2020-05-14T12:51:23Z</time>
      </trkpt>
      <trkpt lat="43.62153" lon="7.02597">
        <ele>185.01812744141</ele>
        <time>2020-05-14T12:51:24Z</time>
      </trkpt>
      <trkpt lat="43.62154" lon="7.0259">
        <ele>184.75738525391</ele>
        <time>2020-05-14T12:51:25Z</time>
      </trkpt>
      <trkpt lat="43.62156" lon="7.02583">
        <ele>185.23620605469</ele>
        <time>2020-05-14T12:51:26Z</time>
      </trkpt>
      <trkpt lat="43.62158" lon="7.02576">
        <ele>187.82672119141</ele>
        <time>2020-05-14T12:51:27Z</time>
      </trkpt>
      <trkpt lat="43.62159" lon="7.02571">
        <ele>185.47589111328</ele>
        <time>2020-05-14T12:51:28Z</time>
      </trkpt>
      <trkpt lat="43.62162" lon="7.02565">
        <ele>182.99560546875</ele>
        <time>2020-05-14T12:51:29Z</time>
      </trkpt>
      <trkpt lat="43.62163" lon="7.02558">
        <ele>184.18298339844</ele>
        <time>2020-05-14T12:51:30Z</time>
      </trkpt>
      <trkpt lat="43.62164" lon="7.02551">
        <ele>185.00354003906</ele>
        <time>2020-05-14T12:51:31Z</time>
      </trkpt>
      <trkpt lat="43.62166" lon="7.02545">
        <ele>184.36798095703</ele>
        <time>2020-05-14T12:51:32Z</time>
      </trkpt>
      <trkpt lat="43.62166" lon="7.02538">
        <ele>182.71850585938</ele>
        <time>2020-05-14T12:51:33Z</time>
      </trkpt>
      <trkpt lat="43.62168" lon="7.02532">
        <ele>181.77868652344</ele>
        <time>2020-05-14T12:51:34Z</time>
      </trkpt>
      <trkpt lat="43.62169" lon="7.02525">
        <ele>181.42742919922</ele>
        <time>2020-05-14T12:51:35Z</time>
      </trkpt>
      <trkpt lat="43.62171" lon="7.02519">
        <ele>184.16522216797</ele>
        <time>2020-05-14T12:51:36Z</time>
      </trkpt>
      <trkpt lat="43.62172" lon="7.02512">
        <ele>185.13171386719</ele>
        <time>2020-05-14T12:51:37Z</time>
      </trkpt>
      <trkpt lat="43.62172" lon="7.02506">
        <ele>186.91864013672</ele>
        <time>2020-05-14T12:51:38Z</time>
      </trkpt>
      <trkpt lat="43.62172" lon="7.025">
        <ele>185.91650390625</ele>
        <time>2020-05-14T12:51:39Z</time>
      </trkpt>
      <trkpt lat="43.62173" lon="7.02493">
        <ele>186.34875488281</ele>
        <time>2020-05-14T12:51:40Z</time>
      </trkpt>
      <trkpt lat="43.62172" lon="7.02487">
        <ele>185.45715332031</ele>
        <time>2020-05-14T12:51:41Z</time>
      </trkpt>
      <trkpt lat="43.62172" lon="7.0248">
        <ele>184.74389648438</ele>
        <time>2020-05-14T12:51:42Z</time>
      </trkpt>
      <trkpt lat="43.62171" lon="7.02474">
        <ele>183.16070556641</ele>
        <time>2020-05-14T12:51:43Z</time>
      </trkpt>
      <trkpt lat="43.62171" lon="7.02468">
        <ele>181.50982666016</ele>
        <time>2020-05-14T12:51:44Z</time>
      </trkpt>
      <trkpt lat="43.6217" lon="7.02462">
        <ele>184.85406494141</ele>
        <time>2020-05-14T12:51:45Z</time>
      </trkpt>
      <trkpt lat="43.62172" lon="7.02454">
        <ele>190.44396972656</ele>
        <time>2020-05-14T12:51:46Z</time>
      </trkpt>
      <trkpt lat="43.62172" lon="7.02447">
        <ele>185.68359375</ele>
        <time>2020-05-14T12:51:47Z</time>
      </trkpt>
      <trkpt lat="43.62172" lon="7.0244">
        <ele>185.12475585938</ele>
        <time>2020-05-14T12:51:48Z</time>
      </trkpt>
      <trkpt lat="43.62171" lon="7.02434">
        <ele>183.18139648438</ele>
        <time>2020-05-14T12:51:49Z</time>
      </trkpt>
      <trkpt lat="43.62171" lon="7.02429">
        <ele>185.16522216797</ele>
        <time>2020-05-14T12:51:50Z</time>
      </trkpt>
      <trkpt lat="43.6217" lon="7.02423">
        <ele>185.49157714844</ele>
        <time>2020-05-14T12:51:51Z</time>
      </trkpt>
      <trkpt lat="43.6217" lon="7.02417">
        <ele>188.39221191406</ele>
        <time>2020-05-14T12:51:52Z</time>
      </trkpt>
      <trkpt lat="43.6217" lon="7.02413">
        <ele>191.1826171875</ele>
        <time>2020-05-14T12:51:53Z</time>
      </trkpt>
      <trkpt lat="43.62169" lon="7.02407">
        <ele>194.90667724609</ele>
        <time>2020-05-14T12:51:54Z</time>
      </trkpt>
      <trkpt lat="43.62169" lon="7.02402">
        <ele>198.01568603516</ele>
        <time>2020-05-14T12:51:55Z</time>
      </trkpt>
      <trkpt lat="43.62169" lon="7.02397">
        <ele>198.70404052734</ele>
        <time>2020-05-14T12:51:56Z</time>
      </trkpt>
      <trkpt lat="43.62168" lon="7.02392">
        <ele>200.60693359375</ele>
        <time>2020-05-14T12:51:57Z</time>
      </trkpt>
      <trkpt lat="43.62168" lon="7.02387">
        <ele>200.80590820312</ele>
        <time>2020-05-14T12:51:58Z</time>
      </trkpt>
      <trkpt lat="43.62168" lon="7.02382">
        <ele>200.80218505859</ele>
        <time>2020-05-14T12:51:59Z</time>
      </trkpt>
      <trkpt lat="43.62168" lon="7.02377">
        <ele>201.14886474609</ele>
        <time>2020-05-14T12:52:00Z</time>
      </trkpt>
      <trkpt lat="43.62167" lon="7.02372">
        <ele>201.42919921875</ele>
        <time>2020-05-14T12:52:01Z</time>
      </trkpt>
      <trkpt lat="43.62167" lon="7.02368">
        <ele>201.50439453125</ele>
        <time>2020-05-14T12:52:02Z</time>
      </trkpt>
      <trkpt lat="43.62167" lon="7.02363">
        <ele>201.49890136719</ele>
        <time>2020-05-14T12:52:03Z</time>
      </trkpt>
      <trkpt lat="43.62166" lon="7.02358">
        <ele>201.67755126953</ele>
        <time>2020-05-14T12:52:04Z</time>
      </trkpt>
      <trkpt lat="43.62166" lon="7.02354">
        <ele>201.69909667969</ele>
        <time>2020-05-14T12:52:05Z</time>
      </trkpt>
      <trkpt lat="43.62166" lon="7.02349">
        <ele>201.64172363281</ele>
        <time>2020-05-14T12:52:06Z</time>
      </trkpt>
      <trkpt lat="43.62166" lon="7.02344">
        <ele>201.82861328125</ele>
        <time>2020-05-14T12:52:07Z</time>
      </trkpt>
      <trkpt lat="43.62167" lon="7.0234">
        <ele>201.91021728516</ele>
        <time>2020-05-14T12:52:08Z</time>
      </trkpt>
      <trkpt lat="43.62167" lon="7.02336">
        <ele>202.23565673828</ele>
        <time>2020-05-14T12:52:09Z</time>
      </trkpt>
      <trkpt lat="43.62167" lon="7.02331">
        <ele>202.47265625</ele>
        <time>2020-05-14T12:52:10Z</time>
      </trkpt>
      <trkpt lat="43.62167" lon="7.02327">
        <ele>202.97143554688</ele>
        <time>2020-05-14T12:52:11Z</time>
      </trkpt>
      <trkpt lat="43.62167" lon="7.02322">
        <ele>209.36303710938</ele>
        <time>2020-05-14T12:52:12Z</time>
      </trkpt>
      <trkpt lat="43.62167" lon="7.02318">
        <ele>206.98950195312</ele>
        <time>2020-05-14T12:52:13Z</time>
      </trkpt>
      <trkpt lat="43.62167" lon="7.02313">
        <ele>205.32739257812</ele>
        <time>2020-05-14T12:52:14Z</time>
      </trkpt>
      <trkpt lat="43.62167" lon="7.02309">
        <ele>206.23358154297</ele>
        <time>2020-05-14T12:52:15Z</time>
      </trkpt>
      <trkpt lat="43.62167" lon="7.02305">
        <ele>210.60217285156</ele>
        <time>2020-05-14T12:52:16Z</time>
      </trkpt>
      <trkpt lat="43.62167" lon="7.023">
        <ele>211.17309570312</ele>
        <time>2020-05-14T12:52:17Z</time>
      </trkpt>
      <trkpt lat="43.62167" lon="7.02296">
        <ele>211.61511230469</ele>
        <time>2020-05-14T12:52:18Z</time>
      </trkpt>
      <trkpt lat="43.62167" lon="7.02291">
        <ele>211.90911865234</ele>
        <time>2020-05-14T12:52:19Z</time>
      </trkpt>
      <trkpt lat="43.62166" lon="7.02287">
        <ele>212.38226318359</ele>
        <time>2020-05-14T12:52:20Z</time>
      </trkpt>
      <trkpt lat="43.62166" lon="7.02282">
        <ele>209.90502929688</ele>
        <time>2020-05-14T12:52:21Z</time>
      </trkpt>
      <trkpt lat="43.62166" lon="7.02277">
        <ele>210.45599365234</ele>
        <time>2020-05-14T12:52:22Z</time>
      </trkpt>
      <trkpt lat="43.62165" lon="7.02273">
        <ele>210.50634765625</ele>
        <time>2020-05-14T12:52:23Z</time>
      </trkpt>
      <trkpt lat="43.62165" lon="7.02268">
        <ele>209.90112304688</ele>
        <time>2020-05-14T12:52:24Z</time>
      </trkpt>
      <trkpt lat="43.62164" lon="7.02263">
        <ele>208.22308349609</ele>
        <time>2020-05-14T12:52:25Z</time>
      </trkpt>
      <trkpt lat="43.62164" lon="7.02259">
        <ele>206.44183349609</ele>
        <time>2020-05-14T12:52:26Z</time>
      </trkpt>
      <trkpt lat="43.62164" lon="7.02254">
        <ele>204.90875244141</ele>
        <time>2020-05-14T12:52:27Z</time>
      </trkpt>
      <trkpt lat="43.62164" lon="7.02249">
        <ele>207.78430175781</ele>
        <time>2020-05-14T12:52:28Z</time>
      </trkpt>
      <trkpt lat="43.62164" lon="7.02245">
        <ele>204.17077636719</ele>
        <time>2020-05-14T12:52:29Z</time>
      </trkpt>
      <trkpt lat="43.62164" lon="7.0224">
        <ele>200.54956054688</ele>
        <time>2020-05-14T12:52:30Z</time>
      </trkpt>
      <trkpt lat="43.62164" lon="7.02236">
        <ele>208.98785400391</ele>
        <time>2020-05-14T12:52:31Z</time>
      </trkpt>
      <trkpt lat="43.62165" lon="7.02231">
        <ele>209.02459716797</ele>
        <time>2020-05-14T12:52:32Z</time>
      </trkpt>
      <trkpt lat="43.62165" lon="7.02226">
        <ele>214.38000488281</ele>
        <time>2020-05-14T12:52:33Z</time>
      </trkpt>
      <trkpt lat="43.62165" lon="7.02222">
        <ele>214.86602783203</ele>
        <time>2020-05-14T12:52:34Z</time>
      </trkpt>
      <trkpt lat="43.62166" lon="7.02217">
        <ele>215.26080322266</ele>
        <time>2020-05-14T12:52:35Z</time>
      </trkpt>
      <trkpt lat="43.62166" lon="7.02212">
        <ele>215.4970703125</ele>
        <time>2020-05-14T12:52:36Z</time>
      </trkpt>
      <trkpt lat="43.62166" lon="7.02207">
        <ele>215.84320068359</ele>
        <time>2020-05-14T12:52:37Z</time>
      </trkpt>
      <trkpt lat="43.62166" lon="7.02203">
        <ele>215.67456054688</ele>
        <time>2020-05-14T12:52:38Z</time>
      </trkpt>
      <trkpt lat="43.62167" lon="7.02198">
        <ele>212.44482421875</ele>
        <time>2020-05-14T12:52:39Z</time>
      </trkpt>
      <trkpt lat="43.62167" lon="7.02193">
        <ele>211.55316162109</ele>
        <time>2020-05-14T12:52:40Z</time>
      </trkpt>
      <trkpt lat="43.62168" lon="7.02189">
        <ele>209.23626708984</ele>
        <time>2020-05-14T12:52:41Z</time>
      </trkpt>
      <trkpt lat="43.62168" lon="7.02184">
        <ele>207.01043701172</ele>
        <time>2020-05-14T12:52:42Z</time>
      </trkpt>
      <trkpt lat="43.62168" lon="7.02179">
        <ele>205.78308105469</ele>
        <time>2020-05-14T12:52:43Z</time>
      </trkpt>
      <trkpt lat="43.62168" lon="7.02174">
        <ele>203.36724853516</ele>
        <time>2020-05-14T12:52:44Z</time>
      </trkpt>
      <trkpt lat="43.62167" lon="7.02169">
        <ele>204.08215332031</ele>
        <time>2020-05-14T12:52:45Z</time>
      </trkpt>
      <trkpt lat="43.62166" lon="7.02165">
        <ele>201.09228515625</ele>
        <time>2020-05-14T12:52:46Z</time>
      </trkpt>
      <trkpt lat="43.62165" lon="7.0216">
        <ele>197.64154052734</ele>
        <time>2020-05-14T12:52:47Z</time>
      </trkpt>
      <trkpt lat="43.62164" lon="7.02156">
        <ele>198.63720703125</ele>
        <time>2020-05-14T12:52:48Z</time>
      </trkpt>
      <trkpt lat="43.62164" lon="7.02151">
        <ele>201.69287109375</ele>
        <time>2020-05-14T12:52:49Z</time>
      </trkpt>
      <trkpt lat="43.62163" lon="7.02146">
        <ele>208.39526367188</ele>
        <time>2020-05-14T12:52:50Z</time>
      </trkpt>
      <trkpt lat="43.62163" lon="7.02142">
        <ele>210.75518798828</ele>
        <time>2020-05-14T12:52:51Z</time>
      </trkpt>
      <trkpt lat="43.62162" lon="7.02137">
        <ele>213.14587402344</ele>
        <time>2020-05-14T12:52:52Z</time>
      </trkpt>
      <trkpt lat="43.62162" lon="7.02132">
        <ele>216.44354248047</ele>
        <time>2020-05-14T12:52:53Z</time>
      </trkpt>
      <trkpt lat="43.62161" lon="7.02128">
        <ele>218.73571777344</ele>
        <time>2020-05-14T12:52:54Z</time>
      </trkpt>
      <trkpt lat="43.6216" lon="7.02123">
        <ele>219.17364501953</ele>
        <time>2020-05-14T12:52:55Z</time>
      </trkpt>
      <trkpt lat="43.6216" lon="7.02118">
        <ele>219.37353515625</ele>
        <time>2020-05-14T12:52:56Z</time>
      </trkpt>
      <trkpt lat="43.62159" lon="7.02113">
        <ele>219.52197265625</ele>
        <time>2020-05-14T12:52:57Z</time>
      </trkpt>
      <trkpt lat="43.62159" lon="7.02108">
        <ele>219.82629394531</ele>
        <time>2020-05-14T12:52:58Z</time>
      </trkpt>
      <trkpt lat="43.62158" lon="7.02104">
        <ele>220.55181884766</ele>
        <time>2020-05-14T12:52:59Z</time>
      </trkpt>
      <trkpt lat="43.62158" lon="7.02099">
        <ele>220.56689453125</ele>
        <time>2020-05-14T12:53:00Z</time>
      </trkpt>
      <trkpt lat="43.62157" lon="7.02094">
        <ele>220.90393066406</ele>
        <time>2020-05-14T12:53:01Z</time>
      </trkpt>
      <trkpt lat="43.62157" lon="7.02089">
        <ele>221.39105224609</ele>
        <time>2020-05-14T12:53:02Z</time>
      </trkpt>
      <trkpt lat="43.62157" lon="7.02084">
        <ele>221.54309082031</ele>
        <time>2020-05-14T12:53:03Z</time>
      </trkpt>
      <trkpt lat="43.62157" lon="7.02078">
        <ele>222.11785888672</ele>
        <time>2020-05-14T12:53:04Z</time>
      </trkpt>
      <trkpt lat="43.62157" lon="7.02073">
        <ele>222.74639892578</ele>
        <time>2020-05-14T12:53:05Z</time>
      </trkpt>
      <trkpt lat="43.62158" lon="7.02068">
        <ele>223.11303710938</ele>
        <time>2020-05-14T12:53:06Z</time>
      </trkpt>
      <trkpt lat="43.62158" lon="7.02063">
        <ele>222.47412109375</ele>
        <time>2020-05-14T12:53:07Z</time>
      </trkpt>
      <trkpt lat="43.62159" lon="7.02058">
        <ele>218.296875</ele>
        <time>2020-05-14T12:53:08Z</time>
      </trkpt>
      <trkpt lat="43.62159" lon="7.02052">
        <ele>219.505859375</ele>
        <time>2020-05-14T12:53:09Z</time>
      </trkpt>
      <trkpt lat="43.6216" lon="7.02048">
        <ele>217.7587890625</ele>
        <time>2020-05-14T12:53:10Z</time>
      </trkpt>
      <trkpt lat="43.62162" lon="7.02043">
        <ele>214.54779052734</ele>
        <time>2020-05-14T12:53:11Z</time>
      </trkpt>
      <trkpt lat="43.62163" lon="7.02038">
        <ele>215.92877197266</ele>
        <time>2020-05-14T12:53:12Z</time>
      </trkpt>
      <trkpt lat="43.62165" lon="7.02033">
        <ele>214.66040039062</ele>
        <time>2020-05-14T12:53:13Z</time>
      </trkpt>
      <trkpt lat="43.62166" lon="7.02028">
        <ele>213.07055664062</ele>
        <time>2020-05-14T12:53:14Z</time>
      </trkpt>
      <trkpt lat="43.62168" lon="7.02024">
        <ele>207.74078369141</ele>
        <time>2020-05-14T12:53:15Z</time>
      </trkpt>
      <trkpt lat="43.62169" lon="7.02019">
        <ele>205.64276123047</ele>
        <time>2020-05-14T12:53:16Z</time>
      </trkpt>
      <trkpt lat="43.6217" lon="7.02015">
        <ele>206.61376953125</ele>
        <time>2020-05-14T12:53:17Z</time>
      </trkpt>
      <trkpt lat="43.62172" lon="7.0201">
        <ele>207.35827636719</ele>
        <time>2020-05-14T12:53:18Z</time>
      </trkpt>
      <trkpt lat="43.62174" lon="7.02005">
        <ele>210.09576416016</ele>
        <time>2020-05-14T12:53:19Z</time>
      </trkpt>
      <trkpt lat="43.62176" lon="7.02001">
        <ele>204.83502197266</ele>
        <time>2020-05-14T12:53:20Z</time>
      </trkpt>
      <trkpt lat="43.62178" lon="7.01997">
        <ele>199.76507568359</ele>
        <time>2020-05-14T12:53:21Z</time>
      </trkpt>
      <trkpt lat="43.6218" lon="7.01993">
        <ele>203.2548828125</ele>
        <time>2020-05-14T12:53:22Z</time>
      </trkpt>
      <trkpt lat="43.62183" lon="7.01988">
        <ele>198.93383789062</ele>
        <time>2020-05-14T12:53:23Z</time>
      </trkpt>
      <trkpt lat="43.62185" lon="7.01984">
        <ele>195.06414794922</ele>
        <time>2020-05-14T12:53:24Z</time>
      </trkpt>
      <trkpt lat="43.62187" lon="7.01981">
        <ele>191.79559326172</ele>
        <time>2020-05-14T12:53:25Z</time>
      </trkpt>
      <trkpt lat="43.62189" lon="7.01977">
        <ele>202.68499755859</ele>
        <time>2020-05-14T12:53:26Z</time>
      </trkpt>
      <trkpt lat="43.62192" lon="7.01973">
        <ele>198.31536865234</ele>
        <time>2020-05-14T12:53:27Z</time>
      </trkpt>
      <trkpt lat="43.62195" lon="7.0197">
        <ele>190.71496582031</ele>
        <time>2020-05-14T12:53:28Z</time>
      </trkpt>
      <trkpt lat="43.62198" lon="7.01967">
        <ele>193.23791503906</ele>
        <time>2020-05-14T12:53:29Z</time>
      </trkpt>
      <trkpt lat="43.62201" lon="7.01964">
        <ele>191.53387451172</ele>
        <time>2020-05-14T12:53:30Z</time>
      </trkpt>
      <trkpt lat="43.62204" lon="7.01961">
        <ele>201.67095947266</ele>
        <time>2020-05-14T12:53:31Z</time>
      </trkpt>
      <trkpt lat="43.62207" lon="7.01958">
        <ele>192.9423828125</ele>
        <time>2020-05-14T12:53:32Z</time>
      </trkpt>
      <trkpt lat="43.62209" lon="7.01955">
        <ele>189.19158935547</ele>
        <time>2020-05-14T12:53:33Z</time>
      </trkpt>
      <trkpt lat="43.62212" lon="7.01952">
        <ele>178.03466796875</ele>
        <time>2020-05-14T12:53:34Z</time>
      </trkpt>
      <trkpt lat="43.62215" lon="7.01948">
        <ele>176.08447265625</ele>
        <time>2020-05-14T12:53:35Z</time>
      </trkpt>
      <trkpt lat="43.62218" lon="7.01945">
        <ele>175.6845703125</ele>
        <time>2020-05-14T12:53:36Z</time>
      </trkpt>
      <trkpt lat="43.6222" lon="7.01942">
        <ele>175.71441650391</ele>
        <time>2020-05-14T12:53:37Z</time>
      </trkpt>
      <trkpt lat="43.62223" lon="7.01939">
        <ele>175.08508300781</ele>
        <time>2020-05-14T12:53:38Z</time>
      </trkpt>
      <trkpt lat="43.62226" lon="7.01936">
        <ele>176.05828857422</ele>
        <time>2020-05-14T12:53:39Z</time>
      </trkpt>
      <trkpt lat="43.62229" lon="7.01933">
        <ele>186.76519775391</ele>
        <time>2020-05-14T12:53:40Z</time>
      </trkpt>
      <trkpt lat="43.62231" lon="7.0193">
        <ele>182.94323730469</ele>
        <time>2020-05-14T12:53:41Z</time>
      </trkpt>
      <trkpt lat="43.62233" lon="7.01927">
        <ele>176.25341796875</ele>
        <time>2020-05-14T12:53:42Z</time>
      </trkpt>
      <trkpt lat="43.62236" lon="7.01924">
        <ele>174.65270996094</ele>
        <time>2020-05-14T12:53:43Z</time>
      </trkpt>
      <trkpt lat="43.62239" lon="7.01921">
        <ele>175.9609375</ele>
        <time>2020-05-14T12:53:44Z</time>
      </trkpt>
      <trkpt lat="43.62241" lon="7.01917">
        <ele>177.82763671875</ele>
        <time>2020-05-14T12:53:45Z</time>
      </trkpt>
      <trkpt lat="43.62243" lon="7.01913">
        <ele>179.04638671875</ele>
        <time>2020-05-14T12:53:46Z</time>
      </trkpt>
      <trkpt lat="43.62244" lon="7.01909">
        <ele>178.46453857422</ele>
        <time>2020-05-14T12:53:47Z</time>
      </trkpt>
      <trkpt lat="43.62246" lon="7.01905">
        <ele>192.77062988281</ele>
        <time>2020-05-14T12:53:48Z</time>
      </trkpt>
      <trkpt lat="43.62248" lon="7.01901">
        <ele>192.6162109375</ele>
        <time>2020-05-14T12:53:49Z</time>
      </trkpt>
      <trkpt lat="43.6225" lon="7.01897">
        <ele>194.26348876953</ele>
        <time>2020-05-14T12:53:50Z</time>
      </trkpt>
      <trkpt lat="43.62251" lon="7.01893">
        <ele>196.78442382812</ele>
        <time>2020-05-14T12:53:51Z</time>
      </trkpt>
      <trkpt lat="43.62253" lon="7.01888">
        <ele>189.82104492188</ele>
        <time>2020-05-14T12:53:52Z</time>
      </trkpt>
      <trkpt lat="43.62254" lon="7.01884">
        <ele>190.66851806641</ele>
        <time>2020-05-14T12:53:53Z</time>
      </trkpt>
      <trkpt lat="43.62256" lon="7.01879">
        <ele>205.5654296875</ele>
        <time>2020-05-14T12:53:54Z</time>
      </trkpt>
      <trkpt lat="43.62258" lon="7.01875">
        <ele>204.42694091797</ele>
        <time>2020-05-14T12:53:55Z</time>
      </trkpt>
      <trkpt lat="43.6226" lon="7.01871">
        <ele>206.83129882812</ele>
        <time>2020-05-14T12:53:56Z</time>
      </trkpt>
      <trkpt lat="43.62261" lon="7.01867">
        <ele>199.79528808594</ele>
        <time>2020-05-14T12:53:57Z</time>
      </trkpt>
      <trkpt lat="43.62262" lon="7.01862">
        <ele>202.61047363281</ele>
        <time>2020-05-14T12:53:58Z</time>
      </trkpt>
      <trkpt lat="43.62264" lon="7.01857">
        <ele>216.54711914062</ele>
        <time>2020-05-14T12:53:59Z</time>
      </trkpt>
      <trkpt lat="43.62265" lon="7.01852">
        <ele>212.72064208984</ele>
        <time>2020-05-14T12:54:00Z</time>
      </trkpt>
      <trkpt lat="43.62265" lon="7.01846">
        <ele>213.10314941406</ele>
        <time>2020-05-14T12:54:01Z</time>
      </trkpt>
      <trkpt lat="43.62266" lon="7.01841">
        <ele>209.43542480469</ele>
        <time>2020-05-14T12:54:02Z</time>
      </trkpt>
      <trkpt lat="43.62267" lon="7.01836">
        <ele>209.08508300781</ele>
        <time>2020-05-14T12:54:03Z</time>
      </trkpt>
      <trkpt lat="43.62267" lon="7.01831">
        <ele>203.74554443359</ele>
        <time>2020-05-14T12:54:04Z</time>
      </trkpt>
      <trkpt lat="43.62268" lon="7.01826">
        <ele>202.77124023438</ele>
        <time>2020-05-14T12:54:05Z</time>
      </trkpt>
      <trkpt lat="43.62268" lon="7.01821">
        <ele>197.44372558594</ele>
        <time>2020-05-14T12:54:06Z</time>
      </trkpt>
      <trkpt lat="43.62268" lon="7.01816">
        <ele>199.14807128906</ele>
        <time>2020-05-14T12:54:07Z</time>
      </trkpt>
      <trkpt lat="43.62268" lon="7.0181">
        <ele>210.55834960938</ele>
        <time>2020-05-14T12:54:08Z</time>
      </trkpt>
      <trkpt lat="43.62268" lon="7.01804">
        <ele>203.07635498047</ele>
        <time>2020-05-14T12:54:09Z</time>
      </trkpt>
      <trkpt lat="43.62268" lon="7.01799">
        <ele>207.42260742188</ele>
        <time>2020-05-14T12:54:10Z</time>
      </trkpt>
      <trkpt lat="43.62269" lon="7.01795">
        <ele>215.66986083984</ele>
        <time>2020-05-14T12:54:11Z</time>
      </trkpt>
      <trkpt lat="43.62269" lon="7.0179">
        <ele>205.44604492188</ele>
        <time>2020-05-14T12:54:12Z</time>
      </trkpt>
      <trkpt lat="43.6227" lon="7.01785">
        <ele>198.63500976562</ele>
        <time>2020-05-14T12:54:13Z</time>
      </trkpt>
      <trkpt lat="43.6227" lon="7.01779">
        <ele>202.85638427734</ele>
        <time>2020-05-14T12:54:14Z</time>
      </trkpt>
      <trkpt lat="43.62271" lon="7.01775">
        <ele>205.45104980469</ele>
        <time>2020-05-14T12:54:15Z</time>
      </trkpt>
      <trkpt lat="43.62272" lon="7.0177">
        <ele>207.10070800781</ele>
        <time>2020-05-14T12:54:16Z</time>
      </trkpt>
      <trkpt lat="43.62273" lon="7.01765">
        <ele>201.30328369141</ele>
        <time>2020-05-14T12:54:17Z</time>
      </trkpt>
      <trkpt lat="43.62273" lon="7.01761">
        <ele>199.86108398438</ele>
        <time>2020-05-14T12:54:18Z</time>
      </trkpt>
      <trkpt lat="43.62274" lon="7.01756">
        <ele>215.45349121094</ele>
        <time>2020-05-14T12:54:19Z</time>
      </trkpt>
      <trkpt lat="43.62275" lon="7.01751">
        <ele>214.02526855469</ele>
        <time>2020-05-14T12:54:20Z</time>
      </trkpt>
      <trkpt lat="43.62276" lon="7.01747">
        <ele>213.13781738281</ele>
        <time>2020-05-14T12:54:21Z</time>
      </trkpt>
      <trkpt lat="43.62277" lon="7.01742">
        <ele>209.02624511719</ele>
        <time>2020-05-14T12:54:22Z</time>
      </trkpt>
      <trkpt lat="43.62278" lon="7.01738">
        <ele>204.11041259766</ele>
        <time>2020-05-14T12:54:23Z</time>
      </trkpt>
      <trkpt lat="43.6228" lon="7.01733">
        <ele>200.685546875</ele>
        <time>2020-05-14T12:54:24Z</time>
      </trkpt>
      <trkpt lat="43.62281" lon="7.01729">
        <ele>191.8251953125</ele>
        <time>2020-05-14T12:54:25Z</time>
      </trkpt>
      <trkpt lat="43.62283" lon="7.01724">
        <ele>187.22943115234</ele>
        <time>2020-05-14T12:54:26Z</time>
      </trkpt>
      <trkpt lat="43.62285" lon="7.0172">
        <ele>212.17907714844</ele>
        <time>2020-05-14T12:54:27Z</time>
      </trkpt>
      <trkpt lat="43.62288" lon="7.01716">
        <ele>212.20751953125</ele>
        <time>2020-05-14T12:54:28Z</time>
      </trkpt>
      <trkpt lat="43.6229" lon="7.01711">
        <ele>205.12390136719</ele>
        <time>2020-05-14T12:54:29Z</time>
      </trkpt>
      <trkpt lat="43.62291" lon="7.01707">
        <ele>227.92608642578</ele>
        <time>2020-05-14T12:54:30Z</time>
      </trkpt>
      <trkpt lat="43.62293" lon="7.01702">
        <ele>242.91137695312</ele>
        <time>2020-05-14T12:54:31Z</time>
      </trkpt>
      <trkpt lat="43.62295" lon="7.01696">
        <ele>245.51739501953</ele>
        <time>2020-05-14T12:54:32Z</time>
      </trkpt>
      <trkpt lat="43.62296" lon="7.01691">
        <ele>248.943359375</ele>
        <time>2020-05-14T12:54:33Z</time>
      </trkpt>
      <trkpt lat="43.62298" lon="7.01685">
        <ele>250.49230957031</ele>
        <time>2020-05-14T12:54:34Z</time>
      </trkpt>
      <trkpt lat="43.62299" lon="7.0168">
        <ele>250.384765625</ele>
        <time>2020-05-14T12:54:35Z</time>
      </trkpt>
      <trkpt lat="43.62301" lon="7.01674">
        <ele>250.76965332031</ele>
        <time>2020-05-14T12:54:36Z</time>
      </trkpt>
      <trkpt lat="43.62303" lon="7.01669">
        <ele>250.970703125</ele>
        <time>2020-05-14T12:54:37Z</time>
      </trkpt>
      <trkpt lat="43.62305" lon="7.01664">
        <ele>250.68371582031</ele>
        <time>2020-05-14T12:54:38Z</time>
      </trkpt>
      <trkpt lat="43.62306" lon="7.01659">
        <ele>251.44866943359</ele>
        <time>2020-05-14T12:54:39Z</time>
      </trkpt>
      <trkpt lat="43.62307" lon="7.01653">
        <ele>252.39129638672</ele>
        <time>2020-05-14T12:54:40Z</time>
      </trkpt>
      <trkpt lat="43.62308" lon="7.01649">
        <ele>252.16302490234</ele>
        <time>2020-05-14T12:54:41Z</time>
      </trkpt>
      <trkpt lat="43.6231" lon="7.01644">
        <ele>252.28247070312</ele>
        <time>2020-05-14T12:54:42Z</time>
      </trkpt>
      <trkpt lat="43.62311" lon="7.01639">
        <ele>252.78601074219</ele>
        <time>2020-05-14T12:54:43Z</time>
      </trkpt>
      <trkpt lat="43.62312" lon="7.01634">
        <ele>253.12451171875</ele>
        <time>2020-05-14T12:54:44Z</time>
      </trkpt>
      <trkpt lat="43.62314" lon="7.01629">
        <ele>252.33367919922</ele>
        <time>2020-05-14T12:54:45Z</time>
      </trkpt>
      <trkpt lat="43.62315" lon="7.01624">
        <ele>251.97521972656</ele>
        <time>2020-05-14T12:54:46Z</time>
      </trkpt>
      <trkpt lat="43.62316" lon="7.0162">
        <ele>251.40783691406</ele>
        <time>2020-05-14T12:54:47Z</time>
      </trkpt>
      <trkpt lat="43.62318" lon="7.01614">
        <ele>251.37353515625</ele>
        <time>2020-05-14T12:54:48Z</time>
      </trkpt>
      <trkpt lat="43.6232" lon="7.01609">
        <ele>252.19494628906</ele>
        <time>2020-05-14T12:54:49Z</time>
      </trkpt>
      <trkpt lat="43.62321" lon="7.01604">
        <ele>251.6318359375</ele>
        <time>2020-05-14T12:54:50Z</time>
      </trkpt>
      <trkpt lat="43.62323" lon="7.01599">
        <ele>251.98748779297</ele>
        <time>2020-05-14T12:54:51Z</time>
      </trkpt>
      <trkpt lat="43.62325" lon="7.01595">
        <ele>252.31805419922</ele>
        <time>2020-05-14T12:54:52Z</time>
      </trkpt>
      <trkpt lat="43.62328" lon="7.01588">
        <ele>251.07409667969</ele>
        <time>2020-05-14T12:54:53Z</time>
      </trkpt>
      <trkpt lat="43.62331" lon="7.01582">
        <ele>250.4501953125</ele>
        <time>2020-05-14T12:54:54Z</time>
      </trkpt>
      <trkpt lat="43.62333" lon="7.01576">
        <ele>250.33251953125</ele>
        <time>2020-05-14T12:54:55Z</time>
      </trkpt>
      <trkpt lat="43.62336" lon="7.01571">
        <ele>249.65850830078</ele>
        <time>2020-05-14T12:54:56Z</time>
      </trkpt>
      <trkpt lat="43.6234" lon="7.01567">
        <ele>249.75085449219</ele>
        <time>2020-05-14T12:54:57Z</time>
      </trkpt>
      <trkpt lat="43.62346" lon="7.01562">
        <ele>249.22436523438</ele>
        <time>2020-05-14T12:54:58Z</time>
      </trkpt>
      <trkpt lat="43.6235" lon="7.01556">
        <ele>249.06561279297</ele>
        <time>2020-05-14T12:54:59Z</time>
      </trkpt>
      <trkpt lat="43.62355" lon="7.01548">
        <ele>248.47497558594</ele>
        <time>2020-05-14T12:55:00Z</time>
      </trkpt>
      <trkpt lat="43.62357" lon="7.01542">
        <ele>248.78137207031</ele>
        <time>2020-05-14T12:55:01Z</time>
      </trkpt>
      <trkpt lat="43.62358" lon="7.01535">
        <ele>249.02313232422</ele>
        <time>2020-05-14T12:55:02Z</time>
      </trkpt>
      <trkpt lat="43.62357" lon="7.01528">
        <ele>249.24090576172</ele>
        <time>2020-05-14T12:55:03Z</time>
      </trkpt>
      <trkpt lat="43.62358" lon="7.01521">
        <ele>249.19079589844</ele>
        <time>2020-05-14T12:55:04Z</time>
      </trkpt>
      <trkpt lat="43.62359" lon="7.01514">
        <ele>248.859375</ele>
        <time>2020-05-14T12:55:05Z</time>
      </trkpt>
      <trkpt lat="43.62359" lon="7.01508">
        <ele>248.82391357422</ele>
        <time>2020-05-14T12:55:06Z</time>
      </trkpt>
      <trkpt lat="43.62361" lon="7.01503">
        <ele>248.81341552734</ele>
        <time>2020-05-14T12:55:07Z</time>
      </trkpt>
      <trkpt lat="43.62361" lon="7.01498">
        <ele>248.96099853516</ele>
        <time>2020-05-14T12:55:08Z</time>
      </trkpt>
      <trkpt lat="43.62361" lon="7.01491">
        <ele>248.37097167969</ele>
        <time>2020-05-14T12:55:09Z</time>
      </trkpt>
      <trkpt lat="43.62361" lon="7.01485">
        <ele>248.40533447266</ele>
        <time>2020-05-14T12:55:10Z</time>
      </trkpt>
      <trkpt lat="43.62362" lon="7.01478">
        <ele>249.33264160156</ele>
        <time>2020-05-14T12:55:11Z</time>
      </trkpt>
      <trkpt lat="43.62363" lon="7.01471">
        <ele>249.36419677734</ele>
        <time>2020-05-14T12:55:12Z</time>
      </trkpt>
      <trkpt lat="43.62363" lon="7.01465">
        <ele>249.63171386719</ele>
        <time>2020-05-14T12:55:13Z</time>
      </trkpt>
      <trkpt lat="43.62365" lon="7.01459">
        <ele>249.50799560547</ele>
        <time>2020-05-14T12:55:14Z</time>
      </trkpt>
      <trkpt lat="43.62366" lon="7.01453">
        <ele>249.52227783203</ele>
        <time>2020-05-14T12:55:15Z</time>
      </trkpt>
      <trkpt lat="43.62367" lon="7.01447">
        <ele>249.68688964844</ele>
        <time>2020-05-14T12:55:16Z</time>
      </trkpt>
      <trkpt lat="43.62367" lon="7.01442">
        <ele>249.78100585938</ele>
        <time>2020-05-14T12:55:17Z</time>
      </trkpt>
      <trkpt lat="43.62368" lon="7.01436">
        <ele>249.61193847656</ele>
        <time>2020-05-14T12:55:18Z</time>
      </trkpt>
      <trkpt lat="43.62369" lon="7.01429">
        <ele>249.4814453125</ele>
        <time>2020-05-14T12:55:19Z</time>
      </trkpt>
      <trkpt lat="43.62369" lon="7.01424">
        <ele>249.19360351562</ele>
        <time>2020-05-14T12:55:20Z</time>
      </trkpt>
      <trkpt lat="43.62371" lon="7.01418">
        <ele>249.21520996094</ele>
        <time>2020-05-14T12:55:21Z</time>
      </trkpt>
      <trkpt lat="43.62371" lon="7.01413">
        <ele>249.58422851562</ele>
        <time>2020-05-14T12:55:22Z</time>
      </trkpt>
      <trkpt lat="43.62372" lon="7.01406">
        <ele>249.49768066406</ele>
        <time>2020-05-14T12:55:23Z</time>
      </trkpt>
      <trkpt lat="43.62372" lon="7.014">
        <ele>249.68713378906</ele>
        <time>2020-05-14T12:55:24Z</time>
      </trkpt>
      <trkpt lat="43.62373" lon="7.01397">
        <ele>251.00360107422</ele>
        <time>2020-05-14T12:55:25Z</time>
      </trkpt>
      <trkpt lat="43.62373" lon="7.01391">
        <ele>252.49426269531</ele>
        <time>2020-05-14T12:55:26Z</time>
      </trkpt>
      <trkpt lat="43.62373" lon="7.01384">
        <ele>253.455078125</ele>
        <time>2020-05-14T12:55:27Z</time>
      </trkpt>
      <trkpt lat="43.62372" lon="7.01378">
        <ele>253.98004150391</ele>
        <time>2020-05-14T12:55:28Z</time>
      </trkpt>
      <trkpt lat="43.62372" lon="7.01372">
        <ele>254.6201171875</ele>
        <time>2020-05-14T12:55:29Z</time>
      </trkpt>
      <trkpt lat="43.62371" lon="7.01365">
        <ele>254.76379394531</ele>
        <time>2020-05-14T12:55:30Z</time>
      </trkpt>
      <trkpt lat="43.62371" lon="7.01359">
        <ele>254.80432128906</ele>
        <time>2020-05-14T12:55:31Z</time>
      </trkpt>
      <trkpt lat="43.6237" lon="7.01354">
        <ele>254.126953125</ele>
        <time>2020-05-14T12:55:32Z</time>
      </trkpt>
      <trkpt lat="43.6237" lon="7.01347">
        <ele>253.18060302734</ele>
        <time>2020-05-14T12:55:33Z</time>
      </trkpt>
      <trkpt lat="43.62368" lon="7.01341">
        <ele>253.56005859375</ele>
        <time>2020-05-14T12:55:34Z</time>
      </trkpt>
      <trkpt lat="43.62367" lon="7.01335">
        <ele>253.09997558594</ele>
        <time>2020-05-14T12:55:35Z</time>
      </trkpt>
      <trkpt lat="43.62366" lon="7.01328">
        <ele>253.31433105469</ele>
        <time>2020-05-14T12:55:36Z</time>
      </trkpt>
      <trkpt lat="43.62365" lon="7.0132">
        <ele>253.24645996094</ele>
        <time>2020-05-14T12:55:37Z</time>
      </trkpt>
      <trkpt lat="43.62364" lon="7.01314">
        <ele>253.19079589844</ele>
        <time>2020-05-14T12:55:38Z</time>
      </trkpt>
      <trkpt lat="43.62363" lon="7.01307">
        <ele>253.50689697266</ele>
        <time>2020-05-14T12:55:39Z</time>
      </trkpt>
      <trkpt lat="43.62362" lon="7.01301">
        <ele>253.58416748047</ele>
        <time>2020-05-14T12:55:40Z</time>
      </trkpt>
      <trkpt lat="43.6236" lon="7.01295">
        <ele>254.39440917969</ele>
        <time>2020-05-14T12:55:41Z</time>
      </trkpt>
      <trkpt lat="43.62359" lon="7.01288">
        <ele>254.23492431641</ele>
        <time>2020-05-14T12:55:42Z</time>
      </trkpt>
      <trkpt lat="43.62358" lon="7.01281">
        <ele>254.79992675781</ele>
        <time>2020-05-14T12:55:43Z</time>
      </trkpt>
      <trkpt lat="43.62358" lon="7.01275">
        <ele>254.19274902344</ele>
        <time>2020-05-14T12:55:44Z</time>
      </trkpt>
      <trkpt lat="43.62357" lon="7.01269">
        <ele>254.01599121094</ele>
        <time>2020-05-14T12:55:45Z</time>
      </trkpt>
      <trkpt lat="43.62356" lon="7.01263">
        <ele>254.07885742188</ele>
        <time>2020-05-14T12:55:46Z</time>
      </trkpt>
      <trkpt lat="43.62356" lon="7.01256">
        <ele>254.62774658203</ele>
        <time>2020-05-14T12:55:47Z</time>
      </trkpt>
      <trkpt lat="43.62358" lon="7.0125">
        <ele>254.61157226562</ele>
        <time>2020-05-14T12:55:48Z</time>
      </trkpt>
      <trkpt lat="43.62358" lon="7.01244">
        <ele>254.28857421875</ele>
        <time>2020-05-14T12:55:49Z</time>
      </trkpt>
      <trkpt lat="43.62358" lon="7.01238">
        <ele>254.49072265625</ele>
        <time>2020-05-14T12:55:50Z</time>
      </trkpt>
      <trkpt lat="43.62359" lon="7.01233">
        <ele>254.14685058594</ele>
        <time>2020-05-14T12:55:51Z</time>
      </trkpt>
      <trkpt lat="43.6236" lon="7.01226">
        <ele>254.39575195312</ele>
        <time>2020-05-14T12:55:52Z</time>
      </trkpt>
      <trkpt lat="43.62359" lon="7.0122">
        <ele>254.87048339844</ele>
        <time>2020-05-14T12:55:53Z</time>
      </trkpt>
      <trkpt lat="43.62359" lon="7.01214">
        <ele>254.92004394531</ele>
        <time>2020-05-14T12:55:54Z</time>
      </trkpt>
      <trkpt lat="43.62359" lon="7.01207">
        <ele>254.75708007812</ele>
        <time>2020-05-14T12:55:55Z</time>
      </trkpt>
      <trkpt lat="43.62358" lon="7.01201">
        <ele>254.05920410156</ele>
        <time>2020-05-14T12:55:56Z</time>
      </trkpt>
      <trkpt lat="43.62357" lon="7.01196">
        <ele>253.94860839844</ele>
        <time>2020-05-14T12:55:57Z</time>
      </trkpt>
      <trkpt lat="43.62357" lon="7.01189">
        <ele>253.62994384766</ele>
        <time>2020-05-14T12:55:58Z</time>
      </trkpt>
      <trkpt lat="43.62356" lon="7.01184">
        <ele>253.25384521484</ele>
        <time>2020-05-14T12:55:59Z</time>
      </trkpt>
      <trkpt lat="43.62355" lon="7.01178">
        <ele>253.04467773438</ele>
        <time>2020-05-14T12:56:00Z</time>
      </trkpt>
      <trkpt lat="43.62356" lon="7.01173">
        <ele>253.22790527344</ele>
        <time>2020-05-14T12:56:01Z</time>
      </trkpt>
      <trkpt lat="43.62356" lon="7.01166">
        <ele>253.42700195312</ele>
        <time>2020-05-14T12:56:02Z</time>
      </trkpt>
      <trkpt lat="43.62356" lon="7.01159">
        <ele>254.50946044922</ele>
        <time>2020-05-14T12:56:03Z</time>
      </trkpt>
      <trkpt lat="43.62356" lon="7.01153">
        <ele>254.69140625</ele>
        <time>2020-05-14T12:56:04Z</time>
      </trkpt>
      <trkpt lat="43.62355" lon="7.01147">
        <ele>254.10229492188</ele>
        <time>2020-05-14T12:56:05Z</time>
      </trkpt>
      <trkpt lat="43.62355" lon="7.01141">
        <ele>254.46301269531</ele>
        <time>2020-05-14T12:56:06Z</time>
      </trkpt>
      <trkpt lat="43.62355" lon="7.01136">
        <ele>254.47985839844</ele>
        <time>2020-05-14T12:56:07Z</time>
      </trkpt>
      <trkpt lat="43.62354" lon="7.01131">
        <ele>254.58355712891</ele>
        <time>2020-05-14T12:56:08Z</time>
      </trkpt>
      <trkpt lat="43.62353" lon="7.01124">
        <ele>254.55828857422</ele>
        <time>2020-05-14T12:56:09Z</time>
      </trkpt>
      <trkpt lat="43.62353" lon="7.01117">
        <ele>253.9814453125</ele>
        <time>2020-05-14T12:56:10Z</time>
      </trkpt>
      <trkpt lat="43.62353" lon="7.01111">
        <ele>253.70977783203</ele>
        <time>2020-05-14T12:56:11Z</time>
      </trkpt>
      <trkpt lat="43.62352" lon="7.01105">
        <ele>253.82989501953</ele>
        <time>2020-05-14T12:56:12Z</time>
      </trkpt>
      <trkpt lat="43.62351" lon="7.011">
        <ele>253.64801025391</ele>
        <time>2020-05-14T12:56:13Z</time>
      </trkpt>
      <trkpt lat="43.62351" lon="7.01095">
        <ele>253.97485351562</ele>
        <time>2020-05-14T12:56:14Z</time>
      </trkpt>
      <trkpt lat="43.6235" lon="7.01089">
        <ele>251.83001708984</ele>
        <time>2020-05-14T12:56:15Z</time>
      </trkpt>
      <trkpt lat="43.6235" lon="7.01083">
        <ele>251.84619140625</ele>
        <time>2020-05-14T12:56:16Z</time>
      </trkpt>
      <trkpt lat="43.62351" lon="7.01077">
        <ele>251.7548828125</ele>
        <time>2020-05-14T12:56:17Z</time>
      </trkpt>
      <trkpt lat="43.6235" lon="7.01071">
        <ele>253.15612792969</ele>
        <time>2020-05-14T12:56:18Z</time>
      </trkpt>
      <trkpt lat="43.6235" lon="7.01065">
        <ele>254.13623046875</ele>
        <time>2020-05-14T12:56:19Z</time>
      </trkpt>
      <trkpt lat="43.6235" lon="7.01058">
        <ele>254.80999755859</ele>
        <time>2020-05-14T12:56:20Z</time>
      </trkpt>
      <trkpt lat="43.6235" lon="7.01052">
        <ele>254.96118164062</ele>
        <time>2020-05-14T12:56:21Z</time>
      </trkpt>
      <trkpt lat="43.62349" lon="7.01045">
        <ele>253.81140136719</ele>
        <time>2020-05-14T12:56:22Z</time>
      </trkpt>
      <trkpt lat="43.6235" lon="7.0104">
        <ele>253.78173828125</ele>
        <time>2020-05-14T12:56:23Z</time>
      </trkpt>
      <trkpt lat="43.62349" lon="7.01033">
        <ele>254.02545166016</ele>
        <time>2020-05-14T12:56:24Z</time>
      </trkpt>
      <trkpt lat="43.62349" lon="7.01028">
        <ele>253.61407470703</ele>
        <time>2020-05-14T12:56:25Z</time>
      </trkpt>
      <trkpt lat="43.62349" lon="7.01021">
        <ele>256.44848632812</ele>
        <time>2020-05-14T12:56:26Z</time>
      </trkpt>
      <trkpt lat="43.62349" lon="7.01014">
        <ele>255.57592773438</ele>
        <time>2020-05-14T12:56:27Z</time>
      </trkpt>
      <trkpt lat="43.62348" lon="7.01008">
        <ele>255.15374755859</ele>
        <time>2020-05-14T12:56:28Z</time>
      </trkpt>
      <trkpt lat="43.62348" lon="7.01001">
        <ele>254.60681152344</ele>
        <time>2020-05-14T12:56:29Z</time>
      </trkpt>
      <trkpt lat="43.62348" lon="7.00995">
        <ele>254.64770507812</ele>
        <time>2020-05-14T12:56:30Z</time>
      </trkpt>
      <trkpt lat="43.62347" lon="7.00989">
        <ele>255.03717041016</ele>
        <time>2020-05-14T12:56:31Z</time>
      </trkpt>
      <trkpt lat="43.62347" lon="7.00983">
        <ele>256.01867675781</ele>
        <time>2020-05-14T12:56:32Z</time>
      </trkpt>
      <trkpt lat="43.62346" lon="7.00976">
        <ele>256.07360839844</ele>
        <time>2020-05-14T12:56:33Z</time>
      </trkpt>
      <trkpt lat="43.62345" lon="7.00969">
        <ele>256.12298583984</ele>
        <time>2020-05-14T12:56:34Z</time>
      </trkpt>
      <trkpt lat="43.62345" lon="7.00963">
        <ele>256.53460693359</ele>
        <time>2020-05-14T12:56:35Z</time>
      </trkpt>
      <trkpt lat="43.62344" lon="7.00955">
        <ele>256.53857421875</ele>
        <time>2020-05-14T12:56:36Z</time>
      </trkpt>
      <trkpt lat="43.62345" lon="7.00949">
        <ele>256.50305175781</ele>
        <time>2020-05-14T12:56:37Z</time>
      </trkpt>
      <trkpt lat="43.62345" lon="7.00942">
        <ele>256.56884765625</ele>
        <time>2020-05-14T12:56:38Z</time>
      </trkpt>
      <trkpt lat="43.62344" lon="7.00935">
        <ele>255.81939697266</ele>
        <time>2020-05-14T12:56:39Z</time>
      </trkpt>
      <trkpt lat="43.62345" lon="7.0093">
        <ele>256.60614013672</ele>
        <time>2020-05-14T12:56:40Z</time>
      </trkpt>
      <trkpt lat="43.62346" lon="7.00924">
        <ele>256.8876953125</ele>
        <time>2020-05-14T12:56:41Z</time>
      </trkpt>
      <trkpt lat="43.62345" lon="7.00917">
        <ele>257.57763671875</ele>
        <time>2020-05-14T12:56:42Z</time>
      </trkpt>
      <trkpt lat="43.62346" lon="7.0091">
        <ele>258.69750976562</ele>
        <time>2020-05-14T12:56:43Z</time>
      </trkpt>
      <trkpt lat="43.62346" lon="7.00904">
        <ele>259.85778808594</ele>
        <time>2020-05-14T12:56:44Z</time>
      </trkpt>
      <trkpt lat="43.62346" lon="7.00898">
        <ele>260.37194824219</ele>
        <time>2020-05-14T12:56:45Z</time>
      </trkpt>
      <trkpt lat="43.62347" lon="7.00892">
        <ele>260.70153808594</ele>
        <time>2020-05-14T12:56:46Z</time>
      </trkpt>
      <trkpt lat="43.62349" lon="7.00886">
        <ele>260.86077880859</ele>
        <time>2020-05-14T12:56:47Z</time>
      </trkpt>
      <trkpt lat="43.62349" lon="7.0088">
        <ele>260.86071777344</ele>
        <time>2020-05-14T12:56:48Z</time>
      </trkpt>
      <trkpt lat="43.6235" lon="7.00874">
        <ele>260.30639648438</ele>
        <time>2020-05-14T12:56:49Z</time>
      </trkpt>
      <trkpt lat="43.6235" lon="7.00866">
        <ele>261.49969482422</ele>
        <time>2020-05-14T12:56:50Z</time>
      </trkpt>
      <trkpt lat="43.6235" lon="7.0086">
        <ele>260.87579345703</ele>
        <time>2020-05-14T12:56:51Z</time>
      </trkpt>
      <trkpt lat="43.62351" lon="7.00853">
        <ele>260.88366699219</ele>
        <time>2020-05-14T12:56:52Z</time>
      </trkpt>
      <trkpt lat="43.62353" lon="7.00846">
        <ele>261.96960449219</ele>
        <time>2020-05-14T12:56:53Z</time>
      </trkpt>
      <trkpt lat="43.62354" lon="7.00838">
        <ele>262.18432617188</ele>
        <time>2020-05-14T12:56:54Z</time>
      </trkpt>
      <trkpt lat="43.62354" lon="7.00832">
        <ele>261.97302246094</ele>
        <time>2020-05-14T12:56:55Z</time>
      </trkpt>
      <trkpt lat="43.62355" lon="7.00826">
        <ele>262.92736816406</ele>
        <time>2020-05-14T12:56:56Z</time>
      </trkpt>
      <trkpt lat="43.62357" lon="7.0082">
        <ele>264.29357910156</ele>
        <time>2020-05-14T12:56:57Z</time>
      </trkpt>
      <trkpt lat="43.62357" lon="7.00814">
        <ele>264.90832519531</ele>
        <time>2020-05-14T12:56:58Z</time>
      </trkpt>
      <trkpt lat="43.62359" lon="7.00807">
        <ele>264.8076171875</ele>
        <time>2020-05-14T12:56:59Z</time>
      </trkpt>
      <trkpt lat="43.6236" lon="7.008">
        <ele>263.5634765625</ele>
        <time>2020-05-14T12:57:00Z</time>
      </trkpt>
      <trkpt lat="43.6236" lon="7.00793">
        <ele>262.81420898438</ele>
        <time>2020-05-14T12:57:01Z</time>
      </trkpt>
      <trkpt lat="43.62361" lon="7.00786">
        <ele>262.22387695312</ele>
        <time>2020-05-14T12:57:02Z</time>
      </trkpt>
      <trkpt lat="43.62362" lon="7.0078">
        <ele>262.02862548828</ele>
        <time>2020-05-14T12:57:03Z</time>
      </trkpt>
      <trkpt lat="43.62364" lon="7.00773">
        <ele>260.99572753906</ele>
        <time>2020-05-14T12:57:04Z</time>
      </trkpt>
      <trkpt lat="43.62366" lon="7.00767">
        <ele>260.8408203125</ele>
        <time>2020-05-14T12:57:05Z</time>
      </trkpt>
      <trkpt lat="43.62367" lon="7.00762">
        <ele>260.27478027344</ele>
        <time>2020-05-14T12:57:06Z</time>
      </trkpt>
      <trkpt lat="43.62368" lon="7.00755">
        <ele>261.08374023438</ele>
        <time>2020-05-14T12:57:07Z</time>
      </trkpt>
      <trkpt lat="43.6237" lon="7.00749">
        <ele>261.21636962891</ele>
        <time>2020-05-14T12:57:08Z</time>
      </trkpt>
      <trkpt lat="43.6237" lon="7.00743">
        <ele>260.99359130859</ele>
        <time>2020-05-14T12:57:09Z</time>
      </trkpt>
      <trkpt lat="43.62372" lon="7.00736">
        <ele>261.34924316406</ele>
        <time>2020-05-14T12:57:10Z</time>
      </trkpt>
      <trkpt lat="43.62374" lon="7.00731">
        <ele>262.48193359375</ele>
        <time>2020-05-14T12:57:11Z</time>
      </trkpt>
      <trkpt lat="43.62375" lon="7.00726">
        <ele>263.42065429688</ele>
        <time>2020-05-14T12:57:12Z</time>
      </trkpt>
      <trkpt lat="43.62377" lon="7.0072">
        <ele>262.65936279297</ele>
        <time>2020-05-14T12:57:13Z</time>
      </trkpt>
      <trkpt lat="43.62378" lon="7.00715">
        <ele>262.5185546875</ele>
        <time>2020-05-14T12:57:14Z</time>
      </trkpt>
      <trkpt lat="43.62379" lon="7.00711">
        <ele>262.69055175781</ele>
        <time>2020-05-14T12:57:15Z</time>
      </trkpt>
      <trkpt lat="43.6238" lon="7.00705">
        <ele>262.85681152344</ele>
        <time>2020-05-14T12:57:16Z</time>
      </trkpt>
      <trkpt lat="43.62382" lon="7.007">
        <ele>262.935546875</ele>
        <time>2020-05-14T12:57:17Z</time>
      </trkpt>
      <trkpt lat="43.62383" lon="7.00693">
        <ele>261.60205078125</ele>
        <time>2020-05-14T12:57:18Z</time>
      </trkpt>
      <trkpt lat="43.62384" lon="7.00686">
        <ele>262.53015136719</ele>
        <time>2020-05-14T12:57:19Z</time>
      </trkpt>
      <trkpt lat="43.62384" lon="7.0068">
        <ele>263.25769042969</ele>
        <time>2020-05-14T12:57:20Z</time>
      </trkpt>
      <trkpt lat="43.62384" lon="7.00673">
        <ele>264.74353027344</ele>
        <time>2020-05-14T12:57:21Z</time>
      </trkpt>
      <trkpt lat="43.62385" lon="7.00667">
        <ele>265.78802490234</ele>
        <time>2020-05-14T12:57:22Z</time>
      </trkpt>
      <trkpt lat="43.62385" lon="7.0066">
        <ele>266.1708984375</ele>
        <time>2020-05-14T12:57:23Z</time>
      </trkpt>
      <trkpt lat="43.62384" lon="7.00654">
        <ele>266.66790771484</ele>
        <time>2020-05-14T12:57:24Z</time>
      </trkpt>
      <trkpt lat="43.62384" lon="7.00648">
        <ele>265.03436279297</ele>
        <time>2020-05-14T12:57:25Z</time>
      </trkpt>
      <trkpt lat="43.62383" lon="7.00642">
        <ele>260.62322998047</ele>
        <time>2020-05-14T12:57:26Z</time>
      </trkpt>
      <trkpt lat="43.62383" lon="7.00636">
        <ele>260.57067871094</ele>
        <time>2020-05-14T12:57:27Z</time>
      </trkpt>
      <trkpt lat="43.62383" lon="7.00631">
        <ele>265.32867431641</ele>
        <time>2020-05-14T12:57:28Z</time>
      </trkpt>
      <trkpt lat="43.62383" lon="7.00625">
        <ele>263.49786376953</ele>
        <time>2020-05-14T12:57:29Z</time>
      </trkpt>
      <trkpt lat="43.62383" lon="7.00619">
        <ele>262.5283203125</ele>
        <time>2020-05-14T12:57:30Z</time>
      </trkpt>
      <trkpt lat="43.62384" lon="7.00614">
        <ele>261.65319824219</ele>
        <time>2020-05-14T12:57:31Z</time>
      </trkpt>
      <trkpt lat="43.62384" lon="7.00608">
        <ele>260.87719726562</ele>
        <time>2020-05-14T12:57:32Z</time>
      </trkpt>
      <trkpt lat="43.62384" lon="7.00603">
        <ele>260.50811767578</ele>
        <time>2020-05-14T12:57:33Z</time>
      </trkpt>
      <trkpt lat="43.62384" lon="7.00597">
        <ele>261.47668457031</ele>
        <time>2020-05-14T12:57:34Z</time>
      </trkpt>
      <trkpt lat="43.62384" lon="7.0059">
        <ele>260.81994628906</ele>
        <time>2020-05-14T12:57:35Z</time>
      </trkpt>
      <trkpt lat="43.62384" lon="7.00584">
        <ele>260.96826171875</ele>
        <time>2020-05-14T12:57:36Z</time>
      </trkpt>
      <trkpt lat="43.62385" lon="7.00578">
        <ele>261.85919189453</ele>
        <time>2020-05-14T12:57:37Z</time>
      </trkpt>
      <trkpt lat="43.62385" lon="7.00572">
        <ele>263.41076660156</ele>
        <time>2020-05-14T12:57:38Z</time>
      </trkpt>
      <trkpt lat="43.62385" lon="7.00567">
        <ele>263.41735839844</ele>
        <time>2020-05-14T12:57:39Z</time>
      </trkpt>
      <trkpt lat="43.62385" lon="7.00562">
        <ele>263.85247802734</ele>
        <time>2020-05-14T12:57:40Z</time>
      </trkpt>
      <trkpt lat="43.62385" lon="7.00556">
        <ele>262.59149169922</ele>
        <time>2020-05-14T12:57:41Z</time>
      </trkpt>
      <trkpt lat="43.62385" lon="7.0055">
        <ele>258.87475585938</ele>
        <time>2020-05-14T12:57:42Z</time>
      </trkpt>
      <trkpt lat="43.62384" lon="7.00545">
        <ele>258.9296875</ele>
        <time>2020-05-14T12:57:43Z</time>
      </trkpt>
      <trkpt lat="43.62385" lon="7.00539">
        <ele>258.2841796875</ele>
        <time>2020-05-14T12:57:44Z</time>
      </trkpt>
      <trkpt lat="43.62385" lon="7.00534">
        <ele>256.78216552734</ele>
        <time>2020-05-14T12:57:45Z</time>
      </trkpt>
      <trkpt lat="43.62385" lon="7.00529">
        <ele>256.20593261719</ele>
        <time>2020-05-14T12:57:46Z</time>
      </trkpt>
      <trkpt lat="43.62385" lon="7.00523">
        <ele>261.13842773438</ele>
        <time>2020-05-14T12:57:47Z</time>
      </trkpt>
      <trkpt lat="43.62386" lon="7.00517">
        <ele>258.70275878906</ele>
        <time>2020-05-14T12:57:48Z</time>
      </trkpt>
      <trkpt lat="43.62386" lon="7.00511">
        <ele>259.53643798828</ele>
        <time>2020-05-14T12:57:49Z</time>
      </trkpt>
      <trkpt lat="43.62386" lon="7.00504">
        <ele>264.90454101562</ele>
        <time>2020-05-14T12:57:50Z</time>
      </trkpt>
      <trkpt lat="43.62386" lon="7.00498">
        <ele>263.87512207031</ele>
        <time>2020-05-14T12:57:51Z</time>
      </trkpt>
      <trkpt lat="43.62384" lon="7.00493">
        <ele>263.15441894531</ele>
        <time>2020-05-14T12:57:52Z</time>
      </trkpt>
      <trkpt lat="43.62384" lon="7.00488">
        <ele>263.9091796875</ele>
        <time>2020-05-14T12:57:53Z</time>
      </trkpt>
      <trkpt lat="43.62383" lon="7.00482">
        <ele>264.36889648438</ele>
        <time>2020-05-14T12:57:54Z</time>
      </trkpt>
      <trkpt lat="43.62383" lon="7.00477">
        <ele>265.7197265625</ele>
        <time>2020-05-14T12:57:55Z</time>
      </trkpt>
      <trkpt lat="43.62383" lon="7.00471">
        <ele>266.00048828125</ele>
        <time>2020-05-14T12:57:56Z</time>
      </trkpt>
      <trkpt lat="43.62383" lon="7.00465">
        <ele>266.61328125</ele>
        <time>2020-05-14T12:57:57Z</time>
      </trkpt>
      <trkpt lat="43.62383" lon="7.00459">
        <ele>266.32434082031</ele>
        <time>2020-05-14T12:57:58Z</time>
      </trkpt>
      <trkpt lat="43.62382" lon="7.00452">
        <ele>264.63098144531</ele>
        <time>2020-05-14T12:57:59Z</time>
      </trkpt>
      <trkpt lat="43.62382" lon="7.00445">
        <ele>271.455078125</ele>
        <time>2020-05-14T12:58:00Z</time>
      </trkpt>
      <trkpt lat="43.62381" lon="7.00439">
        <ele>268.01293945312</ele>
        <time>2020-05-14T12:58:01Z</time>
      </trkpt>
      <trkpt lat="43.62381" lon="7.00431">
        <ele>268.00524902344</ele>
        <time>2020-05-14T12:58:02Z</time>
      </trkpt>
      <trkpt lat="43.6238" lon="7.00425">
        <ele>268.18359375</ele>
        <time>2020-05-14T12:58:03Z</time>
      </trkpt>
      <trkpt lat="43.6238" lon="7.00419">
        <ele>267.18640136719</ele>
        <time>2020-05-14T12:58:04Z</time>
      </trkpt>
      <trkpt lat="43.6238" lon="7.00414">
        <ele>267.9306640625</ele>
        <time>2020-05-14T12:58:05Z</time>
      </trkpt>
      <trkpt lat="43.62379" lon="7.00408">
        <ele>264.48553466797</ele>
        <time>2020-05-14T12:58:06Z</time>
      </trkpt>
      <trkpt lat="43.62378" lon="7.00403">
        <ele>264.07727050781</ele>
        <time>2020-05-14T12:58:07Z</time>
      </trkpt>
      <trkpt lat="43.62377" lon="7.00396">
        <ele>263.52746582031</ele>
        <time>2020-05-14T12:58:08Z</time>
      </trkpt>
      <trkpt lat="43.62375" lon="7.0039">
        <ele>262.92004394531</ele>
        <time>2020-05-14T12:58:09Z</time>
      </trkpt>
      <trkpt lat="43.62374" lon="7.00385">
        <ele>263.36187744141</ele>
        <time>2020-05-14T12:58:10Z</time>
      </trkpt>
      <trkpt lat="43.62372" lon="7.00378">
        <ele>262.26788330078</ele>
        <time>2020-05-14T12:58:11Z</time>
      </trkpt>
      <trkpt lat="43.62372" lon="7.00374">
        <ele>263.38616943359</ele>
        <time>2020-05-14T12:58:12Z</time>
      </trkpt>
      <trkpt lat="43.62374" lon="7.00369">
        <ele>272.90625</ele>
        <time>2020-05-14T12:58:13Z</time>
      </trkpt>
      <trkpt lat="43.62379" lon="7.00367">
        <ele>267.29370117188</ele>
        <time>2020-05-14T12:58:14Z</time>
      </trkpt>
      <trkpt lat="43.62377" lon="7.0036">
        <ele>268.58850097656</ele>
        <time>2020-05-14T12:58:15Z</time>
      </trkpt>
      <trkpt lat="43.62377" lon="7.00351">
        <ele>269.13403320312</ele>
        <time>2020-05-14T12:58:16Z</time>
      </trkpt>
      <trkpt lat="43.62377" lon="7.00345">
        <ele>268.548828125</ele>
        <time>2020-05-14T12:58:17Z</time>
      </trkpt>
      <trkpt lat="43.62377" lon="7.00339">
        <ele>269.23657226562</ele>
        <time>2020-05-14T12:58:18Z</time>
      </trkpt>
      <trkpt lat="43.62374" lon="7.00333">
        <ele>269.26831054688</ele>
        <time>2020-05-14T12:58:19Z</time>
      </trkpt>
      <trkpt lat="43.62374" lon="7.00328">
        <ele>269.63244628906</ele>
        <time>2020-05-14T12:58:20Z</time>
      </trkpt>
      <trkpt lat="43.62373" lon="7.00322">
        <ele>269.02514648438</ele>
        <time>2020-05-14T12:58:21Z</time>
      </trkpt>
      <trkpt lat="43.62372" lon="7.00319">
        <ele>266.80859375</ele>
        <time>2020-05-14T12:58:22Z</time>
      </trkpt>
      <trkpt lat="43.6237" lon="7.00314">
        <ele>267.88708496094</ele>
        <time>2020-05-14T12:58:23Z</time>
      </trkpt>
      <trkpt lat="43.6237" lon="7.00307">
        <ele>267.666015625</ele>
        <time>2020-05-14T12:58:24Z</time>
      </trkpt>
      <trkpt lat="43.62368" lon="7.00301">
        <ele>265.73901367188</ele>
        <time>2020-05-14T12:58:25Z</time>
      </trkpt>
      <trkpt lat="43.62366" lon="7.00294">
        <ele>266.94909667969</ele>
        <time>2020-05-14T12:58:26Z</time>
      </trkpt>
      <trkpt lat="43.62366" lon="7.00288">
        <ele>266.876953125</ele>
        <time>2020-05-14T12:58:27Z</time>
      </trkpt>
      <trkpt lat="43.62366" lon="7.00281">
        <ele>267.26806640625</ele>
        <time>2020-05-14T12:58:28Z</time>
      </trkpt>
      <trkpt lat="43.62365" lon="7.00275">
        <ele>269.17492675781</ele>
        <time>2020-05-14T12:58:29Z</time>
      </trkpt>
      <trkpt lat="43.62365" lon="7.00268">
        <ele>270.890625</ele>
        <time>2020-05-14T12:58:30Z</time>
      </trkpt>
      <trkpt lat="43.62364" lon="7.00261">
        <ele>272.2294921875</ele>
        <time>2020-05-14T12:58:31Z</time>
      </trkpt>
      <trkpt lat="43.62365" lon="7.00256">
        <ele>269.45227050781</ele>
        <time>2020-05-14T12:58:32Z</time>
      </trkpt>
      <trkpt lat="43.62366" lon="7.00247">
        <ele>269.81042480469</ele>
        <time>2020-05-14T12:58:33Z</time>
      </trkpt>
      <trkpt lat="43.62366" lon="7.00242">
        <ele>268.75231933594</ele>
        <time>2020-05-14T12:58:34Z</time>
      </trkpt>
      <trkpt lat="43.62367" lon="7.00235">
        <ele>269.60815429688</ele>
        <time>2020-05-14T12:58:35Z</time>
      </trkpt>
      <trkpt lat="43.62367" lon="7.00228">
        <ele>268.16351318359</ele>
        <time>2020-05-14T12:58:36Z</time>
      </trkpt>
      <trkpt lat="43.6237" lon="7.00222">
        <ele>268.68377685547</ele>
        <time>2020-05-14T12:58:37Z</time>
      </trkpt>
      <trkpt lat="43.62371" lon="7.00216">
        <ele>264.38439941406</ele>
        <time>2020-05-14T12:58:38Z</time>
      </trkpt>
      <trkpt lat="43.62373" lon="7.0021">
        <ele>265.044921875</ele>
        <time>2020-05-14T12:58:39Z</time>
      </trkpt>
      <trkpt lat="43.62373" lon="7.00203">
        <ele>274.76873779297</ele>
        <time>2020-05-14T12:58:40Z</time>
      </trkpt>
      <trkpt lat="43.62374" lon="7.00196">
        <ele>273.47485351562</ele>
        <time>2020-05-14T12:58:41Z</time>
      </trkpt>
      <trkpt lat="43.62376" lon="7.00191">
        <ele>271.42095947266</ele>
        <time>2020-05-14T12:58:42Z</time>
      </trkpt>
      <trkpt lat="43.62377" lon="7.00184">
        <ele>269.92736816406</ele>
        <time>2020-05-14T12:58:43Z</time>
      </trkpt>
      <trkpt lat="43.62378" lon="7.00178">
        <ele>268.93798828125</ele>
        <time>2020-05-14T12:58:44Z</time>
      </trkpt>
      <trkpt lat="43.62378" lon="7.00172">
        <ele>267.69000244141</ele>
        <time>2020-05-14T12:58:45Z</time>
      </trkpt>
      <trkpt lat="43.62379" lon="7.00166">
        <ele>266.56365966797</ele>
        <time>2020-05-14T12:58:46Z</time>
      </trkpt>
      <trkpt lat="43.62381" lon="7.00161">
        <ele>265.80041503906</ele>
        <time>2020-05-14T12:58:47Z</time>
      </trkpt>
      <trkpt lat="43.62384" lon="7.00155">
        <ele>261.91674804688</ele>
        <time>2020-05-14T12:58:48Z</time>
      </trkpt>
      <trkpt lat="43.62385" lon="7.00148">
        <ele>261.7734375</ele>
        <time>2020-05-14T12:58:49Z</time>
      </trkpt>
      <trkpt lat="43.62385" lon="7.00141">
        <ele>267.98999023438</ele>
        <time>2020-05-14T12:58:50Z</time>
      </trkpt>
      <trkpt lat="43.62387" lon="7.00135">
        <ele>267.56652832031</ele>
        <time>2020-05-14T12:58:51Z</time>
      </trkpt>
      <trkpt lat="43.62388" lon="7.00128">
        <ele>267.4169921875</ele>
        <time>2020-05-14T12:58:52Z</time>
      </trkpt>
      <trkpt lat="43.62389" lon="7.00122">
        <ele>267.83068847656</ele>
        <time>2020-05-14T12:58:53Z</time>
      </trkpt>
      <trkpt lat="43.6239" lon="7.00116">
        <ele>268.17706298828</ele>
        <time>2020-05-14T12:58:54Z</time>
      </trkpt>
      <trkpt lat="43.62391" lon="7.0011">
        <ele>267.44641113281</ele>
        <time>2020-05-14T12:58:55Z</time>
      </trkpt>
      <trkpt lat="43.62392" lon="7.00104">
        <ele>267.1640625</ele>
        <time>2020-05-14T12:58:56Z</time>
      </trkpt>
      <trkpt lat="43.62394" lon="7.00097">
        <ele>266.55590820312</ele>
        <time>2020-05-14T12:58:57Z</time>
      </trkpt>
      <trkpt lat="43.62396" lon="7.0009">
        <ele>266.2646484375</ele>
        <time>2020-05-14T12:58:58Z</time>
      </trkpt>
      <trkpt lat="43.62398" lon="7.00085">
        <ele>267.46813964844</ele>
        <time>2020-05-14T12:58:59Z</time>
      </trkpt>
      <trkpt lat="43.624" lon="7.00081">
        <ele>269.6171875</ele>
        <time>2020-05-14T12:59:00Z</time>
      </trkpt>
      <trkpt lat="43.62402" lon="7.00074">
        <ele>270.43688964844</ele>
        <time>2020-05-14T12:59:01Z</time>
      </trkpt>
      <trkpt lat="43.62402" lon="7.00069">
        <ele>267.7529296875</ele>
        <time>2020-05-14T12:59:02Z</time>
      </trkpt>
      <trkpt lat="43.62404" lon="7.00063">
        <ele>266.70196533203</ele>
        <time>2020-05-14T12:59:03Z</time>
      </trkpt>
      <trkpt lat="43.62406" lon="7.00058">
        <ele>265.89031982422</ele>
        <time>2020-05-14T12:59:04Z</time>
      </trkpt>
      <trkpt lat="43.62408" lon="7.00054">
        <ele>265.90844726562</ele>
        <time>2020-05-14T12:59:05Z</time>
      </trkpt>
      <trkpt lat="43.6241" lon="7.00047">
        <ele>266.71185302734</ele>
        <time>2020-05-14T12:59:06Z</time>
      </trkpt>
      <trkpt lat="43.62413" lon="7.00042">
        <ele>267.45648193359</ele>
        <time>2020-05-14T12:59:07Z</time>
      </trkpt>
      <trkpt lat="43.62415" lon="7.00037">
        <ele>268.32592773438</ele>
        <time>2020-05-14T12:59:08Z</time>
      </trkpt>
      <trkpt lat="43.62418" lon="7.0003">
        <ele>268.46508789062</ele>
        <time>2020-05-14T12:59:09Z</time>
      </trkpt>
      <trkpt lat="43.6242" lon="7.00025">
        <ele>269.30627441406</ele>
        <time>2020-05-14T12:59:10Z</time>
      </trkpt>
      <trkpt lat="43.62421" lon="7.00019">
        <ele>268.50366210938</ele>
        <time>2020-05-14T12:59:11Z</time>
      </trkpt>
      <trkpt lat="43.62423" lon="7.00015">
        <ele>268.23132324219</ele>
        <time>2020-05-14T12:59:12Z</time>
      </trkpt>
      <trkpt lat="43.62425" lon="7.00009">
        <ele>267.44750976562</ele>
        <time>2020-05-14T12:59:13Z</time>
      </trkpt>
      <trkpt lat="43.62427" lon="7.00004">
        <ele>269.47485351562</ele>
        <time>2020-05-14T12:59:14Z</time>
      </trkpt>
      <trkpt lat="43.62431" lon="6.99998">
        <ele>270.39361572266</ele>
        <time>2020-05-14T12:59:15Z</time>
      </trkpt>
      <trkpt lat="43.62433" lon="6.99993">
        <ele>269.77508544922</ele>
        <time>2020-05-14T12:59:16Z</time>
      </trkpt>
      <trkpt lat="43.62435" lon="6.99987">
        <ele>269.14147949219</ele>
        <time>2020-05-14T12:59:17Z</time>
      </trkpt>
      <trkpt lat="43.62437" lon="6.9998">
        <ele>267.79919433594</ele>
        <time>2020-05-14T12:59:18Z</time>
      </trkpt>
      <trkpt lat="43.62438" lon="6.99974">
        <ele>268.83020019531</ele>
        <time>2020-05-14T12:59:19Z</time>
      </trkpt>
      <trkpt lat="43.62439" lon="6.99968">
        <ele>268.27056884766</ele>
        <time>2020-05-14T12:59:20Z</time>
      </trkpt>
      <trkpt lat="43.6244" lon="6.99963">
        <ele>268.85711669922</ele>
        <time>2020-05-14T12:59:21Z</time>
      </trkpt>
      <trkpt lat="43.62441" lon="6.99956">
        <ele>270.01403808594</ele>
        <time>2020-05-14T12:59:22Z</time>
      </trkpt>
      <trkpt lat="43.62444" lon="6.99949">
        <ele>269.947265625</ele>
        <time>2020-05-14T12:59:23Z</time>
      </trkpt>
      <trkpt lat="43.62447" lon="6.99944">
        <ele>269.70196533203</ele>
        <time>2020-05-14T12:59:24Z</time>
      </trkpt>
      <trkpt lat="43.62449" lon="6.99938">
        <ele>268.32666015625</ele>
        <time>2020-05-14T12:59:25Z</time>
      </trkpt>
      <trkpt lat="43.62452" lon="6.99933">
        <ele>266.98522949219</ele>
        <time>2020-05-14T12:59:26Z</time>
      </trkpt>
      <trkpt lat="43.62455" lon="6.99929">
        <ele>266.79895019531</ele>
        <time>2020-05-14T12:59:27Z</time>
      </trkpt>
      <trkpt lat="43.62457" lon="6.99923">
        <ele>266.32934570312</ele>
        <time>2020-05-14T12:59:28Z</time>
      </trkpt>
      <trkpt lat="43.6246" lon="6.99918">
        <ele>266.94555664062</ele>
        <time>2020-05-14T12:59:29Z</time>
      </trkpt>
      <trkpt lat="43.62464" lon="6.99914">
        <ele>267.43829345703</ele>
        <time>2020-05-14T12:59:30Z</time>
      </trkpt>
      <trkpt lat="43.62467" lon="6.99912">
        <ele>267.49047851562</ele>
        <time>2020-05-14T12:59:31Z</time>
      </trkpt>
      <trkpt lat="43.62471" lon="6.99909">
        <ele>268.57427978516</ele>
        <time>2020-05-14T12:59:32Z</time>
      </trkpt>
      <trkpt lat="43.62475" lon="6.99908">
        <ele>267.65179443359</ele>
        <time>2020-05-14T12:59:33Z</time>
      </trkpt>
      <trkpt lat="43.62479" lon="6.99905">
        <ele>267.24859619141</ele>
        <time>2020-05-14T12:59:34Z</time>
      </trkpt>
      <trkpt lat="43.62482" lon="6.99902">
        <ele>267.62036132812</ele>
        <time>2020-05-14T12:59:35Z</time>
      </trkpt>
      <trkpt lat="43.62486" lon="6.99899">
        <ele>267.75793457031</ele>
        <time>2020-05-14T12:59:36Z</time>
      </trkpt>
      <trkpt lat="43.62489" lon="6.99897">
        <ele>267.57379150391</ele>
        <time>2020-05-14T12:59:37Z</time>
      </trkpt>
      <trkpt lat="43.62493" lon="6.99896">
        <ele>266.84600830078</ele>
        <time>2020-05-14T12:59:38Z</time>
      </trkpt>
      <trkpt lat="43.62496" lon="6.99896">
        <ele>264.91729736328</ele>
        <time>2020-05-14T12:59:39Z</time>
      </trkpt>
      <trkpt lat="43.625" lon="6.99896">
        <ele>263.33447265625</ele>
        <time>2020-05-14T12:59:40Z</time>
      </trkpt>
      <trkpt lat="43.62505" lon="6.99895">
        <ele>263.25219726562</ele>
        <time>2020-05-14T12:59:41Z</time>
      </trkpt>
      <trkpt lat="43.62509" lon="6.99894">
        <ele>264.08978271484</ele>
        <time>2020-05-14T12:59:42Z</time>
      </trkpt>
      <trkpt lat="43.62514" lon="6.99895">
        <ele>264.724609375</ele>
        <time>2020-05-14T12:59:43Z</time>
      </trkpt>
      <trkpt lat="43.62519" lon="6.99895">
        <ele>264.73706054688</ele>
        <time>2020-05-14T12:59:44Z</time>
      </trkpt>
      <trkpt lat="43.62522" lon="6.99893">
        <ele>264.89721679688</ele>
        <time>2020-05-14T12:59:45Z</time>
      </trkpt>
      <trkpt lat="43.62526" lon="6.99893">
        <ele>266.33843994141</ele>
        <time>2020-05-14T12:59:46Z</time>
      </trkpt>
      <trkpt lat="43.62531" lon="6.99893">
        <ele>267.68725585938</ele>
        <time>2020-05-14T12:59:47Z</time>
      </trkpt>
      <trkpt lat="43.62536" lon="6.99894">
        <ele>267.06579589844</ele>
        <time>2020-05-14T12:59:48Z</time>
      </trkpt>
      <trkpt lat="43.62541" lon="6.99894">
        <ele>265.36401367188</ele>
        <time>2020-05-14T12:59:49Z</time>
      </trkpt>
      <trkpt lat="43.62546" lon="6.99895">
        <ele>264.02209472656</ele>
        <time>2020-05-14T12:59:50Z</time>
      </trkpt>
      <trkpt lat="43.62551" lon="6.99895">
        <ele>262.68151855469</ele>
        <time>2020-05-14T12:59:51Z</time>
      </trkpt>
      <trkpt lat="43.62555" lon="6.99894">
        <ele>260.70227050781</ele>
        <time>2020-05-14T12:59:52Z</time>
      </trkpt>
      <trkpt lat="43.62559" lon="6.99894">
        <ele>260.07385253906</ele>
        <time>2020-05-14T12:59:53Z</time>
      </trkpt>
      <trkpt lat="43.62563" lon="6.99893">
        <ele>260.16027832031</ele>
        <time>2020-05-14T12:59:54Z</time>
      </trkpt>
      <trkpt lat="43.62567" lon="6.99893">
        <ele>260.05688476562</ele>
        <time>2020-05-14T12:59:55Z</time>
      </trkpt>
      <trkpt lat="43.6257" lon="6.99892">
        <ele>258.83825683594</ele>
        <time>2020-05-14T12:59:56Z</time>
      </trkpt>
      <trkpt lat="43.62574" lon="6.99893">
        <ele>258.24621582031</ele>
        <time>2020-05-14T12:59:57Z</time>
      </trkpt>
      <trkpt lat="43.6258" lon="6.99893">
        <ele>255.69909667969</ele>
        <time>2020-05-14T12:59:58Z</time>
      </trkpt>
      <trkpt lat="43.62586" lon="6.99893">
        <ele>256.35546875</ele>
        <time>2020-05-14T12:59:59Z</time>
      </trkpt>
      <trkpt lat="43.62593" lon="6.99893">
        <ele>256.58966064453</ele>
        <time>2020-05-14T13:00:00Z</time>
      </trkpt>
      <trkpt lat="43.62599" lon="6.99893">
        <ele>257.21447753906</ele>
        <time>2020-05-14T13:00:01Z</time>
      </trkpt>
      <trkpt lat="43.62604" lon="6.99893">
        <ele>261.83349609375</ele>
        <time>2020-05-14T13:00:02Z</time>
      </trkpt>
      <trkpt lat="43.62611" lon="6.99894">
        <ele>268.33038330078</ele>
        <time>2020-05-14T13:00:03Z</time>
      </trkpt>
      <trkpt lat="43.62617" lon="6.99893">
        <ele>274.80255126953</ele>
        <time>2020-05-14T13:00:04Z</time>
      </trkpt>
      <trkpt lat="43.62624" lon="6.99893">
        <ele>277.37316894531</ele>
        <time>2020-05-14T13:00:05Z</time>
      </trkpt>
      <trkpt lat="43.6263" lon="6.99893">
        <ele>279.62475585938</ele>
        <time>2020-05-14T13:00:06Z</time>
      </trkpt>
      <trkpt lat="43.62636" lon="6.99892">
        <ele>281.57946777344</ele>
        <time>2020-05-14T13:00:07Z</time>
      </trkpt>
      <trkpt lat="43.62642" lon="6.99891">
        <ele>281.67083740234</ele>
        <time>2020-05-14T13:00:08Z</time>
      </trkpt>
      <trkpt lat="43.62649" lon="6.99891">
        <ele>287.96240234375</ele>
        <time>2020-05-14T13:00:09Z</time>
      </trkpt>
      <trkpt lat="43.62655" lon="6.99889">
        <ele>288.18835449219</ele>
        <time>2020-05-14T13:00:10Z</time>
      </trkpt>
      <trkpt lat="43.62661" lon="6.99888">
        <ele>288.40344238281</ele>
        <time>2020-05-14T13:00:11Z</time>
      </trkpt>
      <trkpt lat="43.62667" lon="6.99887">
        <ele>288.53698730469</ele>
        <time>2020-05-14T13:00:12Z</time>
      </trkpt>
      <trkpt lat="43.62673" lon="6.99886">
        <ele>288.57678222656</ele>
        <time>2020-05-14T13:00:13Z</time>
      </trkpt>
      <trkpt lat="43.6268" lon="6.99884">
        <ele>288.46618652344</ele>
        <time>2020-05-14T13:00:14Z</time>
      </trkpt>
      <trkpt lat="43.62686" lon="6.99883">
        <ele>288.31286621094</ele>
        <time>2020-05-14T13:00:15Z</time>
      </trkpt>
      <trkpt lat="43.62693" lon="6.99881">
        <ele>288.15814208984</ele>
        <time>2020-05-14T13:00:16Z</time>
      </trkpt>
      <trkpt lat="43.627" lon="6.99879">
        <ele>288.04113769531</ele>
        <time>2020-05-14T13:00:17Z</time>
      </trkpt>
      <trkpt lat="43.62707" lon="6.99877">
        <ele>287.88592529297</ele>
        <time>2020-05-14T13:00:18Z</time>
      </trkpt>
      <trkpt lat="43.62715" lon="6.99875">
        <ele>287.90832519531</ele>
        <time>2020-05-14T13:00:19Z</time>
      </trkpt>
      <trkpt lat="43.62723" lon="6.99873">
        <ele>287.81518554688</ele>
        <time>2020-05-14T13:00:20Z</time>
      </trkpt>
      <trkpt lat="43.62731" lon="6.99871">
        <ele>287.72338867188</ele>
        <time>2020-05-14T13:00:21Z</time>
      </trkpt>
      <trkpt lat="43.62739" lon="6.99869">
        <ele>287.60009765625</ele>
        <time>2020-05-14T13:00:22Z</time>
      </trkpt>
      <trkpt lat="43.62747" lon="6.99867">
        <ele>287.55810546875</ele>
        <time>2020-05-14T13:00:23Z</time>
      </trkpt>
      <trkpt lat="43.62756" lon="6.99865">
        <ele>287.2294921875</ele>
        <time>2020-05-14T13:00:24Z</time>
      </trkpt>
      <trkpt lat="43.62764" lon="6.99862">
        <ele>287.07092285156</ele>
        <time>2020-05-14T13:00:25Z</time>
      </trkpt>
      <trkpt lat="43.62773" lon="6.9986">
        <ele>287.24035644531</ele>
        <time>2020-05-14T13:00:26Z</time>
      </trkpt>
      <trkpt lat="43.62782" lon="6.99858">
        <ele>286.68151855469</ele>
        <time>2020-05-14T13:00:27Z</time>
      </trkpt>
      <trkpt lat="43.6279" lon="6.99857">
        <ele>286.33355712891</ele>
        <time>2020-05-14T13:00:28Z</time>
      </trkpt>
      <trkpt lat="43.62799" lon="6.99856">
        <ele>285.87866210938</ele>
        <time>2020-05-14T13:00:29Z</time>
      </trkpt>
      <trkpt lat="43.62807" lon="6.99854">
        <ele>286.04516601562</ele>
        <time>2020-05-14T13:00:30Z</time>
      </trkpt>
      <trkpt lat="43.62815" lon="6.99851">
        <ele>285.98901367188</ele>
        <time>2020-05-14T13:00:31Z</time>
      </trkpt>
      <trkpt lat="43.62824" lon="6.99849">
        <ele>286.41723632812</ele>
        <time>2020-05-14T13:00:32Z</time>
      </trkpt>
      <trkpt lat="43.62832" lon="6.99848">
        <ele>286.41876220703</ele>
        <time>2020-05-14T13:00:33Z</time>
      </trkpt>
      <trkpt lat="43.62842" lon="6.99846">
        <ele>285.82012939453</ele>
        <time>2020-05-14T13:00:34Z</time>
      </trkpt>
      <trkpt lat="43.6285" lon="6.99844">
        <ele>285.70983886719</ele>
        <time>2020-05-14T13:00:35Z</time>
      </trkpt>
      <trkpt lat="43.6286" lon="6.99843">
        <ele>286.05017089844</ele>
        <time>2020-05-14T13:00:36Z</time>
      </trkpt>
      <trkpt lat="43.62868" lon="6.99842">
        <ele>285.67944335938</ele>
        <time>2020-05-14T13:00:37Z</time>
      </trkpt>
      <trkpt lat="43.62877" lon="6.9984">
        <ele>285.37890625</ele>
        <time>2020-05-14T13:00:38Z</time>
      </trkpt>
      <trkpt lat="43.62886" lon="6.99838">
        <ele>284.58703613281</ele>
        <time>2020-05-14T13:00:39Z</time>
      </trkpt>
      <trkpt lat="43.62895" lon="6.99837">
        <ele>284.00134277344</ele>
        <time>2020-05-14T13:00:40Z</time>
      </trkpt>
      <trkpt lat="43.62904" lon="6.99837">
        <ele>283.7578125</ele>
        <time>2020-05-14T13:00:41Z</time>
      </trkpt>
      <trkpt lat="43.62912" lon="6.99838">
        <ele>283.43139648438</ele>
        <time>2020-05-14T13:00:42Z</time>
      </trkpt>
      <trkpt lat="43.6292" lon="6.99841">
        <ele>283.40325927734</ele>
        <time>2020-05-14T13:00:43Z</time>
      </trkpt>
      <trkpt lat="43.62928" lon="6.99845">
        <ele>283.29174804688</ele>
        <time>2020-05-14T13:00:44Z</time>
      </trkpt>
      <trkpt lat="43.62935" lon="6.99849">
        <ele>283.49401855469</ele>
        <time>2020-05-14T13:00:45Z</time>
      </trkpt>
      <trkpt lat="43.62943" lon="6.99852">
        <ele>283.54418945312</ele>
        <time>2020-05-14T13:00:46Z</time>
      </trkpt>
      <trkpt lat="43.6295" lon="6.99856">
        <ele>283.59375</ele>
        <time>2020-05-14T13:00:47Z</time>
      </trkpt>
      <trkpt lat="43.62957" lon="6.99859">
        <ele>283.83715820312</ele>
        <time>2020-05-14T13:00:48Z</time>
      </trkpt>
      <trkpt lat="43.62963" lon="6.99863">
        <ele>283.54461669922</ele>
        <time>2020-05-14T13:00:49Z</time>
      </trkpt>
      <trkpt lat="43.6297" lon="6.99867">
        <ele>283.17132568359</ele>
        <time>2020-05-14T13:00:50Z</time>
      </trkpt>
      <trkpt lat="43.62977" lon="6.99871">
        <ele>282.85375976562</ele>
        <time>2020-05-14T13:00:51Z</time>
      </trkpt>
      <trkpt lat="43.62984" lon="6.99875">
        <ele>282.63903808594</ele>
        <time>2020-05-14T13:00:52Z</time>
      </trkpt>
      <trkpt lat="43.62991" lon="6.99879">
        <ele>282.03381347656</ele>
        <time>2020-05-14T13:00:53Z</time>
      </trkpt>
      <trkpt lat="43.62998" lon="6.99883">
        <ele>281.74572753906</ele>
        <time>2020-05-14T13:00:54Z</time>
      </trkpt>
      <trkpt lat="43.63006" lon="6.99887">
        <ele>281.38885498047</ele>
        <time>2020-05-14T13:00:55Z</time>
      </trkpt>
      <trkpt lat="43.63013" lon="6.99891">
        <ele>281.35205078125</ele>
        <time>2020-05-14T13:00:56Z</time>
      </trkpt>
      <trkpt lat="43.6302" lon="6.99896">
        <ele>281.72631835938</ele>
        <time>2020-05-14T13:00:57Z</time>
      </trkpt>
      <trkpt lat="43.63027" lon="6.999">
        <ele>281.75</ele>
        <time>2020-05-14T13:00:58Z</time>
      </trkpt>
      <trkpt lat="43.63035" lon="6.99904">
        <ele>281.68011474609</ele>
        <time>2020-05-14T13:00:59Z</time>
      </trkpt>
      <trkpt lat="43.63042" lon="6.99909">
        <ele>281.47277832031</ele>
        <time>2020-05-14T13:01:00Z</time>
      </trkpt>
      <trkpt lat="43.6305" lon="6.99913">
        <ele>281.25732421875</ele>
        <time>2020-05-14T13:01:01Z</time>
      </trkpt>
      <trkpt lat="43.63057" lon="6.99918">
        <ele>280.82537841797</ele>
        <time>2020-05-14T13:01:02Z</time>
      </trkpt>
      <trkpt lat="43.63065" lon="6.99923">
        <ele>280.56628417969</ele>
        <time>2020-05-14T13:01:03Z</time>
      </trkpt>
      <trkpt lat="43.63072" lon="6.99927">
        <ele>280.328125</ele>
        <time>2020-05-14T13:01:04Z</time>
      </trkpt>
      <trkpt lat="43.63079" lon="6.99932">
        <ele>280.13330078125</ele>
        <time>2020-05-14T13:01:05Z</time>
      </trkpt>
      <trkpt lat="43.63087" lon="6.99936">
        <ele>279.86785888672</ele>
        <time>2020-05-14T13:01:06Z</time>
      </trkpt>
      <trkpt lat="43.63094" lon="6.9994">
        <ele>279.75439453125</ele>
        <time>2020-05-14T13:01:07Z</time>
      </trkpt>
      <trkpt lat="43.63103" lon="6.99941">
        <ele>279.41711425781</ele>
        <time>2020-05-14T13:01:08Z</time>
      </trkpt>
      <trkpt lat="43.63111" lon="6.99942">
        <ele>279.60021972656</ele>
        <time>2020-05-14T13:01:09Z</time>
      </trkpt>
      <trkpt lat="43.63119" lon="6.99944">
        <ele>279.91314697266</ele>
        <time>2020-05-14T13:01:10Z</time>
      </trkpt>
      <trkpt lat="43.63128" lon="6.99946">
        <ele>278.93585205078</ele>
        <time>2020-05-14T13:01:11Z</time>
      </trkpt>
      <trkpt lat="43.63137" lon="6.99947">
        <ele>278.201171875</ele>
        <time>2020-05-14T13:01:12Z</time>
      </trkpt>
      <trkpt lat="43.63145" lon="6.99948">
        <ele>278.24792480469</ele>
        <time>2020-05-14T13:01:13Z</time>
      </trkpt>
      <trkpt lat="43.63154" lon="6.9995">
        <ele>277.31237792969</ele>
        <time>2020-05-14T13:01:14Z</time>
      </trkpt>
      <trkpt lat="43.63163" lon="6.99951">
        <ele>276.91809082031</ele>
        <time>2020-05-14T13:01:15Z</time>
      </trkpt>
      <trkpt lat="43.63173" lon="6.99953">
        <ele>276.0693359375</ele>
        <time>2020-05-14T13:01:16Z</time>
      </trkpt>
      <trkpt lat="43.63181" lon="6.99955">
        <ele>275.41320800781</ele>
        <time>2020-05-14T13:01:17Z</time>
      </trkpt>
      <trkpt lat="43.63191" lon="6.99958">
        <ele>275.29858398438</ele>
        <time>2020-05-14T13:01:18Z</time>
      </trkpt>
      <trkpt lat="43.632" lon="6.99962">
        <ele>274.71691894531</ele>
        <time>2020-05-14T13:01:19Z</time>
      </trkpt>
      <trkpt lat="43.63209" lon="6.99966">
        <ele>274.75543212891</ele>
        <time>2020-05-14T13:01:20Z</time>
      </trkpt>
      <trkpt lat="43.63218" lon="6.99971">
        <ele>274.14514160156</ele>
        <time>2020-05-14T13:01:21Z</time>
      </trkpt>
      <trkpt lat="43.63227" lon="6.99975">
        <ele>273.97595214844</ele>
        <time>2020-05-14T13:01:22Z</time>
      </trkpt>
      <trkpt lat="43.63235" lon="6.9998">
        <ele>274.02587890625</ele>
        <time>2020-05-14T13:01:23Z</time>
      </trkpt>
      <trkpt lat="43.63244" lon="6.99987">
        <ele>273.71539306641</ele>
        <time>2020-05-14T13:01:24Z</time>
      </trkpt>
      <trkpt lat="43.63252" lon="6.99994">
        <ele>273.470703125</ele>
        <time>2020-05-14T13:01:25Z</time>
      </trkpt>
      <trkpt lat="43.6326" lon="7.00001">
        <ele>273.43298339844</ele>
        <time>2020-05-14T13:01:26Z</time>
      </trkpt>
      <trkpt lat="43.63268" lon="7.00009">
        <ele>273.49926757812</ele>
        <time>2020-05-14T13:01:27Z</time>
      </trkpt>
      <trkpt lat="43.63276" lon="7.00015">
        <ele>273.25769042969</ele>
        <time>2020-05-14T13:01:28Z</time>
      </trkpt>
      <trkpt lat="43.63285" lon="7.00019">
        <ele>273.17083740234</ele>
        <time>2020-05-14T13:01:29Z</time>
      </trkpt>
      <trkpt lat="43.63294" lon="7.00022">
        <ele>272.47454833984</ele>
        <time>2020-05-14T13:01:30Z</time>
      </trkpt>
      <trkpt lat="43.63304" lon="7.00024">
        <ele>272.65637207031</ele>
        <time>2020-05-14T13:01:31Z</time>
      </trkpt>
      <trkpt lat="43.63313" lon="7.00026">
        <ele>272.57434082031</ele>
        <time>2020-05-14T13:01:32Z</time>
      </trkpt>
      <trkpt lat="43.63323" lon="7.00029">
        <ele>272.65850830078</ele>
        <time>2020-05-14T13:01:33Z</time>
      </trkpt>
      <trkpt lat="43.63332" lon="7.00035">
        <ele>272.06872558594</ele>
        <time>2020-05-14T13:01:34Z</time>
      </trkpt>
      <trkpt lat="43.63341" lon="7.00041">
        <ele>271.78601074219</ele>
        <time>2020-05-14T13:01:35Z</time>
      </trkpt>
      <trkpt lat="43.63348" lon="7.0005">
        <ele>271.83227539062</ele>
        <time>2020-05-14T13:01:36Z</time>
      </trkpt>
      <trkpt lat="43.63355" lon="7.0006">
        <ele>271.3603515625</ele>
        <time>2020-05-14T13:01:37Z</time>
      </trkpt>
      <trkpt lat="43.63361" lon="7.0007">
        <ele>271.20593261719</ele>
        <time>2020-05-14T13:01:38Z</time>
      </trkpt>
      <trkpt lat="43.63366" lon="7.00081">
        <ele>271.07263183594</ele>
        <time>2020-05-14T13:01:39Z</time>
      </trkpt>
      <trkpt lat="43.63371" lon="7.00092">
        <ele>270.99566650391</ele>
        <time>2020-05-14T13:01:40Z</time>
      </trkpt>
      <trkpt lat="43.63376" lon="7.00103">
        <ele>271.02648925781</ele>
        <time>2020-05-14T13:01:41Z</time>
      </trkpt>
      <trkpt lat="43.6338" lon="7.00114">
        <ele>270.98931884766</ele>
        <time>2020-05-14T13:01:42Z</time>
      </trkpt>
      <trkpt lat="43.63385" lon="7.00125">
        <ele>270.95373535156</ele>
        <time>2020-05-14T13:01:43Z</time>
      </trkpt>
      <trkpt lat="43.6339" lon="7.00135">
        <ele>271.22045898438</ele>
        <time>2020-05-14T13:01:44Z</time>
      </trkpt>
      <trkpt lat="43.63394" lon="7.00146">
        <ele>270.67944335938</ele>
        <time>2020-05-14T13:01:45Z</time>
      </trkpt>
      <trkpt lat="43.634" lon="7.00155">
        <ele>270.98962402344</ele>
        <time>2020-05-14T13:01:46Z</time>
      </trkpt>
      <trkpt lat="43.63406" lon="7.00163">
        <ele>271.34851074219</ele>
        <time>2020-05-14T13:01:47Z</time>
      </trkpt>
      <trkpt lat="43.63413" lon="7.0017">
        <ele>271.30633544922</ele>
        <time>2020-05-14T13:01:48Z</time>
      </trkpt>
      <trkpt lat="43.63421" lon="7.00177">
        <ele>271.16613769531</ele>
        <time>2020-05-14T13:01:49Z</time>
      </trkpt>
      <trkpt lat="43.63428" lon="7.00184">
        <ele>271.76806640625</ele>
        <time>2020-05-14T13:01:50Z</time>
      </trkpt>
      <trkpt lat="43.63435" lon="7.00189">
        <ele>271.63134765625</ele>
        <time>2020-05-14T13:01:51Z</time>
      </trkpt>
      <trkpt lat="43.63443" lon="7.00199">
        <ele>271.18786621094</ele>
        <time>2020-05-14T13:01:52Z</time>
      </trkpt>
      <trkpt lat="43.63451" lon="7.00204">
        <ele>274.1455078125</ele>
        <time>2020-05-14T13:01:53Z</time>
      </trkpt>
      <trkpt lat="43.63459" lon="7.00212">
        <ele>273.49591064453</ele>
        <time>2020-05-14T13:01:54Z</time>
      </trkpt>
      <trkpt lat="43.63467" lon="7.00218">
        <ele>274.01965332031</ele>
        <time>2020-05-14T13:01:55Z</time>
      </trkpt>
      <trkpt lat="43.63474" lon="7.00224">
        <ele>274.96691894531</ele>
        <time>2020-05-14T13:01:56Z</time>
      </trkpt>
      <trkpt lat="43.63483" lon="7.00231">
        <ele>275.65966796875</ele>
        <time>2020-05-14T13:01:57Z</time>
      </trkpt>
      <trkpt lat="43.63491" lon="7.00237">
        <ele>275.99743652344</ele>
        <time>2020-05-14T13:01:58Z</time>
      </trkpt>
      <trkpt lat="43.635" lon="7.00242">
        <ele>272.96228027344</ele>
        <time>2020-05-14T13:01:59Z</time>
      </trkpt>
      <trkpt lat="43.63509" lon="7.00246">
        <ele>273.80035400391</ele>
        <time>2020-05-14T13:02:00Z</time>
      </trkpt>
      <trkpt lat="43.63518" lon="7.00247">
        <ele>274.04730224609</ele>
        <time>2020-05-14T13:02:01Z</time>
      </trkpt>
      <trkpt lat="43.63527" lon="7.00246">
        <ele>274.55847167969</ele>
        <time>2020-05-14T13:02:02Z</time>
      </trkpt>
      <trkpt lat="43.63536" lon="7.00245">
        <ele>274.19232177734</ele>
        <time>2020-05-14T13:02:03Z</time>
      </trkpt>
      <trkpt lat="43.63546" lon="7.00246">
        <ele>274.08361816406</ele>
        <time>2020-05-14T13:02:04Z</time>
      </trkpt>
      <trkpt lat="43.63555" lon="7.00251">
        <ele>273.87640380859</ele>
        <time>2020-05-14T13:02:05Z</time>
      </trkpt>
      <trkpt lat="43.63562" lon="7.00259">
        <ele>274.03759765625</ele>
        <time>2020-05-14T13:02:06Z</time>
      </trkpt>
      <trkpt lat="43.63569" lon="7.00268">
        <ele>274.22399902344</ele>
        <time>2020-05-14T13:02:07Z</time>
      </trkpt>
      <trkpt lat="43.63574" lon="7.0028">
        <ele>274.45886230469</ele>
        <time>2020-05-14T13:02:08Z</time>
      </trkpt>
      <trkpt lat="43.63579" lon="7.00292">
        <ele>274.99749755859</ele>
        <time>2020-05-14T13:02:09Z</time>
      </trkpt>
      <trkpt lat="43.63584" lon="7.00304">
        <ele>269.87707519531</ele>
        <time>2020-05-14T13:02:10Z</time>
      </trkpt>
      <trkpt lat="43.63587" lon="7.00315">
        <ele>268.85461425781</ele>
        <time>2020-05-14T13:02:11Z</time>
      </trkpt>
      <trkpt lat="43.63591" lon="7.00327">
        <ele>268.70739746094</ele>
        <time>2020-05-14T13:02:12Z</time>
      </trkpt>
      <trkpt lat="43.63596" lon="7.00338">
        <ele>264.92272949219</ele>
        <time>2020-05-14T13:02:13Z</time>
      </trkpt>
      <trkpt lat="43.63602" lon="7.0035">
        <ele>263.97247314453</ele>
        <time>2020-05-14T13:02:14Z</time>
      </trkpt>
      <trkpt lat="43.63608" lon="7.00361">
        <ele>264.21313476562</ele>
        <time>2020-05-14T13:02:15Z</time>
      </trkpt>
      <trkpt lat="43.63614" lon="7.00373">
        <ele>263.38732910156</ele>
        <time>2020-05-14T13:02:16Z</time>
      </trkpt>
      <trkpt lat="43.63621" lon="7.00385">
        <ele>262.4521484375</ele>
        <time>2020-05-14T13:02:17Z</time>
      </trkpt>
      <trkpt lat="43.63627" lon="7.00395">
        <ele>261.50183105469</ele>
        <time>2020-05-14T13:02:18Z</time>
      </trkpt>
      <trkpt lat="43.63633" lon="7.00405">
        <ele>260.70617675781</ele>
        <time>2020-05-14T13:02:19Z</time>
      </trkpt>
      <trkpt lat="43.63641" lon="7.00415">
        <ele>260.83947753906</ele>
        <time>2020-05-14T13:02:20Z</time>
      </trkpt>
      <trkpt lat="43.63648" lon="7.00421">
        <ele>260.27575683594</ele>
        <time>2020-05-14T13:02:21Z</time>
      </trkpt>
      <trkpt lat="43.63656" lon="7.00431">
        <ele>260.52709960938</ele>
        <time>2020-05-14T13:02:22Z</time>
      </trkpt>
      <trkpt lat="43.63664" lon="7.00439">
        <ele>260.67510986328</ele>
        <time>2020-05-14T13:02:23Z</time>
      </trkpt>
      <trkpt lat="43.63673" lon="7.00445">
        <ele>260.83526611328</ele>
        <time>2020-05-14T13:02:24Z</time>
      </trkpt>
      <trkpt lat="43.63682" lon="7.0045">
        <ele>260.47442626953</ele>
        <time>2020-05-14T13:02:25Z</time>
      </trkpt>
      <trkpt lat="43.63691" lon="7.00451">
        <ele>260.44732666016</ele>
        <time>2020-05-14T13:02:26Z</time>
      </trkpt>
      <trkpt lat="43.63701" lon="7.0045">
        <ele>260.42492675781</ele>
        <time>2020-05-14T13:02:27Z</time>
      </trkpt>
      <trkpt lat="43.63711" lon="7.00448">
        <ele>260.18341064453</ele>
        <time>2020-05-14T13:02:28Z</time>
      </trkpt>
      <trkpt lat="43.63719" lon="7.00443">
        <ele>260.72766113281</ele>
        <time>2020-05-14T13:02:29Z</time>
      </trkpt>
      <trkpt lat="43.63728" lon="7.0044">
        <ele>260.58465576172</ele>
        <time>2020-05-14T13:02:30Z</time>
      </trkpt>
      <trkpt lat="43.63739" lon="7.00439">
        <ele>259.36108398438</ele>
        <time>2020-05-14T13:02:31Z</time>
      </trkpt>
      <trkpt lat="43.63747" lon="7.00435">
        <ele>258.02117919922</ele>
        <time>2020-05-14T13:02:32Z</time>
      </trkpt>
      <trkpt lat="43.63756" lon="7.00433">
        <ele>258.39624023438</ele>
        <time>2020-05-14T13:02:33Z</time>
      </trkpt>
      <trkpt lat="43.63766" lon="7.00431">
        <ele>257.49523925781</ele>
        <time>2020-05-14T13:02:34Z</time>
      </trkpt>
      <trkpt lat="43.63776" lon="7.00427">
        <ele>257.69653320312</ele>
        <time>2020-05-14T13:02:35Z</time>
      </trkpt>
      <trkpt lat="43.63786" lon="7.00425">
        <ele>257.45471191406</ele>
        <time>2020-05-14T13:02:36Z</time>
      </trkpt>
      <trkpt lat="43.63797" lon="7.00426">
        <ele>257.14794921875</ele>
        <time>2020-05-14T13:02:37Z</time>
      </trkpt>
      <trkpt lat="43.63807" lon="7.00429">
        <ele>256.64825439453</ele>
        <time>2020-05-14T13:02:38Z</time>
      </trkpt>
      <trkpt lat="43.63818" lon="7.00435">
        <ele>255.99377441406</ele>
        <time>2020-05-14T13:02:39Z</time>
      </trkpt>
      <trkpt lat="43.63828" lon="7.00441">
        <ele>255.88714599609</ele>
        <time>2020-05-14T13:02:40Z</time>
      </trkpt>
      <trkpt lat="43.6384" lon="7.00447">
        <ele>256.07995605469</ele>
        <time>2020-05-14T13:02:41Z</time>
      </trkpt>
      <trkpt lat="43.63848" lon="7.00453">
        <ele>256.01428222656</ele>
        <time>2020-05-14T13:02:42Z</time>
      </trkpt>
      <trkpt lat="43.63858" lon="7.00461">
        <ele>255.78930664062</ele>
        <time>2020-05-14T13:02:43Z</time>
      </trkpt>
      <trkpt lat="43.63867" lon="7.00469">
        <ele>255.92340087891</ele>
        <time>2020-05-14T13:02:44Z</time>
      </trkpt>
      <trkpt lat="43.63877" lon="7.00476">
        <ele>255.72644042969</ele>
        <time>2020-05-14T13:02:45Z</time>
      </trkpt>
      <trkpt lat="43.63886" lon="7.00485">
        <ele>254.39636230469</ele>
        <time>2020-05-14T13:02:46Z</time>
      </trkpt>
      <trkpt lat="43.63894" lon="7.00492">
        <ele>254.11486816406</ele>
        <time>2020-05-14T13:02:47Z</time>
      </trkpt>
      <trkpt lat="43.63905" lon="7.00499">
        <ele>253.33837890625</ele>
        <time>2020-05-14T13:02:48Z</time>
      </trkpt>
      <trkpt lat="43.63914" lon="7.00505">
        <ele>252.99371337891</ele>
        <time>2020-05-14T13:02:49Z</time>
      </trkpt>
      <trkpt lat="43.63924" lon="7.00512">
        <ele>252.88366699219</ele>
        <time>2020-05-14T13:02:50Z</time>
      </trkpt>
      <trkpt lat="43.63931" lon="7.00518">
        <ele>252.17102050781</ele>
        <time>2020-05-14T13:02:51Z</time>
      </trkpt>
      <trkpt lat="43.63941" lon="7.00526">
        <ele>252.5078125</ele>
        <time>2020-05-14T13:02:52Z</time>
      </trkpt>
      <trkpt lat="43.63949" lon="7.00532">
        <ele>252.62670898438</ele>
        <time>2020-05-14T13:02:53Z</time>
      </trkpt>
      <trkpt lat="43.63957" lon="7.00544">
        <ele>251.76489257812</ele>
        <time>2020-05-14T13:02:54Z</time>
      </trkpt>
      <trkpt lat="43.63964" lon="7.00549">
        <ele>251.09783935547</ele>
        <time>2020-05-14T13:02:55Z</time>
      </trkpt>
      <trkpt lat="43.63973" lon="7.00561">
        <ele>250.18530273438</ele>
        <time>2020-05-14T13:02:56Z</time>
      </trkpt>
      <trkpt lat="43.6398" lon="7.00569">
        <ele>250.63793945312</ele>
        <time>2020-05-14T13:02:57Z</time>
      </trkpt>
      <trkpt lat="43.63986" lon="7.00577">
        <ele>251.29119873047</ele>
        <time>2020-05-14T13:02:58Z</time>
      </trkpt>
      <trkpt lat="43.63989" lon="7.00586">
        <ele>252.04187011719</ele>
        <time>2020-05-14T13:02:59Z</time>
      </trkpt>
      <trkpt lat="43.6399" lon="7.00594">
        <ele>253.05853271484</ele>
        <time>2020-05-14T13:03:00Z</time>
      </trkpt>
      <trkpt lat="43.63993" lon="7.00603">
        <ele>253.01428222656</ele>
        <time>2020-05-14T13:03:01Z</time>
      </trkpt>
      <trkpt lat="43.63996" lon="7.00612">
        <ele>254.02526855469</ele>
        <time>2020-05-14T13:03:02Z</time>
      </trkpt>
      <trkpt lat="43.63997" lon="7.00621">
        <ele>253.54620361328</ele>
        <time>2020-05-14T13:03:03Z</time>
      </trkpt>
      <trkpt lat="43.64001" lon="7.00629">
        <ele>253.24200439453</ele>
        <time>2020-05-14T13:03:04Z</time>
      </trkpt>
      <trkpt lat="43.64004" lon="7.00638">
        <ele>252.29626464844</ele>
        <time>2020-05-14T13:03:05Z</time>
      </trkpt>
      <trkpt lat="43.64008" lon="7.00648">
        <ele>250.56066894531</ele>
        <time>2020-05-14T13:03:06Z</time>
      </trkpt>
      <trkpt lat="43.64009" lon="7.00657">
        <ele>251.68408203125</ele>
        <time>2020-05-14T13:03:07Z</time>
      </trkpt>
      <trkpt lat="43.64013" lon="7.00664">
        <ele>251.0849609375</ele>
        <time>2020-05-14T13:03:08Z</time>
      </trkpt>
      <trkpt lat="43.64018" lon="7.00673">
        <ele>251.61041259766</ele>
        <time>2020-05-14T13:03:09Z</time>
      </trkpt>
      <trkpt lat="43.64021" lon="7.00681">
        <ele>251.91552734375</ele>
        <time>2020-05-14T13:03:10Z</time>
      </trkpt>
      <trkpt lat="43.64024" lon="7.0069">
        <ele>250.17346191406</ele>
        <time>2020-05-14T13:03:11Z</time>
      </trkpt>
      <trkpt lat="43.64027" lon="7.007">
        <ele>250.52679443359</ele>
        <time>2020-05-14T13:03:12Z</time>
      </trkpt>
      <trkpt lat="43.64029" lon="7.00706">
        <ele>250.17266845703</ele>
        <time>2020-05-14T13:03:13Z</time>
      </trkpt>
      <trkpt lat="43.64033" lon="7.00713">
        <ele>250.06970214844</ele>
        <time>2020-05-14T13:03:14Z</time>
      </trkpt>
      <trkpt lat="43.64036" lon="7.0072">
        <ele>249.95495605469</ele>
        <time>2020-05-14T13:03:15Z</time>
      </trkpt>
      <trkpt lat="43.64041" lon="7.00728">
        <ele>250.64318847656</ele>
        <time>2020-05-14T13:03:16Z</time>
      </trkpt>
      <trkpt lat="43.64045" lon="7.00736">
        <ele>249.45635986328</ele>
        <time>2020-05-14T13:03:17Z</time>
      </trkpt>
      <trkpt lat="43.64051" lon="7.00743">
        <ele>250.400390625</ele>
        <time>2020-05-14T13:03:18Z</time>
      </trkpt>
      <trkpt lat="43.64056" lon="7.00748">
        <ele>249.62860107422</ele>
        <time>2020-05-14T13:03:19Z</time>
      </trkpt>
      <trkpt lat="43.64061" lon="7.00755">
        <ele>249.48913574219</ele>
        <time>2020-05-14T13:03:20Z</time>
      </trkpt>
      <trkpt lat="43.64066" lon="7.00761">
        <ele>249.79266357422</ele>
        <time>2020-05-14T13:03:21Z</time>
      </trkpt>
      <trkpt lat="43.64071" lon="7.00767">
        <ele>250.43298339844</ele>
        <time>2020-05-14T13:03:22Z</time>
      </trkpt>
      <trkpt lat="43.64078" lon="7.0077">
        <ele>249.38757324219</ele>
        <time>2020-05-14T13:03:23Z</time>
      </trkpt>
      <trkpt lat="43.64085" lon="7.00772">
        <ele>251.65661621094</ele>
        <time>2020-05-14T13:03:24Z</time>
      </trkpt>
      <trkpt lat="43.6409" lon="7.00774">
        <ele>249.92712402344</ele>
        <time>2020-05-14T13:03:25Z</time>
      </trkpt>
      <trkpt lat="43.64096" lon="7.00776">
        <ele>251.04968261719</ele>
        <time>2020-05-14T13:03:26Z</time>
      </trkpt>
      <trkpt lat="43.64101" lon="7.00778">
        <ele>250.29736328125</ele>
        <time>2020-05-14T13:03:27Z</time>
      </trkpt>
      <trkpt lat="43.64107" lon="7.0078">
        <ele>250.71807861328</ele>
        <time>2020-05-14T13:03:28Z</time>
      </trkpt>
      <trkpt lat="43.64111" lon="7.0078">
        <ele>249.94604492188</ele>
        <time>2020-05-14T13:03:29Z</time>
      </trkpt>
      <trkpt lat="43.64116" lon="7.00781">
        <ele>248.61657714844</ele>
        <time>2020-05-14T13:03:30Z</time>
      </trkpt>
      <trkpt lat="43.6412" lon="7.00781">
        <ele>248.1474609375</ele>
        <time>2020-05-14T13:03:31Z</time>
      </trkpt>
      <trkpt lat="43.64124" lon="7.00782">
        <ele>247.86608886719</ele>
        <time>2020-05-14T13:03:32Z</time>
      </trkpt>
      <trkpt lat="43.64127" lon="7.00782">
        <ele>247.81384277344</ele>
        <time>2020-05-14T13:03:33Z</time>
      </trkpt>
      <trkpt lat="43.64131" lon="7.00782">
        <ele>249.14691162109</ele>
        <time>2020-05-14T13:03:34Z</time>
      </trkpt>
      <trkpt lat="43.64134" lon="7.00783">
        <ele>249.32299804688</ele>
        <time>2020-05-14T13:03:35Z</time>
      </trkpt>
      <trkpt lat="43.64137" lon="7.00783">
        <ele>249.56787109375</ele>
        <time>2020-05-14T13:03:36Z</time>
      </trkpt>
      <trkpt lat="43.6414" lon="7.00782">
        <ele>250.1435546875</ele>
        <time>2020-05-14T13:03:37Z</time>
      </trkpt>
      <trkpt lat="43.64145" lon="7.00781">
        <ele>250.30456542969</ele>
        <time>2020-05-14T13:03:38Z</time>
      </trkpt>
      <trkpt lat="43.64149" lon="7.0078">
        <ele>250.23254394531</ele>
        <time>2020-05-14T13:03:39Z</time>
      </trkpt>
      <trkpt lat="43.64153" lon="7.00781">
        <ele>250.70751953125</ele>
        <time>2020-05-14T13:03:40Z</time>
      </trkpt>
      <trkpt lat="43.64155" lon="7.00782">
        <ele>250.33203125</ele>
        <time>2020-05-14T13:03:41Z</time>
      </trkpt>
      <trkpt lat="43.64159" lon="7.00782">
        <ele>249.88049316406</ele>
        <time>2020-05-14T13:03:42Z</time>
      </trkpt>
      <trkpt lat="43.64162" lon="7.00781">
        <ele>250.04925537109</ele>
        <time>2020-05-14T13:03:43Z</time>
      </trkpt>
      <trkpt lat="43.64166" lon="7.00781">
        <ele>249.81341552734</ele>
        <time>2020-05-14T13:03:44Z</time>
      </trkpt>
      <trkpt lat="43.64169" lon="7.00781">
        <ele>250.24407958984</ele>
        <time>2020-05-14T13:03:45Z</time>
      </trkpt>
      <trkpt lat="43.64172" lon="7.0078">
        <ele>251.48278808594</ele>
        <time>2020-05-14T13:03:46Z</time>
      </trkpt>
      <trkpt lat="43.64176" lon="7.00778">
        <ele>251.23779296875</ele>
        <time>2020-05-14T13:03:47Z</time>
      </trkpt>
      <trkpt lat="43.6418" lon="7.00776">
        <ele>251.81439208984</ele>
        <time>2020-05-14T13:03:48Z</time>
      </trkpt>
      <trkpt lat="43.64183" lon="7.00774">
        <ele>252.02868652344</ele>
        <time>2020-05-14T13:03:49Z</time>
      </trkpt>
      <trkpt lat="43.64187" lon="7.00773">
        <ele>251.43432617188</ele>
        <time>2020-05-14T13:03:50Z</time>
      </trkpt>
      <trkpt lat="43.6419" lon="7.00771">
        <ele>252.28051757812</ele>
        <time>2020-05-14T13:03:51Z</time>
      </trkpt>
      <trkpt lat="43.64194" lon="7.00769">
        <ele>252.65844726562</ele>
        <time>2020-05-14T13:03:52Z</time>
      </trkpt>
      <trkpt lat="43.64197" lon="7.00768">
        <ele>253.15466308594</ele>
        <time>2020-05-14T13:03:53Z</time>
      </trkpt>
      <trkpt lat="43.642" lon="7.00766">
        <ele>253.24499511719</ele>
        <time>2020-05-14T13:03:54Z</time>
      </trkpt>
      <trkpt lat="43.64203" lon="7.00765">
        <ele>253.49670410156</ele>
        <time>2020-05-14T13:03:55Z</time>
      </trkpt>
      <trkpt lat="43.64206" lon="7.00763">
        <ele>253.45648193359</ele>
        <time>2020-05-14T13:03:56Z</time>
      </trkpt>
      <trkpt lat="43.64209" lon="7.00762">
        <ele>254.24334716797</ele>
        <time>2020-05-14T13:03:57Z</time>
      </trkpt>
      <trkpt lat="43.64213" lon="7.00762">
        <ele>253.72711181641</ele>
        <time>2020-05-14T13:03:58Z</time>
      </trkpt>
      <trkpt lat="43.64216" lon="7.00763">
        <ele>252.74365234375</ele>
        <time>2020-05-14T13:03:59Z</time>
      </trkpt>
      <trkpt lat="43.6422" lon="7.00762">
        <ele>252.59265136719</ele>
        <time>2020-05-14T13:04:00Z</time>
      </trkpt>
      <trkpt lat="43.64223" lon="7.00762">
        <ele>253.03790283203</ele>
        <time>2020-05-14T13:04:01Z</time>
      </trkpt>
      <trkpt lat="43.64226" lon="7.0076">
        <ele>253.63464355469</ele>
        <time>2020-05-14T13:04:02Z</time>
      </trkpt>
      <trkpt lat="43.64229" lon="7.00759">
        <ele>254.92291259766</ele>
        <time>2020-05-14T13:04:03Z</time>
      </trkpt>
      <trkpt lat="43.64232" lon="7.00757">
        <ele>255.02819824219</ele>
        <time>2020-05-14T13:04:04Z</time>
      </trkpt>
      <trkpt lat="43.64235" lon="7.00756">
        <ele>255.06970214844</ele>
        <time>2020-05-14T13:04:05Z</time>
      </trkpt>
      <trkpt lat="43.64238" lon="7.00754">
        <ele>255.43200683594</ele>
        <time>2020-05-14T13:04:06Z</time>
      </trkpt>
      <trkpt lat="43.6424" lon="7.00751">
        <ele>255.81500244141</ele>
        <time>2020-05-14T13:04:07Z</time>
      </trkpt>
      <trkpt lat="43.64243" lon="7.00749">
        <ele>256.21276855469</ele>
        <time>2020-05-14T13:04:08Z</time>
      </trkpt>
      <trkpt lat="43.64245" lon="7.00749">
        <ele>256.22003173828</ele>
        <time>2020-05-14T13:04:09Z</time>
      </trkpt>
      <trkpt lat="43.64247" lon="7.0075">
        <ele>256.41326904297</ele>
        <time>2020-05-14T13:04:10Z</time>
      </trkpt>
      <trkpt lat="43.64248" lon="7.00753">
        <ele>256.1015625</ele>
        <time>2020-05-14T13:04:11Z</time>
      </trkpt>
      <trkpt lat="43.6425" lon="7.00757">
        <ele>255.32250976562</ele>
        <time>2020-05-14T13:04:12Z</time>
      </trkpt>
      <trkpt lat="43.6425" lon="7.00761">
        <ele>255.14697265625</ele>
        <time>2020-05-14T13:04:13Z</time>
      </trkpt>
      <trkpt lat="43.6425" lon="7.00765">
        <ele>255.66046142578</ele>
        <time>2020-05-14T13:04:14Z</time>
      </trkpt>
      <trkpt lat="43.6425" lon="7.00769">
        <ele>255.99401855469</ele>
        <time>2020-05-14T13:04:15Z</time>
      </trkpt>
      <trkpt lat="43.64249" lon="7.00774">
        <ele>256.65679931641</ele>
        <time>2020-05-14T13:04:16Z</time>
      </trkpt>
      <trkpt lat="43.64249" lon="7.00778">
        <ele>256.74438476562</ele>
        <time>2020-05-14T13:04:17Z</time>
      </trkpt>
      <trkpt lat="43.64249" lon="7.00782">
        <ele>257.10437011719</ele>
        <time>2020-05-14T13:04:18Z</time>
      </trkpt>
      <trkpt lat="43.64249" lon="7.00787">
        <ele>257.34704589844</ele>
        <time>2020-05-14T13:04:19Z</time>
      </trkpt>
      <trkpt lat="43.64249" lon="7.00792">
        <ele>256.51702880859</ele>
        <time>2020-05-14T13:04:20Z</time>
      </trkpt>
      <trkpt lat="43.64249" lon="7.00797">
        <ele>256.44519042969</ele>
        <time>2020-05-14T13:04:21Z</time>
      </trkpt>
      <trkpt lat="43.64249" lon="7.00802">
        <ele>256.58923339844</ele>
        <time>2020-05-14T13:04:22Z</time>
      </trkpt>
      <trkpt lat="43.64249" lon="7.00807">
        <ele>257.33715820312</ele>
        <time>2020-05-14T13:04:23Z</time>
      </trkpt>
      <trkpt lat="43.64249" lon="7.00811">
        <ele>257.63525390625</ele>
        <time>2020-05-14T13:04:24Z</time>
      </trkpt>
      <trkpt lat="43.6425" lon="7.00816">
        <ele>257.36291503906</ele>
        <time>2020-05-14T13:04:25Z</time>
      </trkpt>
      <trkpt lat="43.64249" lon="7.0082">
        <ele>257.08666992188</ele>
        <time>2020-05-14T13:04:26Z</time>
      </trkpt>
      <trkpt lat="43.64249" lon="7.00825">
        <ele>257.46264648438</ele>
        <time>2020-05-14T13:04:27Z</time>
      </trkpt>
      <trkpt lat="43.64248" lon="7.00829">
        <ele>257.10003662109</ele>
        <time>2020-05-14T13:04:28Z</time>
      </trkpt>
      <trkpt lat="43.64247" lon="7.00833">
        <ele>256.8056640625</ele>
        <time>2020-05-14T13:04:29Z</time>
      </trkpt>
      <trkpt lat="43.64246" lon="7.00837">
        <ele>256.55297851562</ele>
        <time>2020-05-14T13:04:30Z</time>
      </trkpt>
      <trkpt lat="43.64245" lon="7.00842">
        <ele>256.84484863281</ele>
        <time>2020-05-14T13:04:31Z</time>
      </trkpt>
      <trkpt lat="43.64244" lon="7.00846">
        <ele>256.82629394531</ele>
        <time>2020-05-14T13:04:32Z</time>
      </trkpt>
      <trkpt lat="43.64244" lon="7.0085">
        <ele>257.06213378906</ele>
        <time>2020-05-14T13:04:33Z</time>
      </trkpt>
      <trkpt lat="43.64243" lon="7.00854">
        <ele>256.91784667969</ele>
        <time>2020-05-14T13:04:34Z</time>
      </trkpt>
      <trkpt lat="43.64243" lon="7.00858">
        <ele>257.48596191406</ele>
        <time>2020-05-14T13:04:35Z</time>
      </trkpt>
      <trkpt lat="43.64242" lon="7.00863">
        <ele>258.33319091797</ele>
        <time>2020-05-14T13:04:36Z</time>
      </trkpt>
      <trkpt lat="43.64242" lon="7.00868">
        <ele>258.70129394531</ele>
        <time>2020-05-14T13:04:37Z</time>
      </trkpt>
      <trkpt lat="43.64241" lon="7.00872">
        <ele>258.33532714844</ele>
        <time>2020-05-14T13:04:38Z</time>
      </trkpt>
      <trkpt lat="43.64241" lon="7.00877">
        <ele>258.47241210938</ele>
        <time>2020-05-14T13:04:39Z</time>
      </trkpt>
      <trkpt lat="43.64241" lon="7.00881">
        <ele>258.41381835938</ele>
        <time>2020-05-14T13:04:40Z</time>
      </trkpt>
      <trkpt lat="43.64241" lon="7.00885">
        <ele>258.47326660156</ele>
        <time>2020-05-14T13:04:41Z</time>
      </trkpt>
      <trkpt lat="43.6424" lon="7.0089">
        <ele>259.45007324219</ele>
        <time>2020-05-14T13:04:42Z</time>
      </trkpt>
      <trkpt lat="43.6424" lon="7.00895">
        <ele>259.4130859375</ele>
        <time>2020-05-14T13:04:43Z</time>
      </trkpt>
      <trkpt lat="43.6424" lon="7.00899">
        <ele>258.97534179688</ele>
        <time>2020-05-14T13:04:44Z</time>
      </trkpt>
      <trkpt lat="43.6424" lon="7.00903">
        <ele>258.85119628906</ele>
        <time>2020-05-14T13:04:45Z</time>
      </trkpt>
      <trkpt lat="43.6424" lon="7.00907">
        <ele>258.74945068359</ele>
        <time>2020-05-14T13:04:46Z</time>
      </trkpt>
      <trkpt lat="43.6424" lon="7.00911">
        <ele>258.58575439453</ele>
        <time>2020-05-14T13:04:47Z</time>
      </trkpt>
      <trkpt lat="43.6424" lon="7.00915">
        <ele>258.30419921875</ele>
        <time>2020-05-14T13:04:48Z</time>
      </trkpt>
      <trkpt lat="43.6424" lon="7.00919">
        <ele>258.66003417969</ele>
        <time>2020-05-14T13:04:49Z</time>
      </trkpt>
      <trkpt lat="43.6424" lon="7.00923">
        <ele>258.353515625</ele>
        <time>2020-05-14T13:04:50Z</time>
      </trkpt>
      <trkpt lat="43.6424" lon="7.00928">
        <ele>258.42993164062</ele>
        <time>2020-05-14T13:04:51Z</time>
      </trkpt>
      <trkpt lat="43.6424" lon="7.00933">
        <ele>257.59802246094</ele>
        <time>2020-05-14T13:04:52Z</time>
      </trkpt>
      <trkpt lat="43.6424" lon="7.00938">
        <ele>257.376953125</ele>
        <time>2020-05-14T13:04:53Z</time>
      </trkpt>
      <trkpt lat="43.6424" lon="7.00943">
        <ele>257.24035644531</ele>
        <time>2020-05-14T13:04:54Z</time>
      </trkpt>
      <trkpt lat="43.64239" lon="7.00948">
        <ele>256.87152099609</ele>
        <time>2020-05-14T13:04:55Z</time>
      </trkpt>
      <trkpt lat="43.64239" lon="7.00953">
        <ele>256.92333984375</ele>
        <time>2020-05-14T13:04:56Z</time>
      </trkpt>
      <trkpt lat="43.64238" lon="7.00957">
        <ele>257.20092773438</ele>
        <time>2020-05-14T13:04:57Z</time>
      </trkpt>
      <trkpt lat="43.64237" lon="7.00962">
        <ele>256.98901367188</ele>
        <time>2020-05-14T13:04:58Z</time>
      </trkpt>
      <trkpt lat="43.64237" lon="7.00967">
        <ele>256.69158935547</ele>
        <time>2020-05-14T13:04:59Z</time>
      </trkpt>
      <trkpt lat="43.64236" lon="7.00973">
        <ele>256.60760498047</ele>
        <time>2020-05-14T13:05:00Z</time>
      </trkpt>
      <trkpt lat="43.64236" lon="7.00977">
        <ele>256.8662109375</ele>
        <time>2020-05-14T13:05:01Z</time>
      </trkpt>
      <trkpt lat="43.64236" lon="7.00982">
        <ele>256.53503417969</ele>
        <time>2020-05-14T13:05:02Z</time>
      </trkpt>
      <trkpt lat="43.64235" lon="7.00987">
        <ele>256.72381591797</ele>
        <time>2020-05-14T13:05:03Z</time>
      </trkpt>
      <trkpt lat="43.64235" lon="7.00992">
        <ele>256.54711914062</ele>
        <time>2020-05-14T13:05:04Z</time>
      </trkpt>
      <trkpt lat="43.64235" lon="7.00997">
        <ele>256.41705322266</ele>
        <time>2020-05-14T13:05:05Z</time>
      </trkpt>
      <trkpt lat="43.64236" lon="7.01001">
        <ele>256.56176757812</ele>
        <time>2020-05-14T13:05:06Z</time>
      </trkpt>
      <trkpt lat="43.64238" lon="7.01005">
        <ele>256.28930664062</ele>
        <time>2020-05-14T13:05:07Z</time>
      </trkpt>
      <trkpt lat="43.64241" lon="7.01009">
        <ele>256.07391357422</ele>
        <time>2020-05-14T13:05:08Z</time>
      </trkpt>
      <trkpt lat="43.64244" lon="7.01013">
        <ele>256.61560058594</ele>
        <time>2020-05-14T13:05:09Z</time>
      </trkpt>
      <trkpt lat="43.64246" lon="7.01017">
        <ele>256.50561523438</ele>
        <time>2020-05-14T13:05:10Z</time>
      </trkpt>
      <trkpt lat="43.64249" lon="7.0102">
        <ele>256.84710693359</ele>
        <time>2020-05-14T13:05:11Z</time>
      </trkpt>
      <trkpt lat="43.64252" lon="7.01023">
        <ele>256.82080078125</ele>
        <time>2020-05-14T13:05:12Z</time>
      </trkpt>
      <trkpt lat="43.64254" lon="7.01026">
        <ele>258.00964355469</ele>
        <time>2020-05-14T13:05:13Z</time>
      </trkpt>
      <trkpt lat="43.64256" lon="7.0103">
        <ele>257.84729003906</ele>
        <time>2020-05-14T13:05:14Z</time>
      </trkpt>
      <trkpt lat="43.64256" lon="7.01035">
        <ele>257.75708007812</ele>
        <time>2020-05-14T13:05:15Z</time>
      </trkpt>
      <trkpt lat="43.64257" lon="7.0104">
        <ele>257.78118896484</ele>
        <time>2020-05-14T13:05:16Z</time>
      </trkpt>
      <trkpt lat="43.64257" lon="7.01045">
        <ele>257.88500976562</ele>
        <time>2020-05-14T13:05:17Z</time>
      </trkpt>
      <trkpt lat="43.64256" lon="7.0105">
        <ele>257.55139160156</ele>
        <time>2020-05-14T13:05:18Z</time>
      </trkpt>
      <trkpt lat="43.64255" lon="7.01055">
        <ele>258.03839111328</ele>
        <time>2020-05-14T13:05:19Z</time>
      </trkpt>
      <trkpt lat="43.64254" lon="7.0106">
        <ele>258.70684814453</ele>
        <time>2020-05-14T13:05:20Z</time>
      </trkpt>
      <trkpt lat="43.64251" lon="7.01064">
        <ele>258.84057617188</ele>
        <time>2020-05-14T13:05:21Z</time>
      </trkpt>
      <trkpt lat="43.64248" lon="7.01068">
        <ele>258.61584472656</ele>
        <time>2020-05-14T13:05:22Z</time>
      </trkpt>
      <trkpt lat="43.64244" lon="7.01071">
        <ele>258.11291503906</ele>
        <time>2020-05-14T13:05:23Z</time>
      </trkpt>
      <trkpt lat="43.6424" lon="7.01073">
        <ele>257.76831054688</ele>
        <time>2020-05-14T13:05:24Z</time>
      </trkpt>
      <trkpt lat="43.64236" lon="7.01075">
        <ele>257.94506835938</ele>
        <time>2020-05-14T13:05:25Z</time>
      </trkpt>
      <trkpt lat="43.64233" lon="7.01076">
        <ele>257.69360351562</ele>
        <time>2020-05-14T13:05:26Z</time>
      </trkpt>
      <trkpt lat="43.64229" lon="7.01078">
        <ele>257.56811523438</ele>
        <time>2020-05-14T13:05:27Z</time>
      </trkpt>
      <trkpt lat="43.64226" lon="7.01079">
        <ele>257.71423339844</ele>
        <time>2020-05-14T13:05:28Z</time>
      </trkpt>
      <trkpt lat="43.64223" lon="7.0108">
        <ele>257.26141357422</ele>
        <time>2020-05-14T13:05:29Z</time>
      </trkpt>
      <trkpt lat="43.64219" lon="7.01082">
        <ele>257.17260742188</ele>
        <time>2020-05-14T13:05:30Z</time>
      </trkpt>
      <trkpt lat="43.64215" lon="7.01084">
        <ele>257.27563476562</ele>
        <time>2020-05-14T13:05:31Z</time>
      </trkpt>
      <trkpt lat="43.64212" lon="7.01085">
        <ele>257.59265136719</ele>
        <time>2020-05-14T13:05:32Z</time>
      </trkpt>
      <trkpt lat="43.64208" lon="7.01087">
        <ele>257.75109863281</ele>
        <time>2020-05-14T13:05:33Z</time>
      </trkpt>
      <trkpt lat="43.64205" lon="7.01088">
        <ele>257.89440917969</ele>
        <time>2020-05-14T13:05:34Z</time>
      </trkpt>
      <trkpt lat="43.64202" lon="7.01089">
        <ele>258.1416015625</ele>
        <time>2020-05-14T13:05:35Z</time>
      </trkpt>
      <trkpt lat="43.642" lon="7.0109">
        <ele>258.04516601562</ele>
        <time>2020-05-14T13:05:36Z</time>
      </trkpt>
      <trkpt lat="43.64198" lon="7.01091">
        <ele>257.90747070312</ele>
        <time>2020-05-14T13:05:37Z</time>
      </trkpt>
      <trkpt lat="43.64195" lon="7.01092">
        <ele>258.30609130859</ele>
        <time>2020-05-14T13:05:38Z</time>
      </trkpt>
      <trkpt lat="43.64192" lon="7.01093">
        <ele>258.41094970703</ele>
        <time>2020-05-14T13:05:39Z</time>
      </trkpt>
      <trkpt lat="43.6419" lon="7.01094">
        <ele>258.36303710938</ele>
        <time>2020-05-14T13:05:40Z</time>
      </trkpt>
      <trkpt lat="43.64188" lon="7.01096">
        <ele>258.22570800781</ele>
        <time>2020-05-14T13:05:41Z</time>
      </trkpt>
      <trkpt lat="43.64186" lon="7.01098">
        <ele>258.09777832031</ele>
        <time>2020-05-14T13:05:42Z</time>
      </trkpt>
      <trkpt lat="43.64184" lon="7.011">
        <ele>258.12963867188</ele>
        <time>2020-05-14T13:05:43Z</time>
      </trkpt>
      <trkpt lat="43.64182" lon="7.01103">
        <ele>258.10375976562</ele>
        <time>2020-05-14T13:05:44Z</time>
      </trkpt>
      <trkpt lat="43.64181" lon="7.01107">
        <ele>258.16693115234</ele>
        <time>2020-05-14T13:05:45Z</time>
      </trkpt>
      <trkpt lat="43.64181" lon="7.01111">
        <ele>258.32360839844</ele>
        <time>2020-05-14T13:05:46Z</time>
      </trkpt>
      <trkpt lat="43.64181" lon="7.01115">
        <ele>258.34191894531</ele>
        <time>2020-05-14T13:05:47Z</time>
      </trkpt>
      <trkpt lat="43.64183" lon="7.01118">
        <ele>258.59729003906</ele>
        <time>2020-05-14T13:05:48Z</time>
      </trkpt>
      <trkpt lat="43.64185" lon="7.01122">
        <ele>258.55462646484</ele>
        <time>2020-05-14T13:05:49Z</time>
      </trkpt>
      <trkpt lat="43.64188" lon="7.01125">
        <ele>258.10137939453</ele>
        <time>2020-05-14T13:05:50Z</time>
      </trkpt>
      <trkpt lat="43.64191" lon="7.01127">
        <ele>257.88696289062</ele>
        <time>2020-05-14T13:05:51Z</time>
      </trkpt>
      <trkpt lat="43.64194" lon="7.01128">
        <ele>258.07092285156</ele>
        <time>2020-05-14T13:05:52Z</time>
      </trkpt>
      <trkpt lat="43.64197" lon="7.0113">
        <ele>258.53112792969</ele>
        <time>2020-05-14T13:05:53Z</time>
      </trkpt>
      <trkpt lat="43.642" lon="7.0113">
        <ele>258.98010253906</ele>
        <time>2020-05-14T13:05:54Z</time>
      </trkpt>
      <trkpt lat="43.64203" lon="7.0113">
        <ele>259.00500488281</ele>
        <time>2020-05-14T13:05:55Z</time>
      </trkpt>
      <trkpt lat="43.64206" lon="7.01129">
        <ele>258.89807128906</ele>
        <time>2020-05-14T13:05:56Z</time>
      </trkpt>
      <trkpt lat="43.64209" lon="7.01127">
        <ele>258.90490722656</ele>
        <time>2020-05-14T13:05:57Z</time>
      </trkpt>
      <trkpt lat="43.64212" lon="7.01127">
        <ele>258.25189208984</ele>
        <time>2020-05-14T13:05:58Z</time>
      </trkpt>
      <trkpt lat="43.64215" lon="7.01126">
        <ele>258.22906494141</ele>
        <time>2020-05-14T13:05:59Z</time>
      </trkpt>
      <trkpt lat="43.64217" lon="7.01125">
        <ele>258.39880371094</ele>
        <time>2020-05-14T13:06:00Z</time>
      </trkpt>
      <trkpt lat="43.6422" lon="7.01125">
        <ele>258.35620117188</ele>
        <time>2020-05-14T13:06:01Z</time>
      </trkpt>
      <trkpt lat="43.64223" lon="7.01123">
        <ele>258.41180419922</ele>
        <time>2020-05-14T13:06:02Z</time>
      </trkpt>
      <trkpt lat="43.64226" lon="7.01123">
        <ele>258.35626220703</ele>
        <time>2020-05-14T13:06:03Z</time>
      </trkpt>
      <trkpt lat="43.64229" lon="7.01122">
        <ele>258.39392089844</ele>
        <time>2020-05-14T13:06:04Z</time>
      </trkpt>
      <trkpt lat="43.64231" lon="7.01121">
        <ele>259.20623779297</ele>
        <time>2020-05-14T13:06:05Z</time>
      </trkpt>
      <trkpt lat="43.64234" lon="7.01119">
        <ele>259.23236083984</ele>
        <time>2020-05-14T13:06:06Z</time>
      </trkpt>
      <trkpt lat="43.64236" lon="7.01118">
        <ele>259.06188964844</ele>
        <time>2020-05-14T13:06:07Z</time>
      </trkpt>
      <trkpt lat="43.64239" lon="7.01117">
        <ele>259.16076660156</ele>
        <time>2020-05-14T13:06:08Z</time>
      </trkpt>
      <trkpt lat="43.64242" lon="7.01117">
        <ele>259.15356445312</ele>
        <time>2020-05-14T13:06:09Z</time>
      </trkpt>
      <trkpt lat="43.64245" lon="7.01117">
        <ele>258.84692382812</ele>
        <time>2020-05-14T13:06:10Z</time>
      </trkpt>
      <trkpt lat="43.64248" lon="7.01118">
        <ele>258.79827880859</ele>
        <time>2020-05-14T13:06:11Z</time>
      </trkpt>
      <trkpt lat="43.64251" lon="7.01118">
        <ele>258.4912109375</ele>
        <time>2020-05-14T13:06:12Z</time>
      </trkpt>
      <trkpt lat="43.64254" lon="7.01119">
        <ele>258.19946289062</ele>
        <time>2020-05-14T13:06:13Z</time>
      </trkpt>
      <trkpt lat="43.64258" lon="7.01121">
        <ele>257.96203613281</ele>
        <time>2020-05-14T13:06:14Z</time>
      </trkpt>
      <trkpt lat="43.64261" lon="7.01123">
        <ele>257.8291015625</ele>
        <time>2020-05-14T13:06:15Z</time>
      </trkpt>
      <trkpt lat="43.64264" lon="7.01125">
        <ele>257.61334228516</ele>
        <time>2020-05-14T13:06:16Z</time>
      </trkpt>
      <trkpt lat="43.64267" lon="7.01127">
        <ele>257.78173828125</ele>
        <time>2020-05-14T13:06:17Z</time>
      </trkpt>
      <trkpt lat="43.6427" lon="7.01129">
        <ele>257.85498046875</ele>
        <time>2020-05-14T13:06:18Z</time>
      </trkpt>
      <trkpt lat="43.64273" lon="7.01131">
        <ele>258.58972167969</ele>
        <time>2020-05-14T13:06:19Z</time>
      </trkpt>
      <trkpt lat="43.64276" lon="7.01133">
        <ele>258.76373291016</ele>
        <time>2020-05-14T13:06:20Z</time>
      </trkpt>
      <trkpt lat="43.64278" lon="7.01136">
        <ele>259.92218017578</ele>
        <time>2020-05-14T13:06:21Z</time>
      </trkpt>
      <trkpt lat="43.6428" lon="7.01139">
        <ele>261.26293945312</ele>
        <time>2020-05-14T13:06:22Z</time>
      </trkpt>
      <trkpt lat="43.64281" lon="7.01142">
        <ele>261.85498046875</ele>
        <time>2020-05-14T13:06:23Z</time>
      </trkpt>
      <trkpt lat="43.64283" lon="7.01144">
        <ele>261.97192382812</ele>
        <time>2020-05-14T13:06:24Z</time>
      </trkpt>
      <trkpt lat="43.64285" lon="7.01146">
        <ele>262.11120605469</ele>
        <time>2020-05-14T13:06:25Z</time>
      </trkpt>
      <trkpt lat="43.64286" lon="7.01149">
        <ele>262.26525878906</ele>
        <time>2020-05-14T13:06:26Z</time>
      </trkpt>
      <trkpt lat="43.64287" lon="7.01152">
        <ele>260.86926269531</ele>
        <time>2020-05-14T13:06:27Z</time>
      </trkpt>
      <trkpt lat="43.64288" lon="7.01154">
        <ele>260.78161621094</ele>
        <time>2020-05-14T13:06:28Z</time>
      </trkpt>
      <trkpt lat="43.6429" lon="7.01157">
        <ele>261.19805908203</ele>
        <time>2020-05-14T13:06:29Z</time>
      </trkpt>
      <trkpt lat="43.64291" lon="7.0116">
        <ele>263.21124267578</ele>
        <time>2020-05-14T13:06:30Z</time>
      </trkpt>
      <trkpt lat="43.64292" lon="7.01163">
        <ele>262.75341796875</ele>
        <time>2020-05-14T13:06:31Z</time>
      </trkpt>
      <trkpt lat="43.64293" lon="7.01166">
        <ele>262.89892578125</ele>
        <time>2020-05-14T13:06:32Z</time>
      </trkpt>
      <trkpt lat="43.64294" lon="7.01169">
        <ele>263.01013183594</ele>
        <time>2020-05-14T13:06:33Z</time>
      </trkpt>
      <trkpt lat="43.64294" lon="7.01171">
        <ele>261.93823242188</ele>
        <time>2020-05-14T13:06:34Z</time>
      </trkpt>
      <trkpt lat="43.64295" lon="7.01174">
        <ele>261.98815917969</ele>
        <time>2020-05-14T13:06:35Z</time>
      </trkpt>
      <trkpt lat="43.64297" lon="7.01176">
        <ele>261.86987304688</ele>
        <time>2020-05-14T13:06:36Z</time>
      </trkpt>
      <trkpt lat="43.64298" lon="7.01179">
        <ele>261.634765625</ele>
        <time>2020-05-14T13:06:37Z</time>
      </trkpt>
      <trkpt lat="43.643" lon="7.01181">
        <ele>261.56311035156</ele>
        <time>2020-05-14T13:06:38Z</time>
      </trkpt>
      <trkpt lat="43.64303" lon="7.01183">
        <ele>261.66375732422</ele>
        <time>2020-05-14T13:06:39Z</time>
      </trkpt>
      <trkpt lat="43.64306" lon="7.01186">
        <ele>261.92266845703</ele>
        <time>2020-05-14T13:06:40Z</time>
      </trkpt>
      <trkpt lat="43.64309" lon="7.01189">
        <ele>261.47027587891</ele>
        <time>2020-05-14T13:06:41Z</time>
      </trkpt>
      <trkpt lat="43.64312" lon="7.01192">
        <ele>261.59497070312</ele>
        <time>2020-05-14T13:06:42Z</time>
      </trkpt>
      <trkpt lat="43.64316" lon="7.01194">
        <ele>262.23413085938</ele>
        <time>2020-05-14T13:06:43Z</time>
      </trkpt>
      <trkpt lat="43.6432" lon="7.01194">
        <ele>262.19140625</ele>
        <time>2020-05-14T13:06:44Z</time>
      </trkpt>
      <trkpt lat="43.64324" lon="7.01193">
        <ele>262.38403320312</ele>
        <time>2020-05-14T13:06:45Z</time>
      </trkpt>
      <trkpt lat="43.64328" lon="7.01191">
        <ele>262.93786621094</ele>
        <time>2020-05-14T13:06:46Z</time>
      </trkpt>
      <trkpt lat="43.64332" lon="7.01189">
        <ele>263.03424072266</ele>
        <time>2020-05-14T13:06:47Z</time>
      </trkpt>
      <trkpt lat="43.64336" lon="7.01188">
        <ele>263.15655517578</ele>
        <time>2020-05-14T13:06:48Z</time>
      </trkpt>
      <trkpt lat="43.64341" lon="7.01188">
        <ele>263.06610107422</ele>
        <time>2020-05-14T13:06:49Z</time>
      </trkpt>
      <trkpt lat="43.64345" lon="7.01187">
        <ele>262.6337890625</ele>
        <time>2020-05-14T13:06:50Z</time>
      </trkpt>
      <trkpt lat="43.64349" lon="7.01187">
        <ele>262.5009765625</ele>
        <time>2020-05-14T13:06:51Z</time>
      </trkpt>
      <trkpt lat="43.64353" lon="7.01186">
        <ele>262.36712646484</ele>
        <time>2020-05-14T13:06:52Z</time>
      </trkpt>
      <trkpt lat="43.64356" lon="7.01187">
        <ele>264.10113525391</ele>
        <time>2020-05-14T13:06:53Z</time>
      </trkpt>
      <trkpt lat="43.64361" lon="7.01187">
        <ele>263.552734375</ele>
        <time>2020-05-14T13:06:54Z</time>
      </trkpt>
      <trkpt lat="43.64365" lon="7.01187">
        <ele>263.64978027344</ele>
        <time>2020-05-14T13:06:55Z</time>
      </trkpt>
      <trkpt lat="43.64369" lon="7.01187">
        <ele>263.76110839844</ele>
        <time>2020-05-14T13:06:56Z</time>
      </trkpt>
      <trkpt lat="43.64373" lon="7.01187">
        <ele>264.4296875</ele>
        <time>2020-05-14T13:06:57Z</time>
      </trkpt>
      <trkpt lat="43.64376" lon="7.01187">
        <ele>265.22888183594</ele>
        <time>2020-05-14T13:06:58Z</time>
      </trkpt>
      <trkpt lat="43.6438" lon="7.01187">
        <ele>263.70465087891</ele>
        <time>2020-05-14T13:06:59Z</time>
      </trkpt>
      <trkpt lat="43.64384" lon="7.01188">
        <ele>264.05517578125</ele>
        <time>2020-05-14T13:07:00Z</time>
      </trkpt>
      <trkpt lat="43.64388" lon="7.01188">
        <ele>264.54956054688</ele>
        <time>2020-05-14T13:07:01Z</time>
      </trkpt>
      <trkpt lat="43.64391" lon="7.01189">
        <ele>263.20825195312</ele>
        <time>2020-05-14T13:07:02Z</time>
      </trkpt>
      <trkpt lat="43.64395" lon="7.01189">
        <ele>263.71484375</ele>
        <time>2020-05-14T13:07:03Z</time>
      </trkpt>
      <trkpt lat="43.64399" lon="7.0119">
        <ele>262.93676757812</ele>
        <time>2020-05-14T13:07:04Z</time>
      </trkpt>
      <trkpt lat="43.64402" lon="7.01191">
        <ele>262.20129394531</ele>
        <time>2020-05-14T13:07:05Z</time>
      </trkpt>
      <trkpt lat="43.64406" lon="7.01192">
        <ele>261.69897460938</ele>
        <time>2020-05-14T13:07:06Z</time>
      </trkpt>
      <trkpt lat="43.64409" lon="7.01192">
        <ele>261.48205566406</ele>
        <time>2020-05-14T13:07:07Z</time>
      </trkpt>
      <trkpt lat="43.64413" lon="7.01194">
        <ele>261.60498046875</ele>
        <time>2020-05-14T13:07:08Z</time>
      </trkpt>
      <trkpt lat="43.64417" lon="7.01196">
        <ele>261.46057128906</ele>
        <time>2020-05-14T13:07:09Z</time>
      </trkpt>
      <trkpt lat="43.6442" lon="7.01199">
        <ele>261.51843261719</ele>
        <time>2020-05-14T13:07:10Z</time>
      </trkpt>
      <trkpt lat="43.64424" lon="7.01203">
        <ele>260.95922851562</ele>
        <time>2020-05-14T13:07:11Z</time>
      </trkpt>
      <trkpt lat="43.64427" lon="7.01207">
        <ele>260.51141357422</ele>
        <time>2020-05-14T13:07:12Z</time>
      </trkpt>
      <trkpt lat="43.6443" lon="7.01211">
        <ele>260.54211425781</ele>
        <time>2020-05-14T13:07:13Z</time>
      </trkpt>
      <trkpt lat="43.64432" lon="7.01215">
        <ele>263.06604003906</ele>
        <time>2020-05-14T13:07:14Z</time>
      </trkpt>
      <trkpt lat="43.64434" lon="7.0122">
        <ele>262.71411132812</ele>
        <time>2020-05-14T13:07:15Z</time>
      </trkpt>
      <trkpt lat="43.64436" lon="7.01224">
        <ele>263.15942382812</ele>
        <time>2020-05-14T13:07:16Z</time>
      </trkpt>
      <trkpt lat="43.64438" lon="7.01228">
        <ele>263.59521484375</ele>
        <time>2020-05-14T13:07:17Z</time>
      </trkpt>
      <trkpt lat="43.64441" lon="7.01231">
        <ele>262.81762695312</ele>
        <time>2020-05-14T13:07:18Z</time>
      </trkpt>
      <trkpt lat="43.64444" lon="7.01234">
        <ele>262.85729980469</ele>
        <time>2020-05-14T13:07:19Z</time>
      </trkpt>
      <trkpt lat="43.64446" lon="7.01236">
        <ele>266.19519042969</ele>
        <time>2020-05-14T13:07:20Z</time>
      </trkpt>
      <trkpt lat="43.64449" lon="7.01238">
        <ele>265.89978027344</ele>
        <time>2020-05-14T13:07:21Z</time>
      </trkpt>
      <trkpt lat="43.64452" lon="7.0124">
        <ele>266.63439941406</ele>
        <time>2020-05-14T13:07:22Z</time>
      </trkpt>
      <trkpt lat="43.64455" lon="7.01242">
        <ele>267.12329101562</ele>
        <time>2020-05-14T13:07:23Z</time>
      </trkpt>
      <trkpt lat="43.64459" lon="7.01243">
        <ele>267.09143066406</ele>
        <time>2020-05-14T13:07:24Z</time>
      </trkpt>
      <trkpt lat="43.64462" lon="7.01244">
        <ele>267.32482910156</ele>
        <time>2020-05-14T13:07:25Z</time>
      </trkpt>
      <trkpt lat="43.64466" lon="7.01246">
        <ele>267.92126464844</ele>
        <time>2020-05-14T13:07:26Z</time>
      </trkpt>
      <trkpt lat="43.64469" lon="7.01246">
        <ele>266.64031982422</ele>
        <time>2020-05-14T13:07:27Z</time>
      </trkpt>
      <trkpt lat="43.64472" lon="7.01247">
        <ele>265.71740722656</ele>
        <time>2020-05-14T13:07:28Z</time>
      </trkpt>
      <trkpt lat="43.64474" lon="7.01247">
        <ele>264.97833251953</ele>
        <time>2020-05-14T13:07:29Z</time>
      </trkpt>
      <trkpt lat="43.64478" lon="7.01247">
        <ele>268.10986328125</ele>
        <time>2020-05-14T13:07:30Z</time>
      </trkpt>
      <trkpt lat="43.64481" lon="7.01247">
        <ele>267.47058105469</ele>
        <time>2020-05-14T13:07:31Z</time>
      </trkpt>
      <trkpt lat="43.64485" lon="7.01247">
        <ele>267.69110107422</ele>
        <time>2020-05-14T13:07:32Z</time>
      </trkpt>
      <trkpt lat="43.64488" lon="7.01247">
        <ele>268.3828125</ele>
        <time>2020-05-14T13:07:33Z</time>
      </trkpt>
      <trkpt lat="43.64492" lon="7.01247">
        <ele>267.46850585938</ele>
        <time>2020-05-14T13:07:34Z</time>
      </trkpt>
      <trkpt lat="43.64495" lon="7.01247">
        <ele>267.47991943359</ele>
        <time>2020-05-14T13:07:35Z</time>
      </trkpt>
      <trkpt lat="43.64499" lon="7.01247">
        <ele>267.71997070312</ele>
        <time>2020-05-14T13:07:36Z</time>
      </trkpt>
      <trkpt lat="43.64502" lon="7.01246">
        <ele>273.75732421875</ele>
        <time>2020-05-14T13:07:37Z</time>
      </trkpt>
      <trkpt lat="43.64505" lon="7.01245">
        <ele>272.4267578125</ele>
        <time>2020-05-14T13:07:38Z</time>
      </trkpt>
      <trkpt lat="43.64509" lon="7.01243">
        <ele>272.0302734375</ele>
        <time>2020-05-14T13:07:39Z</time>
      </trkpt>
      <trkpt lat="43.64512" lon="7.01242">
        <ele>272.06201171875</ele>
        <time>2020-05-14T13:07:40Z</time>
      </trkpt>
      <trkpt lat="43.64515" lon="7.0124">
        <ele>273.65539550781</ele>
        <time>2020-05-14T13:07:41Z</time>
      </trkpt>
      <trkpt lat="43.64518" lon="7.01237">
        <ele>273.28179931641</ele>
        <time>2020-05-14T13:07:42Z</time>
      </trkpt>
      <trkpt lat="43.64521" lon="7.01233">
        <ele>272.76879882812</ele>
        <time>2020-05-14T13:07:43Z</time>
      </trkpt>
      <trkpt lat="43.64524" lon="7.0123">
        <ele>271.98413085938</ele>
        <time>2020-05-14T13:07:44Z</time>
      </trkpt>
      <trkpt lat="43.64527" lon="7.01226">
        <ele>271.20068359375</ele>
        <time>2020-05-14T13:07:45Z</time>
      </trkpt>
      <trkpt lat="43.6453" lon="7.01223">
        <ele>270.65802001953</ele>
        <time>2020-05-14T13:07:46Z</time>
      </trkpt>
      <trkpt lat="43.64532" lon="7.0122">
        <ele>272.59564208984</ele>
        <time>2020-05-14T13:07:47Z</time>
      </trkpt>
      <trkpt lat="43.64535" lon="7.01217">
        <ele>272.42663574219</ele>
        <time>2020-05-14T13:07:48Z</time>
      </trkpt>
      <trkpt lat="43.64538" lon="7.01213">
        <ele>271.45983886719</ele>
        <time>2020-05-14T13:07:49Z</time>
      </trkpt>
      <trkpt lat="43.64541" lon="7.0121">
        <ele>270.17102050781</ele>
        <time>2020-05-14T13:07:50Z</time>
      </trkpt>
      <trkpt lat="43.64543" lon="7.01207">
        <ele>269.59497070312</ele>
        <time>2020-05-14T13:07:51Z</time>
      </trkpt>
      <trkpt lat="43.64546" lon="7.01205">
        <ele>268.68377685547</ele>
        <time>2020-05-14T13:07:52Z</time>
      </trkpt>
      <trkpt lat="43.64548" lon="7.01202">
        <ele>270.12756347656</ele>
        <time>2020-05-14T13:07:53Z</time>
      </trkpt>
      <trkpt lat="43.6455" lon="7.01199">
        <ele>267.97406005859</ele>
        <time>2020-05-14T13:07:54Z</time>
      </trkpt>
      <trkpt lat="43.64553" lon="7.01196">
        <ele>267.78601074219</ele>
        <time>2020-05-14T13:07:55Z</time>
      </trkpt>
      <trkpt lat="43.64555" lon="7.01193">
        <ele>273.91241455078</ele>
        <time>2020-05-14T13:07:56Z</time>
      </trkpt>
      <trkpt lat="43.64558" lon="7.0119">
        <ele>274.06591796875</ele>
        <time>2020-05-14T13:07:57Z</time>
      </trkpt>
      <trkpt lat="43.64561" lon="7.01187">
        <ele>273.93872070312</ele>
        <time>2020-05-14T13:07:58Z</time>
      </trkpt>
      <trkpt lat="43.64564" lon="7.01184">
        <ele>271.29211425781</ele>
        <time>2020-05-14T13:07:59Z</time>
      </trkpt>
      <trkpt lat="43.64568" lon="7.01182">
        <ele>270.19946289062</ele>
        <time>2020-05-14T13:08:00Z</time>
      </trkpt>
      <trkpt lat="43.64571" lon="7.01179">
        <ele>268.49322509766</ele>
        <time>2020-05-14T13:08:01Z</time>
      </trkpt>
      <trkpt lat="43.64574" lon="7.01177">
        <ele>272.20806884766</ele>
        <time>2020-05-14T13:08:02Z</time>
      </trkpt>
      <trkpt lat="43.64576" lon="7.01175">
        <ele>271.72930908203</ele>
        <time>2020-05-14T13:08:03Z</time>
      </trkpt>
      <trkpt lat="43.64579" lon="7.01173">
        <ele>272.37554931641</ele>
        <time>2020-05-14T13:08:04Z</time>
      </trkpt>
      <trkpt lat="43.64582" lon="7.01169">
        <ele>272.07336425781</ele>
        <time>2020-05-14T13:08:05Z</time>
      </trkpt>
      <trkpt lat="43.64584" lon="7.01166">
        <ele>272.40148925781</ele>
        <time>2020-05-14T13:08:06Z</time>
      </trkpt>
      <trkpt lat="43.64586" lon="7.01164">
        <ele>273.30773925781</ele>
        <time>2020-05-14T13:08:07Z</time>
      </trkpt>
      <trkpt lat="43.64589" lon="7.01161">
        <ele>272.30688476562</ele>
        <time>2020-05-14T13:08:08Z</time>
      </trkpt>
      <trkpt lat="43.64592" lon="7.01159">
        <ele>270.45434570312</ele>
        <time>2020-05-14T13:08:09Z</time>
      </trkpt>
      <trkpt lat="43.64595" lon="7.01157">
        <ele>271.25988769531</ele>
        <time>2020-05-14T13:08:10Z</time>
      </trkpt>
      <trkpt lat="43.64598" lon="7.01155">
        <ele>271.64331054688</ele>
        <time>2020-05-14T13:08:11Z</time>
      </trkpt>
      <trkpt lat="43.64601" lon="7.01153">
        <ele>271.2578125</ele>
        <time>2020-05-14T13:08:12Z</time>
      </trkpt>
      <trkpt lat="43.64605" lon="7.0115">
        <ele>270.84240722656</ele>
        <time>2020-05-14T13:08:13Z</time>
      </trkpt>
      <trkpt lat="43.64608" lon="7.01148">
        <ele>270.873046875</ele>
        <time>2020-05-14T13:08:14Z</time>
      </trkpt>
      <trkpt lat="43.64611" lon="7.01145">
        <ele>270.31970214844</ele>
        <time>2020-05-14T13:08:15Z</time>
      </trkpt>
      <trkpt lat="43.64614" lon="7.01143">
        <ele>276.05456542969</ele>
        <time>2020-05-14T13:08:16Z</time>
      </trkpt>
      <trkpt lat="43.64617" lon="7.01141">
        <ele>275.80432128906</ele>
        <time>2020-05-14T13:08:17Z</time>
      </trkpt>
      <trkpt lat="43.64621" lon="7.01138">
        <ele>275.98498535156</ele>
        <time>2020-05-14T13:08:18Z</time>
      </trkpt>
      <trkpt lat="43.64624" lon="7.01136">
        <ele>276.46936035156</ele>
        <time>2020-05-14T13:08:19Z</time>
      </trkpt>
      <trkpt lat="43.64627" lon="7.01133">
        <ele>275.18054199219</ele>
        <time>2020-05-14T13:08:20Z</time>
      </trkpt>
      <trkpt lat="43.64629" lon="7.01131">
        <ele>274.60638427734</ele>
        <time>2020-05-14T13:08:21Z</time>
      </trkpt>
      <trkpt lat="43.64632" lon="7.01129">
        <ele>270.17224121094</ele>
        <time>2020-05-14T13:08:22Z</time>
      </trkpt>
      <trkpt lat="43.64635" lon="7.01126">
        <ele>269.79650878906</ele>
        <time>2020-05-14T13:08:23Z</time>
      </trkpt>
      <trkpt lat="43.64638" lon="7.01124">
        <ele>269.97131347656</ele>
        <time>2020-05-14T13:08:24Z</time>
      </trkpt>
      <trkpt lat="43.64641" lon="7.01121">
        <ele>268.87573242188</ele>
        <time>2020-05-14T13:08:25Z</time>
      </trkpt>
      <trkpt lat="43.64645" lon="7.01119">
        <ele>273.26208496094</ele>
        <time>2020-05-14T13:08:26Z</time>
      </trkpt>
      <trkpt lat="43.64648" lon="7.01116">
        <ele>272.70330810547</ele>
        <time>2020-05-14T13:08:27Z</time>
      </trkpt>
      <trkpt lat="43.6465" lon="7.01114">
        <ele>273.44128417969</ele>
        <time>2020-05-14T13:08:28Z</time>
      </trkpt>
      <trkpt lat="43.64653" lon="7.01111">
        <ele>273.91125488281</ele>
        <time>2020-05-14T13:08:29Z</time>
      </trkpt>
      <trkpt lat="43.64656" lon="7.01109">
        <ele>274.650390625</ele>
        <time>2020-05-14T13:08:30Z</time>
      </trkpt>
      <trkpt lat="43.64659" lon="7.01106">
        <ele>270.45593261719</ele>
        <time>2020-05-14T13:08:31Z</time>
      </trkpt>
      <trkpt lat="43.64663" lon="7.01105">
        <ele>270.70007324219</ele>
        <time>2020-05-14T13:08:32Z</time>
      </trkpt>
      <trkpt lat="43.64666" lon="7.01103">
        <ele>271.24029541016</ele>
        <time>2020-05-14T13:08:33Z</time>
      </trkpt>
      <trkpt lat="43.6467" lon="7.011">
        <ele>271.36572265625</ele>
        <time>2020-05-14T13:08:34Z</time>
      </trkpt>
      <trkpt lat="43.64673" lon="7.01098">
        <ele>270.11364746094</ele>
        <time>2020-05-14T13:08:35Z</time>
      </trkpt>
      <trkpt lat="43.64676" lon="7.01096">
        <ele>270.93005371094</ele>
        <time>2020-05-14T13:08:36Z</time>
      </trkpt>
      <trkpt lat="43.64679" lon="7.01093">
        <ele>269.90051269531</ele>
        <time>2020-05-14T13:08:37Z</time>
      </trkpt>
      <trkpt lat="43.64681" lon="7.01091">
        <ele>275.77294921875</ele>
        <time>2020-05-14T13:08:38Z</time>
      </trkpt>
      <trkpt lat="43.64684" lon="7.01088">
        <ele>276.19561767578</ele>
        <time>2020-05-14T13:08:39Z</time>
      </trkpt>
      <trkpt lat="43.64687" lon="7.01085">
        <ele>277.74865722656</ele>
        <time>2020-05-14T13:08:40Z</time>
      </trkpt>
      <trkpt lat="43.6469" lon="7.01081">
        <ele>276.97241210938</ele>
        <time>2020-05-14T13:08:41Z</time>
      </trkpt>
      <trkpt lat="43.64694" lon="7.01078">
        <ele>278.31506347656</ele>
        <time>2020-05-14T13:08:42Z</time>
      </trkpt>
      <trkpt lat="43.64697" lon="7.01074">
        <ele>273.63171386719</ele>
        <time>2020-05-14T13:08:43Z</time>
      </trkpt>
      <trkpt lat="43.647" lon="7.01071">
        <ele>284.75891113281</ele>
        <time>2020-05-14T13:08:44Z</time>
      </trkpt>
      <trkpt lat="43.64703" lon="7.01066">
        <ele>282.98712158203</ele>
        <time>2020-05-14T13:08:45Z</time>
      </trkpt>
      <trkpt lat="43.64706" lon="7.01062">
        <ele>280.82836914062</ele>
        <time>2020-05-14T13:08:46Z</time>
      </trkpt>
      <trkpt lat="43.64709" lon="7.01057">
        <ele>287.18957519531</ele>
        <time>2020-05-14T13:08:47Z</time>
      </trkpt>
      <trkpt lat="43.64713" lon="7.01052">
        <ele>289.30108642578</ele>
        <time>2020-05-14T13:08:48Z</time>
      </trkpt>
      <trkpt lat="43.64716" lon="7.01047">
        <ele>290.30810546875</ele>
        <time>2020-05-14T13:08:49Z</time>
      </trkpt>
      <trkpt lat="43.6472" lon="7.01045">
        <ele>290.25354003906</ele>
        <time>2020-05-14T13:08:50Z</time>
      </trkpt>
      <trkpt lat="43.64724" lon="7.01044">
        <ele>289.81091308594</ele>
        <time>2020-05-14T13:08:51Z</time>
      </trkpt>
      <trkpt lat="43.64729" lon="7.01041">
        <ele>289.462890625</ele>
        <time>2020-05-14T13:08:52Z</time>
      </trkpt>
      <trkpt lat="43.64734" lon="7.0104">
        <ele>289.2626953125</ele>
        <time>2020-05-14T13:08:53Z</time>
      </trkpt>
      <trkpt lat="43.6474" lon="7.01038">
        <ele>289.00952148438</ele>
        <time>2020-05-14T13:08:54Z</time>
      </trkpt>
      <trkpt lat="43.64744" lon="7.01036">
        <ele>288.92907714844</ele>
        <time>2020-05-14T13:08:55Z</time>
      </trkpt>
      <trkpt lat="43.64749" lon="7.01036">
        <ele>288.74096679688</ele>
        <time>2020-05-14T13:08:56Z</time>
      </trkpt>
      <trkpt lat="43.64754" lon="7.01037">
        <ele>289.09301757812</ele>
        <time>2020-05-14T13:08:57Z</time>
      </trkpt>
      <trkpt lat="43.64759" lon="7.01037">
        <ele>289.86010742188</ele>
        <time>2020-05-14T13:08:58Z</time>
      </trkpt>
      <trkpt lat="43.64764" lon="7.01035">
        <ele>290.01647949219</ele>
        <time>2020-05-14T13:08:59Z</time>
      </trkpt>
      <trkpt lat="43.64769" lon="7.01034">
        <ele>290.20733642578</ele>
        <time>2020-05-14T13:09:00Z</time>
      </trkpt>
      <trkpt lat="43.64774" lon="7.01035">
        <ele>289.8388671875</ele>
        <time>2020-05-14T13:09:01Z</time>
      </trkpt>
      <trkpt lat="43.64778" lon="7.01035">
        <ele>290.27032470703</ele>
        <time>2020-05-14T13:09:02Z</time>
      </trkpt>
      <trkpt lat="43.64782" lon="7.01033">
        <ele>288.91589355469</ele>
        <time>2020-05-14T13:09:03Z</time>
      </trkpt>
      <trkpt lat="43.64786" lon="7.01032">
        <ele>289.15966796875</ele>
        <time>2020-05-14T13:09:04Z</time>
      </trkpt>
      <trkpt lat="43.64791" lon="7.01032">
        <ele>289.32318115234</ele>
        <time>2020-05-14T13:09:05Z</time>
      </trkpt>
      <trkpt lat="43.64795" lon="7.01032">
        <ele>288.62268066406</ele>
        <time>2020-05-14T13:09:06Z</time>
      </trkpt>
      <trkpt lat="43.64799" lon="7.01033">
        <ele>288.82189941406</ele>
        <time>2020-05-14T13:09:07Z</time>
      </trkpt>
      <trkpt lat="43.64804" lon="7.01033">
        <ele>288.3447265625</ele>
        <time>2020-05-14T13:09:08Z</time>
      </trkpt>
      <trkpt lat="43.64808" lon="7.01032">
        <ele>287.98126220703</ele>
        <time>2020-05-14T13:09:09Z</time>
      </trkpt>
      <trkpt lat="43.64812" lon="7.01032">
        <ele>288.00732421875</ele>
        <time>2020-05-14T13:09:10Z</time>
      </trkpt>
      <trkpt lat="43.64816" lon="7.01031">
        <ele>288.16461181641</ele>
        <time>2020-05-14T13:09:11Z</time>
      </trkpt>
      <trkpt lat="43.64822" lon="7.01032">
        <ele>288.16082763672</ele>
        <time>2020-05-14T13:09:12Z</time>
      </trkpt>
      <trkpt lat="43.64828" lon="7.01031">
        <ele>288.91729736328</ele>
        <time>2020-05-14T13:09:13Z</time>
      </trkpt>
      <trkpt lat="43.64832" lon="7.0103">
        <ele>287.96838378906</ele>
        <time>2020-05-14T13:09:14Z</time>
      </trkpt>
      <trkpt lat="43.64837" lon="7.01029">
        <ele>288.97717285156</ele>
        <time>2020-05-14T13:09:15Z</time>
      </trkpt>
      <trkpt lat="43.64841" lon="7.01029">
        <ele>289.67419433594</ele>
        <time>2020-05-14T13:09:16Z</time>
      </trkpt>
      <trkpt lat="43.64846" lon="7.01029">
        <ele>289.57678222656</ele>
        <time>2020-05-14T13:09:17Z</time>
      </trkpt>
      <trkpt lat="43.64851" lon="7.0103">
        <ele>289.40167236328</ele>
        <time>2020-05-14T13:09:18Z</time>
      </trkpt>
      <trkpt lat="43.64856" lon="7.0103">
        <ele>288.92761230469</ele>
        <time>2020-05-14T13:09:19Z</time>
      </trkpt>
      <trkpt lat="43.6486" lon="7.01029">
        <ele>288.40850830078</ele>
        <time>2020-05-14T13:09:20Z</time>
      </trkpt>
      <trkpt lat="43.64865" lon="7.01029">
        <ele>289.43902587891</ele>
        <time>2020-05-14T13:09:21Z</time>
      </trkpt>
      <trkpt lat="43.64871" lon="7.01028">
        <ele>287.63024902344</ele>
        <time>2020-05-14T13:09:22Z</time>
      </trkpt>
      <trkpt lat="43.64875" lon="7.0103">
        <ele>290.66345214844</ele>
        <time>2020-05-14T13:09:23Z</time>
      </trkpt>
      <trkpt lat="43.6488" lon="7.01032">
        <ele>289.31915283203</ele>
        <time>2020-05-14T13:09:24Z</time>
      </trkpt>
      <trkpt lat="43.64884" lon="7.01033">
        <ele>289.53051757812</ele>
        <time>2020-05-14T13:09:25Z</time>
      </trkpt>
      <trkpt lat="43.64889" lon="7.01032">
        <ele>290.4462890625</ele>
        <time>2020-05-14T13:09:26Z</time>
      </trkpt>
      <trkpt lat="43.64894" lon="7.0103">
        <ele>290.71655273438</ele>
        <time>2020-05-14T13:09:27Z</time>
      </trkpt>
      <trkpt lat="43.64899" lon="7.0103">
        <ele>290.45935058594</ele>
        <time>2020-05-14T13:09:28Z</time>
      </trkpt>
      <trkpt lat="43.64905" lon="7.01038">
        <ele>287.14562988281</ele>
        <time>2020-05-14T13:09:29Z</time>
      </trkpt>
      <trkpt lat="43.6491" lon="7.01034">
        <ele>287.10205078125</ele>
        <time>2020-05-14T13:09:30Z</time>
      </trkpt>
      <trkpt lat="43.64913" lon="7.0103">
        <ele>286.98785400391</ele>
        <time>2020-05-14T13:09:31Z</time>
      </trkpt>
      <trkpt lat="43.64918" lon="7.01026">
        <ele>286.44091796875</ele>
        <time>2020-05-14T13:09:32Z</time>
      </trkpt>
      <trkpt lat="43.64921" lon="7.01022">
        <ele>286.72119140625</ele>
        <time>2020-05-14T13:09:33Z</time>
      </trkpt>
      <trkpt lat="43.64924" lon="7.01017">
        <ele>286.76965332031</ele>
        <time>2020-05-14T13:09:34Z</time>
      </trkpt>
      <trkpt lat="43.64927" lon="7.01011">
        <ele>287.40948486328</ele>
        <time>2020-05-14T13:09:35Z</time>
      </trkpt>
      <trkpt lat="43.64931" lon="7.01006">
        <ele>287.73486328125</ele>
        <time>2020-05-14T13:09:36Z</time>
      </trkpt>
      <trkpt lat="43.64934" lon="7.01001">
        <ele>288.68200683594</ele>
        <time>2020-05-14T13:09:37Z</time>
      </trkpt>
      <trkpt lat="43.64938" lon="7.00997">
        <ele>288.83264160156</ele>
        <time>2020-05-14T13:09:38Z</time>
      </trkpt>
      <trkpt lat="43.64942" lon="7.00995">
        <ele>288.8896484375</ele>
        <time>2020-05-14T13:09:39Z</time>
      </trkpt>
      <trkpt lat="43.64947" lon="7.00992">
        <ele>289.11828613281</ele>
        <time>2020-05-14T13:09:40Z</time>
      </trkpt>
      <trkpt lat="43.64952" lon="7.0099">
        <ele>287.96337890625</ele>
        <time>2020-05-14T13:09:41Z</time>
      </trkpt>
      <trkpt lat="43.64956" lon="7.0099">
        <ele>291.27270507812</ele>
        <time>2020-05-14T13:09:42Z</time>
      </trkpt>
      <trkpt lat="43.6496" lon="7.00989">
        <ele>292.80163574219</ele>
        <time>2020-05-14T13:09:43Z</time>
      </trkpt>
      <trkpt lat="43.64965" lon="7.00991">
        <ele>292.72436523438</ele>
        <time>2020-05-14T13:09:44Z</time>
      </trkpt>
      <trkpt lat="43.6497" lon="7.00994">
        <ele>292.86004638672</ele>
        <time>2020-05-14T13:09:45Z</time>
      </trkpt>
      <trkpt lat="43.64973" lon="7.00996">
        <ele>292.46563720703</ele>
        <time>2020-05-14T13:09:46Z</time>
      </trkpt>
      <trkpt lat="43.64977" lon="7.00998">
        <ele>291.96124267578</ele>
        <time>2020-05-14T13:09:47Z</time>
      </trkpt>
      <trkpt lat="43.64981" lon="7.01001">
        <ele>292.19091796875</ele>
        <time>2020-05-14T13:09:48Z</time>
      </trkpt>
      <trkpt lat="43.64984" lon="7.01004">
        <ele>292.54528808594</ele>
        <time>2020-05-14T13:09:49Z</time>
      </trkpt>
      <trkpt lat="43.64988" lon="7.01006">
        <ele>292.84753417969</ele>
        <time>2020-05-14T13:09:50Z</time>
      </trkpt>
      <trkpt lat="43.64992" lon="7.01011">
        <ele>287.921875</ele>
        <time>2020-05-14T13:09:51Z</time>
      </trkpt>
      <trkpt lat="43.64998" lon="7.01015">
        <ele>286.94360351562</ele>
        <time>2020-05-14T13:09:52Z</time>
      </trkpt>
      <trkpt lat="43.65003" lon="7.01018">
        <ele>287.10986328125</ele>
        <time>2020-05-14T13:09:53Z</time>
      </trkpt>
      <trkpt lat="43.65009" lon="7.01021">
        <ele>286.70141601562</ele>
        <time>2020-05-14T13:09:54Z</time>
      </trkpt>
      <trkpt lat="43.65014" lon="7.01022">
        <ele>287.85485839844</ele>
        <time>2020-05-14T13:09:55Z</time>
      </trkpt>
      <trkpt lat="43.65019" lon="7.01024">
        <ele>287.21875</ele>
        <time>2020-05-14T13:09:56Z</time>
      </trkpt>
      <trkpt lat="43.65023" lon="7.01026">
        <ele>286.89031982422</ele>
        <time>2020-05-14T13:09:57Z</time>
      </trkpt>
      <trkpt lat="43.65027" lon="7.01025">
        <ele>286.62365722656</ele>
        <time>2020-05-14T13:09:58Z</time>
      </trkpt>
      <trkpt lat="43.65032" lon="7.01022">
        <ele>286.21557617188</ele>
        <time>2020-05-14T13:09:59Z</time>
      </trkpt>
      <trkpt lat="43.65037" lon="7.01023">
        <ele>286.42517089844</ele>
        <time>2020-05-14T13:10:00Z</time>
      </trkpt>
      <trkpt lat="43.65042" lon="7.01024">
        <ele>286.36340332031</ele>
        <time>2020-05-14T13:10:01Z</time>
      </trkpt>
      <trkpt lat="43.65046" lon="7.01023">
        <ele>286.78961181641</ele>
        <time>2020-05-14T13:10:02Z</time>
      </trkpt>
      <trkpt lat="43.65052" lon="7.01024">
        <ele>287.01135253906</ele>
        <time>2020-05-14T13:10:03Z</time>
      </trkpt>
      <trkpt lat="43.65058" lon="7.01026">
        <ele>286.24816894531</ele>
        <time>2020-05-14T13:10:04Z</time>
      </trkpt>
      <trkpt lat="43.65062" lon="7.01025">
        <ele>286.03869628906</ele>
        <time>2020-05-14T13:10:05Z</time>
      </trkpt>
      <trkpt lat="43.65067" lon="7.01025">
        <ele>286.14019775391</ele>
        <time>2020-05-14T13:10:06Z</time>
      </trkpt>
      <trkpt lat="43.65072" lon="7.01023">
        <ele>286.7197265625</ele>
        <time>2020-05-14T13:10:07Z</time>
      </trkpt>
      <trkpt lat="43.65076" lon="7.01022">
        <ele>287.04064941406</ele>
        <time>2020-05-14T13:10:08Z</time>
      </trkpt>
      <trkpt lat="43.65082" lon="7.01021">
        <ele>287.24487304688</ele>
        <time>2020-05-14T13:10:09Z</time>
      </trkpt>
      <trkpt lat="43.65087" lon="7.01019">
        <ele>287.53454589844</ele>
        <time>2020-05-14T13:10:10Z</time>
      </trkpt>
      <trkpt lat="43.65091" lon="7.01016">
        <ele>287.6435546875</ele>
        <time>2020-05-14T13:10:11Z</time>
      </trkpt>
      <trkpt lat="43.65096" lon="7.01014">
        <ele>287.24621582031</ele>
        <time>2020-05-14T13:10:12Z</time>
      </trkpt>
      <trkpt lat="43.65101" lon="7.01011">
        <ele>287.38336181641</ele>
        <time>2020-05-14T13:10:13Z</time>
      </trkpt>
      <trkpt lat="43.65105" lon="7.01007">
        <ele>287.29809570312</ele>
        <time>2020-05-14T13:10:14Z</time>
      </trkpt>
      <trkpt lat="43.65109" lon="7.01003">
        <ele>287.15325927734</ele>
        <time>2020-05-14T13:10:15Z</time>
      </trkpt>
      <trkpt lat="43.65115" lon="7.01001">
        <ele>286.92242431641</ele>
        <time>2020-05-14T13:10:16Z</time>
      </trkpt>
      <trkpt lat="43.65119" lon="7.00999">
        <ele>286.58142089844</ele>
        <time>2020-05-14T13:10:17Z</time>
      </trkpt>
      <trkpt lat="43.65123" lon="7.00998">
        <ele>287.25592041016</ele>
        <time>2020-05-14T13:10:18Z</time>
      </trkpt>
      <trkpt lat="43.65128" lon="7.00996">
        <ele>286.82385253906</ele>
        <time>2020-05-14T13:10:19Z</time>
      </trkpt>
      <trkpt lat="43.65131" lon="7.00995">
        <ele>286.66735839844</ele>
        <time>2020-05-14T13:10:20Z</time>
      </trkpt>
      <trkpt lat="43.65136" lon="7.00993">
        <ele>288.4638671875</ele>
        <time>2020-05-14T13:10:21Z</time>
      </trkpt>
      <trkpt lat="43.65141" lon="7.00991">
        <ele>287.60778808594</ele>
        <time>2020-05-14T13:10:22Z</time>
      </trkpt>
      <trkpt lat="43.65147" lon="7.00994">
        <ele>289.69592285156</ele>
        <time>2020-05-14T13:10:23Z</time>
      </trkpt>
      <trkpt lat="43.65153" lon="7.00994">
        <ele>290.20642089844</ele>
        <time>2020-05-14T13:10:24Z</time>
      </trkpt>
      <trkpt lat="43.65158" lon="7.00993">
        <ele>289.92016601562</ele>
        <time>2020-05-14T13:10:25Z</time>
      </trkpt>
      <trkpt lat="43.65163" lon="7.00997">
        <ele>290.41760253906</ele>
        <time>2020-05-14T13:10:26Z</time>
      </trkpt>
      <trkpt lat="43.65167" lon="7.00996">
        <ele>288.80554199219</ele>
        <time>2020-05-14T13:10:27Z</time>
      </trkpt>
      <trkpt lat="43.65174" lon="7.01001">
        <ele>288.35931396484</ele>
        <time>2020-05-14T13:10:28Z</time>
      </trkpt>
      <trkpt lat="43.65178" lon="7.01002">
        <ele>288.39385986328</ele>
        <time>2020-05-14T13:10:29Z</time>
      </trkpt>
      <trkpt lat="43.65183" lon="7.00999">
        <ele>287.97802734375</ele>
        <time>2020-05-14T13:10:30Z</time>
      </trkpt>
      <trkpt lat="43.65188" lon="7.00999">
        <ele>287.25073242188</ele>
        <time>2020-05-14T13:10:31Z</time>
      </trkpt>
      <trkpt lat="43.65193" lon="7.01001">
        <ele>286.73803710938</ele>
        <time>2020-05-14T13:10:32Z</time>
      </trkpt>
      <trkpt lat="43.65198" lon="7.01">
        <ele>286.96130371094</ele>
        <time>2020-05-14T13:10:33Z</time>
      </trkpt>
      <trkpt lat="43.65202" lon="7.00999">
        <ele>287.36645507812</ele>
        <time>2020-05-14T13:10:34Z</time>
      </trkpt>
      <trkpt lat="43.65206" lon="7.00996">
        <ele>287.57000732422</ele>
        <time>2020-05-14T13:10:35Z</time>
      </trkpt>
      <trkpt lat="43.6521" lon="7.00997">
        <ele>286.92590332031</ele>
        <time>2020-05-14T13:10:36Z</time>
      </trkpt>
      <trkpt lat="43.65215" lon="7.00996">
        <ele>287.6767578125</ele>
        <time>2020-05-14T13:10:37Z</time>
      </trkpt>
      <trkpt lat="43.65219" lon="7.00994">
        <ele>287.40203857422</ele>
        <time>2020-05-14T13:10:38Z</time>
      </trkpt>
      <trkpt lat="43.65224" lon="7.00993">
        <ele>287.78979492188</ele>
        <time>2020-05-14T13:10:39Z</time>
      </trkpt>
      <trkpt lat="43.65227" lon="7.00992">
        <ele>287.66589355469</ele>
        <time>2020-05-14T13:10:40Z</time>
      </trkpt>
      <trkpt lat="43.65232" lon="7.0099">
        <ele>287.76934814453</ele>
        <time>2020-05-14T13:10:41Z</time>
      </trkpt>
      <trkpt lat="43.65237" lon="7.00989">
        <ele>287.53533935547</ele>
        <time>2020-05-14T13:10:42Z</time>
      </trkpt>
      <trkpt lat="43.65243" lon="7.00988">
        <ele>286.90698242188</ele>
        <time>2020-05-14T13:10:43Z</time>
      </trkpt>
      <trkpt lat="43.65247" lon="7.00985">
        <ele>286.91711425781</ele>
        <time>2020-05-14T13:10:44Z</time>
      </trkpt>
      <trkpt lat="43.65252" lon="7.00984">
        <ele>287.32995605469</ele>
        <time>2020-05-14T13:10:45Z</time>
      </trkpt>
      <trkpt lat="43.65254" lon="7.00983">
        <ele>287.712890625</ele>
        <time>2020-05-14T13:10:46Z</time>
      </trkpt>
      <trkpt lat="43.65257" lon="7.00979">
        <ele>288.06787109375</ele>
        <time>2020-05-14T13:10:47Z</time>
      </trkpt>
      <trkpt lat="43.65262" lon="7.00975">
        <ele>288.17541503906</ele>
        <time>2020-05-14T13:10:48Z</time>
      </trkpt>
      <trkpt lat="43.65264" lon="7.00972">
        <ele>287.98864746094</ele>
        <time>2020-05-14T13:10:49Z</time>
      </trkpt>
      <trkpt lat="43.6527" lon="7.00963">
        <ele>288.06311035156</ele>
        <time>2020-05-14T13:10:50Z</time>
      </trkpt>
      <trkpt lat="43.65272" lon="7.00956">
        <ele>288.65911865234</ele>
        <time>2020-05-14T13:10:51Z</time>
      </trkpt>
      <trkpt lat="43.65275" lon="7.00949">
        <ele>288.56164550781</ele>
        <time>2020-05-14T13:10:52Z</time>
      </trkpt>
      <trkpt lat="43.65278" lon="7.00943">
        <ele>291.25213623047</ele>
        <time>2020-05-14T13:10:53Z</time>
      </trkpt>
      <trkpt lat="43.6528" lon="7.00937">
        <ele>290.34338378906</ele>
        <time>2020-05-14T13:10:54Z</time>
      </trkpt>
      <trkpt lat="43.65283" lon="7.00929">
        <ele>290.5244140625</ele>
        <time>2020-05-14T13:10:55Z</time>
      </trkpt>
      <trkpt lat="43.65286" lon="7.00922">
        <ele>290.87573242188</ele>
        <time>2020-05-14T13:10:56Z</time>
      </trkpt>
      <trkpt lat="43.65289" lon="7.00916">
        <ele>290.46252441406</ele>
        <time>2020-05-14T13:10:57Z</time>
      </trkpt>
      <trkpt lat="43.65292" lon="7.00908">
        <ele>289.61871337891</ele>
        <time>2020-05-14T13:10:58Z</time>
      </trkpt>
      <trkpt lat="43.65297" lon="7.00905">
        <ele>289.24853515625</ele>
        <time>2020-05-14T13:10:59Z</time>
      </trkpt>
      <trkpt lat="43.65302" lon="7.009">
        <ele>287.80322265625</ele>
        <time>2020-05-14T13:11:00Z</time>
      </trkpt>
      <trkpt lat="43.65307" lon="7.00897">
        <ele>290.05444335938</ele>
        <time>2020-05-14T13:11:01Z</time>
      </trkpt>
      <trkpt lat="43.65313" lon="7.00899">
        <ele>290.46362304688</ele>
        <time>2020-05-14T13:11:02Z</time>
      </trkpt>
      <trkpt lat="43.6532" lon="7.00899">
        <ele>290.2041015625</ele>
        <time>2020-05-14T13:11:03Z</time>
      </trkpt>
      <trkpt lat="43.65326" lon="7.00898">
        <ele>289.40185546875</ele>
        <time>2020-05-14T13:11:04Z</time>
      </trkpt>
      <trkpt lat="43.65333" lon="7.009">
        <ele>288.72308349609</ele>
        <time>2020-05-14T13:11:05Z</time>
      </trkpt>
      <trkpt lat="43.6534" lon="7.00899">
        <ele>289.35546875</ele>
        <time>2020-05-14T13:11:06Z</time>
      </trkpt>
      <trkpt lat="43.65347" lon="7.00899">
        <ele>287.5966796875</ele>
        <time>2020-05-14T13:11:07Z</time>
      </trkpt>
      <trkpt lat="43.65353" lon="7.00895">
        <ele>287.51696777344</ele>
        <time>2020-05-14T13:11:08Z</time>
      </trkpt>
      <trkpt lat="43.65358" lon="7.00893">
        <ele>287.45385742188</ele>
        <time>2020-05-14T13:11:09Z</time>
      </trkpt>
      <trkpt lat="43.65363" lon="7.00892">
        <ele>287.17761230469</ele>
        <time>2020-05-14T13:11:10Z</time>
      </trkpt>
      <trkpt lat="43.6537" lon="7.00887">
        <ele>289.57879638672</ele>
        <time>2020-05-14T13:11:11Z</time>
      </trkpt>
      <trkpt lat="43.65376" lon="7.00884">
        <ele>292.2197265625</ele>
        <time>2020-05-14T13:11:12Z</time>
      </trkpt>
      <trkpt lat="43.65381" lon="7.00881">
        <ele>290.63256835938</ele>
        <time>2020-05-14T13:11:13Z</time>
      </trkpt>
      <trkpt lat="43.65388" lon="7.00879">
        <ele>291.13549804688</ele>
        <time>2020-05-14T13:11:14Z</time>
      </trkpt>
      <trkpt lat="43.65396" lon="7.00874">
        <ele>291.89080810547</ele>
        <time>2020-05-14T13:11:15Z</time>
      </trkpt>
      <trkpt lat="43.65402" lon="7.0087">
        <ele>292.705078125</ele>
        <time>2020-05-14T13:11:16Z</time>
      </trkpt>
      <trkpt lat="43.65409" lon="7.00867">
        <ele>293.68383789062</ele>
        <time>2020-05-14T13:11:17Z</time>
      </trkpt>
      <trkpt lat="43.65415" lon="7.00864">
        <ele>293.82971191406</ele>
        <time>2020-05-14T13:11:18Z</time>
      </trkpt>
      <trkpt lat="43.6542" lon="7.00861">
        <ele>292.52563476562</ele>
        <time>2020-05-14T13:11:19Z</time>
      </trkpt>
      <trkpt lat="43.65425" lon="7.00855">
        <ele>292.65026855469</ele>
        <time>2020-05-14T13:11:20Z</time>
      </trkpt>
      <trkpt lat="43.65432" lon="7.0085">
        <ele>292.41101074219</ele>
        <time>2020-05-14T13:11:21Z</time>
      </trkpt>
      <trkpt lat="43.65437" lon="7.00844">
        <ele>292.72253417969</ele>
        <time>2020-05-14T13:11:22Z</time>
      </trkpt>
      <trkpt lat="43.65442" lon="7.00837">
        <ele>292.36743164062</ele>
        <time>2020-05-14T13:11:23Z</time>
      </trkpt>
      <trkpt lat="43.65447" lon="7.00829">
        <ele>292.63793945312</ele>
        <time>2020-05-14T13:11:24Z</time>
      </trkpt>
      <trkpt lat="43.6545" lon="7.0082">
        <ele>291.06799316406</ele>
        <time>2020-05-14T13:11:25Z</time>
      </trkpt>
      <trkpt lat="43.65454" lon="7.00811">
        <ele>291.22375488281</ele>
        <time>2020-05-14T13:11:26Z</time>
      </trkpt>
      <trkpt lat="43.65456" lon="7.008">
        <ele>292.85113525391</ele>
        <time>2020-05-14T13:11:27Z</time>
      </trkpt>
      <trkpt lat="43.65457" lon="7.0079">
        <ele>293.26672363281</ele>
        <time>2020-05-14T13:11:28Z</time>
      </trkpt>
      <trkpt lat="43.65457" lon="7.0078">
        <ele>293.61047363281</ele>
        <time>2020-05-14T13:11:29Z</time>
      </trkpt>
      <trkpt lat="43.65456" lon="7.0077">
        <ele>293.20526123047</ele>
        <time>2020-05-14T13:11:30Z</time>
      </trkpt>
      <trkpt lat="43.65454" lon="7.0076">
        <ele>292.65301513672</ele>
        <time>2020-05-14T13:11:31Z</time>
      </trkpt>
      <trkpt lat="43.65453" lon="7.00751">
        <ele>292.05065917969</ele>
        <time>2020-05-14T13:11:32Z</time>
      </trkpt>
      <trkpt lat="43.6545" lon="7.0074">
        <ele>292.19201660156</ele>
        <time>2020-05-14T13:11:33Z</time>
      </trkpt>
      <trkpt lat="43.65447" lon="7.00731">
        <ele>292.24359130859</ele>
        <time>2020-05-14T13:11:34Z</time>
      </trkpt>
      <trkpt lat="43.65447" lon="7.00721">
        <ele>292.78588867188</ele>
        <time>2020-05-14T13:11:35Z</time>
      </trkpt>
      <trkpt lat="43.65444" lon="7.00712">
        <ele>293.12451171875</ele>
        <time>2020-05-14T13:11:36Z</time>
      </trkpt>
      <trkpt lat="43.65443" lon="7.00702">
        <ele>293.05834960938</ele>
        <time>2020-05-14T13:11:37Z</time>
      </trkpt>
      <trkpt lat="43.65442" lon="7.00692">
        <ele>292.62603759766</ele>
        <time>2020-05-14T13:11:38Z</time>
      </trkpt>
      <trkpt lat="43.65442" lon="7.00682">
        <ele>293.154296875</ele>
        <time>2020-05-14T13:11:39Z</time>
      </trkpt>
      <trkpt lat="43.65442" lon="7.00671">
        <ele>292.27673339844</ele>
        <time>2020-05-14T13:11:40Z</time>
      </trkpt>
      <trkpt lat="43.65442" lon="7.00663">
        <ele>292.91235351562</ele>
        <time>2020-05-14T13:11:41Z</time>
      </trkpt>
      <trkpt lat="43.65442" lon="7.00653">
        <ele>293.28741455078</ele>
        <time>2020-05-14T13:11:42Z</time>
      </trkpt>
      <trkpt lat="43.65443" lon="7.00642">
        <ele>293.16052246094</ele>
        <time>2020-05-14T13:11:43Z</time>
      </trkpt>
      <trkpt lat="43.65445" lon="7.00631">
        <ele>293.21087646484</ele>
        <time>2020-05-14T13:11:44Z</time>
      </trkpt>
      <trkpt lat="43.65447" lon="7.00622">
        <ele>292.73815917969</ele>
        <time>2020-05-14T13:11:45Z</time>
      </trkpt>
      <trkpt lat="43.65448" lon="7.00611">
        <ele>290.29797363281</ele>
        <time>2020-05-14T13:11:46Z</time>
      </trkpt>
      <trkpt lat="43.65449" lon="7.00602">
        <ele>290.65460205078</ele>
        <time>2020-05-14T13:11:47Z</time>
      </trkpt>
      <trkpt lat="43.65451" lon="7.00593">
        <ele>288.83160400391</ele>
        <time>2020-05-14T13:11:48Z</time>
      </trkpt>
      <trkpt lat="43.65452" lon="7.00583">
        <ele>288.13800048828</ele>
        <time>2020-05-14T13:11:49Z</time>
      </trkpt>
      <trkpt lat="43.65452" lon="7.00572">
        <ele>287.69714355469</ele>
        <time>2020-05-14T13:11:50Z</time>
      </trkpt>
      <trkpt lat="43.65452" lon="7.00563">
        <ele>290.57440185547</ele>
        <time>2020-05-14T13:11:51Z</time>
      </trkpt>
      <trkpt lat="43.6545" lon="7.00554">
        <ele>290.83068847656</ele>
        <time>2020-05-14T13:11:52Z</time>
      </trkpt>
      <trkpt lat="43.65449" lon="7.00546">
        <ele>291.65539550781</ele>
        <time>2020-05-14T13:11:53Z</time>
      </trkpt>
      <trkpt lat="43.65446" lon="7.00537">
        <ele>292.14331054688</ele>
        <time>2020-05-14T13:11:54Z</time>
      </trkpt>
      <trkpt lat="43.65443" lon="7.00527">
        <ele>292.12634277344</ele>
        <time>2020-05-14T13:11:55Z</time>
      </trkpt>
      <trkpt lat="43.65441" lon="7.00517">
        <ele>293.19750976562</ele>
        <time>2020-05-14T13:11:56Z</time>
      </trkpt>
      <trkpt lat="43.65439" lon="7.00507">
        <ele>293.55895996094</ele>
        <time>2020-05-14T13:11:57Z</time>
      </trkpt>
      <trkpt lat="43.6544" lon="7.00495">
        <ele>292.76171875</ele>
        <time>2020-05-14T13:11:58Z</time>
      </trkpt>
      <trkpt lat="43.65441" lon="7.00486">
        <ele>292.52612304688</ele>
        <time>2020-05-14T13:11:59Z</time>
      </trkpt>
      <trkpt lat="43.65444" lon="7.00476">
        <ele>292.57922363281</ele>
        <time>2020-05-14T13:12:00Z</time>
      </trkpt>
      <trkpt lat="43.65445" lon="7.00466">
        <ele>291.73352050781</ele>
        <time>2020-05-14T13:12:01Z</time>
      </trkpt>
      <trkpt lat="43.65447" lon="7.00458">
        <ele>291.765625</ele>
        <time>2020-05-14T13:12:02Z</time>
      </trkpt>
      <trkpt lat="43.65449" lon="7.00449">
        <ele>292.02172851562</ele>
        <time>2020-05-14T13:12:03Z</time>
      </trkpt>
      <trkpt lat="43.65451" lon="7.0044">
        <ele>291.94708251953</ele>
        <time>2020-05-14T13:12:04Z</time>
      </trkpt>
      <trkpt lat="43.6545" lon="7.00432">
        <ele>291.654296875</ele>
        <time>2020-05-14T13:12:05Z</time>
      </trkpt>
      <trkpt lat="43.65449" lon="7.00423">
        <ele>290.46203613281</ele>
        <time>2020-05-14T13:12:06Z</time>
      </trkpt>
      <trkpt lat="43.65448" lon="7.00415">
        <ele>289.45422363281</ele>
        <time>2020-05-14T13:12:07Z</time>
      </trkpt>
      <trkpt lat="43.65447" lon="7.00405">
        <ele>288.90393066406</ele>
        <time>2020-05-14T13:12:08Z</time>
      </trkpt>
      <trkpt lat="43.65448" lon="7.00395">
        <ele>289.13134765625</ele>
        <time>2020-05-14T13:12:09Z</time>
      </trkpt>
      <trkpt lat="43.65449" lon="7.00386">
        <ele>289.05603027344</ele>
        <time>2020-05-14T13:12:10Z</time>
      </trkpt>
      <trkpt lat="43.65455" lon="7.00381">
        <ele>291.48400878906</ele>
        <time>2020-05-14T13:12:11Z</time>
      </trkpt>
      <trkpt lat="43.65462" lon="7.00378">
        <ele>290.59875488281</ele>
        <time>2020-05-14T13:12:12Z</time>
      </trkpt>
      <trkpt lat="43.65469" lon="7.00376">
        <ele>291.48937988281</ele>
        <time>2020-05-14T13:12:13Z</time>
      </trkpt>
      <trkpt lat="43.65476" lon="7.00376">
        <ele>291.39453125</ele>
        <time>2020-05-14T13:12:14Z</time>
      </trkpt>
      <trkpt lat="43.65483" lon="7.00377">
        <ele>291.41528320312</ele>
        <time>2020-05-14T13:12:15Z</time>
      </trkpt>
      <trkpt lat="43.65489" lon="7.00381">
        <ele>291.9716796875</ele>
        <time>2020-05-14T13:12:16Z</time>
      </trkpt>
      <trkpt lat="43.65494" lon="7.00387">
        <ele>290.79821777344</ele>
        <time>2020-05-14T13:12:17Z</time>
      </trkpt>
      <trkpt lat="43.65498" lon="7.00393">
        <ele>291.0400390625</ele>
        <time>2020-05-14T13:12:18Z</time>
      </trkpt>
      <trkpt lat="43.65503" lon="7.00399">
        <ele>291.61193847656</ele>
        <time>2020-05-14T13:12:19Z</time>
      </trkpt>
      <trkpt lat="43.65508" lon="7.00404">
        <ele>291.91162109375</ele>
        <time>2020-05-14T13:12:20Z</time>
      </trkpt>
      <trkpt lat="43.65512" lon="7.00408">
        <ele>291.69525146484</ele>
        <time>2020-05-14T13:12:21Z</time>
      </trkpt>
      <trkpt lat="43.65517" lon="7.00412">
        <ele>290.78063964844</ele>
        <time>2020-05-14T13:12:22Z</time>
      </trkpt>
      <trkpt lat="43.65522" lon="7.00416">
        <ele>290.04998779297</ele>
        <time>2020-05-14T13:12:23Z</time>
      </trkpt>
      <trkpt lat="43.6553" lon="7.00415">
        <ele>289.79748535156</ele>
        <time>2020-05-14T13:12:24Z</time>
      </trkpt>
      <trkpt lat="43.65538" lon="7.00411">
        <ele>288.66235351562</ele>
        <time>2020-05-14T13:12:25Z</time>
      </trkpt>
      <trkpt lat="43.65543" lon="7.00407">
        <ele>291.98083496094</ele>
        <time>2020-05-14T13:12:26Z</time>
      </trkpt>
      <trkpt lat="43.65549" lon="7.00405">
        <ele>290.69873046875</ele>
        <time>2020-05-14T13:12:27Z</time>
      </trkpt>
      <trkpt lat="43.65554" lon="7.00399">
        <ele>290.70861816406</ele>
        <time>2020-05-14T13:12:28Z</time>
      </trkpt>
      <trkpt lat="43.65562" lon="7.00396">
        <ele>290.85754394531</ele>
        <time>2020-05-14T13:12:29Z</time>
      </trkpt>
      <trkpt lat="43.65569" lon="7.00395">
        <ele>289.73937988281</ele>
        <time>2020-05-14T13:12:30Z</time>
      </trkpt>
      <trkpt lat="43.65576" lon="7.00391">
        <ele>289.1591796875</ele>
        <time>2020-05-14T13:12:31Z</time>
      </trkpt>
      <trkpt lat="43.65583" lon="7.00387">
        <ele>288.71759033203</ele>
        <time>2020-05-14T13:12:32Z</time>
      </trkpt>
      <trkpt lat="43.65589" lon="7.00385">
        <ele>289.24755859375</ele>
        <time>2020-05-14T13:12:33Z</time>
      </trkpt>
      <trkpt lat="43.65596" lon="7.00382">
        <ele>290.05139160156</ele>
        <time>2020-05-14T13:12:34Z</time>
      </trkpt>
      <trkpt lat="43.65603" lon="7.00378">
        <ele>291.01019287109</ele>
        <time>2020-05-14T13:12:35Z</time>
      </trkpt>
      <trkpt lat="43.6561" lon="7.00374">
        <ele>290.94494628906</ele>
        <time>2020-05-14T13:12:36Z</time>
      </trkpt>
      <trkpt lat="43.65614" lon="7.00368">
        <ele>288.73931884766</ele>
        <time>2020-05-14T13:12:37Z</time>
      </trkpt>
      <trkpt lat="43.6562" lon="7.00362">
        <ele>288.21795654297</ele>
        <time>2020-05-14T13:12:38Z</time>
      </trkpt>
      <trkpt lat="43.65622" lon="7.00355">
        <ele>289.88415527344</ele>
        <time>2020-05-14T13:12:39Z</time>
      </trkpt>
      <trkpt lat="43.65626" lon="7.00346">
        <ele>288.52722167969</ele>
        <time>2020-05-14T13:12:40Z</time>
      </trkpt>
      <trkpt lat="43.6563" lon="7.00339">
        <ele>291.11938476562</ele>
        <time>2020-05-14T13:12:41Z</time>
      </trkpt>
      <trkpt lat="43.65632" lon="7.00328">
        <ele>289.93981933594</ele>
        <time>2020-05-14T13:12:42Z</time>
      </trkpt>
      <trkpt lat="43.65634" lon="7.00318">
        <ele>289.6015625</ele>
        <time>2020-05-14T13:12:43Z</time>
      </trkpt>
      <trkpt lat="43.65638" lon="7.00309">
        <ele>289.83044433594</ele>
        <time>2020-05-14T13:12:44Z</time>
      </trkpt>
      <trkpt lat="43.6564" lon="7.00299">
        <ele>289.94763183594</ele>
        <time>2020-05-14T13:12:45Z</time>
      </trkpt>
      <trkpt lat="43.65643" lon="7.00289">
        <ele>289.14514160156</ele>
        <time>2020-05-14T13:12:46Z</time>
      </trkpt>
      <trkpt lat="43.65646" lon="7.0028">
        <ele>288.54840087891</ele>
        <time>2020-05-14T13:12:47Z</time>
      </trkpt>
      <trkpt lat="43.65649" lon="7.00271">
        <ele>289.06591796875</ele>
        <time>2020-05-14T13:12:48Z</time>
      </trkpt>
      <trkpt lat="43.65652" lon="7.00261">
        <ele>288.77526855469</ele>
        <time>2020-05-14T13:12:49Z</time>
      </trkpt>
      <trkpt lat="43.65654" lon="7.00252">
        <ele>288.74291992188</ele>
        <time>2020-05-14T13:12:50Z</time>
      </trkpt>
      <trkpt lat="43.65656" lon="7.00241">
        <ele>287.25402832031</ele>
        <time>2020-05-14T13:12:51Z</time>
      </trkpt>
      <trkpt lat="43.65659" lon="7.00233">
        <ele>286.43542480469</ele>
        <time>2020-05-14T13:12:52Z</time>
      </trkpt>
      <trkpt lat="43.65663" lon="7.00223">
        <ele>286.0888671875</ele>
        <time>2020-05-14T13:12:53Z</time>
      </trkpt>
      <trkpt lat="43.65667" lon="7.00214">
        <ele>286.39196777344</ele>
        <time>2020-05-14T13:12:54Z</time>
      </trkpt>
      <trkpt lat="43.65669" lon="7.00203">
        <ele>285.70941162109</ele>
        <time>2020-05-14T13:12:55Z</time>
      </trkpt>
      <trkpt lat="43.65672" lon="7.00193">
        <ele>286.39367675781</ele>
        <time>2020-05-14T13:12:56Z</time>
      </trkpt>
      <trkpt lat="43.65677" lon="7.00183">
        <ele>286.29754638672</ele>
        <time>2020-05-14T13:12:57Z</time>
      </trkpt>
      <trkpt lat="43.65681" lon="7.00174">
        <ele>286.39416503906</ele>
        <time>2020-05-14T13:12:58Z</time>
      </trkpt>
      <trkpt lat="43.65685" lon="7.00168">
        <ele>286.80700683594</ele>
        <time>2020-05-14T13:12:59Z</time>
      </trkpt>
      <trkpt lat="43.6569" lon="7.0016">
        <ele>286.75714111328</ele>
        <time>2020-05-14T13:13:00Z</time>
      </trkpt>
      <trkpt lat="43.65696" lon="7.00151">
        <ele>286.69567871094</ele>
        <time>2020-05-14T13:13:01Z</time>
      </trkpt>
      <trkpt lat="43.657" lon="7.00143">
        <ele>286.64184570312</ele>
        <time>2020-05-14T13:13:02Z</time>
      </trkpt>
      <trkpt lat="43.65707" lon="7.00136">
        <ele>286.52166748047</ele>
        <time>2020-05-14T13:13:03Z</time>
      </trkpt>
      <trkpt lat="43.65712" lon="7.0013">
        <ele>286.67932128906</ele>
        <time>2020-05-14T13:13:04Z</time>
      </trkpt>
      <trkpt lat="43.65719" lon="7.00123">
        <ele>287.10894775391</ele>
        <time>2020-05-14T13:13:05Z</time>
      </trkpt>
      <trkpt lat="43.65726" lon="7.00119">
        <ele>287.2998046875</ele>
        <time>2020-05-14T13:13:06Z</time>
      </trkpt>
      <trkpt lat="43.65733" lon="7.00115">
        <ele>287.05499267578</ele>
        <time>2020-05-14T13:13:07Z</time>
      </trkpt>
      <trkpt lat="43.65739" lon="7.0011">
        <ele>286.96630859375</ele>
        <time>2020-05-14T13:13:08Z</time>
      </trkpt>
      <trkpt lat="43.65744" lon="7.00104">
        <ele>286.12524414062</ele>
        <time>2020-05-14T13:13:09Z</time>
      </trkpt>
      <trkpt lat="43.65748" lon="7.00096">
        <ele>286.1015625</ele>
        <time>2020-05-14T13:13:10Z</time>
      </trkpt>
      <trkpt lat="43.65753" lon="7.00088">
        <ele>287.54016113281</ele>
        <time>2020-05-14T13:13:11Z</time>
      </trkpt>
      <trkpt lat="43.65756" lon="7.00078">
        <ele>286.30920410156</ele>
        <time>2020-05-14T13:13:12Z</time>
      </trkpt>
      <trkpt lat="43.65758" lon="7.00068">
        <ele>285.49743652344</ele>
        <time>2020-05-14T13:13:13Z</time>
      </trkpt>
      <trkpt lat="43.65761" lon="7.00059">
        <ele>285.19763183594</ele>
        <time>2020-05-14T13:13:14Z</time>
      </trkpt>
      <trkpt lat="43.65765" lon="7.0005">
        <ele>285.03295898438</ele>
        <time>2020-05-14T13:13:15Z</time>
      </trkpt>
      <trkpt lat="43.65769" lon="7.0004">
        <ele>284.50561523438</ele>
        <time>2020-05-14T13:13:16Z</time>
      </trkpt>
      <trkpt lat="43.65771" lon="7.00029">
        <ele>284.64147949219</ele>
        <time>2020-05-14T13:13:17Z</time>
      </trkpt>
      <trkpt lat="43.65773" lon="7.0002">
        <ele>284.74047851562</ele>
        <time>2020-05-14T13:13:18Z</time>
      </trkpt>
      <trkpt lat="43.65774" lon="7.0001">
        <ele>284.93872070312</ele>
        <time>2020-05-14T13:13:19Z</time>
      </trkpt>
      <trkpt lat="43.65775" lon="7">
        <ele>284.74060058594</ele>
        <time>2020-05-14T13:13:20Z</time>
      </trkpt>
      <trkpt lat="43.65775" lon="6.99988">
        <ele>284.49475097656</ele>
        <time>2020-05-14T13:13:21Z</time>
      </trkpt>
      <trkpt lat="43.65775" lon="6.99976">
        <ele>284.93200683594</ele>
        <time>2020-05-14T13:13:22Z</time>
      </trkpt>
      <trkpt lat="43.65775" lon="6.99965">
        <ele>284.68017578125</ele>
        <time>2020-05-14T13:13:23Z</time>
      </trkpt>
      <trkpt lat="43.65776" lon="6.99952">
        <ele>284.86511230469</ele>
        <time>2020-05-14T13:13:24Z</time>
      </trkpt>
      <trkpt lat="43.65777" lon="6.9994">
        <ele>284.66198730469</ele>
        <time>2020-05-14T13:13:25Z</time>
      </trkpt>
      <trkpt lat="43.65778" lon="6.9993">
        <ele>284.65930175781</ele>
        <time>2020-05-14T13:13:26Z</time>
      </trkpt>
      <trkpt lat="43.65778" lon="6.99919">
        <ele>284.685546875</ele>
        <time>2020-05-14T13:13:27Z</time>
      </trkpt>
      <trkpt lat="43.65778" lon="6.9991">
        <ele>284.88842773438</ele>
        <time>2020-05-14T13:13:28Z</time>
      </trkpt>
      <trkpt lat="43.65778" lon="6.99899">
        <ele>285.41375732422</ele>
        <time>2020-05-14T13:13:29Z</time>
      </trkpt>
      <trkpt lat="43.6578" lon="6.9989">
        <ele>285.93481445312</ele>
        <time>2020-05-14T13:13:30Z</time>
      </trkpt>
      <trkpt lat="43.6578" lon="6.9988">
        <ele>285.59741210938</ele>
        <time>2020-05-14T13:13:31Z</time>
      </trkpt>
      <trkpt lat="43.6578" lon="6.9987">
        <ele>285.7001953125</ele>
        <time>2020-05-14T13:13:32Z</time>
      </trkpt>
      <trkpt lat="43.65781" lon="6.99861">
        <ele>286.31298828125</ele>
        <time>2020-05-14T13:13:33Z</time>
      </trkpt>
      <trkpt lat="43.65782" lon="6.99853">
        <ele>286.03643798828</ele>
        <time>2020-05-14T13:13:34Z</time>
      </trkpt>
      <trkpt lat="43.65782" lon="6.99846">
        <ele>285.57543945312</ele>
        <time>2020-05-14T13:13:35Z</time>
      </trkpt>
      <trkpt lat="43.65783" lon="6.99838">
        <ele>285.380859375</ele>
        <time>2020-05-14T13:13:36Z</time>
      </trkpt>
      <trkpt lat="43.65783" lon="6.99829">
        <ele>285.68188476562</ele>
        <time>2020-05-14T13:13:37Z</time>
      </trkpt>
      <trkpt lat="43.65782" lon="6.99822">
        <ele>285.96472167969</ele>
        <time>2020-05-14T13:13:38Z</time>
      </trkpt>
      <trkpt lat="43.65782" lon="6.99815">
        <ele>286.12036132812</ele>
        <time>2020-05-14T13:13:39Z</time>
      </trkpt>
      <trkpt lat="43.65783" lon="6.99807">
        <ele>286.17034912109</ele>
        <time>2020-05-14T13:13:40Z</time>
      </trkpt>
      <trkpt lat="43.65783" lon="6.99799">
        <ele>285.61254882812</ele>
        <time>2020-05-14T13:13:41Z</time>
      </trkpt>
      <trkpt lat="43.65783" lon="6.99791">
        <ele>285.49432373047</ele>
        <time>2020-05-14T13:13:42Z</time>
      </trkpt>
      <trkpt lat="43.65784" lon="6.99783">
        <ele>285.86547851562</ele>
        <time>2020-05-14T13:13:43Z</time>
      </trkpt>
      <trkpt lat="43.65784" lon="6.99775">
        <ele>285.57220458984</ele>
        <time>2020-05-14T13:13:44Z</time>
      </trkpt>
      <trkpt lat="43.65786" lon="6.99767">
        <ele>286.75305175781</ele>
        <time>2020-05-14T13:13:45Z</time>
      </trkpt>
      <trkpt lat="43.65786" lon="6.9976">
        <ele>286.29571533203</ele>
        <time>2020-05-14T13:13:46Z</time>
      </trkpt>
      <trkpt lat="43.65786" lon="6.99753">
        <ele>285.89056396484</ele>
        <time>2020-05-14T13:13:47Z</time>
      </trkpt>
      <trkpt lat="43.65787" lon="6.99747">
        <ele>285.58630371094</ele>
        <time>2020-05-14T13:13:48Z</time>
      </trkpt>
      <trkpt lat="43.65788" lon="6.99739">
        <ele>285.55859375</ele>
        <time>2020-05-14T13:13:49Z</time>
      </trkpt>
      <trkpt lat="43.65789" lon="6.99733">
        <ele>285.14233398438</ele>
        <time>2020-05-14T13:13:50Z</time>
      </trkpt>
      <trkpt lat="43.6579" lon="6.99726">
        <ele>284.72985839844</ele>
        <time>2020-05-14T13:13:51Z</time>
      </trkpt>
      <trkpt lat="43.65791" lon="6.99721">
        <ele>284.72607421875</ele>
        <time>2020-05-14T13:13:52Z</time>
      </trkpt>
      <trkpt lat="43.65792" lon="6.99713">
        <ele>284.5439453125</ele>
        <time>2020-05-14T13:13:53Z</time>
      </trkpt>
      <trkpt lat="43.65794" lon="6.99707">
        <ele>284.4921875</ele>
        <time>2020-05-14T13:13:54Z</time>
      </trkpt>
      <trkpt lat="43.65795" lon="6.997">
        <ele>284.53356933594</ele>
        <time>2020-05-14T13:13:55Z</time>
      </trkpt>
      <trkpt lat="43.65796" lon="6.99693">
        <ele>285.41821289062</ele>
        <time>2020-05-14T13:13:56Z</time>
      </trkpt>
      <trkpt lat="43.65798" lon="6.99686">
        <ele>285.41137695312</ele>
        <time>2020-05-14T13:13:57Z</time>
      </trkpt>
      <trkpt lat="43.65798" lon="6.99679">
        <ele>284.85534667969</ele>
        <time>2020-05-14T13:13:58Z</time>
      </trkpt>
      <trkpt lat="43.65799" lon="6.9967">
        <ele>285.13537597656</ele>
        <time>2020-05-14T13:13:59Z</time>
      </trkpt>
      <trkpt lat="43.65801" lon="6.99662">
        <ele>286.138671875</ele>
        <time>2020-05-14T13:14:00Z</time>
      </trkpt>
      <trkpt lat="43.65803" lon="6.99654">
        <ele>286.31488037109</ele>
        <time>2020-05-14T13:14:01Z</time>
      </trkpt>
      <trkpt lat="43.65806" lon="6.99647">
        <ele>286.1875</ele>
        <time>2020-05-14T13:14:02Z</time>
      </trkpt>
      <trkpt lat="43.65807" lon="6.99638">
        <ele>286.17864990234</ele>
        <time>2020-05-14T13:14:03Z</time>
      </trkpt>
      <trkpt lat="43.65808" lon="6.9963">
        <ele>285.70343017578</ele>
        <time>2020-05-14T13:14:04Z</time>
      </trkpt>
      <trkpt lat="43.6581" lon="6.99621">
        <ele>285.78924560547</ele>
        <time>2020-05-14T13:14:05Z</time>
      </trkpt>
      <trkpt lat="43.65811" lon="6.9961">
        <ele>285.47674560547</ele>
        <time>2020-05-14T13:14:06Z</time>
      </trkpt>
      <trkpt lat="43.65813" lon="6.99601">
        <ele>284.74615478516</ele>
        <time>2020-05-14T13:14:07Z</time>
      </trkpt>
      <trkpt lat="43.65815" lon="6.99592">
        <ele>284.44219970703</ele>
        <time>2020-05-14T13:14:08Z</time>
      </trkpt>
      <trkpt lat="43.65817" lon="6.99583">
        <ele>284.69665527344</ele>
        <time>2020-05-14T13:14:09Z</time>
      </trkpt>
      <trkpt lat="43.65822" lon="6.99575">
        <ele>284.16333007812</ele>
        <time>2020-05-14T13:14:10Z</time>
      </trkpt>
      <trkpt lat="43.65825" lon="6.99568">
        <ele>284.556640625</ele>
        <time>2020-05-14T13:14:11Z</time>
      </trkpt>
      <trkpt lat="43.65829" lon="6.99559">
        <ele>284.73583984375</ele>
        <time>2020-05-14T13:14:12Z</time>
      </trkpt>
      <trkpt lat="43.65832" lon="6.99552">
        <ele>284.16223144531</ele>
        <time>2020-05-14T13:14:13Z</time>
      </trkpt>
      <trkpt lat="43.65831" lon="6.99544">
        <ele>283.64721679688</ele>
        <time>2020-05-14T13:14:14Z</time>
      </trkpt>
      <trkpt lat="43.65831" lon="6.99534">
        <ele>283.93090820312</ele>
        <time>2020-05-14T13:14:15Z</time>
      </trkpt>
      <trkpt lat="43.65832" lon="6.99526">
        <ele>284.18859863281</ele>
        <time>2020-05-14T13:14:16Z</time>
      </trkpt>
      <trkpt lat="43.65833" lon="6.99517">
        <ele>284.51025390625</ele>
        <time>2020-05-14T13:14:17Z</time>
      </trkpt>
      <trkpt lat="43.65835" lon="6.99507">
        <ele>284.47711181641</ele>
        <time>2020-05-14T13:14:18Z</time>
      </trkpt>
      <trkpt lat="43.65836" lon="6.99498">
        <ele>284.58221435547</ele>
        <time>2020-05-14T13:14:19Z</time>
      </trkpt>
      <trkpt lat="43.65837" lon="6.99491">
        <ele>284.60595703125</ele>
        <time>2020-05-14T13:14:20Z</time>
      </trkpt>
      <trkpt lat="43.65839" lon="6.99484">
        <ele>284.83068847656</ele>
        <time>2020-05-14T13:14:21Z</time>
      </trkpt>
      <trkpt lat="43.6584" lon="6.99475">
        <ele>284.75012207031</ele>
        <time>2020-05-14T13:14:22Z</time>
      </trkpt>
      <trkpt lat="43.65842" lon="6.99465">
        <ele>284.32800292969</ele>
        <time>2020-05-14T13:14:23Z</time>
      </trkpt>
      <trkpt lat="43.65844" lon="6.99455">
        <ele>283.95837402344</ele>
        <time>2020-05-14T13:14:24Z</time>
      </trkpt>
      <trkpt lat="43.65845" lon="6.99447">
        <ele>283.71417236328</ele>
        <time>2020-05-14T13:14:25Z</time>
      </trkpt>
      <trkpt lat="43.65847" lon="6.99439">
        <ele>284.03735351562</ele>
        <time>2020-05-14T13:14:26Z</time>
      </trkpt>
      <trkpt lat="43.65847" lon="6.99432">
        <ele>283.22857666016</ele>
        <time>2020-05-14T13:14:27Z</time>
      </trkpt>
      <trkpt lat="43.65849" lon="6.99425">
        <ele>283.24523925781</ele>
        <time>2020-05-14T13:14:28Z</time>
      </trkpt>
      <trkpt lat="43.6585" lon="6.99417">
        <ele>283.27856445312</ele>
        <time>2020-05-14T13:14:29Z</time>
      </trkpt>
      <trkpt lat="43.65849" lon="6.99413">
        <ele>281.95288085938</ele>
        <time>2020-05-14T13:14:30Z</time>
      </trkpt>
      <trkpt lat="43.6585" lon="6.99406">
        <ele>282.19836425781</ele>
        <time>2020-05-14T13:14:31Z</time>
      </trkpt>
      <trkpt lat="43.65851" lon="6.99398">
        <ele>282.72412109375</ele>
        <time>2020-05-14T13:14:32Z</time>
      </trkpt>
      <trkpt lat="43.65853" lon="6.99389">
        <ele>283.36578369141</ele>
        <time>2020-05-14T13:14:33Z</time>
      </trkpt>
      <trkpt lat="43.65854" lon="6.99381">
        <ele>283.30639648438</ele>
        <time>2020-05-14T13:14:34Z</time>
      </trkpt>
      <trkpt lat="43.65857" lon="6.99372">
        <ele>283.92932128906</ele>
        <time>2020-05-14T13:14:35Z</time>
      </trkpt>
      <trkpt lat="43.6586" lon="6.99363">
        <ele>283.96197509766</ele>
        <time>2020-05-14T13:14:36Z</time>
      </trkpt>
      <trkpt lat="43.65862" lon="6.99356">
        <ele>283.97253417969</ele>
        <time>2020-05-14T13:14:37Z</time>
      </trkpt>
      <trkpt lat="43.65865" lon="6.99348">
        <ele>283.70190429688</ele>
        <time>2020-05-14T13:14:38Z</time>
      </trkpt>
      <trkpt lat="43.65869" lon="6.99342">
        <ele>283.19403076172</ele>
        <time>2020-05-14T13:14:39Z</time>
      </trkpt>
      <trkpt lat="43.65873" lon="6.99333">
        <ele>283.45837402344</ele>
        <time>2020-05-14T13:14:40Z</time>
      </trkpt>
      <trkpt lat="43.65877" lon="6.99326">
        <ele>282.87377929688</ele>
        <time>2020-05-14T13:14:41Z</time>
      </trkpt>
      <trkpt lat="43.6588" lon="6.99319">
        <ele>283.86853027344</ele>
        <time>2020-05-14T13:14:42Z</time>
      </trkpt>
      <trkpt lat="43.65883" lon="6.99312">
        <ele>284.85498046875</ele>
        <time>2020-05-14T13:14:43Z</time>
      </trkpt>
      <trkpt lat="43.65887" lon="6.99304">
        <ele>285.37145996094</ele>
        <time>2020-05-14T13:14:44Z</time>
      </trkpt>
      <trkpt lat="43.6589" lon="6.99298">
        <ele>285.5322265625</ele>
        <time>2020-05-14T13:14:45Z</time>
      </trkpt>
      <trkpt lat="43.65894" lon="6.99291">
        <ele>285.97351074219</ele>
        <time>2020-05-14T13:14:46Z</time>
      </trkpt>
      <trkpt lat="43.65899" lon="6.99285">
        <ele>285.76062011719</ele>
        <time>2020-05-14T13:14:47Z</time>
      </trkpt>
      <trkpt lat="43.65903" lon="6.99279">
        <ele>285.77838134766</ele>
        <time>2020-05-14T13:14:48Z</time>
      </trkpt>
      <trkpt lat="43.65907" lon="6.99273">
        <ele>285.93273925781</ele>
        <time>2020-05-14T13:14:49Z</time>
      </trkpt>
      <trkpt lat="43.65912" lon="6.99269">
        <ele>285.61083984375</ele>
        <time>2020-05-14T13:14:50Z</time>
      </trkpt>
      <trkpt lat="43.65916" lon="6.99263">
        <ele>285.82629394531</ele>
        <time>2020-05-14T13:14:51Z</time>
      </trkpt>
      <trkpt lat="43.65919" lon="6.9926">
        <ele>285.39416503906</ele>
        <time>2020-05-14T13:14:52Z</time>
      </trkpt>
      <trkpt lat="43.65923" lon="6.99254">
        <ele>285.34985351562</ele>
        <time>2020-05-14T13:14:53Z</time>
      </trkpt>
      <trkpt lat="43.65926" lon="6.99249">
        <ele>285.71435546875</ele>
        <time>2020-05-14T13:14:54Z</time>
      </trkpt>
      <trkpt lat="43.6593" lon="6.99243">
        <ele>285.45678710938</ele>
        <time>2020-05-14T13:14:55Z</time>
      </trkpt>
      <trkpt lat="43.65934" lon="6.99239">
        <ele>286.07250976562</ele>
        <time>2020-05-14T13:14:56Z</time>
      </trkpt>
      <trkpt lat="43.65938" lon="6.99231">
        <ele>285.3173828125</ele>
        <time>2020-05-14T13:14:57Z</time>
      </trkpt>
      <trkpt lat="43.65941" lon="6.99225">
        <ele>285.87329101562</ele>
        <time>2020-05-14T13:14:58Z</time>
      </trkpt>
      <trkpt lat="43.65946" lon="6.99218">
        <ele>285.93090820312</ele>
        <time>2020-05-14T13:14:59Z</time>
      </trkpt>
      <trkpt lat="43.6595" lon="6.99212">
        <ele>286.48706054688</ele>
        <time>2020-05-14T13:15:00Z</time>
      </trkpt>
      <trkpt lat="43.65955" lon="6.99206">
        <ele>286.46374511719</ele>
        <time>2020-05-14T13:15:01Z</time>
      </trkpt>
      <trkpt lat="43.65958" lon="6.992">
        <ele>287.1689453125</ele>
        <time>2020-05-14T13:15:02Z</time>
      </trkpt>
      <trkpt lat="43.65962" lon="6.99193">
        <ele>287.06726074219</ele>
        <time>2020-05-14T13:15:03Z</time>
      </trkpt>
      <trkpt lat="43.65966" lon="6.99187">
        <ele>286.96105957031</ele>
        <time>2020-05-14T13:15:04Z</time>
      </trkpt>
      <trkpt lat="43.65969" lon="6.99183">
        <ele>287.97393798828</ele>
        <time>2020-05-14T13:15:05Z</time>
      </trkpt>
      <trkpt lat="43.65972" lon="6.99176">
        <ele>288.64172363281</ele>
        <time>2020-05-14T13:15:06Z</time>
      </trkpt>
      <trkpt lat="43.65976" lon="6.99171">
        <ele>289.38684082031</ele>
        <time>2020-05-14T13:15:07Z</time>
      </trkpt>
      <trkpt lat="43.6598" lon="6.99164">
        <ele>289.80554199219</ele>
        <time>2020-05-14T13:15:08Z</time>
      </trkpt>
      <trkpt lat="43.65984" lon="6.9916">
        <ele>289.4697265625</ele>
        <time>2020-05-14T13:15:09Z</time>
      </trkpt>
      <trkpt lat="43.65987" lon="6.99154">
        <ele>289.35021972656</ele>
        <time>2020-05-14T13:15:10Z</time>
      </trkpt>
      <trkpt lat="43.65991" lon="6.9915">
        <ele>289.52490234375</ele>
        <time>2020-05-14T13:15:11Z</time>
      </trkpt>
      <trkpt lat="43.65995" lon="6.99145">
        <ele>289.119140625</ele>
        <time>2020-05-14T13:15:12Z</time>
      </trkpt>
      <trkpt lat="43.65999" lon="6.99139">
        <ele>288.23413085938</ele>
        <time>2020-05-14T13:15:13Z</time>
      </trkpt>
      <trkpt lat="43.66001" lon="6.99132">
        <ele>288.13519287109</ele>
        <time>2020-05-14T13:15:14Z</time>
      </trkpt>
      <trkpt lat="43.66006" lon="6.99127">
        <ele>288.13232421875</ele>
        <time>2020-05-14T13:15:15Z</time>
      </trkpt>
      <trkpt lat="43.6601" lon="6.99121">
        <ele>288.19104003906</ele>
        <time>2020-05-14T13:15:16Z</time>
      </trkpt>
      <trkpt lat="43.66012" lon="6.99114">
        <ele>288.75</ele>
        <time>2020-05-14T13:15:17Z</time>
      </trkpt>
      <trkpt lat="43.66016" lon="6.99107">
        <ele>288.98425292969</ele>
        <time>2020-05-14T13:15:18Z</time>
      </trkpt>
      <trkpt lat="43.6602" lon="6.99103">
        <ele>289.34631347656</ele>
        <time>2020-05-14T13:15:19Z</time>
      </trkpt>
      <trkpt lat="43.66023" lon="6.99097">
        <ele>289.09326171875</ele>
        <time>2020-05-14T13:15:20Z</time>
      </trkpt>
      <trkpt lat="43.66025" lon="6.9909">
        <ele>289.50573730469</ele>
        <time>2020-05-14T13:15:21Z</time>
      </trkpt>
      <trkpt lat="43.66029" lon="6.99084">
        <ele>289.83154296875</ele>
        <time>2020-05-14T13:15:22Z</time>
      </trkpt>
      <trkpt lat="43.66031" lon="6.99076">
        <ele>290.18579101562</ele>
        <time>2020-05-14T13:15:23Z</time>
      </trkpt>
      <trkpt lat="43.66034" lon="6.9907">
        <ele>291.16003417969</ele>
        <time>2020-05-14T13:15:24Z</time>
      </trkpt>
      <trkpt lat="43.66036" lon="6.99062">
        <ele>291.70794677734</ele>
        <time>2020-05-14T13:15:25Z</time>
      </trkpt>
      <trkpt lat="43.66039" lon="6.99055">
        <ele>291.53930664062</ele>
        <time>2020-05-14T13:15:26Z</time>
      </trkpt>
      <trkpt lat="43.66043" lon="6.99048">
        <ele>291.16931152344</ele>
        <time>2020-05-14T13:15:27Z</time>
      </trkpt>
      <trkpt lat="43.66046" lon="6.99039">
        <ele>290.42437744141</ele>
        <time>2020-05-14T13:15:28Z</time>
      </trkpt>
      <trkpt lat="43.66048" lon="6.9903">
        <ele>291.31896972656</ele>
        <time>2020-05-14T13:15:29Z</time>
      </trkpt>
      <trkpt lat="43.6605" lon="6.99023">
        <ele>291.87023925781</ele>
        <time>2020-05-14T13:15:30Z</time>
      </trkpt>
      <trkpt lat="43.66055" lon="6.99017">
        <ele>292.01257324219</ele>
        <time>2020-05-14T13:15:31Z</time>
      </trkpt>
      <trkpt lat="43.66059" lon="6.99009">
        <ele>295.25573730469</ele>
        <time>2020-05-14T13:15:32Z</time>
      </trkpt>
      <trkpt lat="43.6606" lon="6.99002">
        <ele>295.51501464844</ele>
        <time>2020-05-14T13:15:33Z</time>
      </trkpt>
      <trkpt lat="43.66064" lon="6.98993">
        <ele>294.68658447266</ele>
        <time>2020-05-14T13:15:34Z</time>
      </trkpt>
      <trkpt lat="43.66067" lon="6.98986">
        <ele>294.64770507812</ele>
        <time>2020-05-14T13:15:35Z</time>
      </trkpt>
      <trkpt lat="43.6607" lon="6.9898">
        <ele>294.92248535156</ele>
        <time>2020-05-14T13:15:36Z</time>
      </trkpt>
      <trkpt lat="43.66075" lon="6.98971">
        <ele>294.490234375</ele>
        <time>2020-05-14T13:15:37Z</time>
      </trkpt>
      <trkpt lat="43.66077" lon="6.98964">
        <ele>294.53509521484</ele>
        <time>2020-05-14T13:15:38Z</time>
      </trkpt>
      <trkpt lat="43.66079" lon="6.98955">
        <ele>294.736328125</ele>
        <time>2020-05-14T13:15:39Z</time>
      </trkpt>
      <trkpt lat="43.6608" lon="6.98948">
        <ele>294.35717773438</ele>
        <time>2020-05-14T13:15:40Z</time>
      </trkpt>
      <trkpt lat="43.66082" lon="6.98938">
        <ele>294.08618164062</ele>
        <time>2020-05-14T13:15:41Z</time>
      </trkpt>
      <trkpt lat="43.66083" lon="6.9893">
        <ele>293.98980712891</ele>
        <time>2020-05-14T13:15:42Z</time>
      </trkpt>
      <trkpt lat="43.66084" lon="6.9892">
        <ele>293.26098632812</ele>
        <time>2020-05-14T13:15:43Z</time>
      </trkpt>
      <trkpt lat="43.66087" lon="6.98909">
        <ele>293.38439941406</ele>
        <time>2020-05-14T13:15:44Z</time>
      </trkpt>
      <trkpt lat="43.66089" lon="6.989">
        <ele>293.81597900391</ele>
        <time>2020-05-14T13:15:45Z</time>
      </trkpt>
      <trkpt lat="43.6609" lon="6.98892">
        <ele>294.03076171875</ele>
        <time>2020-05-14T13:15:46Z</time>
      </trkpt>
      <trkpt lat="43.66092" lon="6.98884">
        <ele>294.10711669922</ele>
        <time>2020-05-14T13:15:47Z</time>
      </trkpt>
      <trkpt lat="43.66094" lon="6.98875">
        <ele>293.31982421875</ele>
        <time>2020-05-14T13:15:48Z</time>
      </trkpt>
      <trkpt lat="43.66095" lon="6.98866">
        <ele>293.40856933594</ele>
        <time>2020-05-14T13:15:49Z</time>
      </trkpt>
      <trkpt lat="43.66096" lon="6.98859">
        <ele>293.61853027344</ele>
        <time>2020-05-14T13:15:50Z</time>
      </trkpt>
      <trkpt lat="43.66099" lon="6.98849">
        <ele>293.75866699219</ele>
        <time>2020-05-14T13:15:51Z</time>
      </trkpt>
      <trkpt lat="43.66101" lon="6.98841">
        <ele>293.66998291016</ele>
        <time>2020-05-14T13:15:52Z</time>
      </trkpt>
      <trkpt lat="43.66103" lon="6.98834">
        <ele>294.11474609375</ele>
        <time>2020-05-14T13:15:53Z</time>
      </trkpt>
      <trkpt lat="43.66104" lon="6.98825">
        <ele>294.15808105469</ele>
        <time>2020-05-14T13:15:54Z</time>
      </trkpt>
      <trkpt lat="43.66105" lon="6.98818">
        <ele>294.36212158203</ele>
        <time>2020-05-14T13:15:55Z</time>
      </trkpt>
      <trkpt lat="43.66109" lon="6.98807">
        <ele>294.30480957031</ele>
        <time>2020-05-14T13:15:56Z</time>
      </trkpt>
      <trkpt lat="43.66112" lon="6.98799">
        <ele>294.63629150391</ele>
        <time>2020-05-14T13:15:57Z</time>
      </trkpt>
      <trkpt lat="43.66116" lon="6.98793">
        <ele>294.33935546875</ele>
        <time>2020-05-14T13:15:58Z</time>
      </trkpt>
      <trkpt lat="43.66121" lon="6.98788">
        <ele>294.73065185547</ele>
        <time>2020-05-14T13:15:59Z</time>
      </trkpt>
      <trkpt lat="43.66126" lon="6.98786">
        <ele>294.63586425781</ele>
        <time>2020-05-14T13:16:00Z</time>
      </trkpt>
      <trkpt lat="43.66132" lon="6.98782">
        <ele>295.16735839844</ele>
        <time>2020-05-14T13:16:01Z</time>
      </trkpt>
      <trkpt lat="43.66136" lon="6.98776">
        <ele>294.62933349609</ele>
        <time>2020-05-14T13:16:02Z</time>
      </trkpt>
      <trkpt lat="43.6614" lon="6.98769">
        <ele>293.63464355469</ele>
        <time>2020-05-14T13:16:03Z</time>
      </trkpt>
      <trkpt lat="43.66144" lon="6.98763">
        <ele>293.38653564453</ele>
        <time>2020-05-14T13:16:04Z</time>
      </trkpt>
      <trkpt lat="43.6615" lon="6.98759">
        <ele>293.78051757812</ele>
        <time>2020-05-14T13:16:05Z</time>
      </trkpt>
      <trkpt lat="43.66153" lon="6.98756">
        <ele>293.39831542969</ele>
        <time>2020-05-14T13:16:06Z</time>
      </trkpt>
      <trkpt lat="43.66158" lon="6.98752">
        <ele>293.84948730469</ele>
        <time>2020-05-14T13:16:07Z</time>
      </trkpt>
      <trkpt lat="43.66164" lon="6.9875">
        <ele>293.76409912109</ele>
        <time>2020-05-14T13:16:08Z</time>
      </trkpt>
      <trkpt lat="43.6617" lon="6.98747">
        <ele>293.62872314453</ele>
        <time>2020-05-14T13:16:09Z</time>
      </trkpt>
      <trkpt lat="43.66177" lon="6.98745">
        <ele>293.75451660156</ele>
        <time>2020-05-14T13:16:10Z</time>
      </trkpt>
      <trkpt lat="43.66183" lon="6.98744">
        <ele>293.61169433594</ele>
        <time>2020-05-14T13:16:11Z</time>
      </trkpt>
      <trkpt lat="43.6619" lon="6.98742">
        <ele>293.30749511719</ele>
        <time>2020-05-14T13:16:12Z</time>
      </trkpt>
      <trkpt lat="43.66196" lon="6.98741">
        <ele>293.28662109375</ele>
        <time>2020-05-14T13:16:13Z</time>
      </trkpt>
      <trkpt lat="43.66203" lon="6.98738">
        <ele>293.33465576172</ele>
        <time>2020-05-14T13:16:14Z</time>
      </trkpt>
      <trkpt lat="43.6621" lon="6.98734">
        <ele>291.78765869141</ele>
        <time>2020-05-14T13:16:15Z</time>
      </trkpt>
      <trkpt lat="43.66216" lon="6.98733">
        <ele>292.48229980469</ele>
        <time>2020-05-14T13:16:16Z</time>
      </trkpt>
      <trkpt lat="43.66222" lon="6.98731">
        <ele>292.15740966797</ele>
        <time>2020-05-14T13:16:17Z</time>
      </trkpt>
      <trkpt lat="43.66229" lon="6.9873">
        <ele>292.89947509766</ele>
        <time>2020-05-14T13:16:18Z</time>
      </trkpt>
      <trkpt lat="43.66234" lon="6.98728">
        <ele>292.99475097656</ele>
        <time>2020-05-14T13:16:19Z</time>
      </trkpt>
      <trkpt lat="43.6624" lon="6.98725">
        <ele>292.53912353516</ele>
        <time>2020-05-14T13:16:20Z</time>
      </trkpt>
      <trkpt lat="43.66247" lon="6.98723">
        <ele>293.14721679688</ele>
        <time>2020-05-14T13:16:21Z</time>
      </trkpt>
      <trkpt lat="43.66252" lon="6.98721">
        <ele>293.18017578125</ele>
        <time>2020-05-14T13:16:22Z</time>
      </trkpt>
      <trkpt lat="43.66258" lon="6.9872">
        <ele>292.85339355469</ele>
        <time>2020-05-14T13:16:23Z</time>
      </trkpt>
      <trkpt lat="43.66264" lon="6.98718">
        <ele>290.79248046875</ele>
        <time>2020-05-14T13:16:24Z</time>
      </trkpt>
      <trkpt lat="43.6627" lon="6.98715">
        <ele>291.35510253906</ele>
        <time>2020-05-14T13:16:25Z</time>
      </trkpt>
      <trkpt lat="43.66276" lon="6.98712">
        <ele>291.22882080078</ele>
        <time>2020-05-14T13:16:26Z</time>
      </trkpt>
      <trkpt lat="43.6628" lon="6.98709">
        <ele>291.07666015625</ele>
        <time>2020-05-14T13:16:27Z</time>
      </trkpt>
      <trkpt lat="43.66287" lon="6.98705">
        <ele>291.23059082031</ele>
        <time>2020-05-14T13:16:28Z</time>
      </trkpt>
      <trkpt lat="43.66293" lon="6.98702">
        <ele>291.69818115234</ele>
        <time>2020-05-14T13:16:29Z</time>
      </trkpt>
      <trkpt lat="43.66298" lon="6.98698">
        <ele>291.95593261719</ele>
        <time>2020-05-14T13:16:30Z</time>
      </trkpt>
      <trkpt lat="43.66303" lon="6.98694">
        <ele>290.23071289062</ele>
        <time>2020-05-14T13:16:31Z</time>
      </trkpt>
      <trkpt lat="43.66309" lon="6.9869">
        <ele>289.47619628906</ele>
        <time>2020-05-14T13:16:32Z</time>
      </trkpt>
      <trkpt lat="43.66315" lon="6.98687">
        <ele>289.05786132812</ele>
        <time>2020-05-14T13:16:33Z</time>
      </trkpt>
      <trkpt lat="43.6632" lon="6.98682">
        <ele>288.77563476562</ele>
        <time>2020-05-14T13:16:34Z</time>
      </trkpt>
      <trkpt lat="43.66325" lon="6.98678">
        <ele>288.70336914062</ele>
        <time>2020-05-14T13:16:35Z</time>
      </trkpt>
      <trkpt lat="43.6633" lon="6.98673">
        <ele>288.47735595703</ele>
        <time>2020-05-14T13:16:36Z</time>
      </trkpt>
      <trkpt lat="43.66336" lon="6.98669">
        <ele>288.60620117188</ele>
        <time>2020-05-14T13:16:37Z</time>
      </trkpt>
      <trkpt lat="43.66341" lon="6.98665">
        <ele>289.28930664062</ele>
        <time>2020-05-14T13:16:38Z</time>
      </trkpt>
      <trkpt lat="43.66346" lon="6.98662">
        <ele>289.22412109375</ele>
        <time>2020-05-14T13:16:39Z</time>
      </trkpt>
      <trkpt lat="43.66352" lon="6.98658">
        <ele>289.12084960938</ele>
        <time>2020-05-14T13:16:40Z</time>
      </trkpt>
      <trkpt lat="43.66357" lon="6.98654">
        <ele>289.73449707031</ele>
        <time>2020-05-14T13:16:41Z</time>
      </trkpt>
      <trkpt lat="43.66362" lon="6.98652">
        <ele>289.86352539062</ele>
        <time>2020-05-14T13:16:42Z</time>
      </trkpt>
      <trkpt lat="43.66369" lon="6.98649">
        <ele>289.96508789062</ele>
        <time>2020-05-14T13:16:43Z</time>
      </trkpt>
      <trkpt lat="43.66375" lon="6.98647">
        <ele>290.47064208984</ele>
        <time>2020-05-14T13:16:44Z</time>
      </trkpt>
      <trkpt lat="43.66381" lon="6.98645">
        <ele>290.66851806641</ele>
        <time>2020-05-14T13:16:45Z</time>
      </trkpt>
      <trkpt lat="43.66386" lon="6.98643">
        <ele>294.08410644531</ele>
        <time>2020-05-14T13:16:46Z</time>
      </trkpt>
      <trkpt lat="43.66393" lon="6.98644">
        <ele>293.08569335938</ele>
        <time>2020-05-14T13:16:47Z</time>
      </trkpt>
      <trkpt lat="43.66399" lon="6.98644">
        <ele>292.56066894531</ele>
        <time>2020-05-14T13:16:48Z</time>
      </trkpt>
      <trkpt lat="43.66404" lon="6.98642">
        <ele>293.28942871094</ele>
        <time>2020-05-14T13:16:49Z</time>
      </trkpt>
      <trkpt lat="43.66409" lon="6.98642">
        <ele>292.89495849609</ele>
        <time>2020-05-14T13:16:50Z</time>
      </trkpt>
      <trkpt lat="43.66415" lon="6.9864">
        <ele>293.10260009766</ele>
        <time>2020-05-14T13:16:51Z</time>
      </trkpt>
      <trkpt lat="43.6642" lon="6.98637">
        <ele>293.09527587891</ele>
        <time>2020-05-14T13:16:52Z</time>
      </trkpt>
      <trkpt lat="43.66425" lon="6.98635">
        <ele>293.40295410156</ele>
        <time>2020-05-14T13:16:53Z</time>
      </trkpt>
      <trkpt lat="43.66431" lon="6.98633">
        <ele>293.23944091797</ele>
        <time>2020-05-14T13:16:54Z</time>
      </trkpt>
      <trkpt lat="43.66436" lon="6.98631">
        <ele>290.10571289062</ele>
        <time>2020-05-14T13:16:55Z</time>
      </trkpt>
      <trkpt lat="43.66442" lon="6.98629">
        <ele>290.27673339844</ele>
        <time>2020-05-14T13:16:56Z</time>
      </trkpt>
      <trkpt lat="43.66448" lon="6.98627">
        <ele>290.33752441406</ele>
        <time>2020-05-14T13:16:57Z</time>
      </trkpt>
      <trkpt lat="43.66454" lon="6.98624">
        <ele>290.91882324219</ele>
        <time>2020-05-14T13:16:58Z</time>
      </trkpt>
      <trkpt lat="43.66458" lon="6.98621">
        <ele>290.78784179688</ele>
        <time>2020-05-14T13:16:59Z</time>
      </trkpt>
      <trkpt lat="43.66463" lon="6.98618">
        <ele>291.49865722656</ele>
        <time>2020-05-14T13:17:00Z</time>
      </trkpt>
      <trkpt lat="43.66469" lon="6.98615">
        <ele>291.17736816406</ele>
        <time>2020-05-14T13:17:01Z</time>
      </trkpt>
      <trkpt lat="43.66474" lon="6.98612">
        <ele>291.01489257812</ele>
        <time>2020-05-14T13:17:02Z</time>
      </trkpt>
      <trkpt lat="43.66479" lon="6.98608">
        <ele>290.84362792969</ele>
        <time>2020-05-14T13:17:03Z</time>
      </trkpt>
      <trkpt lat="43.66483" lon="6.98604">
        <ele>290.99664306641</ele>
        <time>2020-05-14T13:17:04Z</time>
      </trkpt>
      <trkpt lat="43.66487" lon="6.98601">
        <ele>291.19970703125</ele>
        <time>2020-05-14T13:17:05Z</time>
      </trkpt>
      <trkpt lat="43.66492" lon="6.98598">
        <ele>291.17370605469</ele>
        <time>2020-05-14T13:17:06Z</time>
      </trkpt>
      <trkpt lat="43.66496" lon="6.98594">
        <ele>291.35369873047</ele>
        <time>2020-05-14T13:17:07Z</time>
      </trkpt>
      <trkpt lat="43.66501" lon="6.98591">
        <ele>291.67254638672</ele>
        <time>2020-05-14T13:17:08Z</time>
      </trkpt>
      <trkpt lat="43.66505" lon="6.98588">
        <ele>291.87420654297</ele>
        <time>2020-05-14T13:17:09Z</time>
      </trkpt>
      <trkpt lat="43.6651" lon="6.98584">
        <ele>292.01452636719</ele>
        <time>2020-05-14T13:17:10Z</time>
      </trkpt>
      <trkpt lat="43.66514" lon="6.98581">
        <ele>291.73046875</ele>
        <time>2020-05-14T13:17:11Z</time>
      </trkpt>
      <trkpt lat="43.66519" lon="6.98577">
        <ele>292.79052734375</ele>
        <time>2020-05-14T13:17:12Z</time>
      </trkpt>
      <trkpt lat="43.66524" lon="6.98574">
        <ele>292.76153564453</ele>
        <time>2020-05-14T13:17:13Z</time>
      </trkpt>
      <trkpt lat="43.66529" lon="6.98571">
        <ele>295.34851074219</ele>
        <time>2020-05-14T13:17:14Z</time>
      </trkpt>
      <trkpt lat="43.66533" lon="6.98568">
        <ele>295.00988769531</ele>
        <time>2020-05-14T13:17:15Z</time>
      </trkpt>
      <trkpt lat="43.66538" lon="6.98564">
        <ele>295.19555664062</ele>
        <time>2020-05-14T13:17:16Z</time>
      </trkpt>
      <trkpt lat="43.66544" lon="6.9856">
        <ele>295.12805175781</ele>
        <time>2020-05-14T13:17:17Z</time>
      </trkpt>
      <trkpt lat="43.66548" lon="6.98556">
        <ele>294.97009277344</ele>
        <time>2020-05-14T13:17:18Z</time>
      </trkpt>
      <trkpt lat="43.66554" lon="6.98551">
        <ele>294.833984375</ele>
        <time>2020-05-14T13:17:19Z</time>
      </trkpt>
      <trkpt lat="43.66559" lon="6.98548">
        <ele>295.05346679688</ele>
        <time>2020-05-14T13:17:20Z</time>
      </trkpt>
      <trkpt lat="43.66564" lon="6.98543">
        <ele>295.26000976562</ele>
        <time>2020-05-14T13:17:21Z</time>
      </trkpt>
      <trkpt lat="43.66569" lon="6.98543">
        <ele>295.12982177734</ele>
        <time>2020-05-14T13:17:22Z</time>
      </trkpt>
      <trkpt lat="43.66574" lon="6.98541">
        <ele>295.02282714844</ele>
        <time>2020-05-14T13:17:23Z</time>
      </trkpt>
      <trkpt lat="43.66579" lon="6.98537">
        <ele>295.3525390625</ele>
        <time>2020-05-14T13:17:24Z</time>
      </trkpt>
      <trkpt lat="43.66584" lon="6.98533">
        <ele>294.71893310547</ele>
        <time>2020-05-14T13:17:25Z</time>
      </trkpt>
      <trkpt lat="43.66589" lon="6.98532">
        <ele>294.71832275391</ele>
        <time>2020-05-14T13:17:26Z</time>
      </trkpt>
      <trkpt lat="43.66593" lon="6.98529">
        <ele>291.68176269531</ele>
        <time>2020-05-14T13:17:27Z</time>
      </trkpt>
      <trkpt lat="43.66596" lon="6.98525">
        <ele>292.14624023438</ele>
        <time>2020-05-14T13:17:28Z</time>
      </trkpt>
      <trkpt lat="43.66601" lon="6.98522">
        <ele>292.71936035156</ele>
        <time>2020-05-14T13:17:29Z</time>
      </trkpt>
      <trkpt lat="43.66607" lon="6.98521">
        <ele>292.03588867188</ele>
        <time>2020-05-14T13:17:30Z</time>
      </trkpt>
      <trkpt lat="43.66613" lon="6.98516">
        <ele>292.16485595703</ele>
        <time>2020-05-14T13:17:31Z</time>
      </trkpt>
      <trkpt lat="43.66618" lon="6.98511">
        <ele>291.99249267578</ele>
        <time>2020-05-14T13:17:32Z</time>
      </trkpt>
      <trkpt lat="43.66622" lon="6.98509">
        <ele>292.23504638672</ele>
        <time>2020-05-14T13:17:33Z</time>
      </trkpt>
      <trkpt lat="43.66626" lon="6.98504">
        <ele>292.86633300781</ele>
        <time>2020-05-14T13:17:34Z</time>
      </trkpt>
      <trkpt lat="43.66631" lon="6.985">
        <ele>292.93957519531</ele>
        <time>2020-05-14T13:17:35Z</time>
      </trkpt>
      <trkpt lat="43.66634" lon="6.98496">
        <ele>292.6279296875</ele>
        <time>2020-05-14T13:17:36Z</time>
      </trkpt>
      <trkpt lat="43.66638" lon="6.98493">
        <ele>293.42510986328</ele>
        <time>2020-05-14T13:17:37Z</time>
      </trkpt>
      <trkpt lat="43.66643" lon="6.98491">
        <ele>293.20581054688</ele>
        <time>2020-05-14T13:17:38Z</time>
      </trkpt>
      <trkpt lat="43.66648" lon="6.98488">
        <ele>293.50396728516</ele>
        <time>2020-05-14T13:17:39Z</time>
      </trkpt>
      <trkpt lat="43.66651" lon="6.98485">
        <ele>294.33374023438</ele>
        <time>2020-05-14T13:17:40Z</time>
      </trkpt>
      <trkpt lat="43.66655" lon="6.98482">
        <ele>294.77587890625</ele>
        <time>2020-05-14T13:17:41Z</time>
      </trkpt>
      <trkpt lat="43.66659" lon="6.9848">
        <ele>294.73547363281</ele>
        <time>2020-05-14T13:17:42Z</time>
      </trkpt>
      <trkpt lat="43.66663" lon="6.98478">
        <ele>294.01501464844</ele>
        <time>2020-05-14T13:17:43Z</time>
      </trkpt>
      <trkpt lat="43.66668" lon="6.98476">
        <ele>293.29791259766</ele>
        <time>2020-05-14T13:17:44Z</time>
      </trkpt>
      <trkpt lat="43.66673" lon="6.98474">
        <ele>293.42736816406</ele>
        <time>2020-05-14T13:17:45Z</time>
      </trkpt>
      <trkpt lat="43.66678" lon="6.98471">
        <ele>293.91815185547</ele>
        <time>2020-05-14T13:17:46Z</time>
      </trkpt>
      <trkpt lat="43.66683" lon="6.98467">
        <ele>294.04034423828</ele>
        <time>2020-05-14T13:17:47Z</time>
      </trkpt>
      <trkpt lat="43.66689" lon="6.98465">
        <ele>294.9892578125</ele>
        <time>2020-05-14T13:17:48Z</time>
      </trkpt>
      <trkpt lat="43.66693" lon="6.98465">
        <ele>295.14715576172</ele>
        <time>2020-05-14T13:17:49Z</time>
      </trkpt>
      <trkpt lat="43.66699" lon="6.98465">
        <ele>295.15582275391</ele>
        <time>2020-05-14T13:17:50Z</time>
      </trkpt>
      <trkpt lat="43.66704" lon="6.98465">
        <ele>295.24743652344</ele>
        <time>2020-05-14T13:17:51Z</time>
      </trkpt>
      <trkpt lat="43.66709" lon="6.98465">
        <ele>295.86676025391</ele>
        <time>2020-05-14T13:17:52Z</time>
      </trkpt>
      <trkpt lat="43.66713" lon="6.98464">
        <ele>296.984375</ele>
        <time>2020-05-14T13:17:53Z</time>
      </trkpt>
      <trkpt lat="43.66719" lon="6.98464">
        <ele>296.87152099609</ele>
        <time>2020-05-14T13:17:54Z</time>
      </trkpt>
      <trkpt lat="43.66723" lon="6.98466">
        <ele>295.88104248047</ele>
        <time>2020-05-14T13:17:55Z</time>
      </trkpt>
      <trkpt lat="43.66728" lon="6.98465">
        <ele>295.79943847656</ele>
        <time>2020-05-14T13:17:56Z</time>
      </trkpt>
      <trkpt lat="43.66733" lon="6.98467">
        <ele>297.72021484375</ele>
        <time>2020-05-14T13:17:57Z</time>
      </trkpt>
      <trkpt lat="43.66737" lon="6.98469">
        <ele>297.10314941406</ele>
        <time>2020-05-14T13:17:58Z</time>
      </trkpt>
      <trkpt lat="43.66742" lon="6.98471">
        <ele>297.84967041016</ele>
        <time>2020-05-14T13:17:59Z</time>
      </trkpt>
      <trkpt lat="43.66746" lon="6.9847">
        <ele>298.18920898438</ele>
        <time>2020-05-14T13:18:00Z</time>
      </trkpt>
      <trkpt lat="43.6675" lon="6.98469">
        <ele>299.29583740234</ele>
        <time>2020-05-14T13:18:01Z</time>
      </trkpt>
      <trkpt lat="43.66755" lon="6.9847">
        <ele>298.34692382812</ele>
        <time>2020-05-14T13:18:02Z</time>
      </trkpt>
      <trkpt lat="43.66758" lon="6.9847">
        <ele>298.94274902344</ele>
        <time>2020-05-14T13:18:03Z</time>
      </trkpt>
      <trkpt lat="43.66762" lon="6.9847">
        <ele>298.10955810547</ele>
        <time>2020-05-14T13:18:04Z</time>
      </trkpt>
      <trkpt lat="43.66766" lon="6.98472">
        <ele>298.03955078125</ele>
        <time>2020-05-14T13:18:05Z</time>
      </trkpt>
      <trkpt lat="43.6677" lon="6.98471">
        <ele>297.67779541016</ele>
        <time>2020-05-14T13:18:06Z</time>
      </trkpt>
      <trkpt lat="43.66774" lon="6.98471">
        <ele>297.291015625</ele>
        <time>2020-05-14T13:18:07Z</time>
      </trkpt>
      <trkpt lat="43.66778" lon="6.98471">
        <ele>297.43383789062</ele>
        <time>2020-05-14T13:18:08Z</time>
      </trkpt>
      <trkpt lat="43.66782" lon="6.98472">
        <ele>298.55944824219</ele>
        <time>2020-05-14T13:18:09Z</time>
      </trkpt>
      <trkpt lat="43.66785" lon="6.98472">
        <ele>297.32250976562</ele>
        <time>2020-05-14T13:18:10Z</time>
      </trkpt>
      <trkpt lat="43.66788" lon="6.98475">
        <ele>297.16784667969</ele>
        <time>2020-05-14T13:18:11Z</time>
      </trkpt>
      <trkpt lat="43.66792" lon="6.98478">
        <ele>297.20080566406</ele>
        <time>2020-05-14T13:18:12Z</time>
      </trkpt>
      <trkpt lat="43.66795" lon="6.98482">
        <ele>297.19873046875</ele>
        <time>2020-05-14T13:18:13Z</time>
      </trkpt>
      <trkpt lat="43.66798" lon="6.98486">
        <ele>296.84704589844</ele>
        <time>2020-05-14T13:18:14Z</time>
      </trkpt>
      <trkpt lat="43.66802" lon="6.98489">
        <ele>298.22137451172</ele>
        <time>2020-05-14T13:18:15Z</time>
      </trkpt>
      <trkpt lat="43.66806" lon="6.98492">
        <ele>298.63037109375</ele>
        <time>2020-05-14T13:18:16Z</time>
      </trkpt>
      <trkpt lat="43.6681" lon="6.98493">
        <ele>297.47351074219</ele>
        <time>2020-05-14T13:18:17Z</time>
      </trkpt>
      <trkpt lat="43.66814" lon="6.98493">
        <ele>297.32781982422</ele>
        <time>2020-05-14T13:18:18Z</time>
      </trkpt>
      <trkpt lat="43.66818" lon="6.98491">
        <ele>298.82135009766</ele>
        <time>2020-05-14T13:18:19Z</time>
      </trkpt>
      <trkpt lat="43.66822" lon="6.98486">
        <ele>298.40344238281</ele>
        <time>2020-05-14T13:18:20Z</time>
      </trkpt>
      <trkpt lat="43.66826" lon="6.98483">
        <ele>298.47045898438</ele>
        <time>2020-05-14T13:18:21Z</time>
      </trkpt>
      <trkpt lat="43.6683" lon="6.98479">
        <ele>298.14135742188</ele>
        <time>2020-05-14T13:18:22Z</time>
      </trkpt>
      <trkpt lat="43.66833" lon="6.98474">
        <ele>298.76177978516</ele>
        <time>2020-05-14T13:18:23Z</time>
      </trkpt>
      <trkpt lat="43.66835" lon="6.9847">
        <ele>298.69946289062</ele>
        <time>2020-05-14T13:18:24Z</time>
      </trkpt>
      <trkpt lat="43.66839" lon="6.98467">
        <ele>298.26812744141</ele>
        <time>2020-05-14T13:18:25Z</time>
      </trkpt>
      <trkpt lat="43.66843" lon="6.98465">
        <ele>298.27685546875</ele>
        <time>2020-05-14T13:18:26Z</time>
      </trkpt>
      <trkpt lat="43.66846" lon="6.98463">
        <ele>298.36108398438</ele>
        <time>2020-05-14T13:18:27Z</time>
      </trkpt>
      <trkpt lat="43.66849" lon="6.98461">
        <ele>298.75921630859</ele>
        <time>2020-05-14T13:18:28Z</time>
      </trkpt>
      <trkpt lat="43.66854" lon="6.9846">
        <ele>298.86614990234</ele>
        <time>2020-05-14T13:18:29Z</time>
      </trkpt>
      <trkpt lat="43.66857" lon="6.98459">
        <ele>298.87493896484</ele>
        <time>2020-05-14T13:18:30Z</time>
      </trkpt>
      <trkpt lat="43.66861" lon="6.98459">
        <ele>298.73486328125</ele>
        <time>2020-05-14T13:18:31Z</time>
      </trkpt>
      <trkpt lat="43.66865" lon="6.98458">
        <ele>299.04370117188</ele>
        <time>2020-05-14T13:18:32Z</time>
      </trkpt>
      <trkpt lat="43.66869" lon="6.98456">
        <ele>299.48876953125</ele>
        <time>2020-05-14T13:18:33Z</time>
      </trkpt>
      <trkpt lat="43.66873" lon="6.98456">
        <ele>299.11608886719</ele>
        <time>2020-05-14T13:18:34Z</time>
      </trkpt>
      <trkpt lat="43.66877" lon="6.98455">
        <ele>300.42041015625</ele>
        <time>2020-05-14T13:18:35Z</time>
      </trkpt>
      <trkpt lat="43.66882" lon="6.98454">
        <ele>300.28942871094</ele>
        <time>2020-05-14T13:18:36Z</time>
      </trkpt>
      <trkpt lat="43.66886" lon="6.98453">
        <ele>300.64038085938</ele>
        <time>2020-05-14T13:18:37Z</time>
      </trkpt>
      <trkpt lat="43.66889" lon="6.98452">
        <ele>299.83020019531</ele>
        <time>2020-05-14T13:18:38Z</time>
      </trkpt>
      <trkpt lat="43.66893" lon="6.98451">
        <ele>299.97668457031</ele>
        <time>2020-05-14T13:18:39Z</time>
      </trkpt>
      <trkpt lat="43.66896" lon="6.9845">
        <ele>299.94836425781</ele>
        <time>2020-05-14T13:18:40Z</time>
      </trkpt>
      <trkpt lat="43.66899" lon="6.98448">
        <ele>299.88977050781</ele>
        <time>2020-05-14T13:18:41Z</time>
      </trkpt>
      <trkpt lat="43.66903" lon="6.98447">
        <ele>301.904296875</ele>
        <time>2020-05-14T13:18:42Z</time>
      </trkpt>
      <trkpt lat="43.66906" lon="6.98446">
        <ele>301.44055175781</ele>
        <time>2020-05-14T13:18:43Z</time>
      </trkpt>
      <trkpt lat="43.6691" lon="6.98445">
        <ele>301.66955566406</ele>
        <time>2020-05-14T13:18:44Z</time>
      </trkpt>
      <trkpt lat="43.66914" lon="6.98444">
        <ele>301.51647949219</ele>
        <time>2020-05-14T13:18:45Z</time>
      </trkpt>
      <trkpt lat="43.66919" lon="6.98443">
        <ele>301.93328857422</ele>
        <time>2020-05-14T13:18:46Z</time>
      </trkpt>
      <trkpt lat="43.66923" lon="6.98442">
        <ele>302.88812255859</ele>
        <time>2020-05-14T13:18:47Z</time>
      </trkpt>
      <trkpt lat="43.66926" lon="6.98441">
        <ele>301.70343017578</ele>
        <time>2020-05-14T13:18:48Z</time>
      </trkpt>
      <trkpt lat="43.6693" lon="6.9844">
        <ele>302.18487548828</ele>
        <time>2020-05-14T13:18:49Z</time>
      </trkpt>
      <trkpt lat="43.66934" lon="6.9844">
        <ele>301.76513671875</ele>
        <time>2020-05-14T13:18:50Z</time>
      </trkpt>
      <trkpt lat="43.66938" lon="6.98439">
        <ele>301.81964111328</ele>
        <time>2020-05-14T13:18:51Z</time>
      </trkpt>
      <trkpt lat="43.66941" lon="6.98439">
        <ele>301.51617431641</ele>
        <time>2020-05-14T13:18:52Z</time>
      </trkpt>
      <trkpt lat="43.66945" lon="6.98437">
        <ele>301.7607421875</ele>
        <time>2020-05-14T13:18:53Z</time>
      </trkpt>
      <trkpt lat="43.66949" lon="6.98436">
        <ele>304.48431396484</ele>
        <time>2020-05-14T13:18:54Z</time>
      </trkpt>
      <trkpt lat="43.66952" lon="6.98434">
        <ele>304.68786621094</ele>
        <time>2020-05-14T13:18:55Z</time>
      </trkpt>
      <trkpt lat="43.66955" lon="6.98432">
        <ele>304.95446777344</ele>
        <time>2020-05-14T13:18:56Z</time>
      </trkpt>
      <trkpt lat="43.66959" lon="6.9843">
        <ele>307.16467285156</ele>
        <time>2020-05-14T13:18:57Z</time>
      </trkpt>
      <trkpt lat="43.66962" lon="6.98428">
        <ele>306.44409179688</ele>
        <time>2020-05-14T13:18:58Z</time>
      </trkpt>
      <trkpt lat="43.66965" lon="6.98425">
        <ele>306.88580322266</ele>
        <time>2020-05-14T13:18:59Z</time>
      </trkpt>
      <trkpt lat="43.66968" lon="6.98422">
        <ele>306.83618164062</ele>
        <time>2020-05-14T13:19:00Z</time>
      </trkpt>
      <trkpt lat="43.6697" lon="6.98419">
        <ele>308.35400390625</ele>
        <time>2020-05-14T13:19:01Z</time>
      </trkpt>
      <trkpt lat="43.66971" lon="6.98415">
        <ele>308.88775634766</ele>
        <time>2020-05-14T13:19:02Z</time>
      </trkpt>
      <trkpt lat="43.66973" lon="6.98412">
        <ele>309.16741943359</ele>
        <time>2020-05-14T13:19:03Z</time>
      </trkpt>
      <trkpt lat="43.66977" lon="6.98409">
        <ele>308.94226074219</ele>
        <time>2020-05-14T13:19:04Z</time>
      </trkpt>
      <trkpt lat="43.6698" lon="6.98405">
        <ele>309.17907714844</ele>
        <time>2020-05-14T13:19:05Z</time>
      </trkpt>
      <trkpt lat="43.66984" lon="6.98401">
        <ele>308.65142822266</ele>
        <time>2020-05-14T13:19:06Z</time>
      </trkpt>
      <trkpt lat="43.66987" lon="6.98397">
        <ele>308.02648925781</ele>
        <time>2020-05-14T13:19:07Z</time>
      </trkpt>
      <trkpt lat="43.6699" lon="6.98395">
        <ele>307.5849609375</ele>
        <time>2020-05-14T13:19:08Z</time>
      </trkpt>
      <trkpt lat="43.66994" lon="6.98392">
        <ele>307.40924072266</ele>
        <time>2020-05-14T13:19:09Z</time>
      </trkpt>
      <trkpt lat="43.66998" lon="6.9839">
        <ele>307.68005371094</ele>
        <time>2020-05-14T13:19:10Z</time>
      </trkpt>
      <trkpt lat="43.67002" lon="6.98387">
        <ele>307.82092285156</ele>
        <time>2020-05-14T13:19:11Z</time>
      </trkpt>
      <trkpt lat="43.67005" lon="6.98384">
        <ele>307.98559570312</ele>
        <time>2020-05-14T13:19:12Z</time>
      </trkpt>
      <trkpt lat="43.67009" lon="6.98382">
        <ele>308.45190429688</ele>
        <time>2020-05-14T13:19:13Z</time>
      </trkpt>
      <trkpt lat="43.67012" lon="6.9838">
        <ele>308.59002685547</ele>
        <time>2020-05-14T13:19:14Z</time>
      </trkpt>
      <trkpt lat="43.67016" lon="6.98378">
        <ele>308.67126464844</ele>
        <time>2020-05-14T13:19:15Z</time>
      </trkpt>
      <trkpt lat="43.67019" lon="6.98377">
        <ele>308.673828125</ele>
        <time>2020-05-14T13:19:16Z</time>
      </trkpt>
      <trkpt lat="43.67022" lon="6.98375">
        <ele>308.73474121094</ele>
        <time>2020-05-14T13:19:17Z</time>
      </trkpt>
      <trkpt lat="43.67024" lon="6.98374">
        <ele>309.00970458984</ele>
        <time>2020-05-14T13:19:18Z</time>
      </trkpt>
      <trkpt lat="43.67027" lon="6.98372">
        <ele>309.3671875</ele>
        <time>2020-05-14T13:19:19Z</time>
      </trkpt>
      <trkpt lat="43.6703" lon="6.98371">
        <ele>308.97418212891</ele>
        <time>2020-05-14T13:19:20Z</time>
      </trkpt>
      <trkpt lat="43.67032" lon="6.9837">
        <ele>309.04479980469</ele>
        <time>2020-05-14T13:19:21Z</time>
      </trkpt>
      <trkpt lat="43.67035" lon="6.98368">
        <ele>308.93017578125</ele>
        <time>2020-05-14T13:19:22Z</time>
      </trkpt>
      <trkpt lat="43.67037" lon="6.98367">
        <ele>308.99560546875</ele>
        <time>2020-05-14T13:19:23Z</time>
      </trkpt>
      <trkpt lat="43.6704" lon="6.98366">
        <ele>309.16259765625</ele>
        <time>2020-05-14T13:19:24Z</time>
      </trkpt>
      <trkpt lat="43.67043" lon="6.98365">
        <ele>309.41302490234</ele>
        <time>2020-05-14T13:19:25Z</time>
      </trkpt>
      <trkpt lat="43.67046" lon="6.98363">
        <ele>309.40161132812</ele>
        <time>2020-05-14T13:19:26Z</time>
      </trkpt>
      <trkpt lat="43.67048" lon="6.98362">
        <ele>309.279296875</ele>
        <time>2020-05-14T13:19:27Z</time>
      </trkpt>
      <trkpt lat="43.6705" lon="6.98361">
        <ele>309.18865966797</ele>
        <time>2020-05-14T13:19:28Z</time>
      </trkpt>
      <trkpt lat="43.67053" lon="6.9836">
        <ele>309.630859375</ele>
        <time>2020-05-14T13:19:29Z</time>
      </trkpt>
      <trkpt lat="43.67056" lon="6.98359">
        <ele>310.01177978516</ele>
        <time>2020-05-14T13:19:30Z</time>
      </trkpt>
      <trkpt lat="43.67058" lon="6.98358">
        <ele>310.66650390625</ele>
        <time>2020-05-14T13:19:31Z</time>
      </trkpt>
      <trkpt lat="43.6706" lon="6.98357">
        <ele>311.18298339844</ele>
        <time>2020-05-14T13:19:32Z</time>
      </trkpt>
      <trkpt lat="43.67062" lon="6.98355">
        <ele>310.98095703125</ele>
        <time>2020-05-14T13:19:33Z</time>
      </trkpt>
      <trkpt lat="43.67065" lon="6.98354">
        <ele>311.169921875</ele>
        <time>2020-05-14T13:19:34Z</time>
      </trkpt>
      <trkpt lat="43.67067" lon="6.98354">
        <ele>311.48657226562</ele>
        <time>2020-05-14T13:19:35Z</time>
      </trkpt>
      <trkpt lat="43.67069" lon="6.98353">
        <ele>311.73150634766</ele>
        <time>2020-05-14T13:19:36Z</time>
      </trkpt>
      <trkpt lat="43.67071" lon="6.98352">
        <ele>311.55413818359</ele>
        <time>2020-05-14T13:19:37Z</time>
      </trkpt>
      <trkpt lat="43.67074" lon="6.98351">
        <ele>311.52294921875</ele>
        <time>2020-05-14T13:19:38Z</time>
      </trkpt>
      <trkpt lat="43.67076" lon="6.9835">
        <ele>311.62457275391</ele>
        <time>2020-05-14T13:19:39Z</time>
      </trkpt>
      <trkpt lat="43.67078" lon="6.98349">
        <ele>312.03503417969</ele>
        <time>2020-05-14T13:19:40Z</time>
      </trkpt>
      <trkpt lat="43.6708" lon="6.98348">
        <ele>312.01428222656</ele>
        <time>2020-05-14T13:19:41Z</time>
      </trkpt>
      <trkpt lat="43.67082" lon="6.98346">
        <ele>312.26293945312</ele>
        <time>2020-05-14T13:19:42Z</time>
      </trkpt>
      <trkpt lat="43.67084" lon="6.98344">
        <ele>312.59313964844</ele>
        <time>2020-05-14T13:19:43Z</time>
      </trkpt>
      <trkpt lat="43.67086" lon="6.98343">
        <ele>315.63861083984</ele>
        <time>2020-05-14T13:19:44Z</time>
      </trkpt>
      <trkpt lat="43.67089" lon="6.98341">
        <ele>314.46533203125</ele>
        <time>2020-05-14T13:19:45Z</time>
      </trkpt>
      <trkpt lat="43.6709" lon="6.9834">
        <ele>314.25390625</ele>
        <time>2020-05-14T13:19:46Z</time>
      </trkpt>
      <trkpt lat="43.67093" lon="6.98339">
        <ele>314.89056396484</ele>
        <time>2020-05-14T13:19:47Z</time>
      </trkpt>
      <trkpt lat="43.67095" lon="6.98337">
        <ele>313.51281738281</ele>
        <time>2020-05-14T13:19:48Z</time>
      </trkpt>
      <trkpt lat="43.67097" lon="6.98336">
        <ele>313.49865722656</ele>
        <time>2020-05-14T13:19:49Z</time>
      </trkpt>
      <trkpt lat="43.67099" lon="6.98335">
        <ele>314.24102783203</ele>
        <time>2020-05-14T13:19:50Z</time>
      </trkpt>
      <trkpt lat="43.67102" lon="6.98334">
        <ele>313.77185058594</ele>
        <time>2020-05-14T13:19:51Z</time>
      </trkpt>
      <trkpt lat="43.67104" lon="6.98333">
        <ele>314.72412109375</ele>
        <time>2020-05-14T13:19:52Z</time>
      </trkpt>
      <trkpt lat="43.67106" lon="6.98331">
        <ele>315.13958740234</ele>
        <time>2020-05-14T13:19:53Z</time>
      </trkpt>
      <trkpt lat="43.67108" lon="6.9833">
        <ele>314.99755859375</ele>
        <time>2020-05-14T13:19:54Z</time>
      </trkpt>
      <trkpt lat="43.6711" lon="6.98329">
        <ele>314.4716796875</ele>
        <time>2020-05-14T13:19:55Z</time>
      </trkpt>
      <trkpt lat="43.67112" lon="6.98328">
        <ele>314.56292724609</ele>
        <time>2020-05-14T13:19:56Z</time>
      </trkpt>
      <trkpt lat="43.67114" lon="6.98327">
        <ele>314.67120361328</ele>
        <time>2020-05-14T13:19:57Z</time>
      </trkpt>
      <trkpt lat="43.67116" lon="6.98326">
        <ele>315.68859863281</ele>
        <time>2020-05-14T13:19:58Z</time>
      </trkpt>
      <trkpt lat="43.67118" lon="6.98325">
        <ele>322.43212890625</ele>
        <time>2020-05-14T13:19:59Z</time>
      </trkpt>
      <trkpt lat="43.6712" lon="6.98324">
        <ele>323.89135742188</ele>
        <time>2020-05-14T13:20:00Z</time>
      </trkpt>
      <trkpt lat="43.67123" lon="6.98323">
        <ele>323.43237304688</ele>
        <time>2020-05-14T13:20:01Z</time>
      </trkpt>
      <trkpt lat="43.67125" lon="6.98322">
        <ele>323.66754150391</ele>
        <time>2020-05-14T13:20:02Z</time>
      </trkpt>
      <trkpt lat="43.67126" lon="6.98322">
        <ele>324.32824707031</ele>
        <time>2020-05-14T13:20:03Z</time>
      </trkpt>
      <trkpt lat="43.67129" lon="6.98321">
        <ele>323.48962402344</ele>
        <time>2020-05-14T13:20:04Z</time>
      </trkpt>
      <trkpt lat="43.67131" lon="6.9832">
        <ele>323.84539794922</ele>
        <time>2020-05-14T13:20:05Z</time>
      </trkpt>
      <trkpt lat="43.67132" lon="6.98319">
        <ele>323.8701171875</ele>
        <time>2020-05-14T13:20:06Z</time>
      </trkpt>
      <trkpt lat="43.67134" lon="6.98317">
        <ele>323.22387695312</ele>
        <time>2020-05-14T13:20:07Z</time>
      </trkpt>
      <trkpt lat="43.67136" lon="6.98316">
        <ele>323.17352294922</ele>
        <time>2020-05-14T13:20:08Z</time>
      </trkpt>
      <trkpt lat="43.67138" lon="6.98315">
        <ele>323.35919189453</ele>
        <time>2020-05-14T13:20:09Z</time>
      </trkpt>
      <trkpt lat="43.6714" lon="6.98314">
        <ele>323.21124267578</ele>
        <time>2020-05-14T13:20:10Z</time>
      </trkpt>
      <trkpt lat="43.67142" lon="6.98312">
        <ele>322.63342285156</ele>
        <time>2020-05-14T13:20:11Z</time>
      </trkpt>
      <trkpt lat="43.67144" lon="6.98311">
        <ele>324.48303222656</ele>
        <time>2020-05-14T13:20:12Z</time>
      </trkpt>
      <trkpt lat="43.67147" lon="6.9831">
        <ele>324.69421386719</ele>
        <time>2020-05-14T13:20:13Z</time>
      </trkpt>
      <trkpt lat="43.67149" lon="6.98308">
        <ele>324.58557128906</ele>
        <time>2020-05-14T13:20:14Z</time>
      </trkpt>
      <trkpt lat="43.67151" lon="6.98307">
        <ele>324.90466308594</ele>
        <time>2020-05-14T13:20:15Z</time>
      </trkpt>
      <trkpt lat="43.67153" lon="6.98305">
        <ele>324.42102050781</ele>
        <time>2020-05-14T13:20:16Z</time>
      </trkpt>
      <trkpt lat="43.67155" lon="6.98304">
        <ele>324.81713867188</ele>
        <time>2020-05-14T13:20:17Z</time>
      </trkpt>
      <trkpt lat="43.67157" lon="6.98302">
        <ele>325.20178222656</ele>
        <time>2020-05-14T13:20:18Z</time>
      </trkpt>
      <trkpt lat="43.67159" lon="6.98301">
        <ele>323.50549316406</ele>
        <time>2020-05-14T13:20:19Z</time>
      </trkpt>
      <trkpt lat="43.67161" lon="6.98299">
        <ele>325.26684570312</ele>
        <time>2020-05-14T13:20:20Z</time>
      </trkpt>
      <trkpt lat="43.67163" lon="6.98297">
        <ele>324.0751953125</ele>
        <time>2020-05-14T13:20:21Z</time>
      </trkpt>
      <trkpt lat="43.67165" lon="6.98295">
        <ele>324.38903808594</ele>
        <time>2020-05-14T13:20:22Z</time>
      </trkpt>
      <trkpt lat="43.67167" lon="6.98293">
        <ele>327.44396972656</ele>
        <time>2020-05-14T13:20:23Z</time>
      </trkpt>
      <trkpt lat="43.67169" lon="6.98291">
        <ele>327.55310058594</ele>
        <time>2020-05-14T13:20:24Z</time>
      </trkpt>
      <trkpt lat="43.67171" lon="6.9829">
        <ele>331.16918945312</ele>
        <time>2020-05-14T13:20:25Z</time>
      </trkpt>
      <trkpt lat="43.67173" lon="6.98288">
        <ele>331.16333007812</ele>
        <time>2020-05-14T13:20:26Z</time>
      </trkpt>
      <trkpt lat="43.67174" lon="6.98286">
        <ele>331.32159423828</ele>
        <time>2020-05-14T13:20:27Z</time>
      </trkpt>
      <trkpt lat="43.67176" lon="6.98285">
        <ele>330.57061767578</ele>
        <time>2020-05-14T13:20:28Z</time>
      </trkpt>
      <trkpt lat="43.67178" lon="6.98283">
        <ele>330.65264892578</ele>
        <time>2020-05-14T13:20:29Z</time>
      </trkpt>
      <trkpt lat="43.6718" lon="6.98282">
        <ele>330.46252441406</ele>
        <time>2020-05-14T13:20:30Z</time>
      </trkpt>
      <trkpt lat="43.67182" lon="6.98281">
        <ele>330.96844482422</ele>
        <time>2020-05-14T13:20:31Z</time>
      </trkpt>
      <trkpt lat="43.67183" lon="6.98279">
        <ele>331.529296875</ele>
        <time>2020-05-14T13:20:32Z</time>
      </trkpt>
      <trkpt lat="43.67185" lon="6.98277">
        <ele>331.87512207031</ele>
        <time>2020-05-14T13:20:33Z</time>
      </trkpt>
      <trkpt lat="43.67187" lon="6.98275">
        <ele>331.60638427734</ele>
        <time>2020-05-14T13:20:34Z</time>
      </trkpt>
      <trkpt lat="43.67189" lon="6.98273">
        <ele>331.44812011719</ele>
        <time>2020-05-14T13:20:35Z</time>
      </trkpt>
      <trkpt lat="43.67191" lon="6.98272">
        <ele>330.72741699219</ele>
        <time>2020-05-14T13:20:36Z</time>
      </trkpt>
      <trkpt lat="43.67192" lon="6.9827">
        <ele>330.49938964844</ele>
        <time>2020-05-14T13:20:37Z</time>
      </trkpt>
      <trkpt lat="43.67194" lon="6.98269">
        <ele>330.41955566406</ele>
        <time>2020-05-14T13:20:38Z</time>
      </trkpt>
      <trkpt lat="43.67196" lon="6.98267">
        <ele>330.32843017578</ele>
        <time>2020-05-14T13:20:39Z</time>
      </trkpt>
      <trkpt lat="43.67197" lon="6.98265">
        <ele>330.93676757812</ele>
        <time>2020-05-14T13:20:40Z</time>
      </trkpt>
      <trkpt lat="43.67199" lon="6.98264">
        <ele>330.86499023438</ele>
        <time>2020-05-14T13:20:41Z</time>
      </trkpt>
      <trkpt lat="43.672" lon="6.98263">
        <ele>331.27221679688</ele>
        <time>2020-05-14T13:20:42Z</time>
      </trkpt>
      <trkpt lat="43.67201" lon="6.98261">
        <ele>331.39416503906</ele>
        <time>2020-05-14T13:20:43Z</time>
      </trkpt>
      <trkpt lat="43.67203" lon="6.9826">
        <ele>331.99011230469</ele>
        <time>2020-05-14T13:20:44Z</time>
      </trkpt>
      <trkpt lat="43.67204" lon="6.98258">
        <ele>332.40649414062</ele>
        <time>2020-05-14T13:20:45Z</time>
      </trkpt>
      <trkpt lat="43.67205" lon="6.98257">
        <ele>333.64819335938</ele>
        <time>2020-05-14T13:20:46Z</time>
      </trkpt>
      <trkpt lat="43.67206" lon="6.98255">
        <ele>334.76721191406</ele>
        <time>2020-05-14T13:20:47Z</time>
      </trkpt>
      <trkpt lat="43.67208" lon="6.98253">
        <ele>335.03173828125</ele>
        <time>2020-05-14T13:20:48Z</time>
      </trkpt>
      <trkpt lat="43.6721" lon="6.98251">
        <ele>335.81408691406</ele>
        <time>2020-05-14T13:20:49Z</time>
      </trkpt>
      <trkpt lat="43.67211" lon="6.9825">
        <ele>336.49346923828</ele>
        <time>2020-05-14T13:20:50Z</time>
      </trkpt>
      <trkpt lat="43.67213" lon="6.98248">
        <ele>336.56561279297</ele>
        <time>2020-05-14T13:20:51Z</time>
      </trkpt>
      <trkpt lat="43.67214" lon="6.98246">
        <ele>336.92956542969</ele>
        <time>2020-05-14T13:20:52Z</time>
      </trkpt>
      <trkpt lat="43.67215" lon="6.98244">
        <ele>322.47210693359</ele>
        <time>2020-05-14T13:20:53Z</time>
      </trkpt>
      <trkpt lat="43.67217" lon="6.98241">
        <ele>321.09130859375</ele>
        <time>2020-05-14T13:20:54Z</time>
      </trkpt>
      <trkpt lat="43.67218" lon="6.98239">
        <ele>318.74267578125</ele>
        <time>2020-05-14T13:20:55Z</time>
      </trkpt>
      <trkpt lat="43.67219" lon="6.98237">
        <ele>326.82373046875</ele>
        <time>2020-05-14T13:20:56Z</time>
      </trkpt>
      <trkpt lat="43.6722" lon="6.98236">
        <ele>325</ele>
        <time>2020-05-14T13:20:57Z</time>
      </trkpt>
      <trkpt lat="43.67222" lon="6.98234">
        <ele>322.82220458984</ele>
        <time>2020-05-14T13:20:58Z</time>
      </trkpt>
      <trkpt lat="43.67224" lon="6.98233">
        <ele>322.88720703125</ele>
        <time>2020-05-14T13:20:59Z</time>
      </trkpt>
      <trkpt lat="43.67225" lon="6.98232">
        <ele>323.25280761719</ele>
        <time>2020-05-14T13:21:00Z</time>
      </trkpt>
      <trkpt lat="43.67227" lon="6.98231">
        <ele>318.58081054688</ele>
        <time>2020-05-14T13:21:01Z</time>
      </trkpt>
      <trkpt lat="43.67228" lon="6.98229">
        <ele>316.43353271484</ele>
        <time>2020-05-14T13:21:02Z</time>
      </trkpt>
      <trkpt lat="43.6723" lon="6.98228">
        <ele>326.98089599609</ele>
        <time>2020-05-14T13:21:03Z</time>
      </trkpt>
      <trkpt lat="43.67232" lon="6.98226">
        <ele>324.19738769531</ele>
        <time>2020-05-14T13:21:04Z</time>
      </trkpt>
      <trkpt lat="43.67233" lon="6.98224">
        <ele>326.39038085938</ele>
        <time>2020-05-14T13:21:05Z</time>
      </trkpt>
      <trkpt lat="43.67235" lon="6.98223">
        <ele>336.14337158203</ele>
        <time>2020-05-14T13:21:06Z</time>
      </trkpt>
      <trkpt lat="43.67236" lon="6.98221">
        <ele>341.87951660156</ele>
        <time>2020-05-14T13:21:07Z</time>
      </trkpt>
      <trkpt lat="43.67237" lon="6.98219">
        <ele>342.02294921875</ele>
        <time>2020-05-14T13:21:08Z</time>
      </trkpt>
      <trkpt lat="43.67239" lon="6.98217">
        <ele>318.28588867188</ele>
        <time>2020-05-14T13:21:09Z</time>
      </trkpt>
      <trkpt lat="43.67241" lon="6.98215">
        <ele>315.48352050781</ele>
        <time>2020-05-14T13:21:10Z</time>
      </trkpt>
      <trkpt lat="43.67242" lon="6.98213">
        <ele>314.09991455078</ele>
        <time>2020-05-14T13:21:11Z</time>
      </trkpt>
      <trkpt lat="43.67244" lon="6.98211">
        <ele>314.54223632812</ele>
        <time>2020-05-14T13:21:12Z</time>
      </trkpt>
      <trkpt lat="43.67246" lon="6.98209">
        <ele>325.52014160156</ele>
        <time>2020-05-14T13:21:13Z</time>
      </trkpt>
      <trkpt lat="43.67247" lon="6.98208">
        <ele>322.52575683594</ele>
        <time>2020-05-14T13:21:14Z</time>
      </trkpt>
      <trkpt lat="43.67249" lon="6.98206">
        <ele>324.3369140625</ele>
        <time>2020-05-14T13:21:15Z</time>
      </trkpt>
      <trkpt lat="43.67251" lon="6.98203">
        <ele>341.087890625</ele>
        <time>2020-05-14T13:21:16Z</time>
      </trkpt>
      <trkpt lat="43.67252" lon="6.98201">
        <ele>347.25604248047</ele>
        <time>2020-05-14T13:21:17Z</time>
      </trkpt>
      <trkpt lat="43.67254" lon="6.98199">
        <ele>347.92364501953</ele>
        <time>2020-05-14T13:21:18Z</time>
      </trkpt>
      <trkpt lat="43.67256" lon="6.98197">
        <ele>348.40979003906</ele>
        <time>2020-05-14T13:21:19Z</time>
      </trkpt>
      <trkpt lat="43.67257" lon="6.98195">
        <ele>348.6318359375</ele>
        <time>2020-05-14T13:21:20Z</time>
      </trkpt>
      <trkpt lat="43.67259" lon="6.98194">
        <ele>348.56811523438</ele>
        <time>2020-05-14T13:21:21Z</time>
      </trkpt>
      <trkpt lat="43.67261" lon="6.98192">
        <ele>348.60131835938</ele>
        <time>2020-05-14T13:21:22Z</time>
      </trkpt>
      <trkpt lat="43.67263" lon="6.98191">
        <ele>348.59167480469</ele>
        <time>2020-05-14T13:21:23Z</time>
      </trkpt>
      <trkpt lat="43.67265" lon="6.9819">
        <ele>348.64849853516</ele>
        <time>2020-05-14T13:21:24Z</time>
      </trkpt>
      <trkpt lat="43.67267" lon="6.98189">
        <ele>349.48602294922</ele>
        <time>2020-05-14T13:21:25Z</time>
      </trkpt>
      <trkpt lat="43.67268" lon="6.98187">
        <ele>351.2880859375</ele>
        <time>2020-05-14T13:21:26Z</time>
      </trkpt>
      <trkpt lat="43.6727" lon="6.98185">
        <ele>350.982421875</ele>
        <time>2020-05-14T13:21:27Z</time>
      </trkpt>
      <trkpt lat="43.67272" lon="6.98183">
        <ele>350.87487792969</ele>
        <time>2020-05-14T13:21:28Z</time>
      </trkpt>
      <trkpt lat="43.67273" lon="6.98182">
        <ele>351.51794433594</ele>
        <time>2020-05-14T13:21:29Z</time>
      </trkpt>
      <trkpt lat="43.67275" lon="6.9818">
        <ele>350.91479492188</ele>
        <time>2020-05-14T13:21:30Z</time>
      </trkpt>
      <trkpt lat="43.67277" lon="6.98179">
        <ele>350.52734375</ele>
        <time>2020-05-14T13:21:31Z</time>
      </trkpt>
      <trkpt lat="43.67279" lon="6.98178">
        <ele>350.00109863281</ele>
        <time>2020-05-14T13:21:32Z</time>
      </trkpt>
      <trkpt lat="43.6728" lon="6.98176">
        <ele>348.74377441406</ele>
        <time>2020-05-14T13:21:33Z</time>
      </trkpt>
      <trkpt lat="43.67283" lon="6.98174">
        <ele>351.0537109375</ele>
        <time>2020-05-14T13:21:34Z</time>
      </trkpt>
      <trkpt lat="43.67284" lon="6.98172">
        <ele>352.20520019531</ele>
        <time>2020-05-14T13:21:35Z</time>
      </trkpt>
      <trkpt lat="43.67286" lon="6.9817">
        <ele>351.59619140625</ele>
        <time>2020-05-14T13:21:36Z</time>
      </trkpt>
      <trkpt lat="43.67288" lon="6.98169">
        <ele>351.87414550781</ele>
        <time>2020-05-14T13:21:37Z</time>
      </trkpt>
      <trkpt lat="43.6729" lon="6.98167">
        <ele>353.40948486328</ele>
        <time>2020-05-14T13:21:38Z</time>
      </trkpt>
      <trkpt lat="43.67292" lon="6.98165">
        <ele>352.98022460938</ele>
        <time>2020-05-14T13:21:39Z</time>
      </trkpt>
      <trkpt lat="43.67294" lon="6.98164">
        <ele>353.82421875</ele>
        <time>2020-05-14T13:21:40Z</time>
      </trkpt>
      <trkpt lat="43.67296" lon="6.98162">
        <ele>354.20263671875</ele>
        <time>2020-05-14T13:21:41Z</time>
      </trkpt>
      <trkpt lat="43.67298" lon="6.9816">
        <ele>354.20648193359</ele>
        <time>2020-05-14T13:21:42Z</time>
      </trkpt>
      <trkpt lat="43.673" lon="6.98159">
        <ele>356.11285400391</ele>
        <time>2020-05-14T13:21:43Z</time>
      </trkpt>
      <trkpt lat="43.67302" lon="6.98157">
        <ele>356.25927734375</ele>
        <time>2020-05-14T13:21:44Z</time>
      </trkpt>
      <trkpt lat="43.67304" lon="6.98155">
        <ele>356.59228515625</ele>
        <time>2020-05-14T13:21:45Z</time>
      </trkpt>
      <trkpt lat="43.67306" lon="6.98154">
        <ele>356.732421875</ele>
        <time>2020-05-14T13:21:46Z</time>
      </trkpt>
      <trkpt lat="43.67308" lon="6.98152">
        <ele>357.34448242188</ele>
        <time>2020-05-14T13:21:47Z</time>
      </trkpt>
      <trkpt lat="43.6731" lon="6.9815">
        <ele>359.05578613281</ele>
        <time>2020-05-14T13:21:48Z</time>
      </trkpt>
      <trkpt lat="43.67311" lon="6.98148">
        <ele>359.39294433594</ele>
        <time>2020-05-14T13:21:49Z</time>
      </trkpt>
      <trkpt lat="43.67313" lon="6.98147">
        <ele>359.15728759766</ele>
        <time>2020-05-14T13:21:50Z</time>
      </trkpt>
      <trkpt lat="43.67315" lon="6.98145">
        <ele>359.08483886719</ele>
        <time>2020-05-14T13:21:51Z</time>
      </trkpt>
      <trkpt lat="43.67317" lon="6.98143">
        <ele>358.85534667969</ele>
        <time>2020-05-14T13:21:52Z</time>
      </trkpt>
      <trkpt lat="43.67319" lon="6.98142">
        <ele>358.92578125</ele>
        <time>2020-05-14T13:21:53Z</time>
      </trkpt>
      <trkpt lat="43.67321" lon="6.98141">
        <ele>359.10168457031</ele>
        <time>2020-05-14T13:21:54Z</time>
      </trkpt>
      <trkpt lat="43.67322" lon="6.98139">
        <ele>359.33264160156</ele>
        <time>2020-05-14T13:21:55Z</time>
      </trkpt>
      <trkpt lat="43.67324" lon="6.98138">
        <ele>359.58984375</ele>
        <time>2020-05-14T13:21:56Z</time>
      </trkpt>
      <trkpt lat="43.67325" lon="6.98137">
        <ele>359.95031738281</ele>
        <time>2020-05-14T13:21:57Z</time>
      </trkpt>
      <trkpt lat="43.67327" lon="6.98135">
        <ele>360.10675048828</ele>
        <time>2020-05-14T13:21:58Z</time>
      </trkpt>
      <trkpt lat="43.67329" lon="6.98134">
        <ele>360.62683105469</ele>
        <time>2020-05-14T13:21:59Z</time>
      </trkpt>
      <trkpt lat="43.67331" lon="6.98132">
        <ele>361.30865478516</ele>
        <time>2020-05-14T13:22:00Z</time>
      </trkpt>
      <trkpt lat="43.67333" lon="6.98131">
        <ele>361.83874511719</ele>
        <time>2020-05-14T13:22:01Z</time>
      </trkpt>
      <trkpt lat="43.67334" lon="6.98129">
        <ele>365.99633789062</ele>
        <time>2020-05-14T13:22:02Z</time>
      </trkpt>
      <trkpt lat="43.67336" lon="6.98127">
        <ele>365.67834472656</ele>
        <time>2020-05-14T13:22:03Z</time>
      </trkpt>
      <trkpt lat="43.67338" lon="6.98126">
        <ele>365.64184570312</ele>
        <time>2020-05-14T13:22:04Z</time>
      </trkpt>
      <trkpt lat="43.67339" lon="6.98124">
        <ele>366.22515869141</ele>
        <time>2020-05-14T13:22:05Z</time>
      </trkpt>
      <trkpt lat="43.67341" lon="6.98122">
        <ele>366.88006591797</ele>
        <time>2020-05-14T13:22:06Z</time>
      </trkpt>
      <trkpt lat="43.67343" lon="6.98121">
        <ele>367.33764648438</ele>
        <time>2020-05-14T13:22:07Z</time>
      </trkpt>
      <trkpt lat="43.67344" lon="6.98119">
        <ele>367.08935546875</ele>
        <time>2020-05-14T13:22:08Z</time>
      </trkpt>
      <trkpt lat="43.67346" lon="6.98117">
        <ele>368.16394042969</ele>
        <time>2020-05-14T13:22:09Z</time>
      </trkpt>
      <trkpt lat="43.67347" lon="6.98115">
        <ele>368.55102539062</ele>
        <time>2020-05-14T13:22:10Z</time>
      </trkpt>
      <trkpt lat="43.67349" lon="6.98113">
        <ele>368.99621582031</ele>
        <time>2020-05-14T13:22:11Z</time>
      </trkpt>
      <trkpt lat="43.67351" lon="6.98111">
        <ele>369.55084228516</ele>
        <time>2020-05-14T13:22:12Z</time>
      </trkpt>
      <trkpt lat="43.67353" lon="6.9811">
        <ele>369.80932617188</ele>
        <time>2020-05-14T13:22:13Z</time>
      </trkpt>
      <trkpt lat="43.67354" lon="6.98108">
        <ele>369.75610351562</ele>
        <time>2020-05-14T13:22:14Z</time>
      </trkpt>
      <trkpt lat="43.67356" lon="6.98106">
        <ele>370.32238769531</ele>
        <time>2020-05-14T13:22:15Z</time>
      </trkpt>
      <trkpt lat="43.67358" lon="6.98104">
        <ele>370.60845947266</ele>
        <time>2020-05-14T13:22:16Z</time>
      </trkpt>
      <trkpt lat="43.6736" lon="6.98103">
        <ele>370.76062011719</ele>
        <time>2020-05-14T13:22:17Z</time>
      </trkpt>
      <trkpt lat="43.67362" lon="6.98101">
        <ele>371.05261230469</ele>
        <time>2020-05-14T13:22:18Z</time>
      </trkpt>
      <trkpt lat="43.67363" lon="6.981">
        <ele>371.39318847656</ele>
        <time>2020-05-14T13:22:19Z</time>
      </trkpt>
      <trkpt lat="43.67365" lon="6.98098">
        <ele>371.30041503906</ele>
        <time>2020-05-14T13:22:20Z</time>
      </trkpt>
      <trkpt lat="43.67366" lon="6.98096">
        <ele>371.38885498047</ele>
        <time>2020-05-14T13:22:21Z</time>
      </trkpt>
      <trkpt lat="43.67368" lon="6.98094">
        <ele>371.84973144531</ele>
        <time>2020-05-14T13:22:22Z</time>
      </trkpt>
      <trkpt lat="43.6737" lon="6.98093">
        <ele>372.16693115234</ele>
        <time>2020-05-14T13:22:23Z</time>
      </trkpt>
      <trkpt lat="43.67371" lon="6.98091">
        <ele>372.45520019531</ele>
        <time>2020-05-14T13:22:24Z</time>
      </trkpt>
      <trkpt lat="43.67372" lon="6.98089">
        <ele>372.6337890625</ele>
        <time>2020-05-14T13:22:25Z</time>
      </trkpt>
      <trkpt lat="43.67374" lon="6.98087">
        <ele>373.10327148438</ele>
        <time>2020-05-14T13:22:26Z</time>
      </trkpt>
      <trkpt lat="43.67376" lon="6.98085">
        <ele>373.6767578125</ele>
        <time>2020-05-14T13:22:27Z</time>
      </trkpt>
      <trkpt lat="43.67377" lon="6.98083">
        <ele>374.22735595703</ele>
        <time>2020-05-14T13:22:28Z</time>
      </trkpt>
      <trkpt lat="43.67379" lon="6.98081">
        <ele>374.45251464844</ele>
        <time>2020-05-14T13:22:29Z</time>
      </trkpt>
      <trkpt lat="43.67381" lon="6.9808">
        <ele>374.44671630859</ele>
        <time>2020-05-14T13:22:30Z</time>
      </trkpt>
      <trkpt lat="43.67382" lon="6.98078">
        <ele>374.59912109375</ele>
        <time>2020-05-14T13:22:31Z</time>
      </trkpt>
      <trkpt lat="43.67384" lon="6.98076">
        <ele>374.6806640625</ele>
        <time>2020-05-14T13:22:32Z</time>
      </trkpt>
      <trkpt lat="43.67386" lon="6.98074">
        <ele>375.01361083984</ele>
        <time>2020-05-14T13:22:33Z</time>
      </trkpt>
      <trkpt lat="43.67387" lon="6.98073">
        <ele>375.15325927734</ele>
        <time>2020-05-14T13:22:34Z</time>
      </trkpt>
      <trkpt lat="43.67389" lon="6.98071">
        <ele>374.78985595703</ele>
        <time>2020-05-14T13:22:35Z</time>
      </trkpt>
      <trkpt lat="43.6739" lon="6.98069">
        <ele>374.91760253906</ele>
        <time>2020-05-14T13:22:36Z</time>
      </trkpt>
      <trkpt lat="43.67392" lon="6.98067">
        <ele>375.16369628906</ele>
        <time>2020-05-14T13:22:37Z</time>
      </trkpt>
      <trkpt lat="43.67393" lon="6.98066">
        <ele>375.50805664062</ele>
        <time>2020-05-14T13:22:38Z</time>
      </trkpt>
      <trkpt lat="43.67395" lon="6.98064">
        <ele>375.81677246094</ele>
        <time>2020-05-14T13:22:39Z</time>
      </trkpt>
      <trkpt lat="43.67396" lon="6.98062">
        <ele>376.16882324219</ele>
        <time>2020-05-14T13:22:40Z</time>
      </trkpt>
      <trkpt lat="43.67398" lon="6.9806">
        <ele>376.39038085938</ele>
        <time>2020-05-14T13:22:41Z</time>
      </trkpt>
      <trkpt lat="43.674" lon="6.98058">
        <ele>376.50915527344</ele>
        <time>2020-05-14T13:22:42Z</time>
      </trkpt>
      <trkpt lat="43.67401" lon="6.98056">
        <ele>376.93005371094</ele>
        <time>2020-05-14T13:22:43Z</time>
      </trkpt>
      <trkpt lat="43.67403" lon="6.98054">
        <ele>377.16748046875</ele>
        <time>2020-05-14T13:22:44Z</time>
      </trkpt>
      <trkpt lat="43.67404" lon="6.98052">
        <ele>377.94958496094</ele>
        <time>2020-05-14T13:22:45Z</time>
      </trkpt>
      <trkpt lat="43.67405" lon="6.9805">
        <ele>379.14636230469</ele>
        <time>2020-05-14T13:22:46Z</time>
      </trkpt>
      <trkpt lat="43.67407" lon="6.98048">
        <ele>379.30621337891</ele>
        <time>2020-05-14T13:22:47Z</time>
      </trkpt>
      <trkpt lat="43.67408" lon="6.98046">
        <ele>379.45202636719</ele>
        <time>2020-05-14T13:22:48Z</time>
      </trkpt>
      <trkpt lat="43.6741" lon="6.98044">
        <ele>379.80755615234</ele>
        <time>2020-05-14T13:22:49Z</time>
      </trkpt>
      <trkpt lat="43.67411" lon="6.98042">
        <ele>379.99291992188</ele>
        <time>2020-05-14T13:22:50Z</time>
      </trkpt>
      <trkpt lat="43.67413" lon="6.9804">
        <ele>380.57067871094</ele>
        <time>2020-05-14T13:22:51Z</time>
      </trkpt>
      <trkpt lat="43.67414" lon="6.98038">
        <ele>380.40942382812</ele>
        <time>2020-05-14T13:22:52Z</time>
      </trkpt>
      <trkpt lat="43.67416" lon="6.98036">
        <ele>380.23120117188</ele>
        <time>2020-05-14T13:22:53Z</time>
      </trkpt>
      <trkpt lat="43.67418" lon="6.98034">
        <ele>380.93280029297</ele>
        <time>2020-05-14T13:22:54Z</time>
      </trkpt>
      <trkpt lat="43.67419" lon="6.98032">
        <ele>380.58355712891</ele>
        <time>2020-05-14T13:22:55Z</time>
      </trkpt>
      <trkpt lat="43.67421" lon="6.9803">
        <ele>380.98779296875</ele>
        <time>2020-05-14T13:22:56Z</time>
      </trkpt>
      <trkpt lat="43.67422" lon="6.98028">
        <ele>381.1591796875</ele>
        <time>2020-05-14T13:22:57Z</time>
      </trkpt>
      <trkpt lat="43.67423" lon="6.98026">
        <ele>381.16638183594</ele>
        <time>2020-05-14T13:22:58Z</time>
      </trkpt>
      <trkpt lat="43.67425" lon="6.98024">
        <ele>381.72155761719</ele>
        <time>2020-05-14T13:22:59Z</time>
      </trkpt>
      <trkpt lat="43.67427" lon="6.98023">
        <ele>382.09527587891</ele>
        <time>2020-05-14T13:23:00Z</time>
      </trkpt>
      <trkpt lat="43.67428" lon="6.98021">
        <ele>382.21752929688</ele>
        <time>2020-05-14T13:23:01Z</time>
      </trkpt>
      <trkpt lat="43.6743" lon="6.98019">
        <ele>382.35479736328</ele>
        <time>2020-05-14T13:23:02Z</time>
      </trkpt>
      <trkpt lat="43.67431" lon="6.98017">
        <ele>382.53497314453</ele>
        <time>2020-05-14T13:23:03Z</time>
      </trkpt>
      <trkpt lat="43.67433" lon="6.98016">
        <ele>382.55786132812</ele>
        <time>2020-05-14T13:23:04Z</time>
      </trkpt>
      <trkpt lat="43.67434" lon="6.98014">
        <ele>383.13195800781</ele>
        <time>2020-05-14T13:23:05Z</time>
      </trkpt>
      <trkpt lat="43.67436" lon="6.98012">
        <ele>383.86267089844</ele>
        <time>2020-05-14T13:23:06Z</time>
      </trkpt>
      <trkpt lat="43.67437" lon="6.9801">
        <ele>384.11364746094</ele>
        <time>2020-05-14T13:23:07Z</time>
      </trkpt>
      <trkpt lat="43.67438" lon="6.98009">
        <ele>384.49853515625</ele>
        <time>2020-05-14T13:23:08Z</time>
      </trkpt>
      <trkpt lat="43.6744" lon="6.98007">
        <ele>385.23364257812</ele>
        <time>2020-05-14T13:23:09Z</time>
      </trkpt>
      <trkpt lat="43.67442" lon="6.98006">
        <ele>385.97283935547</ele>
        <time>2020-05-14T13:23:10Z</time>
      </trkpt>
      <trkpt lat="43.67443" lon="6.98004">
        <ele>385.80163574219</ele>
        <time>2020-05-14T13:23:11Z</time>
      </trkpt>
      <trkpt lat="43.67445" lon="6.98002">
        <ele>385.99200439453</ele>
        <time>2020-05-14T13:23:12Z</time>
      </trkpt>
      <trkpt lat="43.67447" lon="6.98001">
        <ele>385.86145019531</ele>
        <time>2020-05-14T13:23:13Z</time>
      </trkpt>
      <trkpt lat="43.67449" lon="6.97999">
        <ele>385.91680908203</ele>
        <time>2020-05-14T13:23:14Z</time>
      </trkpt>
      <trkpt lat="43.6745" lon="6.97997">
        <ele>386.03924560547</ele>
        <time>2020-05-14T13:23:15Z</time>
      </trkpt>
      <trkpt lat="43.67452" lon="6.97995">
        <ele>386.12426757812</ele>
        <time>2020-05-14T13:23:16Z</time>
      </trkpt>
      <trkpt lat="43.67454" lon="6.97994">
        <ele>385.8447265625</ele>
        <time>2020-05-14T13:23:17Z</time>
      </trkpt>
      <trkpt lat="43.67456" lon="6.97992">
        <ele>386.04766845703</ele>
        <time>2020-05-14T13:23:18Z</time>
      </trkpt>
      <trkpt lat="43.67457" lon="6.97991">
        <ele>385.90283203125</ele>
        <time>2020-05-14T13:23:19Z</time>
      </trkpt>
      <trkpt lat="43.67459" lon="6.97989">
        <ele>386.05822753906</ele>
        <time>2020-05-14T13:23:20Z</time>
      </trkpt>
      <trkpt lat="43.67461" lon="6.97988">
        <ele>385.990234375</ele>
        <time>2020-05-14T13:23:21Z</time>
      </trkpt>
      <trkpt lat="43.67463" lon="6.97986">
        <ele>386.322265625</ele>
        <time>2020-05-14T13:23:22Z</time>
      </trkpt>
      <trkpt lat="43.67465" lon="6.97985">
        <ele>386.60205078125</ele>
        <time>2020-05-14T13:23:23Z</time>
      </trkpt>
      <trkpt lat="43.67467" lon="6.97983">
        <ele>386.65692138672</ele>
        <time>2020-05-14T13:23:24Z</time>
      </trkpt>
      <trkpt lat="43.67468" lon="6.97982">
        <ele>386.74560546875</ele>
        <time>2020-05-14T13:23:25Z</time>
      </trkpt>
      <trkpt lat="43.6747" lon="6.9798">
        <ele>386.85876464844</ele>
        <time>2020-05-14T13:23:26Z</time>
      </trkpt>
      <trkpt lat="43.67472" lon="6.97979">
        <ele>386.81164550781</ele>
        <time>2020-05-14T13:23:27Z</time>
      </trkpt>
      <trkpt lat="43.67474" lon="6.97977">
        <ele>386.98864746094</ele>
        <time>2020-05-14T13:23:28Z</time>
      </trkpt>
      <trkpt lat="43.67476" lon="6.97976">
        <ele>387.10235595703</ele>
        <time>2020-05-14T13:23:29Z</time>
      </trkpt>
      <trkpt lat="43.67478" lon="6.97974">
        <ele>387.17333984375</ele>
        <time>2020-05-14T13:23:30Z</time>
      </trkpt>
      <trkpt lat="43.6748" lon="6.97973">
        <ele>385.421875</ele>
        <time>2020-05-14T13:23:31Z</time>
      </trkpt>
      <trkpt lat="43.67481" lon="6.97971">
        <ele>385.57000732422</ele>
        <time>2020-05-14T13:23:32Z</time>
      </trkpt>
      <trkpt lat="43.67483" lon="6.97969">
        <ele>381.390625</ele>
        <time>2020-05-14T13:23:33Z</time>
      </trkpt>
      <trkpt lat="43.67485" lon="6.97968">
        <ele>381.50537109375</ele>
        <time>2020-05-14T13:23:34Z</time>
      </trkpt>
      <trkpt lat="43.67487" lon="6.97966">
        <ele>380.87432861328</ele>
        <time>2020-05-14T13:23:35Z</time>
      </trkpt>
      <trkpt lat="43.67489" lon="6.97965">
        <ele>381.29815673828</ele>
        <time>2020-05-14T13:23:36Z</time>
      </trkpt>
      <trkpt lat="43.67491" lon="6.97963">
        <ele>381.73388671875</ele>
        <time>2020-05-14T13:23:37Z</time>
      </trkpt>
      <trkpt lat="43.67493" lon="6.97962">
        <ele>380.51281738281</ele>
        <time>2020-05-14T13:23:38Z</time>
      </trkpt>
      <trkpt lat="43.67494" lon="6.9796">
        <ele>378.98815917969</ele>
        <time>2020-05-14T13:23:39Z</time>
      </trkpt>
      <trkpt lat="43.67496" lon="6.97959">
        <ele>377.97387695312</ele>
        <time>2020-05-14T13:23:40Z</time>
      </trkpt>
      <trkpt lat="43.67498" lon="6.97957">
        <ele>376.48754882812</ele>
        <time>2020-05-14T13:23:41Z</time>
      </trkpt>
      <trkpt lat="43.675" lon="6.97956">
        <ele>375.70349121094</ele>
        <time>2020-05-14T13:23:42Z</time>
      </trkpt>
      <trkpt lat="43.67501" lon="6.97954">
        <ele>383.30847167969</ele>
        <time>2020-05-14T13:23:43Z</time>
      </trkpt>
      <trkpt lat="43.67502" lon="6.97952">
        <ele>382.6552734375</ele>
        <time>2020-05-14T13:23:44Z</time>
      </trkpt>
      <trkpt lat="43.67504" lon="6.97951">
        <ele>383.49639892578</ele>
        <time>2020-05-14T13:23:45Z</time>
      </trkpt>
      <trkpt lat="43.67505" lon="6.97948">
        <ele>384.03332519531</ele>
        <time>2020-05-14T13:23:46Z</time>
      </trkpt>
      <trkpt lat="43.67507" lon="6.97946">
        <ele>382.89147949219</ele>
        <time>2020-05-14T13:23:47Z</time>
      </trkpt>
      <trkpt lat="43.67509" lon="6.97944">
        <ele>383.59912109375</ele>
        <time>2020-05-14T13:23:48Z</time>
      </trkpt>
      <trkpt lat="43.6751" lon="6.97942">
        <ele>382.60131835938</ele>
        <time>2020-05-14T13:23:49Z</time>
      </trkpt>
      <trkpt lat="43.67512" lon="6.9794">
        <ele>381.75134277344</ele>
        <time>2020-05-14T13:23:50Z</time>
      </trkpt>
      <trkpt lat="43.67514" lon="6.97938">
        <ele>380.42602539062</ele>
        <time>2020-05-14T13:23:51Z</time>
      </trkpt>
      <trkpt lat="43.67516" lon="6.97935">
        <ele>376.81091308594</ele>
        <time>2020-05-14T13:23:52Z</time>
      </trkpt>
      <trkpt lat="43.67518" lon="6.97933">
        <ele>376.81182861328</ele>
        <time>2020-05-14T13:23:53Z</time>
      </trkpt>
      <trkpt lat="43.67519" lon="6.9793">
        <ele>376.34887695312</ele>
        <time>2020-05-14T13:23:54Z</time>
      </trkpt>
      <trkpt lat="43.67521" lon="6.97928">
        <ele>376.88073730469</ele>
        <time>2020-05-14T13:23:55Z</time>
      </trkpt>
      <trkpt lat="43.67523" lon="6.97925">
        <ele>374.99487304688</ele>
        <time>2020-05-14T13:23:56Z</time>
      </trkpt>
      <trkpt lat="43.67525" lon="6.97922">
        <ele>374.59234619141</ele>
        <time>2020-05-14T13:23:57Z</time>
      </trkpt>
      <trkpt lat="43.67527" lon="6.9792">
        <ele>373.13500976562</ele>
        <time>2020-05-14T13:23:58Z</time>
      </trkpt>
      <trkpt lat="43.67529" lon="6.97917">
        <ele>374.7080078125</ele>
        <time>2020-05-14T13:23:59Z</time>
      </trkpt>
      <trkpt lat="43.67531" lon="6.97915">
        <ele>373.21203613281</ele>
        <time>2020-05-14T13:24:00Z</time>
      </trkpt>
      <trkpt lat="43.67533" lon="6.97913">
        <ele>373.22344970703</ele>
        <time>2020-05-14T13:24:01Z</time>
      </trkpt>
      <trkpt lat="43.67534" lon="6.97911">
        <ele>374.16381835938</ele>
        <time>2020-05-14T13:24:02Z</time>
      </trkpt>
      <trkpt lat="43.67536" lon="6.97909">
        <ele>374.06622314453</ele>
        <time>2020-05-14T13:24:03Z</time>
      </trkpt>
      <trkpt lat="43.67537" lon="6.97907">
        <ele>374.25390625</ele>
        <time>2020-05-14T13:24:04Z</time>
      </trkpt>
      <trkpt lat="43.67539" lon="6.97905">
        <ele>373.06530761719</ele>
        <time>2020-05-14T13:24:05Z</time>
      </trkpt>
      <trkpt lat="43.67541" lon="6.97903">
        <ele>374.4521484375</ele>
        <time>2020-05-14T13:24:06Z</time>
      </trkpt>
      <trkpt lat="43.67542" lon="6.97901">
        <ele>374.82208251953</ele>
        <time>2020-05-14T13:24:07Z</time>
      </trkpt>
      <trkpt lat="43.67544" lon="6.97899">
        <ele>374.11700439453</ele>
        <time>2020-05-14T13:24:08Z</time>
      </trkpt>
      <trkpt lat="43.67546" lon="6.97897">
        <ele>375.88916015625</ele>
        <time>2020-05-14T13:24:09Z</time>
      </trkpt>
      <trkpt lat="43.67547" lon="6.97895">
        <ele>374.61560058594</ele>
        <time>2020-05-14T13:24:10Z</time>
      </trkpt>
      <trkpt lat="43.67548" lon="6.97892">
        <ele>373.53308105469</ele>
        <time>2020-05-14T13:24:11Z</time>
      </trkpt>
      <trkpt lat="43.67549" lon="6.9789">
        <ele>373.55999755859</ele>
        <time>2020-05-14T13:24:12Z</time>
      </trkpt>
      <trkpt lat="43.67551" lon="6.97887">
        <ele>380.568359375</ele>
        <time>2020-05-14T13:24:13Z</time>
      </trkpt>
      <trkpt lat="43.67552" lon="6.97885">
        <ele>379.39880371094</ele>
        <time>2020-05-14T13:24:14Z</time>
      </trkpt>
      <trkpt lat="43.67554" lon="6.97883">
        <ele>379.08142089844</ele>
        <time>2020-05-14T13:24:15Z</time>
      </trkpt>
      <trkpt lat="43.67555" lon="6.9788">
        <ele>377.87414550781</ele>
        <time>2020-05-14T13:24:16Z</time>
      </trkpt>
      <trkpt lat="43.67557" lon="6.97877">
        <ele>374.27502441406</ele>
        <time>2020-05-14T13:24:17Z</time>
      </trkpt>
      <trkpt lat="43.67559" lon="6.97875">
        <ele>374.00354003906</ele>
        <time>2020-05-14T13:24:18Z</time>
      </trkpt>
      <trkpt lat="43.6756" lon="6.97872">
        <ele>373.51928710938</ele>
        <time>2020-05-14T13:24:19Z</time>
      </trkpt>
      <trkpt lat="43.67561" lon="6.9787">
        <ele>373.99353027344</ele>
        <time>2020-05-14T13:24:20Z</time>
      </trkpt>
      <trkpt lat="43.67563" lon="6.97867">
        <ele>381.20404052734</ele>
        <time>2020-05-14T13:24:21Z</time>
      </trkpt>
      <trkpt lat="43.67564" lon="6.97864">
        <ele>379.20324707031</ele>
        <time>2020-05-14T13:24:22Z</time>
      </trkpt>
      <trkpt lat="43.67566" lon="6.97861">
        <ele>379.60803222656</ele>
        <time>2020-05-14T13:24:23Z</time>
      </trkpt>
      <trkpt lat="43.67567" lon="6.97858">
        <ele>380.24432373047</ele>
        <time>2020-05-14T13:24:24Z</time>
      </trkpt>
      <trkpt lat="43.67569" lon="6.97855">
        <ele>374.60125732422</ele>
        <time>2020-05-14T13:24:25Z</time>
      </trkpt>
      <trkpt lat="43.6757" lon="6.97852">
        <ele>375.17687988281</ele>
        <time>2020-05-14T13:24:26Z</time>
      </trkpt>
      <trkpt lat="43.67571" lon="6.97849">
        <ele>375.04418945312</ele>
        <time>2020-05-14T13:24:27Z</time>
      </trkpt>
      <trkpt lat="43.67572" lon="6.97847">
        <ele>374.83776855469</ele>
        <time>2020-05-14T13:24:28Z</time>
      </trkpt>
      <trkpt lat="43.67574" lon="6.97844">
        <ele>373.08135986328</ele>
        <time>2020-05-14T13:24:29Z</time>
      </trkpt>
      <trkpt lat="43.67575" lon="6.97842">
        <ele>371.70434570312</ele>
        <time>2020-05-14T13:24:30Z</time>
      </trkpt>
      <trkpt lat="43.67577" lon="6.9784">
        <ele>377.52111816406</ele>
        <time>2020-05-14T13:24:31Z</time>
      </trkpt>
      <trkpt lat="43.67579" lon="6.97837">
        <ele>374.81530761719</ele>
        <time>2020-05-14T13:24:32Z</time>
      </trkpt>
      <trkpt lat="43.6758" lon="6.97834">
        <ele>370.46142578125</ele>
        <time>2020-05-14T13:24:33Z</time>
      </trkpt>
      <trkpt lat="43.67582" lon="6.97832">
        <ele>370.98010253906</ele>
        <time>2020-05-14T13:24:34Z</time>
      </trkpt>
      <trkpt lat="43.67583" lon="6.97829">
        <ele>370.17712402344</ele>
        <time>2020-05-14T13:24:35Z</time>
      </trkpt>
      <trkpt lat="43.67585" lon="6.97827">
        <ele>370.10345458984</ele>
        <time>2020-05-14T13:24:36Z</time>
      </trkpt>
      <trkpt lat="43.67586" lon="6.97824">
        <ele>377.259765625</ele>
        <time>2020-05-14T13:24:37Z</time>
      </trkpt>
      <trkpt lat="43.67587" lon="6.97822">
        <ele>377.01501464844</ele>
        <time>2020-05-14T13:24:38Z</time>
      </trkpt>
      <trkpt lat="43.67589" lon="6.97819">
        <ele>378.39379882812</ele>
        <time>2020-05-14T13:24:39Z</time>
      </trkpt>
      <trkpt lat="43.6759" lon="6.97816">
        <ele>379.53295898438</ele>
        <time>2020-05-14T13:24:40Z</time>
      </trkpt>
      <trkpt lat="43.67591" lon="6.97813">
        <ele>381.14801025391</ele>
        <time>2020-05-14T13:24:41Z</time>
      </trkpt>
      <trkpt lat="43.67593" lon="6.97811">
        <ele>381.46392822266</ele>
        <time>2020-05-14T13:24:42Z</time>
      </trkpt>
      <trkpt lat="43.67594" lon="6.97808">
        <ele>382.83129882812</ele>
        <time>2020-05-14T13:24:43Z</time>
      </trkpt>
      <trkpt lat="43.67596" lon="6.97806">
        <ele>379.04846191406</ele>
        <time>2020-05-14T13:24:44Z</time>
      </trkpt>
      <trkpt lat="43.67597" lon="6.97803">
        <ele>377.38708496094</ele>
        <time>2020-05-14T13:24:45Z</time>
      </trkpt>
      <trkpt lat="43.67599" lon="6.978">
        <ele>377.0546875</ele>
        <time>2020-05-14T13:24:46Z</time>
      </trkpt>
      <trkpt lat="43.676" lon="6.97797">
        <ele>375.82849121094</ele>
        <time>2020-05-14T13:24:47Z</time>
      </trkpt>
      <trkpt lat="43.67601" lon="6.97794">
        <ele>376.68176269531</ele>
        <time>2020-05-14T13:24:48Z</time>
      </trkpt>
      <trkpt lat="43.67603" lon="6.97792">
        <ele>376.93005371094</ele>
        <time>2020-05-14T13:24:49Z</time>
      </trkpt>
      <trkpt lat="43.67604" lon="6.9779">
        <ele>377.23156738281</ele>
        <time>2020-05-14T13:24:50Z</time>
      </trkpt>
      <trkpt lat="43.67606" lon="6.97788">
        <ele>377.62139892578</ele>
        <time>2020-05-14T13:24:51Z</time>
      </trkpt>
      <trkpt lat="43.67608" lon="6.97786">
        <ele>377.69940185547</ele>
        <time>2020-05-14T13:24:52Z</time>
      </trkpt>
      <trkpt lat="43.6761" lon="6.97783">
        <ele>377.927734375</ele>
        <time>2020-05-14T13:24:53Z</time>
      </trkpt>
      <trkpt lat="43.67612" lon="6.97781">
        <ele>378.74865722656</ele>
        <time>2020-05-14T13:24:54Z</time>
      </trkpt>
      <trkpt lat="43.67613" lon="6.97778">
        <ele>387.81414794922</ele>
        <time>2020-05-14T13:24:55Z</time>
      </trkpt>
      <trkpt lat="43.67614" lon="6.97776">
        <ele>385.68920898438</ele>
        <time>2020-05-14T13:24:56Z</time>
      </trkpt>
      <trkpt lat="43.67616" lon="6.97774">
        <ele>379.15930175781</ele>
        <time>2020-05-14T13:24:57Z</time>
      </trkpt>
      <trkpt lat="43.67618" lon="6.97772">
        <ele>378.51342773438</ele>
        <time>2020-05-14T13:24:58Z</time>
      </trkpt>
      <trkpt lat="43.67621" lon="6.9777">
        <ele>378.56811523438</ele>
        <time>2020-05-14T13:24:59Z</time>
      </trkpt>
      <trkpt lat="43.67623" lon="6.97768">
        <ele>377.05725097656</ele>
        <time>2020-05-14T13:25:00Z</time>
      </trkpt>
      <trkpt lat="43.67625" lon="6.97766">
        <ele>378.23510742188</ele>
        <time>2020-05-14T13:25:01Z</time>
      </trkpt>
      <trkpt lat="43.67626" lon="6.97765">
        <ele>376.95849609375</ele>
        <time>2020-05-14T13:25:02Z</time>
      </trkpt>
      <trkpt lat="43.67628" lon="6.97763">
        <ele>378.67407226562</ele>
        <time>2020-05-14T13:25:03Z</time>
      </trkpt>
      <trkpt lat="43.67629" lon="6.97761">
        <ele>380.16650390625</ele>
        <time>2020-05-14T13:25:04Z</time>
      </trkpt>
      <trkpt lat="43.6763" lon="6.97759">
        <ele>378.76586914062</ele>
        <time>2020-05-14T13:25:05Z</time>
      </trkpt>
      <trkpt lat="43.67631" lon="6.97757">
        <ele>377.95581054688</ele>
        <time>2020-05-14T13:25:06Z</time>
      </trkpt>
      <trkpt lat="43.67633" lon="6.97755">
        <ele>377.30548095703</ele>
        <time>2020-05-14T13:25:07Z</time>
      </trkpt>
      <trkpt lat="43.67634" lon="6.97753">
        <ele>377.42633056641</ele>
        <time>2020-05-14T13:25:08Z</time>
      </trkpt>
      <trkpt lat="43.67635" lon="6.97751">
        <ele>377.73754882812</ele>
        <time>2020-05-14T13:25:09Z</time>
      </trkpt>
      <trkpt lat="43.67636" lon="6.97749">
        <ele>375.841796875</ele>
        <time>2020-05-14T13:25:10Z</time>
      </trkpt>
      <trkpt lat="43.67637" lon="6.97747">
        <ele>374.93328857422</ele>
        <time>2020-05-14T13:25:11Z</time>
      </trkpt>
      <trkpt lat="43.67638" lon="6.97746">
        <ele>376.63317871094</ele>
        <time>2020-05-14T13:25:12Z</time>
      </trkpt>
      <trkpt lat="43.67639" lon="6.97744">
        <ele>375.92010498047</ele>
        <time>2020-05-14T13:25:13Z</time>
      </trkpt>
      <trkpt lat="43.67639" lon="6.97742">
        <ele>384.51477050781</ele>
        <time>2020-05-14T13:25:14Z</time>
      </trkpt>
      <trkpt lat="43.6764" lon="6.97739">
        <ele>380.93627929688</ele>
        <time>2020-05-14T13:25:15Z</time>
      </trkpt>
      <trkpt lat="43.6764" lon="6.97737">
        <ele>374.91619873047</ele>
        <time>2020-05-14T13:25:16Z</time>
      </trkpt>
      <trkpt lat="43.67641" lon="6.97734">
        <ele>374.08837890625</ele>
        <time>2020-05-14T13:25:17Z</time>
      </trkpt>
      <trkpt lat="43.67641" lon="6.97732">
        <ele>374.62982177734</ele>
        <time>2020-05-14T13:25:18Z</time>
      </trkpt>
      <trkpt lat="43.67642" lon="6.9773">
        <ele>374.95660400391</ele>
        <time>2020-05-14T13:25:19Z</time>
      </trkpt>
      <trkpt lat="43.67642" lon="6.97727">
        <ele>374.21667480469</ele>
        <time>2020-05-14T13:25:20Z</time>
      </trkpt>
      <trkpt lat="43.67642" lon="6.97724">
        <ele>383.02136230469</ele>
        <time>2020-05-14T13:25:21Z</time>
      </trkpt>
      <trkpt lat="43.67642" lon="6.97721">
        <ele>379.46014404297</ele>
        <time>2020-05-14T13:25:22Z</time>
      </trkpt>
      <trkpt lat="43.67643" lon="6.97719">
        <ele>378.0185546875</ele>
        <time>2020-05-14T13:25:23Z</time>
      </trkpt>
      <trkpt lat="43.67642" lon="6.97717">
        <ele>377.4072265625</ele>
        <time>2020-05-14T13:25:24Z</time>
      </trkpt>
      <trkpt lat="43.67642" lon="6.97715">
        <ele>371.2490234375</ele>
        <time>2020-05-14T13:25:25Z</time>
      </trkpt>
      <trkpt lat="43.67641" lon="6.97713">
        <ele>370.9619140625</ele>
        <time>2020-05-14T13:25:26Z</time>
      </trkpt>
      <trkpt lat="43.67639" lon="6.97711">
        <ele>370.52233886719</ele>
        <time>2020-05-14T13:25:27Z</time>
      </trkpt>
      <trkpt lat="43.67638" lon="6.97709">
        <ele>372.11096191406</ele>
        <time>2020-05-14T13:25:28Z</time>
      </trkpt>
      <trkpt lat="43.67637" lon="6.97708">
        <ele>371.10699462891</ele>
        <time>2020-05-14T13:25:29Z</time>
      </trkpt>
      <trkpt lat="43.67635" lon="6.97707">
        <ele>371.72235107422</ele>
        <time>2020-05-14T13:25:30Z</time>
      </trkpt>
      <trkpt lat="43.67632" lon="6.97706">
        <ele>381.43737792969</ele>
        <time>2020-05-14T13:25:31Z</time>
      </trkpt>
      <trkpt lat="43.6763" lon="6.97705">
        <ele>381.25024414062</ele>
        <time>2020-05-14T13:25:32Z</time>
      </trkpt>
      <trkpt lat="43.67627" lon="6.97703">
        <ele>382.30334472656</ele>
        <time>2020-05-14T13:25:33Z</time>
      </trkpt>
      <trkpt lat="43.67624" lon="6.97702">
        <ele>382.26678466797</ele>
        <time>2020-05-14T13:25:34Z</time>
      </trkpt>
      <trkpt lat="43.67621" lon="6.97702">
        <ele>383.56677246094</ele>
        <time>2020-05-14T13:25:35Z</time>
      </trkpt>
      <trkpt lat="43.67618" lon="6.97702">
        <ele>378.35693359375</ele>
        <time>2020-05-14T13:25:36Z</time>
      </trkpt>
      <trkpt lat="43.67616" lon="6.97703">
        <ele>378.26086425781</ele>
        <time>2020-05-14T13:25:37Z</time>
      </trkpt>
      <trkpt lat="43.67613" lon="6.97705">
        <ele>377.92810058594</ele>
        <time>2020-05-14T13:25:38Z</time>
      </trkpt>
      <trkpt lat="43.67611" lon="6.97706">
        <ele>377.46429443359</ele>
        <time>2020-05-14T13:25:39Z</time>
      </trkpt>
      <trkpt lat="43.67609" lon="6.97708">
        <ele>388.37756347656</ele>
        <time>2020-05-14T13:25:40Z</time>
      </trkpt>
      <trkpt lat="43.67607" lon="6.9771">
        <ele>387.1318359375</ele>
        <time>2020-05-14T13:25:41Z</time>
      </trkpt>
      <trkpt lat="43.67605" lon="6.97713">
        <ele>387.07104492188</ele>
        <time>2020-05-14T13:25:42Z</time>
      </trkpt>
      <trkpt lat="43.67603" lon="6.97716">
        <ele>386.08508300781</ele>
        <time>2020-05-14T13:25:43Z</time>
      </trkpt>
      <trkpt lat="43.676" lon="6.97719">
        <ele>388.09674072266</ele>
        <time>2020-05-14T13:25:44Z</time>
      </trkpt>
      <trkpt lat="43.67598" lon="6.97721">
        <ele>389.93725585938</ele>
        <time>2020-05-14T13:25:45Z</time>
      </trkpt>
      <trkpt lat="43.67596" lon="6.97723">
        <ele>391.54833984375</ele>
        <time>2020-05-14T13:25:46Z</time>
      </trkpt>
      <trkpt lat="43.67594" lon="6.97725">
        <ele>389.02392578125</ele>
        <time>2020-05-14T13:25:47Z</time>
      </trkpt>
      <trkpt lat="43.67592" lon="6.97726">
        <ele>387.98608398438</ele>
        <time>2020-05-14T13:25:48Z</time>
      </trkpt>
      <trkpt lat="43.6759" lon="6.97728">
        <ele>388.00500488281</ele>
        <time>2020-05-14T13:25:49Z</time>
      </trkpt>
      <trkpt lat="43.67587" lon="6.97729">
        <ele>381.07653808594</ele>
        <time>2020-05-14T13:25:50Z</time>
      </trkpt>
      <trkpt lat="43.67585" lon="6.97731">
        <ele>380.47723388672</ele>
        <time>2020-05-14T13:25:51Z</time>
      </trkpt>
      <trkpt lat="43.67583" lon="6.97733">
        <ele>380.423828125</ele>
        <time>2020-05-14T13:25:52Z</time>
      </trkpt>
      <trkpt lat="43.6758" lon="6.97734">
        <ele>379.6962890625</ele>
        <time>2020-05-14T13:25:53Z</time>
      </trkpt>
      <trkpt lat="43.67578" lon="6.97735">
        <ele>389.712890625</ele>
        <time>2020-05-14T13:25:54Z</time>
      </trkpt>
      <trkpt lat="43.67575" lon="6.97737">
        <ele>386.72900390625</ele>
        <time>2020-05-14T13:25:55Z</time>
      </trkpt>
      <trkpt lat="43.67573" lon="6.97738">
        <ele>387.232421875</ele>
        <time>2020-05-14T13:25:56Z</time>
      </trkpt>
      <trkpt lat="43.6757" lon="6.9774">
        <ele>380.77392578125</ele>
        <time>2020-05-14T13:25:57Z</time>
      </trkpt>
      <trkpt lat="43.67568" lon="6.97741">
        <ele>381.56176757812</ele>
        <time>2020-05-14T13:25:58Z</time>
      </trkpt>
      <trkpt lat="43.67566" lon="6.97743">
        <ele>382.51318359375</ele>
        <time>2020-05-14T13:25:59Z</time>
      </trkpt>
      <trkpt lat="43.67564" lon="6.97745">
        <ele>381.53332519531</ele>
        <time>2020-05-14T13:26:00Z</time>
      </trkpt>
      <trkpt lat="43.67561" lon="6.97746">
        <ele>380.22351074219</ele>
        <time>2020-05-14T13:26:01Z</time>
      </trkpt>
      <trkpt lat="43.67559" lon="6.97747">
        <ele>388.59838867188</ele>
        <time>2020-05-14T13:26:02Z</time>
      </trkpt>
      <trkpt lat="43.67557" lon="6.97749">
        <ele>387.46923828125</ele>
        <time>2020-05-14T13:26:03Z</time>
      </trkpt>
      <trkpt lat="43.67554" lon="6.9775">
        <ele>385.3359375</ele>
        <time>2020-05-14T13:26:04Z</time>
      </trkpt>
      <trkpt lat="43.67552" lon="6.97751">
        <ele>386.22222900391</ele>
        <time>2020-05-14T13:26:05Z</time>
      </trkpt>
      <trkpt lat="43.6755" lon="6.97752">
        <ele>386.59814453125</ele>
        <time>2020-05-14T13:26:06Z</time>
      </trkpt>
      <trkpt lat="43.67548" lon="6.97753">
        <ele>386.80786132812</ele>
        <time>2020-05-14T13:26:07Z</time>
      </trkpt>
      <trkpt lat="43.67546" lon="6.97755">
        <ele>386.11346435547</ele>
        <time>2020-05-14T13:26:08Z</time>
      </trkpt>
      <trkpt lat="43.67544" lon="6.97756">
        <ele>386.53247070312</ele>
        <time>2020-05-14T13:26:09Z</time>
      </trkpt>
      <trkpt lat="43.67542" lon="6.97757">
        <ele>385.80419921875</ele>
        <time>2020-05-14T13:26:10Z</time>
      </trkpt>
      <trkpt lat="43.6754" lon="6.97758">
        <ele>387.54559326172</ele>
        <time>2020-05-14T13:26:11Z</time>
      </trkpt>
      <trkpt lat="43.67538" lon="6.97759">
        <ele>387.90338134766</ele>
        <time>2020-05-14T13:26:12Z</time>
      </trkpt>
      <trkpt lat="43.67536" lon="6.9776">
        <ele>387.56811523438</ele>
        <time>2020-05-14T13:26:13Z</time>
      </trkpt>
      <trkpt lat="43.67534" lon="6.97762">
        <ele>385.22784423828</ele>
        <time>2020-05-14T13:26:14Z</time>
      </trkpt>
      <trkpt lat="43.67532" lon="6.97763">
        <ele>384.83087158203</ele>
        <time>2020-05-14T13:26:15Z</time>
      </trkpt>
      <trkpt lat="43.6753" lon="6.97764">
        <ele>385.70373535156</ele>
        <time>2020-05-14T13:26:16Z</time>
      </trkpt>
      <trkpt lat="43.67528" lon="6.97766">
        <ele>384.89233398438</ele>
        <time>2020-05-14T13:26:17Z</time>
      </trkpt>
      <trkpt lat="43.67526" lon="6.97767">
        <ele>379.08728027344</ele>
        <time>2020-05-14T13:26:18Z</time>
      </trkpt>
      <trkpt lat="43.67524" lon="6.97769">
        <ele>378.74755859375</ele>
        <time>2020-05-14T13:26:19Z</time>
      </trkpt>
      <trkpt lat="43.67521" lon="6.97771">
        <ele>379.10852050781</ele>
        <time>2020-05-14T13:26:20Z</time>
      </trkpt>
      <trkpt lat="43.67519" lon="6.97773">
        <ele>379.70043945312</ele>
        <time>2020-05-14T13:26:21Z</time>
      </trkpt>
      <trkpt lat="43.67517" lon="6.97775">
        <ele>391.76770019531</ele>
        <time>2020-05-14T13:26:22Z</time>
      </trkpt>
      <trkpt lat="43.67515" lon="6.97776">
        <ele>387.58001708984</ele>
        <time>2020-05-14T13:26:23Z</time>
      </trkpt>
      <trkpt lat="43.67512" lon="6.97778">
        <ele>387.99359130859</ele>
        <time>2020-05-14T13:26:24Z</time>
      </trkpt>
      <trkpt lat="43.6751" lon="6.97779">
        <ele>390.90014648438</ele>
        <time>2020-05-14T13:26:25Z</time>
      </trkpt>
      <trkpt lat="43.67507" lon="6.97781">
        <ele>384.97216796875</ele>
        <time>2020-05-14T13:26:26Z</time>
      </trkpt>
      <trkpt lat="43.67505" lon="6.97782">
        <ele>387.28393554688</ele>
        <time>2020-05-14T13:26:27Z</time>
      </trkpt>
      <trkpt lat="43.67503" lon="6.97783">
        <ele>385.43591308594</ele>
        <time>2020-05-14T13:26:28Z</time>
      </trkpt>
      <trkpt lat="43.67502" lon="6.97785">
        <ele>388.00024414062</ele>
        <time>2020-05-14T13:26:29Z</time>
      </trkpt>
      <trkpt lat="43.675" lon="6.97787">
        <ele>388.60723876953</ele>
        <time>2020-05-14T13:26:30Z</time>
      </trkpt>
      <trkpt lat="43.67498" lon="6.97789">
        <ele>389.42761230469</ele>
        <time>2020-05-14T13:26:31Z</time>
      </trkpt>
      <trkpt lat="43.67497" lon="6.97791">
        <ele>386.78674316406</ele>
        <time>2020-05-14T13:26:32Z</time>
      </trkpt>
      <trkpt lat="43.67495" lon="6.97793">
        <ele>399.87744140625</ele>
        <time>2020-05-14T13:26:33Z</time>
      </trkpt>
      <trkpt lat="43.67493" lon="6.97795">
        <ele>394.89416503906</ele>
        <time>2020-05-14T13:26:34Z</time>
      </trkpt>
      <trkpt lat="43.67492" lon="6.97797">
        <ele>394.74298095703</ele>
        <time>2020-05-14T13:26:35Z</time>
      </trkpt>
      <trkpt lat="43.6749" lon="6.978">
        <ele>391.56628417969</ele>
        <time>2020-05-14T13:26:36Z</time>
      </trkpt>
      <trkpt lat="43.67488" lon="6.97802">
        <ele>384.1689453125</ele>
        <time>2020-05-14T13:26:37Z</time>
      </trkpt>
      <trkpt lat="43.67486" lon="6.97803">
        <ele>383.8984375</ele>
        <time>2020-05-14T13:26:38Z</time>
      </trkpt>
      <trkpt lat="43.67485" lon="6.97805">
        <ele>398.32904052734</ele>
        <time>2020-05-14T13:26:39Z</time>
      </trkpt>
      <trkpt lat="43.67483" lon="6.97807">
        <ele>394.16625976562</ele>
        <time>2020-05-14T13:26:40Z</time>
      </trkpt>
      <trkpt lat="43.67482" lon="6.97809">
        <ele>394.68786621094</ele>
        <time>2020-05-14T13:26:41Z</time>
      </trkpt>
      <trkpt lat="43.6748" lon="6.97811">
        <ele>396.65515136719</ele>
        <time>2020-05-14T13:26:42Z</time>
      </trkpt>
      <trkpt lat="43.67478" lon="6.97813">
        <ele>395.04357910156</ele>
        <time>2020-05-14T13:26:43Z</time>
      </trkpt>
      <trkpt lat="43.67477" lon="6.97815">
        <ele>396.39691162109</ele>
        <time>2020-05-14T13:26:44Z</time>
      </trkpt>
      <trkpt lat="43.67475" lon="6.97817">
        <ele>386.81280517578</ele>
        <time>2020-05-14T13:26:45Z</time>
      </trkpt>
      <trkpt lat="43.67474" lon="6.97819">
        <ele>387.80236816406</ele>
        <time>2020-05-14T13:26:46Z</time>
      </trkpt>
      <trkpt lat="43.67472" lon="6.97822">
        <ele>389.88159179688</ele>
        <time>2020-05-14T13:26:47Z</time>
      </trkpt>
      <trkpt lat="43.6747" lon="6.97824">
        <ele>388.21154785156</ele>
        <time>2020-05-14T13:26:48Z</time>
      </trkpt>
      <trkpt lat="43.67468" lon="6.97826">
        <ele>387.79638671875</ele>
        <time>2020-05-14T13:26:49Z</time>
      </trkpt>
      <trkpt lat="43.67465" lon="6.97827">
        <ele>385.57836914062</ele>
        <time>2020-05-14T13:26:50Z</time>
      </trkpt>
      <trkpt lat="43.67463" lon="6.97828">
        <ele>385.13525390625</ele>
        <time>2020-05-14T13:26:51Z</time>
      </trkpt>
      <trkpt lat="43.6746" lon="6.97828">
        <ele>386.28002929688</ele>
        <time>2020-05-14T13:26:52Z</time>
      </trkpt>
      <trkpt lat="43.67458" lon="6.97828">
        <ele>389.67065429688</ele>
        <time>2020-05-14T13:26:53Z</time>
      </trkpt>
      <trkpt lat="43.67455" lon="6.97827">
        <ele>388.60876464844</ele>
        <time>2020-05-14T13:26:54Z</time>
      </trkpt>
      <trkpt lat="43.67453" lon="6.97825">
        <ele>389.09716796875</ele>
        <time>2020-05-14T13:26:55Z</time>
      </trkpt>
      <trkpt lat="43.67451" lon="6.97822">
        <ele>404.22802734375</ele>
        <time>2020-05-14T13:26:56Z</time>
      </trkpt>
      <trkpt lat="43.6745" lon="6.97819">
        <ele>398.41784667969</ele>
        <time>2020-05-14T13:26:57Z</time>
      </trkpt>
      <trkpt lat="43.67449" lon="6.97816">
        <ele>398.25927734375</ele>
        <time>2020-05-14T13:26:58Z</time>
      </trkpt>
      <trkpt lat="43.67449" lon="6.97812">
        <ele>395.97479248047</ele>
        <time>2020-05-14T13:26:59Z</time>
      </trkpt>
      <trkpt lat="43.67449" lon="6.97809">
        <ele>391.04827880859</ele>
        <time>2020-05-14T13:27:00Z</time>
      </trkpt>
      <trkpt lat="43.67451" lon="6.97805">
        <ele>390.65576171875</ele>
        <time>2020-05-14T13:27:01Z</time>
      </trkpt>
      <trkpt lat="43.67453" lon="6.97802">
        <ele>389.92449951172</ele>
        <time>2020-05-14T13:27:02Z</time>
      </trkpt>
      <trkpt lat="43.67455" lon="6.97799">
        <ele>381.55114746094</ele>
        <time>2020-05-14T13:27:03Z</time>
      </trkpt>
      <trkpt lat="43.67457" lon="6.97797">
        <ele>383.54272460938</ele>
        <time>2020-05-14T13:27:04Z</time>
      </trkpt>
      <trkpt lat="43.67459" lon="6.97796">
        <ele>383.73706054688</ele>
        <time>2020-05-14T13:27:05Z</time>
      </trkpt>
      <trkpt lat="43.67461" lon="6.97794">
        <ele>385.18054199219</ele>
        <time>2020-05-14T13:27:06Z</time>
      </trkpt>
      <trkpt lat="43.67464" lon="6.97792">
        <ele>385.02624511719</ele>
        <time>2020-05-14T13:27:07Z</time>
      </trkpt>
      <trkpt lat="43.67466" lon="6.9779">
        <ele>384.87390136719</ele>
        <time>2020-05-14T13:27:08Z</time>
      </trkpt>
      <trkpt lat="43.67469" lon="6.97789">
        <ele>386.29455566406</ele>
        <time>2020-05-14T13:27:09Z</time>
      </trkpt>
      <trkpt lat="43.67471" lon="6.97787">
        <ele>385.376953125</ele>
        <time>2020-05-14T13:27:10Z</time>
      </trkpt>
      <trkpt lat="43.67474" lon="6.97785">
        <ele>399.38854980469</ele>
        <time>2020-05-14T13:27:11Z</time>
      </trkpt>
      <trkpt lat="43.67476" lon="6.97783">
        <ele>398.76147460938</ele>
        <time>2020-05-14T13:27:12Z</time>
      </trkpt>
      <trkpt lat="43.67478" lon="6.97781">
        <ele>399.57696533203</ele>
        <time>2020-05-14T13:27:13Z</time>
      </trkpt>
      <trkpt lat="43.6748" lon="6.97779">
        <ele>398.22271728516</ele>
        <time>2020-05-14T13:27:14Z</time>
      </trkpt>
      <trkpt lat="43.67483" lon="6.97777">
        <ele>398.61669921875</ele>
        <time>2020-05-14T13:27:15Z</time>
      </trkpt>
      <trkpt lat="43.67485" lon="6.97775">
        <ele>396.92761230469</ele>
        <time>2020-05-14T13:27:16Z</time>
      </trkpt>
      <trkpt lat="43.67487" lon="6.97774">
        <ele>388.93884277344</ele>
        <time>2020-05-14T13:27:17Z</time>
      </trkpt>
      <trkpt lat="43.6749" lon="6.97772">
        <ele>385.52880859375</ele>
        <time>2020-05-14T13:27:18Z</time>
      </trkpt>
      <trkpt lat="43.67492" lon="6.9777">
        <ele>399.82946777344</ele>
        <time>2020-05-14T13:27:19Z</time>
      </trkpt>
      <trkpt lat="43.67494" lon="6.97767">
        <ele>397.26916503906</ele>
        <time>2020-05-14T13:27:20Z</time>
      </trkpt>
      <trkpt lat="43.67496" lon="6.97766">
        <ele>393.71905517578</ele>
        <time>2020-05-14T13:27:21Z</time>
      </trkpt>
      <trkpt lat="43.67498" lon="6.97764">
        <ele>393.94714355469</ele>
        <time>2020-05-14T13:27:22Z</time>
      </trkpt>
      <trkpt lat="43.675" lon="6.97762">
        <ele>390.70886230469</ele>
        <time>2020-05-14T13:27:23Z</time>
      </trkpt>
      <trkpt lat="43.67502" lon="6.97761">
        <ele>388.51538085938</ele>
        <time>2020-05-14T13:27:24Z</time>
      </trkpt>
      <trkpt lat="43.67504" lon="6.97759">
        <ele>388.45971679688</ele>
        <time>2020-05-14T13:27:25Z</time>
      </trkpt>
      <trkpt lat="43.67507" lon="6.97757">
        <ele>381.07025146484</ele>
        <time>2020-05-14T13:27:26Z</time>
      </trkpt>
      <trkpt lat="43.67509" lon="6.97755">
        <ele>380.1328125</ele>
        <time>2020-05-14T13:27:27Z</time>
      </trkpt>
      <trkpt lat="43.67512" lon="6.97753">
        <ele>381.09509277344</ele>
        <time>2020-05-14T13:27:28Z</time>
      </trkpt>
      <trkpt lat="43.67514" lon="6.97751">
        <ele>395.40075683594</ele>
        <time>2020-05-14T13:27:29Z</time>
      </trkpt>
      <trkpt lat="43.67515" lon="6.97749">
        <ele>392.08807373047</ele>
        <time>2020-05-14T13:27:30Z</time>
      </trkpt>
      <trkpt lat="43.67517" lon="6.97746">
        <ele>394.03344726562</ele>
        <time>2020-05-14T13:27:31Z</time>
      </trkpt>
      <trkpt lat="43.67519" lon="6.97744">
        <ele>394.74322509766</ele>
        <time>2020-05-14T13:27:32Z</time>
      </trkpt>
      <trkpt lat="43.67521" lon="6.97742">
        <ele>387.46325683594</ele>
        <time>2020-05-14T13:27:33Z</time>
      </trkpt>
      <trkpt lat="43.67522" lon="6.97739">
        <ele>386.48229980469</ele>
        <time>2020-05-14T13:27:34Z</time>
      </trkpt>
      <trkpt lat="43.67524" lon="6.97737">
        <ele>385.23498535156</ele>
        <time>2020-05-14T13:27:35Z</time>
      </trkpt>
      <trkpt lat="43.67526" lon="6.97735">
        <ele>382.66644287109</ele>
        <time>2020-05-14T13:27:36Z</time>
      </trkpt>
      <trkpt lat="43.67527" lon="6.97733">
        <ele>382.79571533203</ele>
        <time>2020-05-14T13:27:37Z</time>
      </trkpt>
      <trkpt lat="43.67529" lon="6.9773">
        <ele>397.28533935547</ele>
        <time>2020-05-14T13:27:38Z</time>
      </trkpt>
      <trkpt lat="43.6753" lon="6.97728">
        <ele>395.46728515625</ele>
        <time>2020-05-14T13:27:39Z</time>
      </trkpt>
      <trkpt lat="43.67532" lon="6.97725">
        <ele>394.45031738281</ele>
        <time>2020-05-14T13:27:40Z</time>
      </trkpt>
      <trkpt lat="43.67534" lon="6.97722">
        <ele>397.19378662109</ele>
        <time>2020-05-14T13:27:41Z</time>
      </trkpt>
      <trkpt lat="43.67535" lon="6.97719">
        <ele>398.68383789062</ele>
        <time>2020-05-14T13:27:42Z</time>
      </trkpt>
      <trkpt lat="43.67537" lon="6.97716">
        <ele>398.55224609375</ele>
        <time>2020-05-14T13:27:43Z</time>
      </trkpt>
      <trkpt lat="43.67537" lon="6.97713">
        <ele>400.26507568359</ele>
        <time>2020-05-14T13:27:44Z</time>
      </trkpt>
      <trkpt lat="43.67538" lon="6.9771">
        <ele>403.52203369141</ele>
        <time>2020-05-14T13:27:45Z</time>
      </trkpt>
      <trkpt lat="43.67539" lon="6.97707">
        <ele>403.76770019531</ele>
        <time>2020-05-14T13:27:46Z</time>
      </trkpt>
      <trkpt lat="43.6754" lon="6.97704">
        <ele>406.55139160156</ele>
        <time>2020-05-14T13:27:47Z</time>
      </trkpt>
      <trkpt lat="43.67541" lon="6.97701">
        <ele>405.6513671875</ele>
        <time>2020-05-14T13:27:48Z</time>
      </trkpt>
      <trkpt lat="43.67542" lon="6.97698">
        <ele>404.33966064453</ele>
        <time>2020-05-14T13:27:49Z</time>
      </trkpt>
      <trkpt lat="43.67544" lon="6.97695">
        <ele>404.42364501953</ele>
        <time>2020-05-14T13:27:50Z</time>
      </trkpt>
      <trkpt lat="43.67545" lon="6.97692">
        <ele>403.57067871094</ele>
        <time>2020-05-14T13:27:51Z</time>
      </trkpt>
      <trkpt lat="43.67547" lon="6.97689">
        <ele>404.22314453125</ele>
        <time>2020-05-14T13:27:52Z</time>
      </trkpt>
      <trkpt lat="43.67548" lon="6.97686">
        <ele>406.85400390625</ele>
        <time>2020-05-14T13:27:53Z</time>
      </trkpt>
      <trkpt lat="43.6755" lon="6.97684">
        <ele>403.15246582031</ele>
        <time>2020-05-14T13:27:54Z</time>
      </trkpt>
      <trkpt lat="43.67552" lon="6.97682">
        <ele>402.61431884766</ele>
        <time>2020-05-14T13:27:55Z</time>
      </trkpt>
      <trkpt lat="43.67554" lon="6.9768">
        <ele>405.51550292969</ele>
        <time>2020-05-14T13:27:56Z</time>
      </trkpt>
      <trkpt lat="43.67557" lon="6.97678">
        <ele>406.46661376953</ele>
        <time>2020-05-14T13:27:57Z</time>
      </trkpt>
      <trkpt lat="43.67559" lon="6.97676">
        <ele>393.59289550781</ele>
        <time>2020-05-14T13:27:58Z</time>
      </trkpt>
      <trkpt lat="43.6756" lon="6.97675">
        <ele>391.96716308594</ele>
        <time>2020-05-14T13:27:59Z</time>
      </trkpt>
      <trkpt lat="43.67562" lon="6.97673">
        <ele>394.45953369141</ele>
        <time>2020-05-14T13:28:00Z</time>
      </trkpt>
      <trkpt lat="43.67565" lon="6.97672">
        <ele>394.56701660156</ele>
        <time>2020-05-14T13:28:01Z</time>
      </trkpt>
      <trkpt lat="43.67567" lon="6.9767">
        <ele>391.8349609375</ele>
        <time>2020-05-14T13:28:02Z</time>
      </trkpt>
      <trkpt lat="43.67569" lon="6.97669">
        <ele>392.35668945312</ele>
        <time>2020-05-14T13:28:03Z</time>
      </trkpt>
      <trkpt lat="43.67571" lon="6.97667">
        <ele>393.32861328125</ele>
        <time>2020-05-14T13:28:04Z</time>
      </trkpt>
      <trkpt lat="43.67573" lon="6.97666">
        <ele>394.51843261719</ele>
        <time>2020-05-14T13:28:05Z</time>
      </trkpt>
      <trkpt lat="43.67576" lon="6.97664">
        <ele>394.13586425781</ele>
        <time>2020-05-14T13:28:06Z</time>
      </trkpt>
      <trkpt lat="43.67578" lon="6.97661">
        <ele>391.41943359375</ele>
        <time>2020-05-14T13:28:07Z</time>
      </trkpt>
      <trkpt lat="43.67579" lon="6.97659">
        <ele>388.93536376953</ele>
        <time>2020-05-14T13:28:08Z</time>
      </trkpt>
      <trkpt lat="43.67581" lon="6.97656">
        <ele>385.15576171875</ele>
        <time>2020-05-14T13:28:09Z</time>
      </trkpt>
      <trkpt lat="43.67583" lon="6.97653">
        <ele>383.51416015625</ele>
        <time>2020-05-14T13:28:10Z</time>
      </trkpt>
      <trkpt lat="43.67584" lon="6.97651">
        <ele>382.99877929688</ele>
        <time>2020-05-14T13:28:11Z</time>
      </trkpt>
      <trkpt lat="43.67586" lon="6.97648">
        <ele>385.31958007812</ele>
        <time>2020-05-14T13:28:12Z</time>
      </trkpt>
      <trkpt lat="43.67588" lon="6.97645">
        <ele>386.37432861328</ele>
        <time>2020-05-14T13:28:13Z</time>
      </trkpt>
      <trkpt lat="43.6759" lon="6.97641">
        <ele>386.83227539062</ele>
        <time>2020-05-14T13:28:14Z</time>
      </trkpt>
      <trkpt lat="43.67592" lon="6.97638">
        <ele>387.24438476562</ele>
        <time>2020-05-14T13:28:15Z</time>
      </trkpt>
      <trkpt lat="43.67594" lon="6.97635">
        <ele>403.50024414062</ele>
        <time>2020-05-14T13:28:16Z</time>
      </trkpt>
      <trkpt lat="43.67595" lon="6.97632">
        <ele>396.79162597656</ele>
        <time>2020-05-14T13:28:17Z</time>
      </trkpt>
      <trkpt lat="43.67597" lon="6.97628">
        <ele>397.09106445312</ele>
        <time>2020-05-14T13:28:18Z</time>
      </trkpt>
      <trkpt lat="43.67599" lon="6.97625">
        <ele>400.31414794922</ele>
        <time>2020-05-14T13:28:19Z</time>
      </trkpt>
      <trkpt lat="43.67601" lon="6.97622">
        <ele>402.65887451172</ele>
        <time>2020-05-14T13:28:20Z</time>
      </trkpt>
      <trkpt lat="43.67603" lon="6.97618">
        <ele>392.97143554688</ele>
        <time>2020-05-14T13:28:21Z</time>
      </trkpt>
      <trkpt lat="43.67605" lon="6.97614">
        <ele>388.57580566406</ele>
        <time>2020-05-14T13:28:22Z</time>
      </trkpt>
      <trkpt lat="43.67607" lon="6.9761">
        <ele>386.05230712891</ele>
        <time>2020-05-14T13:28:23Z</time>
      </trkpt>
      <trkpt lat="43.67609" lon="6.97605">
        <ele>385.20056152344</ele>
        <time>2020-05-14T13:28:24Z</time>
      </trkpt>
      <trkpt lat="43.67611" lon="6.97601">
        <ele>386.33758544922</ele>
        <time>2020-05-14T13:28:25Z</time>
      </trkpt>
      <trkpt lat="43.67613" lon="6.97597">
        <ele>388.42309570312</ele>
        <time>2020-05-14T13:28:26Z</time>
      </trkpt>
      <trkpt lat="43.67614" lon="6.97592">
        <ele>387.41668701172</ele>
        <time>2020-05-14T13:28:27Z</time>
      </trkpt>
      <trkpt lat="43.67616" lon="6.97587">
        <ele>387.61511230469</ele>
        <time>2020-05-14T13:28:28Z</time>
      </trkpt>
      <trkpt lat="43.67617" lon="6.97582">
        <ele>405.28363037109</ele>
        <time>2020-05-14T13:28:29Z</time>
      </trkpt>
      <trkpt lat="43.67618" lon="6.97577">
        <ele>402.99816894531</ele>
        <time>2020-05-14T13:28:30Z</time>
      </trkpt>
      <trkpt lat="43.67619" lon="6.97571">
        <ele>403.73291015625</ele>
        <time>2020-05-14T13:28:31Z</time>
      </trkpt>
      <trkpt lat="43.6762" lon="6.97565">
        <ele>403.47320556641</ele>
        <time>2020-05-14T13:28:32Z</time>
      </trkpt>
      <trkpt lat="43.67621" lon="6.9756">
        <ele>400.87561035156</ele>
        <time>2020-05-14T13:28:33Z</time>
      </trkpt>
      <trkpt lat="43.67622" lon="6.97554">
        <ele>391.68341064453</ele>
        <time>2020-05-14T13:28:34Z</time>
      </trkpt>
      <trkpt lat="43.67623" lon="6.97547">
        <ele>393.40649414062</ele>
        <time>2020-05-14T13:28:35Z</time>
      </trkpt>
      <trkpt lat="43.67624" lon="6.97542">
        <ele>409.02203369141</ele>
        <time>2020-05-14T13:28:36Z</time>
      </trkpt>
      <trkpt lat="43.67626" lon="6.97537">
        <ele>404.60510253906</ele>
        <time>2020-05-14T13:28:37Z</time>
      </trkpt>
      <trkpt lat="43.67628" lon="6.97532">
        <ele>405.99645996094</ele>
        <time>2020-05-14T13:28:38Z</time>
      </trkpt>
      <trkpt lat="43.6763" lon="6.97527">
        <ele>405.12097167969</ele>
        <time>2020-05-14T13:28:39Z</time>
      </trkpt>
      <trkpt lat="43.67633" lon="6.97523">
        <ele>390.93200683594</ele>
        <time>2020-05-14T13:28:40Z</time>
      </trkpt>
      <trkpt lat="43.67636" lon="6.9752">
        <ele>389.61376953125</ele>
        <time>2020-05-14T13:28:41Z</time>
      </trkpt>
      <trkpt lat="43.67639" lon="6.97518">
        <ele>387.44799804688</ele>
        <time>2020-05-14T13:28:42Z</time>
      </trkpt>
      <trkpt lat="43.67644" lon="6.97515">
        <ele>388.20391845703</ele>
        <time>2020-05-14T13:28:43Z</time>
      </trkpt>
      <trkpt lat="43.67647" lon="6.9751">
        <ele>385.63940429688</ele>
        <time>2020-05-14T13:28:44Z</time>
      </trkpt>
      <trkpt lat="43.67651" lon="6.97508">
        <ele>385.92761230469</ele>
        <time>2020-05-14T13:28:45Z</time>
      </trkpt>
      <trkpt lat="43.67654" lon="6.97504">
        <ele>402.78527832031</ele>
        <time>2020-05-14T13:28:46Z</time>
      </trkpt>
      <trkpt lat="43.67658" lon="6.97501">
        <ele>400.84533691406</ele>
        <time>2020-05-14T13:28:47Z</time>
      </trkpt>
      <trkpt lat="43.67662" lon="6.97498">
        <ele>403.98278808594</ele>
        <time>2020-05-14T13:28:48Z</time>
      </trkpt>
      <trkpt lat="43.67666" lon="6.97496">
        <ele>403.56372070312</ele>
        <time>2020-05-14T13:28:49Z</time>
      </trkpt>
      <trkpt lat="43.6767" lon="6.97493">
        <ele>405.20288085938</ele>
        <time>2020-05-14T13:28:50Z</time>
      </trkpt>
      <trkpt lat="43.67674" lon="6.97491">
        <ele>391.83422851562</ele>
        <time>2020-05-14T13:28:51Z</time>
      </trkpt>
      <trkpt lat="43.67678" lon="6.97489">
        <ele>387.90270996094</ele>
        <time>2020-05-14T13:28:52Z</time>
      </trkpt>
      <trkpt lat="43.67683" lon="6.97486">
        <ele>404.9873046875</ele>
        <time>2020-05-14T13:28:53Z</time>
      </trkpt>
      <trkpt lat="43.67686" lon="6.97485">
        <ele>396.01934814453</ele>
        <time>2020-05-14T13:28:54Z</time>
      </trkpt>
      <trkpt lat="43.6769" lon="6.97482">
        <ele>393.83508300781</ele>
        <time>2020-05-14T13:28:55Z</time>
      </trkpt>
      <trkpt lat="43.67694" lon="6.9748">
        <ele>393.46759033203</ele>
        <time>2020-05-14T13:28:56Z</time>
      </trkpt>
      <trkpt lat="43.67697" lon="6.97478">
        <ele>407.19482421875</ele>
        <time>2020-05-14T13:28:57Z</time>
      </trkpt>
      <trkpt lat="43.67701" lon="6.97476">
        <ele>407.64068603516</ele>
        <time>2020-05-14T13:28:58Z</time>
      </trkpt>
      <trkpt lat="43.67704" lon="6.97475">
        <ele>406.92785644531</ele>
        <time>2020-05-14T13:28:59Z</time>
      </trkpt>
      <trkpt lat="43.67708" lon="6.97474">
        <ele>405.86853027344</ele>
        <time>2020-05-14T13:29:00Z</time>
      </trkpt>
      <trkpt lat="43.67712" lon="6.97472">
        <ele>405.20947265625</ele>
        <time>2020-05-14T13:29:01Z</time>
      </trkpt>
      <trkpt lat="43.67716" lon="6.97471">
        <ele>395.54803466797</ele>
        <time>2020-05-14T13:29:02Z</time>
      </trkpt>
      <trkpt lat="43.67719" lon="6.9747">
        <ele>394.22924804688</ele>
        <time>2020-05-14T13:29:03Z</time>
      </trkpt>
      <trkpt lat="43.67723" lon="6.97469">
        <ele>394.82495117188</ele>
        <time>2020-05-14T13:29:04Z</time>
      </trkpt>
      <trkpt lat="43.67727" lon="6.97467">
        <ele>394.32495117188</ele>
        <time>2020-05-14T13:29:05Z</time>
      </trkpt>
      <trkpt lat="43.6773" lon="6.97467">
        <ele>394.10217285156</ele>
        <time>2020-05-14T13:29:06Z</time>
      </trkpt>
      <trkpt lat="43.67734" lon="6.97466">
        <ele>392.98699951172</ele>
        <time>2020-05-14T13:29:07Z</time>
      </trkpt>
      <trkpt lat="43.67737" lon="6.97465">
        <ele>392.0087890625</ele>
        <time>2020-05-14T13:29:08Z</time>
      </trkpt>
      <trkpt lat="43.67741" lon="6.97464">
        <ele>390.92980957031</ele>
        <time>2020-05-14T13:29:09Z</time>
      </trkpt>
      <trkpt lat="43.67745" lon="6.97463">
        <ele>392.90344238281</ele>
        <time>2020-05-14T13:29:10Z</time>
      </trkpt>
      <trkpt lat="43.67748" lon="6.97462">
        <ele>396.18255615234</ele>
        <time>2020-05-14T13:29:11Z</time>
      </trkpt>
      <trkpt lat="43.67752" lon="6.97461">
        <ele>395.5849609375</ele>
        <time>2020-05-14T13:29:12Z</time>
      </trkpt>
      <trkpt lat="43.67755" lon="6.97459">
        <ele>397.51013183594</ele>
        <time>2020-05-14T13:29:13Z</time>
      </trkpt>
      <trkpt lat="43.67758" lon="6.97457">
        <ele>400.36102294922</ele>
        <time>2020-05-14T13:29:14Z</time>
      </trkpt>
      <trkpt lat="43.6776" lon="6.97454">
        <ele>397.39501953125</ele>
        <time>2020-05-14T13:29:15Z</time>
      </trkpt>
      <trkpt lat="43.67763" lon="6.97451">
        <ele>395.88000488281</ele>
        <time>2020-05-14T13:29:16Z</time>
      </trkpt>
      <trkpt lat="43.67766" lon="6.97449">
        <ele>393.6669921875</ele>
        <time>2020-05-14T13:29:17Z</time>
      </trkpt>
      <trkpt lat="43.67769" lon="6.97447">
        <ele>386.65173339844</ele>
        <time>2020-05-14T13:29:18Z</time>
      </trkpt>
      <trkpt lat="43.67772" lon="6.97446">
        <ele>404.09338378906</ele>
        <time>2020-05-14T13:29:19Z</time>
      </trkpt>
      <trkpt lat="43.67775" lon="6.97444">
        <ele>400.0859375</ele>
        <time>2020-05-14T13:29:20Z</time>
      </trkpt>
      <trkpt lat="43.67778" lon="6.97443">
        <ele>386.76971435547</ele>
        <time>2020-05-14T13:29:21Z</time>
      </trkpt>
      <trkpt lat="43.67782" lon="6.97442">
        <ele>385.33312988281</ele>
        <time>2020-05-14T13:29:22Z</time>
      </trkpt>
      <trkpt lat="43.67785" lon="6.97441">
        <ele>386.18188476562</ele>
        <time>2020-05-14T13:29:23Z</time>
      </trkpt>
      <trkpt lat="43.67789" lon="6.97439">
        <ele>386.31134033203</ele>
        <time>2020-05-14T13:29:24Z</time>
      </trkpt>
      <trkpt lat="43.67792" lon="6.97438">
        <ele>386.71856689453</ele>
        <time>2020-05-14T13:29:25Z</time>
      </trkpt>
      <trkpt lat="43.67796" lon="6.97437">
        <ele>385.10205078125</ele>
        <time>2020-05-14T13:29:26Z</time>
      </trkpt>
      <trkpt lat="43.67799" lon="6.97436">
        <ele>386.326171875</ele>
        <time>2020-05-14T13:29:27Z</time>
      </trkpt>
      <trkpt lat="43.67802" lon="6.97435">
        <ele>389.94189453125</ele>
        <time>2020-05-14T13:29:28Z</time>
      </trkpt>
      <trkpt lat="43.67806" lon="6.97433">
        <ele>391.9814453125</ele>
        <time>2020-05-14T13:29:29Z</time>
      </trkpt>
      <trkpt lat="43.67809" lon="6.97431">
        <ele>390.90112304688</ele>
        <time>2020-05-14T13:29:30Z</time>
      </trkpt>
      <trkpt lat="43.67813" lon="6.9743">
        <ele>385.36584472656</ele>
        <time>2020-05-14T13:29:31Z</time>
      </trkpt>
      <trkpt lat="43.67816" lon="6.97428">
        <ele>399.2890625</ele>
        <time>2020-05-14T13:29:32Z</time>
      </trkpt>
      <trkpt lat="43.6782" lon="6.97426">
        <ele>395.98779296875</ele>
        <time>2020-05-14T13:29:33Z</time>
      </trkpt>
      <trkpt lat="43.67823" lon="6.97424">
        <ele>398.59558105469</ele>
        <time>2020-05-14T13:29:34Z</time>
      </trkpt>
      <trkpt lat="43.67826" lon="6.97423">
        <ele>402.53479003906</ele>
        <time>2020-05-14T13:29:35Z</time>
      </trkpt>
      <trkpt lat="43.67829" lon="6.97422">
        <ele>402.30303955078</ele>
        <time>2020-05-14T13:29:36Z</time>
      </trkpt>
      <trkpt lat="43.67833" lon="6.9742">
        <ele>401.58276367188</ele>
        <time>2020-05-14T13:29:37Z</time>
      </trkpt>
      <trkpt lat="43.67836" lon="6.97418">
        <ele>403.96154785156</ele>
        <time>2020-05-14T13:29:38Z</time>
      </trkpt>
      <trkpt lat="43.67839" lon="6.97416">
        <ele>401.17340087891</ele>
        <time>2020-05-14T13:29:39Z</time>
      </trkpt>
      <trkpt lat="43.67842" lon="6.97414">
        <ele>400.68310546875</ele>
        <time>2020-05-14T13:29:40Z</time>
      </trkpt>
      <trkpt lat="43.67845" lon="6.9741">
        <ele>391.38787841797</ele>
        <time>2020-05-14T13:29:41Z</time>
      </trkpt>
      <trkpt lat="43.67848" lon="6.97407">
        <ele>394.05444335938</ele>
        <time>2020-05-14T13:29:42Z</time>
      </trkpt>
      <trkpt lat="43.6785" lon="6.97403">
        <ele>394.57531738281</ele>
        <time>2020-05-14T13:29:43Z</time>
      </trkpt>
      <trkpt lat="43.67852" lon="6.97399">
        <ele>395.38305664062</ele>
        <time>2020-05-14T13:29:44Z</time>
      </trkpt>
      <trkpt lat="43.67855" lon="6.97394">
        <ele>391.94702148438</ele>
        <time>2020-05-14T13:29:45Z</time>
      </trkpt>
      <trkpt lat="43.67857" lon="6.97389">
        <ele>395.13568115234</ele>
        <time>2020-05-14T13:29:46Z</time>
      </trkpt>
      <trkpt lat="43.67859" lon="6.97384">
        <ele>396.91540527344</ele>
        <time>2020-05-14T13:29:47Z</time>
      </trkpt>
      <trkpt lat="43.67861" lon="6.97379">
        <ele>399.89477539062</ele>
        <time>2020-05-14T13:29:48Z</time>
      </trkpt>
      <trkpt lat="43.67862" lon="6.97374">
        <ele>399.6669921875</ele>
        <time>2020-05-14T13:29:49Z</time>
      </trkpt>
      <trkpt lat="43.67864" lon="6.97369">
        <ele>395.63024902344</ele>
        <time>2020-05-14T13:29:50Z</time>
      </trkpt>
      <trkpt lat="43.67865" lon="6.97364">
        <ele>392.78576660156</ele>
        <time>2020-05-14T13:29:51Z</time>
      </trkpt>
      <trkpt lat="43.67865" lon="6.97358">
        <ele>411.6220703125</ele>
        <time>2020-05-14T13:29:52Z</time>
      </trkpt>
      <trkpt lat="43.67866" lon="6.97352">
        <ele>407.29772949219</ele>
        <time>2020-05-14T13:29:53Z</time>
      </trkpt>
      <trkpt lat="43.67867" lon="6.97347">
        <ele>406.74267578125</ele>
        <time>2020-05-14T13:29:54Z</time>
      </trkpt>
      <trkpt lat="43.67867" lon="6.97339">
        <ele>405.5380859375</ele>
        <time>2020-05-14T13:29:55Z</time>
      </trkpt>
      <trkpt lat="43.67869" lon="6.97334">
        <ele>405.34130859375</ele>
        <time>2020-05-14T13:29:56Z</time>
      </trkpt>
      <trkpt lat="43.67873" lon="6.97331">
        <ele>394.912109375</ele>
        <time>2020-05-14T13:29:57Z</time>
      </trkpt>
      <trkpt lat="43.67877" lon="6.97331">
        <ele>396.5830078125</ele>
        <time>2020-05-14T13:29:58Z</time>
      </trkpt>
      <trkpt lat="43.67882" lon="6.97331">
        <ele>398.25122070312</ele>
        <time>2020-05-14T13:29:59Z</time>
      </trkpt>
      <trkpt lat="43.67888" lon="6.97333">
        <ele>393.15014648438</ele>
        <time>2020-05-14T13:30:00Z</time>
      </trkpt>
      <trkpt lat="43.67893" lon="6.97335">
        <ele>419.36706542969</ele>
        <time>2020-05-14T13:30:01Z</time>
      </trkpt>
      <trkpt lat="43.67897" lon="6.97338">
        <ele>444.64685058594</ele>
        <time>2020-05-14T13:30:02Z</time>
      </trkpt>
      <trkpt lat="43.67901" lon="6.97341">
        <ele>455.26147460938</ele>
        <time>2020-05-14T13:30:03Z</time>
      </trkpt>
      <trkpt lat="43.67906" lon="6.97343">
        <ele>456.69909667969</ele>
        <time>2020-05-14T13:30:04Z</time>
      </trkpt>
      <trkpt lat="43.6791" lon="6.97344">
        <ele>456.64636230469</ele>
        <time>2020-05-14T13:30:05Z</time>
      </trkpt>
      <trkpt lat="43.67915" lon="6.97343">
        <ele>456.48364257812</ele>
        <time>2020-05-14T13:30:06Z</time>
      </trkpt>
      <trkpt lat="43.6792" lon="6.97341">
        <ele>456.30712890625</ele>
        <time>2020-05-14T13:30:07Z</time>
      </trkpt>
      <trkpt lat="43.67924" lon="6.97338">
        <ele>456.40631103516</ele>
        <time>2020-05-14T13:30:08Z</time>
      </trkpt>
      <trkpt lat="43.67927" lon="6.97333">
        <ele>455.97009277344</ele>
        <time>2020-05-14T13:30:09Z</time>
      </trkpt>
      <trkpt lat="43.67929" lon="6.97327">
        <ele>455.87060546875</ele>
        <time>2020-05-14T13:30:10Z</time>
      </trkpt>
      <trkpt lat="43.67929" lon="6.97322">
        <ele>455.87573242188</ele>
        <time>2020-05-14T13:30:11Z</time>
      </trkpt>
      <trkpt lat="43.67929" lon="6.97315">
        <ele>456.11096191406</ele>
        <time>2020-05-14T13:30:12Z</time>
      </trkpt>
      <trkpt lat="43.6793" lon="6.97309">
        <ele>455.92016601562</ele>
        <time>2020-05-14T13:30:13Z</time>
      </trkpt>
      <trkpt lat="43.6793" lon="6.97303">
        <ele>455.84173583984</ele>
        <time>2020-05-14T13:30:14Z</time>
      </trkpt>
      <trkpt lat="43.67932" lon="6.97298">
        <ele>455.90972900391</ele>
        <time>2020-05-14T13:30:15Z</time>
      </trkpt>
      <trkpt lat="43.67934" lon="6.97292">
        <ele>455.95416259766</ele>
        <time>2020-05-14T13:30:16Z</time>
      </trkpt>
      <trkpt lat="43.67937" lon="6.97287">
        <ele>456.08648681641</ele>
        <time>2020-05-14T13:30:17Z</time>
      </trkpt>
      <trkpt lat="43.67941" lon="6.97282">
        <ele>455.97027587891</ele>
        <time>2020-05-14T13:30:18Z</time>
      </trkpt>
      <trkpt lat="43.67944" lon="6.97278">
        <ele>456.34631347656</ele>
        <time>2020-05-14T13:30:19Z</time>
      </trkpt>
      <trkpt lat="43.67947" lon="6.97274">
        <ele>456.28875732422</ele>
        <time>2020-05-14T13:30:20Z</time>
      </trkpt>
      <trkpt lat="43.6795" lon="6.9727">
        <ele>455.97979736328</ele>
        <time>2020-05-14T13:30:21Z</time>
      </trkpt>
      <trkpt lat="43.67954" lon="6.97265">
        <ele>456.07800292969</ele>
        <time>2020-05-14T13:30:22Z</time>
      </trkpt>
      <trkpt lat="43.67956" lon="6.97261">
        <ele>450.22943115234</ele>
        <time>2020-05-14T13:30:23Z</time>
      </trkpt>
      <trkpt lat="43.67959" lon="6.97256">
        <ele>451.62170410156</ele>
        <time>2020-05-14T13:30:24Z</time>
      </trkpt>
      <trkpt lat="43.67962" lon="6.97252">
        <ele>451.96246337891</ele>
        <time>2020-05-14T13:30:25Z</time>
      </trkpt>
      <trkpt lat="43.67965" lon="6.97248">
        <ele>452.29504394531</ele>
        <time>2020-05-14T13:30:26Z</time>
      </trkpt>
      <trkpt lat="43.67968" lon="6.97244">
        <ele>451.94677734375</ele>
        <time>2020-05-14T13:30:27Z</time>
      </trkpt>
      <trkpt lat="43.67971" lon="6.97239">
        <ele>450.40026855469</ele>
        <time>2020-05-14T13:30:28Z</time>
      </trkpt>
      <trkpt lat="43.67974" lon="6.97235">
        <ele>450.14196777344</ele>
        <time>2020-05-14T13:30:29Z</time>
      </trkpt>
      <trkpt lat="43.67977" lon="6.9723">
        <ele>450.32763671875</ele>
        <time>2020-05-14T13:30:30Z</time>
      </trkpt>
      <trkpt lat="43.6798" lon="6.97226">
        <ele>450.73205566406</ele>
        <time>2020-05-14T13:30:31Z</time>
      </trkpt>
      <trkpt lat="43.67983" lon="6.97222">
        <ele>450.49768066406</ele>
        <time>2020-05-14T13:30:32Z</time>
      </trkpt>
      <trkpt lat="43.67986" lon="6.97218">
        <ele>450.97802734375</ele>
        <time>2020-05-14T13:30:33Z</time>
      </trkpt>
      <trkpt lat="43.67989" lon="6.97213">
        <ele>450.66552734375</ele>
        <time>2020-05-14T13:30:34Z</time>
      </trkpt>
      <trkpt lat="43.67992" lon="6.97209">
        <ele>450.94494628906</ele>
        <time>2020-05-14T13:30:35Z</time>
      </trkpt>
      <trkpt lat="43.67995" lon="6.97204">
        <ele>451.04504394531</ele>
        <time>2020-05-14T13:30:36Z</time>
      </trkpt>
      <trkpt lat="43.67998" lon="6.972">
        <ele>451.234375</ele>
        <time>2020-05-14T13:30:37Z</time>
      </trkpt>
      <trkpt lat="43.68001" lon="6.97196">
        <ele>450.64038085938</ele>
        <time>2020-05-14T13:30:38Z</time>
      </trkpt>
      <trkpt lat="43.68005" lon="6.97192">
        <ele>450.66467285156</ele>
        <time>2020-05-14T13:30:39Z</time>
      </trkpt>
      <trkpt lat="43.68007" lon="6.97188">
        <ele>450.97723388672</ele>
        <time>2020-05-14T13:30:40Z</time>
      </trkpt>
      <trkpt lat="43.6801" lon="6.97184">
        <ele>450.98461914062</ele>
        <time>2020-05-14T13:30:41Z</time>
      </trkpt>
      <trkpt lat="43.68014" lon="6.9718">
        <ele>450.55822753906</ele>
        <time>2020-05-14T13:30:42Z</time>
      </trkpt>
      <trkpt lat="43.68017" lon="6.97177">
        <ele>450.70196533203</ele>
        <time>2020-05-14T13:30:43Z</time>
      </trkpt>
      <trkpt lat="43.68021" lon="6.97174">
        <ele>450.86779785156</ele>
        <time>2020-05-14T13:30:44Z</time>
      </trkpt>
      <trkpt lat="43.68024" lon="6.97171">
        <ele>451.56671142578</ele>
        <time>2020-05-14T13:30:45Z</time>
      </trkpt>
      <trkpt lat="43.68028" lon="6.97169">
        <ele>451.44555664062</ele>
        <time>2020-05-14T13:30:46Z</time>
      </trkpt>
      <trkpt lat="43.68031" lon="6.97168">
        <ele>451.53869628906</ele>
        <time>2020-05-14T13:30:47Z</time>
      </trkpt>
      <trkpt lat="43.68034" lon="6.97167">
        <ele>451.70910644531</ele>
        <time>2020-05-14T13:30:48Z</time>
      </trkpt>
      <trkpt lat="43.68036" lon="6.97166">
        <ele>452.03686523438</ele>
        <time>2020-05-14T13:30:49Z</time>
      </trkpt>
      <trkpt lat="43.68037" lon="6.97165">
        <ele>452.95861816406</ele>
        <time>2020-05-14T13:30:50Z</time>
      </trkpt>
      <trkpt lat="43.68039" lon="6.97165">
        <ele>453.65905761719</ele>
        <time>2020-05-14T13:30:51Z</time>
      </trkpt>
      <trkpt lat="43.6804" lon="6.97165">
        <ele>454.11303710938</ele>
        <time>2020-05-14T13:30:52Z</time>
      </trkpt>
      <trkpt lat="43.68042" lon="6.97166">
        <ele>454.7314453125</ele>
        <time>2020-05-14T13:30:53Z</time>
      </trkpt>
      <trkpt lat="43.68044" lon="6.97166">
        <ele>453.2255859375</ele>
        <time>2020-05-14T13:30:54Z</time>
      </trkpt>
      <trkpt lat="43.68046" lon="6.97166">
        <ele>452.6728515625</ele>
        <time>2020-05-14T13:30:55Z</time>
      </trkpt>
      <trkpt lat="43.68049" lon="6.97166">
        <ele>452.55322265625</ele>
        <time>2020-05-14T13:30:56Z</time>
      </trkpt>
      <trkpt lat="43.68052" lon="6.97166">
        <ele>448.18511962891</ele>
        <time>2020-05-14T13:30:57Z</time>
      </trkpt>
      <trkpt lat="43.68055" lon="6.97166">
        <ele>446.96002197266</ele>
        <time>2020-05-14T13:30:58Z</time>
      </trkpt>
      <trkpt lat="43.68059" lon="6.97167">
        <ele>447.24584960938</ele>
        <time>2020-05-14T13:30:59Z</time>
      </trkpt>
      <trkpt lat="43.68062" lon="6.97168">
        <ele>447.525390625</ele>
        <time>2020-05-14T13:31:00Z</time>
      </trkpt>
      <trkpt lat="43.68065" lon="6.97169">
        <ele>448.97180175781</ele>
        <time>2020-05-14T13:31:01Z</time>
      </trkpt>
      <trkpt lat="43.68068" lon="6.97171">
        <ele>456.02233886719</ele>
        <time>2020-05-14T13:31:02Z</time>
      </trkpt>
      <trkpt lat="43.68071" lon="6.97173">
        <ele>453.85345458984</ele>
        <time>2020-05-14T13:31:03Z</time>
      </trkpt>
      <trkpt lat="43.68074" lon="6.97176">
        <ele>453.80487060547</ele>
        <time>2020-05-14T13:31:04Z</time>
      </trkpt>
      <trkpt lat="43.68076" lon="6.97179">
        <ele>456.1513671875</ele>
        <time>2020-05-14T13:31:05Z</time>
      </trkpt>
      <trkpt lat="43.68079" lon="6.97182">
        <ele>456.58294677734</ele>
        <time>2020-05-14T13:31:06Z</time>
      </trkpt>
      <trkpt lat="43.68082" lon="6.97184">
        <ele>458.36059570312</ele>
        <time>2020-05-14T13:31:07Z</time>
      </trkpt>
      <trkpt lat="43.68086" lon="6.97186">
        <ele>458.61010742188</ele>
        <time>2020-05-14T13:31:08Z</time>
      </trkpt>
      <trkpt lat="43.6809" lon="6.97186">
        <ele>458.97033691406</ele>
        <time>2020-05-14T13:31:09Z</time>
      </trkpt>
      <trkpt lat="43.68094" lon="6.97186">
        <ele>457.20941162109</ele>
        <time>2020-05-14T13:31:10Z</time>
      </trkpt>
      <trkpt lat="43.68098" lon="6.97185">
        <ele>456.81237792969</ele>
        <time>2020-05-14T13:31:11Z</time>
      </trkpt>
      <trkpt lat="43.68102" lon="6.97184">
        <ele>459.07287597656</ele>
        <time>2020-05-14T13:31:12Z</time>
      </trkpt>
      <trkpt lat="43.68105" lon="6.97182">
        <ele>459.32861328125</ele>
        <time>2020-05-14T13:31:13Z</time>
      </trkpt>
      <trkpt lat="43.68109" lon="6.9718">
        <ele>459.3037109375</ele>
        <time>2020-05-14T13:31:14Z</time>
      </trkpt>
      <trkpt lat="43.68112" lon="6.97177">
        <ele>456.81579589844</ele>
        <time>2020-05-14T13:31:15Z</time>
      </trkpt>
      <trkpt lat="43.68115" lon="6.97174">
        <ele>457.142578125</ele>
        <time>2020-05-14T13:31:16Z</time>
      </trkpt>
      <trkpt lat="43.68119" lon="6.97171">
        <ele>457.56506347656</ele>
        <time>2020-05-14T13:31:17Z</time>
      </trkpt>
      <trkpt lat="43.68122" lon="6.97168">
        <ele>460.13000488281</ele>
        <time>2020-05-14T13:31:18Z</time>
      </trkpt>
      <trkpt lat="43.68124" lon="6.97165">
        <ele>460.52911376953</ele>
        <time>2020-05-14T13:31:19Z</time>
      </trkpt>
      <trkpt lat="43.68127" lon="6.97162">
        <ele>458.24499511719</ele>
        <time>2020-05-14T13:31:20Z</time>
      </trkpt>
      <trkpt lat="43.68129" lon="6.97159">
        <ele>460.25732421875</ele>
        <time>2020-05-14T13:31:21Z</time>
      </trkpt>
      <trkpt lat="43.68132" lon="6.97157">
        <ele>460.32904052734</ele>
        <time>2020-05-14T13:31:22Z</time>
      </trkpt>
      <trkpt lat="43.68134" lon="6.97155">
        <ele>460.1669921875</ele>
        <time>2020-05-14T13:31:23Z</time>
      </trkpt>
      <trkpt lat="43.68136" lon="6.97153">
        <ele>460.35656738281</ele>
        <time>2020-05-14T13:31:24Z</time>
      </trkpt>
      <trkpt lat="43.68138" lon="6.9715">
        <ele>460.83441162109</ele>
        <time>2020-05-14T13:31:25Z</time>
      </trkpt>
      <trkpt lat="43.68141" lon="6.97148">
        <ele>460.86694335938</ele>
        <time>2020-05-14T13:31:26Z</time>
      </trkpt>
      <trkpt lat="43.68143" lon="6.97146">
        <ele>461.11761474609</ele>
        <time>2020-05-14T13:31:27Z</time>
      </trkpt>
      <trkpt lat="43.68145" lon="6.97144">
        <ele>461.05969238281</ele>
        <time>2020-05-14T13:31:28Z</time>
      </trkpt>
      <trkpt lat="43.68147" lon="6.97142">
        <ele>461.00024414062</ele>
        <time>2020-05-14T13:31:29Z</time>
      </trkpt>
      <trkpt lat="43.68149" lon="6.9714">
        <ele>461.04064941406</ele>
        <time>2020-05-14T13:31:30Z</time>
      </trkpt>
      <trkpt lat="43.68151" lon="6.97138">
        <ele>460.94189453125</ele>
        <time>2020-05-14T13:31:31Z</time>
      </trkpt>
      <trkpt lat="43.68153" lon="6.97136">
        <ele>461.11267089844</ele>
        <time>2020-05-14T13:31:32Z</time>
      </trkpt>
      <trkpt lat="43.68155" lon="6.97135">
        <ele>461.63439941406</ele>
        <time>2020-05-14T13:31:33Z</time>
      </trkpt>
      <trkpt lat="43.68157" lon="6.97133">
        <ele>459.09887695312</ele>
        <time>2020-05-14T13:31:34Z</time>
      </trkpt>
      <trkpt lat="43.68159" lon="6.97132">
        <ele>459.25830078125</ele>
        <time>2020-05-14T13:31:35Z</time>
      </trkpt>
      <trkpt lat="43.68161" lon="6.9713">
        <ele>458.9921875</ele>
        <time>2020-05-14T13:31:36Z</time>
      </trkpt>
      <trkpt lat="43.68163" lon="6.97129">
        <ele>459.37622070312</ele>
        <time>2020-05-14T13:31:37Z</time>
      </trkpt>
      <trkpt lat="43.68165" lon="6.97127">
        <ele>459.70581054688</ele>
        <time>2020-05-14T13:31:38Z</time>
      </trkpt>
      <trkpt lat="43.68168" lon="6.97126">
        <ele>459.69836425781</ele>
        <time>2020-05-14T13:31:39Z</time>
      </trkpt>
      <trkpt lat="43.6817" lon="6.97124">
        <ele>459.681640625</ele>
        <time>2020-05-14T13:31:40Z</time>
      </trkpt>
      <trkpt lat="43.68172" lon="6.97122">
        <ele>459.18701171875</ele>
        <time>2020-05-14T13:31:41Z</time>
      </trkpt>
      <trkpt lat="43.68174" lon="6.9712">
        <ele>459.37585449219</ele>
        <time>2020-05-14T13:31:42Z</time>
      </trkpt>
      <trkpt lat="43.68176" lon="6.97119">
        <ele>459.51678466797</ele>
        <time>2020-05-14T13:31:43Z</time>
      </trkpt>
      <trkpt lat="43.68178" lon="6.97117">
        <ele>459.6123046875</ele>
        <time>2020-05-14T13:31:44Z</time>
      </trkpt>
      <trkpt lat="43.68181" lon="6.97116">
        <ele>459.43786621094</ele>
        <time>2020-05-14T13:31:45Z</time>
      </trkpt>
      <trkpt lat="43.68183" lon="6.97115">
        <ele>460.10284423828</ele>
        <time>2020-05-14T13:31:46Z</time>
      </trkpt>
      <trkpt lat="43.68185" lon="6.97114">
        <ele>459.83660888672</ele>
        <time>2020-05-14T13:31:47Z</time>
      </trkpt>
      <trkpt lat="43.68188" lon="6.97113">
        <ele>459.93695068359</ele>
        <time>2020-05-14T13:31:48Z</time>
      </trkpt>
      <trkpt lat="43.6819" lon="6.97112">
        <ele>458.64270019531</ele>
        <time>2020-05-14T13:31:49Z</time>
      </trkpt>
      <trkpt lat="43.68193" lon="6.97112">
        <ele>458.68280029297</ele>
        <time>2020-05-14T13:31:50Z</time>
      </trkpt>
      <trkpt lat="43.68196" lon="6.97112">
        <ele>455.97015380859</ele>
        <time>2020-05-14T13:31:51Z</time>
      </trkpt>
      <trkpt lat="43.68198" lon="6.97112">
        <ele>454.01538085938</ele>
        <time>2020-05-14T13:31:52Z</time>
      </trkpt>
      <trkpt lat="43.68201" lon="6.97113">
        <ele>453.19018554688</ele>
        <time>2020-05-14T13:31:53Z</time>
      </trkpt>
      <trkpt lat="43.68204" lon="6.97114">
        <ele>452.06433105469</ele>
        <time>2020-05-14T13:31:54Z</time>
      </trkpt>
      <trkpt lat="43.68207" lon="6.97115">
        <ele>449.90423583984</ele>
        <time>2020-05-14T13:31:55Z</time>
      </trkpt>
      <trkpt lat="43.6821" lon="6.97116">
        <ele>449.03088378906</ele>
        <time>2020-05-14T13:31:56Z</time>
      </trkpt>
      <trkpt lat="43.68213" lon="6.97117">
        <ele>443.7158203125</ele>
        <time>2020-05-14T13:31:57Z</time>
      </trkpt>
      <trkpt lat="43.68215" lon="6.97119">
        <ele>445.22265625</ele>
        <time>2020-05-14T13:31:58Z</time>
      </trkpt>
      <trkpt lat="43.68217" lon="6.9712">
        <ele>455.78955078125</ele>
        <time>2020-05-14T13:31:59Z</time>
      </trkpt>
      <trkpt lat="43.68219" lon="6.97122">
        <ele>451.63256835938</ele>
        <time>2020-05-14T13:32:00Z</time>
      </trkpt>
      <trkpt lat="43.6822" lon="6.97125">
        <ele>452.94384765625</ele>
        <time>2020-05-14T13:32:01Z</time>
      </trkpt>
      <trkpt lat="43.68222" lon="6.97128">
        <ele>452.97216796875</ele>
        <time>2020-05-14T13:32:02Z</time>
      </trkpt>
      <trkpt lat="43.68223" lon="6.97132">
        <ele>455.64398193359</ele>
        <time>2020-05-14T13:32:03Z</time>
      </trkpt>
      <trkpt lat="43.68225" lon="6.97135">
        <ele>456.58422851562</ele>
        <time>2020-05-14T13:32:04Z</time>
      </trkpt>
      <trkpt lat="43.68226" lon="6.97139">
        <ele>465.18127441406</ele>
        <time>2020-05-14T13:32:05Z</time>
      </trkpt>
      <trkpt lat="43.68228" lon="6.97142">
        <ele>462.07458496094</ele>
        <time>2020-05-14T13:32:06Z</time>
      </trkpt>
      <trkpt lat="43.68229" lon="6.97146">
        <ele>461.15301513672</ele>
        <time>2020-05-14T13:32:07Z</time>
      </trkpt>
      <trkpt lat="43.6823" lon="6.97149">
        <ele>459.20190429688</ele>
        <time>2020-05-14T13:32:08Z</time>
      </trkpt>
      <trkpt lat="43.68231" lon="6.97153">
        <ele>457.30743408203</ele>
        <time>2020-05-14T13:32:09Z</time>
      </trkpt>
      <trkpt lat="43.68231" lon="6.97157">
        <ele>457.138671875</ele>
        <time>2020-05-14T13:32:10Z</time>
      </trkpt>
      <trkpt lat="43.68231" lon="6.97161">
        <ele>457.94616699219</ele>
        <time>2020-05-14T13:32:11Z</time>
      </trkpt>
      <trkpt lat="43.68231" lon="6.97164">
        <ele>456.365234375</ele>
        <time>2020-05-14T13:32:12Z</time>
      </trkpt>
      <trkpt lat="43.68232" lon="6.97168">
        <ele>458.6044921875</ele>
        <time>2020-05-14T13:32:13Z</time>
      </trkpt>
      <trkpt lat="43.68233" lon="6.97173">
        <ele>451.97399902344</ele>
        <time>2020-05-14T13:32:14Z</time>
      </trkpt>
      <trkpt lat="43.68234" lon="6.97176">
        <ele>450.56732177734</ele>
        <time>2020-05-14T13:32:15Z</time>
      </trkpt>
      <trkpt lat="43.68235" lon="6.9718">
        <ele>461.10034179688</ele>
        <time>2020-05-14T13:32:16Z</time>
      </trkpt>
      <trkpt lat="43.68236" lon="6.97183">
        <ele>458.71704101562</ele>
        <time>2020-05-14T13:32:17Z</time>
      </trkpt>
      <trkpt lat="43.68237" lon="6.97186">
        <ele>459.45361328125</ele>
        <time>2020-05-14T13:32:18Z</time>
      </trkpt>
      <trkpt lat="43.68238" lon="6.9719">
        <ele>459.92358398438</ele>
        <time>2020-05-14T13:32:19Z</time>
      </trkpt>
      <trkpt lat="43.68238" lon="6.97193">
        <ele>459.30810546875</ele>
        <time>2020-05-14T13:32:20Z</time>
      </trkpt>
      <trkpt lat="43.68239" lon="6.97196">
        <ele>457.56811523438</ele>
        <time>2020-05-14T13:32:21Z</time>
      </trkpt>
      <trkpt lat="43.68239" lon="6.972">
        <ele>457.32702636719</ele>
        <time>2020-05-14T13:32:22Z</time>
      </trkpt>
      <trkpt lat="43.68241" lon="6.97203">
        <ele>455.91418457031</ele>
        <time>2020-05-14T13:32:23Z</time>
      </trkpt>
      <trkpt lat="43.68242" lon="6.97206">
        <ele>456.748046875</ele>
        <time>2020-05-14T13:32:24Z</time>
      </trkpt>
      <trkpt lat="43.68242" lon="6.97208">
        <ele>456.88537597656</ele>
        <time>2020-05-14T13:32:25Z</time>
      </trkpt>
      <trkpt lat="43.68243" lon="6.9721">
        <ele>455.26831054688</ele>
        <time>2020-05-14T13:32:26Z</time>
      </trkpt>
      <trkpt lat="43.68243" lon="6.97213">
        <ele>450.92370605469</ele>
        <time>2020-05-14T13:32:27Z</time>
      </trkpt>
      <trkpt lat="43.68244" lon="6.97215">
        <ele>460.39495849609</ele>
        <time>2020-05-14T13:32:28Z</time>
      </trkpt>
      <trkpt lat="43.68245" lon="6.97218">
        <ele>456.79174804688</ele>
        <time>2020-05-14T13:32:29Z</time>
      </trkpt>
      <trkpt lat="43.68246" lon="6.97221">
        <ele>457.52856445312</ele>
        <time>2020-05-14T13:32:30Z</time>
      </trkpt>
      <trkpt lat="43.68248" lon="6.97223">
        <ele>455.44293212891</ele>
        <time>2020-05-14T13:32:31Z</time>
      </trkpt>
      <trkpt lat="43.68249" lon="6.97226">
        <ele>456.17456054688</ele>
        <time>2020-05-14T13:32:32Z</time>
      </trkpt>
      <trkpt lat="43.6825" lon="6.97229">
        <ele>457.27691650391</ele>
        <time>2020-05-14T13:32:33Z</time>
      </trkpt>
      <trkpt lat="43.68252" lon="6.97231">
        <ele>456.89294433594</ele>
        <time>2020-05-14T13:32:34Z</time>
      </trkpt>
      <trkpt lat="43.68253" lon="6.97234">
        <ele>456.91955566406</ele>
        <time>2020-05-14T13:32:35Z</time>
      </trkpt>
      <trkpt lat="43.68255" lon="6.97237">
        <ele>454.46618652344</ele>
        <time>2020-05-14T13:32:36Z</time>
      </trkpt>
      <trkpt lat="43.68258" lon="6.97239">
        <ele>446.35070800781</ele>
        <time>2020-05-14T13:32:37Z</time>
      </trkpt>
      <trkpt lat="43.6826" lon="6.97242">
        <ele>457.43170166016</ele>
        <time>2020-05-14T13:32:38Z</time>
      </trkpt>
      <trkpt lat="43.68262" lon="6.97244">
        <ele>452.01623535156</ele>
        <time>2020-05-14T13:32:39Z</time>
      </trkpt>
      <trkpt lat="43.68264" lon="6.97247">
        <ele>463.13037109375</ele>
        <time>2020-05-14T13:32:40Z</time>
      </trkpt>
      <trkpt lat="43.68265" lon="6.97249">
        <ele>459.33917236328</ele>
        <time>2020-05-14T13:32:41Z</time>
      </trkpt>
      <trkpt lat="43.68268" lon="6.97251">
        <ele>459.11743164062</ele>
        <time>2020-05-14T13:32:42Z</time>
      </trkpt>
      <trkpt lat="43.68269" lon="6.97253">
        <ele>456.51818847656</ele>
        <time>2020-05-14T13:32:43Z</time>
      </trkpt>
      <trkpt lat="43.68271" lon="6.97255">
        <ele>455.69299316406</ele>
        <time>2020-05-14T13:32:44Z</time>
      </trkpt>
      <trkpt lat="43.68273" lon="6.97256">
        <ele>455.05291748047</ele>
        <time>2020-05-14T13:32:45Z</time>
      </trkpt>
      <trkpt lat="43.68276" lon="6.97258">
        <ele>453.89245605469</ele>
        <time>2020-05-14T13:32:46Z</time>
      </trkpt>
      <trkpt lat="43.68278" lon="6.97259">
        <ele>455.10388183594</ele>
        <time>2020-05-14T13:32:47Z</time>
      </trkpt>
      <trkpt lat="43.68281" lon="6.9726">
        <ele>457.55834960938</ele>
        <time>2020-05-14T13:32:48Z</time>
      </trkpt>
      <trkpt lat="43.68283" lon="6.97262">
        <ele>459.63238525391</ele>
        <time>2020-05-14T13:32:49Z</time>
      </trkpt>
      <trkpt lat="43.68286" lon="6.97263">
        <ele>460.39306640625</ele>
        <time>2020-05-14T13:32:50Z</time>
      </trkpt>
      <trkpt lat="43.68288" lon="6.97265">
        <ele>459.65521240234</ele>
        <time>2020-05-14T13:32:51Z</time>
      </trkpt>
      <trkpt lat="43.68291" lon="6.97267">
        <ele>457.46716308594</ele>
        <time>2020-05-14T13:32:52Z</time>
      </trkpt>
      <trkpt lat="43.68294" lon="6.97269">
        <ele>457.57116699219</ele>
        <time>2020-05-14T13:32:53Z</time>
      </trkpt>
      <trkpt lat="43.68296" lon="6.97271">
        <ele>458.85864257812</ele>
        <time>2020-05-14T13:32:54Z</time>
      </trkpt>
      <trkpt lat="43.68298" lon="6.97273">
        <ele>459.19018554688</ele>
        <time>2020-05-14T13:32:55Z</time>
      </trkpt>
      <trkpt lat="43.683" lon="6.97275">
        <ele>460.6845703125</ele>
        <time>2020-05-14T13:32:56Z</time>
      </trkpt>
      <trkpt lat="43.68302" lon="6.97278">
        <ele>458.45703125</ele>
        <time>2020-05-14T13:32:57Z</time>
      </trkpt>
      <trkpt lat="43.68304" lon="6.97279">
        <ele>456.12298583984</ele>
        <time>2020-05-14T13:32:58Z</time>
      </trkpt>
      <trkpt lat="43.68306" lon="6.97281">
        <ele>456.93566894531</ele>
        <time>2020-05-14T13:32:59Z</time>
      </trkpt>
      <trkpt lat="43.68308" lon="6.97283">
        <ele>459.94836425781</ele>
        <time>2020-05-14T13:33:00Z</time>
      </trkpt>
      <trkpt lat="43.6831" lon="6.97285">
        <ele>452.16345214844</ele>
        <time>2020-05-14T13:33:01Z</time>
      </trkpt>
      <trkpt lat="43.68313" lon="6.97287">
        <ele>450.79663085938</ele>
        <time>2020-05-14T13:33:02Z</time>
      </trkpt>
      <trkpt lat="43.68315" lon="6.97289">
        <ele>451.48352050781</ele>
        <time>2020-05-14T13:33:03Z</time>
      </trkpt>
      <trkpt lat="43.68317" lon="6.97291">
        <ele>451.0166015625</ele>
        <time>2020-05-14T13:33:04Z</time>
      </trkpt>
      <trkpt lat="43.68319" lon="6.97293">
        <ele>450.93212890625</ele>
        <time>2020-05-14T13:33:05Z</time>
      </trkpt>
      <trkpt lat="43.68321" lon="6.97295">
        <ele>463.23400878906</ele>
        <time>2020-05-14T13:33:06Z</time>
      </trkpt>
      <trkpt lat="43.68323" lon="6.97296">
        <ele>461.28454589844</ele>
        <time>2020-05-14T13:33:07Z</time>
      </trkpt>
      <trkpt lat="43.68325" lon="6.97298">
        <ele>463.86499023438</ele>
        <time>2020-05-14T13:33:08Z</time>
      </trkpt>
      <trkpt lat="43.68327" lon="6.973">
        <ele>463.57287597656</ele>
        <time>2020-05-14T13:33:09Z</time>
      </trkpt>
      <trkpt lat="43.68329" lon="6.97302">
        <ele>462.33654785156</ele>
        <time>2020-05-14T13:33:10Z</time>
      </trkpt>
      <trkpt lat="43.68331" lon="6.97303">
        <ele>461.10418701172</ele>
        <time>2020-05-14T13:33:11Z</time>
      </trkpt>
      <trkpt lat="43.68333" lon="6.97305">
        <ele>461.98297119141</ele>
        <time>2020-05-14T13:33:12Z</time>
      </trkpt>
      <trkpt lat="43.68335" lon="6.97307">
        <ele>461.04620361328</ele>
        <time>2020-05-14T13:33:13Z</time>
      </trkpt>
      <trkpt lat="43.68337" lon="6.97309">
        <ele>456.83813476562</ele>
        <time>2020-05-14T13:33:14Z</time>
      </trkpt>
      <trkpt lat="43.68339" lon="6.97311">
        <ele>457.06549072266</ele>
        <time>2020-05-14T13:33:15Z</time>
      </trkpt>
      <trkpt lat="43.6834" lon="6.97313">
        <ele>453.11047363281</ele>
        <time>2020-05-14T13:33:16Z</time>
      </trkpt>
      <trkpt lat="43.68342" lon="6.97315">
        <ele>462.16674804688</ele>
        <time>2020-05-14T13:33:17Z</time>
      </trkpt>
      <trkpt lat="43.68344" lon="6.97317">
        <ele>456.36749267578</ele>
        <time>2020-05-14T13:33:18Z</time>
      </trkpt>
      <trkpt lat="43.68346" lon="6.97319">
        <ele>468.654296875</ele>
        <time>2020-05-14T13:33:19Z</time>
      </trkpt>
      <trkpt lat="43.68348" lon="6.97321">
        <ele>464.49865722656</ele>
        <time>2020-05-14T13:33:20Z</time>
      </trkpt>
      <trkpt lat="43.6835" lon="6.97323">
        <ele>467.26043701172</ele>
        <time>2020-05-14T13:33:21Z</time>
      </trkpt>
      <trkpt lat="43.68352" lon="6.97326">
        <ele>462.79467773438</ele>
        <time>2020-05-14T13:33:22Z</time>
      </trkpt>
      <trkpt lat="43.68353" lon="6.97329">
        <ele>475.48083496094</ele>
        <time>2020-05-14T13:33:23Z</time>
      </trkpt>
      <trkpt lat="43.68355" lon="6.97332">
        <ele>472.7431640625</ele>
        <time>2020-05-14T13:33:24Z</time>
      </trkpt>
      <trkpt lat="43.68356" lon="6.97336">
        <ele>470.22570800781</ele>
        <time>2020-05-14T13:33:25Z</time>
      </trkpt>
      <trkpt lat="43.68357" lon="6.97339">
        <ele>469.01989746094</ele>
        <time>2020-05-14T13:33:26Z</time>
      </trkpt>
      <trkpt lat="43.68358" lon="6.97343">
        <ele>469.30749511719</ele>
        <time>2020-05-14T13:33:27Z</time>
      </trkpt>
      <trkpt lat="43.68359" lon="6.97346">
        <ele>469.45446777344</ele>
        <time>2020-05-14T13:33:28Z</time>
      </trkpt>
      <trkpt lat="43.68361" lon="6.9735">
        <ele>469.61657714844</ele>
        <time>2020-05-14T13:33:29Z</time>
      </trkpt>
      <trkpt lat="43.68362" lon="6.97353">
        <ele>469.75244140625</ele>
        <time>2020-05-14T13:33:30Z</time>
      </trkpt>
      <trkpt lat="43.68363" lon="6.97356">
        <ele>469.96917724609</ele>
        <time>2020-05-14T13:33:31Z</time>
      </trkpt>
      <trkpt lat="43.68365" lon="6.9736">
        <ele>470.14361572266</ele>
        <time>2020-05-14T13:33:32Z</time>
      </trkpt>
      <trkpt lat="43.68366" lon="6.97363">
        <ele>470.57971191406</ele>
        <time>2020-05-14T13:33:33Z</time>
      </trkpt>
      <trkpt lat="43.68367" lon="6.97366">
        <ele>470.60754394531</ele>
        <time>2020-05-14T13:33:34Z</time>
      </trkpt>
      <trkpt lat="43.68368" lon="6.97369">
        <ele>470.68225097656</ele>
        <time>2020-05-14T13:33:35Z</time>
      </trkpt>
      <trkpt lat="43.68369" lon="6.97373">
        <ele>470.97430419922</ele>
        <time>2020-05-14T13:33:36Z</time>
      </trkpt>
      <trkpt lat="43.68371" lon="6.97376">
        <ele>471.16967773438</ele>
        <time>2020-05-14T13:33:37Z</time>
      </trkpt>
      <trkpt lat="43.68372" lon="6.97379">
        <ele>471.14422607422</ele>
        <time>2020-05-14T13:33:38Z</time>
      </trkpt>
      <trkpt lat="43.68374" lon="6.97382">
        <ele>480.26281738281</ele>
        <time>2020-05-14T13:33:39Z</time>
      </trkpt>
      <trkpt lat="43.68375" lon="6.97384">
        <ele>476.24768066406</ele>
        <time>2020-05-14T13:33:40Z</time>
      </trkpt>
      <trkpt lat="43.68376" lon="6.97387">
        <ele>476.48742675781</ele>
        <time>2020-05-14T13:33:41Z</time>
      </trkpt>
      <trkpt lat="43.68377" lon="6.9739">
        <ele>475.57891845703</ele>
        <time>2020-05-14T13:33:42Z</time>
      </trkpt>
      <trkpt lat="43.68378" lon="6.97393">
        <ele>474.05255126953</ele>
        <time>2020-05-14T13:33:43Z</time>
      </trkpt>
      <trkpt lat="43.6838" lon="6.97396">
        <ele>471.51025390625</ele>
        <time>2020-05-14T13:33:44Z</time>
      </trkpt>
      <trkpt lat="43.68382" lon="6.97398">
        <ele>469.04010009766</ele>
        <time>2020-05-14T13:33:45Z</time>
      </trkpt>
      <trkpt lat="43.68384" lon="6.97401">
        <ele>467.27563476562</ele>
        <time>2020-05-14T13:33:46Z</time>
      </trkpt>
      <trkpt lat="43.68385" lon="6.97403">
        <ele>463.4384765625</ele>
        <time>2020-05-14T13:33:47Z</time>
      </trkpt>
      <trkpt lat="43.68387" lon="6.97405">
        <ele>461.51391601562</ele>
        <time>2020-05-14T13:33:48Z</time>
      </trkpt>
      <trkpt lat="43.68388" lon="6.97408">
        <ele>460.84033203125</ele>
        <time>2020-05-14T13:33:49Z</time>
      </trkpt>
      <trkpt lat="43.6839" lon="6.9741">
        <ele>450.05126953125</ele>
        <time>2020-05-14T13:33:50Z</time>
      </trkpt>
      <trkpt lat="43.68392" lon="6.97412">
        <ele>458.17102050781</ele>
        <time>2020-05-14T13:33:51Z</time>
      </trkpt>
      <trkpt lat="43.68394" lon="6.97415">
        <ele>451.23645019531</ele>
        <time>2020-05-14T13:33:52Z</time>
      </trkpt>
      <trkpt lat="43.68396" lon="6.97418">
        <ele>465.46246337891</ele>
        <time>2020-05-14T13:33:53Z</time>
      </trkpt>
      <trkpt lat="43.68398" lon="6.97421">
        <ele>461.67742919922</ele>
        <time>2020-05-14T13:33:54Z</time>
      </trkpt>
      <trkpt lat="43.684" lon="6.97424">
        <ele>462.39147949219</ele>
        <time>2020-05-14T13:33:55Z</time>
      </trkpt>
      <trkpt lat="43.68401" lon="6.97426">
        <ele>462.69720458984</ele>
        <time>2020-05-14T13:33:56Z</time>
      </trkpt>
      <trkpt lat="43.68403" lon="6.97428">
        <ele>460.61071777344</ele>
        <time>2020-05-14T13:33:57Z</time>
      </trkpt>
      <trkpt lat="43.68405" lon="6.9743">
        <ele>462.88903808594</ele>
        <time>2020-05-14T13:33:58Z</time>
      </trkpt>
      <trkpt lat="43.68407" lon="6.97432">
        <ele>463.72924804688</ele>
        <time>2020-05-14T13:33:59Z</time>
      </trkpt>
      <trkpt lat="43.68409" lon="6.97433">
        <ele>463.80352783203</ele>
        <time>2020-05-14T13:34:00Z</time>
      </trkpt>
      <trkpt lat="43.68412" lon="6.97435">
        <ele>463.66442871094</ele>
        <time>2020-05-14T13:34:01Z</time>
      </trkpt>
      <trkpt lat="43.68414" lon="6.97437">
        <ele>463.08618164062</ele>
        <time>2020-05-14T13:34:02Z</time>
      </trkpt>
      <trkpt lat="43.68416" lon="6.97438">
        <ele>463.43627929688</ele>
        <time>2020-05-14T13:34:03Z</time>
      </trkpt>
      <trkpt lat="43.68419" lon="6.9744">
        <ele>460.31951904297</ele>
        <time>2020-05-14T13:34:04Z</time>
      </trkpt>
      <trkpt lat="43.68421" lon="6.97441">
        <ele>460.41857910156</ele>
        <time>2020-05-14T13:34:05Z</time>
      </trkpt>
      <trkpt lat="43.68424" lon="6.97443">
        <ele>460.52465820312</ele>
        <time>2020-05-14T13:34:06Z</time>
      </trkpt>
      <trkpt lat="43.68427" lon="6.97445">
        <ele>450.97241210938</ele>
        <time>2020-05-14T13:34:07Z</time>
      </trkpt>
      <trkpt lat="43.6843" lon="6.97446">
        <ele>450.52014160156</ele>
        <time>2020-05-14T13:34:08Z</time>
      </trkpt>
      <trkpt lat="43.68433" lon="6.97447">
        <ele>450.56872558594</ele>
        <time>2020-05-14T13:34:09Z</time>
      </trkpt>
      <trkpt lat="43.68435" lon="6.97449">
        <ele>452.77905273438</ele>
        <time>2020-05-14T13:34:10Z</time>
      </trkpt>
      <trkpt lat="43.68438" lon="6.9745">
        <ele>468.11346435547</ele>
        <time>2020-05-14T13:34:11Z</time>
      </trkpt>
      <trkpt lat="43.6844" lon="6.97451">
        <ele>474.51495361328</ele>
        <time>2020-05-14T13:34:12Z</time>
      </trkpt>
      <trkpt lat="43.68442" lon="6.97453">
        <ele>483.62817382812</ele>
        <time>2020-05-14T13:34:13Z</time>
      </trkpt>
      <trkpt lat="43.68445" lon="6.97455">
        <ele>484.86743164062</ele>
        <time>2020-05-14T13:34:14Z</time>
      </trkpt>
      <trkpt lat="43.68447" lon="6.97457">
        <ele>485.35174560547</ele>
        <time>2020-05-14T13:34:15Z</time>
      </trkpt>
      <trkpt lat="43.68449" lon="6.97459">
        <ele>485.65502929688</ele>
        <time>2020-05-14T13:34:16Z</time>
      </trkpt>
      <trkpt lat="43.68451" lon="6.9746">
        <ele>486.07434082031</ele>
        <time>2020-05-14T13:34:17Z</time>
      </trkpt>
      <trkpt lat="43.68453" lon="6.97462">
        <ele>486.31292724609</ele>
        <time>2020-05-14T13:34:18Z</time>
      </trkpt>
      <trkpt lat="43.68455" lon="6.97464">
        <ele>486.70666503906</ele>
        <time>2020-05-14T13:34:19Z</time>
      </trkpt>
      <trkpt lat="43.68458" lon="6.97466">
        <ele>486.91430664062</ele>
        <time>2020-05-14T13:34:20Z</time>
      </trkpt>
      <trkpt lat="43.6846" lon="6.97467">
        <ele>487.27038574219</ele>
        <time>2020-05-14T13:34:21Z</time>
      </trkpt>
      <trkpt lat="43.68462" lon="6.97469">
        <ele>487.61059570312</ele>
        <time>2020-05-14T13:34:22Z</time>
      </trkpt>
      <trkpt lat="43.68464" lon="6.97471">
        <ele>488.3076171875</ele>
        <time>2020-05-14T13:34:23Z</time>
      </trkpt>
      <trkpt lat="43.68466" lon="6.97473">
        <ele>488.55224609375</ele>
        <time>2020-05-14T13:34:24Z</time>
      </trkpt>
      <trkpt lat="43.68468" lon="6.97475">
        <ele>489.11462402344</ele>
        <time>2020-05-14T13:34:25Z</time>
      </trkpt>
      <trkpt lat="43.6847" lon="6.97477">
        <ele>489.08728027344</ele>
        <time>2020-05-14T13:34:26Z</time>
      </trkpt>
      <trkpt lat="43.68472" lon="6.97478">
        <ele>489.6748046875</ele>
        <time>2020-05-14T13:34:27Z</time>
      </trkpt>
      <trkpt lat="43.68474" lon="6.97481">
        <ele>489.45983886719</ele>
        <time>2020-05-14T13:34:28Z</time>
      </trkpt>
      <trkpt lat="43.68477" lon="6.97483">
        <ele>489.533203125</ele>
        <time>2020-05-14T13:34:29Z</time>
      </trkpt>
      <trkpt lat="43.68479" lon="6.97485">
        <ele>489.55224609375</ele>
        <time>2020-05-14T13:34:30Z</time>
      </trkpt>
      <trkpt lat="43.68481" lon="6.97486">
        <ele>489.68115234375</ele>
        <time>2020-05-14T13:34:31Z</time>
      </trkpt>
      <trkpt lat="43.68483" lon="6.97487">
        <ele>490.01196289062</ele>
        <time>2020-05-14T13:34:32Z</time>
      </trkpt>
      <trkpt lat="43.68485" lon="6.97488">
        <ele>490.41552734375</ele>
        <time>2020-05-14T13:34:33Z</time>
      </trkpt>
      <trkpt lat="43.68487" lon="6.97488">
        <ele>490.41442871094</ele>
        <time>2020-05-14T13:34:34Z</time>
      </trkpt>
      <trkpt lat="43.6849" lon="6.97489">
        <ele>490.24865722656</ele>
        <time>2020-05-14T13:34:35Z</time>
      </trkpt>
      <trkpt lat="43.68493" lon="6.97489">
        <ele>490.09661865234</ele>
        <time>2020-05-14T13:34:36Z</time>
      </trkpt>
      <trkpt lat="43.68495" lon="6.97489">
        <ele>490.27978515625</ele>
        <time>2020-05-14T13:34:37Z</time>
      </trkpt>
      <trkpt lat="43.68498" lon="6.97488">
        <ele>490.72790527344</ele>
        <time>2020-05-14T13:34:38Z</time>
      </trkpt>
      <trkpt lat="43.685" lon="6.97488">
        <ele>491.05871582031</ele>
        <time>2020-05-14T13:34:39Z</time>
      </trkpt>
      <trkpt lat="43.68503" lon="6.97487">
        <ele>491.392578125</ele>
        <time>2020-05-14T13:34:40Z</time>
      </trkpt>
      <trkpt lat="43.68505" lon="6.97487">
        <ele>491.41064453125</ele>
        <time>2020-05-14T13:34:41Z</time>
      </trkpt>
      <trkpt lat="43.68508" lon="6.97486">
        <ele>491.51715087891</ele>
        <time>2020-05-14T13:34:42Z</time>
      </trkpt>
      <trkpt lat="43.6851" lon="6.97485">
        <ele>491.53979492188</ele>
        <time>2020-05-14T13:34:43Z</time>
      </trkpt>
      <trkpt lat="43.68513" lon="6.97483">
        <ele>491.54602050781</ele>
        <time>2020-05-14T13:34:44Z</time>
      </trkpt>
      <trkpt lat="43.68515" lon="6.97482">
        <ele>491.76733398438</ele>
        <time>2020-05-14T13:34:45Z</time>
      </trkpt>
      <trkpt lat="43.68517" lon="6.9748">
        <ele>491.734375</ele>
        <time>2020-05-14T13:34:46Z</time>
      </trkpt>
      <trkpt lat="43.6852" lon="6.97479">
        <ele>491.88854980469</ele>
        <time>2020-05-14T13:34:47Z</time>
      </trkpt>
      <trkpt lat="43.68522" lon="6.97477">
        <ele>492.02941894531</ele>
        <time>2020-05-14T13:34:48Z</time>
      </trkpt>
      <trkpt lat="43.68525" lon="6.97476">
        <ele>491.81884765625</ele>
        <time>2020-05-14T13:34:49Z</time>
      </trkpt>
      <trkpt lat="43.68527" lon="6.97474">
        <ele>491.86102294922</ele>
        <time>2020-05-14T13:34:50Z</time>
      </trkpt>
      <trkpt lat="43.6853" lon="6.97473">
        <ele>491.86767578125</ele>
        <time>2020-05-14T13:34:51Z</time>
      </trkpt>
      <trkpt lat="43.68532" lon="6.97472">
        <ele>492.18383789062</ele>
        <time>2020-05-14T13:34:52Z</time>
      </trkpt>
      <trkpt lat="43.68535" lon="6.97471">
        <ele>492.2958984375</ele>
        <time>2020-05-14T13:34:53Z</time>
      </trkpt>
      <trkpt lat="43.68537" lon="6.9747">
        <ele>492.39855957031</ele>
        <time>2020-05-14T13:34:54Z</time>
      </trkpt>
      <trkpt lat="43.6854" lon="6.97469">
        <ele>492.66296386719</ele>
        <time>2020-05-14T13:34:55Z</time>
      </trkpt>
      <trkpt lat="43.68543" lon="6.97469">
        <ele>492.94097900391</ele>
        <time>2020-05-14T13:34:56Z</time>
      </trkpt>
      <trkpt lat="43.68545" lon="6.97469">
        <ele>493.03662109375</ele>
        <time>2020-05-14T13:34:57Z</time>
      </trkpt>
      <trkpt lat="43.68548" lon="6.9747">
        <ele>493.39099121094</ele>
        <time>2020-05-14T13:34:58Z</time>
      </trkpt>
      <trkpt lat="43.6855" lon="6.97471">
        <ele>493.65612792969</ele>
        <time>2020-05-14T13:34:59Z</time>
      </trkpt>
      <trkpt lat="43.68553" lon="6.97472">
        <ele>493.80932617188</ele>
        <time>2020-05-14T13:35:00Z</time>
      </trkpt>
      <trkpt lat="43.68555" lon="6.97472">
        <ele>493.99304199219</ele>
        <time>2020-05-14T13:35:01Z</time>
      </trkpt>
      <trkpt lat="43.68558" lon="6.97474">
        <ele>494.390625</ele>
        <time>2020-05-14T13:35:02Z</time>
      </trkpt>
      <trkpt lat="43.6856" lon="6.97475">
        <ele>495.39636230469</ele>
        <time>2020-05-14T13:35:03Z</time>
      </trkpt>
      <trkpt lat="43.68562" lon="6.97476">
        <ele>495.43811035156</ele>
        <time>2020-05-14T13:35:04Z</time>
      </trkpt>
      <trkpt lat="43.68564" lon="6.97478">
        <ele>495.44360351562</ele>
        <time>2020-05-14T13:35:05Z</time>
      </trkpt>
      <trkpt lat="43.68566" lon="6.97479">
        <ele>495.546875</ele>
        <time>2020-05-14T13:35:06Z</time>
      </trkpt>
      <trkpt lat="43.68569" lon="6.97481">
        <ele>495.50695800781</ele>
        <time>2020-05-14T13:35:07Z</time>
      </trkpt>
      <trkpt lat="43.68571" lon="6.97484">
        <ele>495.65808105469</ele>
        <time>2020-05-14T13:35:08Z</time>
      </trkpt>
      <trkpt lat="43.68573" lon="6.97486">
        <ele>495.70233154297</ele>
        <time>2020-05-14T13:35:09Z</time>
      </trkpt>
      <trkpt lat="43.68575" lon="6.97487">
        <ele>496.05749511719</ele>
        <time>2020-05-14T13:35:10Z</time>
      </trkpt>
      <trkpt lat="43.68578" lon="6.97489">
        <ele>496.46978759766</ele>
        <time>2020-05-14T13:35:11Z</time>
      </trkpt>
      <trkpt lat="43.6858" lon="6.97491">
        <ele>496.64453125</ele>
        <time>2020-05-14T13:35:12Z</time>
      </trkpt>
      <trkpt lat="43.68582" lon="6.97492">
        <ele>496.83880615234</ele>
        <time>2020-05-14T13:35:13Z</time>
      </trkpt>
      <trkpt lat="43.68585" lon="6.97493">
        <ele>497.14392089844</ele>
        <time>2020-05-14T13:35:14Z</time>
      </trkpt>
      <trkpt lat="43.68587" lon="6.97495">
        <ele>497.55865478516</ele>
        <time>2020-05-14T13:35:15Z</time>
      </trkpt>
      <trkpt lat="43.6859" lon="6.97496">
        <ele>497.9619140625</ele>
        <time>2020-05-14T13:35:16Z</time>
      </trkpt>
      <trkpt lat="43.68592" lon="6.97497">
        <ele>498.22229003906</ele>
        <time>2020-05-14T13:35:17Z</time>
      </trkpt>
      <trkpt lat="43.68594" lon="6.97498">
        <ele>498.43237304688</ele>
        <time>2020-05-14T13:35:18Z</time>
      </trkpt>
      <trkpt lat="43.68597" lon="6.97498">
        <ele>499.03704833984</ele>
        <time>2020-05-14T13:35:19Z</time>
      </trkpt>
      <trkpt lat="43.68599" lon="6.97499">
        <ele>498.85522460938</ele>
        <time>2020-05-14T13:35:20Z</time>
      </trkpt>
      <trkpt lat="43.68602" lon="6.97499">
        <ele>499.00561523438</ele>
        <time>2020-05-14T13:35:21Z</time>
      </trkpt>
      <trkpt lat="43.68604" lon="6.975">
        <ele>499.15313720703</ele>
        <time>2020-05-14T13:35:22Z</time>
      </trkpt>
      <trkpt lat="43.68606" lon="6.975">
        <ele>499.53472900391</ele>
        <time>2020-05-14T13:35:23Z</time>
      </trkpt>
      <trkpt lat="43.68609" lon="6.97501">
        <ele>498.98425292969</ele>
        <time>2020-05-14T13:35:24Z</time>
      </trkpt>
      <trkpt lat="43.68611" lon="6.97501">
        <ele>499.67028808594</ele>
        <time>2020-05-14T13:35:25Z</time>
      </trkpt>
      <trkpt lat="43.68614" lon="6.97501">
        <ele>499.88922119141</ele>
        <time>2020-05-14T13:35:26Z</time>
      </trkpt>
      <trkpt lat="43.68616" lon="6.97501">
        <ele>500.50646972656</ele>
        <time>2020-05-14T13:35:27Z</time>
      </trkpt>
      <trkpt lat="43.68618" lon="6.97502">
        <ele>500.69860839844</ele>
        <time>2020-05-14T13:35:28Z</time>
      </trkpt>
      <trkpt lat="43.68621" lon="6.97502">
        <ele>500.67700195312</ele>
        <time>2020-05-14T13:35:29Z</time>
      </trkpt>
      <trkpt lat="43.68623" lon="6.97502">
        <ele>500.89270019531</ele>
        <time>2020-05-14T13:35:30Z</time>
      </trkpt>
      <trkpt lat="43.68625" lon="6.97502">
        <ele>500.74353027344</ele>
        <time>2020-05-14T13:35:31Z</time>
      </trkpt>
      <trkpt lat="43.68628" lon="6.97502">
        <ele>501.03961181641</ele>
        <time>2020-05-14T13:35:32Z</time>
      </trkpt>
      <trkpt lat="43.6863" lon="6.97502">
        <ele>501.23046875</ele>
        <time>2020-05-14T13:35:33Z</time>
      </trkpt>
      <trkpt lat="43.68633" lon="6.97502">
        <ele>501.26416015625</ele>
        <time>2020-05-14T13:35:34Z</time>
      </trkpt>
      <trkpt lat="43.68635" lon="6.97502">
        <ele>501.27563476562</ele>
        <time>2020-05-14T13:35:35Z</time>
      </trkpt>
      <trkpt lat="43.68637" lon="6.97502">
        <ele>501.65936279297</ele>
        <time>2020-05-14T13:35:36Z</time>
      </trkpt>
      <trkpt lat="43.6864" lon="6.97502">
        <ele>501.91070556641</ele>
        <time>2020-05-14T13:35:37Z</time>
      </trkpt>
      <trkpt lat="43.68642" lon="6.97502">
        <ele>501.71368408203</ele>
        <time>2020-05-14T13:35:38Z</time>
      </trkpt>
      <trkpt lat="43.68645" lon="6.97502">
        <ele>502.04241943359</ele>
        <time>2020-05-14T13:35:39Z</time>
      </trkpt>
      <trkpt lat="43.68647" lon="6.97503">
        <ele>502.23266601562</ele>
        <time>2020-05-14T13:35:40Z</time>
      </trkpt>
      <trkpt lat="43.68649" lon="6.97503">
        <ele>502.30908203125</ele>
        <time>2020-05-14T13:35:41Z</time>
      </trkpt>
      <trkpt lat="43.68652" lon="6.97504">
        <ele>502.70031738281</ele>
        <time>2020-05-14T13:35:42Z</time>
      </trkpt>
      <trkpt lat="43.68654" lon="6.97505">
        <ele>503.03765869141</ele>
        <time>2020-05-14T13:35:43Z</time>
      </trkpt>
      <trkpt lat="43.68656" lon="6.97505">
        <ele>503.42083740234</ele>
        <time>2020-05-14T13:35:44Z</time>
      </trkpt>
      <trkpt lat="43.68659" lon="6.97506">
        <ele>503.80523681641</ele>
        <time>2020-05-14T13:35:45Z</time>
      </trkpt>
      <trkpt lat="43.68661" lon="6.97507">
        <ele>503.49011230469</ele>
        <time>2020-05-14T13:35:46Z</time>
      </trkpt>
      <trkpt lat="43.68663" lon="6.97508">
        <ele>497.86059570312</ele>
        <time>2020-05-14T13:35:47Z</time>
      </trkpt>
      <trkpt lat="43.68665" lon="6.97509">
        <ele>498.02392578125</ele>
        <time>2020-05-14T13:35:48Z</time>
      </trkpt>
      <trkpt lat="43.68667" lon="6.9751">
        <ele>486.62109375</ele>
        <time>2020-05-14T13:35:49Z</time>
      </trkpt>
      <trkpt lat="43.68669" lon="6.97511">
        <ele>486.91534423828</ele>
        <time>2020-05-14T13:35:50Z</time>
      </trkpt>
      <trkpt lat="43.68671" lon="6.97512">
        <ele>487.33227539062</ele>
        <time>2020-05-14T13:35:51Z</time>
      </trkpt>
      <trkpt lat="43.68673" lon="6.97513">
        <ele>487.54370117188</ele>
        <time>2020-05-14T13:35:52Z</time>
      </trkpt>
      <trkpt lat="43.68675" lon="6.97514">
        <ele>487.74243164062</ele>
        <time>2020-05-14T13:35:53Z</time>
      </trkpt>
      <trkpt lat="43.68677" lon="6.97515">
        <ele>487.89514160156</ele>
        <time>2020-05-14T13:35:54Z</time>
      </trkpt>
      <trkpt lat="43.68679" lon="6.97515">
        <ele>487.75244140625</ele>
        <time>2020-05-14T13:35:55Z</time>
      </trkpt>
      <trkpt lat="43.68682" lon="6.97516">
        <ele>488.30432128906</ele>
        <time>2020-05-14T13:35:56Z</time>
      </trkpt>
      <trkpt lat="43.68684" lon="6.97517">
        <ele>483.77282714844</ele>
        <time>2020-05-14T13:35:57Z</time>
      </trkpt>
      <trkpt lat="43.68686" lon="6.97518">
        <ele>476.73840332031</ele>
        <time>2020-05-14T13:35:58Z</time>
      </trkpt>
      <trkpt lat="43.68689" lon="6.97519">
        <ele>477.47473144531</ele>
        <time>2020-05-14T13:35:59Z</time>
      </trkpt>
      <trkpt lat="43.68691" lon="6.97519">
        <ele>473.09106445312</ele>
        <time>2020-05-14T13:36:00Z</time>
      </trkpt>
      <trkpt lat="43.68694" lon="6.97519">
        <ele>465.34948730469</ele>
        <time>2020-05-14T13:36:01Z</time>
      </trkpt>
      <trkpt lat="43.68696" lon="6.97519">
        <ele>485.62457275391</ele>
        <time>2020-05-14T13:36:02Z</time>
      </trkpt>
      <trkpt lat="43.68698" lon="6.97519">
        <ele>479.49652099609</ele>
        <time>2020-05-14T13:36:03Z</time>
      </trkpt>
      <trkpt lat="43.68701" lon="6.97519">
        <ele>476.00451660156</ele>
        <time>2020-05-14T13:36:04Z</time>
      </trkpt>
      <trkpt lat="43.68703" lon="6.97519">
        <ele>463.19140625</ele>
        <time>2020-05-14T13:36:05Z</time>
      </trkpt>
      <trkpt lat="43.68705" lon="6.97518">
        <ele>463.32061767578</ele>
        <time>2020-05-14T13:36:06Z</time>
      </trkpt>
      <trkpt lat="43.68707" lon="6.97518">
        <ele>460.51843261719</ele>
        <time>2020-05-14T13:36:07Z</time>
      </trkpt>
      <trkpt lat="43.68709" lon="6.97517">
        <ele>462.51086425781</ele>
        <time>2020-05-14T13:36:08Z</time>
      </trkpt>
      <trkpt lat="43.68711" lon="6.97516">
        <ele>464.96783447266</ele>
        <time>2020-05-14T13:36:09Z</time>
      </trkpt>
      <trkpt lat="43.68713" lon="6.97515">
        <ele>466.64685058594</ele>
        <time>2020-05-14T13:36:10Z</time>
      </trkpt>
      <trkpt lat="43.68715" lon="6.97514">
        <ele>465.53051757812</ele>
        <time>2020-05-14T13:36:11Z</time>
      </trkpt>
      <trkpt lat="43.68718" lon="6.97513">
        <ele>462.06781005859</ele>
        <time>2020-05-14T13:36:12Z</time>
      </trkpt>
      <trkpt lat="43.68721" lon="6.97512">
        <ele>464.90905761719</ele>
        <time>2020-05-14T13:36:13Z</time>
      </trkpt>
      <trkpt lat="43.68723" lon="6.97512">
        <ele>468.56829833984</ele>
        <time>2020-05-14T13:36:14Z</time>
      </trkpt>
      <trkpt lat="43.68725" lon="6.97511">
        <ele>470.14367675781</ele>
        <time>2020-05-14T13:36:15Z</time>
      </trkpt>
      <trkpt lat="43.68727" lon="6.97511">
        <ele>464.20629882812</ele>
        <time>2020-05-14T13:36:16Z</time>
      </trkpt>
      <trkpt lat="43.6873" lon="6.9751">
        <ele>465.51635742188</ele>
        <time>2020-05-14T13:36:17Z</time>
      </trkpt>
      <trkpt lat="43.68732" lon="6.97509">
        <ele>462.87951660156</ele>
        <time>2020-05-14T13:36:18Z</time>
      </trkpt>
      <trkpt lat="43.68733" lon="6.97507">
        <ele>461.03527832031</ele>
        <time>2020-05-14T13:36:19Z</time>
      </trkpt>
      <trkpt lat="43.68735" lon="6.97505">
        <ele>461.92803955078</ele>
        <time>2020-05-14T13:36:20Z</time>
      </trkpt>
      <trkpt lat="43.68737" lon="6.97503">
        <ele>459.88342285156</ele>
        <time>2020-05-14T13:36:21Z</time>
      </trkpt>
      <trkpt lat="43.68738" lon="6.975">
        <ele>458.55590820312</ele>
        <time>2020-05-14T13:36:22Z</time>
      </trkpt>
      <trkpt lat="43.6874" lon="6.97498">
        <ele>455.33612060547</ele>
        <time>2020-05-14T13:36:23Z</time>
      </trkpt>
      <trkpt lat="43.68742" lon="6.97496">
        <ele>476.73986816406</ele>
        <time>2020-05-14T13:36:24Z</time>
      </trkpt>
      <trkpt lat="43.68744" lon="6.97494">
        <ele>467.5087890625</ele>
        <time>2020-05-14T13:36:25Z</time>
      </trkpt>
      <trkpt lat="43.68746" lon="6.97491">
        <ele>468.46343994141</ele>
        <time>2020-05-14T13:36:26Z</time>
      </trkpt>
      <trkpt lat="43.68748" lon="6.97488">
        <ele>470.69580078125</ele>
        <time>2020-05-14T13:36:27Z</time>
      </trkpt>
      <trkpt lat="43.68749" lon="6.97485">
        <ele>458.79022216797</ele>
        <time>2020-05-14T13:36:28Z</time>
      </trkpt>
      <trkpt lat="43.68751" lon="6.97482">
        <ele>455.318359375</ele>
        <time>2020-05-14T13:36:29Z</time>
      </trkpt>
      <trkpt lat="43.68753" lon="6.97479">
        <ele>453.1220703125</ele>
        <time>2020-05-14T13:36:30Z</time>
      </trkpt>
      <trkpt lat="43.68754" lon="6.97477">
        <ele>453.26287841797</ele>
        <time>2020-05-14T13:36:31Z</time>
      </trkpt>
      <trkpt lat="43.68756" lon="6.97474">
        <ele>451.36254882812</ele>
        <time>2020-05-14T13:36:32Z</time>
      </trkpt>
      <trkpt lat="43.68758" lon="6.97472">
        <ele>450.53131103516</ele>
        <time>2020-05-14T13:36:33Z</time>
      </trkpt>
      <trkpt lat="43.68759" lon="6.9747">
        <ele>452.19580078125</ele>
        <time>2020-05-14T13:36:34Z</time>
      </trkpt>
      <trkpt lat="43.68761" lon="6.97467">
        <ele>454.19702148438</ele>
        <time>2020-05-14T13:36:35Z</time>
      </trkpt>
      <trkpt lat="43.68762" lon="6.97464">
        <ele>451.54119873047</ele>
        <time>2020-05-14T13:36:36Z</time>
      </trkpt>
      <trkpt lat="43.68764" lon="6.97461">
        <ele>451.34881591797</ele>
        <time>2020-05-14T13:36:37Z</time>
      </trkpt>
      <trkpt lat="43.68766" lon="6.97458">
        <ele>450.82592773438</ele>
        <time>2020-05-14T13:36:38Z</time>
      </trkpt>
      <trkpt lat="43.68768" lon="6.97456">
        <ele>450.67224121094</ele>
        <time>2020-05-14T13:36:39Z</time>
      </trkpt>
      <trkpt lat="43.68769" lon="6.97453">
        <ele>452.10327148438</ele>
        <time>2020-05-14T13:36:40Z</time>
      </trkpt>
      <trkpt lat="43.68771" lon="6.97451">
        <ele>449.43005371094</ele>
        <time>2020-05-14T13:36:41Z</time>
      </trkpt>
      <trkpt lat="43.68772" lon="6.97448">
        <ele>449.19018554688</ele>
        <time>2020-05-14T13:36:42Z</time>
      </trkpt>
      <trkpt lat="43.68774" lon="6.97446">
        <ele>449.78735351562</ele>
        <time>2020-05-14T13:36:43Z</time>
      </trkpt>
      <trkpt lat="43.68775" lon="6.97443">
        <ele>464.91418457031</ele>
        <time>2020-05-14T13:36:44Z</time>
      </trkpt>
      <trkpt lat="43.68777" lon="6.97441">
        <ele>462.4443359375</ele>
        <time>2020-05-14T13:36:45Z</time>
      </trkpt>
      <trkpt lat="43.68778" lon="6.97438">
        <ele>464.97253417969</ele>
        <time>2020-05-14T13:36:46Z</time>
      </trkpt>
      <trkpt lat="43.6878" lon="6.97435">
        <ele>462.64935302734</ele>
        <time>2020-05-14T13:36:47Z</time>
      </trkpt>
      <trkpt lat="43.68781" lon="6.97433">
        <ele>462.34387207031</ele>
        <time>2020-05-14T13:36:48Z</time>
      </trkpt>
      <trkpt lat="43.68783" lon="6.97431">
        <ele>460.27465820312</ele>
        <time>2020-05-14T13:36:49Z</time>
      </trkpt>
      <trkpt lat="43.68784" lon="6.97429">
        <ele>460.6748046875</ele>
        <time>2020-05-14T13:36:50Z</time>
      </trkpt>
      <trkpt lat="43.68786" lon="6.97427">
        <ele>460.54943847656</ele>
        <time>2020-05-14T13:36:51Z</time>
      </trkpt>
      <trkpt lat="43.68787" lon="6.97425">
        <ele>451.66101074219</ele>
        <time>2020-05-14T13:36:52Z</time>
      </trkpt>
      <trkpt lat="43.68789" lon="6.97423">
        <ele>449.96429443359</ele>
        <time>2020-05-14T13:36:53Z</time>
      </trkpt>
      <trkpt lat="43.68791" lon="6.9742">
        <ele>450.86706542969</ele>
        <time>2020-05-14T13:36:54Z</time>
      </trkpt>
      <trkpt lat="43.68792" lon="6.97418">
        <ele>449.88726806641</ele>
        <time>2020-05-14T13:36:55Z</time>
      </trkpt>
      <trkpt lat="43.68794" lon="6.97416">
        <ele>451.97930908203</ele>
        <time>2020-05-14T13:36:56Z</time>
      </trkpt>
      <trkpt lat="43.68796" lon="6.97414">
        <ele>453.42175292969</ele>
        <time>2020-05-14T13:36:57Z</time>
      </trkpt>
      <trkpt lat="43.68798" lon="6.97412">
        <ele>451.93627929688</ele>
        <time>2020-05-14T13:36:58Z</time>
      </trkpt>
      <trkpt lat="43.688" lon="6.9741">
        <ele>468.08294677734</ele>
        <time>2020-05-14T13:36:59Z</time>
      </trkpt>
      <trkpt lat="43.68802" lon="6.97408">
        <ele>463.31750488281</ele>
        <time>2020-05-14T13:37:00Z</time>
      </trkpt>
      <trkpt lat="43.68804" lon="6.97406">
        <ele>463.68896484375</ele>
        <time>2020-05-14T13:37:01Z</time>
      </trkpt>
      <trkpt lat="43.68806" lon="6.97404">
        <ele>463.57080078125</ele>
        <time>2020-05-14T13:37:02Z</time>
      </trkpt>
      <trkpt lat="43.68808" lon="6.97402">
        <ele>463.29138183594</ele>
        <time>2020-05-14T13:37:03Z</time>
      </trkpt>
      <trkpt lat="43.6881" lon="6.97401">
        <ele>462.92907714844</ele>
        <time>2020-05-14T13:37:04Z</time>
      </trkpt>
      <trkpt lat="43.68813" lon="6.97399">
        <ele>466.23785400391</ele>
        <time>2020-05-14T13:37:05Z</time>
      </trkpt>
      <trkpt lat="43.68815" lon="6.97397">
        <ele>467.58154296875</ele>
        <time>2020-05-14T13:37:06Z</time>
      </trkpt>
      <trkpt lat="43.68818" lon="6.97396">
        <ele>458.25433349609</ele>
        <time>2020-05-14T13:37:07Z</time>
      </trkpt>
      <trkpt lat="43.6882" lon="6.97395">
        <ele>460.76110839844</ele>
        <time>2020-05-14T13:37:08Z</time>
      </trkpt>
      <trkpt lat="43.68823" lon="6.97394">
        <ele>461.38989257812</ele>
        <time>2020-05-14T13:37:09Z</time>
      </trkpt>
      <trkpt lat="43.68825" lon="6.97394">
        <ele>480.23815917969</ele>
        <time>2020-05-14T13:37:10Z</time>
      </trkpt>
      <trkpt lat="43.68828" lon="6.97393">
        <ele>474.09771728516</ele>
        <time>2020-05-14T13:37:11Z</time>
      </trkpt>
      <trkpt lat="43.6883" lon="6.97393">
        <ele>476.95501708984</ele>
        <time>2020-05-14T13:37:12Z</time>
      </trkpt>
      <trkpt lat="43.68833" lon="6.97392">
        <ele>476.50817871094</ele>
        <time>2020-05-14T13:37:13Z</time>
      </trkpt>
      <trkpt lat="43.68835" lon="6.97392">
        <ele>474.72412109375</ele>
        <time>2020-05-14T13:37:14Z</time>
      </trkpt>
      <trkpt lat="43.68838" lon="6.97392">
        <ele>474.7314453125</ele>
        <time>2020-05-14T13:37:15Z</time>
      </trkpt>
      <trkpt lat="43.68841" lon="6.97392">
        <ele>463.06524658203</ele>
        <time>2020-05-14T13:37:16Z</time>
      </trkpt>
      <trkpt lat="43.68844" lon="6.97392">
        <ele>465.55041503906</ele>
        <time>2020-05-14T13:37:17Z</time>
      </trkpt>
      <trkpt lat="43.68846" lon="6.97392">
        <ele>463.53387451172</ele>
        <time>2020-05-14T13:37:18Z</time>
      </trkpt>
      <trkpt lat="43.68849" lon="6.97392">
        <ele>483.7822265625</ele>
        <time>2020-05-14T13:37:19Z</time>
      </trkpt>
      <trkpt lat="43.68852" lon="6.97393">
        <ele>474.41516113281</ele>
        <time>2020-05-14T13:37:20Z</time>
      </trkpt>
      <trkpt lat="43.68855" lon="6.97393">
        <ele>475.42492675781</ele>
        <time>2020-05-14T13:37:21Z</time>
      </trkpt>
      <trkpt lat="43.68858" lon="6.97394">
        <ele>477.08984375</ele>
        <time>2020-05-14T13:37:22Z</time>
      </trkpt>
      <trkpt lat="43.68861" lon="6.97394">
        <ele>475.96655273438</ele>
        <time>2020-05-14T13:37:23Z</time>
      </trkpt>
      <trkpt lat="43.68864" lon="6.97395">
        <ele>466.01428222656</ele>
        <time>2020-05-14T13:37:24Z</time>
      </trkpt>
      <trkpt lat="43.68866" lon="6.97395">
        <ele>469.10070800781</ele>
        <time>2020-05-14T13:37:25Z</time>
      </trkpt>
      <trkpt lat="43.68869" lon="6.97395">
        <ele>464.58764648438</ele>
        <time>2020-05-14T13:37:26Z</time>
      </trkpt>
      <trkpt lat="43.68871" lon="6.97395">
        <ele>484.46423339844</ele>
        <time>2020-05-14T13:37:27Z</time>
      </trkpt>
      <trkpt lat="43.68874" lon="6.97396">
        <ele>476.68212890625</ele>
        <time>2020-05-14T13:37:28Z</time>
      </trkpt>
      <trkpt lat="43.68876" lon="6.97396">
        <ele>464.41687011719</ele>
        <time>2020-05-14T13:37:29Z</time>
      </trkpt>
      <trkpt lat="43.68879" lon="6.97396">
        <ele>456.99694824219</ele>
        <time>2020-05-14T13:37:30Z</time>
      </trkpt>
      <trkpt lat="43.68881" lon="6.97396">
        <ele>457.40209960938</ele>
        <time>2020-05-14T13:37:31Z</time>
      </trkpt>
      <trkpt lat="43.68883" lon="6.97397">
        <ele>478.955078125</ele>
        <time>2020-05-14T13:37:32Z</time>
      </trkpt>
      <trkpt lat="43.68885" lon="6.97397">
        <ele>472.77447509766</ele>
        <time>2020-05-14T13:37:33Z</time>
      </trkpt>
      <trkpt lat="43.68887" lon="6.97398">
        <ele>469.22210693359</ele>
        <time>2020-05-14T13:37:34Z</time>
      </trkpt>
      <trkpt lat="43.68889" lon="6.97399">
        <ele>471.40734863281</ele>
        <time>2020-05-14T13:37:35Z</time>
      </trkpt>
      <trkpt lat="43.68891" lon="6.97399">
        <ele>459.58203125</ele>
        <time>2020-05-14T13:37:36Z</time>
      </trkpt>
      <trkpt lat="43.68893" lon="6.974">
        <ele>482.56066894531</ele>
        <time>2020-05-14T13:37:37Z</time>
      </trkpt>
      <trkpt lat="43.68896" lon="6.974">
        <ele>479.68701171875</ele>
        <time>2020-05-14T13:37:38Z</time>
      </trkpt>
      <trkpt lat="43.68898" lon="6.974">
        <ele>477.39923095703</ele>
        <time>2020-05-14T13:37:39Z</time>
      </trkpt>
      <trkpt lat="43.68901" lon="6.97399">
        <ele>475.03387451172</ele>
        <time>2020-05-14T13:37:40Z</time>
      </trkpt>
      <trkpt lat="43.68903" lon="6.97399">
        <ele>460.10107421875</ele>
        <time>2020-05-14T13:37:41Z</time>
      </trkpt>
      <trkpt lat="43.68906" lon="6.97399">
        <ele>458.32006835938</ele>
        <time>2020-05-14T13:37:42Z</time>
      </trkpt>
      <trkpt lat="43.68908" lon="6.97399">
        <ele>456.69677734375</ele>
        <time>2020-05-14T13:37:43Z</time>
      </trkpt>
      <trkpt lat="43.68911" lon="6.974">
        <ele>456.18615722656</ele>
        <time>2020-05-14T13:37:44Z</time>
      </trkpt>
      <trkpt lat="43.68914" lon="6.97401">
        <ele>455.28247070312</ele>
        <time>2020-05-14T13:37:45Z</time>
      </trkpt>
      <trkpt lat="43.68917" lon="6.97403">
        <ele>453.56378173828</ele>
        <time>2020-05-14T13:37:46Z</time>
      </trkpt>
      <trkpt lat="43.68919" lon="6.97404">
        <ele>457.33917236328</ele>
        <time>2020-05-14T13:37:47Z</time>
      </trkpt>
      <trkpt lat="43.68922" lon="6.97405">
        <ele>457.142578125</ele>
        <time>2020-05-14T13:37:48Z</time>
      </trkpt>
      <trkpt lat="43.68924" lon="6.97406">
        <ele>457.29022216797</ele>
        <time>2020-05-14T13:37:49Z</time>
      </trkpt>
      <trkpt lat="43.68927" lon="6.97406">
        <ele>457.03088378906</ele>
        <time>2020-05-14T13:37:50Z</time>
      </trkpt>
      <trkpt lat="43.6893" lon="6.97407">
        <ele>454.69909667969</ele>
        <time>2020-05-14T13:37:51Z</time>
      </trkpt>
      <trkpt lat="43.68932" lon="6.97408">
        <ele>453.05224609375</ele>
        <time>2020-05-14T13:37:52Z</time>
      </trkpt>
      <trkpt lat="43.68935" lon="6.9741">
        <ele>449.40808105469</ele>
        <time>2020-05-14T13:37:53Z</time>
      </trkpt>
      <trkpt lat="43.68937" lon="6.97411">
        <ele>451.75958251953</ele>
        <time>2020-05-14T13:37:54Z</time>
      </trkpt>
      <trkpt lat="43.6894" lon="6.97412">
        <ele>472.689453125</ele>
        <time>2020-05-14T13:37:55Z</time>
      </trkpt>
      <trkpt lat="43.68942" lon="6.97413">
        <ele>466.41137695312</ele>
        <time>2020-05-14T13:37:56Z</time>
      </trkpt>
      <trkpt lat="43.68945" lon="6.97414">
        <ele>469.18566894531</ele>
        <time>2020-05-14T13:37:57Z</time>
      </trkpt>
      <trkpt lat="43.68948" lon="6.97414">
        <ele>468.31616210938</ele>
        <time>2020-05-14T13:37:58Z</time>
      </trkpt>
      <trkpt lat="43.6895" lon="6.97414">
        <ele>466.86907958984</ele>
        <time>2020-05-14T13:37:59Z</time>
      </trkpt>
      <trkpt lat="43.68953" lon="6.97415">
        <ele>468.37145996094</ele>
        <time>2020-05-14T13:38:00Z</time>
      </trkpt>
      <trkpt lat="43.68955" lon="6.97415">
        <ele>455.61645507812</ele>
        <time>2020-05-14T13:38:01Z</time>
      </trkpt>
      <trkpt lat="43.68957" lon="6.97416">
        <ele>454.51440429688</ele>
        <time>2020-05-14T13:38:02Z</time>
      </trkpt>
      <trkpt lat="43.68958" lon="6.97416">
        <ele>452.72058105469</ele>
        <time>2020-05-14T13:38:03Z</time>
      </trkpt>
      <trkpt lat="43.6896" lon="6.97417">
        <ele>453.51995849609</ele>
        <time>2020-05-14T13:38:04Z</time>
      </trkpt>
      <trkpt lat="43.68962" lon="6.97418">
        <ele>453.16827392578</ele>
        <time>2020-05-14T13:38:05Z</time>
      </trkpt>
      <trkpt lat="43.68964" lon="6.97418">
        <ele>452.49584960938</ele>
        <time>2020-05-14T13:38:06Z</time>
      </trkpt>
      <trkpt lat="43.68966" lon="6.97419">
        <ele>455.52075195312</ele>
        <time>2020-05-14T13:38:07Z</time>
      </trkpt>
      <trkpt lat="43.68969" lon="6.97419">
        <ele>472.39959716797</ele>
        <time>2020-05-14T13:38:08Z</time>
      </trkpt>
      <trkpt lat="43.68971" lon="6.97419">
        <ele>464.52624511719</ele>
        <time>2020-05-14T13:38:09Z</time>
      </trkpt>
      <trkpt lat="43.68974" lon="6.9742">
        <ele>462.10589599609</ele>
        <time>2020-05-14T13:38:10Z</time>
      </trkpt>
      <trkpt lat="43.68976" lon="6.9742">
        <ele>463.05383300781</ele>
        <time>2020-05-14T13:38:11Z</time>
      </trkpt>
      <trkpt lat="43.68979" lon="6.97419">
        <ele>464.69244384766</ele>
        <time>2020-05-14T13:38:12Z</time>
      </trkpt>
      <trkpt lat="43.68981" lon="6.97419">
        <ele>455.49658203125</ele>
        <time>2020-05-14T13:38:13Z</time>
      </trkpt>
      <trkpt lat="43.68983" lon="6.9742">
        <ele>457.10028076172</ele>
        <time>2020-05-14T13:38:14Z</time>
      </trkpt>
      <trkpt lat="43.68984" lon="6.9742">
        <ele>455.48803710938</ele>
        <time>2020-05-14T13:38:15Z</time>
      </trkpt>
      <trkpt lat="43.68987" lon="6.9742">
        <ele>454.30285644531</ele>
        <time>2020-05-14T13:38:16Z</time>
      </trkpt>
      <trkpt lat="43.68989" lon="6.9742">
        <ele>452.92156982422</ele>
        <time>2020-05-14T13:38:17Z</time>
      </trkpt>
      <trkpt lat="43.68991" lon="6.97421">
        <ele>456.25634765625</ele>
        <time>2020-05-14T13:38:18Z</time>
      </trkpt>
      <trkpt lat="43.68994" lon="6.97421">
        <ele>457.599609375</ele>
        <time>2020-05-14T13:38:19Z</time>
      </trkpt>
      <trkpt lat="43.68996" lon="6.97421">
        <ele>462.10705566406</ele>
        <time>2020-05-14T13:38:20Z</time>
      </trkpt>
      <trkpt lat="43.68999" lon="6.97421">
        <ele>465.25451660156</ele>
        <time>2020-05-14T13:38:21Z</time>
      </trkpt>
      <trkpt lat="43.69001" lon="6.97422">
        <ele>462.87390136719</ele>
        <time>2020-05-14T13:38:22Z</time>
      </trkpt>
      <trkpt lat="43.69003" lon="6.97422">
        <ele>464.46362304688</ele>
        <time>2020-05-14T13:38:23Z</time>
      </trkpt>
      <trkpt lat="43.69006" lon="6.97423">
        <ele>465.30786132812</ele>
        <time>2020-05-14T13:38:24Z</time>
      </trkpt>
      <trkpt lat="43.69008" lon="6.97423">
        <ele>464.05560302734</ele>
        <time>2020-05-14T13:38:25Z</time>
      </trkpt>
      <trkpt lat="43.69011" lon="6.97423">
        <ele>460.35766601562</ele>
        <time>2020-05-14T13:38:26Z</time>
      </trkpt>
      <trkpt lat="43.69013" lon="6.97424">
        <ele>461.30700683594</ele>
        <time>2020-05-14T13:38:27Z</time>
      </trkpt>
      <trkpt lat="43.69016" lon="6.97424">
        <ele>465.82580566406</ele>
        <time>2020-05-14T13:38:28Z</time>
      </trkpt>
      <trkpt lat="43.69018" lon="6.97424">
        <ele>494.82434082031</ele>
        <time>2020-05-14T13:38:29Z</time>
      </trkpt>
      <trkpt lat="43.6902" lon="6.97424">
        <ele>490.98474121094</ele>
        <time>2020-05-14T13:38:30Z</time>
      </trkpt>
      <trkpt lat="43.69023" lon="6.97424">
        <ele>486.37670898438</ele>
        <time>2020-05-14T13:38:31Z</time>
      </trkpt>
      <trkpt lat="43.69025" lon="6.97424">
        <ele>489.43756103516</ele>
        <time>2020-05-14T13:38:32Z</time>
      </trkpt>
      <trkpt lat="43.69027" lon="6.97423">
        <ele>483.29602050781</ele>
        <time>2020-05-14T13:38:33Z</time>
      </trkpt>
      <trkpt lat="43.6903" lon="6.97423">
        <ele>480.61791992188</ele>
        <time>2020-05-14T13:38:34Z</time>
      </trkpt>
      <trkpt lat="43.69032" lon="6.97423">
        <ele>483.07055664062</ele>
        <time>2020-05-14T13:38:35Z</time>
      </trkpt>
      <trkpt lat="43.69035" lon="6.97423">
        <ele>485.02209472656</ele>
        <time>2020-05-14T13:38:36Z</time>
      </trkpt>
      <trkpt lat="43.69037" lon="6.97423">
        <ele>484.77105712891</ele>
        <time>2020-05-14T13:38:37Z</time>
      </trkpt>
      <trkpt lat="43.69039" lon="6.97423">
        <ele>485.50427246094</ele>
        <time>2020-05-14T13:38:38Z</time>
      </trkpt>
      <trkpt lat="43.69041" lon="6.97423">
        <ele>486.47143554688</ele>
        <time>2020-05-14T13:38:39Z</time>
      </trkpt>
      <trkpt lat="43.69044" lon="6.97423">
        <ele>477.20318603516</ele>
        <time>2020-05-14T13:38:40Z</time>
      </trkpt>
      <trkpt lat="43.69046" lon="6.97424">
        <ele>480.51672363281</ele>
        <time>2020-05-14T13:38:41Z</time>
      </trkpt>
      <trkpt lat="43.69048" lon="6.97424">
        <ele>478.41394042969</ele>
        <time>2020-05-14T13:38:42Z</time>
      </trkpt>
      <trkpt lat="43.69051" lon="6.97424">
        <ele>480.3671875</ele>
        <time>2020-05-14T13:38:43Z</time>
      </trkpt>
      <trkpt lat="43.69053" lon="6.97424">
        <ele>484.98541259766</ele>
        <time>2020-05-14T13:38:44Z</time>
      </trkpt>
      <trkpt lat="43.69055" lon="6.97424">
        <ele>470.88012695312</ele>
        <time>2020-05-14T13:38:45Z</time>
      </trkpt>
      <trkpt lat="43.69058" lon="6.97424">
        <ele>473.05822753906</ele>
        <time>2020-05-14T13:38:46Z</time>
      </trkpt>
      <trkpt lat="43.69061" lon="6.97423">
        <ele>472.34094238281</ele>
        <time>2020-05-14T13:38:47Z</time>
      </trkpt>
      <trkpt lat="43.69064" lon="6.97422">
        <ele>474.18591308594</ele>
        <time>2020-05-14T13:38:48Z</time>
      </trkpt>
      <trkpt lat="43.69067" lon="6.97422">
        <ele>476.77880859375</ele>
        <time>2020-05-14T13:38:49Z</time>
      </trkpt>
      <trkpt lat="43.69069" lon="6.9742">
        <ele>472.43908691406</ele>
        <time>2020-05-14T13:38:50Z</time>
      </trkpt>
      <trkpt lat="43.69072" lon="6.97419">
        <ele>475.67742919922</ele>
        <time>2020-05-14T13:38:51Z</time>
      </trkpt>
      <trkpt lat="43.69074" lon="6.97417">
        <ele>473.30731201172</ele>
        <time>2020-05-14T13:38:52Z</time>
      </trkpt>
      <trkpt lat="43.69077" lon="6.97416">
        <ele>469.16467285156</ele>
        <time>2020-05-14T13:38:53Z</time>
      </trkpt>
      <trkpt lat="43.69079" lon="6.97415">
        <ele>462.56823730469</ele>
        <time>2020-05-14T13:38:54Z</time>
      </trkpt>
      <trkpt lat="43.69081" lon="6.97414">
        <ele>462.00805664062</ele>
        <time>2020-05-14T13:38:55Z</time>
      </trkpt>
      <trkpt lat="43.69083" lon="6.97412">
        <ele>464.11083984375</ele>
        <time>2020-05-14T13:38:56Z</time>
      </trkpt>
      <trkpt lat="43.69086" lon="6.97411">
        <ele>465.92889404297</ele>
        <time>2020-05-14T13:38:57Z</time>
      </trkpt>
      <trkpt lat="43.69088" lon="6.9741">
        <ele>464.61328125</ele>
        <time>2020-05-14T13:38:58Z</time>
      </trkpt>
      <trkpt lat="43.6909" lon="6.97408">
        <ele>468.58361816406</ele>
        <time>2020-05-14T13:38:59Z</time>
      </trkpt>
      <trkpt lat="43.69092" lon="6.97407">
        <ele>465.69659423828</ele>
        <time>2020-05-14T13:39:00Z</time>
      </trkpt>
      <trkpt lat="43.69094" lon="6.97406">
        <ele>467.27679443359</ele>
        <time>2020-05-14T13:39:01Z</time>
      </trkpt>
      <trkpt lat="43.69096" lon="6.97404">
        <ele>463.03472900391</ele>
        <time>2020-05-14T13:39:02Z</time>
      </trkpt>
      <trkpt lat="43.69098" lon="6.97403">
        <ele>482.82202148438</ele>
        <time>2020-05-14T13:39:03Z</time>
      </trkpt>
      <trkpt lat="43.69101" lon="6.974">
        <ele>471.95739746094</ele>
        <time>2020-05-14T13:39:04Z</time>
      </trkpt>
      <trkpt lat="43.69103" lon="6.97397">
        <ele>466.07855224609</ele>
        <time>2020-05-14T13:39:05Z</time>
      </trkpt>
      <trkpt lat="43.69105" lon="6.97394">
        <ele>462.9541015625</ele>
        <time>2020-05-14T13:39:06Z</time>
      </trkpt>
      <trkpt lat="43.69106" lon="6.97391">
        <ele>472.02276611328</ele>
        <time>2020-05-14T13:39:07Z</time>
      </trkpt>
      <trkpt lat="43.69108" lon="6.97388">
        <ele>459.15051269531</ele>
        <time>2020-05-14T13:39:08Z</time>
      </trkpt>
      <trkpt lat="43.6911" lon="6.97384">
        <ele>457.73712158203</ele>
        <time>2020-05-14T13:39:09Z</time>
      </trkpt>
      <trkpt lat="43.69111" lon="6.97381">
        <ele>456.52935791016</ele>
        <time>2020-05-14T13:39:10Z</time>
      </trkpt>
      <trkpt lat="43.69113" lon="6.97379">
        <ele>454.68920898438</ele>
        <time>2020-05-14T13:39:11Z</time>
      </trkpt>
      <trkpt lat="43.69114" lon="6.97376">
        <ele>454.78082275391</ele>
        <time>2020-05-14T13:39:12Z</time>
      </trkpt>
      <trkpt lat="43.69115" lon="6.97374">
        <ele>474.99353027344</ele>
        <time>2020-05-14T13:39:13Z</time>
      </trkpt>
      <trkpt lat="43.69116" lon="6.97371">
        <ele>471.72064208984</ele>
        <time>2020-05-14T13:39:14Z</time>
      </trkpt>
      <trkpt lat="43.69117" lon="6.97368">
        <ele>472.42736816406</ele>
        <time>2020-05-14T13:39:15Z</time>
      </trkpt>
      <trkpt lat="43.69118" lon="6.97365">
        <ele>472.46905517578</ele>
        <time>2020-05-14T13:39:16Z</time>
      </trkpt>
      <trkpt lat="43.69119" lon="6.97361">
        <ele>460.32415771484</ele>
        <time>2020-05-14T13:39:17Z</time>
      </trkpt>
      <trkpt lat="43.69119" lon="6.97358">
        <ele>459.80859375</ele>
        <time>2020-05-14T13:39:18Z</time>
      </trkpt>
      <trkpt lat="43.6912" lon="6.97355">
        <ele>456.91528320312</ele>
        <time>2020-05-14T13:39:19Z</time>
      </trkpt>
      <trkpt lat="43.69121" lon="6.97352">
        <ele>456.80065917969</ele>
        <time>2020-05-14T13:39:20Z</time>
      </trkpt>
      <trkpt lat="43.69122" lon="6.97348">
        <ele>456.00598144531</ele>
        <time>2020-05-14T13:39:21Z</time>
      </trkpt>
      <trkpt lat="43.69122" lon="6.97345">
        <ele>455.12744140625</ele>
        <time>2020-05-14T13:39:22Z</time>
      </trkpt>
      <trkpt lat="43.69123" lon="6.97342">
        <ele>457.05151367188</ele>
        <time>2020-05-14T13:39:23Z</time>
      </trkpt>
      <trkpt lat="43.69124" lon="6.97339">
        <ele>456.99822998047</ele>
        <time>2020-05-14T13:39:24Z</time>
      </trkpt>
      <trkpt lat="43.69124" lon="6.97336">
        <ele>457.52502441406</ele>
        <time>2020-05-14T13:39:25Z</time>
      </trkpt>
      <trkpt lat="43.69124" lon="6.97333">
        <ele>459.13354492188</ele>
        <time>2020-05-14T13:39:26Z</time>
      </trkpt>
      <trkpt lat="43.69125" lon="6.9733">
        <ele>466.03900146484</ele>
        <time>2020-05-14T13:39:27Z</time>
      </trkpt>
      <trkpt lat="43.69125" lon="6.97327">
        <ele>467.25964355469</ele>
        <time>2020-05-14T13:39:28Z</time>
      </trkpt>
      <trkpt lat="43.69126" lon="6.97324">
        <ele>465.80236816406</ele>
        <time>2020-05-14T13:39:29Z</time>
      </trkpt>
      <trkpt lat="43.69126" lon="6.97321">
        <ele>495.46307373047</ele>
        <time>2020-05-14T13:39:30Z</time>
      </trkpt>
      <trkpt lat="43.69127" lon="6.97318">
        <ele>492.27282714844</ele>
        <time>2020-05-14T13:39:31Z</time>
      </trkpt>
      <trkpt lat="43.69128" lon="6.97315">
        <ele>484.63714599609</ele>
        <time>2020-05-14T13:39:32Z</time>
      </trkpt>
      <trkpt lat="43.69129" lon="6.97312">
        <ele>468.48168945312</ele>
        <time>2020-05-14T13:39:33Z</time>
      </trkpt>
      <trkpt lat="43.6913" lon="6.9731">
        <ele>465.68737792969</ele>
        <time>2020-05-14T13:39:34Z</time>
      </trkpt>
      <trkpt lat="43.69132" lon="6.97307">
        <ele>460.99060058594</ele>
        <time>2020-05-14T13:39:35Z</time>
      </trkpt>
      <trkpt lat="43.69133" lon="6.97305">
        <ele>462.38415527344</ele>
        <time>2020-05-14T13:39:36Z</time>
      </trkpt>
      <trkpt lat="43.69135" lon="6.97303">
        <ele>456.85369873047</ele>
        <time>2020-05-14T13:39:37Z</time>
      </trkpt>
      <trkpt lat="43.69136" lon="6.973">
        <ele>456.09631347656</ele>
        <time>2020-05-14T13:39:38Z</time>
      </trkpt>
      <trkpt lat="43.69137" lon="6.97298">
        <ele>455.71313476562</ele>
        <time>2020-05-14T13:39:39Z</time>
      </trkpt>
      <trkpt lat="43.69138" lon="6.97296">
        <ele>458.05041503906</ele>
        <time>2020-05-14T13:39:40Z</time>
      </trkpt>
      <trkpt lat="43.6914" lon="6.97294">
        <ele>459.75836181641</ele>
        <time>2020-05-14T13:39:41Z</time>
      </trkpt>
      <trkpt lat="43.69141" lon="6.97292">
        <ele>462.86065673828</ele>
        <time>2020-05-14T13:39:42Z</time>
      </trkpt>
      <trkpt lat="43.69143" lon="6.97289">
        <ele>458.94421386719</ele>
        <time>2020-05-14T13:39:43Z</time>
      </trkpt>
      <trkpt lat="43.69145" lon="6.97287">
        <ele>460.94171142578</ele>
        <time>2020-05-14T13:39:44Z</time>
      </trkpt>
      <trkpt lat="43.69147" lon="6.97284">
        <ele>463.62585449219</ele>
        <time>2020-05-14T13:39:45Z</time>
      </trkpt>
      <trkpt lat="43.69149" lon="6.97282">
        <ele>457.05139160156</ele>
        <time>2020-05-14T13:39:46Z</time>
      </trkpt>
      <trkpt lat="43.69151" lon="6.9728">
        <ele>466.80773925781</ele>
        <time>2020-05-14T13:39:47Z</time>
      </trkpt>
      <trkpt lat="43.69153" lon="6.97278">
        <ele>494.95178222656</ele>
        <time>2020-05-14T13:39:48Z</time>
      </trkpt>
      <trkpt lat="43.69155" lon="6.97276">
        <ele>487.7763671875</ele>
        <time>2020-05-14T13:39:49Z</time>
      </trkpt>
      <trkpt lat="43.69157" lon="6.97274">
        <ele>492.89868164062</ele>
        <time>2020-05-14T13:39:50Z</time>
      </trkpt>
      <trkpt lat="43.69159" lon="6.97272">
        <ele>491.77233886719</ele>
        <time>2020-05-14T13:39:51Z</time>
      </trkpt>
      <trkpt lat="43.69161" lon="6.97271">
        <ele>493.57067871094</ele>
        <time>2020-05-14T13:39:52Z</time>
      </trkpt>
      <trkpt lat="43.69164" lon="6.97269">
        <ele>495.44488525391</ele>
        <time>2020-05-14T13:39:53Z</time>
      </trkpt>
      <trkpt lat="43.69166" lon="6.97268">
        <ele>495.53454589844</ele>
        <time>2020-05-14T13:39:54Z</time>
      </trkpt>
      <trkpt lat="43.69168" lon="6.97267">
        <ele>496.87072753906</ele>
        <time>2020-05-14T13:39:55Z</time>
      </trkpt>
      <trkpt lat="43.6917" lon="6.97266">
        <ele>494.32080078125</ele>
        <time>2020-05-14T13:39:56Z</time>
      </trkpt>
      <trkpt lat="43.69173" lon="6.97266">
        <ele>497.49768066406</ele>
        <time>2020-05-14T13:39:57Z</time>
      </trkpt>
      <trkpt lat="43.69175" lon="6.97264">
        <ele>479.55578613281</ele>
        <time>2020-05-14T13:39:58Z</time>
      </trkpt>
      <trkpt lat="43.69177" lon="6.97263">
        <ele>475.80639648438</ele>
        <time>2020-05-14T13:39:59Z</time>
      </trkpt>
      <trkpt lat="43.69179" lon="6.97262">
        <ele>476.73254394531</ele>
        <time>2020-05-14T13:40:00Z</time>
      </trkpt>
      <trkpt lat="43.69182" lon="6.97261">
        <ele>478.55725097656</ele>
        <time>2020-05-14T13:40:01Z</time>
      </trkpt>
      <trkpt lat="43.69184" lon="6.97261">
        <ele>476.71154785156</ele>
        <time>2020-05-14T13:40:02Z</time>
      </trkpt>
      <trkpt lat="43.69187" lon="6.9726">
        <ele>475.56127929688</ele>
        <time>2020-05-14T13:40:03Z</time>
      </trkpt>
      <trkpt lat="43.69189" lon="6.97259">
        <ele>473.033203125</ele>
        <time>2020-05-14T13:40:04Z</time>
      </trkpt>
      <trkpt lat="43.69191" lon="6.97259">
        <ele>472.55603027344</ele>
        <time>2020-05-14T13:40:05Z</time>
      </trkpt>
      <trkpt lat="43.69193" lon="6.97258">
        <ele>473.44256591797</ele>
        <time>2020-05-14T13:40:06Z</time>
      </trkpt>
      <trkpt lat="43.69195" lon="6.97257">
        <ele>475.35430908203</ele>
        <time>2020-05-14T13:40:07Z</time>
      </trkpt>
      <trkpt lat="43.69197" lon="6.97258">
        <ele>471.3349609375</ele>
        <time>2020-05-14T13:40:08Z</time>
      </trkpt>
      <trkpt lat="43.692" lon="6.97258">
        <ele>468.67211914062</ele>
        <time>2020-05-14T13:40:09Z</time>
      </trkpt>
      <trkpt lat="43.69203" lon="6.97258">
        <ele>466.55828857422</ele>
        <time>2020-05-14T13:40:10Z</time>
      </trkpt>
      <trkpt lat="43.69206" lon="6.97258">
        <ele>469.97741699219</ele>
        <time>2020-05-14T13:40:11Z</time>
      </trkpt>
      <trkpt lat="43.69209" lon="6.97258">
        <ele>467.67041015625</ele>
        <time>2020-05-14T13:40:12Z</time>
      </trkpt>
      <trkpt lat="43.69211" lon="6.97258">
        <ele>469.45324707031</ele>
        <time>2020-05-14T13:40:13Z</time>
      </trkpt>
      <trkpt lat="43.69213" lon="6.97257">
        <ele>493.60461425781</ele>
        <time>2020-05-14T13:40:14Z</time>
      </trkpt>
      <trkpt lat="43.69216" lon="6.97256">
        <ele>493.55627441406</ele>
        <time>2020-05-14T13:40:15Z</time>
      </trkpt>
      <trkpt lat="43.69219" lon="6.97255">
        <ele>486.54272460938</ele>
        <time>2020-05-14T13:40:16Z</time>
      </trkpt>
      <trkpt lat="43.69222" lon="6.97255">
        <ele>485.54321289062</ele>
        <time>2020-05-14T13:40:17Z</time>
      </trkpt>
      <trkpt lat="43.69224" lon="6.97255">
        <ele>486.58264160156</ele>
        <time>2020-05-14T13:40:18Z</time>
      </trkpt>
      <trkpt lat="43.69227" lon="6.97254">
        <ele>484.8232421875</ele>
        <time>2020-05-14T13:40:19Z</time>
      </trkpt>
      <trkpt lat="43.6923" lon="6.97253">
        <ele>484.21441650391</ele>
        <time>2020-05-14T13:40:20Z</time>
      </trkpt>
      <trkpt lat="43.69233" lon="6.97252">
        <ele>466.22717285156</ele>
        <time>2020-05-14T13:40:21Z</time>
      </trkpt>
      <trkpt lat="43.69236" lon="6.97251">
        <ele>466.32824707031</ele>
        <time>2020-05-14T13:40:22Z</time>
      </trkpt>
      <trkpt lat="43.69239" lon="6.97251">
        <ele>469.51037597656</ele>
        <time>2020-05-14T13:40:23Z</time>
      </trkpt>
      <trkpt lat="43.69242" lon="6.9725">
        <ele>468.67529296875</ele>
        <time>2020-05-14T13:40:24Z</time>
      </trkpt>
      <trkpt lat="43.69244" lon="6.97248">
        <ele>465.03881835938</ele>
        <time>2020-05-14T13:40:25Z</time>
      </trkpt>
      <trkpt lat="43.69246" lon="6.97247">
        <ele>466.630859375</ele>
        <time>2020-05-14T13:40:26Z</time>
      </trkpt>
      <trkpt lat="43.69249" lon="6.97245">
        <ele>468.76654052734</ele>
        <time>2020-05-14T13:40:27Z</time>
      </trkpt>
      <trkpt lat="43.69251" lon="6.97244">
        <ele>468.23211669922</ele>
        <time>2020-05-14T13:40:28Z</time>
      </trkpt>
      <trkpt lat="43.69253" lon="6.97242">
        <ele>462.43267822266</ele>
        <time>2020-05-14T13:40:29Z</time>
      </trkpt>
      <trkpt lat="43.69255" lon="6.97241">
        <ele>464.89978027344</ele>
        <time>2020-05-14T13:40:30Z</time>
      </trkpt>
      <trkpt lat="43.69257" lon="6.97239">
        <ele>462.49334716797</ele>
        <time>2020-05-14T13:40:31Z</time>
      </trkpt>
      <trkpt lat="43.69258" lon="6.97237">
        <ele>461.69812011719</ele>
        <time>2020-05-14T13:40:32Z</time>
      </trkpt>
      <trkpt lat="43.6926" lon="6.97236">
        <ele>458.15441894531</ele>
        <time>2020-05-14T13:40:33Z</time>
      </trkpt>
      <trkpt lat="43.69262" lon="6.97234">
        <ele>462.17694091797</ele>
        <time>2020-05-14T13:40:34Z</time>
      </trkpt>
      <trkpt lat="43.69264" lon="6.97232">
        <ele>462.16088867188</ele>
        <time>2020-05-14T13:40:35Z</time>
      </trkpt>
      <trkpt lat="43.69265" lon="6.97229">
        <ele>463.95324707031</ele>
        <time>2020-05-14T13:40:36Z</time>
      </trkpt>
      <trkpt lat="43.69267" lon="6.97227">
        <ele>463.90057373047</ele>
        <time>2020-05-14T13:40:37Z</time>
      </trkpt>
      <trkpt lat="43.69269" lon="6.97225">
        <ele>492.01202392578</ele>
        <time>2020-05-14T13:40:38Z</time>
      </trkpt>
      <trkpt lat="43.69271" lon="6.97223">
        <ele>483.57470703125</ele>
        <time>2020-05-14T13:40:39Z</time>
      </trkpt>
      <trkpt lat="43.69273" lon="6.97221">
        <ele>473.50421142578</ele>
        <time>2020-05-14T13:40:40Z</time>
      </trkpt>
      <trkpt lat="43.69275" lon="6.97219">
        <ele>471.25219726562</ele>
        <time>2020-05-14T13:40:41Z</time>
      </trkpt>
      <trkpt lat="43.69277" lon="6.97216">
        <ele>471.45812988281</ele>
        <time>2020-05-14T13:40:42Z</time>
      </trkpt>
      <trkpt lat="43.69279" lon="6.97214">
        <ele>473.61724853516</ele>
        <time>2020-05-14T13:40:43Z</time>
      </trkpt>
      <trkpt lat="43.69281" lon="6.97212">
        <ele>457.59948730469</ele>
        <time>2020-05-14T13:40:44Z</time>
      </trkpt>
      <trkpt lat="43.69283" lon="6.9721">
        <ele>461.87127685547</ele>
        <time>2020-05-14T13:40:45Z</time>
      </trkpt>
      <trkpt lat="43.69285" lon="6.97208">
        <ele>458.6689453125</ele>
        <time>2020-05-14T13:40:46Z</time>
      </trkpt>
      <trkpt lat="43.69287" lon="6.97205">
        <ele>454.09167480469</ele>
        <time>2020-05-14T13:40:47Z</time>
      </trkpt>
      <trkpt lat="43.69289" lon="6.97203">
        <ele>452.56427001953</ele>
        <time>2020-05-14T13:40:48Z</time>
      </trkpt>
      <trkpt lat="43.69291" lon="6.97201">
        <ele>454.63220214844</ele>
        <time>2020-05-14T13:40:49Z</time>
      </trkpt>
      <trkpt lat="43.69293" lon="6.97199">
        <ele>456.26171875</ele>
        <time>2020-05-14T13:40:50Z</time>
      </trkpt>
      <trkpt lat="43.69295" lon="6.97197">
        <ele>458.48779296875</ele>
        <time>2020-05-14T13:40:51Z</time>
      </trkpt>
      <trkpt lat="43.69297" lon="6.97195">
        <ele>460.0517578125</ele>
        <time>2020-05-14T13:40:52Z</time>
      </trkpt>
      <trkpt lat="43.69299" lon="6.97193">
        <ele>455.32946777344</ele>
        <time>2020-05-14T13:40:53Z</time>
      </trkpt>
      <trkpt lat="43.693" lon="6.97191">
        <ele>451.89001464844</ele>
        <time>2020-05-14T13:40:54Z</time>
      </trkpt>
      <trkpt lat="43.69302" lon="6.97189">
        <ele>474.09460449219</ele>
        <time>2020-05-14T13:40:55Z</time>
      </trkpt>
      <trkpt lat="43.69303" lon="6.97187">
        <ele>469.76416015625</ele>
        <time>2020-05-14T13:40:56Z</time>
      </trkpt>
      <trkpt lat="43.69305" lon="6.97185">
        <ele>472.11608886719</ele>
        <time>2020-05-14T13:40:57Z</time>
      </trkpt>
      <trkpt lat="43.69307" lon="6.97182">
        <ele>472.05749511719</ele>
        <time>2020-05-14T13:40:58Z</time>
      </trkpt>
      <trkpt lat="43.69309" lon="6.9718">
        <ele>460.02075195312</ele>
        <time>2020-05-14T13:40:59Z</time>
      </trkpt>
      <trkpt lat="43.69311" lon="6.97178">
        <ele>458.76605224609</ele>
        <time>2020-05-14T13:41:00Z</time>
      </trkpt>
      <trkpt lat="43.69313" lon="6.97177">
        <ele>462.13073730469</ele>
        <time>2020-05-14T13:41:01Z</time>
      </trkpt>
      <trkpt lat="43.69315" lon="6.97175">
        <ele>466.3603515625</ele>
        <time>2020-05-14T13:41:02Z</time>
      </trkpt>
      <trkpt lat="43.69317" lon="6.97172">
        <ele>460.75836181641</ele>
        <time>2020-05-14T13:41:03Z</time>
      </trkpt>
      <trkpt lat="43.69318" lon="6.9717">
        <ele>458.89910888672</ele>
        <time>2020-05-14T13:41:04Z</time>
      </trkpt>
      <trkpt lat="43.6932" lon="6.97168">
        <ele>488.90014648438</ele>
        <time>2020-05-14T13:41:05Z</time>
      </trkpt>
      <trkpt lat="43.69321" lon="6.97167">
        <ele>478.83251953125</ele>
        <time>2020-05-14T13:41:06Z</time>
      </trkpt>
      <trkpt lat="43.69323" lon="6.97166">
        <ele>460.28637695312</ele>
        <time>2020-05-14T13:41:07Z</time>
      </trkpt>
      <trkpt lat="43.69325" lon="6.97165">
        <ele>461.53039550781</ele>
        <time>2020-05-14T13:41:08Z</time>
      </trkpt>
      <trkpt lat="43.69326" lon="6.97164">
        <ele>462.02893066406</ele>
        <time>2020-05-14T13:41:09Z</time>
      </trkpt>
      <trkpt lat="43.69328" lon="6.97163">
        <ele>465.28509521484</ele>
        <time>2020-05-14T13:41:10Z</time>
      </trkpt>
      <trkpt lat="43.6933" lon="6.97162">
        <ele>491.92065429688</ele>
        <time>2020-05-14T13:41:11Z</time>
      </trkpt>
      <trkpt lat="43.69333" lon="6.9716">
        <ele>487.48059082031</ele>
        <time>2020-05-14T13:41:12Z</time>
      </trkpt>
      <trkpt lat="43.69335" lon="6.97159">
        <ele>473.12780761719</ele>
        <time>2020-05-14T13:41:13Z</time>
      </trkpt>
      <trkpt lat="43.69338" lon="6.97158">
        <ele>475.32342529297</ele>
        <time>2020-05-14T13:41:14Z</time>
      </trkpt>
      <trkpt lat="43.6934" lon="6.97158">
        <ele>467.12756347656</ele>
        <time>2020-05-14T13:41:15Z</time>
      </trkpt>
      <trkpt lat="43.69343" lon="6.97157">
        <ele>468.11120605469</ele>
        <time>2020-05-14T13:41:16Z</time>
      </trkpt>
      <trkpt lat="43.69345" lon="6.97157">
        <ele>465.95861816406</ele>
        <time>2020-05-14T13:41:17Z</time>
      </trkpt>
      <trkpt lat="43.69348" lon="6.97157">
        <ele>492.18072509766</ele>
        <time>2020-05-14T13:41:18Z</time>
      </trkpt>
      <trkpt lat="43.6935" lon="6.97157">
        <ele>481.671875</ele>
        <time>2020-05-14T13:41:19Z</time>
      </trkpt>
      <trkpt lat="43.69353" lon="6.97158">
        <ele>478.21630859375</ele>
        <time>2020-05-14T13:41:20Z</time>
      </trkpt>
      <trkpt lat="43.69356" lon="6.97158">
        <ele>482.0791015625</ele>
        <time>2020-05-14T13:41:21Z</time>
      </trkpt>
      <trkpt lat="43.69358" lon="6.97158">
        <ele>479.45892333984</ele>
        <time>2020-05-14T13:41:22Z</time>
      </trkpt>
      <trkpt lat="43.6936" lon="6.97158">
        <ele>476.69262695312</ele>
        <time>2020-05-14T13:41:23Z</time>
      </trkpt>
      <trkpt lat="43.69362" lon="6.97157">
        <ele>479.80438232422</ele>
        <time>2020-05-14T13:41:24Z</time>
      </trkpt>
      <trkpt lat="43.69364" lon="6.97156">
        <ele>459.89660644531</ele>
        <time>2020-05-14T13:41:25Z</time>
      </trkpt>
      <trkpt lat="43.69367" lon="6.97156">
        <ele>454.22863769531</ele>
        <time>2020-05-14T13:41:26Z</time>
      </trkpt>
      <trkpt lat="43.69369" lon="6.97156">
        <ele>454.43103027344</ele>
        <time>2020-05-14T13:41:27Z</time>
      </trkpt>
      <trkpt lat="43.69372" lon="6.97156">
        <ele>454.15246582031</ele>
        <time>2020-05-14T13:41:28Z</time>
      </trkpt>
      <trkpt lat="43.69375" lon="6.97156">
        <ele>453.75610351562</ele>
        <time>2020-05-14T13:41:29Z</time>
      </trkpt>
      <trkpt lat="43.69377" lon="6.97155">
        <ele>455.3447265625</ele>
        <time>2020-05-14T13:41:30Z</time>
      </trkpt>
      <trkpt lat="43.6938" lon="6.97155">
        <ele>456.69683837891</ele>
        <time>2020-05-14T13:41:31Z</time>
      </trkpt>
      <trkpt lat="43.69383" lon="6.97154">
        <ele>460.88269042969</ele>
        <time>2020-05-14T13:41:32Z</time>
      </trkpt>
      <trkpt lat="43.69385" lon="6.97153">
        <ele>461.81762695312</ele>
        <time>2020-05-14T13:41:33Z</time>
      </trkpt>
      <trkpt lat="43.69388" lon="6.97151">
        <ele>459.02478027344</ele>
        <time>2020-05-14T13:41:34Z</time>
      </trkpt>
      <trkpt lat="43.6939" lon="6.97149">
        <ele>456.56213378906</ele>
        <time>2020-05-14T13:41:35Z</time>
      </trkpt>
      <trkpt lat="43.69392" lon="6.97147">
        <ele>486.63751220703</ele>
        <time>2020-05-14T13:41:36Z</time>
      </trkpt>
      <trkpt lat="43.69394" lon="6.97145">
        <ele>477.77404785156</ele>
        <time>2020-05-14T13:41:37Z</time>
      </trkpt>
      <trkpt lat="43.69396" lon="6.97143">
        <ele>481.93701171875</ele>
        <time>2020-05-14T13:41:38Z</time>
      </trkpt>
      <trkpt lat="43.69398" lon="6.97141">
        <ele>481.50170898438</ele>
        <time>2020-05-14T13:41:39Z</time>
      </trkpt>
      <trkpt lat="43.69399" lon="6.97139">
        <ele>481.208984375</ele>
        <time>2020-05-14T13:41:40Z</time>
      </trkpt>
      <trkpt lat="43.69401" lon="6.97136">
        <ele>461.61633300781</ele>
        <time>2020-05-14T13:41:41Z</time>
      </trkpt>
      <trkpt lat="43.69403" lon="6.97134">
        <ele>460.64672851562</ele>
        <time>2020-05-14T13:41:42Z</time>
      </trkpt>
      <trkpt lat="43.69405" lon="6.97132">
        <ele>466.56903076172</ele>
        <time>2020-05-14T13:41:43Z</time>
      </trkpt>
      <trkpt lat="43.69407" lon="6.9713">
        <ele>471.38104248047</ele>
        <time>2020-05-14T13:41:44Z</time>
      </trkpt>
      <trkpt lat="43.69409" lon="6.97128">
        <ele>476.65270996094</ele>
        <time>2020-05-14T13:41:45Z</time>
      </trkpt>
      <trkpt lat="43.69411" lon="6.97125">
        <ele>478.60003662109</ele>
        <time>2020-05-14T13:41:46Z</time>
      </trkpt>
      <trkpt lat="43.69413" lon="6.97122">
        <ele>483.4296875</ele>
        <time>2020-05-14T13:41:47Z</time>
      </trkpt>
      <trkpt lat="43.69415" lon="6.9712">
        <ele>479.83129882812</ele>
        <time>2020-05-14T13:41:48Z</time>
      </trkpt>
      <trkpt lat="43.69417" lon="6.97118">
        <ele>483.537109375</ele>
        <time>2020-05-14T13:41:49Z</time>
      </trkpt>
      <trkpt lat="43.69419" lon="6.97116">
        <ele>482.24267578125</ele>
        <time>2020-05-14T13:41:50Z</time>
      </trkpt>
      <trkpt lat="43.69421" lon="6.97114">
        <ele>485.31384277344</ele>
        <time>2020-05-14T13:41:51Z</time>
      </trkpt>
      <trkpt lat="43.69423" lon="6.97112">
        <ele>487.30541992188</ele>
        <time>2020-05-14T13:41:52Z</time>
      </trkpt>
      <trkpt lat="43.69424" lon="6.9711">
        <ele>485.55786132812</ele>
        <time>2020-05-14T13:41:53Z</time>
      </trkpt>
      <trkpt lat="43.69426" lon="6.97108">
        <ele>486.17053222656</ele>
        <time>2020-05-14T13:41:54Z</time>
      </trkpt>
      <trkpt lat="43.69428" lon="6.97105">
        <ele>486.02587890625</ele>
        <time>2020-05-14T13:41:55Z</time>
      </trkpt>
      <trkpt lat="43.69429" lon="6.97103">
        <ele>481.69494628906</ele>
        <time>2020-05-14T13:41:56Z</time>
      </trkpt>
      <trkpt lat="43.69432" lon="6.97101">
        <ele>472.89263916016</ele>
        <time>2020-05-14T13:41:57Z</time>
      </trkpt>
      <trkpt lat="43.69434" lon="6.971">
        <ele>469.16369628906</ele>
        <time>2020-05-14T13:41:58Z</time>
      </trkpt>
      <trkpt lat="43.69435" lon="6.97097">
        <ele>459.72967529297</ele>
        <time>2020-05-14T13:41:59Z</time>
      </trkpt>
      <trkpt lat="43.69437" lon="6.97095">
        <ele>458.5625</ele>
        <time>2020-05-14T13:42:00Z</time>
      </trkpt>
      <trkpt lat="43.69439" lon="6.97093">
        <ele>462.66937255859</ele>
        <time>2020-05-14T13:42:01Z</time>
      </trkpt>
      <trkpt lat="43.69441" lon="6.97091">
        <ele>457.21264648438</ele>
        <time>2020-05-14T13:42:02Z</time>
      </trkpt>
      <trkpt lat="43.69443" lon="6.97089">
        <ele>455.42785644531</ele>
        <time>2020-05-14T13:42:03Z</time>
      </trkpt>
      <trkpt lat="43.69445" lon="6.97088">
        <ele>454.47692871094</ele>
        <time>2020-05-14T13:42:04Z</time>
      </trkpt>
      <trkpt lat="43.69447" lon="6.97086">
        <ele>459.51342773438</ele>
        <time>2020-05-14T13:42:05Z</time>
      </trkpt>
      <trkpt lat="43.69449" lon="6.97085">
        <ele>459.1083984375</ele>
        <time>2020-05-14T13:42:06Z</time>
      </trkpt>
      <trkpt lat="43.69451" lon="6.97084">
        <ele>486.93591308594</ele>
        <time>2020-05-14T13:42:07Z</time>
      </trkpt>
      <trkpt lat="43.69454" lon="6.97084">
        <ele>477.75</ele>
        <time>2020-05-14T13:42:08Z</time>
      </trkpt>
      <trkpt lat="43.69457" lon="6.97084">
        <ele>479.66973876953</ele>
        <time>2020-05-14T13:42:09Z</time>
      </trkpt>
      <trkpt lat="43.6946" lon="6.97084">
        <ele>478.52783203125</ele>
        <time>2020-05-14T13:42:10Z</time>
      </trkpt>
      <trkpt lat="43.69462" lon="6.97084">
        <ele>478.01647949219</ele>
        <time>2020-05-14T13:42:11Z</time>
      </trkpt>
      <trkpt lat="43.69465" lon="6.97084">
        <ele>478.93817138672</ele>
        <time>2020-05-14T13:42:12Z</time>
      </trkpt>
      <trkpt lat="43.69467" lon="6.97083">
        <ele>461.79736328125</ele>
        <time>2020-05-14T13:42:13Z</time>
      </trkpt>
      <trkpt lat="43.69469" lon="6.97083">
        <ele>462.12731933594</ele>
        <time>2020-05-14T13:42:14Z</time>
      </trkpt>
      <trkpt lat="43.69472" lon="6.97082">
        <ele>460.27142333984</ele>
        <time>2020-05-14T13:42:15Z</time>
      </trkpt>
      <trkpt lat="43.69475" lon="6.97082">
        <ele>461.35302734375</ele>
        <time>2020-05-14T13:42:16Z</time>
      </trkpt>
      <trkpt lat="43.69477" lon="6.97081">
        <ele>466.345703125</ele>
        <time>2020-05-14T13:42:17Z</time>
      </trkpt>
      <trkpt lat="43.69479" lon="6.97081">
        <ele>469.09680175781</ele>
        <time>2020-05-14T13:42:18Z</time>
      </trkpt>
      <trkpt lat="43.69481" lon="6.9708">
        <ele>470.91943359375</ele>
        <time>2020-05-14T13:42:19Z</time>
      </trkpt>
      <trkpt lat="43.69484" lon="6.9708">
        <ele>467.89331054688</ele>
        <time>2020-05-14T13:42:20Z</time>
      </trkpt>
      <trkpt lat="43.69486" lon="6.97079">
        <ele>468.03308105469</ele>
        <time>2020-05-14T13:42:21Z</time>
      </trkpt>
      <trkpt lat="43.69488" lon="6.97078">
        <ele>473.65893554688</ele>
        <time>2020-05-14T13:42:22Z</time>
      </trkpt>
      <trkpt lat="43.6949" lon="6.97077">
        <ele>477.68908691406</ele>
        <time>2020-05-14T13:42:23Z</time>
      </trkpt>
      <trkpt lat="43.69492" lon="6.97076">
        <ele>484.12908935547</ele>
        <time>2020-05-14T13:42:24Z</time>
      </trkpt>
      <trkpt lat="43.69494" lon="6.97075">
        <ele>481.24047851562</ele>
        <time>2020-05-14T13:42:25Z</time>
      </trkpt>
      <trkpt lat="43.69496" lon="6.97074">
        <ele>478.12487792969</ele>
        <time>2020-05-14T13:42:26Z</time>
      </trkpt>
      <trkpt lat="43.69498" lon="6.97072">
        <ele>473.8994140625</ele>
        <time>2020-05-14T13:42:27Z</time>
      </trkpt>
      <trkpt lat="43.695" lon="6.9707">
        <ele>473.90667724609</ele>
        <time>2020-05-14T13:42:28Z</time>
      </trkpt>
      <trkpt lat="43.69502" lon="6.97069">
        <ele>467.84741210938</ele>
        <time>2020-05-14T13:42:29Z</time>
      </trkpt>
      <trkpt lat="43.69504" lon="6.97067">
        <ele>505.81854248047</ele>
        <time>2020-05-14T13:42:30Z</time>
      </trkpt>
      <trkpt lat="43.69506" lon="6.97066">
        <ele>496.53393554688</ele>
        <time>2020-05-14T13:42:31Z</time>
      </trkpt>
      <trkpt lat="43.69509" lon="6.97065">
        <ele>502.21545410156</ele>
        <time>2020-05-14T13:42:32Z</time>
      </trkpt>
      <trkpt lat="43.69511" lon="6.97063">
        <ele>498.92529296875</ele>
        <time>2020-05-14T13:42:33Z</time>
      </trkpt>
      <trkpt lat="43.69513" lon="6.97061">
        <ele>498.04827880859</ele>
        <time>2020-05-14T13:42:34Z</time>
      </trkpt>
      <trkpt lat="43.69515" lon="6.97059">
        <ele>499.685546875</ele>
        <time>2020-05-14T13:42:35Z</time>
      </trkpt>
      <trkpt lat="43.69517" lon="6.97057">
        <ele>497.52612304688</ele>
        <time>2020-05-14T13:42:36Z</time>
      </trkpt>
      <trkpt lat="43.69518" lon="6.97055">
        <ele>502.07885742188</ele>
        <time>2020-05-14T13:42:37Z</time>
      </trkpt>
      <trkpt lat="43.69519" lon="6.97053">
        <ele>479.48626708984</ele>
        <time>2020-05-14T13:42:38Z</time>
      </trkpt>
      <trkpt lat="43.69521" lon="6.97051">
        <ele>482.84301757812</ele>
        <time>2020-05-14T13:42:39Z</time>
      </trkpt>
      <trkpt lat="43.69522" lon="6.97048">
        <ele>484.51007080078</ele>
        <time>2020-05-14T13:42:40Z</time>
      </trkpt>
      <trkpt lat="43.69523" lon="6.97046">
        <ele>486.10174560547</ele>
        <time>2020-05-14T13:42:41Z</time>
      </trkpt>
      <trkpt lat="43.69524" lon="6.97044">
        <ele>486.57867431641</ele>
        <time>2020-05-14T13:42:42Z</time>
      </trkpt>
      <trkpt lat="43.69525" lon="6.97042">
        <ele>488.03173828125</ele>
        <time>2020-05-14T13:42:43Z</time>
      </trkpt>
      <trkpt lat="43.69526" lon="6.97039">
        <ele>486.73486328125</ele>
        <time>2020-05-14T13:42:44Z</time>
      </trkpt>
      <trkpt lat="43.69527" lon="6.97037">
        <ele>483.67761230469</ele>
        <time>2020-05-14T13:42:45Z</time>
      </trkpt>
      <trkpt lat="43.69528" lon="6.97034">
        <ele>484.37854003906</ele>
        <time>2020-05-14T13:42:46Z</time>
      </trkpt>
      <trkpt lat="43.69528" lon="6.97031">
        <ele>484.99572753906</ele>
        <time>2020-05-14T13:42:47Z</time>
      </trkpt>
      <trkpt lat="43.69529" lon="6.97028">
        <ele>484.58123779297</ele>
        <time>2020-05-14T13:42:48Z</time>
      </trkpt>
      <trkpt lat="43.69529" lon="6.97026">
        <ele>481.46789550781</ele>
        <time>2020-05-14T13:42:49Z</time>
      </trkpt>
      <trkpt lat="43.6953" lon="6.97023">
        <ele>481.908203125</ele>
        <time>2020-05-14T13:42:50Z</time>
      </trkpt>
      <trkpt lat="43.6953" lon="6.97019">
        <ele>480.96575927734</ele>
        <time>2020-05-14T13:42:51Z</time>
      </trkpt>
      <trkpt lat="43.6953" lon="6.97016">
        <ele>479.93408203125</ele>
        <time>2020-05-14T13:42:52Z</time>
      </trkpt>
      <trkpt lat="43.6953" lon="6.97013">
        <ele>482.11248779297</ele>
        <time>2020-05-14T13:42:53Z</time>
      </trkpt>
      <trkpt lat="43.69531" lon="6.97011">
        <ele>478.97021484375</ele>
        <time>2020-05-14T13:42:54Z</time>
      </trkpt>
      <trkpt lat="43.69531" lon="6.97008">
        <ele>480.32806396484</ele>
        <time>2020-05-14T13:42:55Z</time>
      </trkpt>
      <trkpt lat="43.69531" lon="6.97004">
        <ele>475.29931640625</ele>
        <time>2020-05-14T13:42:56Z</time>
      </trkpt>
      <trkpt lat="43.69531" lon="6.97001">
        <ele>475.95837402344</ele>
        <time>2020-05-14T13:42:57Z</time>
      </trkpt>
      <trkpt lat="43.69531" lon="6.96997">
        <ele>475.96948242188</ele>
        <time>2020-05-14T13:42:58Z</time>
      </trkpt>
      <trkpt lat="43.69531" lon="6.96994">
        <ele>477.58288574219</ele>
        <time>2020-05-14T13:42:59Z</time>
      </trkpt>
      <trkpt lat="43.69532" lon="6.9699">
        <ele>477.95153808594</ele>
        <time>2020-05-14T13:43:00Z</time>
      </trkpt>
      <trkpt lat="43.69532" lon="6.96986">
        <ele>480.9541015625</ele>
        <time>2020-05-14T13:43:01Z</time>
      </trkpt>
      <trkpt lat="43.69532" lon="6.96983">
        <ele>486.69226074219</ele>
        <time>2020-05-14T13:43:02Z</time>
      </trkpt>
      <trkpt lat="43.69532" lon="6.96979">
        <ele>483.21618652344</ele>
        <time>2020-05-14T13:43:03Z</time>
      </trkpt>
      <trkpt lat="43.69532" lon="6.96975">
        <ele>481.63415527344</ele>
        <time>2020-05-14T13:43:04Z</time>
      </trkpt>
      <trkpt lat="43.69532" lon="6.96972">
        <ele>484.68994140625</ele>
        <time>2020-05-14T13:43:05Z</time>
      </trkpt>
      <trkpt lat="43.69532" lon="6.96969">
        <ele>486.35809326172</ele>
        <time>2020-05-14T13:43:06Z</time>
      </trkpt>
      <trkpt lat="43.69533" lon="6.96966">
        <ele>488.34094238281</ele>
        <time>2020-05-14T13:43:07Z</time>
      </trkpt>
      <trkpt lat="43.69533" lon="6.96963">
        <ele>486.34326171875</ele>
        <time>2020-05-14T13:43:08Z</time>
      </trkpt>
      <trkpt lat="43.69533" lon="6.96959">
        <ele>488.19146728516</ele>
        <time>2020-05-14T13:43:09Z</time>
      </trkpt>
      <trkpt lat="43.69534" lon="6.96956">
        <ele>483.35546875</ele>
        <time>2020-05-14T13:43:10Z</time>
      </trkpt>
      <trkpt lat="43.69534" lon="6.96953">
        <ele>482.30249023438</ele>
        <time>2020-05-14T13:43:11Z</time>
      </trkpt>
      <trkpt lat="43.69535" lon="6.96951">
        <ele>483.98474121094</ele>
        <time>2020-05-14T13:43:12Z</time>
      </trkpt>
      <trkpt lat="43.69536" lon="6.96948">
        <ele>480.486328125</ele>
        <time>2020-05-14T13:43:13Z</time>
      </trkpt>
      <trkpt lat="43.69537" lon="6.96945">
        <ele>481.62573242188</ele>
        <time>2020-05-14T13:43:14Z</time>
      </trkpt>
      <trkpt lat="43.69539" lon="6.96943">
        <ele>476.40948486328</ele>
        <time>2020-05-14T13:43:15Z</time>
      </trkpt>
      <trkpt lat="43.6954" lon="6.9694">
        <ele>476.06774902344</ele>
        <time>2020-05-14T13:43:16Z</time>
      </trkpt>
      <trkpt lat="43.69541" lon="6.96937">
        <ele>474.03778076172</ele>
        <time>2020-05-14T13:43:17Z</time>
      </trkpt>
      <trkpt lat="43.69542" lon="6.96935">
        <ele>513.98760986328</ele>
        <time>2020-05-14T13:43:18Z</time>
      </trkpt>
      <trkpt lat="43.69544" lon="6.96933">
        <ele>505.91986083984</ele>
        <time>2020-05-14T13:43:19Z</time>
      </trkpt>
      <trkpt lat="43.69546" lon="6.96931">
        <ele>489.09289550781</ele>
        <time>2020-05-14T13:43:20Z</time>
      </trkpt>
      <trkpt lat="43.69548" lon="6.96929">
        <ele>492.59619140625</ele>
        <time>2020-05-14T13:43:21Z</time>
      </trkpt>
      <trkpt lat="43.6955" lon="6.96927">
        <ele>488.8251953125</ele>
        <time>2020-05-14T13:43:22Z</time>
      </trkpt>
      <trkpt lat="43.69552" lon="6.96926">
        <ele>490.904296875</ele>
        <time>2020-05-14T13:43:23Z</time>
      </trkpt>
      <trkpt lat="43.69554" lon="6.96924">
        <ele>491.83197021484</ele>
        <time>2020-05-14T13:43:24Z</time>
      </trkpt>
      <trkpt lat="43.69556" lon="6.96923">
        <ele>489.13568115234</ele>
        <time>2020-05-14T13:43:25Z</time>
      </trkpt>
      <trkpt lat="43.69557" lon="6.96921">
        <ele>487.92059326172</ele>
        <time>2020-05-14T13:43:26Z</time>
      </trkpt>
      <trkpt lat="43.69559" lon="6.96919">
        <ele>488.31298828125</ele>
        <time>2020-05-14T13:43:27Z</time>
      </trkpt>
      <trkpt lat="43.69561" lon="6.96917">
        <ele>490.70336914062</ele>
        <time>2020-05-14T13:43:28Z</time>
      </trkpt>
      <trkpt lat="43.69563" lon="6.96915">
        <ele>491.01281738281</ele>
        <time>2020-05-14T13:43:29Z</time>
      </trkpt>
      <trkpt lat="43.69564" lon="6.96913">
        <ele>498.62365722656</ele>
        <time>2020-05-14T13:43:30Z</time>
      </trkpt>
      <trkpt lat="43.69566" lon="6.96911">
        <ele>501.92761230469</ele>
        <time>2020-05-14T13:43:31Z</time>
      </trkpt>
      <trkpt lat="43.69568" lon="6.96909">
        <ele>506.30639648438</ele>
        <time>2020-05-14T13:43:32Z</time>
      </trkpt>
      <trkpt lat="43.69569" lon="6.96907">
        <ele>508.43688964844</ele>
        <time>2020-05-14T13:43:33Z</time>
      </trkpt>
      <trkpt lat="43.69571" lon="6.96905">
        <ele>513.12200927734</ele>
        <time>2020-05-14T13:43:34Z</time>
      </trkpt>
      <trkpt lat="43.69573" lon="6.96903">
        <ele>511.59338378906</ele>
        <time>2020-05-14T13:43:35Z</time>
      </trkpt>
      <trkpt lat="43.69575" lon="6.96901">
        <ele>509.65161132812</ele>
        <time>2020-05-14T13:43:36Z</time>
      </trkpt>
      <trkpt lat="43.69577" lon="6.96899">
        <ele>493.39770507812</ele>
        <time>2020-05-14T13:43:37Z</time>
      </trkpt>
      <trkpt lat="43.69579" lon="6.96897">
        <ele>497.14819335938</ele>
        <time>2020-05-14T13:43:38Z</time>
      </trkpt>
      <trkpt lat="43.69581" lon="6.96895">
        <ele>538.37524414062</ele>
        <time>2020-05-14T13:43:39Z</time>
      </trkpt>
      <trkpt lat="43.69583" lon="6.96893">
        <ele>527.73706054688</ele>
        <time>2020-05-14T13:43:40Z</time>
      </trkpt>
      <trkpt lat="43.69585" lon="6.96891">
        <ele>532.76391601562</ele>
        <time>2020-05-14T13:43:41Z</time>
      </trkpt>
      <trkpt lat="43.69587" lon="6.96889">
        <ele>532.56616210938</ele>
        <time>2020-05-14T13:43:42Z</time>
      </trkpt>
      <trkpt lat="43.69589" lon="6.96887">
        <ele>537.64379882812</ele>
        <time>2020-05-14T13:43:43Z</time>
      </trkpt>
      <trkpt lat="43.69591" lon="6.96885">
        <ele>514.91125488281</ele>
        <time>2020-05-14T13:43:44Z</time>
      </trkpt>
      <trkpt lat="43.69593" lon="6.96882">
        <ele>506.70104980469</ele>
        <time>2020-05-14T13:43:45Z</time>
      </trkpt>
      <trkpt lat="43.69595" lon="6.9688">
        <ele>504.58428955078</ele>
        <time>2020-05-14T13:43:46Z</time>
      </trkpt>
      <trkpt lat="43.69597" lon="6.96877">
        <ele>506.55432128906</ele>
        <time>2020-05-14T13:43:47Z</time>
      </trkpt>
      <trkpt lat="43.69598" lon="6.96875">
        <ele>503.69293212891</ele>
        <time>2020-05-14T13:43:48Z</time>
      </trkpt>
      <trkpt lat="43.696" lon="6.96872">
        <ele>500.27880859375</ele>
        <time>2020-05-14T13:43:49Z</time>
      </trkpt>
      <trkpt lat="43.69602" lon="6.9687">
        <ele>500.24291992188</ele>
        <time>2020-05-14T13:43:50Z</time>
      </trkpt>
      <trkpt lat="43.69604" lon="6.96867">
        <ele>498.94763183594</ele>
        <time>2020-05-14T13:43:51Z</time>
      </trkpt>
      <trkpt lat="43.69605" lon="6.96864">
        <ele>492.54016113281</ele>
        <time>2020-05-14T13:43:52Z</time>
      </trkpt>
      <trkpt lat="43.69606" lon="6.96862">
        <ele>493.11547851562</ele>
        <time>2020-05-14T13:43:53Z</time>
      </trkpt>
      <trkpt lat="43.69608" lon="6.96859">
        <ele>494.35632324219</ele>
        <time>2020-05-14T13:43:54Z</time>
      </trkpt>
      <trkpt lat="43.69609" lon="6.96856">
        <ele>490.84606933594</ele>
        <time>2020-05-14T13:43:55Z</time>
      </trkpt>
      <trkpt lat="43.6961" lon="6.96853">
        <ele>481.55920410156</ele>
        <time>2020-05-14T13:43:56Z</time>
      </trkpt>
      <trkpt lat="43.69611" lon="6.9685">
        <ele>479.17565917969</ele>
        <time>2020-05-14T13:43:57Z</time>
      </trkpt>
      <trkpt lat="43.69613" lon="6.96847">
        <ele>478.12512207031</ele>
        <time>2020-05-14T13:43:58Z</time>
      </trkpt>
      <trkpt lat="43.69614" lon="6.96844">
        <ele>475.47229003906</ele>
        <time>2020-05-14T13:43:59Z</time>
      </trkpt>
      <trkpt lat="43.69615" lon="6.96841">
        <ele>505.12182617188</ele>
        <time>2020-05-14T13:44:00Z</time>
      </trkpt>
      <trkpt lat="43.69617" lon="6.96838">
        <ele>499.68237304688</ele>
        <time>2020-05-14T13:44:01Z</time>
      </trkpt>
      <trkpt lat="43.69618" lon="6.96835">
        <ele>505.67553710938</ele>
        <time>2020-05-14T13:44:02Z</time>
      </trkpt>
      <trkpt lat="43.69619" lon="6.96831">
        <ele>505.99389648438</ele>
        <time>2020-05-14T13:44:03Z</time>
      </trkpt>
      <trkpt lat="43.69619" lon="6.96827">
        <ele>487.02783203125</ele>
        <time>2020-05-14T13:44:04Z</time>
      </trkpt>
      <trkpt lat="43.69619" lon="6.96823">
        <ele>489.4248046875</ele>
        <time>2020-05-14T13:44:05Z</time>
      </trkpt>
      <trkpt lat="43.69619" lon="6.96819">
        <ele>496.77026367188</ele>
        <time>2020-05-14T13:44:06Z</time>
      </trkpt>
      <trkpt lat="43.69619" lon="6.96816">
        <ele>500.08435058594</ele>
        <time>2020-05-14T13:44:07Z</time>
      </trkpt>
      <trkpt lat="43.69618" lon="6.96813">
        <ele>502.12933349609</ele>
        <time>2020-05-14T13:44:08Z</time>
      </trkpt>
      <trkpt lat="43.69618" lon="6.96809">
        <ele>500.26452636719</ele>
        <time>2020-05-14T13:44:09Z</time>
      </trkpt>
      <trkpt lat="43.69618" lon="6.96806">
        <ele>497.82006835938</ele>
        <time>2020-05-14T13:44:10Z</time>
      </trkpt>
      <trkpt lat="43.69617" lon="6.96803">
        <ele>497.02514648438</ele>
        <time>2020-05-14T13:44:11Z</time>
      </trkpt>
      <trkpt lat="43.69616" lon="6.968">
        <ele>503.41638183594</ele>
        <time>2020-05-14T13:44:12Z</time>
      </trkpt>
      <trkpt lat="43.69616" lon="6.96796">
        <ele>498.13916015625</ele>
        <time>2020-05-14T13:44:13Z</time>
      </trkpt>
      <trkpt lat="43.69616" lon="6.96792">
        <ele>495.94812011719</ele>
        <time>2020-05-14T13:44:14Z</time>
      </trkpt>
      <trkpt lat="43.69615" lon="6.96789">
        <ele>500.0205078125</ele>
        <time>2020-05-14T13:44:15Z</time>
      </trkpt>
      <trkpt lat="43.69614" lon="6.96786">
        <ele>505.16741943359</ele>
        <time>2020-05-14T13:44:16Z</time>
      </trkpt>
      <trkpt lat="43.69614" lon="6.96783">
        <ele>507.97784423828</ele>
        <time>2020-05-14T13:44:17Z</time>
      </trkpt>
      <trkpt lat="43.69613" lon="6.9678">
        <ele>505.18243408203</ele>
        <time>2020-05-14T13:44:18Z</time>
      </trkpt>
      <trkpt lat="43.69612" lon="6.96777">
        <ele>496.60290527344</ele>
        <time>2020-05-14T13:44:19Z</time>
      </trkpt>
      <trkpt lat="43.69612" lon="6.96773">
        <ele>499.28796386719</ele>
        <time>2020-05-14T13:44:20Z</time>
      </trkpt>
      <trkpt lat="43.69611" lon="6.9677">
        <ele>491.58111572266</ele>
        <time>2020-05-14T13:44:21Z</time>
      </trkpt>
      <trkpt lat="43.69611" lon="6.96767">
        <ele>487.228515625</ele>
        <time>2020-05-14T13:44:22Z</time>
      </trkpt>
      <trkpt lat="43.69611" lon="6.96764">
        <ele>529.541015625</ele>
        <time>2020-05-14T13:44:23Z</time>
      </trkpt>
      <trkpt lat="43.69611" lon="6.96761">
        <ele>523.71856689453</ele>
        <time>2020-05-14T13:44:24Z</time>
      </trkpt>
      <trkpt lat="43.6961" lon="6.96758">
        <ele>504.92138671875</ele>
        <time>2020-05-14T13:44:25Z</time>
      </trkpt>
      <trkpt lat="43.6961" lon="6.96755">
        <ele>497.59802246094</ele>
        <time>2020-05-14T13:44:26Z</time>
      </trkpt>
      <trkpt lat="43.69609" lon="6.96752">
        <ele>504.41662597656</ele>
        <time>2020-05-14T13:44:27Z</time>
      </trkpt>
      <trkpt lat="43.69609" lon="6.96748">
        <ele>508.92443847656</ele>
        <time>2020-05-14T13:44:28Z</time>
      </trkpt>
      <trkpt lat="43.69609" lon="6.96745">
        <ele>510.28747558594</ele>
        <time>2020-05-14T13:44:29Z</time>
      </trkpt>
      <trkpt lat="43.69609" lon="6.96742">
        <ele>499.39227294922</ele>
        <time>2020-05-14T13:44:30Z</time>
      </trkpt>
      <trkpt lat="43.69609" lon="6.96739">
        <ele>503.82043457031</ele>
        <time>2020-05-14T13:44:31Z</time>
      </trkpt>
      <trkpt lat="43.69609" lon="6.96736">
        <ele>498.77484130859</ele>
        <time>2020-05-14T13:44:32Z</time>
      </trkpt>
      <trkpt lat="43.6961" lon="6.96732">
        <ele>535.2119140625</ele>
        <time>2020-05-14T13:44:33Z</time>
      </trkpt>
      <trkpt lat="43.69611" lon="6.96729">
        <ele>528.3525390625</ele>
        <time>2020-05-14T13:44:34Z</time>
      </trkpt>
      <trkpt lat="43.69613" lon="6.96726">
        <ele>532.77062988281</ele>
        <time>2020-05-14T13:44:35Z</time>
      </trkpt>
      <trkpt lat="43.69614" lon="6.96723">
        <ele>522.15698242188</ele>
        <time>2020-05-14T13:44:36Z</time>
      </trkpt>
      <trkpt lat="43.69615" lon="6.96721">
        <ele>490.24676513672</ele>
        <time>2020-05-14T13:44:37Z</time>
      </trkpt>
      <trkpt lat="43.69616" lon="6.96718">
        <ele>487.29150390625</ele>
        <time>2020-05-14T13:44:38Z</time>
      </trkpt>
      <trkpt lat="43.69617" lon="6.96715">
        <ele>487.45422363281</ele>
        <time>2020-05-14T13:44:39Z</time>
      </trkpt>
      <trkpt lat="43.69618" lon="6.96713">
        <ele>487.97875976562</ele>
        <time>2020-05-14T13:44:40Z</time>
      </trkpt>
      <trkpt lat="43.6962" lon="6.9671">
        <ele>488.47198486328</ele>
        <time>2020-05-14T13:44:41Z</time>
      </trkpt>
      <trkpt lat="43.69621" lon="6.96707">
        <ele>484.810546875</ele>
        <time>2020-05-14T13:44:42Z</time>
      </trkpt>
      <trkpt lat="43.69622" lon="6.96704">
        <ele>483.81909179688</ele>
        <time>2020-05-14T13:44:43Z</time>
      </trkpt>
      <trkpt lat="43.69624" lon="6.96701">
        <ele>488.86767578125</ele>
        <time>2020-05-14T13:44:44Z</time>
      </trkpt>
      <trkpt lat="43.69625" lon="6.96699">
        <ele>493.74127197266</ele>
        <time>2020-05-14T13:44:45Z</time>
      </trkpt>
      <trkpt lat="43.69627" lon="6.96697">
        <ele>502.61657714844</ele>
        <time>2020-05-14T13:44:46Z</time>
      </trkpt>
      <trkpt lat="43.69628" lon="6.96694">
        <ele>507.44921875</ele>
        <time>2020-05-14T13:44:47Z</time>
      </trkpt>
      <trkpt lat="43.6963" lon="6.96692">
        <ele>505.85510253906</ele>
        <time>2020-05-14T13:44:48Z</time>
      </trkpt>
      <trkpt lat="43.69632" lon="6.96691">
        <ele>504.13812255859</ele>
        <time>2020-05-14T13:44:49Z</time>
      </trkpt>
      <trkpt lat="43.69634" lon="6.96689">
        <ele>548.58056640625</ele>
        <time>2020-05-14T13:44:50Z</time>
      </trkpt>
      <trkpt lat="43.69636" lon="6.96688">
        <ele>534.91137695312</ele>
        <time>2020-05-14T13:44:51Z</time>
      </trkpt>
      <trkpt lat="43.69639" lon="6.96686">
        <ele>539.43041992188</ele>
        <time>2020-05-14T13:44:52Z</time>
      </trkpt>
      <trkpt lat="43.6964" lon="6.96685">
        <ele>542.73022460938</ele>
        <time>2020-05-14T13:44:53Z</time>
      </trkpt>
      <trkpt lat="43.69642" lon="6.96683">
        <ele>543.90258789062</ele>
        <time>2020-05-14T13:44:54Z</time>
      </trkpt>
      <trkpt lat="43.69644" lon="6.96681">
        <ele>547.91064453125</ele>
        <time>2020-05-14T13:44:55Z</time>
      </trkpt>
      <trkpt lat="43.69646" lon="6.9668">
        <ele>544.45349121094</ele>
        <time>2020-05-14T13:44:56Z</time>
      </trkpt>
      <trkpt lat="43.69648" lon="6.96678">
        <ele>540.84008789062</ele>
        <time>2020-05-14T13:44:57Z</time>
      </trkpt>
      <trkpt lat="43.6965" lon="6.96677">
        <ele>532.98217773438</ele>
        <time>2020-05-14T13:44:58Z</time>
      </trkpt>
      <trkpt lat="43.69651" lon="6.96675">
        <ele>535.05993652344</ele>
        <time>2020-05-14T13:44:59Z</time>
      </trkpt>
      <trkpt lat="43.69653" lon="6.96674">
        <ele>537.638671875</ele>
        <time>2020-05-14T13:45:00Z</time>
      </trkpt>
      <trkpt lat="43.69655" lon="6.96674">
        <ele>539.05590820312</ele>
        <time>2020-05-14T13:45:01Z</time>
      </trkpt>
      <trkpt lat="43.69658" lon="6.96674">
        <ele>542.78210449219</ele>
        <time>2020-05-14T13:45:02Z</time>
      </trkpt>
      <trkpt lat="43.6966" lon="6.96674">
        <ele>545.27392578125</ele>
        <time>2020-05-14T13:45:03Z</time>
      </trkpt>
      <trkpt lat="43.69662" lon="6.96673">
        <ele>548.87646484375</ele>
        <time>2020-05-14T13:45:04Z</time>
      </trkpt>
      <trkpt lat="43.69664" lon="6.96674">
        <ele>538.74768066406</ele>
        <time>2020-05-14T13:45:05Z</time>
      </trkpt>
      <trkpt lat="43.69667" lon="6.96674">
        <ele>533.52392578125</ele>
        <time>2020-05-14T13:45:06Z</time>
      </trkpt>
      <trkpt lat="43.69669" lon="6.96674">
        <ele>540.30102539062</ele>
        <time>2020-05-14T13:45:07Z</time>
      </trkpt>
      <trkpt lat="43.69671" lon="6.96675">
        <ele>536.0380859375</ele>
        <time>2020-05-14T13:45:08Z</time>
      </trkpt>
      <trkpt lat="43.69674" lon="6.96675">
        <ele>506.57568359375</ele>
        <time>2020-05-14T13:45:09Z</time>
      </trkpt>
      <trkpt lat="43.69676" lon="6.96676">
        <ele>509.01556396484</ele>
        <time>2020-05-14T13:45:10Z</time>
      </trkpt>
      <trkpt lat="43.69678" lon="6.96677">
        <ele>509.67309570312</ele>
        <time>2020-05-14T13:45:11Z</time>
      </trkpt>
      <trkpt lat="43.6968" lon="6.96677">
        <ele>504.80987548828</ele>
        <time>2020-05-14T13:45:12Z</time>
      </trkpt>
      <trkpt lat="43.69683" lon="6.96678">
        <ele>540.71032714844</ele>
        <time>2020-05-14T13:45:13Z</time>
      </trkpt>
      <trkpt lat="43.69685" lon="6.9668">
        <ele>527.69311523438</ele>
        <time>2020-05-14T13:45:14Z</time>
      </trkpt>
      <trkpt lat="43.69687" lon="6.96682">
        <ele>531.47375488281</ele>
        <time>2020-05-14T13:45:15Z</time>
      </trkpt>
      <trkpt lat="43.69689" lon="6.96684">
        <ele>534.96875</ele>
        <time>2020-05-14T13:45:16Z</time>
      </trkpt>
      <trkpt lat="43.69691" lon="6.96686">
        <ele>532.02783203125</ele>
        <time>2020-05-14T13:45:17Z</time>
      </trkpt>
      <trkpt lat="43.69693" lon="6.96688">
        <ele>501.48840332031</ele>
        <time>2020-05-14T13:45:18Z</time>
      </trkpt>
      <trkpt lat="43.69695" lon="6.9669">
        <ele>498.75207519531</ele>
        <time>2020-05-14T13:45:19Z</time>
      </trkpt>
      <trkpt lat="43.69697" lon="6.96692">
        <ele>508.06652832031</ele>
        <time>2020-05-14T13:45:20Z</time>
      </trkpt>
      <trkpt lat="43.69699" lon="6.96693">
        <ele>500.92065429688</ele>
        <time>2020-05-14T13:45:21Z</time>
      </trkpt>
      <trkpt lat="43.69701" lon="6.96694">
        <ele>502.49829101562</ele>
        <time>2020-05-14T13:45:22Z</time>
      </trkpt>
      <trkpt lat="43.69703" lon="6.96696">
        <ele>508.53576660156</ele>
        <time>2020-05-14T13:45:23Z</time>
      </trkpt>
      <trkpt lat="43.69705" lon="6.96697">
        <ele>508.44091796875</ele>
        <time>2020-05-14T13:45:24Z</time>
      </trkpt>
      <trkpt lat="43.69707" lon="6.96699">
        <ele>502.87359619141</ele>
        <time>2020-05-14T13:45:25Z</time>
      </trkpt>
      <trkpt lat="43.69708" lon="6.96701">
        <ele>511.46313476562</ele>
        <time>2020-05-14T13:45:26Z</time>
      </trkpt>
      <trkpt lat="43.6971" lon="6.96704">
        <ele>507.55035400391</ele>
        <time>2020-05-14T13:45:27Z</time>
      </trkpt>
      <trkpt lat="43.69713" lon="6.96705">
        <ele>500.94183349609</ele>
        <time>2020-05-14T13:45:28Z</time>
      </trkpt>
      <trkpt lat="43.69715" lon="6.96707">
        <ele>539.54638671875</ele>
        <time>2020-05-14T13:45:29Z</time>
      </trkpt>
      <trkpt lat="43.69717" lon="6.96708">
        <ele>528.09350585938</ele>
        <time>2020-05-14T13:45:30Z</time>
      </trkpt>
      <trkpt lat="43.69719" lon="6.96709">
        <ele>529.54809570312</ele>
        <time>2020-05-14T13:45:31Z</time>
      </trkpt>
      <trkpt lat="43.69721" lon="6.96711">
        <ele>529.63354492188</ele>
        <time>2020-05-14T13:45:32Z</time>
      </trkpt>
      <trkpt lat="43.69723" lon="6.96712">
        <ele>534.55053710938</ele>
        <time>2020-05-14T13:45:33Z</time>
      </trkpt>
      <trkpt lat="43.69725" lon="6.96714">
        <ele>536.84326171875</ele>
        <time>2020-05-14T13:45:34Z</time>
      </trkpt>
      <trkpt lat="43.69727" lon="6.96716">
        <ele>530.45678710938</ele>
        <time>2020-05-14T13:45:35Z</time>
      </trkpt>
      <trkpt lat="43.6973" lon="6.96718">
        <ele>527.34521484375</ele>
        <time>2020-05-14T13:45:36Z</time>
      </trkpt>
      <trkpt lat="43.69732" lon="6.9672">
        <ele>499.56787109375</ele>
        <time>2020-05-14T13:45:37Z</time>
      </trkpt>
      <trkpt lat="43.69735" lon="6.96722">
        <ele>496.51416015625</ele>
        <time>2020-05-14T13:45:38Z</time>
      </trkpt>
      <trkpt lat="43.69737" lon="6.96724">
        <ele>491.87512207031</ele>
        <time>2020-05-14T13:45:39Z</time>
      </trkpt>
      <trkpt lat="43.69739" lon="6.96726">
        <ele>489.85461425781</ele>
        <time>2020-05-14T13:45:40Z</time>
      </trkpt>
      <trkpt lat="43.69741" lon="6.96727">
        <ele>488.78149414062</ele>
        <time>2020-05-14T13:45:41Z</time>
      </trkpt>
      <trkpt lat="43.69743" lon="6.96729">
        <ele>494.24682617188</ele>
        <time>2020-05-14T13:45:42Z</time>
      </trkpt>
      <trkpt lat="43.69745" lon="6.9673">
        <ele>497.93341064453</ele>
        <time>2020-05-14T13:45:43Z</time>
      </trkpt>
      <trkpt lat="43.69747" lon="6.96732">
        <ele>491.78509521484</ele>
        <time>2020-05-14T13:45:44Z</time>
      </trkpt>
      <trkpt lat="43.69749" lon="6.96734">
        <ele>493.62365722656</ele>
        <time>2020-05-14T13:45:45Z</time>
      </trkpt>
      <trkpt lat="43.69752" lon="6.96736">
        <ele>493.47546386719</ele>
        <time>2020-05-14T13:45:46Z</time>
      </trkpt>
      <trkpt lat="43.69754" lon="6.96738">
        <ele>491.51062011719</ele>
        <time>2020-05-14T13:45:47Z</time>
      </trkpt>
      <trkpt lat="43.69756" lon="6.9674">
        <ele>497.90783691406</ele>
        <time>2020-05-14T13:45:48Z</time>
      </trkpt>
      <trkpt lat="43.69758" lon="6.96741">
        <ele>504.15161132812</ele>
        <time>2020-05-14T13:45:49Z</time>
      </trkpt>
      <trkpt lat="43.69761" lon="6.96743">
        <ele>499.16931152344</ele>
        <time>2020-05-14T13:45:50Z</time>
      </trkpt>
      <trkpt lat="43.69763" lon="6.96745">
        <ele>502.55883789062</ele>
        <time>2020-05-14T13:45:51Z</time>
      </trkpt>
      <trkpt lat="43.69765" lon="6.96747">
        <ele>494.28875732422</ele>
        <time>2020-05-14T13:45:52Z</time>
      </trkpt>
      <trkpt lat="43.69767" lon="6.96749">
        <ele>489.66674804688</ele>
        <time>2020-05-14T13:45:53Z</time>
      </trkpt>
      <trkpt lat="43.69769" lon="6.9675">
        <ele>491.71234130859</ele>
        <time>2020-05-14T13:45:54Z</time>
      </trkpt>
      <trkpt lat="43.69771" lon="6.96752">
        <ele>490.86730957031</ele>
        <time>2020-05-14T13:45:55Z</time>
      </trkpt>
      <trkpt lat="43.69773" lon="6.96753">
        <ele>486.12908935547</ele>
        <time>2020-05-14T13:45:56Z</time>
      </trkpt>
      <trkpt lat="43.69775" lon="6.96755">
        <ele>483.69543457031</ele>
        <time>2020-05-14T13:45:57Z</time>
      </trkpt>
      <trkpt lat="43.69777" lon="6.96756">
        <ele>519.71832275391</ele>
        <time>2020-05-14T13:45:58Z</time>
      </trkpt>
      <trkpt lat="43.69779" lon="6.96757">
        <ele>508.818359375</ele>
        <time>2020-05-14T13:45:59Z</time>
      </trkpt>
      <trkpt lat="43.6978" lon="6.96758">
        <ele>510.62377929688</ele>
        <time>2020-05-14T13:46:00Z</time>
      </trkpt>
      <trkpt lat="43.69781" lon="6.96759">
        <ele>507.87292480469</ele>
        <time>2020-05-14T13:46:01Z</time>
      </trkpt>
      <trkpt lat="43.69783" lon="6.9676">
        <ele>502.85827636719</ele>
        <time>2020-05-14T13:46:02Z</time>
      </trkpt>
      <trkpt lat="43.69785" lon="6.96761">
        <ele>507.10888671875</ele>
        <time>2020-05-14T13:46:03Z</time>
      </trkpt>
      <trkpt lat="43.69786" lon="6.96763">
        <ele>505.62872314453</ele>
        <time>2020-05-14T13:46:04Z</time>
      </trkpt>
      <trkpt lat="43.69788" lon="6.96763">
        <ele>506.59582519531</ele>
        <time>2020-05-14T13:46:05Z</time>
      </trkpt>
      <trkpt lat="43.6979" lon="6.96764">
        <ele>487.28076171875</ele>
        <time>2020-05-14T13:46:06Z</time>
      </trkpt>
      <trkpt lat="43.69793" lon="6.96765">
        <ele>486.3408203125</ele>
        <time>2020-05-14T13:46:07Z</time>
      </trkpt>
      <trkpt lat="43.69795" lon="6.96766">
        <ele>481.9423828125</ele>
        <time>2020-05-14T13:46:08Z</time>
      </trkpt>
      <trkpt lat="43.69798" lon="6.96768">
        <ele>486.26489257812</ele>
        <time>2020-05-14T13:46:09Z</time>
      </trkpt>
      <trkpt lat="43.698" lon="6.96769">
        <ele>486.91967773438</ele>
        <time>2020-05-14T13:46:10Z</time>
      </trkpt>
      <trkpt lat="43.69802" lon="6.9677">
        <ele>493.11785888672</ele>
        <time>2020-05-14T13:46:11Z</time>
      </trkpt>
      <trkpt lat="43.69804" lon="6.9677">
        <ele>491.79895019531</ele>
        <time>2020-05-14T13:46:12Z</time>
      </trkpt>
      <trkpt lat="43.69806" lon="6.96771">
        <ele>491.46343994141</ele>
        <time>2020-05-14T13:46:13Z</time>
      </trkpt>
      <trkpt lat="43.69808" lon="6.96772">
        <ele>491.48193359375</ele>
        <time>2020-05-14T13:46:14Z</time>
      </trkpt>
      <trkpt lat="43.69811" lon="6.96772">
        <ele>496.70001220703</ele>
        <time>2020-05-14T13:46:15Z</time>
      </trkpt>
      <trkpt lat="43.69813" lon="6.96773">
        <ele>493.80096435547</ele>
        <time>2020-05-14T13:46:16Z</time>
      </trkpt>
      <trkpt lat="43.69816" lon="6.96773">
        <ele>497.7685546875</ele>
        <time>2020-05-14T13:46:17Z</time>
      </trkpt>
      <trkpt lat="43.69818" lon="6.96774">
        <ele>496.10040283203</ele>
        <time>2020-05-14T13:46:18Z</time>
      </trkpt>
      <trkpt lat="43.6982" lon="6.96773">
        <ele>501.56475830078</ele>
        <time>2020-05-14T13:46:19Z</time>
      </trkpt>
      <trkpt lat="43.69822" lon="6.96773">
        <ele>496.81134033203</ele>
        <time>2020-05-14T13:46:20Z</time>
      </trkpt>
      <trkpt lat="43.69825" lon="6.96772">
        <ele>489.93725585938</ele>
        <time>2020-05-14T13:46:21Z</time>
      </trkpt>
      <trkpt lat="43.69827" lon="6.96772">
        <ele>491.21618652344</ele>
        <time>2020-05-14T13:46:22Z</time>
      </trkpt>
      <trkpt lat="43.6983" lon="6.96771">
        <ele>529.93090820312</ele>
        <time>2020-05-14T13:46:23Z</time>
      </trkpt>
      <trkpt lat="43.69832" lon="6.96771">
        <ele>531.93408203125</ele>
        <time>2020-05-14T13:46:24Z</time>
      </trkpt>
      <trkpt lat="43.69835" lon="6.96769">
        <ele>490.02337646484</ele>
        <time>2020-05-14T13:46:25Z</time>
      </trkpt>
      <trkpt lat="43.69837" lon="6.96768">
        <ele>485.52697753906</ele>
        <time>2020-05-14T13:46:26Z</time>
      </trkpt>
      <trkpt lat="43.69839" lon="6.96767">
        <ele>485.61437988281</ele>
        <time>2020-05-14T13:46:27Z</time>
      </trkpt>
      <trkpt lat="43.69841" lon="6.96765">
        <ele>480.04614257812</ele>
        <time>2020-05-14T13:46:28Z</time>
      </trkpt>
      <trkpt lat="43.69843" lon="6.96764">
        <ele>474.60626220703</ele>
        <time>2020-05-14T13:46:29Z</time>
      </trkpt>
      <trkpt lat="43.69845" lon="6.96763">
        <ele>472.28295898438</ele>
        <time>2020-05-14T13:46:30Z</time>
      </trkpt>
      <trkpt lat="43.69847" lon="6.96762">
        <ele>474.71997070312</ele>
        <time>2020-05-14T13:46:31Z</time>
      </trkpt>
      <trkpt lat="43.69849" lon="6.96762">
        <ele>478.12152099609</ele>
        <time>2020-05-14T13:46:32Z</time>
      </trkpt>
      <trkpt lat="43.69851" lon="6.96761">
        <ele>480.92346191406</ele>
        <time>2020-05-14T13:46:33Z</time>
      </trkpt>
      <trkpt lat="43.69854" lon="6.9676">
        <ele>482.30639648438</ele>
        <time>2020-05-14T13:46:34Z</time>
      </trkpt>
      <trkpt lat="43.69856" lon="6.96759">
        <ele>489.88159179688</ele>
        <time>2020-05-14T13:46:35Z</time>
      </trkpt>
      <trkpt lat="43.69858" lon="6.96758">
        <ele>491.12390136719</ele>
        <time>2020-05-14T13:46:36Z</time>
      </trkpt>
      <trkpt lat="43.69861" lon="6.96758">
        <ele>495.83618164062</ele>
        <time>2020-05-14T13:46:37Z</time>
      </trkpt>
      <trkpt lat="43.69863" lon="6.96757">
        <ele>503.46820068359</ele>
        <time>2020-05-14T13:46:38Z</time>
      </trkpt>
      <trkpt lat="43.69866" lon="6.96757">
        <ele>502.41882324219</ele>
        <time>2020-05-14T13:46:39Z</time>
      </trkpt>
      <trkpt lat="43.69868" lon="6.96756">
        <ele>491.70739746094</ele>
        <time>2020-05-14T13:46:40Z</time>
      </trkpt>
      <trkpt lat="43.69871" lon="6.96756">
        <ele>486.30529785156</ele>
        <time>2020-05-14T13:46:41Z</time>
      </trkpt>
      <trkpt lat="43.69873" lon="6.96756">
        <ele>484.07409667969</ele>
        <time>2020-05-14T13:46:42Z</time>
      </trkpt>
      <trkpt lat="43.69876" lon="6.96756">
        <ele>526.41381835938</ele>
        <time>2020-05-14T13:46:43Z</time>
      </trkpt>
      <trkpt lat="43.69878" lon="6.96756">
        <ele>516.23193359375</ele>
        <time>2020-05-14T13:46:44Z</time>
      </trkpt>
      <trkpt lat="43.6988" lon="6.96756">
        <ele>493.28723144531</ele>
        <time>2020-05-14T13:46:45Z</time>
      </trkpt>
      <trkpt lat="43.69883" lon="6.96756">
        <ele>493.28112792969</ele>
        <time>2020-05-14T13:46:46Z</time>
      </trkpt>
      <trkpt lat="43.69885" lon="6.96756">
        <ele>494.55163574219</ele>
        <time>2020-05-14T13:46:47Z</time>
      </trkpt>
      <trkpt lat="43.69887" lon="6.96756">
        <ele>493.40478515625</ele>
        <time>2020-05-14T13:46:48Z</time>
      </trkpt>
      <trkpt lat="43.6989" lon="6.96755">
        <ele>495.97406005859</ele>
        <time>2020-05-14T13:46:49Z</time>
      </trkpt>
      <trkpt lat="43.69892" lon="6.96755">
        <ele>490.07830810547</ele>
        <time>2020-05-14T13:46:50Z</time>
      </trkpt>
      <trkpt lat="43.69894" lon="6.96754">
        <ele>483.82806396484</ele>
        <time>2020-05-14T13:46:51Z</time>
      </trkpt>
      <trkpt lat="43.69896" lon="6.96753">
        <ele>476.85302734375</ele>
        <time>2020-05-14T13:46:52Z</time>
      </trkpt>
      <trkpt lat="43.69899" lon="6.96753">
        <ele>470.51916503906</ele>
        <time>2020-05-14T13:46:53Z</time>
      </trkpt>
      <trkpt lat="43.69901" lon="6.96752">
        <ele>466.0107421875</ele>
        <time>2020-05-14T13:46:54Z</time>
      </trkpt>
      <trkpt lat="43.69903" lon="6.96751">
        <ele>474.90576171875</ele>
        <time>2020-05-14T13:46:55Z</time>
      </trkpt>
      <trkpt lat="43.69905" lon="6.9675">
        <ele>482.21142578125</ele>
        <time>2020-05-14T13:46:56Z</time>
      </trkpt>
      <trkpt lat="43.69907" lon="6.96749">
        <ele>481.46337890625</ele>
        <time>2020-05-14T13:46:57Z</time>
      </trkpt>
      <trkpt lat="43.69909" lon="6.96748">
        <ele>486.1513671875</ele>
        <time>2020-05-14T13:46:58Z</time>
      </trkpt>
      <trkpt lat="43.69911" lon="6.96747">
        <ele>482.05828857422</ele>
        <time>2020-05-14T13:46:59Z</time>
      </trkpt>
      <trkpt lat="43.69913" lon="6.96745">
        <ele>484.13861083984</ele>
        <time>2020-05-14T13:47:00Z</time>
      </trkpt>
      <trkpt lat="43.69915" lon="6.96744">
        <ele>485.95153808594</ele>
        <time>2020-05-14T13:47:01Z</time>
      </trkpt>
      <trkpt lat="43.69916" lon="6.96742">
        <ele>486.15002441406</ele>
        <time>2020-05-14T13:47:02Z</time>
      </trkpt>
      <trkpt lat="43.69918" lon="6.9674">
        <ele>522.56164550781</ele>
        <time>2020-05-14T13:47:03Z</time>
      </trkpt>
      <trkpt lat="43.6992" lon="6.96739">
        <ele>510.32568359375</ele>
        <time>2020-05-14T13:47:04Z</time>
      </trkpt>
      <trkpt lat="43.69922" lon="6.96737">
        <ele>508.24475097656</ele>
        <time>2020-05-14T13:47:05Z</time>
      </trkpt>
      <trkpt lat="43.69924" lon="6.96735">
        <ele>511.73016357422</ele>
        <time>2020-05-14T13:47:06Z</time>
      </trkpt>
      <trkpt lat="43.69926" lon="6.96734">
        <ele>487.345703125</ele>
        <time>2020-05-14T13:47:07Z</time>
      </trkpt>
      <trkpt lat="43.69928" lon="6.96732">
        <ele>494.1201171875</ele>
        <time>2020-05-14T13:47:08Z</time>
      </trkpt>
      <trkpt lat="43.69931" lon="6.9673">
        <ele>495.90612792969</ele>
        <time>2020-05-14T13:47:09Z</time>
      </trkpt>
      <trkpt lat="43.69933" lon="6.96729">
        <ele>503.97418212891</ele>
        <time>2020-05-14T13:47:10Z</time>
      </trkpt>
      <trkpt lat="43.69935" lon="6.96728">
        <ele>503.0263671875</ele>
        <time>2020-05-14T13:47:11Z</time>
      </trkpt>
      <trkpt lat="43.69937" lon="6.96727">
        <ele>499.61682128906</ele>
        <time>2020-05-14T13:47:12Z</time>
      </trkpt>
      <trkpt lat="43.6994" lon="6.96726">
        <ele>503.20825195312</ele>
        <time>2020-05-14T13:47:13Z</time>
      </trkpt>
      <trkpt lat="43.69942" lon="6.96725">
        <ele>493.93640136719</ele>
        <time>2020-05-14T13:47:14Z</time>
      </trkpt>
      <trkpt lat="43.69945" lon="6.96725">
        <ele>497.09338378906</ele>
        <time>2020-05-14T13:47:15Z</time>
      </trkpt>
      <trkpt lat="43.69947" lon="6.96724">
        <ele>494.40405273438</ele>
        <time>2020-05-14T13:47:16Z</time>
      </trkpt>
      <trkpt lat="43.6995" lon="6.96724">
        <ele>491.14245605469</ele>
        <time>2020-05-14T13:47:17Z</time>
      </trkpt>
      <trkpt lat="43.69953" lon="6.96724">
        <ele>488.40148925781</ele>
        <time>2020-05-14T13:47:18Z</time>
      </trkpt>
      <trkpt lat="43.69955" lon="6.96724">
        <ele>486.58752441406</ele>
        <time>2020-05-14T13:47:19Z</time>
      </trkpt>
      <trkpt lat="43.69958" lon="6.96723">
        <ele>486.89636230469</ele>
        <time>2020-05-14T13:47:20Z</time>
      </trkpt>
      <trkpt lat="43.6996" lon="6.96723">
        <ele>488.12817382812</ele>
        <time>2020-05-14T13:47:21Z</time>
      </trkpt>
      <trkpt lat="43.69963" lon="6.96723">
        <ele>488.43969726562</ele>
        <time>2020-05-14T13:47:22Z</time>
      </trkpt>
      <trkpt lat="43.69965" lon="6.96723">
        <ele>488.26721191406</ele>
        <time>2020-05-14T13:47:23Z</time>
      </trkpt>
      <trkpt lat="43.69968" lon="6.96723">
        <ele>537.48364257812</ele>
        <time>2020-05-14T13:47:24Z</time>
      </trkpt>
      <trkpt lat="43.69971" lon="6.96723">
        <ele>529.34716796875</ele>
        <time>2020-05-14T13:47:25Z</time>
      </trkpt>
      <trkpt lat="43.69973" lon="6.96723">
        <ele>497.64990234375</ele>
        <time>2020-05-14T13:47:26Z</time>
      </trkpt>
      <trkpt lat="43.69976" lon="6.96723">
        <ele>493.31518554688</ele>
        <time>2020-05-14T13:47:27Z</time>
      </trkpt>
      <trkpt lat="43.69978" lon="6.96723">
        <ele>493.42309570312</ele>
        <time>2020-05-14T13:47:28Z</time>
      </trkpt>
      <trkpt lat="43.6998" lon="6.96722">
        <ele>494.87976074219</ele>
        <time>2020-05-14T13:47:29Z</time>
      </trkpt>
      <trkpt lat="43.69983" lon="6.96721">
        <ele>489.04528808594</ele>
        <time>2020-05-14T13:47:30Z</time>
      </trkpt>
      <trkpt lat="43.69985" lon="6.96721">
        <ele>491.03936767578</ele>
        <time>2020-05-14T13:47:31Z</time>
      </trkpt>
      <trkpt lat="43.69986" lon="6.9672">
        <ele>488.50744628906</ele>
        <time>2020-05-14T13:47:32Z</time>
      </trkpt>
      <trkpt lat="43.69989" lon="6.96719">
        <ele>488.16302490234</ele>
        <time>2020-05-14T13:47:33Z</time>
      </trkpt>
      <trkpt lat="43.69991" lon="6.96717">
        <ele>488.40771484375</ele>
        <time>2020-05-14T13:47:34Z</time>
      </trkpt>
      <trkpt lat="43.69993" lon="6.96716">
        <ele>491.91772460938</ele>
        <time>2020-05-14T13:47:35Z</time>
      </trkpt>
      <trkpt lat="43.69996" lon="6.96715">
        <ele>492.79931640625</ele>
        <time>2020-05-14T13:47:36Z</time>
      </trkpt>
      <trkpt lat="43.69998" lon="6.96713">
        <ele>491.36950683594</ele>
        <time>2020-05-14T13:47:37Z</time>
      </trkpt>
      <trkpt lat="43.7" lon="6.96712">
        <ele>499.58135986328</ele>
        <time>2020-05-14T13:47:38Z</time>
      </trkpt>
      <trkpt lat="43.70002" lon="6.96711">
        <ele>496.63897705078</ele>
        <time>2020-05-14T13:47:39Z</time>
      </trkpt>
      <trkpt lat="43.70004" lon="6.9671">
        <ele>544.24987792969</ele>
        <time>2020-05-14T13:47:40Z</time>
      </trkpt>
      <trkpt lat="43.70006" lon="6.96708">
        <ele>530.93627929688</ele>
        <time>2020-05-14T13:47:41Z</time>
      </trkpt>
      <trkpt lat="43.70008" lon="6.96706">
        <ele>505.26007080078</ele>
        <time>2020-05-14T13:47:42Z</time>
      </trkpt>
      <trkpt lat="43.7001" lon="6.96705">
        <ele>504.26965332031</ele>
        <time>2020-05-14T13:47:43Z</time>
      </trkpt>
      <trkpt lat="43.70012" lon="6.96702">
        <ele>504.23699951172</ele>
        <time>2020-05-14T13:47:44Z</time>
      </trkpt>
      <trkpt lat="43.70014" lon="6.967">
        <ele>498.56616210938</ele>
        <time>2020-05-14T13:47:45Z</time>
      </trkpt>
      <trkpt lat="43.70015" lon="6.96698">
        <ele>498.34197998047</ele>
        <time>2020-05-14T13:47:46Z</time>
      </trkpt>
      <trkpt lat="43.70017" lon="6.96696">
        <ele>496.15307617188</ele>
        <time>2020-05-14T13:47:47Z</time>
      </trkpt>
      <trkpt lat="43.70019" lon="6.96695">
        <ele>504.9423828125</ele>
        <time>2020-05-14T13:47:48Z</time>
      </trkpt>
      <trkpt lat="43.70021" lon="6.96692">
        <ele>498.77679443359</ele>
        <time>2020-05-14T13:47:49Z</time>
      </trkpt>
      <trkpt lat="43.70023" lon="6.9669">
        <ele>493.82861328125</ele>
        <time>2020-05-14T13:47:50Z</time>
      </trkpt>
      <trkpt lat="43.70025" lon="6.96688">
        <ele>536.34582519531</ele>
        <time>2020-05-14T13:47:51Z</time>
      </trkpt>
      <trkpt lat="43.70027" lon="6.96687">
        <ele>524.3095703125</ele>
        <time>2020-05-14T13:47:52Z</time>
      </trkpt>
      <trkpt lat="43.70029" lon="6.96685">
        <ele>489.744140625</ele>
        <time>2020-05-14T13:47:53Z</time>
      </trkpt>
      <trkpt lat="43.70032" lon="6.96683">
        <ele>488.38708496094</ele>
        <time>2020-05-14T13:47:54Z</time>
      </trkpt>
      <trkpt lat="43.70034" lon="6.96681">
        <ele>488.482421875</ele>
        <time>2020-05-14T13:47:55Z</time>
      </trkpt>
      <trkpt lat="43.70036" lon="6.96678">
        <ele>492.36254882812</ele>
        <time>2020-05-14T13:47:56Z</time>
      </trkpt>
      <trkpt lat="43.70039" lon="6.96676">
        <ele>486.98083496094</ele>
        <time>2020-05-14T13:47:57Z</time>
      </trkpt>
      <trkpt lat="43.70041" lon="6.96674">
        <ele>494.22424316406</ele>
        <time>2020-05-14T13:47:58Z</time>
      </trkpt>
      <trkpt lat="43.70043" lon="6.96672">
        <ele>494.03283691406</ele>
        <time>2020-05-14T13:47:59Z</time>
      </trkpt>
      <trkpt lat="43.70045" lon="6.9667">
        <ele>491.17333984375</ele>
        <time>2020-05-14T13:48:00Z</time>
      </trkpt>
      <trkpt lat="43.70047" lon="6.96668">
        <ele>492.92962646484</ele>
        <time>2020-05-14T13:48:01Z</time>
      </trkpt>
      <trkpt lat="43.70049" lon="6.96666">
        <ele>495.89123535156</ele>
        <time>2020-05-14T13:48:02Z</time>
      </trkpt>
      <trkpt lat="43.70051" lon="6.96663">
        <ele>498.02709960938</ele>
        <time>2020-05-14T13:48:03Z</time>
      </trkpt>
      <trkpt lat="43.70053" lon="6.96661">
        <ele>492.04248046875</ele>
        <time>2020-05-14T13:48:04Z</time>
      </trkpt>
      <trkpt lat="43.70055" lon="6.96658">
        <ele>498.26318359375</ele>
        <time>2020-05-14T13:48:05Z</time>
      </trkpt>
      <trkpt lat="43.70057" lon="6.96656">
        <ele>502.09057617188</ele>
        <time>2020-05-14T13:48:06Z</time>
      </trkpt>
      <trkpt lat="43.70059" lon="6.96654">
        <ele>487.57507324219</ele>
        <time>2020-05-14T13:48:07Z</time>
      </trkpt>
      <trkpt lat="43.70061" lon="6.96651">
        <ele>480.60327148438</ele>
        <time>2020-05-14T13:48:08Z</time>
      </trkpt>
      <trkpt lat="43.70063" lon="6.96649">
        <ele>521.43060302734</ele>
        <time>2020-05-14T13:48:09Z</time>
      </trkpt>
      <trkpt lat="43.70064" lon="6.96646">
        <ele>506.11968994141</ele>
        <time>2020-05-14T13:48:10Z</time>
      </trkpt>
      <trkpt lat="43.70066" lon="6.96643">
        <ele>483.88952636719</ele>
        <time>2020-05-14T13:48:11Z</time>
      </trkpt>
      <trkpt lat="43.70068" lon="6.9664">
        <ele>492.27514648438</ele>
        <time>2020-05-14T13:48:12Z</time>
      </trkpt>
      <trkpt lat="43.7007" lon="6.96637">
        <ele>497.4443359375</ele>
        <time>2020-05-14T13:48:13Z</time>
      </trkpt>
      <trkpt lat="43.70072" lon="6.96634">
        <ele>546.53527832031</ele>
        <time>2020-05-14T13:48:14Z</time>
      </trkpt>
      <trkpt lat="43.70074" lon="6.96632">
        <ele>544.88989257812</ele>
        <time>2020-05-14T13:48:15Z</time>
      </trkpt>
      <trkpt lat="43.70075" lon="6.96629">
        <ele>569.13720703125</ele>
        <time>2020-05-14T13:48:16Z</time>
      </trkpt>
      <trkpt lat="43.70076" lon="6.96626">
        <ele>486.22119140625</ele>
        <time>2020-05-14T13:48:17Z</time>
      </trkpt>
      <trkpt lat="43.70078" lon="6.96623">
        <ele>485.9853515625</ele>
        <time>2020-05-14T13:48:18Z</time>
      </trkpt>
      <trkpt lat="43.70078" lon="6.96619">
        <ele>531.95092773438</ele>
        <time>2020-05-14T13:48:19Z</time>
      </trkpt>
      <trkpt lat="43.70079" lon="6.96616">
        <ele>527.04699707031</ele>
        <time>2020-05-14T13:48:20Z</time>
      </trkpt>
      <trkpt lat="43.7008" lon="6.96612">
        <ele>530.486328125</ele>
        <time>2020-05-14T13:48:21Z</time>
      </trkpt>
      <trkpt lat="43.70081" lon="6.96608">
        <ele>533.28149414062</ele>
        <time>2020-05-14T13:48:22Z</time>
      </trkpt>
      <trkpt lat="43.70082" lon="6.96604">
        <ele>533.00170898438</ele>
        <time>2020-05-14T13:48:23Z</time>
      </trkpt>
      <trkpt lat="43.70083" lon="6.966">
        <ele>531.845703125</ele>
        <time>2020-05-14T13:48:24Z</time>
      </trkpt>
      <trkpt lat="43.70084" lon="6.96596">
        <ele>527.78918457031</ele>
        <time>2020-05-14T13:48:25Z</time>
      </trkpt>
      <trkpt lat="43.70085" lon="6.96593">
        <ele>534.271484375</ele>
        <time>2020-05-14T13:48:26Z</time>
      </trkpt>
      <trkpt lat="43.70086" lon="6.96589">
        <ele>534.990234375</ele>
        <time>2020-05-14T13:48:27Z</time>
      </trkpt>
      <trkpt lat="43.70087" lon="6.96585">
        <ele>536.64868164062</ele>
        <time>2020-05-14T13:48:28Z</time>
      </trkpt>
      <trkpt lat="43.70088" lon="6.96581">
        <ele>531.341796875</ele>
        <time>2020-05-14T13:48:29Z</time>
      </trkpt>
      <trkpt lat="43.70089" lon="6.96577">
        <ele>527.67041015625</ele>
        <time>2020-05-14T13:48:30Z</time>
      </trkpt>
      <trkpt lat="43.7009" lon="6.96572">
        <ele>527.99877929688</ele>
        <time>2020-05-14T13:48:31Z</time>
      </trkpt>
      <trkpt lat="43.70091" lon="6.96568">
        <ele>525.91870117188</ele>
        <time>2020-05-14T13:48:32Z</time>
      </trkpt>
      <trkpt lat="43.70091" lon="6.96563">
        <ele>478.60498046875</ele>
        <time>2020-05-14T13:48:33Z</time>
      </trkpt>
      <trkpt lat="43.70092" lon="6.96559">
        <ele>477.51599121094</ele>
        <time>2020-05-14T13:48:34Z</time>
      </trkpt>
      <trkpt lat="43.70092" lon="6.96554">
        <ele>474.78491210938</ele>
        <time>2020-05-14T13:48:35Z</time>
      </trkpt>
      <trkpt lat="43.70093" lon="6.9655">
        <ele>471.97741699219</ele>
        <time>2020-05-14T13:48:36Z</time>
      </trkpt>
      <trkpt lat="43.70093" lon="6.96545">
        <ele>474.48742675781</ele>
        <time>2020-05-14T13:48:37Z</time>
      </trkpt>
      <trkpt lat="43.70094" lon="6.96541">
        <ele>474.80236816406</ele>
        <time>2020-05-14T13:48:38Z</time>
      </trkpt>
      <trkpt lat="43.70095" lon="6.96537">
        <ele>472.80920410156</ele>
        <time>2020-05-14T13:48:39Z</time>
      </trkpt>
      <trkpt lat="43.70096" lon="6.96533">
        <ele>474.23767089844</ele>
        <time>2020-05-14T13:48:40Z</time>
      </trkpt>
      <trkpt lat="43.70097" lon="6.96529">
        <ele>476.23010253906</ele>
        <time>2020-05-14T13:48:41Z</time>
      </trkpt>
      <trkpt lat="43.70098" lon="6.96525">
        <ele>483.39514160156</ele>
        <time>2020-05-14T13:48:42Z</time>
      </trkpt>
      <trkpt lat="43.70099" lon="6.96521">
        <ele>486.33734130859</ele>
        <time>2020-05-14T13:48:43Z</time>
      </trkpt>
      <trkpt lat="43.701" lon="6.96517">
        <ele>486.37585449219</ele>
        <time>2020-05-14T13:48:44Z</time>
      </trkpt>
      <trkpt lat="43.70101" lon="6.96513">
        <ele>485.54858398438</ele>
        <time>2020-05-14T13:48:45Z</time>
      </trkpt>
      <trkpt lat="43.70102" lon="6.96509">
        <ele>493.24645996094</ele>
        <time>2020-05-14T13:48:46Z</time>
      </trkpt>
      <trkpt lat="43.70103" lon="6.96506">
        <ele>500.77160644531</ele>
        <time>2020-05-14T13:48:47Z</time>
      </trkpt>
      <trkpt lat="43.70104" lon="6.96502">
        <ele>500.53125</ele>
        <time>2020-05-14T13:48:48Z</time>
      </trkpt>
      <trkpt lat="43.70105" lon="6.96498">
        <ele>501.00549316406</ele>
        <time>2020-05-14T13:48:49Z</time>
      </trkpt>
      <trkpt lat="43.70106" lon="6.96494">
        <ele>496.76263427734</ele>
        <time>2020-05-14T13:48:50Z</time>
      </trkpt>
      <trkpt lat="43.70107" lon="6.9649">
        <ele>491.66552734375</ele>
        <time>2020-05-14T13:48:51Z</time>
      </trkpt>
      <trkpt lat="43.70107" lon="6.96486">
        <ele>494.78198242188</ele>
        <time>2020-05-14T13:48:52Z</time>
      </trkpt>
      <trkpt lat="43.70108" lon="6.96482">
        <ele>492.75408935547</ele>
        <time>2020-05-14T13:48:53Z</time>
      </trkpt>
      <trkpt lat="43.70108" lon="6.96477">
        <ele>497.05102539062</ele>
        <time>2020-05-14T13:48:54Z</time>
      </trkpt>
      <trkpt lat="43.70109" lon="6.96473">
        <ele>495.97094726562</ele>
        <time>2020-05-14T13:48:55Z</time>
      </trkpt>
      <trkpt lat="43.70109" lon="6.96468">
        <ele>501.20288085938</ele>
        <time>2020-05-14T13:48:56Z</time>
      </trkpt>
      <trkpt lat="43.7011" lon="6.96465">
        <ele>503.73046875</ele>
        <time>2020-05-14T13:48:57Z</time>
      </trkpt>
      <trkpt lat="43.70111" lon="6.9646">
        <ele>507.36712646484</ele>
        <time>2020-05-14T13:48:58Z</time>
      </trkpt>
      <trkpt lat="43.70111" lon="6.96456">
        <ele>505.47772216797</ele>
        <time>2020-05-14T13:48:59Z</time>
      </trkpt>
      <trkpt lat="43.70112" lon="6.96451">
        <ele>501.04943847656</ele>
        <time>2020-05-14T13:49:00Z</time>
      </trkpt>
      <trkpt lat="43.70112" lon="6.96447">
        <ele>498.54425048828</ele>
        <time>2020-05-14T13:49:01Z</time>
      </trkpt>
      <trkpt lat="43.70112" lon="6.96443">
        <ele>492.06237792969</ele>
        <time>2020-05-14T13:49:02Z</time>
      </trkpt>
      <trkpt lat="43.70112" lon="6.96439">
        <ele>534.76843261719</ele>
        <time>2020-05-14T13:49:03Z</time>
      </trkpt>
      <trkpt lat="43.70113" lon="6.96435">
        <ele>525.84204101562</ele>
        <time>2020-05-14T13:49:04Z</time>
      </trkpt>
      <trkpt lat="43.70113" lon="6.96431">
        <ele>530.0771484375</ele>
        <time>2020-05-14T13:49:05Z</time>
      </trkpt>
      <trkpt lat="43.70113" lon="6.96427">
        <ele>520.41357421875</ele>
        <time>2020-05-14T13:49:06Z</time>
      </trkpt>
      <trkpt lat="43.70113" lon="6.96422">
        <ele>514.53332519531</ele>
        <time>2020-05-14T13:49:07Z</time>
      </trkpt>
      <trkpt lat="43.70113" lon="6.96417">
        <ele>511.87268066406</ele>
        <time>2020-05-14T13:49:08Z</time>
      </trkpt>
      <trkpt lat="43.70113" lon="6.96413">
        <ele>490.98370361328</ele>
        <time>2020-05-14T13:49:09Z</time>
      </trkpt>
      <trkpt lat="43.70113" lon="6.96409">
        <ele>487.10247802734</ele>
        <time>2020-05-14T13:49:10Z</time>
      </trkpt>
      <trkpt lat="43.70113" lon="6.96405">
        <ele>488.9990234375</ele>
        <time>2020-05-14T13:49:11Z</time>
      </trkpt>
      <trkpt lat="43.70113" lon="6.96401">
        <ele>483.40606689453</ele>
        <time>2020-05-14T13:49:12Z</time>
      </trkpt>
      <trkpt lat="43.70112" lon="6.96396">
        <ele>480.88806152344</ele>
        <time>2020-05-14T13:49:13Z</time>
      </trkpt>
      <trkpt lat="43.70112" lon="6.96392">
        <ele>482.09533691406</ele>
        <time>2020-05-14T13:49:14Z</time>
      </trkpt>
      <trkpt lat="43.70112" lon="6.96388">
        <ele>525.04296875</ele>
        <time>2020-05-14T13:49:15Z</time>
      </trkpt>
      <trkpt lat="43.70112" lon="6.96384">
        <ele>578.8115234375</ele>
        <time>2020-05-14T13:49:16Z</time>
      </trkpt>
      <trkpt lat="43.70111" lon="6.9638">
        <ele>578.68481445312</ele>
        <time>2020-05-14T13:49:17Z</time>
      </trkpt>
      <trkpt lat="43.70111" lon="6.96377">
        <ele>565.5390625</ele>
        <time>2020-05-14T13:49:18Z</time>
      </trkpt>
      <trkpt lat="43.7011" lon="6.96373">
        <ele>564.31274414062</ele>
        <time>2020-05-14T13:49:19Z</time>
      </trkpt>
      <trkpt lat="43.7011" lon="6.9637">
        <ele>568.49243164062</ele>
        <time>2020-05-14T13:49:20Z</time>
      </trkpt>
      <trkpt lat="43.7011" lon="6.96366">
        <ele>569.75537109375</ele>
        <time>2020-05-14T13:49:21Z</time>
      </trkpt>
      <trkpt lat="43.7011" lon="6.96362">
        <ele>573.4365234375</ele>
        <time>2020-05-14T13:49:22Z</time>
      </trkpt>
      <trkpt lat="43.70111" lon="6.96358">
        <ele>577.78088378906</ele>
        <time>2020-05-14T13:49:23Z</time>
      </trkpt>
      <trkpt lat="43.70111" lon="6.96354">
        <ele>600.44995117188</ele>
        <time>2020-05-14T13:49:24Z</time>
      </trkpt>
      <trkpt lat="43.7011" lon="6.9635">
        <ele>596.97265625</ele>
        <time>2020-05-14T13:49:25Z</time>
      </trkpt>
      <trkpt lat="43.7011" lon="6.96346">
        <ele>594.74609375</ele>
        <time>2020-05-14T13:49:26Z</time>
      </trkpt>
      <trkpt lat="43.7011" lon="6.96342">
        <ele>595.98559570312</ele>
        <time>2020-05-14T13:49:27Z</time>
      </trkpt>
      <trkpt lat="43.70109" lon="6.96338">
        <ele>597.44091796875</ele>
        <time>2020-05-14T13:49:28Z</time>
      </trkpt>
      <trkpt lat="43.70109" lon="6.96333">
        <ele>599.16577148438</ele>
        <time>2020-05-14T13:49:29Z</time>
      </trkpt>
      <trkpt lat="43.70098" lon="6.96288">
        <ele>387.12762451172</ele>
        <time>2020-05-14T13:49:40Z</time>
      </trkpt>
      <trkpt lat="43.70096" lon="6.96284">
        <ele>500.04724121094</ele>
        <time>2020-05-14T13:49:41Z</time>
      </trkpt>
      <trkpt lat="43.70095" lon="6.9628">
        <ele>558.40905761719</ele>
        <time>2020-05-14T13:49:42Z</time>
      </trkpt>
      <trkpt lat="43.70093" lon="6.96277">
        <ele>562.33813476562</ele>
        <time>2020-05-14T13:49:43Z</time>
      </trkpt>
      <trkpt lat="43.70092" lon="6.96273">
        <ele>567.84558105469</ele>
        <time>2020-05-14T13:49:44Z</time>
      </trkpt>
      <trkpt lat="43.7009" lon="6.96269">
        <ele>564.41430664062</ele>
        <time>2020-05-14T13:49:45Z</time>
      </trkpt>
      <trkpt lat="43.70087" lon="6.96266">
        <ele>561.96606445312</ele>
        <time>2020-05-14T13:49:46Z</time>
      </trkpt>
      <trkpt lat="43.70085" lon="6.96262">
        <ele>562.09741210938</ele>
        <time>2020-05-14T13:49:47Z</time>
      </trkpt>
      <trkpt lat="43.70084" lon="6.96259">
        <ele>554.5244140625</ele>
        <time>2020-05-14T13:49:48Z</time>
      </trkpt>
      <trkpt lat="43.70082" lon="6.96256">
        <ele>553.93640136719</ele>
        <time>2020-05-14T13:49:49Z</time>
      </trkpt>
      <trkpt lat="43.7008" lon="6.96253">
        <ele>552.66125488281</ele>
        <time>2020-05-14T13:49:50Z</time>
      </trkpt>
      <trkpt lat="43.70077" lon="6.96249">
        <ele>555.61865234375</ele>
        <time>2020-05-14T13:49:51Z</time>
      </trkpt>
      <trkpt lat="43.70075" lon="6.96246">
        <ele>559.03967285156</ele>
        <time>2020-05-14T13:49:52Z</time>
      </trkpt>
      <trkpt lat="43.70072" lon="6.96243">
        <ele>558.87036132812</ele>
        <time>2020-05-14T13:49:53Z</time>
      </trkpt>
      <trkpt lat="43.70069" lon="6.96239">
        <ele>565.26953125</ele>
        <time>2020-05-14T13:49:54Z</time>
      </trkpt>
      <trkpt lat="43.70067" lon="6.96236">
        <ele>558.5185546875</ele>
        <time>2020-05-14T13:49:55Z</time>
      </trkpt>
      <trkpt lat="43.70065" lon="6.96233">
        <ele>558.3837890625</ele>
        <time>2020-05-14T13:49:56Z</time>
      </trkpt>
      <trkpt lat="43.70063" lon="6.9623">
        <ele>555.55322265625</ele>
        <time>2020-05-14T13:49:57Z</time>
      </trkpt>
      <trkpt lat="43.70061" lon="6.96226">
        <ele>552.79113769531</ele>
        <time>2020-05-14T13:49:58Z</time>
      </trkpt>
      <trkpt lat="43.70058" lon="6.96223">
        <ele>553.95788574219</ele>
        <time>2020-05-14T13:49:59Z</time>
      </trkpt>
      <trkpt lat="43.70056" lon="6.9622">
        <ele>558.43823242188</ele>
        <time>2020-05-14T13:50:00Z</time>
      </trkpt>
      <trkpt lat="43.70053" lon="6.96217">
        <ele>558.08422851562</ele>
        <time>2020-05-14T13:50:01Z</time>
      </trkpt>
      <trkpt lat="43.70051" lon="6.96213">
        <ele>556.33959960938</ele>
        <time>2020-05-14T13:50:02Z</time>
      </trkpt>
      <trkpt lat="43.70049" lon="6.9621">
        <ele>558.953125</ele>
        <time>2020-05-14T13:50:03Z</time>
      </trkpt>
      <trkpt lat="43.70047" lon="6.96207">
        <ele>560.1123046875</ele>
        <time>2020-05-14T13:50:04Z</time>
      </trkpt>
      <trkpt lat="43.70045" lon="6.96204">
        <ele>558.16564941406</ele>
        <time>2020-05-14T13:50:05Z</time>
      </trkpt>
      <trkpt lat="43.70043" lon="6.962">
        <ele>553.46960449219</ele>
        <time>2020-05-14T13:50:06Z</time>
      </trkpt>
      <trkpt lat="43.7004" lon="6.96197">
        <ele>553.23803710938</ele>
        <time>2020-05-14T13:50:07Z</time>
      </trkpt>
      <trkpt lat="43.70038" lon="6.96194">
        <ele>612.77661132812</ele>
        <time>2020-05-14T13:50:08Z</time>
      </trkpt>
      <trkpt lat="43.70035" lon="6.96191">
        <ele>641.0146484375</ele>
        <time>2020-05-14T13:50:09Z</time>
      </trkpt>
      <trkpt lat="43.70033" lon="6.96188">
        <ele>649.73669433594</ele>
        <time>2020-05-14T13:50:10Z</time>
      </trkpt>
      <trkpt lat="43.7003" lon="6.96185">
        <ele>657.44213867188</ele>
        <time>2020-05-14T13:50:11Z</time>
      </trkpt>
      <trkpt lat="43.70028" lon="6.96182">
        <ele>657.73327636719</ele>
        <time>2020-05-14T13:50:12Z</time>
      </trkpt>
      <trkpt lat="43.70026" lon="6.96179">
        <ele>656.10498046875</ele>
        <time>2020-05-14T13:50:13Z</time>
      </trkpt>
      <trkpt lat="43.70024" lon="6.96175">
        <ele>656.13525390625</ele>
        <time>2020-05-14T13:50:14Z</time>
      </trkpt>
      <trkpt lat="43.70022" lon="6.96172">
        <ele>656.62255859375</ele>
        <time>2020-05-14T13:50:15Z</time>
      </trkpt>
      <trkpt lat="43.70019" lon="6.96169">
        <ele>656.65979003906</ele>
        <time>2020-05-14T13:50:16Z</time>
      </trkpt>
      <trkpt lat="43.70017" lon="6.96165">
        <ele>662.47790527344</ele>
        <time>2020-05-14T13:50:17Z</time>
      </trkpt>
      <trkpt lat="43.70015" lon="6.96161">
        <ele>663.46154785156</ele>
        <time>2020-05-14T13:50:18Z</time>
      </trkpt>
      <trkpt lat="43.70013" lon="6.96157">
        <ele>663.33056640625</ele>
        <time>2020-05-14T13:50:19Z</time>
      </trkpt>
      <trkpt lat="43.70012" lon="6.96152">
        <ele>663.41674804688</ele>
        <time>2020-05-14T13:50:20Z</time>
      </trkpt>
      <trkpt lat="43.70011" lon="6.96147">
        <ele>663.20324707031</ele>
        <time>2020-05-14T13:50:21Z</time>
      </trkpt>
      <trkpt lat="43.70011" lon="6.96142">
        <ele>662.77746582031</ele>
        <time>2020-05-14T13:50:22Z</time>
      </trkpt>
      <trkpt lat="43.70012" lon="6.96137">
        <ele>662.81762695312</ele>
        <time>2020-05-14T13:50:23Z</time>
      </trkpt>
      <trkpt lat="43.70013" lon="6.96132">
        <ele>661.9140625</ele>
        <time>2020-05-14T13:50:24Z</time>
      </trkpt>
      <trkpt lat="43.70014" lon="6.96127">
        <ele>662.08923339844</ele>
        <time>2020-05-14T13:50:25Z</time>
      </trkpt>
      <trkpt lat="43.70016" lon="6.96123">
        <ele>662.55334472656</ele>
        <time>2020-05-14T13:50:26Z</time>
      </trkpt>
      <trkpt lat="43.70017" lon="6.9612">
        <ele>662.76184082031</ele>
        <time>2020-05-14T13:50:27Z</time>
      </trkpt>
      <trkpt lat="43.7002" lon="6.96116">
        <ele>662.6025390625</ele>
        <time>2020-05-14T13:50:28Z</time>
      </trkpt>
      <trkpt lat="43.70022" lon="6.96114">
        <ele>662.38989257812</ele>
        <time>2020-05-14T13:50:29Z</time>
      </trkpt>
      <trkpt lat="43.70025" lon="6.96112">
        <ele>662.498046875</ele>
        <time>2020-05-14T13:50:30Z</time>
      </trkpt>
      <trkpt lat="43.70029" lon="6.96111">
        <ele>662.51733398438</ele>
        <time>2020-05-14T13:50:31Z</time>
      </trkpt>
      <trkpt lat="43.70032" lon="6.9611">
        <ele>662.701171875</ele>
        <time>2020-05-14T13:50:32Z</time>
      </trkpt>
      <trkpt lat="43.70035" lon="6.9611">
        <ele>662.87805175781</ele>
        <time>2020-05-14T13:50:33Z</time>
      </trkpt>
      <trkpt lat="43.70039" lon="6.9611">
        <ele>663.19213867188</ele>
        <time>2020-05-14T13:50:34Z</time>
      </trkpt>
      <trkpt lat="43.70042" lon="6.96111">
        <ele>663.48901367188</ele>
        <time>2020-05-14T13:50:35Z</time>
      </trkpt>
      <trkpt lat="43.70045" lon="6.96112">
        <ele>663.72766113281</ele>
        <time>2020-05-14T13:50:36Z</time>
      </trkpt>
      <trkpt lat="43.70048" lon="6.96114">
        <ele>663.58728027344</ele>
        <time>2020-05-14T13:50:37Z</time>
      </trkpt>
      <trkpt lat="43.70051" lon="6.96116">
        <ele>663.92590332031</ele>
        <time>2020-05-14T13:50:38Z</time>
      </trkpt>
      <trkpt lat="43.70054" lon="6.96119">
        <ele>663.720703125</ele>
        <time>2020-05-14T13:50:39Z</time>
      </trkpt>
      <trkpt lat="43.70057" lon="6.96121">
        <ele>663.65380859375</ele>
        <time>2020-05-14T13:50:40Z</time>
      </trkpt>
      <trkpt lat="43.7006" lon="6.96123">
        <ele>663.13940429688</ele>
        <time>2020-05-14T13:50:41Z</time>
      </trkpt>
      <trkpt lat="43.70063" lon="6.96125">
        <ele>663.01354980469</ele>
        <time>2020-05-14T13:50:42Z</time>
      </trkpt>
      <trkpt lat="43.70065" lon="6.96127">
        <ele>662.96264648438</ele>
        <time>2020-05-14T13:50:43Z</time>
      </trkpt>
      <trkpt lat="43.70068" lon="6.96129">
        <ele>663.16455078125</ele>
        <time>2020-05-14T13:50:44Z</time>
      </trkpt>
      <trkpt lat="43.70071" lon="6.96131">
        <ele>662.98510742188</ele>
        <time>2020-05-14T13:50:45Z</time>
      </trkpt>
      <trkpt lat="43.70074" lon="6.96133">
        <ele>665.15307617188</ele>
        <time>2020-05-14T13:50:46Z</time>
      </trkpt>
      <trkpt lat="43.70077" lon="6.96135">
        <ele>664.81823730469</ele>
        <time>2020-05-14T13:50:47Z</time>
      </trkpt>
      <trkpt lat="43.7008" lon="6.96138">
        <ele>665.02270507812</ele>
        <time>2020-05-14T13:50:48Z</time>
      </trkpt>
      <trkpt lat="43.70083" lon="6.9614">
        <ele>665.38061523438</ele>
        <time>2020-05-14T13:50:49Z</time>
      </trkpt>
      <trkpt lat="43.70085" lon="6.96142">
        <ele>665.36962890625</ele>
        <time>2020-05-14T13:50:50Z</time>
      </trkpt>
      <trkpt lat="43.70089" lon="6.96145">
        <ele>664.97326660156</ele>
        <time>2020-05-14T13:50:51Z</time>
      </trkpt>
      <trkpt lat="43.70091" lon="6.96147">
        <ele>664.9521484375</ele>
        <time>2020-05-14T13:50:52Z</time>
      </trkpt>
      <trkpt lat="43.70094" lon="6.96149">
        <ele>663.85595703125</ele>
        <time>2020-05-14T13:50:53Z</time>
      </trkpt>
      <trkpt lat="43.70097" lon="6.96151">
        <ele>664.02563476562</ele>
        <time>2020-05-14T13:50:54Z</time>
      </trkpt>
      <trkpt lat="43.701" lon="6.96153">
        <ele>664.17199707031</ele>
        <time>2020-05-14T13:50:55Z</time>
      </trkpt>
      <trkpt lat="43.70103" lon="6.96155">
        <ele>664.31176757812</ele>
        <time>2020-05-14T13:50:56Z</time>
      </trkpt>
      <trkpt lat="43.70106" lon="6.96157">
        <ele>664.88708496094</ele>
        <time>2020-05-14T13:50:57Z</time>
      </trkpt>
      <trkpt lat="43.70109" lon="6.96159">
        <ele>665.25842285156</ele>
        <time>2020-05-14T13:50:58Z</time>
      </trkpt>
      <trkpt lat="43.70111" lon="6.96161">
        <ele>666.00073242188</ele>
        <time>2020-05-14T13:50:59Z</time>
      </trkpt>
      <trkpt lat="43.70114" lon="6.96163">
        <ele>666.90686035156</ele>
        <time>2020-05-14T13:51:00Z</time>
      </trkpt>
      <trkpt lat="43.70117" lon="6.96165">
        <ele>665.96423339844</ele>
        <time>2020-05-14T13:51:01Z</time>
      </trkpt>
      <trkpt lat="43.7012" lon="6.96167">
        <ele>672.73828125</ele>
        <time>2020-05-14T13:51:02Z</time>
      </trkpt>
      <trkpt lat="43.70122" lon="6.96169">
        <ele>674.56530761719</ele>
        <time>2020-05-14T13:51:03Z</time>
      </trkpt>
      <trkpt lat="43.70125" lon="6.96172">
        <ele>674.23486328125</ele>
        <time>2020-05-14T13:51:04Z</time>
      </trkpt>
      <trkpt lat="43.70127" lon="6.96174">
        <ele>674.13989257812</ele>
        <time>2020-05-14T13:51:05Z</time>
      </trkpt>
      <trkpt lat="43.7013" lon="6.96177">
        <ele>673.91259765625</ele>
        <time>2020-05-14T13:51:06Z</time>
      </trkpt>
      <trkpt lat="43.70133" lon="6.9618">
        <ele>674.07006835938</ele>
        <time>2020-05-14T13:51:07Z</time>
      </trkpt>
      <trkpt lat="43.70136" lon="6.96182">
        <ele>672.40576171875</ele>
        <time>2020-05-14T13:51:08Z</time>
      </trkpt>
      <trkpt lat="43.70139" lon="6.96184">
        <ele>672.20532226562</ele>
        <time>2020-05-14T13:51:09Z</time>
      </trkpt>
      <trkpt lat="43.70142" lon="6.96186">
        <ele>671.9619140625</ele>
        <time>2020-05-14T13:51:10Z</time>
      </trkpt>
      <trkpt lat="43.70145" lon="6.96188">
        <ele>672.14965820312</ele>
        <time>2020-05-14T13:51:11Z</time>
      </trkpt>
      <trkpt lat="43.70148" lon="6.9619">
        <ele>672.861328125</ele>
        <time>2020-05-14T13:51:12Z</time>
      </trkpt>
      <trkpt lat="43.7015" lon="6.96192">
        <ele>672.73266601562</ele>
        <time>2020-05-14T13:51:13Z</time>
      </trkpt>
      <trkpt lat="43.70153" lon="6.96194">
        <ele>672.67065429688</ele>
        <time>2020-05-14T13:51:14Z</time>
      </trkpt>
      <trkpt lat="43.70155" lon="6.96197">
        <ele>672.77587890625</ele>
        <time>2020-05-14T13:51:15Z</time>
      </trkpt>
      <trkpt lat="43.70158" lon="6.96199">
        <ele>672.80200195312</ele>
        <time>2020-05-14T13:51:16Z</time>
      </trkpt>
      <trkpt lat="43.70161" lon="6.96201">
        <ele>671.703125</ele>
        <time>2020-05-14T13:51:17Z</time>
      </trkpt>
      <trkpt lat="43.70164" lon="6.96202">
        <ele>671.05151367188</ele>
        <time>2020-05-14T13:51:18Z</time>
      </trkpt>
      <trkpt lat="43.70166" lon="6.96204">
        <ele>672.41015625</ele>
        <time>2020-05-14T13:51:19Z</time>
      </trkpt>
      <trkpt lat="43.70169" lon="6.96206">
        <ele>673.27319335938</ele>
        <time>2020-05-14T13:51:20Z</time>
      </trkpt>
      <trkpt lat="43.70172" lon="6.96208">
        <ele>673.646484375</ele>
        <time>2020-05-14T13:51:21Z</time>
      </trkpt>
      <trkpt lat="43.70175" lon="6.9621">
        <ele>674.37255859375</ele>
        <time>2020-05-14T13:51:22Z</time>
      </trkpt>
      <trkpt lat="43.70178" lon="6.96211">
        <ele>674.64208984375</ele>
        <time>2020-05-14T13:51:23Z</time>
      </trkpt>
      <trkpt lat="43.70181" lon="6.96213">
        <ele>359.11322021484</ele>
        <time>2020-05-14T13:51:24Z</time>
      </trkpt>
      <trkpt lat="43.70186" lon="6.96218">
        <ele>278.99548339844</ele>
        <time>2020-05-14T13:51:26Z</time>
      </trkpt>
      <trkpt lat="43.70199" lon="6.96231">
        <ele>385.18963623047</ele>
        <time>2020-05-14T13:51:31Z</time>
      </trkpt>
      <trkpt lat="43.70204" lon="6.96237">
        <ele>306.53112792969</ele>
        <time>2020-05-14T13:51:33Z</time>
      </trkpt>
      <trkpt lat="43.70206" lon="6.96239">
        <ele>382.00555419922</ele>
        <time>2020-05-14T13:51:34Z</time>
      </trkpt>
      <trkpt lat="43.70208" lon="6.96242">
        <ele>475.99462890625</ele>
        <time>2020-05-14T13:51:35Z</time>
      </trkpt>
      <trkpt lat="43.70211" lon="6.96245">
        <ele>576.13745117188</ele>
        <time>2020-05-14T13:51:36Z</time>
      </trkpt>
      <trkpt lat="43.70213" lon="6.96249">
        <ele>605.57446289062</ele>
        <time>2020-05-14T13:51:37Z</time>
      </trkpt>
      <trkpt lat="43.70215" lon="6.96253">
        <ele>489.02258300781</ele>
        <time>2020-05-14T13:51:38Z</time>
      </trkpt>
      <trkpt lat="43.70217" lon="6.96257">
        <ele>499.44488525391</ele>
        <time>2020-05-14T13:51:39Z</time>
      </trkpt>
      <trkpt lat="43.7022" lon="6.96261">
        <ele>494.23889160156</ele>
        <time>2020-05-14T13:51:40Z</time>
      </trkpt>
      <trkpt lat="43.70222" lon="6.96264">
        <ele>531.62414550781</ele>
        <time>2020-05-14T13:51:41Z</time>
      </trkpt>
      <trkpt lat="43.70224" lon="6.96268">
        <ele>563.05639648438</ele>
        <time>2020-05-14T13:51:42Z</time>
      </trkpt>
      <trkpt lat="43.70225" lon="6.96272">
        <ele>529.21655273438</ele>
        <time>2020-05-14T13:51:43Z</time>
      </trkpt>
      <trkpt lat="43.70227" lon="6.96276">
        <ele>524.84753417969</ele>
        <time>2020-05-14T13:51:44Z</time>
      </trkpt>
      <trkpt lat="43.70228" lon="6.9628">
        <ele>524.77392578125</ele>
        <time>2020-05-14T13:51:45Z</time>
      </trkpt>
      <trkpt lat="43.7023" lon="6.96284">
        <ele>524.67895507812</ele>
        <time>2020-05-14T13:51:46Z</time>
      </trkpt>
      <trkpt lat="43.70231" lon="6.96287">
        <ele>529.17626953125</ele>
        <time>2020-05-14T13:51:47Z</time>
      </trkpt>
      <trkpt lat="43.70233" lon="6.96291">
        <ele>536.6103515625</ele>
        <time>2020-05-14T13:51:48Z</time>
      </trkpt>
      <trkpt lat="43.70234" lon="6.96294">
        <ele>533.2001953125</ele>
        <time>2020-05-14T13:51:49Z</time>
      </trkpt>
      <trkpt lat="43.70236" lon="6.96298">
        <ele>530.18969726562</ele>
        <time>2020-05-14T13:51:50Z</time>
      </trkpt>
      <trkpt lat="43.70238" lon="6.96301">
        <ele>524.85241699219</ele>
        <time>2020-05-14T13:51:51Z</time>
      </trkpt>
      <trkpt lat="43.7024" lon="6.96305">
        <ele>522.17144775391</ele>
        <time>2020-05-14T13:51:52Z</time>
      </trkpt>
      <trkpt lat="43.70241" lon="6.96309">
        <ele>521.85424804688</ele>
        <time>2020-05-14T13:51:53Z</time>
      </trkpt>
      <trkpt lat="43.70243" lon="6.96313">
        <ele>517.51275634766</ele>
        <time>2020-05-14T13:51:54Z</time>
      </trkpt>
      <trkpt lat="43.70244" lon="6.96316">
        <ele>481.9169921875</ele>
        <time>2020-05-14T13:51:55Z</time>
      </trkpt>
      <trkpt lat="43.70246" lon="6.9632">
        <ele>481.79992675781</ele>
        <time>2020-05-14T13:51:56Z</time>
      </trkpt>
      <trkpt lat="43.70248" lon="6.96323">
        <ele>476.734375</ele>
        <time>2020-05-14T13:51:57Z</time>
      </trkpt>
      <trkpt lat="43.70249" lon="6.96327">
        <ele>470.01763916016</ele>
        <time>2020-05-14T13:51:58Z</time>
      </trkpt>
      <trkpt lat="43.70251" lon="6.9633">
        <ele>466.78039550781</ele>
        <time>2020-05-14T13:51:59Z</time>
      </trkpt>
      <trkpt lat="43.70253" lon="6.96334">
        <ele>467.26812744141</ele>
        <time>2020-05-14T13:52:00Z</time>
      </trkpt>
      <trkpt lat="43.70254" lon="6.96338">
        <ele>467.60620117188</ele>
        <time>2020-05-14T13:52:01Z</time>
      </trkpt>
      <trkpt lat="43.70257" lon="6.96343">
        <ele>471.23968505859</ele>
        <time>2020-05-14T13:52:02Z</time>
      </trkpt>
      <trkpt lat="43.70259" lon="6.96347">
        <ele>472.84130859375</ele>
        <time>2020-05-14T13:52:03Z</time>
      </trkpt>
      <trkpt lat="43.70261" lon="6.96351">
        <ele>472.11810302734</ele>
        <time>2020-05-14T13:52:04Z</time>
      </trkpt>
      <trkpt lat="43.70262" lon="6.96355">
        <ele>472.75122070312</ele>
        <time>2020-05-14T13:52:05Z</time>
      </trkpt>
      <trkpt lat="43.70264" lon="6.96358">
        <ele>473.00280761719</ele>
        <time>2020-05-14T13:52:06Z</time>
      </trkpt>
      <trkpt lat="43.70266" lon="6.96362">
        <ele>508.64392089844</ele>
        <time>2020-05-14T13:52:07Z</time>
      </trkpt>
      <trkpt lat="43.70267" lon="6.96365">
        <ele>507.83068847656</ele>
        <time>2020-05-14T13:52:08Z</time>
      </trkpt>
      <trkpt lat="43.70269" lon="6.96369">
        <ele>516.94665527344</ele>
        <time>2020-05-14T13:52:09Z</time>
      </trkpt>
      <trkpt lat="43.70271" lon="6.96372">
        <ele>496.76293945312</ele>
        <time>2020-05-14T13:52:10Z</time>
      </trkpt>
      <trkpt lat="43.70273" lon="6.96377">
        <ele>553.16589355469</ele>
        <time>2020-05-14T13:52:11Z</time>
      </trkpt>
      <trkpt lat="43.70274" lon="6.96382">
        <ele>529.27075195312</ele>
        <time>2020-05-14T13:52:12Z</time>
      </trkpt>
      <trkpt lat="43.70276" lon="6.96386">
        <ele>509.919921875</ele>
        <time>2020-05-14T13:52:13Z</time>
      </trkpt>
      <trkpt lat="43.70278" lon="6.9639">
        <ele>509.56579589844</ele>
        <time>2020-05-14T13:52:14Z</time>
      </trkpt>
      <trkpt lat="43.7028" lon="6.96394">
        <ele>508.61706542969</ele>
        <time>2020-05-14T13:52:15Z</time>
      </trkpt>
      <trkpt lat="43.70282" lon="6.96398">
        <ele>565.67065429688</ele>
        <time>2020-05-14T13:52:16Z</time>
      </trkpt>
      <trkpt lat="43.70283" lon="6.96403">
        <ele>537.46557617188</ele>
        <time>2020-05-14T13:52:17Z</time>
      </trkpt>
      <trkpt lat="43.70284" lon="6.96406">
        <ele>523.91241455078</ele>
        <time>2020-05-14T13:52:18Z</time>
      </trkpt>
      <trkpt lat="43.70285" lon="6.9641">
        <ele>489.1435546875</ele>
        <time>2020-05-14T13:52:19Z</time>
      </trkpt>
      <trkpt lat="43.70286" lon="6.96414">
        <ele>480.00952148438</ele>
        <time>2020-05-14T13:52:20Z</time>
      </trkpt>
      <trkpt lat="43.70286" lon="6.96419">
        <ele>472.82861328125</ele>
        <time>2020-05-14T13:52:21Z</time>
      </trkpt>
      <trkpt lat="43.70286" lon="6.96423">
        <ele>468.01000976562</ele>
        <time>2020-05-14T13:52:22Z</time>
      </trkpt>
      <trkpt lat="43.70287" lon="6.96428">
        <ele>466.03625488281</ele>
        <time>2020-05-14T13:52:23Z</time>
      </trkpt>
      <trkpt lat="43.70287" lon="6.96433">
        <ele>495.22662353516</ele>
        <time>2020-05-14T13:52:24Z</time>
      </trkpt>
      <trkpt lat="43.70288" lon="6.96438">
        <ele>488.35913085938</ele>
        <time>2020-05-14T13:52:25Z</time>
      </trkpt>
      <trkpt lat="43.70289" lon="6.96443">
        <ele>489.34741210938</ele>
        <time>2020-05-14T13:52:26Z</time>
      </trkpt>
      <trkpt lat="43.7029" lon="6.96447">
        <ele>491.32470703125</ele>
        <time>2020-05-14T13:52:27Z</time>
      </trkpt>
      <trkpt lat="43.7029" lon="6.96451">
        <ele>494.08862304688</ele>
        <time>2020-05-14T13:52:28Z</time>
      </trkpt>
      <trkpt lat="43.70291" lon="6.96454">
        <ele>494.76721191406</ele>
        <time>2020-05-14T13:52:29Z</time>
      </trkpt>
      <trkpt lat="43.70291" lon="6.96458">
        <ele>492.03796386719</ele>
        <time>2020-05-14T13:52:30Z</time>
      </trkpt>
      <trkpt lat="43.70291" lon="6.96462">
        <ele>489.98236083984</ele>
        <time>2020-05-14T13:52:31Z</time>
      </trkpt>
      <trkpt lat="43.70291" lon="6.96467">
        <ele>468.89868164062</ele>
        <time>2020-05-14T13:52:32Z</time>
      </trkpt>
      <trkpt lat="43.70292" lon="6.96472">
        <ele>467.03234863281</ele>
        <time>2020-05-14T13:52:33Z</time>
      </trkpt>
      <trkpt lat="43.70293" lon="6.96477">
        <ele>469.74145507812</ele>
        <time>2020-05-14T13:52:34Z</time>
      </trkpt>
      <trkpt lat="43.70293" lon="6.96482">
        <ele>469.77709960938</ele>
        <time>2020-05-14T13:52:35Z</time>
      </trkpt>
      <trkpt lat="43.70294" lon="6.96487">
        <ele>469.27178955078</ele>
        <time>2020-05-14T13:52:36Z</time>
      </trkpt>
      <trkpt lat="43.70294" lon="6.96492">
        <ele>469.05187988281</ele>
        <time>2020-05-14T13:52:37Z</time>
      </trkpt>
      <trkpt lat="43.70295" lon="6.96497">
        <ele>473.44854736328</ele>
        <time>2020-05-14T13:52:38Z</time>
      </trkpt>
      <trkpt lat="43.70296" lon="6.96501">
        <ele>474.63488769531</ele>
        <time>2020-05-14T13:52:39Z</time>
      </trkpt>
      <trkpt lat="43.70297" lon="6.96506">
        <ele>479.22711181641</ele>
        <time>2020-05-14T13:52:40Z</time>
      </trkpt>
      <trkpt lat="43.70298" lon="6.9651">
        <ele>480.44360351562</ele>
        <time>2020-05-14T13:52:41Z</time>
      </trkpt>
      <trkpt lat="43.70299" lon="6.96514">
        <ele>484.31488037109</ele>
        <time>2020-05-14T13:52:42Z</time>
      </trkpt>
      <trkpt lat="43.703" lon="6.96519">
        <ele>481.09094238281</ele>
        <time>2020-05-14T13:52:43Z</time>
      </trkpt>
      <trkpt lat="43.70301" lon="6.96524">
        <ele>475.06311035156</ele>
        <time>2020-05-14T13:52:44Z</time>
      </trkpt>
      <trkpt lat="43.70302" lon="6.96528">
        <ele>477.88488769531</ele>
        <time>2020-05-14T13:52:45Z</time>
      </trkpt>
      <trkpt lat="43.70303" lon="6.96533">
        <ele>474.72003173828</ele>
        <time>2020-05-14T13:52:46Z</time>
      </trkpt>
      <trkpt lat="43.70303" lon="6.96537">
        <ele>515.830078125</ele>
        <time>2020-05-14T13:52:47Z</time>
      </trkpt>
      <trkpt lat="43.70304" lon="6.96542">
        <ele>498.49578857422</ele>
        <time>2020-05-14T13:52:48Z</time>
      </trkpt>
      <trkpt lat="43.70304" lon="6.96546">
        <ele>492.00177001953</ele>
        <time>2020-05-14T13:52:49Z</time>
      </trkpt>
      <trkpt lat="43.70305" lon="6.9655">
        <ele>494.11791992188</ele>
        <time>2020-05-14T13:52:50Z</time>
      </trkpt>
      <trkpt lat="43.70306" lon="6.96554">
        <ele>495.91235351562</ele>
        <time>2020-05-14T13:52:51Z</time>
      </trkpt>
      <trkpt lat="43.70307" lon="6.96558">
        <ele>474.564453125</ele>
        <time>2020-05-14T13:52:52Z</time>
      </trkpt>
      <trkpt lat="43.70307" lon="6.96563">
        <ele>469.36779785156</ele>
        <time>2020-05-14T13:52:53Z</time>
      </trkpt>
      <trkpt lat="43.70308" lon="6.96567">
        <ele>470.5244140625</ele>
        <time>2020-05-14T13:52:54Z</time>
      </trkpt>
      <trkpt lat="43.70309" lon="6.96571">
        <ele>517.67156982422</ele>
        <time>2020-05-14T13:52:55Z</time>
      </trkpt>
      <trkpt lat="43.70309" lon="6.96575">
        <ele>364.57409667969</ele>
        <time>2020-05-14T13:52:56Z</time>
      </trkpt>
      <trkpt lat="43.7031" lon="6.9658">
        <ele>408.05322265625</ele>
        <time>2020-05-14T13:52:57Z</time>
      </trkpt>
      <trkpt lat="43.70311" lon="6.96588">
        <ele>476.40270996094</ele>
        <time>2020-05-14T13:52:59Z</time>
      </trkpt>
      <trkpt lat="43.70311" lon="6.96593">
        <ele>476.24066162109</ele>
        <time>2020-05-14T13:53:00Z</time>
      </trkpt>
      <trkpt lat="43.70311" lon="6.96597">
        <ele>472.93615722656</ele>
        <time>2020-05-14T13:53:01Z</time>
      </trkpt>
      <trkpt lat="43.70312" lon="6.96602">
        <ele>471.60443115234</ele>
        <time>2020-05-14T13:53:02Z</time>
      </trkpt>
      <trkpt lat="43.70312" lon="6.96607">
        <ele>470.06701660156</ele>
        <time>2020-05-14T13:53:03Z</time>
      </trkpt>
      <trkpt lat="43.70313" lon="6.96612">
        <ele>465.61303710938</ele>
        <time>2020-05-14T13:53:04Z</time>
      </trkpt>
      <trkpt lat="43.70314" lon="6.96616">
        <ele>466.09698486328</ele>
        <time>2020-05-14T13:53:05Z</time>
      </trkpt>
      <trkpt lat="43.70314" lon="6.9662">
        <ele>465.84265136719</ele>
        <time>2020-05-14T13:53:06Z</time>
      </trkpt>
      <trkpt lat="43.70315" lon="6.96624">
        <ele>467.05065917969</ele>
        <time>2020-05-14T13:53:07Z</time>
      </trkpt>
      <trkpt lat="43.70316" lon="6.96629">
        <ele>470.84973144531</ele>
        <time>2020-05-14T13:53:08Z</time>
      </trkpt>
      <trkpt lat="43.70317" lon="6.96633">
        <ele>473.96923828125</ele>
        <time>2020-05-14T13:53:09Z</time>
      </trkpt>
      <trkpt lat="43.70318" lon="6.96638">
        <ele>475.77862548828</ele>
        <time>2020-05-14T13:53:10Z</time>
      </trkpt>
      <trkpt lat="43.7032" lon="6.96643">
        <ele>479.880859375</ele>
        <time>2020-05-14T13:53:11Z</time>
      </trkpt>
      <trkpt lat="43.70321" lon="6.96648">
        <ele>520.42401123047</ele>
        <time>2020-05-14T13:53:12Z</time>
      </trkpt>
      <trkpt lat="43.70322" lon="6.96653">
        <ele>515.82336425781</ele>
        <time>2020-05-14T13:53:13Z</time>
      </trkpt>
      <trkpt lat="43.70323" lon="6.96658">
        <ele>523.18475341797</ele>
        <time>2020-05-14T13:53:14Z</time>
      </trkpt>
      <trkpt lat="43.70324" lon="6.96663">
        <ele>524.54223632812</ele>
        <time>2020-05-14T13:53:15Z</time>
      </trkpt>
      <trkpt lat="43.70326" lon="6.96668">
        <ele>492.80444335938</ele>
        <time>2020-05-14T13:53:16Z</time>
      </trkpt>
      <trkpt lat="43.70327" lon="6.96672">
        <ele>495.80200195312</ele>
        <time>2020-05-14T13:53:17Z</time>
      </trkpt>
      <trkpt lat="43.70328" lon="6.96677">
        <ele>492.39343261719</ele>
        <time>2020-05-14T13:53:18Z</time>
      </trkpt>
      <trkpt lat="43.70328" lon="6.96682">
        <ele>494.904296875</ele>
        <time>2020-05-14T13:53:19Z</time>
      </trkpt>
      <trkpt lat="43.70329" lon="6.96686">
        <ele>489.37109375</ele>
        <time>2020-05-14T13:53:20Z</time>
      </trkpt>
      <trkpt lat="43.7033" lon="6.96691">
        <ele>486.46746826172</ele>
        <time>2020-05-14T13:53:21Z</time>
      </trkpt>
      <trkpt lat="43.7033" lon="6.96695">
        <ele>531.06079101562</ele>
        <time>2020-05-14T13:53:22Z</time>
      </trkpt>
      <trkpt lat="43.70331" lon="6.967">
        <ele>521.38470458984</ele>
        <time>2020-05-14T13:53:23Z</time>
      </trkpt>
      <trkpt lat="43.70332" lon="6.96705">
        <ele>520.83660888672</ele>
        <time>2020-05-14T13:53:24Z</time>
      </trkpt>
      <trkpt lat="43.70333" lon="6.96709">
        <ele>485.15252685547</ele>
        <time>2020-05-14T13:53:25Z</time>
      </trkpt>
      <trkpt lat="43.70333" lon="6.96714">
        <ele>482.23907470703</ele>
        <time>2020-05-14T13:53:26Z</time>
      </trkpt>
      <trkpt lat="43.70334" lon="6.96718">
        <ele>482.345703125</ele>
        <time>2020-05-14T13:53:27Z</time>
      </trkpt>
      <trkpt lat="43.70334" lon="6.96722">
        <ele>480.71142578125</ele>
        <time>2020-05-14T13:53:28Z</time>
      </trkpt>
      <trkpt lat="43.70335" lon="6.96726">
        <ele>478.14093017578</ele>
        <time>2020-05-14T13:53:29Z</time>
      </trkpt>
      <trkpt lat="43.70335" lon="6.9673">
        <ele>482.94409179688</ele>
        <time>2020-05-14T13:53:30Z</time>
      </trkpt>
      <trkpt lat="43.70336" lon="6.96734">
        <ele>490.04516601562</ele>
        <time>2020-05-14T13:53:31Z</time>
      </trkpt>
      <trkpt lat="43.70337" lon="6.96738">
        <ele>480.47033691406</ele>
        <time>2020-05-14T13:53:32Z</time>
      </trkpt>
      <trkpt lat="43.70337" lon="6.96743">
        <ele>478.61254882812</ele>
        <time>2020-05-14T13:53:33Z</time>
      </trkpt>
      <trkpt lat="43.70338" lon="6.96748">
        <ele>479.49328613281</ele>
        <time>2020-05-14T13:53:34Z</time>
      </trkpt>
      <trkpt lat="43.70338" lon="6.96752">
        <ele>475.75909423828</ele>
        <time>2020-05-14T13:53:35Z</time>
      </trkpt>
      <trkpt lat="43.70339" lon="6.96757">
        <ele>522.42907714844</ele>
        <time>2020-05-14T13:53:36Z</time>
      </trkpt>
      <trkpt lat="43.70339" lon="6.96761">
        <ele>507.96801757812</ele>
        <time>2020-05-14T13:53:37Z</time>
      </trkpt>
      <trkpt lat="43.7034" lon="6.96766">
        <ele>508.40588378906</ele>
        <time>2020-05-14T13:53:38Z</time>
      </trkpt>
      <trkpt lat="43.70341" lon="6.96771">
        <ele>513.76861572266</ele>
        <time>2020-05-14T13:53:39Z</time>
      </trkpt>
      <trkpt lat="43.70341" lon="6.96775">
        <ele>479.40441894531</ele>
        <time>2020-05-14T13:53:40Z</time>
      </trkpt>
      <trkpt lat="43.70342" lon="6.9678">
        <ele>477.10546875</ele>
        <time>2020-05-14T13:53:41Z</time>
      </trkpt>
      <trkpt lat="43.70342" lon="6.96785">
        <ele>534.6298828125</ele>
        <time>2020-05-14T13:53:42Z</time>
      </trkpt>
      <trkpt lat="43.70342" lon="6.96789">
        <ele>532.21044921875</ele>
        <time>2020-05-14T13:53:43Z</time>
      </trkpt>
      <trkpt lat="43.70342" lon="6.96794">
        <ele>524.77111816406</ele>
        <time>2020-05-14T13:53:44Z</time>
      </trkpt>
      <trkpt lat="43.70342" lon="6.96799">
        <ele>528.19946289062</ele>
        <time>2020-05-14T13:53:45Z</time>
      </trkpt>
      <trkpt lat="43.70342" lon="6.96804">
        <ele>537.91064453125</ele>
        <time>2020-05-14T13:53:46Z</time>
      </trkpt>
      <trkpt lat="43.70342" lon="6.96809">
        <ele>547.01416015625</ele>
        <time>2020-05-14T13:53:47Z</time>
      </trkpt>
      <trkpt lat="43.70343" lon="6.96814">
        <ele>548.17822265625</ele>
        <time>2020-05-14T13:53:48Z</time>
      </trkpt>
      <trkpt lat="43.70343" lon="6.96818">
        <ele>542.8349609375</ele>
        <time>2020-05-14T13:53:49Z</time>
      </trkpt>
      <trkpt lat="43.70344" lon="6.96823">
        <ele>517.39636230469</ele>
        <time>2020-05-14T13:53:50Z</time>
      </trkpt>
      <trkpt lat="43.70345" lon="6.96828">
        <ele>512.39526367188</ele>
        <time>2020-05-14T13:53:51Z</time>
      </trkpt>
      <trkpt lat="43.70346" lon="6.96833">
        <ele>504.56481933594</ele>
        <time>2020-05-14T13:53:52Z</time>
      </trkpt>
      <trkpt lat="43.70347" lon="6.96838">
        <ele>506.48468017578</ele>
        <time>2020-05-14T13:53:53Z</time>
      </trkpt>
      <trkpt lat="43.70348" lon="6.96842">
        <ele>510.09234619141</ele>
        <time>2020-05-14T13:53:54Z</time>
      </trkpt>
      <trkpt lat="43.70349" lon="6.96847">
        <ele>510.28607177734</ele>
        <time>2020-05-14T13:53:55Z</time>
      </trkpt>
      <trkpt lat="43.7035" lon="6.96851">
        <ele>507.40667724609</ele>
        <time>2020-05-14T13:53:56Z</time>
      </trkpt>
      <trkpt lat="43.7035" lon="6.96856">
        <ele>504.31799316406</ele>
        <time>2020-05-14T13:53:57Z</time>
      </trkpt>
      <trkpt lat="43.70351" lon="6.9686">
        <ele>498.49475097656</ele>
        <time>2020-05-14T13:53:58Z</time>
      </trkpt>
      <trkpt lat="43.70351" lon="6.96865">
        <ele>487.75061035156</ele>
        <time>2020-05-14T13:53:59Z</time>
      </trkpt>
      <trkpt lat="43.70352" lon="6.96869">
        <ele>484.96826171875</ele>
        <time>2020-05-14T13:54:00Z</time>
      </trkpt>
      <trkpt lat="43.70353" lon="6.96874">
        <ele>526.49536132812</ele>
        <time>2020-05-14T13:54:01Z</time>
      </trkpt>
      <trkpt lat="43.70354" lon="6.96878">
        <ele>531.31506347656</ele>
        <time>2020-05-14T13:54:02Z</time>
      </trkpt>
      <trkpt lat="43.70355" lon="6.96882">
        <ele>529.47216796875</ele>
        <time>2020-05-14T13:54:03Z</time>
      </trkpt>
      <trkpt lat="43.70356" lon="6.96886">
        <ele>527.09545898438</ele>
        <time>2020-05-14T13:54:04Z</time>
      </trkpt>
      <trkpt lat="43.70357" lon="6.96891">
        <ele>529.40112304688</ele>
        <time>2020-05-14T13:54:05Z</time>
      </trkpt>
      <trkpt lat="43.70358" lon="6.96896">
        <ele>491.57305908203</ele>
        <time>2020-05-14T13:54:06Z</time>
      </trkpt>
      <trkpt lat="43.70358" lon="6.969">
        <ele>482.40045166016</ele>
        <time>2020-05-14T13:54:07Z</time>
      </trkpt>
      <trkpt lat="43.70359" lon="6.96905">
        <ele>482.4365234375</ele>
        <time>2020-05-14T13:54:08Z</time>
      </trkpt>
      <trkpt lat="43.70359" lon="6.9691">
        <ele>485.22497558594</ele>
        <time>2020-05-14T13:54:09Z</time>
      </trkpt>
      <trkpt lat="43.7036" lon="6.96915">
        <ele>485.42358398438</ele>
        <time>2020-05-14T13:54:10Z</time>
      </trkpt>
      <trkpt lat="43.70361" lon="6.96919">
        <ele>528.19799804688</ele>
        <time>2020-05-14T13:54:11Z</time>
      </trkpt>
      <trkpt lat="43.70361" lon="6.96924">
        <ele>514.98455810547</ele>
        <time>2020-05-14T13:54:12Z</time>
      </trkpt>
      <trkpt lat="43.70362" lon="6.96928">
        <ele>370.13421630859</ele>
        <time>2020-05-14T13:54:13Z</time>
      </trkpt>
      <trkpt lat="43.70363" lon="6.96933">
        <ele>372.15618896484</ele>
        <time>2020-05-14T13:54:14Z</time>
      </trkpt>
      <trkpt lat="43.70364" lon="6.96937">
        <ele>373.18859863281</ele>
        <time>2020-05-14T13:54:15Z</time>
      </trkpt>
      <trkpt lat="43.70365" lon="6.96942">
        <ele>484.62548828125</ele>
        <time>2020-05-14T13:54:16Z</time>
      </trkpt>
      <trkpt lat="43.70365" lon="6.96946">
        <ele>493.45886230469</ele>
        <time>2020-05-14T13:54:17Z</time>
      </trkpt>
      <trkpt lat="43.70366" lon="6.96951">
        <ele>487.56677246094</ele>
        <time>2020-05-14T13:54:18Z</time>
      </trkpt>
      <trkpt lat="43.70367" lon="6.96956">
        <ele>484.5322265625</ele>
        <time>2020-05-14T13:54:19Z</time>
      </trkpt>
      <trkpt lat="43.70367" lon="6.9696">
        <ele>496.14147949219</ele>
        <time>2020-05-14T13:54:20Z</time>
      </trkpt>
      <trkpt lat="43.70367" lon="6.96964">
        <ele>506.77062988281</ele>
        <time>2020-05-14T13:54:21Z</time>
      </trkpt>
      <trkpt lat="43.70368" lon="6.96969">
        <ele>513.97143554688</ele>
        <time>2020-05-14T13:54:22Z</time>
      </trkpt>
      <trkpt lat="43.70369" lon="6.96973">
        <ele>516.13531494141</ele>
        <time>2020-05-14T13:54:23Z</time>
      </trkpt>
      <trkpt lat="43.7037" lon="6.96978">
        <ele>570.98046875</ele>
        <time>2020-05-14T13:54:24Z</time>
      </trkpt>
      <trkpt lat="43.70371" lon="6.96982">
        <ele>560.30236816406</ele>
        <time>2020-05-14T13:54:25Z</time>
      </trkpt>
      <trkpt lat="43.70371" lon="6.96987">
        <ele>552.11437988281</ele>
        <time>2020-05-14T13:54:26Z</time>
      </trkpt>
      <trkpt lat="43.70372" lon="6.96992">
        <ele>550.23754882812</ele>
        <time>2020-05-14T13:54:27Z</time>
      </trkpt>
      <trkpt lat="43.70373" lon="6.96996">
        <ele>543.95581054688</ele>
        <time>2020-05-14T13:54:28Z</time>
      </trkpt>
      <trkpt lat="43.70373" lon="6.97">
        <ele>512.26361083984</ele>
        <time>2020-05-14T13:54:29Z</time>
      </trkpt>
      <trkpt lat="43.70374" lon="6.97005">
        <ele>505.08068847656</ele>
        <time>2020-05-14T13:54:30Z</time>
      </trkpt>
      <trkpt lat="43.70374" lon="6.97009">
        <ele>498.33532714844</ele>
        <time>2020-05-14T13:54:31Z</time>
      </trkpt>
      <trkpt lat="43.70375" lon="6.97013">
        <ele>492.52905273438</ele>
        <time>2020-05-14T13:54:32Z</time>
      </trkpt>
      <trkpt lat="43.70376" lon="6.97017">
        <ele>494.55792236328</ele>
        <time>2020-05-14T13:54:33Z</time>
      </trkpt>
      <trkpt lat="43.70377" lon="6.97021">
        <ele>494.380859375</ele>
        <time>2020-05-14T13:54:34Z</time>
      </trkpt>
      <trkpt lat="43.70378" lon="6.97025">
        <ele>488.36700439453</ele>
        <time>2020-05-14T13:54:35Z</time>
      </trkpt>
      <trkpt lat="43.70379" lon="6.97029">
        <ele>492.42150878906</ele>
        <time>2020-05-14T13:54:36Z</time>
      </trkpt>
      <trkpt lat="43.70381" lon="6.97032">
        <ele>485.2470703125</ele>
        <time>2020-05-14T13:54:37Z</time>
      </trkpt>
      <trkpt lat="43.70382" lon="6.97036">
        <ele>489.80102539062</ele>
        <time>2020-05-14T13:54:38Z</time>
      </trkpt>
      <trkpt lat="43.70384" lon="6.9704">
        <ele>495.31884765625</ele>
        <time>2020-05-14T13:54:39Z</time>
      </trkpt>
      <trkpt lat="43.70386" lon="6.97044">
        <ele>498.80847167969</ele>
        <time>2020-05-14T13:54:40Z</time>
      </trkpt>
      <trkpt lat="43.70389" lon="6.97047">
        <ele>546.826171875</ele>
        <time>2020-05-14T13:54:41Z</time>
      </trkpt>
      <trkpt lat="43.70391" lon="6.9705">
        <ele>532.88684082031</ele>
        <time>2020-05-14T13:54:42Z</time>
      </trkpt>
      <trkpt lat="43.70394" lon="6.97053">
        <ele>534.94189453125</ele>
        <time>2020-05-14T13:54:43Z</time>
      </trkpt>
      <trkpt lat="43.70397" lon="6.97056">
        <ele>530.61987304688</ele>
        <time>2020-05-14T13:54:44Z</time>
      </trkpt>
      <trkpt lat="43.70399" lon="6.97059">
        <ele>501.01025390625</ele>
        <time>2020-05-14T13:54:45Z</time>
      </trkpt>
      <trkpt lat="43.70402" lon="6.97062">
        <ele>494.84527587891</ele>
        <time>2020-05-14T13:54:46Z</time>
      </trkpt>
      <trkpt lat="43.70405" lon="6.97065">
        <ele>494.22424316406</ele>
        <time>2020-05-14T13:54:47Z</time>
      </trkpt>
      <trkpt lat="43.70407" lon="6.97068">
        <ele>489.85241699219</ele>
        <time>2020-05-14T13:54:48Z</time>
      </trkpt>
      <trkpt lat="43.7041" lon="6.97071">
        <ele>530.033203125</ele>
        <time>2020-05-14T13:54:49Z</time>
      </trkpt>
      <trkpt lat="43.70413" lon="6.97074">
        <ele>509.94799804688</ele>
        <time>2020-05-14T13:54:50Z</time>
      </trkpt>
      <trkpt lat="43.70416" lon="6.97077">
        <ele>502.22399902344</ele>
        <time>2020-05-14T13:54:51Z</time>
      </trkpt>
      <trkpt lat="43.70419" lon="6.9708">
        <ele>509.30407714844</ele>
        <time>2020-05-14T13:54:52Z</time>
      </trkpt>
      <trkpt lat="43.70421" lon="6.97082">
        <ele>500.23889160156</ele>
        <time>2020-05-14T13:54:53Z</time>
      </trkpt>
      <trkpt lat="43.70424" lon="6.97084">
        <ele>479.57061767578</ele>
        <time>2020-05-14T13:54:54Z</time>
      </trkpt>
      <trkpt lat="43.70426" lon="6.97087">
        <ele>476.15063476562</ele>
        <time>2020-05-14T13:54:55Z</time>
      </trkpt>
      <trkpt lat="43.70429" lon="6.97089">
        <ele>478.57794189453</ele>
        <time>2020-05-14T13:54:56Z</time>
      </trkpt>
      <trkpt lat="43.70431" lon="6.97092">
        <ele>475.68676757812</ele>
        <time>2020-05-14T13:54:57Z</time>
      </trkpt>
      <trkpt lat="43.70434" lon="6.97095">
        <ele>473.34295654297</ele>
        <time>2020-05-14T13:54:58Z</time>
      </trkpt>
      <trkpt lat="43.70437" lon="6.97098">
        <ele>511.74554443359</ele>
        <time>2020-05-14T13:54:59Z</time>
      </trkpt>
      <trkpt lat="43.7044" lon="6.97102">
        <ele>515.74560546875</ele>
        <time>2020-05-14T13:55:00Z</time>
      </trkpt>
      <trkpt lat="43.70442" lon="6.97105">
        <ele>515.63427734375</ele>
        <time>2020-05-14T13:55:01Z</time>
      </trkpt>
      <trkpt lat="43.70445" lon="6.97108">
        <ele>505.80603027344</ele>
        <time>2020-05-14T13:55:02Z</time>
      </trkpt>
      <trkpt lat="43.70448" lon="6.97111">
        <ele>500.30224609375</ele>
        <time>2020-05-14T13:55:03Z</time>
      </trkpt>
      <trkpt lat="43.7045" lon="6.97114">
        <ele>495.76318359375</ele>
        <time>2020-05-14T13:55:04Z</time>
      </trkpt>
      <trkpt lat="43.70453" lon="6.97117">
        <ele>546.55102539062</ele>
        <time>2020-05-14T13:55:05Z</time>
      </trkpt>
      <trkpt lat="43.70456" lon="6.9712">
        <ele>529.13720703125</ele>
        <time>2020-05-14T13:55:06Z</time>
      </trkpt>
      <trkpt lat="43.70458" lon="6.97122">
        <ele>532.29162597656</ele>
        <time>2020-05-14T13:55:07Z</time>
      </trkpt>
      <trkpt lat="43.7046" lon="6.97124">
        <ele>532.16674804688</ele>
        <time>2020-05-14T13:55:08Z</time>
      </trkpt>
      <trkpt lat="43.70463" lon="6.97127">
        <ele>540.50463867188</ele>
        <time>2020-05-14T13:55:09Z</time>
      </trkpt>
      <trkpt lat="43.70465" lon="6.9713">
        <ele>517.75823974609</ele>
        <time>2020-05-14T13:55:10Z</time>
      </trkpt>
      <trkpt lat="43.70468" lon="6.97132">
        <ele>514.32537841797</ele>
        <time>2020-05-14T13:55:11Z</time>
      </trkpt>
      <trkpt lat="43.70471" lon="6.97134">
        <ele>504.30908203125</ele>
        <time>2020-05-14T13:55:12Z</time>
      </trkpt>
      <trkpt lat="43.70474" lon="6.97137">
        <ele>506.55114746094</ele>
        <time>2020-05-14T13:55:13Z</time>
      </trkpt>
      <trkpt lat="43.70476" lon="6.9714">
        <ele>504.01489257812</ele>
        <time>2020-05-14T13:55:14Z</time>
      </trkpt>
      <trkpt lat="43.70479" lon="6.97142">
        <ele>509.92626953125</ele>
        <time>2020-05-14T13:55:15Z</time>
      </trkpt>
      <trkpt lat="43.70482" lon="6.97145">
        <ele>550.48803710938</ele>
        <time>2020-05-14T13:55:16Z</time>
      </trkpt>
      <trkpt lat="43.70484" lon="6.97147">
        <ele>541.37036132812</ele>
        <time>2020-05-14T13:55:17Z</time>
      </trkpt>
      <trkpt lat="43.70487" lon="6.97149">
        <ele>543.75122070312</ele>
        <time>2020-05-14T13:55:18Z</time>
      </trkpt>
      <trkpt lat="43.70491" lon="6.97151">
        <ele>547.57080078125</ele>
        <time>2020-05-14T13:55:19Z</time>
      </trkpt>
      <trkpt lat="43.70494" lon="6.97153">
        <ele>542.99096679688</ele>
        <time>2020-05-14T13:55:20Z</time>
      </trkpt>
      <trkpt lat="43.70497" lon="6.97155">
        <ele>541.09362792969</ele>
        <time>2020-05-14T13:55:21Z</time>
      </trkpt>
      <trkpt lat="43.70501" lon="6.97157">
        <ele>533.37365722656</ele>
        <time>2020-05-14T13:55:22Z</time>
      </trkpt>
      <trkpt lat="43.70504" lon="6.97159">
        <ele>530.54809570312</ele>
        <time>2020-05-14T13:55:23Z</time>
      </trkpt>
      <trkpt lat="43.70508" lon="6.9716">
        <ele>507.52795410156</ele>
        <time>2020-05-14T13:55:24Z</time>
      </trkpt>
      <trkpt lat="43.70511" lon="6.97161">
        <ele>515.55340576172</ele>
        <time>2020-05-14T13:55:25Z</time>
      </trkpt>
      <trkpt lat="43.70514" lon="6.97163">
        <ele>519.35546875</ele>
        <time>2020-05-14T13:55:26Z</time>
      </trkpt>
      <trkpt lat="43.70517" lon="6.97163">
        <ele>511.30541992188</ele>
        <time>2020-05-14T13:55:27Z</time>
      </trkpt>
      <trkpt lat="43.7052" lon="6.97163">
        <ele>505.90930175781</ele>
        <time>2020-05-14T13:55:28Z</time>
      </trkpt>
      <trkpt lat="43.70524" lon="6.97163">
        <ele>496.84558105469</ele>
        <time>2020-05-14T13:55:29Z</time>
      </trkpt>
      <trkpt lat="43.70527" lon="6.97164">
        <ele>540.95642089844</ele>
        <time>2020-05-14T13:55:30Z</time>
      </trkpt>
      <trkpt lat="43.7053" lon="6.97164">
        <ele>527.84033203125</ele>
        <time>2020-05-14T13:55:31Z</time>
      </trkpt>
      <trkpt lat="43.70533" lon="6.97165">
        <ele>538.86279296875</ele>
        <time>2020-05-14T13:55:32Z</time>
      </trkpt>
      <trkpt lat="43.70536" lon="6.97165">
        <ele>538.791015625</ele>
        <time>2020-05-14T13:55:33Z</time>
      </trkpt>
      <trkpt lat="43.70539" lon="6.97166">
        <ele>570.31884765625</ele>
        <time>2020-05-14T13:55:34Z</time>
      </trkpt>
      <trkpt lat="43.70543" lon="6.97167">
        <ele>562.97924804688</ele>
        <time>2020-05-14T13:55:35Z</time>
      </trkpt>
      <trkpt lat="43.70547" lon="6.97168">
        <ele>530.71923828125</ele>
        <time>2020-05-14T13:55:36Z</time>
      </trkpt>
      <trkpt lat="43.7055" lon="6.97169">
        <ele>532.78259277344</ele>
        <time>2020-05-14T13:55:37Z</time>
      </trkpt>
      <trkpt lat="43.70553" lon="6.9717">
        <ele>478.35760498047</ele>
        <time>2020-05-14T13:55:38Z</time>
      </trkpt>
      <trkpt lat="43.70555" lon="6.9717">
        <ele>487.49133300781</ele>
        <time>2020-05-14T13:55:39Z</time>
      </trkpt>
      <trkpt lat="43.70559" lon="6.97171">
        <ele>531.45947265625</ele>
        <time>2020-05-14T13:55:40Z</time>
      </trkpt>
      <trkpt lat="43.70563" lon="6.9717">
        <ele>518.87274169922</ele>
        <time>2020-05-14T13:55:41Z</time>
      </trkpt>
      <trkpt lat="43.70567" lon="6.97169">
        <ele>486.48901367188</ele>
        <time>2020-05-14T13:55:42Z</time>
      </trkpt>
      <trkpt lat="43.7057" lon="6.97169">
        <ele>484.17590332031</ele>
        <time>2020-05-14T13:55:43Z</time>
      </trkpt>
      <trkpt lat="43.70574" lon="6.97169">
        <ele>482.63134765625</ele>
        <time>2020-05-14T13:55:44Z</time>
      </trkpt>
      <trkpt lat="43.70578" lon="6.97169">
        <ele>477.1494140625</ele>
        <time>2020-05-14T13:55:45Z</time>
      </trkpt>
      <trkpt lat="43.70581" lon="6.97169">
        <ele>480.20758056641</ele>
        <time>2020-05-14T13:55:46Z</time>
      </trkpt>
      <trkpt lat="43.70585" lon="6.97169">
        <ele>529.09887695312</ele>
        <time>2020-05-14T13:55:47Z</time>
      </trkpt>
      <trkpt lat="43.70588" lon="6.97169">
        <ele>535.46350097656</ele>
        <time>2020-05-14T13:55:48Z</time>
      </trkpt>
      <trkpt lat="43.70592" lon="6.97169">
        <ele>514.05450439453</ele>
        <time>2020-05-14T13:55:49Z</time>
      </trkpt>
      <trkpt lat="43.70596" lon="6.97169">
        <ele>513.13354492188</ele>
        <time>2020-05-14T13:55:50Z</time>
      </trkpt>
      <trkpt lat="43.706" lon="6.97169">
        <ele>521.29443359375</ele>
        <time>2020-05-14T13:55:51Z</time>
      </trkpt>
      <trkpt lat="43.70604" lon="6.97169">
        <ele>515.03741455078</ele>
        <time>2020-05-14T13:55:52Z</time>
      </trkpt>
      <trkpt lat="43.70607" lon="6.9717">
        <ele>516.10559082031</ele>
        <time>2020-05-14T13:55:53Z</time>
      </trkpt>
      <trkpt lat="43.7061" lon="6.9717">
        <ele>508.26745605469</ele>
        <time>2020-05-14T13:55:54Z</time>
      </trkpt>
      <trkpt lat="43.70614" lon="6.9717">
        <ele>507.44396972656</ele>
        <time>2020-05-14T13:55:55Z</time>
      </trkpt>
      <trkpt lat="43.70618" lon="6.97171">
        <ele>552.55200195312</ele>
        <time>2020-05-14T13:55:56Z</time>
      </trkpt>
      <trkpt lat="43.70621" lon="6.97172">
        <ele>526.90539550781</ele>
        <time>2020-05-14T13:55:57Z</time>
      </trkpt>
      <trkpt lat="43.70625" lon="6.97173">
        <ele>521.60949707031</ele>
        <time>2020-05-14T13:55:58Z</time>
      </trkpt>
      <trkpt lat="43.70628" lon="6.97174">
        <ele>514.33917236328</ele>
        <time>2020-05-14T13:55:59Z</time>
      </trkpt>
      <trkpt lat="43.70631" lon="6.97174">
        <ele>519.98638916016</ele>
        <time>2020-05-14T13:56:00Z</time>
      </trkpt>
      <trkpt lat="43.70635" lon="6.97174">
        <ele>528.47338867188</ele>
        <time>2020-05-14T13:56:01Z</time>
      </trkpt>
      <trkpt lat="43.70638" lon="6.97175">
        <ele>501.13903808594</ele>
        <time>2020-05-14T13:56:02Z</time>
      </trkpt>
      <trkpt lat="43.70641" lon="6.97175">
        <ele>502.8671875</ele>
        <time>2020-05-14T13:56:03Z</time>
      </trkpt>
      <trkpt lat="43.70644" lon="6.97176">
        <ele>504.94641113281</ele>
        <time>2020-05-14T13:56:04Z</time>
      </trkpt>
      <trkpt lat="43.70646" lon="6.97177">
        <ele>510.51275634766</ele>
        <time>2020-05-14T13:56:05Z</time>
      </trkpt>
      <trkpt lat="43.70649" lon="6.97179">
        <ele>501.72998046875</ele>
        <time>2020-05-14T13:56:06Z</time>
      </trkpt>
      <trkpt lat="43.70652" lon="6.9718">
        <ele>504.1552734375</ele>
        <time>2020-05-14T13:56:07Z</time>
      </trkpt>
      <trkpt lat="43.70655" lon="6.97181">
        <ele>502.13061523438</ele>
        <time>2020-05-14T13:56:08Z</time>
      </trkpt>
      <trkpt lat="43.70659" lon="6.97182">
        <ele>510.11291503906</ele>
        <time>2020-05-14T13:56:09Z</time>
      </trkpt>
      <trkpt lat="43.70662" lon="6.97184">
        <ele>500.20153808594</ele>
        <time>2020-05-14T13:56:10Z</time>
      </trkpt>
      <trkpt lat="43.70666" lon="6.97184">
        <ele>502.15112304688</ele>
        <time>2020-05-14T13:56:11Z</time>
      </trkpt>
      <trkpt lat="43.70669" lon="6.97185">
        <ele>505.91638183594</ele>
        <time>2020-05-14T13:56:12Z</time>
      </trkpt>
      <trkpt lat="43.70673" lon="6.97186">
        <ele>551.52172851562</ele>
        <time>2020-05-14T13:56:13Z</time>
      </trkpt>
      <trkpt lat="43.70676" lon="6.97187">
        <ele>535.81750488281</ele>
        <time>2020-05-14T13:56:14Z</time>
      </trkpt>
      <trkpt lat="43.70679" lon="6.97189">
        <ele>542.603515625</ele>
        <time>2020-05-14T13:56:15Z</time>
      </trkpt>
      <trkpt lat="43.70682" lon="6.97191">
        <ele>546.41796875</ele>
        <time>2020-05-14T13:56:16Z</time>
      </trkpt>
      <trkpt lat="43.70686" lon="6.97193">
        <ele>558.8388671875</ele>
        <time>2020-05-14T13:56:17Z</time>
      </trkpt>
      <trkpt lat="43.70689" lon="6.97194">
        <ele>563.2666015625</ele>
        <time>2020-05-14T13:56:18Z</time>
      </trkpt>
      <trkpt lat="43.70692" lon="6.97196">
        <ele>560.12731933594</ele>
        <time>2020-05-14T13:56:19Z</time>
      </trkpt>
      <trkpt lat="43.70695" lon="6.97198">
        <ele>559.95556640625</ele>
        <time>2020-05-14T13:56:20Z</time>
      </trkpt>
      <trkpt lat="43.70698" lon="6.972">
        <ele>519.56372070312</ele>
        <time>2020-05-14T13:56:21Z</time>
      </trkpt>
      <trkpt lat="43.70701" lon="6.97202">
        <ele>517.66424560547</ele>
        <time>2020-05-14T13:56:22Z</time>
      </trkpt>
      <trkpt lat="43.70704" lon="6.97204">
        <ele>506.69207763672</ele>
        <time>2020-05-14T13:56:23Z</time>
      </trkpt>
      <trkpt lat="43.70707" lon="6.97207">
        <ele>568.10827636719</ele>
        <time>2020-05-14T13:56:24Z</time>
      </trkpt>
      <trkpt lat="43.7071" lon="6.97209">
        <ele>560.57983398438</ele>
        <time>2020-05-14T13:56:25Z</time>
      </trkpt>
      <trkpt lat="43.70713" lon="6.97212">
        <ele>552.63842773438</ele>
        <time>2020-05-14T13:56:26Z</time>
      </trkpt>
      <trkpt lat="43.70715" lon="6.97215">
        <ele>549.06640625</ele>
        <time>2020-05-14T13:56:27Z</time>
      </trkpt>
      <trkpt lat="43.70718" lon="6.97218">
        <ele>554.68383789062</ele>
        <time>2020-05-14T13:56:28Z</time>
      </trkpt>
      <trkpt lat="43.7072" lon="6.97222">
        <ele>552.18041992188</ele>
        <time>2020-05-14T13:56:29Z</time>
      </trkpt>
      <trkpt lat="43.70723" lon="6.97224">
        <ele>516.18902587891</ele>
        <time>2020-05-14T13:56:30Z</time>
      </trkpt>
      <trkpt lat="43.70726" lon="6.97227">
        <ele>516.10412597656</ele>
        <time>2020-05-14T13:56:31Z</time>
      </trkpt>
      <trkpt lat="43.70729" lon="6.9723">
        <ele>576.61669921875</ele>
        <time>2020-05-14T13:56:32Z</time>
      </trkpt>
      <trkpt lat="43.70731" lon="6.97232">
        <ele>616.0302734375</ele>
        <time>2020-05-14T13:56:33Z</time>
      </trkpt>
      <trkpt lat="43.70734" lon="6.97236">
        <ele>612.84130859375</ele>
        <time>2020-05-14T13:56:34Z</time>
      </trkpt>
      <trkpt lat="43.70736" lon="6.97239">
        <ele>614.3427734375</ele>
        <time>2020-05-14T13:56:35Z</time>
      </trkpt>
      <trkpt lat="43.70738" lon="6.97243">
        <ele>663.14306640625</ele>
        <time>2020-05-14T13:56:36Z</time>
      </trkpt>
      <trkpt lat="43.70741" lon="6.97247">
        <ele>675.37451171875</ele>
        <time>2020-05-14T13:56:37Z</time>
      </trkpt>
      <trkpt lat="43.70743" lon="6.97251">
        <ele>672.25854492188</ele>
        <time>2020-05-14T13:56:38Z</time>
      </trkpt>
      <trkpt lat="43.70745" lon="6.97255">
        <ele>671.46142578125</ele>
        <time>2020-05-14T13:56:39Z</time>
      </trkpt>
      <trkpt lat="43.70747" lon="6.97258">
        <ele>669.8671875</ele>
        <time>2020-05-14T13:56:40Z</time>
      </trkpt>
      <trkpt lat="43.70749" lon="6.97262">
        <ele>681.927734375</ele>
        <time>2020-05-14T13:56:41Z</time>
      </trkpt>
      <trkpt lat="43.70751" lon="6.97266">
        <ele>694.84765625</ele>
        <time>2020-05-14T13:56:42Z</time>
      </trkpt>
      <trkpt lat="43.70752" lon="6.9727">
        <ele>702.7041015625</ele>
        <time>2020-05-14T13:56:43Z</time>
      </trkpt>
      <trkpt lat="43.70754" lon="6.97274">
        <ele>703.75915527344</ele>
        <time>2020-05-14T13:56:44Z</time>
      </trkpt>
      <trkpt lat="43.70756" lon="6.97279">
        <ele>703.9248046875</ele>
        <time>2020-05-14T13:56:45Z</time>
      </trkpt>
      <trkpt lat="43.70757" lon="6.97283">
        <ele>704.126953125</ele>
        <time>2020-05-14T13:56:46Z</time>
      </trkpt>
      <trkpt lat="43.70759" lon="6.97288">
        <ele>703.732421875</ele>
        <time>2020-05-14T13:56:47Z</time>
      </trkpt>
      <trkpt lat="43.7076" lon="6.97292">
        <ele>703.17431640625</ele>
        <time>2020-05-14T13:56:48Z</time>
      </trkpt>
      <trkpt lat="43.70761" lon="6.97297">
        <ele>702.31994628906</ele>
        <time>2020-05-14T13:56:49Z</time>
      </trkpt>
      <trkpt lat="43.70761" lon="6.97301">
        <ele>702.55346679688</ele>
        <time>2020-05-14T13:56:50Z</time>
      </trkpt>
      <trkpt lat="43.70762" lon="6.97306">
        <ele>702.29907226562</ele>
        <time>2020-05-14T13:56:51Z</time>
      </trkpt>
      <trkpt lat="43.70763" lon="6.97311">
        <ele>702.43994140625</ele>
        <time>2020-05-14T13:56:52Z</time>
      </trkpt>
      <trkpt lat="43.70763" lon="6.97316">
        <ele>702.52087402344</ele>
        <time>2020-05-14T13:56:53Z</time>
      </trkpt>
      <trkpt lat="43.70763" lon="6.97321">
        <ele>702.41027832031</ele>
        <time>2020-05-14T13:56:54Z</time>
      </trkpt>
      <trkpt lat="43.70764" lon="6.97325">
        <ele>702.32104492188</ele>
        <time>2020-05-14T13:56:55Z</time>
      </trkpt>
      <trkpt lat="43.70765" lon="6.9733">
        <ele>702.2578125</ele>
        <time>2020-05-14T13:56:56Z</time>
      </trkpt>
      <trkpt lat="43.70765" lon="6.97334">
        <ele>702.50512695312</ele>
        <time>2020-05-14T13:56:57Z</time>
      </trkpt>
      <trkpt lat="43.70766" lon="6.97338">
        <ele>702.93334960938</ele>
        <time>2020-05-14T13:56:58Z</time>
      </trkpt>
      <trkpt lat="43.70766" lon="6.97343">
        <ele>702.29418945312</ele>
        <time>2020-05-14T13:56:59Z</time>
      </trkpt>
      <trkpt lat="43.70766" lon="6.97348">
        <ele>702.00805664062</ele>
        <time>2020-05-14T13:57:00Z</time>
      </trkpt>
      <trkpt lat="43.70766" lon="6.97352">
        <ele>702.38500976562</ele>
        <time>2020-05-14T13:57:01Z</time>
      </trkpt>
      <trkpt lat="43.70766" lon="6.97357">
        <ele>701.94604492188</ele>
        <time>2020-05-14T13:57:02Z</time>
      </trkpt>
      <trkpt lat="43.70767" lon="6.97362">
        <ele>701.88427734375</ele>
        <time>2020-05-14T13:57:03Z</time>
      </trkpt>
      <trkpt lat="43.70767" lon="6.97367">
        <ele>702.5634765625</ele>
        <time>2020-05-14T13:57:04Z</time>
      </trkpt>
      <trkpt lat="43.70767" lon="6.97371">
        <ele>701.96862792969</ele>
        <time>2020-05-14T13:57:05Z</time>
      </trkpt>
      <trkpt lat="43.70767" lon="6.97375">
        <ele>702.37060546875</ele>
        <time>2020-05-14T13:57:06Z</time>
      </trkpt>
      <trkpt lat="43.70767" lon="6.9738">
        <ele>703.00366210938</ele>
        <time>2020-05-14T13:57:07Z</time>
      </trkpt>
      <trkpt lat="43.70767" lon="6.97385">
        <ele>706.5302734375</ele>
        <time>2020-05-14T13:57:08Z</time>
      </trkpt>
      <trkpt lat="43.70767" lon="6.97389">
        <ele>707.11608886719</ele>
        <time>2020-05-14T13:57:09Z</time>
      </trkpt>
      <trkpt lat="43.70768" lon="6.97394">
        <ele>706.99487304688</ele>
        <time>2020-05-14T13:57:10Z</time>
      </trkpt>
      <trkpt lat="43.70768" lon="6.97399">
        <ele>707.12719726562</ele>
        <time>2020-05-14T13:57:11Z</time>
      </trkpt>
      <trkpt lat="43.70768" lon="6.97403">
        <ele>707.32739257812</ele>
        <time>2020-05-14T13:57:12Z</time>
      </trkpt>
      <trkpt lat="43.70768" lon="6.97408">
        <ele>708.30932617188</ele>
        <time>2020-05-14T13:57:13Z</time>
      </trkpt>
      <trkpt lat="43.70769" lon="6.97412">
        <ele>708.70385742188</ele>
        <time>2020-05-14T13:57:14Z</time>
      </trkpt>
      <trkpt lat="43.70769" lon="6.97416">
        <ele>708.63391113281</ele>
        <time>2020-05-14T13:57:15Z</time>
      </trkpt>
      <trkpt lat="43.70769" lon="6.97421">
        <ele>707.46301269531</ele>
        <time>2020-05-14T13:57:16Z</time>
      </trkpt>
      <trkpt lat="43.70769" lon="6.97425">
        <ele>706.62744140625</ele>
        <time>2020-05-14T13:57:17Z</time>
      </trkpt>
      <trkpt lat="43.70769" lon="6.9743">
        <ele>706.90942382812</ele>
        <time>2020-05-14T13:57:18Z</time>
      </trkpt>
      <trkpt lat="43.70769" lon="6.97435">
        <ele>706.05041503906</ele>
        <time>2020-05-14T13:57:19Z</time>
      </trkpt>
      <trkpt lat="43.7077" lon="6.97439">
        <ele>706.42895507812</ele>
        <time>2020-05-14T13:57:20Z</time>
      </trkpt>
      <trkpt lat="43.7077" lon="6.97444">
        <ele>706.6552734375</ele>
        <time>2020-05-14T13:57:21Z</time>
      </trkpt>
      <trkpt lat="43.70771" lon="6.97448">
        <ele>706.41613769531</ele>
        <time>2020-05-14T13:57:22Z</time>
      </trkpt>
      <trkpt lat="43.70772" lon="6.97452">
        <ele>706.42529296875</ele>
        <time>2020-05-14T13:57:23Z</time>
      </trkpt>
      <trkpt lat="43.70772" lon="6.97457">
        <ele>706.40258789062</ele>
        <time>2020-05-14T13:57:24Z</time>
      </trkpt>
      <trkpt lat="43.70773" lon="6.97461">
        <ele>706.54223632812</ele>
        <time>2020-05-14T13:57:25Z</time>
      </trkpt>
      <trkpt lat="43.70775" lon="6.97466">
        <ele>706.55029296875</ele>
        <time>2020-05-14T13:57:26Z</time>
      </trkpt>
      <trkpt lat="43.70776" lon="6.9747">
        <ele>707.62609863281</ele>
        <time>2020-05-14T13:57:27Z</time>
      </trkpt>
      <trkpt lat="43.70778" lon="6.97474">
        <ele>707.59143066406</ele>
        <time>2020-05-14T13:57:28Z</time>
      </trkpt>
      <trkpt lat="43.7078" lon="6.97478">
        <ele>707.22790527344</ele>
        <time>2020-05-14T13:57:29Z</time>
      </trkpt>
      <trkpt lat="43.70782" lon="6.97483">
        <ele>707.55432128906</ele>
        <time>2020-05-14T13:57:30Z</time>
      </trkpt>
      <trkpt lat="43.70785" lon="6.97487">
        <ele>707.23657226562</ele>
        <time>2020-05-14T13:57:31Z</time>
      </trkpt>
      <trkpt lat="43.70787" lon="6.97491">
        <ele>707.38623046875</ele>
        <time>2020-05-14T13:57:32Z</time>
      </trkpt>
      <trkpt lat="43.70789" lon="6.97494">
        <ele>707.96936035156</ele>
        <time>2020-05-14T13:57:33Z</time>
      </trkpt>
      <trkpt lat="43.70792" lon="6.97497">
        <ele>707.91625976562</ele>
        <time>2020-05-14T13:57:34Z</time>
      </trkpt>
      <trkpt lat="43.70794" lon="6.975">
        <ele>708.63549804688</ele>
        <time>2020-05-14T13:57:35Z</time>
      </trkpt>
      <trkpt lat="43.70797" lon="6.97502">
        <ele>709.0419921875</ele>
        <time>2020-05-14T13:57:36Z</time>
      </trkpt>
      <trkpt lat="43.708" lon="6.97504">
        <ele>708.38452148438</ele>
        <time>2020-05-14T13:57:37Z</time>
      </trkpt>
      <trkpt lat="43.70803" lon="6.97507">
        <ele>708.1572265625</ele>
        <time>2020-05-14T13:57:38Z</time>
      </trkpt>
      <trkpt lat="43.70806" lon="6.97509">
        <ele>707.57885742188</ele>
        <time>2020-05-14T13:57:39Z</time>
      </trkpt>
      <trkpt lat="43.70809" lon="6.97511">
        <ele>707.21850585938</ele>
        <time>2020-05-14T13:57:40Z</time>
      </trkpt>
      <trkpt lat="43.70812" lon="6.97512">
        <ele>707.50537109375</ele>
        <time>2020-05-14T13:57:41Z</time>
      </trkpt>
      <trkpt lat="43.70815" lon="6.97514">
        <ele>707.27099609375</ele>
        <time>2020-05-14T13:57:42Z</time>
      </trkpt>
      <trkpt lat="43.70819" lon="6.97515">
        <ele>707.7685546875</ele>
        <time>2020-05-14T13:57:43Z</time>
      </trkpt>
      <trkpt lat="43.70822" lon="6.97516">
        <ele>707.62390136719</ele>
        <time>2020-05-14T13:57:44Z</time>
      </trkpt>
      <trkpt lat="43.70825" lon="6.97516">
        <ele>707.908203125</ele>
        <time>2020-05-14T13:57:45Z</time>
      </trkpt>
      <trkpt lat="43.70828" lon="6.97517">
        <ele>710.30041503906</ele>
        <time>2020-05-14T13:57:46Z</time>
      </trkpt>
      <trkpt lat="43.70832" lon="6.97517">
        <ele>711.06103515625</ele>
        <time>2020-05-14T13:57:47Z</time>
      </trkpt>
      <trkpt lat="43.70835" lon="6.97518">
        <ele>711.01220703125</ele>
        <time>2020-05-14T13:57:48Z</time>
      </trkpt>
      <trkpt lat="43.70839" lon="6.97518">
        <ele>710.99230957031</ele>
        <time>2020-05-14T13:57:49Z</time>
      </trkpt>
      <trkpt lat="43.70842" lon="6.97518">
        <ele>711.69653320312</ele>
        <time>2020-05-14T13:57:50Z</time>
      </trkpt>
      <trkpt lat="43.70845" lon="6.97519">
        <ele>712.56896972656</ele>
        <time>2020-05-14T13:57:51Z</time>
      </trkpt>
      <trkpt lat="43.70849" lon="6.97519">
        <ele>712.58459472656</ele>
        <time>2020-05-14T13:57:52Z</time>
      </trkpt>
      <trkpt lat="43.70852" lon="6.9752">
        <ele>712.30407714844</ele>
        <time>2020-05-14T13:57:53Z</time>
      </trkpt>
      <trkpt lat="43.70856" lon="6.9752">
        <ele>711.96606445312</ele>
        <time>2020-05-14T13:57:54Z</time>
      </trkpt>
      <trkpt lat="43.70859" lon="6.9752">
        <ele>711.40893554688</ele>
        <time>2020-05-14T13:57:55Z</time>
      </trkpt>
      <trkpt lat="43.70863" lon="6.9752">
        <ele>711.73352050781</ele>
        <time>2020-05-14T13:57:56Z</time>
      </trkpt>
      <trkpt lat="43.70867" lon="6.9752">
        <ele>712.21337890625</ele>
        <time>2020-05-14T13:57:57Z</time>
      </trkpt>
      <trkpt lat="43.7087" lon="6.9752">
        <ele>712.53247070312</ele>
        <time>2020-05-14T13:57:58Z</time>
      </trkpt>
      <trkpt lat="43.70873" lon="6.9752">
        <ele>712.71337890625</ele>
        <time>2020-05-14T13:57:59Z</time>
      </trkpt>
      <trkpt lat="43.70877" lon="6.97519">
        <ele>713.01000976562</ele>
        <time>2020-05-14T13:58:00Z</time>
      </trkpt>
      <trkpt lat="43.7088" lon="6.97518">
        <ele>713.271484375</ele>
        <time>2020-05-14T13:58:01Z</time>
      </trkpt>
      <trkpt lat="43.70884" lon="6.97518">
        <ele>714.10461425781</ele>
        <time>2020-05-14T13:58:02Z</time>
      </trkpt>
      <trkpt lat="43.70887" lon="6.97517">
        <ele>714.60766601562</ele>
        <time>2020-05-14T13:58:03Z</time>
      </trkpt>
      <trkpt lat="43.7089" lon="6.97516">
        <ele>714.82080078125</ele>
        <time>2020-05-14T13:58:04Z</time>
      </trkpt>
      <trkpt lat="43.70894" lon="6.97515">
        <ele>714.34350585938</ele>
        <time>2020-05-14T13:58:05Z</time>
      </trkpt>
      <trkpt lat="43.70897" lon="6.97513">
        <ele>713.42578125</ele>
        <time>2020-05-14T13:58:06Z</time>
      </trkpt>
      <trkpt lat="43.70901" lon="6.97512">
        <ele>713.83459472656</ele>
        <time>2020-05-14T13:58:07Z</time>
      </trkpt>
      <trkpt lat="43.70904" lon="6.9751">
        <ele>713.8291015625</ele>
        <time>2020-05-14T13:58:08Z</time>
      </trkpt>
      <trkpt lat="43.70907" lon="6.97508">
        <ele>714.03881835938</ele>
        <time>2020-05-14T13:58:09Z</time>
      </trkpt>
      <trkpt lat="43.7091" lon="6.97507">
        <ele>714.00170898438</ele>
        <time>2020-05-14T13:58:10Z</time>
      </trkpt>
      <trkpt lat="43.70913" lon="6.97505">
        <ele>713.96484375</ele>
        <time>2020-05-14T13:58:11Z</time>
      </trkpt>
      <trkpt lat="43.70916" lon="6.97504">
        <ele>713.69384765625</ele>
        <time>2020-05-14T13:58:12Z</time>
      </trkpt>
      <trkpt lat="43.70919" lon="6.97502">
        <ele>713.49462890625</ele>
        <time>2020-05-14T13:58:13Z</time>
      </trkpt>
      <trkpt lat="43.70922" lon="6.97501">
        <ele>713.29565429688</ele>
        <time>2020-05-14T13:58:14Z</time>
      </trkpt>
      <trkpt lat="43.70926" lon="6.975">
        <ele>713.32958984375</ele>
        <time>2020-05-14T13:58:15Z</time>
      </trkpt>
      <trkpt lat="43.70928" lon="6.97499">
        <ele>713.73217773438</ele>
        <time>2020-05-14T13:58:16Z</time>
      </trkpt>
      <trkpt lat="43.70932" lon="6.97497">
        <ele>714.8564453125</ele>
        <time>2020-05-14T13:58:17Z</time>
      </trkpt>
      <trkpt lat="43.70935" lon="6.97496">
        <ele>713.76342773438</ele>
        <time>2020-05-14T13:58:18Z</time>
      </trkpt>
      <trkpt lat="43.70938" lon="6.97495">
        <ele>713.47485351562</ele>
        <time>2020-05-14T13:58:19Z</time>
      </trkpt>
      <trkpt lat="43.70942" lon="6.97493">
        <ele>713.38549804688</ele>
        <time>2020-05-14T13:58:20Z</time>
      </trkpt>
      <trkpt lat="43.70945" lon="6.97491">
        <ele>712.67639160156</ele>
        <time>2020-05-14T13:58:21Z</time>
      </trkpt>
      <trkpt lat="43.70948" lon="6.97488">
        <ele>713.07092285156</ele>
        <time>2020-05-14T13:58:22Z</time>
      </trkpt>
      <trkpt lat="43.70951" lon="6.97486">
        <ele>713.02709960938</ele>
        <time>2020-05-14T13:58:23Z</time>
      </trkpt>
      <trkpt lat="43.70954" lon="6.97484">
        <ele>712.9521484375</ele>
        <time>2020-05-14T13:58:24Z</time>
      </trkpt>
      <trkpt lat="43.70957" lon="6.97481">
        <ele>712.42895507812</ele>
        <time>2020-05-14T13:58:25Z</time>
      </trkpt>
      <trkpt lat="43.70959" lon="6.97478">
        <ele>712.72827148438</ele>
        <time>2020-05-14T13:58:26Z</time>
      </trkpt>
      <trkpt lat="43.70962" lon="6.97475">
        <ele>713.0009765625</ele>
        <time>2020-05-14T13:58:27Z</time>
      </trkpt>
      <trkpt lat="43.70964" lon="6.97471">
        <ele>712.67736816406</ele>
        <time>2020-05-14T13:58:28Z</time>
      </trkpt>
      <trkpt lat="43.70966" lon="6.97467">
        <ele>712.81982421875</ele>
        <time>2020-05-14T13:58:29Z</time>
      </trkpt>
      <trkpt lat="43.70969" lon="6.97463">
        <ele>713.54382324219</ele>
        <time>2020-05-14T13:58:30Z</time>
      </trkpt>
      <trkpt lat="43.70971" lon="6.97459">
        <ele>712.52075195312</ele>
        <time>2020-05-14T13:58:31Z</time>
      </trkpt>
      <trkpt lat="43.70973" lon="6.97454">
        <ele>712.31579589844</ele>
        <time>2020-05-14T13:58:32Z</time>
      </trkpt>
      <trkpt lat="43.70975" lon="6.97449">
        <ele>712.37268066406</ele>
        <time>2020-05-14T13:58:33Z</time>
      </trkpt>
      <trkpt lat="43.70977" lon="6.97444">
        <ele>712.35571289062</ele>
        <time>2020-05-14T13:58:34Z</time>
      </trkpt>
      <trkpt lat="43.70979" lon="6.97439">
        <ele>712.41577148438</ele>
        <time>2020-05-14T13:58:35Z</time>
      </trkpt>
      <trkpt lat="43.70981" lon="6.97434">
        <ele>712.220703125</ele>
        <time>2020-05-14T13:58:36Z</time>
      </trkpt>
      <trkpt lat="43.70983" lon="6.9743">
        <ele>711.4521484375</ele>
        <time>2020-05-14T13:58:37Z</time>
      </trkpt>
      <trkpt lat="43.70985" lon="6.97424">
        <ele>710.82495117188</ele>
        <time>2020-05-14T13:58:38Z</time>
      </trkpt>
      <trkpt lat="43.70986" lon="6.97419">
        <ele>710.87133789062</ele>
        <time>2020-05-14T13:58:39Z</time>
      </trkpt>
      <trkpt lat="43.70988" lon="6.97414">
        <ele>710.93432617188</ele>
        <time>2020-05-14T13:58:40Z</time>
      </trkpt>
      <trkpt lat="43.70989" lon="6.97409">
        <ele>710.68212890625</ele>
        <time>2020-05-14T13:58:41Z</time>
      </trkpt>
      <trkpt lat="43.7099" lon="6.97404">
        <ele>710.619140625</ele>
        <time>2020-05-14T13:58:42Z</time>
      </trkpt>
      <trkpt lat="43.7099" lon="6.97398">
        <ele>710.63269042969</ele>
        <time>2020-05-14T13:58:43Z</time>
      </trkpt>
      <trkpt lat="43.7099" lon="6.97393">
        <ele>710.49145507812</ele>
        <time>2020-05-14T13:58:44Z</time>
      </trkpt>
      <trkpt lat="43.70991" lon="6.97387">
        <ele>710.4833984375</ele>
        <time>2020-05-14T13:58:45Z</time>
      </trkpt>
      <trkpt lat="43.70991" lon="6.97382">
        <ele>710.744140625</ele>
        <time>2020-05-14T13:58:46Z</time>
      </trkpt>
      <trkpt lat="43.70991" lon="6.97376">
        <ele>710.96936035156</ele>
        <time>2020-05-14T13:58:47Z</time>
      </trkpt>
      <trkpt lat="43.70992" lon="6.97371">
        <ele>710.89172363281</ele>
        <time>2020-05-14T13:58:48Z</time>
      </trkpt>
      <trkpt lat="43.70991" lon="6.97365">
        <ele>710.55236816406</ele>
        <time>2020-05-14T13:58:49Z</time>
      </trkpt>
      <trkpt lat="43.70987" lon="6.97358">
        <ele>710.64599609375</ele>
        <time>2020-05-14T13:58:50Z</time>
      </trkpt>
      <trkpt lat="43.70987" lon="6.9735">
        <ele>709.80517578125</ele>
        <time>2020-05-14T13:58:51Z</time>
      </trkpt>
      <trkpt lat="43.70988" lon="6.97344">
        <ele>709.63745117188</ele>
        <time>2020-05-14T13:58:52Z</time>
      </trkpt>
      <trkpt lat="43.70987" lon="6.97339">
        <ele>710.052734375</ele>
        <time>2020-05-14T13:58:53Z</time>
      </trkpt>
      <trkpt lat="43.70987" lon="6.97332">
        <ele>710.27685546875</ele>
        <time>2020-05-14T13:58:54Z</time>
      </trkpt>
      <trkpt lat="43.70986" lon="6.97326">
        <ele>710.44177246094</ele>
        <time>2020-05-14T13:58:55Z</time>
      </trkpt>
      <trkpt lat="43.70987" lon="6.97321">
        <ele>710.76135253906</ele>
        <time>2020-05-14T13:58:56Z</time>
      </trkpt>
      <trkpt lat="43.70987" lon="6.97315">
        <ele>710.78015136719</ele>
        <time>2020-05-14T13:58:57Z</time>
      </trkpt>
      <trkpt lat="43.70985" lon="6.9731">
        <ele>710.7421875</ele>
        <time>2020-05-14T13:58:58Z</time>
      </trkpt>
      <trkpt lat="43.70985" lon="6.97304">
        <ele>710.59753417969</ele>
        <time>2020-05-14T13:58:59Z</time>
      </trkpt>
      <trkpt lat="43.70984" lon="6.97297">
        <ele>710.67504882812</ele>
        <time>2020-05-14T13:59:00Z</time>
      </trkpt>
      <trkpt lat="43.70984" lon="6.97291">
        <ele>710.56005859375</ele>
        <time>2020-05-14T13:59:01Z</time>
      </trkpt>
      <trkpt lat="43.70984" lon="6.97286">
        <ele>710.65698242188</ele>
        <time>2020-05-14T13:59:02Z</time>
      </trkpt>
      <trkpt lat="43.70984" lon="6.97281">
        <ele>710.72998046875</ele>
        <time>2020-05-14T13:59:03Z</time>
      </trkpt>
      <trkpt lat="43.70984" lon="6.97276">
        <ele>710.71545410156</ele>
        <time>2020-05-14T13:59:04Z</time>
      </trkpt>
      <trkpt lat="43.70984" lon="6.9727">
        <ele>710.56909179688</ele>
        <time>2020-05-14T13:59:05Z</time>
      </trkpt>
      <trkpt lat="43.70985" lon="6.97266">
        <ele>710.44384765625</ele>
        <time>2020-05-14T13:59:06Z</time>
      </trkpt>
      <trkpt lat="43.70985" lon="6.97261">
        <ele>710.46997070312</ele>
        <time>2020-05-14T13:59:07Z</time>
      </trkpt>
      <trkpt lat="43.70985" lon="6.97253">
        <ele>710.16711425781</ele>
        <time>2020-05-14T13:59:08Z</time>
      </trkpt>
      <trkpt lat="43.70986" lon="6.97248">
        <ele>710.71752929688</ele>
        <time>2020-05-14T13:59:09Z</time>
      </trkpt>
      <trkpt lat="43.70986" lon="6.97241">
        <ele>709.935546875</ele>
        <time>2020-05-14T13:59:10Z</time>
      </trkpt>
      <trkpt lat="43.70987" lon="6.97235">
        <ele>710.37963867188</ele>
        <time>2020-05-14T13:59:11Z</time>
      </trkpt>
      <trkpt lat="43.70989" lon="6.97231">
        <ele>710.56860351562</ele>
        <time>2020-05-14T13:59:12Z</time>
      </trkpt>
      <trkpt lat="43.70992" lon="6.97226">
        <ele>711.00634765625</ele>
        <time>2020-05-14T13:59:13Z</time>
      </trkpt>
      <trkpt lat="43.70994" lon="6.97222">
        <ele>711.52661132812</ele>
        <time>2020-05-14T13:59:14Z</time>
      </trkpt>
      <trkpt lat="43.70997" lon="6.97218">
        <ele>711.81958007812</ele>
        <time>2020-05-14T13:59:15Z</time>
      </trkpt>
      <trkpt lat="43.71" lon="6.97214">
        <ele>712.04711914062</ele>
        <time>2020-05-14T13:59:16Z</time>
      </trkpt>
      <trkpt lat="43.71003" lon="6.97211">
        <ele>712.06481933594</ele>
        <time>2020-05-14T13:59:17Z</time>
      </trkpt>
      <trkpt lat="43.71018" lon="6.97203">
        <ele>360.84301757812</ele>
        <time>2020-05-14T13:59:21Z</time>
      </trkpt>
      <trkpt lat="43.71022" lon="6.97203">
        <ele>317.29693603516</ele>
        <time>2020-05-14T13:59:22Z</time>
      </trkpt>
      <trkpt lat="43.71037" lon="6.97208">
        <ele>352.65655517578</ele>
        <time>2020-05-14T13:59:26Z</time>
      </trkpt>
      <trkpt lat="43.71059" lon="6.97222">
        <ele>280.44409179688</ele>
        <time>2020-05-14T13:59:32Z</time>
      </trkpt>
      <trkpt lat="43.71094" lon="6.97255">
        <ele>321.76416015625</ele>
        <time>2020-05-14T13:59:42Z</time>
      </trkpt>
      <trkpt lat="43.71099" lon="6.97256">
        <ele>268.18981933594</ele>
        <time>2020-05-14T13:59:43Z</time>
      </trkpt>
      <trkpt lat="43.71143" lon="6.9726">
        <ele>339.50024414062</ele>
        <time>2020-05-14T13:59:54Z</time>
      </trkpt>
      <trkpt lat="43.71152" lon="6.97256">
        <ele>629.30419921875</ele>
        <time>2020-05-14T13:59:57Z</time>
      </trkpt>
      <trkpt lat="43.71157" lon="6.97256">
        <ele>653.22485351562</ele>
        <time>2020-05-14T13:59:58Z</time>
      </trkpt>
      <trkpt lat="43.71162" lon="6.97255">
        <ele>653.78515625</ele>
        <time>2020-05-14T13:59:59Z</time>
      </trkpt>
      <trkpt lat="43.71166" lon="6.97254">
        <ele>652.54907226562</ele>
        <time>2020-05-14T14:00:00Z</time>
      </trkpt>
      <trkpt lat="43.71172" lon="6.97252">
        <ele>653.189453125</ele>
        <time>2020-05-14T14:00:01Z</time>
      </trkpt>
      <trkpt lat="43.71176" lon="6.97253">
        <ele>698.0693359375</ele>
        <time>2020-05-14T14:00:02Z</time>
      </trkpt>
      <trkpt lat="43.71181" lon="6.97255">
        <ele>715.50634765625</ele>
        <time>2020-05-14T14:00:03Z</time>
      </trkpt>
      <trkpt lat="43.71185" lon="6.97257">
        <ele>716.91723632812</ele>
        <time>2020-05-14T14:00:04Z</time>
      </trkpt>
      <trkpt lat="43.7119" lon="6.97259">
        <ele>717.65881347656</ele>
        <time>2020-05-14T14:00:05Z</time>
      </trkpt>
      <trkpt lat="43.71194" lon="6.97261">
        <ele>718.759765625</ele>
        <time>2020-05-14T14:00:06Z</time>
      </trkpt>
      <trkpt lat="43.71198" lon="6.97264">
        <ele>719.1259765625</ele>
        <time>2020-05-14T14:00:07Z</time>
      </trkpt>
      <trkpt lat="43.71202" lon="6.97266">
        <ele>719.48059082031</ele>
        <time>2020-05-14T14:00:08Z</time>
      </trkpt>
      <trkpt lat="43.71206" lon="6.97268">
        <ele>719.61657714844</ele>
        <time>2020-05-14T14:00:09Z</time>
      </trkpt>
      <trkpt lat="43.71211" lon="6.9727">
        <ele>719.75244140625</ele>
        <time>2020-05-14T14:00:10Z</time>
      </trkpt>
      <trkpt lat="43.71215" lon="6.97271">
        <ele>719.88940429688</ele>
        <time>2020-05-14T14:00:11Z</time>
      </trkpt>
      <trkpt lat="43.71219" lon="6.97273">
        <ele>719.93920898438</ele>
        <time>2020-05-14T14:00:12Z</time>
      </trkpt>
      <trkpt lat="43.71223" lon="6.97275">
        <ele>719.658203125</ele>
        <time>2020-05-14T14:00:13Z</time>
      </trkpt>
      <trkpt lat="43.71227" lon="6.97276">
        <ele>720.07690429688</ele>
        <time>2020-05-14T14:00:14Z</time>
      </trkpt>
      <trkpt lat="43.71231" lon="6.97278">
        <ele>720.17749023438</ele>
        <time>2020-05-14T14:00:15Z</time>
      </trkpt>
      <trkpt lat="43.71235" lon="6.9728">
        <ele>720.13427734375</ele>
        <time>2020-05-14T14:00:16Z</time>
      </trkpt>
      <trkpt lat="43.71239" lon="6.97282">
        <ele>720.04760742188</ele>
        <time>2020-05-14T14:00:17Z</time>
      </trkpt>
      <trkpt lat="43.71243" lon="6.97283">
        <ele>720.18017578125</ele>
        <time>2020-05-14T14:00:18Z</time>
      </trkpt>
      <trkpt lat="43.71247" lon="6.97285">
        <ele>720.12561035156</ele>
        <time>2020-05-14T14:00:19Z</time>
      </trkpt>
      <trkpt lat="43.71251" lon="6.97287">
        <ele>719.94873046875</ele>
        <time>2020-05-14T14:00:20Z</time>
      </trkpt>
      <trkpt lat="43.71255" lon="6.97289">
        <ele>719.92785644531</ele>
        <time>2020-05-14T14:00:21Z</time>
      </trkpt>
      <trkpt lat="43.71259" lon="6.97291">
        <ele>719.78344726562</ele>
        <time>2020-05-14T14:00:22Z</time>
      </trkpt>
      <trkpt lat="43.71263" lon="6.97294">
        <ele>719.54321289062</ele>
        <time>2020-05-14T14:00:23Z</time>
      </trkpt>
      <trkpt lat="43.71266" lon="6.97297">
        <ele>719.54809570312</ele>
        <time>2020-05-14T14:00:24Z</time>
      </trkpt>
      <trkpt lat="43.71269" lon="6.973">
        <ele>721.98510742188</ele>
        <time>2020-05-14T14:00:25Z</time>
      </trkpt>
      <trkpt lat="43.71272" lon="6.97304">
        <ele>722.30810546875</ele>
        <time>2020-05-14T14:00:26Z</time>
      </trkpt>
      <trkpt lat="43.71275" lon="6.97308">
        <ele>722.68603515625</ele>
        <time>2020-05-14T14:00:27Z</time>
      </trkpt>
      <trkpt lat="43.71277" lon="6.97313">
        <ele>722.63671875</ele>
        <time>2020-05-14T14:00:28Z</time>
      </trkpt>
      <trkpt lat="43.71279" lon="6.97318">
        <ele>722.46166992188</ele>
        <time>2020-05-14T14:00:29Z</time>
      </trkpt>
      <trkpt lat="43.71281" lon="6.97323">
        <ele>722.59851074219</ele>
        <time>2020-05-14T14:00:30Z</time>
      </trkpt>
      <trkpt lat="43.71283" lon="6.97328">
        <ele>722.34826660156</ele>
        <time>2020-05-14T14:00:31Z</time>
      </trkpt>
      <trkpt lat="43.71285" lon="6.97333">
        <ele>722.24926757812</ele>
        <time>2020-05-14T14:00:32Z</time>
      </trkpt>
      <trkpt lat="43.71287" lon="6.97338">
        <ele>722.14123535156</ele>
        <time>2020-05-14T14:00:33Z</time>
      </trkpt>
      <trkpt lat="43.71289" lon="6.97343">
        <ele>721.76879882812</ele>
        <time>2020-05-14T14:00:34Z</time>
      </trkpt>
      <trkpt lat="43.71292" lon="6.97347">
        <ele>721.65295410156</ele>
        <time>2020-05-14T14:00:35Z</time>
      </trkpt>
      <trkpt lat="43.71295" lon="6.97351">
        <ele>721.67602539062</ele>
        <time>2020-05-14T14:00:36Z</time>
      </trkpt>
      <trkpt lat="43.71298" lon="6.97355">
        <ele>721.90673828125</ele>
        <time>2020-05-14T14:00:37Z</time>
      </trkpt>
      <trkpt lat="43.71301" lon="6.97358">
        <ele>722.77307128906</ele>
        <time>2020-05-14T14:00:38Z</time>
      </trkpt>
      <trkpt lat="43.71305" lon="6.97361">
        <ele>722.796875</ele>
        <time>2020-05-14T14:00:39Z</time>
      </trkpt>
      <trkpt lat="43.71309" lon="6.97364">
        <ele>723.27270507812</ele>
        <time>2020-05-14T14:00:40Z</time>
      </trkpt>
      <trkpt lat="43.71313" lon="6.97365">
        <ele>723.45678710938</ele>
        <time>2020-05-14T14:00:41Z</time>
      </trkpt>
      <trkpt lat="43.71318" lon="6.97367">
        <ele>723.71875</ele>
        <time>2020-05-14T14:00:42Z</time>
      </trkpt>
      <trkpt lat="43.71322" lon="6.97367">
        <ele>723.80126953125</ele>
        <time>2020-05-14T14:00:43Z</time>
      </trkpt>
      <trkpt lat="43.71326" lon="6.97367">
        <ele>723.94091796875</ele>
        <time>2020-05-14T14:00:44Z</time>
      </trkpt>
      <trkpt lat="43.71331" lon="6.97367">
        <ele>724.10986328125</ele>
        <time>2020-05-14T14:00:45Z</time>
      </trkpt>
      <trkpt lat="43.71335" lon="6.97366">
        <ele>724.17724609375</ele>
        <time>2020-05-14T14:00:46Z</time>
      </trkpt>
      <trkpt lat="43.7134" lon="6.97363">
        <ele>724.35522460938</ele>
        <time>2020-05-14T14:00:47Z</time>
      </trkpt>
      <trkpt lat="43.71345" lon="6.97362">
        <ele>724.58813476562</ele>
        <time>2020-05-14T14:00:48Z</time>
      </trkpt>
      <trkpt lat="43.71349" lon="6.97361">
        <ele>724.71557617188</ele>
        <time>2020-05-14T14:00:49Z</time>
      </trkpt>
      <trkpt lat="43.71354" lon="6.9736">
        <ele>724.7568359375</ele>
        <time>2020-05-14T14:00:50Z</time>
      </trkpt>
      <trkpt lat="43.71358" lon="6.97359">
        <ele>725.00732421875</ele>
        <time>2020-05-14T14:00:51Z</time>
      </trkpt>
      <trkpt lat="43.71363" lon="6.97357">
        <ele>725.27416992188</ele>
        <time>2020-05-14T14:00:52Z</time>
      </trkpt>
      <trkpt lat="43.71367" lon="6.97356">
        <ele>725.2021484375</ele>
        <time>2020-05-14T14:00:53Z</time>
      </trkpt>
      <trkpt lat="43.71371" lon="6.97354">
        <ele>725.1923828125</ele>
        <time>2020-05-14T14:00:54Z</time>
      </trkpt>
      <trkpt lat="43.71375" lon="6.97353">
        <ele>725.41552734375</ele>
        <time>2020-05-14T14:00:55Z</time>
      </trkpt>
      <trkpt lat="43.71379" lon="6.97351">
        <ele>721.99328613281</ele>
        <time>2020-05-14T14:00:56Z</time>
      </trkpt>
      <trkpt lat="43.71383" lon="6.97349">
        <ele>724.47424316406</ele>
        <time>2020-05-14T14:00:57Z</time>
      </trkpt>
      <trkpt lat="43.71388" lon="6.97348">
        <ele>724.57177734375</ele>
        <time>2020-05-14T14:00:58Z</time>
      </trkpt>
      <trkpt lat="43.71392" lon="6.97347">
        <ele>724.681640625</ele>
        <time>2020-05-14T14:00:59Z</time>
      </trkpt>
      <trkpt lat="43.71396" lon="6.97345">
        <ele>724.54956054688</ele>
        <time>2020-05-14T14:01:00Z</time>
      </trkpt>
      <trkpt lat="43.714" lon="6.97345">
        <ele>724.3642578125</ele>
        <time>2020-05-14T14:01:01Z</time>
      </trkpt>
      <trkpt lat="43.71405" lon="6.97344">
        <ele>724.27099609375</ele>
        <time>2020-05-14T14:01:02Z</time>
      </trkpt>
      <trkpt lat="43.71409" lon="6.97344">
        <ele>724.32690429688</ele>
        <time>2020-05-14T14:01:03Z</time>
      </trkpt>
      <trkpt lat="43.71413" lon="6.97343">
        <ele>724.29809570312</ele>
        <time>2020-05-14T14:01:04Z</time>
      </trkpt>
      <trkpt lat="43.71418" lon="6.97344">
        <ele>724.4111328125</ele>
        <time>2020-05-14T14:01:05Z</time>
      </trkpt>
      <trkpt lat="43.71422" lon="6.97344">
        <ele>724.61352539062</ele>
        <time>2020-05-14T14:01:06Z</time>
      </trkpt>
      <trkpt lat="43.71426" lon="6.97345">
        <ele>724.68774414062</ele>
        <time>2020-05-14T14:01:07Z</time>
      </trkpt>
      <trkpt lat="43.71431" lon="6.97346">
        <ele>724.43139648438</ele>
        <time>2020-05-14T14:01:08Z</time>
      </trkpt>
      <trkpt lat="43.71435" lon="6.97348">
        <ele>725.18896484375</ele>
        <time>2020-05-14T14:01:09Z</time>
      </trkpt>
      <trkpt lat="43.71439" lon="6.9735">
        <ele>725.31567382812</ele>
        <time>2020-05-14T14:01:10Z</time>
      </trkpt>
      <trkpt lat="43.71444" lon="6.97351">
        <ele>725.7529296875</ele>
        <time>2020-05-14T14:01:11Z</time>
      </trkpt>
      <trkpt lat="43.71448" lon="6.97353">
        <ele>725.73974609375</ele>
        <time>2020-05-14T14:01:12Z</time>
      </trkpt>
      <trkpt lat="43.71452" lon="6.97354">
        <ele>725.59362792969</ele>
        <time>2020-05-14T14:01:13Z</time>
      </trkpt>
      <trkpt lat="43.71456" lon="6.97356">
        <ele>725.58557128906</ele>
        <time>2020-05-14T14:01:14Z</time>
      </trkpt>
      <trkpt lat="43.71461" lon="6.97357">
        <ele>725.767578125</ele>
        <time>2020-05-14T14:01:15Z</time>
      </trkpt>
      <trkpt lat="43.71465" lon="6.97358">
        <ele>725.81457519531</ele>
        <time>2020-05-14T14:01:16Z</time>
      </trkpt>
      <trkpt lat="43.71469" lon="6.97358">
        <ele>726.11669921875</ele>
        <time>2020-05-14T14:01:17Z</time>
      </trkpt>
      <trkpt lat="43.71473" lon="6.97358">
        <ele>726.29833984375</ele>
        <time>2020-05-14T14:01:18Z</time>
      </trkpt>
      <trkpt lat="43.71477" lon="6.97357">
        <ele>726.25866699219</ele>
        <time>2020-05-14T14:01:19Z</time>
      </trkpt>
      <trkpt lat="43.71482" lon="6.97354">
        <ele>725.7685546875</ele>
        <time>2020-05-14T14:01:20Z</time>
      </trkpt>
      <trkpt lat="43.71486" lon="6.97353">
        <ele>725.96606445312</ele>
        <time>2020-05-14T14:01:21Z</time>
      </trkpt>
      <trkpt lat="43.71491" lon="6.97353">
        <ele>725.7587890625</ele>
        <time>2020-05-14T14:01:22Z</time>
      </trkpt>
      <trkpt lat="43.71495" lon="6.97353">
        <ele>725.80078125</ele>
        <time>2020-05-14T14:01:23Z</time>
      </trkpt>
      <trkpt lat="43.715" lon="6.97353">
        <ele>725.81628417969</ele>
        <time>2020-05-14T14:01:24Z</time>
      </trkpt>
      <trkpt lat="43.71504" lon="6.97354">
        <ele>726.02807617188</ele>
        <time>2020-05-14T14:01:25Z</time>
      </trkpt>
      <trkpt lat="43.71508" lon="6.97355">
        <ele>725.93627929688</ele>
        <time>2020-05-14T14:01:26Z</time>
      </trkpt>
      <trkpt lat="43.71513" lon="6.97357">
        <ele>725.89807128906</ele>
        <time>2020-05-14T14:01:27Z</time>
      </trkpt>
      <trkpt lat="43.71517" lon="6.97359">
        <ele>725.8115234375</ele>
        <time>2020-05-14T14:01:28Z</time>
      </trkpt>
      <trkpt lat="43.71521" lon="6.9736">
        <ele>725.95092773438</ele>
        <time>2020-05-14T14:01:29Z</time>
      </trkpt>
      <trkpt lat="43.71525" lon="6.97361">
        <ele>727.31274414062</ele>
        <time>2020-05-14T14:01:30Z</time>
      </trkpt>
      <trkpt lat="43.7153" lon="6.97362">
        <ele>727.63403320312</ele>
        <time>2020-05-14T14:01:31Z</time>
      </trkpt>
      <trkpt lat="43.71534" lon="6.97363">
        <ele>727.68823242188</ele>
        <time>2020-05-14T14:01:32Z</time>
      </trkpt>
      <trkpt lat="43.71538" lon="6.97364">
        <ele>727.79382324219</ele>
        <time>2020-05-14T14:01:33Z</time>
      </trkpt>
      <trkpt lat="43.71542" lon="6.97365">
        <ele>727.85180664062</ele>
        <time>2020-05-14T14:01:34Z</time>
      </trkpt>
      <trkpt lat="43.71546" lon="6.97365">
        <ele>727.70959472656</ele>
        <time>2020-05-14T14:01:35Z</time>
      </trkpt>
      <trkpt lat="43.71551" lon="6.97365">
        <ele>727.78576660156</ele>
        <time>2020-05-14T14:01:36Z</time>
      </trkpt>
      <trkpt lat="43.71555" lon="6.97364">
        <ele>727.71936035156</ele>
        <time>2020-05-14T14:01:37Z</time>
      </trkpt>
      <trkpt lat="43.71559" lon="6.97363">
        <ele>727.7490234375</ele>
        <time>2020-05-14T14:01:38Z</time>
      </trkpt>
      <trkpt lat="43.71563" lon="6.97361">
        <ele>727.82299804688</ele>
        <time>2020-05-14T14:01:39Z</time>
      </trkpt>
      <trkpt lat="43.71567" lon="6.97358">
        <ele>728.03442382812</ele>
        <time>2020-05-14T14:01:40Z</time>
      </trkpt>
      <trkpt lat="43.71571" lon="6.97356">
        <ele>727.91223144531</ele>
        <time>2020-05-14T14:01:41Z</time>
      </trkpt>
      <trkpt lat="43.71575" lon="6.97354">
        <ele>727.14123535156</ele>
        <time>2020-05-14T14:01:42Z</time>
      </trkpt>
      <trkpt lat="43.71579" lon="6.97351">
        <ele>727.4755859375</ele>
        <time>2020-05-14T14:01:43Z</time>
      </trkpt>
      <trkpt lat="43.71583" lon="6.97349">
        <ele>727.69580078125</ele>
        <time>2020-05-14T14:01:44Z</time>
      </trkpt>
      <trkpt lat="43.71588" lon="6.97348">
        <ele>727.76403808594</ele>
        <time>2020-05-14T14:01:45Z</time>
      </trkpt>
      <trkpt lat="43.71592" lon="6.97348">
        <ele>727.81872558594</ele>
        <time>2020-05-14T14:01:46Z</time>
      </trkpt>
      <trkpt lat="43.71597" lon="6.9735">
        <ele>727.45751953125</ele>
        <time>2020-05-14T14:01:47Z</time>
      </trkpt>
      <trkpt lat="43.71601" lon="6.97356">
        <ele>727.6572265625</ele>
        <time>2020-05-14T14:01:48Z</time>
      </trkpt>
      <trkpt lat="43.71605" lon="6.97358">
        <ele>727.76098632812</ele>
        <time>2020-05-14T14:01:49Z</time>
      </trkpt>
      <trkpt lat="43.71609" lon="6.9736">
        <ele>727.77795410156</ele>
        <time>2020-05-14T14:01:50Z</time>
      </trkpt>
      <trkpt lat="43.71613" lon="6.97363">
        <ele>727.88354492188</ele>
        <time>2020-05-14T14:01:51Z</time>
      </trkpt>
      <trkpt lat="43.71617" lon="6.97364">
        <ele>727.76733398438</ele>
        <time>2020-05-14T14:01:52Z</time>
      </trkpt>
      <trkpt lat="43.71622" lon="6.97365">
        <ele>727.630859375</ele>
        <time>2020-05-14T14:01:53Z</time>
      </trkpt>
      <trkpt lat="43.71626" lon="6.97365">
        <ele>727.38208007812</ele>
        <time>2020-05-14T14:01:54Z</time>
      </trkpt>
      <trkpt lat="43.71631" lon="6.97365">
        <ele>727.20544433594</ele>
        <time>2020-05-14T14:01:55Z</time>
      </trkpt>
      <trkpt lat="43.71635" lon="6.97364">
        <ele>727.02905273438</ele>
        <time>2020-05-14T14:01:56Z</time>
      </trkpt>
      <trkpt lat="43.71638" lon="6.97362">
        <ele>727.13452148438</ele>
        <time>2020-05-14T14:01:57Z</time>
      </trkpt>
      <trkpt lat="43.7164" lon="6.97361">
        <ele>727.33911132812</ele>
        <time>2020-05-14T14:01:58Z</time>
      </trkpt>
      <trkpt lat="43.71641" lon="6.9736">
        <ele>727.21411132812</ele>
        <time>2020-05-14T14:01:59Z</time>
      </trkpt>
      <trkpt lat="43.71641" lon="6.97361">
        <ele>727.13696289062</ele>
        <time>2020-05-14T14:02:00Z</time>
      </trkpt>
      <trkpt lat="43.71641" lon="6.97361">
        <ele>726.95031738281</ele>
        <time>2020-05-14T14:02:01Z</time>
      </trkpt>
      <trkpt lat="43.71641" lon="6.97361">
        <ele>726.78002929688</ele>
        <time>2020-05-14T14:02:02Z</time>
      </trkpt>
      <trkpt lat="43.71641" lon="6.9736">
        <ele>726.84594726562</ele>
        <time>2020-05-14T14:02:03Z</time>
      </trkpt>
      <trkpt lat="43.71642" lon="6.97361">
        <ele>729.58666992188</ele>
        <time>2020-05-14T14:02:04Z</time>
      </trkpt>
      <trkpt lat="43.71642" lon="6.97361">
        <ele>729.3056640625</ele>
        <time>2020-05-14T14:02:05Z</time>
      </trkpt>
      <trkpt lat="43.71642" lon="6.97361">
        <ele>729.57275390625</ele>
        <time>2020-05-14T14:02:06Z</time>
      </trkpt>
      <trkpt lat="43.71642" lon="6.97361">
        <ele>729.55834960938</ele>
        <time>2020-05-14T14:02:07Z</time>
      </trkpt>
      <trkpt lat="43.71642" lon="6.97361">
        <ele>729.34619140625</ele>
        <time>2020-05-14T14:02:08Z</time>
      </trkpt>
      <trkpt lat="43.71642" lon="6.97361">
        <ele>729.40698242188</ele>
        <time>2020-05-14T14:02:09Z</time>
      </trkpt>
      <trkpt lat="43.71642" lon="6.97361">
        <ele>729.28845214844</ele>
        <time>2020-05-14T14:02:10Z</time>
      </trkpt>
      <trkpt lat="43.71642" lon="6.97361">
        <ele>728.74194335938</ele>
        <time>2020-05-14T14:02:11Z</time>
      </trkpt>
      <trkpt lat="43.71642" lon="6.97361">
        <ele>728.5517578125</ele>
        <time>2020-05-14T14:02:12Z</time>
      </trkpt>
      <trkpt lat="43.71642" lon="6.97361">
        <ele>728.33764648438</ele>
        <time>2020-05-14T14:02:13Z</time>
      </trkpt>
      <trkpt lat="43.71642" lon="6.97361">
        <ele>728.46472167969</ele>
        <time>2020-05-14T14:02:14Z</time>
      </trkpt>
      <trkpt lat="43.71642" lon="6.97361">
        <ele>728.45458984375</ele>
        <time>2020-05-14T14:02:15Z</time>
      </trkpt>
      <trkpt lat="43.71642" lon="6.97361">
        <ele>728.37060546875</ele>
        <time>2020-05-14T14:02:16Z</time>
      </trkpt>
      <trkpt lat="43.71642" lon="6.97361">
        <ele>728.10961914062</ele>
        <time>2020-05-14T14:02:17Z</time>
      </trkpt>
      <trkpt lat="43.71642" lon="6.9736">
        <ele>728.1806640625</ele>
        <time>2020-05-14T14:02:18Z</time>
      </trkpt>
      <trkpt lat="43.71642" lon="6.9736">
        <ele>728.05676269531</ele>
        <time>2020-05-14T14:02:19Z</time>
      </trkpt>
      <trkpt lat="43.71643" lon="6.9736">
        <ele>728.03503417969</ele>
        <time>2020-05-14T14:02:20Z</time>
      </trkpt>
      <trkpt lat="43.71642" lon="6.9736">
        <ele>727.76281738281</ele>
        <time>2020-05-14T14:02:21Z</time>
      </trkpt>
      <trkpt lat="43.71643" lon="6.9736">
        <ele>727.99438476562</ele>
        <time>2020-05-14T14:02:22Z</time>
      </trkpt>
      <trkpt lat="43.71643" lon="6.9736">
        <ele>728.0205078125</ele>
        <time>2020-05-14T14:02:23Z</time>
      </trkpt>
      <trkpt lat="43.71642" lon="6.9736">
        <ele>727.68249511719</ele>
        <time>2020-05-14T14:02:24Z</time>
      </trkpt>
      <trkpt lat="43.71642" lon="6.9736">
        <ele>727.47863769531</ele>
        <time>2020-05-14T14:02:25Z</time>
      </trkpt>
      <trkpt lat="43.71642" lon="6.9736">
        <ele>727.16760253906</ele>
        <time>2020-05-14T14:02:26Z</time>
      </trkpt>
      <trkpt lat="43.71642" lon="6.9736">
        <ele>727.2978515625</ele>
        <time>2020-05-14T14:02:27Z</time>
      </trkpt>
      <trkpt lat="43.71642" lon="6.97361">
        <ele>727.27770996094</ele>
        <time>2020-05-14T14:02:28Z</time>
      </trkpt>
      <trkpt lat="43.71642" lon="6.97361">
        <ele>727.3017578125</ele>
        <time>2020-05-14T14:02:29Z</time>
      </trkpt>
      <trkpt lat="43.71642" lon="6.97361">
        <ele>727.30810546875</ele>
        <time>2020-05-14T14:02:30Z</time>
      </trkpt>
      <trkpt lat="43.71643" lon="6.97361">
        <ele>727.23364257812</ele>
        <time>2020-05-14T14:02:31Z</time>
      </trkpt>
      <trkpt lat="43.71643" lon="6.97361">
        <ele>727.24169921875</ele>
        <time>2020-05-14T14:02:32Z</time>
      </trkpt>
      <trkpt lat="43.71643" lon="6.97361">
        <ele>727.23364257812</ele>
        <time>2020-05-14T14:02:33Z</time>
      </trkpt>
      <trkpt lat="43.71643" lon="6.97361">
        <ele>727.25854492188</ele>
        <time>2020-05-14T14:02:34Z</time>
      </trkpt>
      <trkpt lat="43.71643" lon="6.97361">
        <ele>727.27124023438</ele>
        <time>2020-05-14T14:02:35Z</time>
      </trkpt>
      <trkpt lat="43.71643" lon="6.97361">
        <ele>727.27661132812</ele>
        <time>2020-05-14T14:02:36Z</time>
      </trkpt>
      <trkpt lat="43.71643" lon="6.97361">
        <ele>727.27758789062</ele>
        <time>2020-05-14T14:02:37Z</time>
      </trkpt>
      <trkpt lat="43.71642" lon="6.97361">
        <ele>727.32482910156</ele>
        <time>2020-05-14T14:02:38Z</time>
      </trkpt>
      <trkpt lat="43.71643" lon="6.97361">
        <ele>727.65222167969</ele>
        <time>2020-05-14T14:02:39Z</time>
      </trkpt>
      <trkpt lat="43.71643" lon="6.97361">
        <ele>728.220703125</ele>
        <time>2020-05-14T14:02:40Z</time>
      </trkpt>
      <trkpt lat="43.71643" lon="6.97361">
        <ele>728.27758789062</ele>
        <time>2020-05-14T14:02:41Z</time>
      </trkpt>
      <trkpt lat="43.71643" lon="6.97361">
        <ele>728.14477539062</ele>
        <time>2020-05-14T14:02:42Z</time>
      </trkpt>
      <trkpt lat="43.71643" lon="6.97361">
        <ele>728.17309570312</ele>
        <time>2020-05-14T14:02:43Z</time>
      </trkpt>
      <trkpt lat="43.71643" lon="6.97361">
        <ele>728.20776367188</ele>
        <time>2020-05-14T14:02:44Z</time>
      </trkpt>
      <trkpt lat="43.71643" lon="6.97361">
        <ele>728.0771484375</ele>
        <time>2020-05-14T14:02:45Z</time>
      </trkpt>
      <trkpt lat="43.71643" lon="6.9736">
        <ele>727.91577148438</ele>
        <time>2020-05-14T14:02:46Z</time>
      </trkpt>
      <trkpt lat="43.71643" lon="6.9736">
        <ele>727.85107421875</ele>
        <time>2020-05-14T14:02:47Z</time>
      </trkpt>
      <trkpt lat="43.71643" lon="6.9736">
        <ele>728.0126953125</ele>
        <time>2020-05-14T14:02:48Z</time>
      </trkpt>
      <trkpt lat="43.71642" lon="6.9736">
        <ele>727.98168945312</ele>
        <time>2020-05-14T14:02:49Z</time>
      </trkpt>
      <trkpt lat="43.71642" lon="6.9736">
        <ele>727.70861816406</ele>
        <time>2020-05-14T14:02:50Z</time>
      </trkpt>
      <trkpt lat="43.71642" lon="6.9736">
        <ele>727.70434570312</ele>
        <time>2020-05-14T14:02:51Z</time>
      </trkpt>
      <trkpt lat="43.71642" lon="6.9736">
        <ele>727.6787109375</ele>
        <time>2020-05-14T14:02:52Z</time>
      </trkpt>
      <trkpt lat="43.71642" lon="6.9736">
        <ele>727.48754882812</ele>
        <time>2020-05-14T14:02:53Z</time>
      </trkpt>
      <trkpt lat="43.71642" lon="6.97359">
        <ele>727.63317871094</ele>
        <time>2020-05-14T14:02:54Z</time>
      </trkpt>
      <trkpt lat="43.71642" lon="6.97359">
        <ele>727.47399902344</ele>
        <time>2020-05-14T14:02:55Z</time>
      </trkpt>
      <trkpt lat="43.71642" lon="6.97359">
        <ele>727.73706054688</ele>
        <time>2020-05-14T14:02:56Z</time>
      </trkpt>
      <trkpt lat="43.71642" lon="6.97359">
        <ele>727.744140625</ele>
        <time>2020-05-14T14:02:57Z</time>
      </trkpt>
      <trkpt lat="43.71642" lon="6.97359">
        <ele>727.74584960938</ele>
        <time>2020-05-14T14:02:58Z</time>
      </trkpt>
      <trkpt lat="43.71642" lon="6.9736">
        <ele>727.87182617188</ele>
        <time>2020-05-14T14:02:59Z</time>
      </trkpt>
      <trkpt lat="43.71642" lon="6.9736">
        <ele>727.7109375</ele>
        <time>2020-05-14T14:03:00Z</time>
      </trkpt>
      <trkpt lat="43.71642" lon="6.9736">
        <ele>727.78088378906</ele>
        <time>2020-05-14T14:03:01Z</time>
      </trkpt>
      <trkpt lat="43.71642" lon="6.9736">
        <ele>727.7998046875</ele>
        <time>2020-05-14T14:03:02Z</time>
      </trkpt>
      <trkpt lat="43.71641" lon="6.9736">
        <ele>727.80224609375</ele>
        <time>2020-05-14T14:03:03Z</time>
      </trkpt>
      <trkpt lat="43.71641" lon="6.9736">
        <ele>727.79821777344</ele>
        <time>2020-05-14T14:03:04Z</time>
      </trkpt>
      <trkpt lat="43.71641" lon="6.9736">
        <ele>728.26208496094</ele>
        <time>2020-05-14T14:03:05Z</time>
      </trkpt>
      <trkpt lat="43.71641" lon="6.97361">
        <ele>728.40966796875</ele>
        <time>2020-05-14T14:03:06Z</time>
      </trkpt>
      <trkpt lat="43.7164" lon="6.97361">
        <ele>728.7138671875</ele>
        <time>2020-05-14T14:03:07Z</time>
      </trkpt>
      <trkpt lat="43.7164" lon="6.9736">
        <ele>728.66357421875</ele>
        <time>2020-05-14T14:03:08Z</time>
      </trkpt>
      <trkpt lat="43.7164" lon="6.9736">
        <ele>729.12329101562</ele>
        <time>2020-05-14T14:03:09Z</time>
      </trkpt>
      <trkpt lat="43.71641" lon="6.9736">
        <ele>729.35668945312</ele>
        <time>2020-05-14T14:03:10Z</time>
      </trkpt>
      <trkpt lat="43.71642" lon="6.97358">
        <ele>729.26782226562</ele>
        <time>2020-05-14T14:03:11Z</time>
      </trkpt>
      <trkpt lat="43.71644" lon="6.97356">
        <ele>729.45385742188</ele>
        <time>2020-05-14T14:03:12Z</time>
      </trkpt>
      <trkpt lat="43.71646" lon="6.97354">
        <ele>729.58703613281</ele>
        <time>2020-05-14T14:03:13Z</time>
      </trkpt>
      <trkpt lat="43.71648" lon="6.97352">
        <ele>729.65869140625</ele>
        <time>2020-05-14T14:03:14Z</time>
      </trkpt>
      <trkpt lat="43.71651" lon="6.97349">
        <ele>729.78588867188</ele>
        <time>2020-05-14T14:03:15Z</time>
      </trkpt>
      <trkpt lat="43.71654" lon="6.97347">
        <ele>729.72009277344</ele>
        <time>2020-05-14T14:03:16Z</time>
      </trkpt>
      <trkpt lat="43.71657" lon="6.97344">
        <ele>728.859375</ele>
        <time>2020-05-14T14:03:17Z</time>
      </trkpt>
      <trkpt lat="43.71661" lon="6.9734">
        <ele>728.68640136719</ele>
        <time>2020-05-14T14:03:18Z</time>
      </trkpt>
      <trkpt lat="43.71664" lon="6.97337">
        <ele>728.52685546875</ele>
        <time>2020-05-14T14:03:19Z</time>
      </trkpt>
      <trkpt lat="43.71668" lon="6.97334">
        <ele>728.48852539062</ele>
        <time>2020-05-14T14:03:20Z</time>
      </trkpt>
      <trkpt lat="43.71671" lon="6.9733">
        <ele>728.39697265625</ele>
        <time>2020-05-14T14:03:21Z</time>
      </trkpt>
      <trkpt lat="43.71674" lon="6.97327">
        <ele>728.01171875</ele>
        <time>2020-05-14T14:03:22Z</time>
      </trkpt>
      <trkpt lat="43.71677" lon="6.97322">
        <ele>727.85400390625</ele>
        <time>2020-05-14T14:03:23Z</time>
      </trkpt>
      <trkpt lat="43.7168" lon="6.97318">
        <ele>727.22705078125</ele>
        <time>2020-05-14T14:03:24Z</time>
      </trkpt>
      <trkpt lat="43.71683" lon="6.97312">
        <ele>726.90087890625</ele>
        <time>2020-05-14T14:03:25Z</time>
      </trkpt>
      <trkpt lat="43.71687" lon="6.97307">
        <ele>727.18823242188</ele>
        <time>2020-05-14T14:03:26Z</time>
      </trkpt>
      <trkpt lat="43.7169" lon="6.97302">
        <ele>727.49780273438</ele>
        <time>2020-05-14T14:03:27Z</time>
      </trkpt>
      <trkpt lat="43.71694" lon="6.97298">
        <ele>727.36108398438</ele>
        <time>2020-05-14T14:03:28Z</time>
      </trkpt>
      <trkpt lat="43.71698" lon="6.97294">
        <ele>727.11462402344</ele>
        <time>2020-05-14T14:03:29Z</time>
      </trkpt>
      <trkpt lat="43.71702" lon="6.97289">
        <ele>727.13354492188</ele>
        <time>2020-05-14T14:03:30Z</time>
      </trkpt>
      <trkpt lat="43.71706" lon="6.97285">
        <ele>727.2265625</ele>
        <time>2020-05-14T14:03:31Z</time>
      </trkpt>
      <trkpt lat="43.7171" lon="6.9728">
        <ele>726.88623046875</ele>
        <time>2020-05-14T14:03:32Z</time>
      </trkpt>
      <trkpt lat="43.71714" lon="6.97275">
        <ele>726.453125</ele>
        <time>2020-05-14T14:03:33Z</time>
      </trkpt>
      <trkpt lat="43.71718" lon="6.97271">
        <ele>726.2509765625</ele>
        <time>2020-05-14T14:03:34Z</time>
      </trkpt>
      <trkpt lat="43.71722" lon="6.97267">
        <ele>725.80651855469</ele>
        <time>2020-05-14T14:03:35Z</time>
      </trkpt>
      <trkpt lat="43.71726" lon="6.97262">
        <ele>725.92431640625</ele>
        <time>2020-05-14T14:03:36Z</time>
      </trkpt>
      <trkpt lat="43.7173" lon="6.97257">
        <ele>725.98559570312</ele>
        <time>2020-05-14T14:03:37Z</time>
      </trkpt>
      <trkpt lat="43.71733" lon="6.97251">
        <ele>725.76025390625</ele>
        <time>2020-05-14T14:03:38Z</time>
      </trkpt>
      <trkpt lat="43.71736" lon="6.97245">
        <ele>725.71118164062</ele>
        <time>2020-05-14T14:03:39Z</time>
      </trkpt>
      <trkpt lat="43.71739" lon="6.97238">
        <ele>725.34069824219</ele>
        <time>2020-05-14T14:03:40Z</time>
      </trkpt>
      <trkpt lat="43.71742" lon="6.9723">
        <ele>724.83666992188</ele>
        <time>2020-05-14T14:03:41Z</time>
      </trkpt>
      <trkpt lat="43.71744" lon="6.97222">
        <ele>724.84838867188</ele>
        <time>2020-05-14T14:03:42Z</time>
      </trkpt>
      <trkpt lat="43.71747" lon="6.97214">
        <ele>724.60229492188</ele>
        <time>2020-05-14T14:03:43Z</time>
      </trkpt>
      <trkpt lat="43.71749" lon="6.97206">
        <ele>724.70581054688</ele>
        <time>2020-05-14T14:03:44Z</time>
      </trkpt>
      <trkpt lat="43.71752" lon="6.97197">
        <ele>724.279296875</ele>
        <time>2020-05-14T14:03:45Z</time>
      </trkpt>
      <trkpt lat="43.71754" lon="6.97189">
        <ele>724.09204101562</ele>
        <time>2020-05-14T14:03:46Z</time>
      </trkpt>
      <trkpt lat="43.71757" lon="6.97178">
        <ele>723.11975097656</ele>
        <time>2020-05-14T14:03:47Z</time>
      </trkpt>
      <trkpt lat="43.71759" lon="6.97169">
        <ele>722.08837890625</ele>
        <time>2020-05-14T14:03:48Z</time>
      </trkpt>
      <trkpt lat="43.71762" lon="6.97161">
        <ele>722.54357910156</ele>
        <time>2020-05-14T14:03:49Z</time>
      </trkpt>
      <trkpt lat="43.71764" lon="6.97151">
        <ele>721.95288085938</ele>
        <time>2020-05-14T14:03:50Z</time>
      </trkpt>
      <trkpt lat="43.71765" lon="6.97142">
        <ele>722.02429199219</ele>
        <time>2020-05-14T14:03:51Z</time>
      </trkpt>
      <trkpt lat="43.71769" lon="6.97133">
        <ele>721.37377929688</ele>
        <time>2020-05-14T14:03:52Z</time>
      </trkpt>
      <trkpt lat="43.7177" lon="6.97124">
        <ele>722.11291503906</ele>
        <time>2020-05-14T14:03:53Z</time>
      </trkpt>
      <trkpt lat="43.71772" lon="6.97115">
        <ele>722.29296875</ele>
        <time>2020-05-14T14:03:54Z</time>
      </trkpt>
      <trkpt lat="43.71774" lon="6.97106">
        <ele>722.36193847656</ele>
        <time>2020-05-14T14:03:55Z</time>
      </trkpt>
      <trkpt lat="43.71776" lon="6.97098">
        <ele>722.70471191406</ele>
        <time>2020-05-14T14:03:56Z</time>
      </trkpt>
      <trkpt lat="43.71777" lon="6.97089">
        <ele>722.85913085938</ele>
        <time>2020-05-14T14:03:57Z</time>
      </trkpt>
      <trkpt lat="43.71776" lon="6.97083">
        <ele>723.208984375</ele>
        <time>2020-05-14T14:03:58Z</time>
      </trkpt>
      <trkpt lat="43.71777" lon="6.97073">
        <ele>723.06713867188</ele>
        <time>2020-05-14T14:03:59Z</time>
      </trkpt>
      <trkpt lat="43.71778" lon="6.97064">
        <ele>723.18115234375</ele>
        <time>2020-05-14T14:04:00Z</time>
      </trkpt>
      <trkpt lat="43.71779" lon="6.97055">
        <ele>723.142578125</ele>
        <time>2020-05-14T14:04:01Z</time>
      </trkpt>
      <trkpt lat="43.7178" lon="6.97047">
        <ele>723.60205078125</ele>
        <time>2020-05-14T14:04:02Z</time>
      </trkpt>
      <trkpt lat="43.71781" lon="6.97037">
        <ele>723.36938476562</ele>
        <time>2020-05-14T14:04:03Z</time>
      </trkpt>
      <trkpt lat="43.71781" lon="6.97027">
        <ele>723.82690429688</ele>
        <time>2020-05-14T14:04:04Z</time>
      </trkpt>
      <trkpt lat="43.71782" lon="6.97018">
        <ele>723.2548828125</ele>
        <time>2020-05-14T14:04:05Z</time>
      </trkpt>
      <trkpt lat="43.71784" lon="6.97008">
        <ele>723.11157226562</ele>
        <time>2020-05-14T14:04:06Z</time>
      </trkpt>
      <trkpt lat="43.71786" lon="6.96999">
        <ele>723.3232421875</ele>
        <time>2020-05-14T14:04:07Z</time>
      </trkpt>
      <trkpt lat="43.71788" lon="6.9699">
        <ele>722.36474609375</ele>
        <time>2020-05-14T14:04:08Z</time>
      </trkpt>
      <trkpt lat="43.71792" lon="6.96987">
        <ele>722.93273925781</ele>
        <time>2020-05-14T14:04:09Z</time>
      </trkpt>
      <trkpt lat="43.71796" lon="6.9698">
        <ele>722.92785644531</ele>
        <time>2020-05-14T14:04:10Z</time>
      </trkpt>
      <trkpt lat="43.718" lon="6.96972">
        <ele>723.06567382812</ele>
        <time>2020-05-14T14:04:11Z</time>
      </trkpt>
      <trkpt lat="43.71801" lon="6.96965">
        <ele>722.56616210938</ele>
        <time>2020-05-14T14:04:12Z</time>
      </trkpt>
      <trkpt lat="43.71803" lon="6.96957">
        <ele>722.79467773438</ele>
        <time>2020-05-14T14:04:13Z</time>
      </trkpt>
      <trkpt lat="43.71803" lon="6.96949">
        <ele>722.95239257812</ele>
        <time>2020-05-14T14:04:14Z</time>
      </trkpt>
      <trkpt lat="43.71804" lon="6.96942">
        <ele>723.724609375</ele>
        <time>2020-05-14T14:04:15Z</time>
      </trkpt>
      <trkpt lat="43.71807" lon="6.96934">
        <ele>722.98779296875</ele>
        <time>2020-05-14T14:04:16Z</time>
      </trkpt>
      <trkpt lat="43.71809" lon="6.96927">
        <ele>722.91577148438</ele>
        <time>2020-05-14T14:04:17Z</time>
      </trkpt>
      <trkpt lat="43.71811" lon="6.96919">
        <ele>723.52429199219</ele>
        <time>2020-05-14T14:04:18Z</time>
      </trkpt>
      <trkpt lat="43.71812" lon="6.96911">
        <ele>723.74194335938</ele>
        <time>2020-05-14T14:04:19Z</time>
      </trkpt>
      <trkpt lat="43.71811" lon="6.96903">
        <ele>723.88146972656</ele>
        <time>2020-05-14T14:04:20Z</time>
      </trkpt>
      <trkpt lat="43.71811" lon="6.96894">
        <ele>723.49072265625</ele>
        <time>2020-05-14T14:04:21Z</time>
      </trkpt>
      <trkpt lat="43.71811" lon="6.96886">
        <ele>722.6240234375</ele>
        <time>2020-05-14T14:04:22Z</time>
      </trkpt>
      <trkpt lat="43.71811" lon="6.96879">
        <ele>722.02709960938</ele>
        <time>2020-05-14T14:04:23Z</time>
      </trkpt>
      <trkpt lat="43.71814" lon="6.9687">
        <ele>722.09338378906</ele>
        <time>2020-05-14T14:04:24Z</time>
      </trkpt>
      <trkpt lat="43.71816" lon="6.96862">
        <ele>721.69055175781</ele>
        <time>2020-05-14T14:04:25Z</time>
      </trkpt>
      <trkpt lat="43.71817" lon="6.96852">
        <ele>721.02807617188</ele>
        <time>2020-05-14T14:04:26Z</time>
      </trkpt>
      <trkpt lat="43.71818" lon="6.96844">
        <ele>720.873046875</ele>
        <time>2020-05-14T14:04:27Z</time>
      </trkpt>
      <trkpt lat="43.71822" lon="6.96837">
        <ele>720.99926757812</ele>
        <time>2020-05-14T14:04:28Z</time>
      </trkpt>
      <trkpt lat="43.71821" lon="6.96832">
        <ele>720.79565429688</ele>
        <time>2020-05-14T14:04:29Z</time>
      </trkpt>
      <trkpt lat="43.71824" lon="6.96827">
        <ele>721.05554199219</ele>
        <time>2020-05-14T14:04:30Z</time>
      </trkpt>
      <trkpt lat="43.71829" lon="6.9682">
        <ele>720.53857421875</ele>
        <time>2020-05-14T14:04:31Z</time>
      </trkpt>
      <trkpt lat="43.71834" lon="6.96812">
        <ele>719.98291015625</ele>
        <time>2020-05-14T14:04:32Z</time>
      </trkpt>
      <trkpt lat="43.71838" lon="6.96808">
        <ele>720.39868164062</ele>
        <time>2020-05-14T14:04:33Z</time>
      </trkpt>
      <trkpt lat="43.71841" lon="6.96804">
        <ele>719.98974609375</ele>
        <time>2020-05-14T14:04:34Z</time>
      </trkpt>
      <trkpt lat="43.71847" lon="6.96801">
        <ele>719.85144042969</ele>
        <time>2020-05-14T14:04:35Z</time>
      </trkpt>
      <trkpt lat="43.71851" lon="6.96798">
        <ele>721.5810546875</ele>
        <time>2020-05-14T14:04:36Z</time>
      </trkpt>
      <trkpt lat="43.71854" lon="6.96793">
        <ele>722.00390625</ele>
        <time>2020-05-14T14:04:37Z</time>
      </trkpt>
      <trkpt lat="43.71857" lon="6.96788">
        <ele>721.8974609375</ele>
        <time>2020-05-14T14:04:38Z</time>
      </trkpt>
      <trkpt lat="43.71857" lon="6.96782">
        <ele>722.22216796875</ele>
        <time>2020-05-14T14:04:39Z</time>
      </trkpt>
      <trkpt lat="43.7186" lon="6.96777">
        <ele>719.38610839844</ele>
        <time>2020-05-14T14:04:40Z</time>
      </trkpt>
      <trkpt lat="43.71864" lon="6.96772">
        <ele>720.21948242188</ele>
        <time>2020-05-14T14:04:41Z</time>
      </trkpt>
      <trkpt lat="43.71867" lon="6.96767">
        <ele>719.93725585938</ele>
        <time>2020-05-14T14:04:42Z</time>
      </trkpt>
      <trkpt lat="43.7187" lon="6.96762">
        <ele>720.53662109375</ele>
        <time>2020-05-14T14:04:43Z</time>
      </trkpt>
      <trkpt lat="43.71874" lon="6.96757">
        <ele>720.50415039062</ele>
        <time>2020-05-14T14:04:44Z</time>
      </trkpt>
      <trkpt lat="43.71878" lon="6.96752">
        <ele>721.49438476562</ele>
        <time>2020-05-14T14:04:45Z</time>
      </trkpt>
      <trkpt lat="43.7188" lon="6.96747">
        <ele>721.76147460938</ele>
        <time>2020-05-14T14:04:46Z</time>
      </trkpt>
      <trkpt lat="43.71882" lon="6.96741">
        <ele>719.287109375</ele>
        <time>2020-05-14T14:04:47Z</time>
      </trkpt>
      <trkpt lat="43.71885" lon="6.96738">
        <ele>720.12231445312</ele>
        <time>2020-05-14T14:04:48Z</time>
      </trkpt>
      <trkpt lat="43.71888" lon="6.96733">
        <ele>719.61303710938</ele>
        <time>2020-05-14T14:04:49Z</time>
      </trkpt>
      <trkpt lat="43.7189" lon="6.96729">
        <ele>720.68603515625</ele>
        <time>2020-05-14T14:04:50Z</time>
      </trkpt>
      <trkpt lat="43.71893" lon="6.96724">
        <ele>721.03881835938</ele>
        <time>2020-05-14T14:04:51Z</time>
      </trkpt>
      <trkpt lat="43.71894" lon="6.96719">
        <ele>721.35900878906</ele>
        <time>2020-05-14T14:04:52Z</time>
      </trkpt>
      <trkpt lat="43.71896" lon="6.96715">
        <ele>721.02587890625</ele>
        <time>2020-05-14T14:04:53Z</time>
      </trkpt>
      <trkpt lat="43.719" lon="6.96711">
        <ele>721.53344726562</ele>
        <time>2020-05-14T14:04:54Z</time>
      </trkpt>
      <trkpt lat="43.71903" lon="6.96707">
        <ele>721.85717773438</ele>
        <time>2020-05-14T14:04:55Z</time>
      </trkpt>
      <trkpt lat="43.71905" lon="6.96703">
        <ele>722.23388671875</ele>
        <time>2020-05-14T14:04:56Z</time>
      </trkpt>
      <trkpt lat="43.71907" lon="6.967">
        <ele>722.59375</ele>
        <time>2020-05-14T14:04:57Z</time>
      </trkpt>
      <trkpt lat="43.7191" lon="6.96697">
        <ele>722.59912109375</ele>
        <time>2020-05-14T14:04:58Z</time>
      </trkpt>
      <trkpt lat="43.71911" lon="6.96693">
        <ele>722.97192382812</ele>
        <time>2020-05-14T14:04:59Z</time>
      </trkpt>
      <trkpt lat="43.71913" lon="6.9669">
        <ele>722.47692871094</ele>
        <time>2020-05-14T14:05:00Z</time>
      </trkpt>
      <trkpt lat="43.71916" lon="6.96688">
        <ele>723.20739746094</ele>
        <time>2020-05-14T14:05:01Z</time>
      </trkpt>
      <trkpt lat="43.71919" lon="6.96686">
        <ele>723.06262207031</ele>
        <time>2020-05-14T14:05:02Z</time>
      </trkpt>
      <trkpt lat="43.71922" lon="6.96686">
        <ele>723.26501464844</ele>
        <time>2020-05-14T14:05:03Z</time>
      </trkpt>
      <trkpt lat="43.71926" lon="6.96686">
        <ele>722.6103515625</ele>
        <time>2020-05-14T14:05:04Z</time>
      </trkpt>
      <trkpt lat="43.71931" lon="6.96686">
        <ele>722.82080078125</ele>
        <time>2020-05-14T14:05:05Z</time>
      </trkpt>
      <trkpt lat="43.71934" lon="6.96687">
        <ele>722.6083984375</ele>
        <time>2020-05-14T14:05:06Z</time>
      </trkpt>
      <trkpt lat="43.71938" lon="6.96689">
        <ele>722.93469238281</ele>
        <time>2020-05-14T14:05:07Z</time>
      </trkpt>
      <trkpt lat="43.71942" lon="6.96691">
        <ele>722.96020507812</ele>
        <time>2020-05-14T14:05:08Z</time>
      </trkpt>
      <trkpt lat="43.71946" lon="6.96694">
        <ele>723.10656738281</ele>
        <time>2020-05-14T14:05:09Z</time>
      </trkpt>
      <trkpt lat="43.71949" lon="6.96696">
        <ele>723.4248046875</ele>
        <time>2020-05-14T14:05:10Z</time>
      </trkpt>
      <trkpt lat="43.71953" lon="6.96699">
        <ele>722.78649902344</ele>
        <time>2020-05-14T14:05:11Z</time>
      </trkpt>
      <trkpt lat="43.71956" lon="6.96702">
        <ele>722.86767578125</ele>
        <time>2020-05-14T14:05:12Z</time>
      </trkpt>
      <trkpt lat="43.71959" lon="6.96704">
        <ele>722.94616699219</ele>
        <time>2020-05-14T14:05:13Z</time>
      </trkpt>
      <trkpt lat="43.71963" lon="6.96707">
        <ele>723.5751953125</ele>
        <time>2020-05-14T14:05:14Z</time>
      </trkpt>
      <trkpt lat="43.71967" lon="6.9671">
        <ele>722.50659179688</ele>
        <time>2020-05-14T14:05:15Z</time>
      </trkpt>
      <trkpt lat="43.7197" lon="6.96713">
        <ele>723.34497070312</ele>
        <time>2020-05-14T14:05:16Z</time>
      </trkpt>
      <trkpt lat="43.71974" lon="6.96716">
        <ele>723.72729492188</ele>
        <time>2020-05-14T14:05:17Z</time>
      </trkpt>
      <trkpt lat="43.71977" lon="6.96718">
        <ele>723.86645507812</ele>
        <time>2020-05-14T14:05:18Z</time>
      </trkpt>
      <trkpt lat="43.7198" lon="6.96721">
        <ele>723.75</ele>
        <time>2020-05-14T14:05:19Z</time>
      </trkpt>
      <trkpt lat="43.71983" lon="6.96723">
        <ele>724.70629882812</ele>
        <time>2020-05-14T14:05:20Z</time>
      </trkpt>
      <trkpt lat="43.71986" lon="6.96726">
        <ele>724.83422851562</ele>
        <time>2020-05-14T14:05:21Z</time>
      </trkpt>
      <trkpt lat="43.71989" lon="6.96729">
        <ele>724.64282226562</ele>
        <time>2020-05-14T14:05:22Z</time>
      </trkpt>
      <trkpt lat="43.71992" lon="6.96732">
        <ele>724.787109375</ele>
        <time>2020-05-14T14:05:23Z</time>
      </trkpt>
      <trkpt lat="43.71995" lon="6.96735">
        <ele>725.41369628906</ele>
        <time>2020-05-14T14:05:24Z</time>
      </trkpt>
      <trkpt lat="43.71998" lon="6.96737">
        <ele>725.54565429688</ele>
        <time>2020-05-14T14:05:25Z</time>
      </trkpt>
      <trkpt lat="43.72002" lon="6.96739">
        <ele>725.9169921875</ele>
        <time>2020-05-14T14:05:26Z</time>
      </trkpt>
      <trkpt lat="43.72005" lon="6.96741">
        <ele>725.42578125</ele>
        <time>2020-05-14T14:05:27Z</time>
      </trkpt>
      <trkpt lat="43.72009" lon="6.96743">
        <ele>725.3125</ele>
        <time>2020-05-14T14:05:28Z</time>
      </trkpt>
      <trkpt lat="43.72012" lon="6.96745">
        <ele>725.61169433594</ele>
        <time>2020-05-14T14:05:29Z</time>
      </trkpt>
      <trkpt lat="43.72015" lon="6.96746">
        <ele>724.93774414062</ele>
        <time>2020-05-14T14:05:30Z</time>
      </trkpt>
      <trkpt lat="43.72018" lon="6.96748">
        <ele>724.58703613281</ele>
        <time>2020-05-14T14:05:31Z</time>
      </trkpt>
      <trkpt lat="43.72022" lon="6.96749">
        <ele>724.50268554688</ele>
        <time>2020-05-14T14:05:32Z</time>
      </trkpt>
      <trkpt lat="43.72025" lon="6.9675">
        <ele>725.07104492188</ele>
        <time>2020-05-14T14:05:33Z</time>
      </trkpt>
      <trkpt lat="43.72029" lon="6.96751">
        <ele>725.17211914062</ele>
        <time>2020-05-14T14:05:34Z</time>
      </trkpt>
      <trkpt lat="43.72032" lon="6.96752">
        <ele>725.55786132812</ele>
        <time>2020-05-14T14:05:35Z</time>
      </trkpt>
      <trkpt lat="43.72036" lon="6.96753">
        <ele>725.70471191406</ele>
        <time>2020-05-14T14:05:36Z</time>
      </trkpt>
      <trkpt lat="43.72039" lon="6.96753">
        <ele>724.86010742188</ele>
        <time>2020-05-14T14:05:37Z</time>
      </trkpt>
      <trkpt lat="43.72043" lon="6.96753">
        <ele>724.92919921875</ele>
        <time>2020-05-14T14:05:38Z</time>
      </trkpt>
      <trkpt lat="43.72046" lon="6.96753">
        <ele>725.19580078125</ele>
        <time>2020-05-14T14:05:39Z</time>
      </trkpt>
      <trkpt lat="43.72049" lon="6.96752">
        <ele>725.21606445312</ele>
        <time>2020-05-14T14:05:40Z</time>
      </trkpt>
      <trkpt lat="43.72052" lon="6.96752">
        <ele>725.5068359375</ele>
        <time>2020-05-14T14:05:41Z</time>
      </trkpt>
      <trkpt lat="43.72056" lon="6.96751">
        <ele>725.7734375</ele>
        <time>2020-05-14T14:05:42Z</time>
      </trkpt>
      <trkpt lat="43.72059" lon="6.96749">
        <ele>725.62170410156</ele>
        <time>2020-05-14T14:05:43Z</time>
      </trkpt>
      <trkpt lat="43.72063" lon="6.96748">
        <ele>725.60705566406</ele>
        <time>2020-05-14T14:05:44Z</time>
      </trkpt>
      <trkpt lat="43.72066" lon="6.96746">
        <ele>725.53723144531</ele>
        <time>2020-05-14T14:05:45Z</time>
      </trkpt>
      <trkpt lat="43.7207" lon="6.96745">
        <ele>725.45654296875</ele>
        <time>2020-05-14T14:05:46Z</time>
      </trkpt>
      <trkpt lat="43.72073" lon="6.96743">
        <ele>725.56604003906</ele>
        <time>2020-05-14T14:05:47Z</time>
      </trkpt>
      <trkpt lat="43.72076" lon="6.96742">
        <ele>725.84020996094</ele>
        <time>2020-05-14T14:05:48Z</time>
      </trkpt>
      <trkpt lat="43.72079" lon="6.96741">
        <ele>725.763671875</ele>
        <time>2020-05-14T14:05:49Z</time>
      </trkpt>
      <trkpt lat="43.72081" lon="6.96741">
        <ele>725.68334960938</ele>
        <time>2020-05-14T14:05:50Z</time>
      </trkpt>
      <trkpt lat="43.72085" lon="6.96741">
        <ele>725.603515625</ele>
        <time>2020-05-14T14:05:51Z</time>
      </trkpt>
      <trkpt lat="43.72088" lon="6.96743">
        <ele>725.98010253906</ele>
        <time>2020-05-14T14:05:52Z</time>
      </trkpt>
      <trkpt lat="43.72092" lon="6.96745">
        <ele>726.28002929688</ele>
        <time>2020-05-14T14:05:53Z</time>
      </trkpt>
      <trkpt lat="43.72095" lon="6.96748">
        <ele>726.24829101562</ele>
        <time>2020-05-14T14:05:54Z</time>
      </trkpt>
      <trkpt lat="43.72097" lon="6.96752">
        <ele>726.11901855469</ele>
        <time>2020-05-14T14:05:55Z</time>
      </trkpt>
      <trkpt lat="43.72099" lon="6.96757">
        <ele>726.27587890625</ele>
        <time>2020-05-14T14:05:56Z</time>
      </trkpt>
      <trkpt lat="43.72101" lon="6.96762">
        <ele>726.24560546875</ele>
        <time>2020-05-14T14:05:57Z</time>
      </trkpt>
      <trkpt lat="43.72101" lon="6.96768">
        <ele>726.333984375</ele>
        <time>2020-05-14T14:05:58Z</time>
      </trkpt>
      <trkpt lat="43.72101" lon="6.96774">
        <ele>726.52978515625</ele>
        <time>2020-05-14T14:05:59Z</time>
      </trkpt>
      <trkpt lat="43.721" lon="6.96779">
        <ele>726.60180664062</ele>
        <time>2020-05-14T14:06:00Z</time>
      </trkpt>
      <trkpt lat="43.72099" lon="6.96784">
        <ele>726.47814941406</ele>
        <time>2020-05-14T14:06:01Z</time>
      </trkpt>
      <trkpt lat="43.72097" lon="6.96789">
        <ele>726.67041015625</ele>
        <time>2020-05-14T14:06:02Z</time>
      </trkpt>
      <trkpt lat="43.72095" lon="6.96793">
        <ele>727.32666015625</ele>
        <time>2020-05-14T14:06:03Z</time>
      </trkpt>
      <trkpt lat="43.72093" lon="6.96797">
        <ele>727.10424804688</ele>
        <time>2020-05-14T14:06:04Z</time>
      </trkpt>
      <trkpt lat="43.7209" lon="6.968">
        <ele>727.64624023438</ele>
        <time>2020-05-14T14:06:05Z</time>
      </trkpt>
      <trkpt lat="43.72087" lon="6.96803">
        <ele>727.5029296875</ele>
        <time>2020-05-14T14:06:06Z</time>
      </trkpt>
      <trkpt lat="43.72084" lon="6.96805">
        <ele>728.03735351562</ele>
        <time>2020-05-14T14:06:07Z</time>
      </trkpt>
      <trkpt lat="43.72081" lon="6.96807">
        <ele>728.66064453125</ele>
        <time>2020-05-14T14:06:08Z</time>
      </trkpt>
      <trkpt lat="43.72078" lon="6.96809">
        <ele>728.91381835938</ele>
        <time>2020-05-14T14:06:09Z</time>
      </trkpt>
      <trkpt lat="43.72075" lon="6.96811">
        <ele>728.75659179688</ele>
        <time>2020-05-14T14:06:10Z</time>
      </trkpt>
      <trkpt lat="43.72072" lon="6.96812">
        <ele>729.30151367188</ele>
        <time>2020-05-14T14:06:11Z</time>
      </trkpt>
      <trkpt lat="43.72069" lon="6.96814">
        <ele>729.63781738281</ele>
        <time>2020-05-14T14:06:12Z</time>
      </trkpt>
      <trkpt lat="43.72067" lon="6.96816">
        <ele>730.04760742188</ele>
        <time>2020-05-14T14:06:13Z</time>
      </trkpt>
      <trkpt lat="43.72064" lon="6.96818">
        <ele>730.0478515625</ele>
        <time>2020-05-14T14:06:14Z</time>
      </trkpt>
      <trkpt lat="43.72063" lon="6.96819">
        <ele>730.40661621094</ele>
        <time>2020-05-14T14:06:15Z</time>
      </trkpt>
      <trkpt lat="43.72061" lon="6.96821">
        <ele>730.65441894531</ele>
        <time>2020-05-14T14:06:16Z</time>
      </trkpt>
      <trkpt lat="43.72059" lon="6.96823">
        <ele>730.658203125</ele>
        <time>2020-05-14T14:06:17Z</time>
      </trkpt>
      <trkpt lat="43.72057" lon="6.96825">
        <ele>731.34924316406</ele>
        <time>2020-05-14T14:06:18Z</time>
      </trkpt>
      <trkpt lat="43.72055" lon="6.96827">
        <ele>731.19287109375</ele>
        <time>2020-05-14T14:06:19Z</time>
      </trkpt>
      <trkpt lat="43.72053" lon="6.96829">
        <ele>731.32641601562</ele>
        <time>2020-05-14T14:06:20Z</time>
      </trkpt>
      <trkpt lat="43.72052" lon="6.96831">
        <ele>731.62902832031</ele>
        <time>2020-05-14T14:06:21Z</time>
      </trkpt>
      <trkpt lat="43.7205" lon="6.96833">
        <ele>731.93481445312</ele>
        <time>2020-05-14T14:06:22Z</time>
      </trkpt>
      <trkpt lat="43.72048" lon="6.96835">
        <ele>732.07641601562</ele>
        <time>2020-05-14T14:06:23Z</time>
      </trkpt>
      <trkpt lat="43.72046" lon="6.96838">
        <ele>732.02465820312</ele>
        <time>2020-05-14T14:06:24Z</time>
      </trkpt>
      <trkpt lat="43.72044" lon="6.9684">
        <ele>731.94128417969</ele>
        <time>2020-05-14T14:06:25Z</time>
      </trkpt>
      <trkpt lat="43.72043" lon="6.96842">
        <ele>731.8955078125</ele>
        <time>2020-05-14T14:06:26Z</time>
      </trkpt>
      <trkpt lat="43.72041" lon="6.96844">
        <ele>732.17504882812</ele>
        <time>2020-05-14T14:06:27Z</time>
      </trkpt>
      <trkpt lat="43.72039" lon="6.96846">
        <ele>732.18017578125</ele>
        <time>2020-05-14T14:06:28Z</time>
      </trkpt>
      <trkpt lat="43.72038" lon="6.96848">
        <ele>732.4306640625</ele>
        <time>2020-05-14T14:06:29Z</time>
      </trkpt>
      <trkpt lat="43.72036" lon="6.9685">
        <ele>732.4619140625</ele>
        <time>2020-05-14T14:06:30Z</time>
      </trkpt>
      <trkpt lat="43.72033" lon="6.96851">
        <ele>732.94653320312</ele>
        <time>2020-05-14T14:06:31Z</time>
      </trkpt>
      <trkpt lat="43.72031" lon="6.96853">
        <ele>733.01977539062</ele>
        <time>2020-05-14T14:06:32Z</time>
      </trkpt>
      <trkpt lat="43.72029" lon="6.96855">
        <ele>733.30090332031</ele>
        <time>2020-05-14T14:06:33Z</time>
      </trkpt>
      <trkpt lat="43.72026" lon="6.96856">
        <ele>733.59521484375</ele>
        <time>2020-05-14T14:06:34Z</time>
      </trkpt>
      <trkpt lat="43.72024" lon="6.96857">
        <ele>733.74426269531</ele>
        <time>2020-05-14T14:06:35Z</time>
      </trkpt>
      <trkpt lat="43.72021" lon="6.96858">
        <ele>733.58471679688</ele>
        <time>2020-05-14T14:06:36Z</time>
      </trkpt>
      <trkpt lat="43.72019" lon="6.96859">
        <ele>733.63598632812</ele>
        <time>2020-05-14T14:06:37Z</time>
      </trkpt>
      <trkpt lat="43.72016" lon="6.9686">
        <ele>734.16882324219</ele>
        <time>2020-05-14T14:06:38Z</time>
      </trkpt>
      <trkpt lat="43.72014" lon="6.96861">
        <ele>734.13439941406</ele>
        <time>2020-05-14T14:06:39Z</time>
      </trkpt>
      <trkpt lat="43.72012" lon="6.96863">
        <ele>734.51342773438</ele>
        <time>2020-05-14T14:06:40Z</time>
      </trkpt>
      <trkpt lat="43.7201" lon="6.96864">
        <ele>734.92663574219</ele>
        <time>2020-05-14T14:06:41Z</time>
      </trkpt>
      <trkpt lat="43.72007" lon="6.96866">
        <ele>734.93579101562</ele>
        <time>2020-05-14T14:06:42Z</time>
      </trkpt>
      <trkpt lat="43.72005" lon="6.96867">
        <ele>735.11999511719</ele>
        <time>2020-05-14T14:06:43Z</time>
      </trkpt>
      <trkpt lat="43.72003" lon="6.96869">
        <ele>735.16271972656</ele>
        <time>2020-05-14T14:06:44Z</time>
      </trkpt>
      <trkpt lat="43.72001" lon="6.96871">
        <ele>735.3349609375</ele>
        <time>2020-05-14T14:06:45Z</time>
      </trkpt>
      <trkpt lat="43.71999" lon="6.96873">
        <ele>735.57250976562</ele>
        <time>2020-05-14T14:06:46Z</time>
      </trkpt>
      <trkpt lat="43.71997" lon="6.96875">
        <ele>735.61303710938</ele>
        <time>2020-05-14T14:06:47Z</time>
      </trkpt>
      <trkpt lat="43.71995" lon="6.96877">
        <ele>735.78674316406</ele>
        <time>2020-05-14T14:06:48Z</time>
      </trkpt>
      <trkpt lat="43.71994" lon="6.96879">
        <ele>735.79821777344</ele>
        <time>2020-05-14T14:06:49Z</time>
      </trkpt>
      <trkpt lat="43.71992" lon="6.96881">
        <ele>735.8515625</ele>
        <time>2020-05-14T14:06:50Z</time>
      </trkpt>
      <trkpt lat="43.7199" lon="6.96883">
        <ele>735.80151367188</ele>
        <time>2020-05-14T14:06:51Z</time>
      </trkpt>
      <trkpt lat="43.71988" lon="6.96884">
        <ele>736.09057617188</ele>
        <time>2020-05-14T14:06:52Z</time>
      </trkpt>
      <trkpt lat="43.71986" lon="6.96886">
        <ele>735.93469238281</ele>
        <time>2020-05-14T14:06:53Z</time>
      </trkpt>
      <trkpt lat="43.71984" lon="6.96888">
        <ele>736.24572753906</ele>
        <time>2020-05-14T14:06:54Z</time>
      </trkpt>
      <trkpt lat="43.71982" lon="6.96891">
        <ele>736.71069335938</ele>
        <time>2020-05-14T14:06:55Z</time>
      </trkpt>
      <trkpt lat="43.71981" lon="6.96893">
        <ele>736.71411132812</ele>
        <time>2020-05-14T14:06:56Z</time>
      </trkpt>
      <trkpt lat="43.71979" lon="6.96896">
        <ele>736.46936035156</ele>
        <time>2020-05-14T14:06:57Z</time>
      </trkpt>
      <trkpt lat="43.71978" lon="6.96899">
        <ele>736.29565429688</ele>
        <time>2020-05-14T14:06:58Z</time>
      </trkpt>
      <trkpt lat="43.71977" lon="6.96902">
        <ele>736.15698242188</ele>
        <time>2020-05-14T14:06:59Z</time>
      </trkpt>
      <trkpt lat="43.71976" lon="6.96905">
        <ele>736.5234375</ele>
        <time>2020-05-14T14:07:00Z</time>
      </trkpt>
      <trkpt lat="43.71975" lon="6.96908">
        <ele>736.84899902344</ele>
        <time>2020-05-14T14:07:01Z</time>
      </trkpt>
      <trkpt lat="43.71974" lon="6.96911">
        <ele>736.80187988281</ele>
        <time>2020-05-14T14:07:02Z</time>
      </trkpt>
      <trkpt lat="43.71974" lon="6.96914">
        <ele>736.42895507812</ele>
        <time>2020-05-14T14:07:03Z</time>
      </trkpt>
      <trkpt lat="43.71973" lon="6.96918">
        <ele>736.32336425781</ele>
        <time>2020-05-14T14:07:04Z</time>
      </trkpt>
      <trkpt lat="43.71974" lon="6.96921">
        <ele>736.32604980469</ele>
        <time>2020-05-14T14:07:05Z</time>
      </trkpt>
      <trkpt lat="43.71974" lon="6.96924">
        <ele>736.47741699219</ele>
        <time>2020-05-14T14:07:06Z</time>
      </trkpt>
      <trkpt lat="43.71975" lon="6.96928">
        <ele>736.44958496094</ele>
        <time>2020-05-14T14:07:07Z</time>
      </trkpt>
      <trkpt lat="43.71976" lon="6.96931">
        <ele>736.53527832031</ele>
        <time>2020-05-14T14:07:08Z</time>
      </trkpt>
      <trkpt lat="43.71977" lon="6.96934">
        <ele>736.42602539062</ele>
        <time>2020-05-14T14:07:09Z</time>
      </trkpt>
      <trkpt lat="43.71978" lon="6.96938">
        <ele>736.568359375</ele>
        <time>2020-05-14T14:07:10Z</time>
      </trkpt>
      <trkpt lat="43.71979" lon="6.96941">
        <ele>736.66235351562</ele>
        <time>2020-05-14T14:07:11Z</time>
      </trkpt>
      <trkpt lat="43.7198" lon="6.96944">
        <ele>736.62841796875</ele>
        <time>2020-05-14T14:07:12Z</time>
      </trkpt>
      <trkpt lat="43.71981" lon="6.96948">
        <ele>736.84338378906</ele>
        <time>2020-05-14T14:07:13Z</time>
      </trkpt>
      <trkpt lat="43.71982" lon="6.96951">
        <ele>736.93286132812</ele>
        <time>2020-05-14T14:07:14Z</time>
      </trkpt>
      <trkpt lat="43.71983" lon="6.96954">
        <ele>737.11865234375</ele>
        <time>2020-05-14T14:07:15Z</time>
      </trkpt>
      <trkpt lat="43.71984" lon="6.96957">
        <ele>737.32116699219</ele>
        <time>2020-05-14T14:07:16Z</time>
      </trkpt>
      <trkpt lat="43.71985" lon="6.96961">
        <ele>737.58996582031</ele>
        <time>2020-05-14T14:07:17Z</time>
      </trkpt>
      <trkpt lat="43.71986" lon="6.96964">
        <ele>737.68969726562</ele>
        <time>2020-05-14T14:07:18Z</time>
      </trkpt>
      <trkpt lat="43.71987" lon="6.96967">
        <ele>737.97839355469</ele>
        <time>2020-05-14T14:07:19Z</time>
      </trkpt>
      <trkpt lat="43.71987" lon="6.9697">
        <ele>738.16528320312</ele>
        <time>2020-05-14T14:07:20Z</time>
      </trkpt>
      <trkpt lat="43.71988" lon="6.96974">
        <ele>738.23876953125</ele>
        <time>2020-05-14T14:07:21Z</time>
      </trkpt>
      <trkpt lat="43.71988" lon="6.96978">
        <ele>738.12768554688</ele>
        <time>2020-05-14T14:07:22Z</time>
      </trkpt>
      <trkpt lat="43.71989" lon="6.96981">
        <ele>738.35180664062</ele>
        <time>2020-05-14T14:07:23Z</time>
      </trkpt>
      <trkpt lat="43.71989" lon="6.96984">
        <ele>738.65234375</ele>
        <time>2020-05-14T14:07:24Z</time>
      </trkpt>
      <trkpt lat="43.7199" lon="6.96988">
        <ele>738.57995605469</ele>
        <time>2020-05-14T14:07:25Z</time>
      </trkpt>
      <trkpt lat="43.7199" lon="6.96991">
        <ele>738.83178710938</ele>
        <time>2020-05-14T14:07:26Z</time>
      </trkpt>
      <trkpt lat="43.71991" lon="6.96995">
        <ele>738.86108398438</ele>
        <time>2020-05-14T14:07:27Z</time>
      </trkpt>
      <trkpt lat="43.71991" lon="6.96998">
        <ele>739.08984375</ele>
        <time>2020-05-14T14:07:28Z</time>
      </trkpt>
      <trkpt lat="43.71991" lon="6.97001">
        <ele>739.26794433594</ele>
        <time>2020-05-14T14:07:29Z</time>
      </trkpt>
      <trkpt lat="43.71992" lon="6.97005">
        <ele>739.60375976562</ele>
        <time>2020-05-14T14:07:30Z</time>
      </trkpt>
      <trkpt lat="43.71992" lon="6.97008">
        <ele>739.85375976562</ele>
        <time>2020-05-14T14:07:31Z</time>
      </trkpt>
      <trkpt lat="43.71992" lon="6.97011">
        <ele>739.99291992188</ele>
        <time>2020-05-14T14:07:32Z</time>
      </trkpt>
      <trkpt lat="43.71993" lon="6.97014">
        <ele>740.2451171875</ele>
        <time>2020-05-14T14:07:33Z</time>
      </trkpt>
      <trkpt lat="43.71994" lon="6.97017">
        <ele>740.21997070312</ele>
        <time>2020-05-14T14:07:34Z</time>
      </trkpt>
      <trkpt lat="43.71995" lon="6.97021">
        <ele>740.46569824219</ele>
        <time>2020-05-14T14:07:35Z</time>
      </trkpt>
      <trkpt lat="43.71996" lon="6.97024">
        <ele>740.75500488281</ele>
        <time>2020-05-14T14:07:36Z</time>
      </trkpt>
      <trkpt lat="43.71997" lon="6.97027">
        <ele>740.86181640625</ele>
        <time>2020-05-14T14:07:37Z</time>
      </trkpt>
      <trkpt lat="43.71998" lon="6.9703">
        <ele>741.15625</ele>
        <time>2020-05-14T14:07:38Z</time>
      </trkpt>
      <trkpt lat="43.72" lon="6.97033">
        <ele>741.40795898438</ele>
        <time>2020-05-14T14:07:39Z</time>
      </trkpt>
      <trkpt lat="43.72001" lon="6.97036">
        <ele>741.57250976562</ele>
        <time>2020-05-14T14:07:40Z</time>
      </trkpt>
      <trkpt lat="43.72003" lon="6.97039">
        <ele>741.69323730469</ele>
        <time>2020-05-14T14:07:41Z</time>
      </trkpt>
      <trkpt lat="43.72005" lon="6.97042">
        <ele>741.6640625</ele>
        <time>2020-05-14T14:07:42Z</time>
      </trkpt>
      <trkpt lat="43.72007" lon="6.97044">
        <ele>741.67395019531</ele>
        <time>2020-05-14T14:07:43Z</time>
      </trkpt>
      <trkpt lat="43.72008" lon="6.97047">
        <ele>741.673828125</ele>
        <time>2020-05-14T14:07:44Z</time>
      </trkpt>
      <trkpt lat="43.7201" lon="6.97049">
        <ele>741.40246582031</ele>
        <time>2020-05-14T14:07:45Z</time>
      </trkpt>
      <trkpt lat="43.72012" lon="6.97052">
        <ele>741.80419921875</ele>
        <time>2020-05-14T14:07:46Z</time>
      </trkpt>
      <trkpt lat="43.72014" lon="6.97054">
        <ele>741.59118652344</ele>
        <time>2020-05-14T14:07:47Z</time>
      </trkpt>
      <trkpt lat="43.72016" lon="6.97056">
        <ele>741.86181640625</ele>
        <time>2020-05-14T14:07:48Z</time>
      </trkpt>
      <trkpt lat="43.72017" lon="6.97059">
        <ele>742.28955078125</ele>
        <time>2020-05-14T14:07:49Z</time>
      </trkpt>
      <trkpt lat="43.72019" lon="6.97061">
        <ele>742.5478515625</ele>
        <time>2020-05-14T14:07:50Z</time>
      </trkpt>
      <trkpt lat="43.72021" lon="6.97064">
        <ele>742.77905273438</ele>
        <time>2020-05-14T14:07:51Z</time>
      </trkpt>
      <trkpt lat="43.72022" lon="6.97066">
        <ele>742.75830078125</ele>
        <time>2020-05-14T14:07:52Z</time>
      </trkpt>
      <trkpt lat="43.72024" lon="6.97069">
        <ele>743.09521484375</ele>
        <time>2020-05-14T14:07:53Z</time>
      </trkpt>
      <trkpt lat="43.72025" lon="6.97072">
        <ele>743.22045898438</ele>
        <time>2020-05-14T14:07:54Z</time>
      </trkpt>
      <trkpt lat="43.72027" lon="6.97075">
        <ele>743.13000488281</ele>
        <time>2020-05-14T14:07:55Z</time>
      </trkpt>
      <trkpt lat="43.72028" lon="6.97077">
        <ele>743.2607421875</ele>
        <time>2020-05-14T14:07:56Z</time>
      </trkpt>
      <trkpt lat="43.72029" lon="6.9708">
        <ele>743.62768554688</ele>
        <time>2020-05-14T14:07:57Z</time>
      </trkpt>
      <trkpt lat="43.7203" lon="6.97083">
        <ele>744.02844238281</ele>
        <time>2020-05-14T14:07:58Z</time>
      </trkpt>
      <trkpt lat="43.72031" lon="6.97086">
        <ele>744.05615234375</ele>
        <time>2020-05-14T14:07:59Z</time>
      </trkpt>
      <trkpt lat="43.72033" lon="6.97089">
        <ele>744.4423828125</ele>
        <time>2020-05-14T14:08:00Z</time>
      </trkpt>
      <trkpt lat="43.72034" lon="6.97092">
        <ele>744.60632324219</ele>
        <time>2020-05-14T14:08:01Z</time>
      </trkpt>
      <trkpt lat="43.72035" lon="6.97094">
        <ele>744.65649414062</ele>
        <time>2020-05-14T14:08:02Z</time>
      </trkpt>
      <trkpt lat="43.72036" lon="6.97097">
        <ele>745.02087402344</ele>
        <time>2020-05-14T14:08:03Z</time>
      </trkpt>
      <trkpt lat="43.72037" lon="6.971">
        <ele>744.93896484375</ele>
        <time>2020-05-14T14:08:04Z</time>
      </trkpt>
      <trkpt lat="43.72038" lon="6.97104">
        <ele>744.98950195312</ele>
        <time>2020-05-14T14:08:05Z</time>
      </trkpt>
      <trkpt lat="43.72039" lon="6.97107">
        <ele>745.26489257812</ele>
        <time>2020-05-14T14:08:06Z</time>
      </trkpt>
      <trkpt lat="43.72039" lon="6.9711">
        <ele>745.40600585938</ele>
        <time>2020-05-14T14:08:07Z</time>
      </trkpt>
      <trkpt lat="43.7204" lon="6.97113">
        <ele>745.62731933594</ele>
        <time>2020-05-14T14:08:08Z</time>
      </trkpt>
      <trkpt lat="43.7204" lon="6.97116">
        <ele>746.45556640625</ele>
        <time>2020-05-14T14:08:09Z</time>
      </trkpt>
      <trkpt lat="43.72041" lon="6.97119">
        <ele>745.83251953125</ele>
        <time>2020-05-14T14:08:10Z</time>
      </trkpt>
      <trkpt lat="43.72042" lon="6.97122">
        <ele>745.90454101562</ele>
        <time>2020-05-14T14:08:11Z</time>
      </trkpt>
      <trkpt lat="43.72043" lon="6.97126">
        <ele>746.29541015625</ele>
        <time>2020-05-14T14:08:12Z</time>
      </trkpt>
      <trkpt lat="43.72044" lon="6.97129">
        <ele>746.52514648438</ele>
        <time>2020-05-14T14:08:13Z</time>
      </trkpt>
      <trkpt lat="43.72044" lon="6.97132">
        <ele>746.01184082031</ele>
        <time>2020-05-14T14:08:14Z</time>
      </trkpt>
      <trkpt lat="43.72045" lon="6.97136">
        <ele>745.66650390625</ele>
        <time>2020-05-14T14:08:15Z</time>
      </trkpt>
      <trkpt lat="43.72045" lon="6.97139">
        <ele>745.49621582031</ele>
        <time>2020-05-14T14:08:16Z</time>
      </trkpt>
      <trkpt lat="43.72046" lon="6.97143">
        <ele>741.74975585938</ele>
        <time>2020-05-14T14:08:17Z</time>
      </trkpt>
      <trkpt lat="43.72046" lon="6.97147">
        <ele>740.05102539062</ele>
        <time>2020-05-14T14:08:18Z</time>
      </trkpt>
      <trkpt lat="43.72046" lon="6.9715">
        <ele>739.56787109375</ele>
        <time>2020-05-14T14:08:19Z</time>
      </trkpt>
      <trkpt lat="43.72046" lon="6.97154">
        <ele>737.22802734375</ele>
        <time>2020-05-14T14:08:20Z</time>
      </trkpt>
      <trkpt lat="43.72047" lon="6.97157">
        <ele>736.18383789062</ele>
        <time>2020-05-14T14:08:21Z</time>
      </trkpt>
      <trkpt lat="43.72047" lon="6.97161">
        <ele>740.46435546875</ele>
        <time>2020-05-14T14:08:22Z</time>
      </trkpt>
      <trkpt lat="43.72047" lon="6.97164">
        <ele>738.58618164062</ele>
        <time>2020-05-14T14:08:23Z</time>
      </trkpt>
      <trkpt lat="43.72047" lon="6.97168">
        <ele>738.10498046875</ele>
        <time>2020-05-14T14:08:24Z</time>
      </trkpt>
      <trkpt lat="43.72047" lon="6.97171">
        <ele>737.64562988281</ele>
        <time>2020-05-14T14:08:25Z</time>
      </trkpt>
      <trkpt lat="43.72046" lon="6.97174">
        <ele>737.96459960938</ele>
        <time>2020-05-14T14:08:26Z</time>
      </trkpt>
      <trkpt lat="43.72046" lon="6.97177">
        <ele>737.22827148438</ele>
        <time>2020-05-14T14:08:27Z</time>
      </trkpt>
      <trkpt lat="43.72045" lon="6.9718">
        <ele>735.90612792969</ele>
        <time>2020-05-14T14:08:28Z</time>
      </trkpt>
      <trkpt lat="43.72044" lon="6.97183">
        <ele>735.53466796875</ele>
        <time>2020-05-14T14:08:29Z</time>
      </trkpt>
      <trkpt lat="43.72043" lon="6.97185">
        <ele>735.40051269531</ele>
        <time>2020-05-14T14:08:30Z</time>
      </trkpt>
      <trkpt lat="43.72042" lon="6.97188">
        <ele>736.85766601562</ele>
        <time>2020-05-14T14:08:31Z</time>
      </trkpt>
      <trkpt lat="43.72041" lon="6.97191">
        <ele>736.78466796875</ele>
        <time>2020-05-14T14:08:32Z</time>
      </trkpt>
      <trkpt lat="43.72041" lon="6.97194">
        <ele>736.57275390625</ele>
        <time>2020-05-14T14:08:33Z</time>
      </trkpt>
      <trkpt lat="43.7204" lon="6.97197">
        <ele>736.94287109375</ele>
        <time>2020-05-14T14:08:34Z</time>
      </trkpt>
      <trkpt lat="43.7204" lon="6.97201">
        <ele>736.95141601562</ele>
        <time>2020-05-14T14:08:35Z</time>
      </trkpt>
      <trkpt lat="43.72039" lon="6.97204">
        <ele>736.67065429688</ele>
        <time>2020-05-14T14:08:36Z</time>
      </trkpt>
      <trkpt lat="43.72038" lon="6.97207">
        <ele>736.4072265625</ele>
        <time>2020-05-14T14:08:37Z</time>
      </trkpt>
      <trkpt lat="43.72037" lon="6.9721">
        <ele>738.15844726562</ele>
        <time>2020-05-14T14:08:38Z</time>
      </trkpt>
      <trkpt lat="43.72036" lon="6.97214">
        <ele>739.24963378906</ele>
        <time>2020-05-14T14:08:39Z</time>
      </trkpt>
      <trkpt lat="43.72036" lon="6.97217">
        <ele>740.6025390625</ele>
        <time>2020-05-14T14:08:40Z</time>
      </trkpt>
      <trkpt lat="43.72035" lon="6.9722">
        <ele>740.98095703125</ele>
        <time>2020-05-14T14:08:41Z</time>
      </trkpt>
      <trkpt lat="43.72034" lon="6.97223">
        <ele>737.46923828125</ele>
        <time>2020-05-14T14:08:42Z</time>
      </trkpt>
      <trkpt lat="43.72034" lon="6.97226">
        <ele>736.68872070312</ele>
        <time>2020-05-14T14:08:43Z</time>
      </trkpt>
      <trkpt lat="43.72033" lon="6.97229">
        <ele>736.23754882812</ele>
        <time>2020-05-14T14:08:44Z</time>
      </trkpt>
      <trkpt lat="43.72033" lon="6.97232">
        <ele>736.1865234375</ele>
        <time>2020-05-14T14:08:45Z</time>
      </trkpt>
      <trkpt lat="43.72033" lon="6.97236">
        <ele>741.89794921875</ele>
        <time>2020-05-14T14:08:46Z</time>
      </trkpt>
      <trkpt lat="43.72033" lon="6.97239">
        <ele>739.96533203125</ele>
        <time>2020-05-14T14:08:47Z</time>
      </trkpt>
      <trkpt lat="43.72032" lon="6.97242">
        <ele>739.48754882812</ele>
        <time>2020-05-14T14:08:48Z</time>
      </trkpt>
      <trkpt lat="43.72032" lon="6.97246">
        <ele>739.97631835938</ele>
        <time>2020-05-14T14:08:49Z</time>
      </trkpt>
      <trkpt lat="43.72032" lon="6.97249">
        <ele>739.8837890625</ele>
        <time>2020-05-14T14:08:50Z</time>
      </trkpt>
      <trkpt lat="43.72032" lon="6.97252">
        <ele>735.98913574219</ele>
        <time>2020-05-14T14:08:51Z</time>
      </trkpt>
      <trkpt lat="43.72033" lon="6.97255">
        <ele>735.32641601562</ele>
        <time>2020-05-14T14:08:52Z</time>
      </trkpt>
      <trkpt lat="43.72033" lon="6.97258">
        <ele>734.81323242188</ele>
        <time>2020-05-14T14:08:53Z</time>
      </trkpt>
      <trkpt lat="43.72033" lon="6.97261">
        <ele>734.25134277344</ele>
        <time>2020-05-14T14:08:54Z</time>
      </trkpt>
      <trkpt lat="43.72034" lon="6.97264">
        <ele>738.46008300781</ele>
        <time>2020-05-14T14:08:55Z</time>
      </trkpt>
      <trkpt lat="43.72034" lon="6.97268">
        <ele>736.798828125</ele>
        <time>2020-05-14T14:08:56Z</time>
      </trkpt>
      <trkpt lat="43.72035" lon="6.97272">
        <ele>735.72973632812</ele>
        <time>2020-05-14T14:08:57Z</time>
      </trkpt>
      <trkpt lat="43.72036" lon="6.97275">
        <ele>735.27661132812</ele>
        <time>2020-05-14T14:08:58Z</time>
      </trkpt>
      <trkpt lat="43.72036" lon="6.97278">
        <ele>735.37133789062</ele>
        <time>2020-05-14T14:08:59Z</time>
      </trkpt>
      <trkpt lat="43.72037" lon="6.97281">
        <ele>734.96240234375</ele>
        <time>2020-05-14T14:09:00Z</time>
      </trkpt>
      <trkpt lat="43.72039" lon="6.97283">
        <ele>732.16430664062</ele>
        <time>2020-05-14T14:09:01Z</time>
      </trkpt>
      <trkpt lat="43.7204" lon="6.97286">
        <ele>732.150390625</ele>
        <time>2020-05-14T14:09:02Z</time>
      </trkpt>
      <trkpt lat="43.72041" lon="6.97289">
        <ele>737.7998046875</ele>
        <time>2020-05-14T14:09:03Z</time>
      </trkpt>
      <trkpt lat="43.72042" lon="6.97291">
        <ele>736.94995117188</ele>
        <time>2020-05-14T14:09:04Z</time>
      </trkpt>
      <trkpt lat="43.72043" lon="6.97294">
        <ele>737.28332519531</ele>
        <time>2020-05-14T14:09:05Z</time>
      </trkpt>
      <trkpt lat="43.72044" lon="6.97297">
        <ele>737.33081054688</ele>
        <time>2020-05-14T14:09:06Z</time>
      </trkpt>
      <trkpt lat="43.72045" lon="6.973">
        <ele>738.00756835938</ele>
        <time>2020-05-14T14:09:07Z</time>
      </trkpt>
      <trkpt lat="43.72046" lon="6.97302">
        <ele>733.9111328125</ele>
        <time>2020-05-14T14:09:08Z</time>
      </trkpt>
      <trkpt lat="43.72048" lon="6.97305">
        <ele>733.98803710938</ele>
        <time>2020-05-14T14:09:09Z</time>
      </trkpt>
      <trkpt lat="43.72049" lon="6.97308">
        <ele>734.09838867188</ele>
        <time>2020-05-14T14:09:10Z</time>
      </trkpt>
      <trkpt lat="43.7205" lon="6.97311">
        <ele>733.54443359375</ele>
        <time>2020-05-14T14:09:11Z</time>
      </trkpt>
      <trkpt lat="43.72052" lon="6.97313">
        <ele>733.43334960938</ele>
        <time>2020-05-14T14:09:12Z</time>
      </trkpt>
      <trkpt lat="43.72053" lon="6.97316">
        <ele>733.37231445312</ele>
        <time>2020-05-14T14:09:13Z</time>
      </trkpt>
      <trkpt lat="43.72054" lon="6.97319">
        <ele>733.267578125</ele>
        <time>2020-05-14T14:09:14Z</time>
      </trkpt>
      <trkpt lat="43.72055" lon="6.97322">
        <ele>733.4423828125</ele>
        <time>2020-05-14T14:09:15Z</time>
      </trkpt>
      <trkpt lat="43.72055" lon="6.97325">
        <ele>732.62243652344</ele>
        <time>2020-05-14T14:09:16Z</time>
      </trkpt>
      <trkpt lat="43.72055" lon="6.97329">
        <ele>732.154296875</ele>
        <time>2020-05-14T14:09:17Z</time>
      </trkpt>
      <trkpt lat="43.72056" lon="6.97332">
        <ele>733.13916015625</ele>
        <time>2020-05-14T14:09:18Z</time>
      </trkpt>
      <trkpt lat="43.72056" lon="6.97335">
        <ele>733.10083007812</ele>
        <time>2020-05-14T14:09:19Z</time>
      </trkpt>
      <trkpt lat="43.72057" lon="6.97338">
        <ele>737.69079589844</ele>
        <time>2020-05-14T14:09:20Z</time>
      </trkpt>
      <trkpt lat="43.72058" lon="6.97342">
        <ele>737.345703125</ele>
        <time>2020-05-14T14:09:21Z</time>
      </trkpt>
      <trkpt lat="43.72059" lon="6.97345">
        <ele>738.72216796875</ele>
        <time>2020-05-14T14:09:22Z</time>
      </trkpt>
      <trkpt lat="43.72059" lon="6.97348">
        <ele>736.56408691406</ele>
        <time>2020-05-14T14:09:23Z</time>
      </trkpt>
      <trkpt lat="43.7206" lon="6.97352">
        <ele>733.60986328125</ele>
        <time>2020-05-14T14:09:24Z</time>
      </trkpt>
      <trkpt lat="43.7206" lon="6.97355">
        <ele>732.90307617188</ele>
        <time>2020-05-14T14:09:25Z</time>
      </trkpt>
      <trkpt lat="43.72061" lon="6.97358">
        <ele>738.16259765625</ele>
        <time>2020-05-14T14:09:26Z</time>
      </trkpt>
      <trkpt lat="43.72061" lon="6.97361">
        <ele>736.50024414062</ele>
        <time>2020-05-14T14:09:27Z</time>
      </trkpt>
      <trkpt lat="43.72061" lon="6.97364">
        <ele>736.62878417969</ele>
        <time>2020-05-14T14:09:28Z</time>
      </trkpt>
      <trkpt lat="43.72062" lon="6.97368">
        <ele>733.42236328125</ele>
        <time>2020-05-14T14:09:29Z</time>
      </trkpt>
      <trkpt lat="43.72062" lon="6.97371">
        <ele>732.99340820312</ele>
        <time>2020-05-14T14:09:30Z</time>
      </trkpt>
      <trkpt lat="43.72062" lon="6.97374">
        <ele>732.92456054688</ele>
        <time>2020-05-14T14:09:31Z</time>
      </trkpt>
      <trkpt lat="43.72063" lon="6.97377">
        <ele>733.16259765625</ele>
        <time>2020-05-14T14:09:32Z</time>
      </trkpt>
      <trkpt lat="43.72063" lon="6.9738">
        <ele>732.93627929688</ele>
        <time>2020-05-14T14:09:33Z</time>
      </trkpt>
      <trkpt lat="43.72063" lon="6.97383">
        <ele>732.91162109375</ele>
        <time>2020-05-14T14:09:34Z</time>
      </trkpt>
      <trkpt lat="43.72063" lon="6.97386">
        <ele>738.12097167969</ele>
        <time>2020-05-14T14:09:35Z</time>
      </trkpt>
      <trkpt lat="43.72063" lon="6.97389">
        <ele>736.46508789062</ele>
        <time>2020-05-14T14:09:36Z</time>
      </trkpt>
      <trkpt lat="43.72062" lon="6.97393">
        <ele>736.720703125</ele>
        <time>2020-05-14T14:09:37Z</time>
      </trkpt>
      <trkpt lat="43.72062" lon="6.97396">
        <ele>736.06591796875</ele>
        <time>2020-05-14T14:09:38Z</time>
      </trkpt>
      <trkpt lat="43.72061" lon="6.974">
        <ele>736.83605957031</ele>
        <time>2020-05-14T14:09:39Z</time>
      </trkpt>
      <trkpt lat="43.72061" lon="6.97403">
        <ele>733.49951171875</ele>
        <time>2020-05-14T14:09:40Z</time>
      </trkpt>
      <trkpt lat="43.7206" lon="6.97407">
        <ele>733.74340820312</ele>
        <time>2020-05-14T14:09:41Z</time>
      </trkpt>
      <trkpt lat="43.72059" lon="6.9741">
        <ele>734.06994628906</ele>
        <time>2020-05-14T14:09:42Z</time>
      </trkpt>
      <trkpt lat="43.72059" lon="6.97413">
        <ele>733.68383789062</ele>
        <time>2020-05-14T14:09:43Z</time>
      </trkpt>
      <trkpt lat="43.72058" lon="6.97417">
        <ele>732.74682617188</ele>
        <time>2020-05-14T14:09:44Z</time>
      </trkpt>
      <trkpt lat="43.72056" lon="6.9742">
        <ele>738.484375</ele>
        <time>2020-05-14T14:09:45Z</time>
      </trkpt>
      <trkpt lat="43.72055" lon="6.97423">
        <ele>737.79333496094</ele>
        <time>2020-05-14T14:09:46Z</time>
      </trkpt>
      <trkpt lat="43.72055" lon="6.97426">
        <ele>737.86645507812</ele>
        <time>2020-05-14T14:09:47Z</time>
      </trkpt>
      <trkpt lat="43.72054" lon="6.97429">
        <ele>738.296875</ele>
        <time>2020-05-14T14:09:48Z</time>
      </trkpt>
      <trkpt lat="43.72054" lon="6.97432">
        <ele>735.31408691406</ele>
        <time>2020-05-14T14:09:49Z</time>
      </trkpt>
      <trkpt lat="43.72053" lon="6.97434">
        <ele>735.02722167969</ele>
        <time>2020-05-14T14:09:50Z</time>
      </trkpt>
      <trkpt lat="43.72053" lon="6.97437">
        <ele>734.31811523438</ele>
        <time>2020-05-14T14:09:51Z</time>
      </trkpt>
      <trkpt lat="43.72053" lon="6.9744">
        <ele>741.09594726562</ele>
        <time>2020-05-14T14:09:52Z</time>
      </trkpt>
      <trkpt lat="43.72054" lon="6.97444">
        <ele>739.591796875</ele>
        <time>2020-05-14T14:09:53Z</time>
      </trkpt>
      <trkpt lat="43.72054" lon="6.97447">
        <ele>739.32873535156</ele>
        <time>2020-05-14T14:09:54Z</time>
      </trkpt>
      <trkpt lat="43.72055" lon="6.97451">
        <ele>739.44445800781</ele>
        <time>2020-05-14T14:09:55Z</time>
      </trkpt>
      <trkpt lat="43.72055" lon="6.97454">
        <ele>736.20849609375</ele>
        <time>2020-05-14T14:09:56Z</time>
      </trkpt>
      <trkpt lat="43.72056" lon="6.97457">
        <ele>735.30029296875</ele>
        <time>2020-05-14T14:09:57Z</time>
      </trkpt>
      <trkpt lat="43.72057" lon="6.97461">
        <ele>735.61694335938</ele>
        <time>2020-05-14T14:09:58Z</time>
      </trkpt>
      <trkpt lat="43.72058" lon="6.97464">
        <ele>741.873046875</ele>
        <time>2020-05-14T14:09:59Z</time>
      </trkpt>
      <trkpt lat="43.72058" lon="6.97467">
        <ele>740.18334960938</ele>
        <time>2020-05-14T14:10:00Z</time>
      </trkpt>
      <trkpt lat="43.72059" lon="6.97471">
        <ele>740.54174804688</ele>
        <time>2020-05-14T14:10:01Z</time>
      </trkpt>
      <trkpt lat="43.7206" lon="6.97474">
        <ele>741.81567382812</ele>
        <time>2020-05-14T14:10:02Z</time>
      </trkpt>
      <trkpt lat="43.7206" lon="6.97478">
        <ele>741.15454101562</ele>
        <time>2020-05-14T14:10:03Z</time>
      </trkpt>
      <trkpt lat="43.72061" lon="6.97481">
        <ele>741.20458984375</ele>
        <time>2020-05-14T14:10:04Z</time>
      </trkpt>
      <trkpt lat="43.72061" lon="6.97485">
        <ele>741.31005859375</ele>
        <time>2020-05-14T14:10:05Z</time>
      </trkpt>
      <trkpt lat="43.72061" lon="6.97488">
        <ele>741.95532226562</ele>
        <time>2020-05-14T14:10:06Z</time>
      </trkpt>
      <trkpt lat="43.72062" lon="6.97491">
        <ele>741.720703125</ele>
        <time>2020-05-14T14:10:07Z</time>
      </trkpt>
      <trkpt lat="43.72062" lon="6.97495">
        <ele>741.42150878906</ele>
        <time>2020-05-14T14:10:08Z</time>
      </trkpt>
      <trkpt lat="43.72063" lon="6.97498">
        <ele>740.91796875</ele>
        <time>2020-05-14T14:10:09Z</time>
      </trkpt>
      <trkpt lat="43.72063" lon="6.975">
        <ele>735.236328125</ele>
        <time>2020-05-14T14:10:10Z</time>
      </trkpt>
      <trkpt lat="43.72064" lon="6.97503">
        <ele>735.24377441406</ele>
        <time>2020-05-14T14:10:11Z</time>
      </trkpt>
      <trkpt lat="43.72064" lon="6.97506">
        <ele>734.92578125</ele>
        <time>2020-05-14T14:10:12Z</time>
      </trkpt>
      <trkpt lat="43.72064" lon="6.97508">
        <ele>735.17883300781</ele>
        <time>2020-05-14T14:10:13Z</time>
      </trkpt>
      <trkpt lat="43.72064" lon="6.97511">
        <ele>735.34790039062</ele>
        <time>2020-05-14T14:10:14Z</time>
      </trkpt>
      <trkpt lat="43.72065" lon="6.97513">
        <ele>743.8193359375</ele>
        <time>2020-05-14T14:10:15Z</time>
      </trkpt>
      <trkpt lat="43.72066" lon="6.97516">
        <ele>742.529296875</ele>
        <time>2020-05-14T14:10:16Z</time>
      </trkpt>
      <trkpt lat="43.72067" lon="6.97519">
        <ele>741.263671875</ele>
        <time>2020-05-14T14:10:17Z</time>
      </trkpt>
      <trkpt lat="43.72068" lon="6.97522">
        <ele>740.43920898438</ele>
        <time>2020-05-14T14:10:18Z</time>
      </trkpt>
      <trkpt lat="43.72069" lon="6.97525">
        <ele>740.04846191406</ele>
        <time>2020-05-14T14:10:19Z</time>
      </trkpt>
      <trkpt lat="43.7207" lon="6.97527">
        <ele>735.63842773438</ele>
        <time>2020-05-14T14:10:20Z</time>
      </trkpt>
      <trkpt lat="43.72071" lon="6.9753">
        <ele>735.41186523438</ele>
        <time>2020-05-14T14:10:21Z</time>
      </trkpt>
      <trkpt lat="43.72072" lon="6.97532">
        <ele>736.21362304688</ele>
        <time>2020-05-14T14:10:22Z</time>
      </trkpt>
      <trkpt lat="43.72072" lon="6.97534">
        <ele>735.46166992188</ele>
        <time>2020-05-14T14:10:23Z</time>
      </trkpt>
      <trkpt lat="43.72073" lon="6.97537">
        <ele>735.31420898438</ele>
        <time>2020-05-14T14:10:24Z</time>
      </trkpt>
      <trkpt lat="43.72074" lon="6.97539">
        <ele>736.02062988281</ele>
        <time>2020-05-14T14:10:25Z</time>
      </trkpt>
      <trkpt lat="43.72074" lon="6.97542">
        <ele>736.07727050781</ele>
        <time>2020-05-14T14:10:26Z</time>
      </trkpt>
      <trkpt lat="43.72075" lon="6.97544">
        <ele>736.46618652344</ele>
        <time>2020-05-14T14:10:27Z</time>
      </trkpt>
      <trkpt lat="43.72076" lon="6.97547">
        <ele>738.2578125</ele>
        <time>2020-05-14T14:10:28Z</time>
      </trkpt>
      <trkpt lat="43.72078" lon="6.97549">
        <ele>737.5546875</ele>
        <time>2020-05-14T14:10:29Z</time>
      </trkpt>
      <trkpt lat="43.72079" lon="6.97552">
        <ele>737.55859375</ele>
        <time>2020-05-14T14:10:30Z</time>
      </trkpt>
      <trkpt lat="43.72081" lon="6.97553">
        <ele>744.4423828125</ele>
        <time>2020-05-14T14:10:31Z</time>
      </trkpt>
      <trkpt lat="43.72083" lon="6.97555">
        <ele>740.55590820312</ele>
        <time>2020-05-14T14:10:32Z</time>
      </trkpt>
      <trkpt lat="43.72086" lon="6.97556">
        <ele>739.48583984375</ele>
        <time>2020-05-14T14:10:33Z</time>
      </trkpt>
      <trkpt lat="43.72088" lon="6.97557">
        <ele>739.74584960938</ele>
        <time>2020-05-14T14:10:34Z</time>
      </trkpt>
      <trkpt lat="43.7209" lon="6.97559">
        <ele>728.7177734375</ele>
        <time>2020-05-14T14:10:35Z</time>
      </trkpt>
      <trkpt lat="43.72093" lon="6.9756">
        <ele>734.54663085938</ele>
        <time>2020-05-14T14:10:36Z</time>
      </trkpt>
      <trkpt lat="43.72095" lon="6.9756">
        <ele>736.76110839844</ele>
        <time>2020-05-14T14:10:37Z</time>
      </trkpt>
      <trkpt lat="43.72098" lon="6.97561">
        <ele>738.96508789062</ele>
        <time>2020-05-14T14:10:38Z</time>
      </trkpt>
      <trkpt lat="43.721" lon="6.97561">
        <ele>740.24157714844</ele>
        <time>2020-05-14T14:10:39Z</time>
      </trkpt>
      <trkpt lat="43.72103" lon="6.97562">
        <ele>741.70385742188</ele>
        <time>2020-05-14T14:10:40Z</time>
      </trkpt>
      <trkpt lat="43.72105" lon="6.97562">
        <ele>744.845703125</ele>
        <time>2020-05-14T14:10:41Z</time>
      </trkpt>
      <trkpt lat="43.72107" lon="6.97561">
        <ele>746.83508300781</ele>
        <time>2020-05-14T14:10:42Z</time>
      </trkpt>
      <trkpt lat="43.7211" lon="6.97561">
        <ele>745.74609375</ele>
        <time>2020-05-14T14:10:43Z</time>
      </trkpt>
      <trkpt lat="43.72112" lon="6.97561">
        <ele>740.88977050781</ele>
        <time>2020-05-14T14:10:44Z</time>
      </trkpt>
      <trkpt lat="43.72114" lon="6.97562">
        <ele>738.4853515625</ele>
        <time>2020-05-14T14:10:45Z</time>
      </trkpt>
      <trkpt lat="43.72116" lon="6.97563">
        <ele>735.77709960938</ele>
        <time>2020-05-14T14:10:46Z</time>
      </trkpt>
      <trkpt lat="43.72117" lon="6.97565">
        <ele>731.9931640625</ele>
        <time>2020-05-14T14:10:47Z</time>
      </trkpt>
      <trkpt lat="43.72119" lon="6.97568">
        <ele>740.4375</ele>
        <time>2020-05-14T14:10:48Z</time>
      </trkpt>
      <trkpt lat="43.7212" lon="6.97571">
        <ele>733.18676757812</ele>
        <time>2020-05-14T14:10:49Z</time>
      </trkpt>
      <trkpt lat="43.72121" lon="6.97574">
        <ele>731.939453125</ele>
        <time>2020-05-14T14:10:50Z</time>
      </trkpt>
      <trkpt lat="43.72122" lon="6.97578">
        <ele>730.3583984375</ele>
        <time>2020-05-14T14:10:51Z</time>
      </trkpt>
      <trkpt lat="43.72122" lon="6.97581">
        <ele>731.90637207031</ele>
        <time>2020-05-14T14:10:52Z</time>
      </trkpt>
      <trkpt lat="43.72123" lon="6.97585">
        <ele>733.66491699219</ele>
        <time>2020-05-14T14:10:53Z</time>
      </trkpt>
      <trkpt lat="43.72123" lon="6.97589">
        <ele>727.37939453125</ele>
        <time>2020-05-14T14:10:54Z</time>
      </trkpt>
      <trkpt lat="43.72123" lon="6.97592">
        <ele>729.00952148438</ele>
        <time>2020-05-14T14:10:55Z</time>
      </trkpt>
      <trkpt lat="43.72123" lon="6.97596">
        <ele>729.03625488281</ele>
        <time>2020-05-14T14:10:56Z</time>
      </trkpt>
      <trkpt lat="43.72122" lon="6.97599">
        <ele>742.44982910156</ele>
        <time>2020-05-14T14:10:57Z</time>
      </trkpt>
      <trkpt lat="43.72121" lon="6.97603">
        <ele>739.33264160156</ele>
        <time>2020-05-14T14:10:58Z</time>
      </trkpt>
      <trkpt lat="43.7212" lon="6.97606">
        <ele>741.91040039062</ele>
        <time>2020-05-14T14:10:59Z</time>
      </trkpt>
      <trkpt lat="43.72119" lon="6.97609">
        <ele>744.80773925781</ele>
        <time>2020-05-14T14:11:00Z</time>
      </trkpt>
      <trkpt lat="43.72119" lon="6.97611">
        <ele>746.78833007812</ele>
        <time>2020-05-14T14:11:01Z</time>
      </trkpt>
      <trkpt lat="43.72118" lon="6.97614">
        <ele>743.85864257812</ele>
        <time>2020-05-14T14:11:02Z</time>
      </trkpt>
      <trkpt lat="43.72117" lon="6.97617">
        <ele>744.40649414062</ele>
        <time>2020-05-14T14:11:03Z</time>
      </trkpt>
      <trkpt lat="43.72115" lon="6.9762">
        <ele>741.84790039062</ele>
        <time>2020-05-14T14:11:04Z</time>
      </trkpt>
      <trkpt lat="43.72113" lon="6.97622">
        <ele>741.82019042969</ele>
        <time>2020-05-14T14:11:05Z</time>
      </trkpt>
      <trkpt lat="43.72111" lon="6.97624">
        <ele>741.18115234375</ele>
        <time>2020-05-14T14:11:06Z</time>
      </trkpt>
      <trkpt lat="43.72109" lon="6.97625">
        <ele>739.8388671875</ele>
        <time>2020-05-14T14:11:07Z</time>
      </trkpt>
      <trkpt lat="43.72108" lon="6.97627">
        <ele>738.74096679688</ele>
        <time>2020-05-14T14:11:08Z</time>
      </trkpt>
      <trkpt lat="43.72106" lon="6.97629">
        <ele>735.43359375</ele>
        <time>2020-05-14T14:11:09Z</time>
      </trkpt>
      <trkpt lat="43.72105" lon="6.97632">
        <ele>745.2705078125</ele>
        <time>2020-05-14T14:11:10Z</time>
      </trkpt>
      <trkpt lat="43.72103" lon="6.97634">
        <ele>741.40161132812</ele>
        <time>2020-05-14T14:11:11Z</time>
      </trkpt>
      <trkpt lat="43.72102" lon="6.97636">
        <ele>740.94897460938</ele>
        <time>2020-05-14T14:11:12Z</time>
      </trkpt>
      <trkpt lat="43.72101" lon="6.97638">
        <ele>740.22570800781</ele>
        <time>2020-05-14T14:11:13Z</time>
      </trkpt>
      <trkpt lat="43.721" lon="6.9764">
        <ele>738.2666015625</ele>
        <time>2020-05-14T14:11:14Z</time>
      </trkpt>
      <trkpt lat="43.721" lon="6.97642">
        <ele>730.46850585938</ele>
        <time>2020-05-14T14:11:15Z</time>
      </trkpt>
      <trkpt lat="43.72099" lon="6.97645">
        <ele>730.30786132812</ele>
        <time>2020-05-14T14:11:16Z</time>
      </trkpt>
      <trkpt lat="43.72098" lon="6.97648">
        <ele>740.06579589844</ele>
        <time>2020-05-14T14:11:17Z</time>
      </trkpt>
      <trkpt lat="43.72098" lon="6.97651">
        <ele>736.58081054688</ele>
        <time>2020-05-14T14:11:18Z</time>
      </trkpt>
      <trkpt lat="43.72098" lon="6.97655">
        <ele>735.3056640625</ele>
        <time>2020-05-14T14:11:19Z</time>
      </trkpt>
      <trkpt lat="43.72098" lon="6.97658">
        <ele>734.08740234375</ele>
        <time>2020-05-14T14:11:20Z</time>
      </trkpt>
      <trkpt lat="43.72098" lon="6.97661">
        <ele>728.9072265625</ele>
        <time>2020-05-14T14:11:21Z</time>
      </trkpt>
      <trkpt lat="43.72098" lon="6.97664">
        <ele>728.14196777344</ele>
        <time>2020-05-14T14:11:22Z</time>
      </trkpt>
      <trkpt lat="43.72098" lon="6.97667">
        <ele>741.55419921875</ele>
        <time>2020-05-14T14:11:23Z</time>
      </trkpt>
      <trkpt lat="43.72099" lon="6.9767">
        <ele>742.37780761719</ele>
        <time>2020-05-14T14:11:24Z</time>
      </trkpt>
      <trkpt lat="43.72099" lon="6.97673">
        <ele>737.74853515625</ele>
        <time>2020-05-14T14:11:25Z</time>
      </trkpt>
      <trkpt lat="43.721" lon="6.97675">
        <ele>733.39233398438</ele>
        <time>2020-05-14T14:11:26Z</time>
      </trkpt>
      <trkpt lat="43.72102" lon="6.97677">
        <ele>732.97229003906</ele>
        <time>2020-05-14T14:11:27Z</time>
      </trkpt>
      <trkpt lat="43.72103" lon="6.9768">
        <ele>732.53173828125</ele>
        <time>2020-05-14T14:11:28Z</time>
      </trkpt>
      <trkpt lat="43.72105" lon="6.97682">
        <ele>731.58154296875</ele>
        <time>2020-05-14T14:11:29Z</time>
      </trkpt>
      <trkpt lat="43.72106" lon="6.97683">
        <ele>732.79760742188</ele>
        <time>2020-05-14T14:11:30Z</time>
      </trkpt>
      <trkpt lat="43.72108" lon="6.97685">
        <ele>731.49462890625</ele>
        <time>2020-05-14T14:11:31Z</time>
      </trkpt>
      <trkpt lat="43.7211" lon="6.97686">
        <ele>732.43896484375</ele>
        <time>2020-05-14T14:11:32Z</time>
      </trkpt>
      <trkpt lat="43.72112" lon="6.97687">
        <ele>744.43041992188</ele>
        <time>2020-05-14T14:11:33Z</time>
      </trkpt>
      <trkpt lat="43.72114" lon="6.97689">
        <ele>741.87036132812</ele>
        <time>2020-05-14T14:11:34Z</time>
      </trkpt>
      <trkpt lat="43.72116" lon="6.97691">
        <ele>742.29345703125</ele>
        <time>2020-05-14T14:11:35Z</time>
      </trkpt>
      <trkpt lat="43.72118" lon="6.97693">
        <ele>743.05224609375</ele>
        <time>2020-05-14T14:11:36Z</time>
      </trkpt>
      <trkpt lat="43.72119" lon="6.97695">
        <ele>739.53735351562</ele>
        <time>2020-05-14T14:11:37Z</time>
      </trkpt>
      <trkpt lat="43.7212" lon="6.97698">
        <ele>739.53588867188</ele>
        <time>2020-05-14T14:11:38Z</time>
      </trkpt>
      <trkpt lat="43.72121" lon="6.977">
        <ele>739.17944335938</ele>
        <time>2020-05-14T14:11:39Z</time>
      </trkpt>
      <trkpt lat="43.72122" lon="6.97703">
        <ele>738.26806640625</ele>
        <time>2020-05-14T14:11:40Z</time>
      </trkpt>
      <trkpt lat="43.72122" lon="6.97706">
        <ele>736.66235351562</ele>
        <time>2020-05-14T14:11:41Z</time>
      </trkpt>
      <trkpt lat="43.72123" lon="6.97708">
        <ele>741.08715820312</ele>
        <time>2020-05-14T14:11:42Z</time>
      </trkpt>
      <trkpt lat="43.72124" lon="6.9771">
        <ele>744.34936523438</ele>
        <time>2020-05-14T14:11:43Z</time>
      </trkpt>
      <trkpt lat="43.72125" lon="6.97712">
        <ele>748.56420898438</ele>
        <time>2020-05-14T14:11:44Z</time>
      </trkpt>
      <trkpt lat="43.72126" lon="6.97714">
        <ele>745.89587402344</ele>
        <time>2020-05-14T14:11:45Z</time>
      </trkpt>
      <trkpt lat="43.72127" lon="6.97716">
        <ele>743.7490234375</ele>
        <time>2020-05-14T14:11:46Z</time>
      </trkpt>
      <trkpt lat="43.72128" lon="6.97718">
        <ele>740.21362304688</ele>
        <time>2020-05-14T14:11:47Z</time>
      </trkpt>
      <trkpt lat="43.72129" lon="6.9772">
        <ele>736.388671875</ele>
        <time>2020-05-14T14:11:48Z</time>
      </trkpt>
      <trkpt lat="43.72129" lon="6.97722">
        <ele>734.48071289062</ele>
        <time>2020-05-14T14:11:49Z</time>
      </trkpt>
      <trkpt lat="43.72129" lon="6.97724">
        <ele>736.32006835938</ele>
        <time>2020-05-14T14:11:50Z</time>
      </trkpt>
      <trkpt lat="43.72128" lon="6.97726">
        <ele>738.74291992188</ele>
        <time>2020-05-14T14:11:51Z</time>
      </trkpt>
      <trkpt lat="43.72126" lon="6.97727">
        <ele>740.57775878906</ele>
        <time>2020-05-14T14:11:52Z</time>
      </trkpt>
      <trkpt lat="43.72124" lon="6.97729">
        <ele>742.35595703125</ele>
        <time>2020-05-14T14:11:53Z</time>
      </trkpt>
      <trkpt lat="43.72122" lon="6.97729">
        <ele>746.63586425781</ele>
        <time>2020-05-14T14:11:54Z</time>
      </trkpt>
      <trkpt lat="43.72121" lon="6.97731">
        <ele>744.14208984375</ele>
        <time>2020-05-14T14:11:55Z</time>
      </trkpt>
      <trkpt lat="43.7212" lon="6.97733">
        <ele>741.20751953125</ele>
        <time>2020-05-14T14:11:56Z</time>
      </trkpt>
      <trkpt lat="43.72119" lon="6.97734">
        <ele>742.72827148438</ele>
        <time>2020-05-14T14:11:57Z</time>
      </trkpt>
      <trkpt lat="43.72119" lon="6.97736">
        <ele>743.74877929688</ele>
        <time>2020-05-14T14:11:58Z</time>
      </trkpt>
      <trkpt lat="43.72119" lon="6.97737">
        <ele>761.10107421875</ele>
        <time>2020-05-14T14:11:59Z</time>
      </trkpt>
      <trkpt lat="43.72118" lon="6.97739">
        <ele>757.58642578125</ele>
        <time>2020-05-14T14:12:00Z</time>
      </trkpt>
      <trkpt lat="43.72118" lon="6.97741">
        <ele>760.31359863281</ele>
        <time>2020-05-14T14:12:01Z</time>
      </trkpt>
      <trkpt lat="43.72117" lon="6.97742">
        <ele>760.21081542969</ele>
        <time>2020-05-14T14:12:02Z</time>
      </trkpt>
      <trkpt lat="43.72117" lon="6.97744">
        <ele>760.73193359375</ele>
        <time>2020-05-14T14:12:03Z</time>
      </trkpt>
      <trkpt lat="43.72116" lon="6.97746">
        <ele>752.9560546875</ele>
        <time>2020-05-14T14:12:04Z</time>
      </trkpt>
      <trkpt lat="43.72114" lon="6.97748">
        <ele>750.86010742188</ele>
        <time>2020-05-14T14:12:05Z</time>
      </trkpt>
      <trkpt lat="43.72113" lon="6.9775">
        <ele>744.47534179688</ele>
        <time>2020-05-14T14:12:06Z</time>
      </trkpt>
      <trkpt lat="43.72112" lon="6.97753">
        <ele>741.53759765625</ele>
        <time>2020-05-14T14:12:07Z</time>
      </trkpt>
      <trkpt lat="43.72111" lon="6.97756">
        <ele>752.36401367188</ele>
        <time>2020-05-14T14:12:08Z</time>
      </trkpt>
      <trkpt lat="43.7211" lon="6.97759">
        <ele>752.14294433594</ele>
        <time>2020-05-14T14:12:09Z</time>
      </trkpt>
      <trkpt lat="43.72109" lon="6.97761">
        <ele>752.24438476562</ele>
        <time>2020-05-14T14:12:10Z</time>
      </trkpt>
      <trkpt lat="43.72108" lon="6.97763">
        <ele>751.96313476562</ele>
        <time>2020-05-14T14:12:11Z</time>
      </trkpt>
      <trkpt lat="43.72106" lon="6.97765">
        <ele>750.82592773438</ele>
        <time>2020-05-14T14:12:12Z</time>
      </trkpt>
      <trkpt lat="43.72105" lon="6.97767">
        <ele>750.03100585938</ele>
        <time>2020-05-14T14:12:13Z</time>
      </trkpt>
      <trkpt lat="43.72104" lon="6.97768">
        <ele>748.99792480469</ele>
        <time>2020-05-14T14:12:14Z</time>
      </trkpt>
      <trkpt lat="43.72103" lon="6.9777">
        <ele>749.18286132812</ele>
        <time>2020-05-14T14:12:15Z</time>
      </trkpt>
      <trkpt lat="43.72101" lon="6.97772">
        <ele>751.3818359375</ele>
        <time>2020-05-14T14:12:16Z</time>
      </trkpt>
      <trkpt lat="43.72101" lon="6.97774">
        <ele>752.31994628906</ele>
        <time>2020-05-14T14:12:17Z</time>
      </trkpt>
      <trkpt lat="43.721" lon="6.97776">
        <ele>751.68664550781</ele>
        <time>2020-05-14T14:12:18Z</time>
      </trkpt>
      <trkpt lat="43.721" lon="6.97778">
        <ele>740.21215820312</ele>
        <time>2020-05-14T14:12:19Z</time>
      </trkpt>
      <trkpt lat="43.72099" lon="6.97781">
        <ele>741.6396484375</ele>
        <time>2020-05-14T14:12:20Z</time>
      </trkpt>
      <trkpt lat="43.72099" lon="6.97783">
        <ele>742.0908203125</ele>
        <time>2020-05-14T14:12:21Z</time>
      </trkpt>
      <trkpt lat="43.72097" lon="6.97785">
        <ele>741.48168945312</ele>
        <time>2020-05-14T14:12:22Z</time>
      </trkpt>
      <trkpt lat="43.72095" lon="6.97786">
        <ele>742.25708007812</ele>
        <time>2020-05-14T14:12:23Z</time>
      </trkpt>
      <trkpt lat="43.72093" lon="6.97787">
        <ele>744.42358398438</ele>
        <time>2020-05-14T14:12:24Z</time>
      </trkpt>
      <trkpt lat="43.72091" lon="6.97788">
        <ele>744.81091308594</ele>
        <time>2020-05-14T14:12:25Z</time>
      </trkpt>
      <trkpt lat="43.72089" lon="6.97789">
        <ele>758.751953125</ele>
        <time>2020-05-14T14:12:26Z</time>
      </trkpt>
      <trkpt lat="43.72087" lon="6.9779">
        <ele>754.5283203125</ele>
        <time>2020-05-14T14:12:27Z</time>
      </trkpt>
      <trkpt lat="43.72086" lon="6.97792">
        <ele>755.34814453125</ele>
        <time>2020-05-14T14:12:28Z</time>
      </trkpt>
      <trkpt lat="43.72084" lon="6.97794">
        <ele>753.40258789062</ele>
        <time>2020-05-14T14:12:29Z</time>
      </trkpt>
      <trkpt lat="43.72083" lon="6.97796">
        <ele>753.02416992188</ele>
        <time>2020-05-14T14:12:30Z</time>
      </trkpt>
      <trkpt lat="43.72082" lon="6.97798">
        <ele>749.63977050781</ele>
        <time>2020-05-14T14:12:31Z</time>
      </trkpt>
      <trkpt lat="43.72081" lon="6.97801">
        <ele>740.0068359375</ele>
        <time>2020-05-14T14:12:32Z</time>
      </trkpt>
      <trkpt lat="43.72079" lon="6.97802">
        <ele>740.947265625</ele>
        <time>2020-05-14T14:12:33Z</time>
      </trkpt>
      <trkpt lat="43.72077" lon="6.97803">
        <ele>741.11291503906</ele>
        <time>2020-05-14T14:12:34Z</time>
      </trkpt>
      <trkpt lat="43.72075" lon="6.97803">
        <ele>738.69287109375</ele>
        <time>2020-05-14T14:12:35Z</time>
      </trkpt>
      <trkpt lat="43.72073" lon="6.97804">
        <ele>739.08483886719</ele>
        <time>2020-05-14T14:12:36Z</time>
      </trkpt>
      <trkpt lat="43.72072" lon="6.97806">
        <ele>751.03955078125</ele>
        <time>2020-05-14T14:12:37Z</time>
      </trkpt>
      <trkpt lat="43.72071" lon="6.97808">
        <ele>749.34228515625</ele>
        <time>2020-05-14T14:12:38Z</time>
      </trkpt>
      <trkpt lat="43.72069" lon="6.9781">
        <ele>748.57849121094</ele>
        <time>2020-05-14T14:12:39Z</time>
      </trkpt>
      <trkpt lat="43.72068" lon="6.97812">
        <ele>750.00634765625</ele>
        <time>2020-05-14T14:12:40Z</time>
      </trkpt>
      <trkpt lat="43.72068" lon="6.97814">
        <ele>749.20056152344</ele>
        <time>2020-05-14T14:12:41Z</time>
      </trkpt>
      <trkpt lat="43.72067" lon="6.97816">
        <ele>746.060546875</ele>
        <time>2020-05-14T14:12:42Z</time>
      </trkpt>
      <trkpt lat="43.72065" lon="6.97817">
        <ele>747.94738769531</ele>
        <time>2020-05-14T14:12:43Z</time>
      </trkpt>
      <trkpt lat="43.72064" lon="6.97818">
        <ele>749.00048828125</ele>
        <time>2020-05-14T14:12:44Z</time>
      </trkpt>
      <trkpt lat="43.72062" lon="6.97819">
        <ele>740.6640625</ele>
        <time>2020-05-14T14:12:45Z</time>
      </trkpt>
      <trkpt lat="43.7206" lon="6.9782">
        <ele>736.8515625</ele>
        <time>2020-05-14T14:12:46Z</time>
      </trkpt>
      <trkpt lat="43.72057" lon="6.97821">
        <ele>734.69958496094</ele>
        <time>2020-05-14T14:12:47Z</time>
      </trkpt>
      <trkpt lat="43.72055" lon="6.97822">
        <ele>749.3310546875</ele>
        <time>2020-05-14T14:12:48Z</time>
      </trkpt>
      <trkpt lat="43.72054" lon="6.97824">
        <ele>744.45654296875</ele>
        <time>2020-05-14T14:12:49Z</time>
      </trkpt>
      <trkpt lat="43.72052" lon="6.97826">
        <ele>744.25769042969</ele>
        <time>2020-05-14T14:12:50Z</time>
      </trkpt>
      <trkpt lat="43.72051" lon="6.97828">
        <ele>741.4658203125</ele>
        <time>2020-05-14T14:12:51Z</time>
      </trkpt>
      <trkpt lat="43.72051" lon="6.97831">
        <ele>741.765625</ele>
        <time>2020-05-14T14:12:52Z</time>
      </trkpt>
      <trkpt lat="43.7205" lon="6.97832">
        <ele>742.27111816406</ele>
        <time>2020-05-14T14:12:53Z</time>
      </trkpt>
      <trkpt lat="43.72048" lon="6.97833">
        <ele>742.169921875</ele>
        <time>2020-05-14T14:12:54Z</time>
      </trkpt>
      <trkpt lat="43.72047" lon="6.97833">
        <ele>744.498046875</ele>
        <time>2020-05-14T14:12:55Z</time>
      </trkpt>
      <trkpt lat="43.72045" lon="6.97833">
        <ele>743.13842773438</ele>
        <time>2020-05-14T14:12:56Z</time>
      </trkpt>
      <trkpt lat="43.72043" lon="6.97834">
        <ele>740.03540039062</ele>
        <time>2020-05-14T14:12:57Z</time>
      </trkpt>
      <trkpt lat="43.72042" lon="6.97835">
        <ele>740.5849609375</ele>
        <time>2020-05-14T14:12:58Z</time>
      </trkpt>
      <trkpt lat="43.7204" lon="6.97836">
        <ele>745.65625</ele>
        <time>2020-05-14T14:12:59Z</time>
      </trkpt>
      <trkpt lat="43.72039" lon="6.97838">
        <ele>744.11291503906</ele>
        <time>2020-05-14T14:13:00Z</time>
      </trkpt>
      <trkpt lat="43.72039" lon="6.97841">
        <ele>742.40197753906</ele>
        <time>2020-05-14T14:13:01Z</time>
      </trkpt>
      <trkpt lat="43.72038" lon="6.97843">
        <ele>741.53588867188</ele>
        <time>2020-05-14T14:13:02Z</time>
      </trkpt>
      <trkpt lat="43.72037" lon="6.97846">
        <ele>740.8896484375</ele>
        <time>2020-05-14T14:13:03Z</time>
      </trkpt>
      <trkpt lat="43.72036" lon="6.97848">
        <ele>730.60620117188</ele>
        <time>2020-05-14T14:13:04Z</time>
      </trkpt>
      <trkpt lat="43.72035" lon="6.97851">
        <ele>730.66943359375</ele>
        <time>2020-05-14T14:13:05Z</time>
      </trkpt>
      <trkpt lat="43.72033" lon="6.97854">
        <ele>728.91845703125</ele>
        <time>2020-05-14T14:13:06Z</time>
      </trkpt>
      <trkpt lat="43.72033" lon="6.97857">
        <ele>743.98071289062</ele>
        <time>2020-05-14T14:13:07Z</time>
      </trkpt>
      <trkpt lat="43.72032" lon="6.97859">
        <ele>739.923828125</ele>
        <time>2020-05-14T14:13:08Z</time>
      </trkpt>
      <trkpt lat="43.72031" lon="6.97862">
        <ele>743.44396972656</ele>
        <time>2020-05-14T14:13:09Z</time>
      </trkpt>
      <trkpt lat="43.72031" lon="6.97865">
        <ele>749.24609375</ele>
        <time>2020-05-14T14:13:10Z</time>
      </trkpt>
      <trkpt lat="43.72031" lon="6.97868">
        <ele>749.6669921875</ele>
        <time>2020-05-14T14:13:11Z</time>
      </trkpt>
      <trkpt lat="43.7203" lon="6.9787">
        <ele>751.03076171875</ele>
        <time>2020-05-14T14:13:12Z</time>
      </trkpt>
      <trkpt lat="43.72029" lon="6.97871">
        <ele>752.84252929688</ele>
        <time>2020-05-14T14:13:13Z</time>
      </trkpt>
      <trkpt lat="43.72027" lon="6.97871">
        <ele>755.021484375</ele>
        <time>2020-05-14T14:13:14Z</time>
      </trkpt>
      <trkpt lat="43.72025" lon="6.97871">
        <ele>756.95947265625</ele>
        <time>2020-05-14T14:13:15Z</time>
      </trkpt>
      <trkpt lat="43.72023" lon="6.97871">
        <ele>758.00341796875</ele>
        <time>2020-05-14T14:13:16Z</time>
      </trkpt>
      <trkpt lat="43.72021" lon="6.97872">
        <ele>756.59033203125</ele>
        <time>2020-05-14T14:13:17Z</time>
      </trkpt>
      <trkpt lat="43.72019" lon="6.97872">
        <ele>752.9033203125</ele>
        <time>2020-05-14T14:13:18Z</time>
      </trkpt>
      <trkpt lat="43.72017" lon="6.97872">
        <ele>752.18896484375</ele>
        <time>2020-05-14T14:13:19Z</time>
      </trkpt>
      <trkpt lat="43.72016" lon="6.97872">
        <ele>755.02587890625</ele>
        <time>2020-05-14T14:13:20Z</time>
      </trkpt>
      <trkpt lat="43.72014" lon="6.97872">
        <ele>755.40478515625</ele>
        <time>2020-05-14T14:13:21Z</time>
      </trkpt>
      <trkpt lat="43.72013" lon="6.97872">
        <ele>755.84326171875</ele>
        <time>2020-05-14T14:13:22Z</time>
      </trkpt>
      <trkpt lat="43.72011" lon="6.97872">
        <ele>753.15551757812</ele>
        <time>2020-05-14T14:13:23Z</time>
      </trkpt>
      <trkpt lat="43.7201" lon="6.97873">
        <ele>741.87060546875</ele>
        <time>2020-05-14T14:13:24Z</time>
      </trkpt>
      <trkpt lat="43.72009" lon="6.97874">
        <ele>739.99536132812</ele>
        <time>2020-05-14T14:13:25Z</time>
      </trkpt>
      <trkpt lat="43.72007" lon="6.97875">
        <ele>740.82348632812</ele>
        <time>2020-05-14T14:13:26Z</time>
      </trkpt>
      <trkpt lat="43.72006" lon="6.97876">
        <ele>759.00219726562</ele>
        <time>2020-05-14T14:13:27Z</time>
      </trkpt>
      <trkpt lat="43.72004" lon="6.97877">
        <ele>752.53979492188</ele>
        <time>2020-05-14T14:13:28Z</time>
      </trkpt>
      <trkpt lat="43.72002" lon="6.97877">
        <ele>750.92700195312</ele>
        <time>2020-05-14T14:13:29Z</time>
      </trkpt>
      <trkpt lat="43.72" lon="6.97878">
        <ele>750.96264648438</ele>
        <time>2020-05-14T14:13:30Z</time>
      </trkpt>
      <trkpt lat="43.71999" lon="6.97879">
        <ele>752.99877929688</ele>
        <time>2020-05-14T14:13:31Z</time>
      </trkpt>
      <trkpt lat="43.71997" lon="6.9788">
        <ele>754.28955078125</ele>
        <time>2020-05-14T14:13:32Z</time>
      </trkpt>
      <trkpt lat="43.71995" lon="6.9788">
        <ele>743.17114257812</ele>
        <time>2020-05-14T14:13:33Z</time>
      </trkpt>
      <trkpt lat="43.71993" lon="6.97881">
        <ele>740.41430664062</ele>
        <time>2020-05-14T14:13:34Z</time>
      </trkpt>
      <trkpt lat="43.71991" lon="6.97881">
        <ele>752.66052246094</ele>
        <time>2020-05-14T14:13:35Z</time>
      </trkpt>
      <trkpt lat="43.71989" lon="6.97882">
        <ele>751.30212402344</ele>
        <time>2020-05-14T14:13:36Z</time>
      </trkpt>
      <trkpt lat="43.71987" lon="6.97883">
        <ele>754.48034667969</ele>
        <time>2020-05-14T14:13:37Z</time>
      </trkpt>
      <trkpt lat="43.71986" lon="6.97884">
        <ele>757.50903320312</ele>
        <time>2020-05-14T14:13:38Z</time>
      </trkpt>
      <trkpt lat="43.71984" lon="6.97884">
        <ele>752.13110351562</ele>
        <time>2020-05-14T14:13:39Z</time>
      </trkpt>
      <trkpt lat="43.71983" lon="6.97885">
        <ele>748.75341796875</ele>
        <time>2020-05-14T14:13:40Z</time>
      </trkpt>
      <trkpt lat="43.71981" lon="6.97886">
        <ele>751.478515625</ele>
        <time>2020-05-14T14:13:41Z</time>
      </trkpt>
      <trkpt lat="43.7198" lon="6.97887">
        <ele>751.08276367188</ele>
        <time>2020-05-14T14:13:42Z</time>
      </trkpt>
      <trkpt lat="43.71978" lon="6.97889">
        <ele>742.67590332031</ele>
        <time>2020-05-14T14:13:43Z</time>
      </trkpt>
      <trkpt lat="43.71976" lon="6.9789">
        <ele>739.08154296875</ele>
        <time>2020-05-14T14:13:44Z</time>
      </trkpt>
      <trkpt lat="43.71974" lon="6.9789">
        <ele>736.21630859375</ele>
        <time>2020-05-14T14:13:45Z</time>
      </trkpt>
      <trkpt lat="43.71972" lon="6.97891">
        <ele>734.0712890625</ele>
        <time>2020-05-14T14:13:46Z</time>
      </trkpt>
      <trkpt lat="43.71971" lon="6.97891">
        <ele>733.80908203125</ele>
        <time>2020-05-14T14:13:47Z</time>
      </trkpt>
      <trkpt lat="43.71969" lon="6.97891">
        <ele>761.49682617188</ele>
        <time>2020-05-14T14:13:48Z</time>
      </trkpt>
      <trkpt lat="43.71966" lon="6.9789">
        <ele>761.76904296875</ele>
        <time>2020-05-14T14:13:49Z</time>
      </trkpt>
      <trkpt lat="43.71964" lon="6.97889">
        <ele>768.33178710938</ele>
        <time>2020-05-14T14:13:50Z</time>
      </trkpt>
      <trkpt lat="43.71961" lon="6.97887">
        <ele>766.17626953125</ele>
        <time>2020-05-14T14:13:51Z</time>
      </trkpt>
      <trkpt lat="43.71959" lon="6.97885">
        <ele>766.91149902344</ele>
        <time>2020-05-14T14:13:52Z</time>
      </trkpt>
      <trkpt lat="43.71957" lon="6.97884">
        <ele>766.005859375</ele>
        <time>2020-05-14T14:13:53Z</time>
      </trkpt>
      <trkpt lat="43.71954" lon="6.97883">
        <ele>766.75170898438</ele>
        <time>2020-05-14T14:13:54Z</time>
      </trkpt>
      <trkpt lat="43.71953" lon="6.97882">
        <ele>766.59399414062</ele>
        <time>2020-05-14T14:13:55Z</time>
      </trkpt>
      <trkpt lat="43.71951" lon="6.97881">
        <ele>767.95593261719</ele>
        <time>2020-05-14T14:13:56Z</time>
      </trkpt>
      <trkpt lat="43.7195" lon="6.9788">
        <ele>763.2626953125</ele>
        <time>2020-05-14T14:13:57Z</time>
      </trkpt>
      <trkpt lat="43.71949" lon="6.97878">
        <ele>770.8427734375</ele>
        <time>2020-05-14T14:13:58Z</time>
      </trkpt>
      <trkpt lat="43.71948" lon="6.97876">
        <ele>777.31176757812</ele>
        <time>2020-05-14T14:13:59Z</time>
      </trkpt>
      <trkpt lat="43.71947" lon="6.97874">
        <ele>777.72875976562</ele>
        <time>2020-05-14T14:14:00Z</time>
      </trkpt>
      <trkpt lat="43.71946" lon="6.97872">
        <ele>777.23986816406</ele>
        <time>2020-05-14T14:14:01Z</time>
      </trkpt>
      <trkpt lat="43.71944" lon="6.9787">
        <ele>781.94006347656</ele>
        <time>2020-05-14T14:14:02Z</time>
      </trkpt>
      <trkpt lat="43.71942" lon="6.97869">
        <ele>781.17858886719</ele>
        <time>2020-05-14T14:14:03Z</time>
      </trkpt>
      <trkpt lat="43.7194" lon="6.97868">
        <ele>780.88330078125</ele>
        <time>2020-05-14T14:14:04Z</time>
      </trkpt>
      <trkpt lat="43.71938" lon="6.97866">
        <ele>780.75354003906</ele>
        <time>2020-05-14T14:14:05Z</time>
      </trkpt>
      <trkpt lat="43.71936" lon="6.97865">
        <ele>779.34252929688</ele>
        <time>2020-05-14T14:14:06Z</time>
      </trkpt>
      <trkpt lat="43.71935" lon="6.97864">
        <ele>779.9521484375</ele>
        <time>2020-05-14T14:14:07Z</time>
      </trkpt>
      <trkpt lat="43.71934" lon="6.97865">
        <ele>779.87915039062</ele>
        <time>2020-05-14T14:14:08Z</time>
      </trkpt>
      <trkpt lat="43.71934" lon="6.97865">
        <ele>786.44287109375</ele>
        <time>2020-05-14T14:14:09Z</time>
      </trkpt>
      <trkpt lat="43.71935" lon="6.97865">
        <ele>793.32739257812</ele>
        <time>2020-05-14T14:14:10Z</time>
      </trkpt>
      <trkpt lat="43.71936" lon="6.97865">
        <ele>791.2587890625</ele>
        <time>2020-05-14T14:14:11Z</time>
      </trkpt>
      <trkpt lat="43.71936" lon="6.97865">
        <ele>791.77905273438</ele>
        <time>2020-05-14T14:14:12Z</time>
      </trkpt>
      <trkpt lat="43.71936" lon="6.97865">
        <ele>791.23852539062</ele>
        <time>2020-05-14T14:14:13Z</time>
      </trkpt>
      <trkpt lat="43.71936" lon="6.97864">
        <ele>796.47631835938</ele>
        <time>2020-05-14T14:14:14Z</time>
      </trkpt>
      <trkpt lat="43.71937" lon="6.97864">
        <ele>797.57958984375</ele>
        <time>2020-05-14T14:14:15Z</time>
      </trkpt>
      <trkpt lat="43.71936" lon="6.97864">
        <ele>796.16015625</ele>
        <time>2020-05-14T14:14:16Z</time>
      </trkpt>
      <trkpt lat="43.71936" lon="6.97863">
        <ele>751.67541503906</ele>
        <time>2020-05-14T14:14:17Z</time>
      </trkpt>
      <trkpt lat="43.71936" lon="6.97863">
        <ele>745.45874023438</ele>
        <time>2020-05-14T14:14:18Z</time>
      </trkpt>
      <trkpt lat="43.71936" lon="6.97863">
        <ele>744.41369628906</ele>
        <time>2020-05-14T14:14:19Z</time>
      </trkpt>
      <trkpt lat="43.71936" lon="6.97863">
        <ele>744.19970703125</ele>
        <time>2020-05-14T14:14:20Z</time>
      </trkpt>
      <trkpt lat="43.71936" lon="6.97863">
        <ele>742.8681640625</ele>
        <time>2020-05-14T14:14:21Z</time>
      </trkpt>
      <trkpt lat="43.71936" lon="6.97863">
        <ele>745.99853515625</ele>
        <time>2020-05-14T14:14:22Z</time>
      </trkpt>
      <trkpt lat="43.71936" lon="6.97863">
        <ele>758.83447265625</ele>
        <time>2020-05-14T14:14:23Z</time>
      </trkpt>
      <trkpt lat="43.71936" lon="6.97864">
        <ele>756.37719726562</ele>
        <time>2020-05-14T14:14:24Z</time>
      </trkpt>
      <trkpt lat="43.71936" lon="6.97864">
        <ele>758.00988769531</ele>
        <time>2020-05-14T14:14:25Z</time>
      </trkpt>
      <trkpt lat="43.71936" lon="6.97864">
        <ele>760.18420410156</ele>
        <time>2020-05-14T14:14:26Z</time>
      </trkpt>
      <trkpt lat="43.71936" lon="6.97864">
        <ele>747.30859375</ele>
        <time>2020-05-14T14:14:27Z</time>
      </trkpt>
      <trkpt lat="43.71936" lon="6.97863">
        <ele>754.224609375</ele>
        <time>2020-05-14T14:14:28Z</time>
      </trkpt>
      <trkpt lat="43.71936" lon="6.97864">
        <ele>743.48168945312</ele>
        <time>2020-05-14T14:14:29Z</time>
      </trkpt>
      <trkpt lat="43.71936" lon="6.97864">
        <ele>755.70983886719</ele>
        <time>2020-05-14T14:14:30Z</time>
      </trkpt>
      <trkpt lat="43.71936" lon="6.97864">
        <ele>755.96557617188</ele>
        <time>2020-05-14T14:14:31Z</time>
      </trkpt>
      <trkpt lat="43.71936" lon="6.97864">
        <ele>745.12255859375</ele>
        <time>2020-05-14T14:14:32Z</time>
      </trkpt>
      <trkpt lat="43.71936" lon="6.97864">
        <ele>744.25024414062</ele>
        <time>2020-05-14T14:14:33Z</time>
      </trkpt>
      <trkpt lat="43.71936" lon="6.97863">
        <ele>742.08935546875</ele>
        <time>2020-05-14T14:14:34Z</time>
      </trkpt>
      <trkpt lat="43.71936" lon="6.97863">
        <ele>741.41857910156</ele>
        <time>2020-05-14T14:14:35Z</time>
      </trkpt>
      <trkpt lat="43.71936" lon="6.97863">
        <ele>738.96984863281</ele>
        <time>2020-05-14T14:14:36Z</time>
      </trkpt>
      <trkpt lat="43.71936" lon="6.97864">
        <ele>736.65795898438</ele>
        <time>2020-05-14T14:14:37Z</time>
      </trkpt>
      <trkpt lat="43.71937" lon="6.97864">
        <ele>735.25659179688</ele>
        <time>2020-05-14T14:14:38Z</time>
      </trkpt>
      <trkpt lat="43.71937" lon="6.97865">
        <ele>737.013671875</ele>
        <time>2020-05-14T14:14:39Z</time>
      </trkpt>
      <trkpt lat="43.71937" lon="6.97865">
        <ele>737.48010253906</ele>
        <time>2020-05-14T14:14:40Z</time>
      </trkpt>
      <trkpt lat="43.71938" lon="6.97865">
        <ele>739.28002929688</ele>
        <time>2020-05-14T14:14:41Z</time>
      </trkpt>
      <trkpt lat="43.71938" lon="6.97865">
        <ele>755.90783691406</ele>
        <time>2020-05-14T14:14:42Z</time>
      </trkpt>
      <trkpt lat="43.71938" lon="6.97865">
        <ele>750.27612304688</ele>
        <time>2020-05-14T14:14:43Z</time>
      </trkpt>
      <trkpt lat="43.71938" lon="6.97866">
        <ele>749.97900390625</ele>
        <time>2020-05-14T14:14:44Z</time>
      </trkpt>
      <trkpt lat="43.71938" lon="6.97865">
        <ele>754.1591796875</ele>
        <time>2020-05-14T14:14:45Z</time>
      </trkpt>
      <trkpt lat="43.71938" lon="6.97865">
        <ele>757.96484375</ele>
        <time>2020-05-14T14:14:46Z</time>
      </trkpt>
      <trkpt lat="43.71938" lon="6.97865">
        <ele>759.81958007812</ele>
        <time>2020-05-14T14:14:47Z</time>
      </trkpt>
      <trkpt lat="43.71939" lon="6.97865">
        <ele>763.408203125</ele>
        <time>2020-05-14T14:14:48Z</time>
      </trkpt>
      <trkpt lat="43.71939" lon="6.97866">
        <ele>760.47827148438</ele>
        <time>2020-05-14T14:14:49Z</time>
      </trkpt>
      <trkpt lat="43.71939" lon="6.97866">
        <ele>759.58740234375</ele>
        <time>2020-05-14T14:14:50Z</time>
      </trkpt>
      <trkpt lat="43.7194" lon="6.97867">
        <ele>749.49487304688</ele>
        <time>2020-05-14T14:14:51Z</time>
      </trkpt>
      <trkpt lat="43.7194" lon="6.97867">
        <ele>750.07739257812</ele>
        <time>2020-05-14T14:14:52Z</time>
      </trkpt>
      <trkpt lat="43.71941" lon="6.97867">
        <ele>749.23510742188</ele>
        <time>2020-05-14T14:14:53Z</time>
      </trkpt>
      <trkpt lat="43.71941" lon="6.97867">
        <ele>751.15795898438</ele>
        <time>2020-05-14T14:14:54Z</time>
      </trkpt>
      <trkpt lat="43.71941" lon="6.97867">
        <ele>752.17004394531</ele>
        <time>2020-05-14T14:14:55Z</time>
      </trkpt>
      <trkpt lat="43.71941" lon="6.97867">
        <ele>752.52319335938</ele>
        <time>2020-05-14T14:14:56Z</time>
      </trkpt>
      <trkpt lat="43.71941" lon="6.97867">
        <ele>752.51586914062</ele>
        <time>2020-05-14T14:14:57Z</time>
      </trkpt>
      <trkpt lat="43.71941" lon="6.97867">
        <ele>753.04357910156</ele>
        <time>2020-05-14T14:14:58Z</time>
      </trkpt>
      <trkpt lat="43.71941" lon="6.97867">
        <ele>756.44030761719</ele>
        <time>2020-05-14T14:14:59Z</time>
      </trkpt>
      <trkpt lat="43.71941" lon="6.97867">
        <ele>756.34411621094</ele>
        <time>2020-05-14T14:15:00Z</time>
      </trkpt>
      <trkpt lat="43.71941" lon="6.97867">
        <ele>756.7099609375</ele>
        <time>2020-05-14T14:15:01Z</time>
      </trkpt>
      <trkpt lat="43.71941" lon="6.97867">
        <ele>750.59875488281</ele>
        <time>2020-05-14T14:15:02Z</time>
      </trkpt>
      <trkpt lat="43.71941" lon="6.97867">
        <ele>769.67810058594</ele>
        <time>2020-05-14T14:15:03Z</time>
      </trkpt>
      <trkpt lat="43.71941" lon="6.97867">
        <ele>761.83679199219</ele>
        <time>2020-05-14T14:15:04Z</time>
      </trkpt>
      <trkpt lat="43.71941" lon="6.97867">
        <ele>758.79760742188</ele>
        <time>2020-05-14T14:15:05Z</time>
      </trkpt>
      <trkpt lat="43.71941" lon="6.97867">
        <ele>760.45361328125</ele>
        <time>2020-05-14T14:15:06Z</time>
      </trkpt>
      <trkpt lat="43.7194" lon="6.97867">
        <ele>760.75732421875</ele>
        <time>2020-05-14T14:15:07Z</time>
      </trkpt>
      <trkpt lat="43.7194" lon="6.97868">
        <ele>762.73413085938</ele>
        <time>2020-05-14T14:15:08Z</time>
      </trkpt>
      <trkpt lat="43.7194" lon="6.97868">
        <ele>758.16357421875</ele>
        <time>2020-05-14T14:15:09Z</time>
      </trkpt>
      <trkpt lat="43.7194" lon="6.97867">
        <ele>752.5634765625</ele>
        <time>2020-05-14T14:15:10Z</time>
      </trkpt>
      <trkpt lat="43.7194" lon="6.97867">
        <ele>768.654296875</ele>
        <time>2020-05-14T14:15:11Z</time>
      </trkpt>
      <trkpt lat="43.7194" lon="6.97867">
        <ele>761.03759765625</ele>
        <time>2020-05-14T14:15:12Z</time>
      </trkpt>
      <trkpt lat="43.7194" lon="6.97867">
        <ele>760.38708496094</ele>
        <time>2020-05-14T14:15:13Z</time>
      </trkpt>
      <trkpt lat="43.7194" lon="6.97867">
        <ele>757.26611328125</ele>
        <time>2020-05-14T14:15:14Z</time>
      </trkpt>
      <trkpt lat="43.7194" lon="6.97867">
        <ele>774.35986328125</ele>
        <time>2020-05-14T14:15:15Z</time>
      </trkpt>
      <trkpt lat="43.7194" lon="6.97866">
        <ele>792.59692382812</ele>
        <time>2020-05-14T14:15:16Z</time>
      </trkpt>
      <trkpt lat="43.71939" lon="6.97865">
        <ele>791.85083007812</ele>
        <time>2020-05-14T14:15:17Z</time>
      </trkpt>
      <trkpt lat="43.71939" lon="6.97864">
        <ele>760.19311523438</ele>
        <time>2020-05-14T14:15:18Z</time>
      </trkpt>
      <trkpt lat="43.71938" lon="6.97864">
        <ele>762.84313964844</ele>
        <time>2020-05-14T14:15:19Z</time>
      </trkpt>
      <trkpt lat="43.71937" lon="6.97865">
        <ele>764.26318359375</ele>
        <time>2020-05-14T14:15:20Z</time>
      </trkpt>
      <trkpt lat="43.71937" lon="6.97865">
        <ele>765.72534179688</ele>
        <time>2020-05-14T14:15:21Z</time>
      </trkpt>
      <trkpt lat="43.71936" lon="6.97865">
        <ele>765.39624023438</ele>
        <time>2020-05-14T14:15:22Z</time>
      </trkpt>
      <trkpt lat="43.71936" lon="6.97865">
        <ele>764.61840820312</ele>
        <time>2020-05-14T14:15:23Z</time>
      </trkpt>
      <trkpt lat="43.71936" lon="6.97865">
        <ele>752.75903320312</ele>
        <time>2020-05-14T14:15:24Z</time>
      </trkpt>
      <trkpt lat="43.71936" lon="6.97865">
        <ele>753.10473632812</ele>
        <time>2020-05-14T14:15:25Z</time>
      </trkpt>
      <trkpt lat="43.71935" lon="6.97865">
        <ele>754.61303710938</ele>
        <time>2020-05-14T14:15:26Z</time>
      </trkpt>
      <trkpt lat="43.71935" lon="6.97865">
        <ele>754.11840820312</ele>
        <time>2020-05-14T14:15:27Z</time>
      </trkpt>
      <trkpt lat="43.71935" lon="6.97866">
        <ele>752.6376953125</ele>
        <time>2020-05-14T14:15:28Z</time>
      </trkpt>
      <trkpt lat="43.71935" lon="6.97866">
        <ele>750.75732421875</ele>
        <time>2020-05-14T14:15:29Z</time>
      </trkpt>
      <trkpt lat="43.71935" lon="6.97866">
        <ele>749.04052734375</ele>
        <time>2020-05-14T14:15:30Z</time>
      </trkpt>
      <trkpt lat="43.71935" lon="6.97866">
        <ele>744.03015136719</ele>
        <time>2020-05-14T14:15:31Z</time>
      </trkpt>
      <trkpt lat="43.71935" lon="6.97866">
        <ele>759.26684570312</ele>
        <time>2020-05-14T14:15:32Z</time>
      </trkpt>
      <trkpt lat="43.71935" lon="6.97866">
        <ele>755.76086425781</ele>
        <time>2020-05-14T14:15:33Z</time>
      </trkpt>
      <trkpt lat="43.71935" lon="6.97866">
        <ele>759.05249023438</ele>
        <time>2020-05-14T14:15:34Z</time>
      </trkpt>
      <trkpt lat="43.71935" lon="6.97866">
        <ele>755.22863769531</ele>
        <time>2020-05-14T14:15:35Z</time>
      </trkpt>
      <trkpt lat="43.71935" lon="6.97866">
        <ele>755.16650390625</ele>
        <time>2020-05-14T14:15:36Z</time>
      </trkpt>
      <trkpt lat="43.71935" lon="6.97866">
        <ele>755.36682128906</ele>
        <time>2020-05-14T14:15:37Z</time>
      </trkpt>
      <trkpt lat="43.71935" lon="6.97866">
        <ele>754.38403320312</ele>
        <time>2020-05-14T14:15:38Z</time>
      </trkpt>
      <trkpt lat="43.71935" lon="6.97866">
        <ele>754.25427246094</ele>
        <time>2020-05-14T14:15:39Z</time>
      </trkpt>
      <trkpt lat="43.71935" lon="6.97866">
        <ele>755.47241210938</ele>
        <time>2020-05-14T14:15:40Z</time>
      </trkpt>
      <trkpt lat="43.71935" lon="6.97866">
        <ele>741.38269042969</ele>
        <time>2020-05-14T14:15:41Z</time>
      </trkpt>
      <trkpt lat="43.71935" lon="6.97866">
        <ele>743.40478515625</ele>
        <time>2020-05-14T14:15:42Z</time>
      </trkpt>
      <trkpt lat="43.71935" lon="6.97866">
        <ele>745.83959960938</ele>
        <time>2020-05-14T14:15:43Z</time>
      </trkpt>
      <trkpt lat="43.71935" lon="6.97866">
        <ele>745.89074707031</ele>
        <time>2020-05-14T14:15:44Z</time>
      </trkpt>
      <trkpt lat="43.71935" lon="6.97866">
        <ele>760.70361328125</ele>
        <time>2020-05-14T14:15:45Z</time>
      </trkpt>
      <trkpt lat="43.71935" lon="6.97866">
        <ele>753.98999023438</ele>
        <time>2020-05-14T14:15:46Z</time>
      </trkpt>
      <trkpt lat="43.71935" lon="6.97866">
        <ele>747.85668945312</ele>
        <time>2020-05-14T14:15:47Z</time>
      </trkpt>
      <trkpt lat="43.71935" lon="6.97866">
        <ele>747.162109375</ele>
        <time>2020-05-14T14:15:48Z</time>
      </trkpt>
      <trkpt lat="43.71935" lon="6.97866">
        <ele>746.43041992188</ele>
        <time>2020-05-14T14:15:49Z</time>
      </trkpt>
      <trkpt lat="43.71935" lon="6.97866">
        <ele>750.70825195312</ele>
        <time>2020-05-14T14:15:50Z</time>
      </trkpt>
      <trkpt lat="43.71935" lon="6.97866">
        <ele>771.880859375</ele>
        <time>2020-05-14T14:15:51Z</time>
      </trkpt>
      <trkpt lat="43.71935" lon="6.97866">
        <ele>767.46313476562</ele>
        <time>2020-05-14T14:15:52Z</time>
      </trkpt>
      <trkpt lat="43.71935" lon="6.97866">
        <ele>766.48217773438</ele>
        <time>2020-05-14T14:15:53Z</time>
      </trkpt>
      <trkpt lat="43.71935" lon="6.97866">
        <ele>769.2412109375</ele>
        <time>2020-05-14T14:15:54Z</time>
      </trkpt>
      <trkpt lat="43.71935" lon="6.97866">
        <ele>789.31079101562</ele>
        <time>2020-05-14T14:15:55Z</time>
      </trkpt>
      <trkpt lat="43.71935" lon="6.97865">
        <ele>781.66247558594</ele>
        <time>2020-05-14T14:15:56Z</time>
      </trkpt>
      <trkpt lat="43.71935" lon="6.97865">
        <ele>781.47045898438</ele>
        <time>2020-05-14T14:15:57Z</time>
      </trkpt>
      <trkpt lat="43.71935" lon="6.97865">
        <ele>796.43835449219</ele>
        <time>2020-05-14T14:15:58Z</time>
      </trkpt>
      <trkpt lat="43.71935" lon="6.97865">
        <ele>799.88452148438</ele>
        <time>2020-05-14T14:15:59Z</time>
      </trkpt>
      <trkpt lat="43.71935" lon="6.97865">
        <ele>798.86938476562</ele>
        <time>2020-05-14T14:16:00Z</time>
      </trkpt>
      <trkpt lat="43.71935" lon="6.97865">
        <ele>798.9150390625</ele>
        <time>2020-05-14T14:16:01Z</time>
      </trkpt>
      <trkpt lat="43.71935" lon="6.97864">
        <ele>798.06518554688</ele>
        <time>2020-05-14T14:16:02Z</time>
      </trkpt>
      <trkpt lat="43.71935" lon="6.97864">
        <ele>797.61303710938</ele>
        <time>2020-05-14T14:16:03Z</time>
      </trkpt>
      <trkpt lat="43.71935" lon="6.97864">
        <ele>797.37841796875</ele>
        <time>2020-05-14T14:16:04Z</time>
      </trkpt>
      <trkpt lat="43.71935" lon="6.97865">
        <ele>796.34228515625</ele>
        <time>2020-05-14T14:16:05Z</time>
      </trkpt>
      <trkpt lat="43.71935" lon="6.97865">
        <ele>795.87646484375</ele>
        <time>2020-05-14T14:16:06Z</time>
      </trkpt>
      <trkpt lat="43.71936" lon="6.97865">
        <ele>795.97900390625</ele>
        <time>2020-05-14T14:16:07Z</time>
      </trkpt>
      <trkpt lat="43.71935" lon="6.97866">
        <ele>795.99682617188</ele>
        <time>2020-05-14T14:16:08Z</time>
      </trkpt>
      <trkpt lat="43.71935" lon="6.97866">
        <ele>796.15417480469</ele>
        <time>2020-05-14T14:16:09Z</time>
      </trkpt>
      <trkpt lat="43.71935" lon="6.97866">
        <ele>796.908203125</ele>
        <time>2020-05-14T14:16:10Z</time>
      </trkpt>
      <trkpt lat="43.71935" lon="6.97866">
        <ele>797.328125</ele>
        <time>2020-05-14T14:16:11Z</time>
      </trkpt>
      <trkpt lat="43.71935" lon="6.97866">
        <ele>797.24267578125</ele>
        <time>2020-05-14T14:16:12Z</time>
      </trkpt>
      <trkpt lat="43.71935" lon="6.97866">
        <ele>797.07177734375</ele>
        <time>2020-05-14T14:16:13Z</time>
      </trkpt>
      <trkpt lat="43.71935" lon="6.97866">
        <ele>797.41357421875</ele>
        <time>2020-05-14T14:16:14Z</time>
      </trkpt>
      <trkpt lat="43.71935" lon="6.97866">
        <ele>797.2744140625</ele>
        <time>2020-05-14T14:16:15Z</time>
      </trkpt>
      <trkpt lat="43.71935" lon="6.97866">
        <ele>796.87353515625</ele>
        <time>2020-05-14T14:16:16Z</time>
      </trkpt>
      <trkpt lat="43.71935" lon="6.97866">
        <ele>797.07250976562</ele>
        <time>2020-05-14T14:16:17Z</time>
      </trkpt>
      <trkpt lat="43.71935" lon="6.97866">
        <ele>796.89282226562</ele>
        <time>2020-05-14T14:16:18Z</time>
      </trkpt>
      <trkpt lat="43.71935" lon="6.97866">
        <ele>796.44384765625</ele>
        <time>2020-05-14T14:16:19Z</time>
      </trkpt>
      <trkpt lat="43.71935" lon="6.97866">
        <ele>796.21472167969</ele>
        <time>2020-05-14T14:16:20Z</time>
      </trkpt>
      <trkpt lat="43.71935" lon="6.97866">
        <ele>796.28540039062</ele>
        <time>2020-05-14T14:16:21Z</time>
      </trkpt>
      <trkpt lat="43.71935" lon="6.97866">
        <ele>796.2060546875</ele>
        <time>2020-05-14T14:16:22Z</time>
      </trkpt>
      <trkpt lat="43.71935" lon="6.97866">
        <ele>796.12719726562</ele>
        <time>2020-05-14T14:16:23Z</time>
      </trkpt>
      <trkpt lat="43.71935" lon="6.97866">
        <ele>795.82763671875</ele>
        <time>2020-05-14T14:16:24Z</time>
      </trkpt>
      <trkpt lat="43.71935" lon="6.97866">
        <ele>796.13598632812</ele>
        <time>2020-05-14T14:16:25Z</time>
      </trkpt>
      <trkpt lat="43.71935" lon="6.97866">
        <ele>796.25122070312</ele>
        <time>2020-05-14T14:16:26Z</time>
      </trkpt>
      <trkpt lat="43.71935" lon="6.97866">
        <ele>796.68688964844</ele>
        <time>2020-05-14T14:16:27Z</time>
      </trkpt>
      <trkpt lat="43.71935" lon="6.97866">
        <ele>796.41284179688</ele>
        <time>2020-05-14T14:16:28Z</time>
      </trkpt>
      <trkpt lat="43.71935" lon="6.97866">
        <ele>796.58020019531</ele>
        <time>2020-05-14T14:16:29Z</time>
      </trkpt>
      <trkpt lat="43.71935" lon="6.97866">
        <ele>796.42785644531</ele>
        <time>2020-05-14T14:16:30Z</time>
      </trkpt>
      <trkpt lat="43.71934" lon="6.97867">
        <ele>796.21923828125</ele>
        <time>2020-05-14T14:16:31Z</time>
      </trkpt>
      <trkpt lat="43.71934" lon="6.97867">
        <ele>795.66357421875</ele>
        <time>2020-05-14T14:16:32Z</time>
      </trkpt>
      <trkpt lat="43.71934" lon="6.97867">
        <ele>795.40478515625</ele>
        <time>2020-05-14T14:16:33Z</time>
      </trkpt>
      <trkpt lat="43.71934" lon="6.97867">
        <ele>795.1298828125</ele>
        <time>2020-05-14T14:16:34Z</time>
      </trkpt>
      <trkpt lat="43.71934" lon="6.97867">
        <ele>795.33984375</ele>
        <time>2020-05-14T14:16:35Z</time>
      </trkpt>
      <trkpt lat="43.71933" lon="6.97868">
        <ele>794.40112304688</ele>
        <time>2020-05-14T14:16:36Z</time>
      </trkpt>
      <trkpt lat="43.71933" lon="6.97868">
        <ele>793.7548828125</ele>
        <time>2020-05-14T14:16:37Z</time>
      </trkpt>
      <trkpt lat="43.71933" lon="6.97868">
        <ele>793.70068359375</ele>
        <time>2020-05-14T14:16:38Z</time>
      </trkpt>
      <trkpt lat="43.71933" lon="6.97868">
        <ele>793.29296875</ele>
        <time>2020-05-14T14:16:39Z</time>
      </trkpt>
      <trkpt lat="43.71933" lon="6.97868">
        <ele>793.8916015625</ele>
        <time>2020-05-14T14:16:40Z</time>
      </trkpt>
      <trkpt lat="43.71932" lon="6.97868">
        <ele>794.13403320312</ele>
        <time>2020-05-14T14:16:41Z</time>
      </trkpt>
      <trkpt lat="43.71932" lon="6.97868">
        <ele>795.56958007812</ele>
        <time>2020-05-14T14:16:42Z</time>
      </trkpt>
      <trkpt lat="43.71932" lon="6.97868">
        <ele>795.79028320312</ele>
        <time>2020-05-14T14:16:43Z</time>
      </trkpt>
      <trkpt lat="43.71932" lon="6.97867">
        <ele>796.365234375</ele>
        <time>2020-05-14T14:16:44Z</time>
      </trkpt>
      <trkpt lat="43.71932" lon="6.97868">
        <ele>796.44213867188</ele>
        <time>2020-05-14T14:16:45Z</time>
      </trkpt>
      <trkpt lat="43.71932" lon="6.97868">
        <ele>796.65942382812</ele>
        <time>2020-05-14T14:16:46Z</time>
      </trkpt>
      <trkpt lat="43.71931" lon="6.97867">
        <ele>795.78881835938</ele>
        <time>2020-05-14T14:16:47Z</time>
      </trkpt>
      <trkpt lat="43.71931" lon="6.97868">
        <ele>795.65698242188</ele>
        <time>2020-05-14T14:16:48Z</time>
      </trkpt>
      <trkpt lat="43.71931" lon="6.97868">
        <ele>794.12939453125</ele>
        <time>2020-05-14T14:16:49Z</time>
      </trkpt>
      <trkpt lat="43.71931" lon="6.97868">
        <ele>794.7900390625</ele>
        <time>2020-05-14T14:16:50Z</time>
      </trkpt>
      <trkpt lat="43.71931" lon="6.97868">
        <ele>755.3642578125</ele>
        <time>2020-05-14T14:16:51Z</time>
      </trkpt>
      <trkpt lat="43.7193" lon="6.97868">
        <ele>751.31518554688</ele>
        <time>2020-05-14T14:16:52Z</time>
      </trkpt>
      <trkpt lat="43.71931" lon="6.97868">
        <ele>752.57080078125</ele>
        <time>2020-05-14T14:16:53Z</time>
      </trkpt>
      <trkpt lat="43.71931" lon="6.97868">
        <ele>753.85888671875</ele>
        <time>2020-05-14T14:16:54Z</time>
      </trkpt>
      <trkpt lat="43.71932" lon="6.97868">
        <ele>754.77880859375</ele>
        <time>2020-05-14T14:16:55Z</time>
      </trkpt>
      <trkpt lat="43.71932" lon="6.97868">
        <ele>770.20385742188</ele>
        <time>2020-05-14T14:16:56Z</time>
      </trkpt>
      <trkpt lat="43.71933" lon="6.97868">
        <ele>796.49389648438</ele>
        <time>2020-05-14T14:16:57Z</time>
      </trkpt>
      <trkpt lat="43.71933" lon="6.97868">
        <ele>797.06591796875</ele>
        <time>2020-05-14T14:16:58Z</time>
      </trkpt>
      <trkpt lat="43.71933" lon="6.97868">
        <ele>796.31555175781</ele>
        <time>2020-05-14T14:16:59Z</time>
      </trkpt>
      <trkpt lat="43.71933" lon="6.97869">
        <ele>796.36157226562</ele>
        <time>2020-05-14T14:17:00Z</time>
      </trkpt>
      <trkpt lat="43.71934" lon="6.97869">
        <ele>796.26733398438</ele>
        <time>2020-05-14T14:17:01Z</time>
      </trkpt>
      <trkpt lat="43.71933" lon="6.97869">
        <ele>793.50341796875</ele>
        <time>2020-05-14T14:17:02Z</time>
      </trkpt>
      <trkpt lat="43.71934" lon="6.97868">
        <ele>793.67553710938</ele>
        <time>2020-05-14T14:17:03Z</time>
      </trkpt>
      <trkpt lat="43.71934" lon="6.97868">
        <ele>794.21008300781</ele>
        <time>2020-05-14T14:17:04Z</time>
      </trkpt>
      <trkpt lat="43.71934" lon="6.97868">
        <ele>797.35083007812</ele>
        <time>2020-05-14T14:17:05Z</time>
      </trkpt>
      <trkpt lat="43.71934" lon="6.97868">
        <ele>796.61889648438</ele>
        <time>2020-05-14T14:17:06Z</time>
      </trkpt>
      <trkpt lat="43.71935" lon="6.97868">
        <ele>795.77270507812</ele>
        <time>2020-05-14T14:17:07Z</time>
      </trkpt>
      <trkpt lat="43.71935" lon="6.97868">
        <ele>797.00537109375</ele>
        <time>2020-05-14T14:17:08Z</time>
      </trkpt>
      <trkpt lat="43.71935" lon="6.97868">
        <ele>796.88500976562</ele>
        <time>2020-05-14T14:17:09Z</time>
      </trkpt>
      <trkpt lat="43.71935" lon="6.97868">
        <ele>795.36499023438</ele>
        <time>2020-05-14T14:17:10Z</time>
      </trkpt>
      <trkpt lat="43.71935" lon="6.97868">
        <ele>795.41528320312</ele>
        <time>2020-05-14T14:17:11Z</time>
      </trkpt>
      <trkpt lat="43.71935" lon="6.97868">
        <ele>795.97900390625</ele>
        <time>2020-05-14T14:17:12Z</time>
      </trkpt>
      <trkpt lat="43.71935" lon="6.97868">
        <ele>796.19262695312</ele>
        <time>2020-05-14T14:17:13Z</time>
      </trkpt>
      <trkpt lat="43.71935" lon="6.97868">
        <ele>795.50219726562</ele>
        <time>2020-05-14T14:17:14Z</time>
      </trkpt>
      <trkpt lat="43.71935" lon="6.97868">
        <ele>795.47131347656</ele>
        <time>2020-05-14T14:17:15Z</time>
      </trkpt>
      <trkpt lat="43.71935" lon="6.97868">
        <ele>795.63745117188</ele>
        <time>2020-05-14T14:17:16Z</time>
      </trkpt>
      <trkpt lat="43.71935" lon="6.97868">
        <ele>795.27368164062</ele>
        <time>2020-05-14T14:17:17Z</time>
      </trkpt>
      <trkpt lat="43.71935" lon="6.97868">
        <ele>794.8447265625</ele>
        <time>2020-05-14T14:17:18Z</time>
      </trkpt>
      <trkpt lat="43.71935" lon="6.97868">
        <ele>797.95812988281</ele>
        <time>2020-05-14T14:17:19Z</time>
      </trkpt>
      <trkpt lat="43.71935" lon="6.97868">
        <ele>799.55517578125</ele>
        <time>2020-05-14T14:17:20Z</time>
      </trkpt>
      <trkpt lat="43.71935" lon="6.97868">
        <ele>801.63330078125</ele>
        <time>2020-05-14T14:17:21Z</time>
      </trkpt>
      <trkpt lat="43.71934" lon="6.97868">
        <ele>802.8212890625</ele>
        <time>2020-05-14T14:17:22Z</time>
      </trkpt>
      <trkpt lat="43.71934" lon="6.97867">
        <ele>803.21826171875</ele>
        <time>2020-05-14T14:17:23Z</time>
      </trkpt>
      <trkpt lat="43.71934" lon="6.97867">
        <ele>803.25122070312</ele>
        <time>2020-05-14T14:17:24Z</time>
      </trkpt>
      <trkpt lat="43.71934" lon="6.97867">
        <ele>803.69287109375</ele>
        <time>2020-05-14T14:17:25Z</time>
      </trkpt>
      <trkpt lat="43.71935" lon="6.97867">
        <ele>765.71997070312</ele>
        <time>2020-05-14T14:17:26Z</time>
      </trkpt>
      <trkpt lat="43.71935" lon="6.97867">
        <ele>765.26123046875</ele>
        <time>2020-05-14T14:17:27Z</time>
      </trkpt>
      <trkpt lat="43.71935" lon="6.97867">
        <ele>755.86254882812</ele>
        <time>2020-05-14T14:17:28Z</time>
      </trkpt>
      <trkpt lat="43.71935" lon="6.97867">
        <ele>755.22680664062</ele>
        <time>2020-05-14T14:17:29Z</time>
      </trkpt>
      <trkpt lat="43.71936" lon="6.97866">
        <ele>756.40405273438</ele>
        <time>2020-05-14T14:17:30Z</time>
      </trkpt>
      <trkpt lat="43.71936" lon="6.97866">
        <ele>771.56030273438</ele>
        <time>2020-05-14T14:17:31Z</time>
      </trkpt>
      <trkpt lat="43.71936" lon="6.97866">
        <ele>768.29907226562</ele>
        <time>2020-05-14T14:17:32Z</time>
      </trkpt>
      <trkpt lat="43.71936" lon="6.97865">
        <ele>769.75561523438</ele>
        <time>2020-05-14T14:17:33Z</time>
      </trkpt>
      <trkpt lat="43.71936" lon="6.97865">
        <ele>770.48999023438</ele>
        <time>2020-05-14T14:17:34Z</time>
      </trkpt>
      <trkpt lat="43.71937" lon="6.97865">
        <ele>767.90454101562</ele>
        <time>2020-05-14T14:17:35Z</time>
      </trkpt>
      <trkpt lat="43.71937" lon="6.97865">
        <ele>766.42028808594</ele>
        <time>2020-05-14T14:17:36Z</time>
      </trkpt>
      <trkpt lat="43.71937" lon="6.97866">
        <ele>767.77368164062</ele>
        <time>2020-05-14T14:17:37Z</time>
      </trkpt>
      <trkpt lat="43.71937" lon="6.97866">
        <ele>766.97778320312</ele>
        <time>2020-05-14T14:17:38Z</time>
      </trkpt>
      <trkpt lat="43.71937" lon="6.97865">
        <ele>767.30334472656</ele>
        <time>2020-05-14T14:17:39Z</time>
      </trkpt>
      <trkpt lat="43.71938" lon="6.97865">
        <ele>754.42138671875</ele>
        <time>2020-05-14T14:17:40Z</time>
      </trkpt>
      <trkpt lat="43.71938" lon="6.97865">
        <ele>753.97485351562</ele>
        <time>2020-05-14T14:17:41Z</time>
      </trkpt>
      <trkpt lat="43.71937" lon="6.97865">
        <ele>750.31591796875</ele>
        <time>2020-05-14T14:17:42Z</time>
      </trkpt>
      <trkpt lat="43.71937" lon="6.97865">
        <ele>768.00476074219</ele>
        <time>2020-05-14T14:17:43Z</time>
      </trkpt>
      <trkpt lat="43.71937" lon="6.97864">
        <ele>764.1328125</ele>
        <time>2020-05-14T14:17:44Z</time>
      </trkpt>
      <trkpt lat="43.71937" lon="6.97864">
        <ele>761.69421386719</ele>
        <time>2020-05-14T14:17:45Z</time>
      </trkpt>
      <trkpt lat="43.71937" lon="6.97864">
        <ele>762.4814453125</ele>
        <time>2020-05-14T14:17:46Z</time>
      </trkpt>
      <trkpt lat="43.71937" lon="6.97863">
        <ele>762.4326171875</ele>
        <time>2020-05-14T14:17:47Z</time>
      </trkpt>
      <trkpt lat="43.71938" lon="6.97863">
        <ele>764.82678222656</ele>
        <time>2020-05-14T14:17:48Z</time>
      </trkpt>
      <trkpt lat="43.71938" lon="6.97863">
        <ele>758.17651367188</ele>
        <time>2020-05-14T14:17:49Z</time>
      </trkpt>
      <trkpt lat="43.71937" lon="6.97862">
        <ele>754.98059082031</ele>
        <time>2020-05-14T14:17:50Z</time>
      </trkpt>
      <trkpt lat="43.71937" lon="6.97862">
        <ele>753.79077148438</ele>
        <time>2020-05-14T14:17:51Z</time>
      </trkpt>
      <trkpt lat="43.71937" lon="6.97862">
        <ele>748.21752929688</ele>
        <time>2020-05-14T14:17:52Z</time>
      </trkpt>
      <trkpt lat="43.71937" lon="6.97862">
        <ele>750.17736816406</ele>
        <time>2020-05-14T14:17:53Z</time>
      </trkpt>
      <trkpt lat="43.71937" lon="6.97862">
        <ele>753.89782714844</ele>
        <time>2020-05-14T14:17:54Z</time>
      </trkpt>
      <trkpt lat="43.71937" lon="6.97862">
        <ele>758.0146484375</ele>
        <time>2020-05-14T14:17:55Z</time>
      </trkpt>
      <trkpt lat="43.71937" lon="6.97863">
        <ele>753.66821289062</ele>
        <time>2020-05-14T14:17:56Z</time>
      </trkpt>
      <trkpt lat="43.71936" lon="6.97863">
        <ele>751.12426757812</ele>
        <time>2020-05-14T14:17:57Z</time>
      </trkpt>
      <trkpt lat="43.71936" lon="6.97863">
        <ele>747.79479980469</ele>
        <time>2020-05-14T14:17:58Z</time>
      </trkpt>
      <trkpt lat="43.71936" lon="6.97862">
        <ele>749.29345703125</ele>
        <time>2020-05-14T14:17:59Z</time>
      </trkpt>
      <trkpt lat="43.71937" lon="6.97862">
        <ele>747.38342285156</ele>
        <time>2020-05-14T14:18:00Z</time>
      </trkpt>
      <trkpt lat="43.71937" lon="6.97862">
        <ele>747.41625976562</ele>
        <time>2020-05-14T14:18:01Z</time>
      </trkpt>
      <trkpt lat="43.71936" lon="6.97862">
        <ele>768.20703125</ele>
        <time>2020-05-14T14:18:02Z</time>
      </trkpt>
      <trkpt lat="43.71936" lon="6.97862">
        <ele>765.08654785156</ele>
        <time>2020-05-14T14:18:03Z</time>
      </trkpt>
      <trkpt lat="43.71935" lon="6.97862">
        <ele>764.5068359375</ele>
        <time>2020-05-14T14:18:04Z</time>
      </trkpt>
      <trkpt lat="43.71935" lon="6.97863">
        <ele>764.56176757812</ele>
        <time>2020-05-14T14:18:05Z</time>
      </trkpt>
      <trkpt lat="43.71935" lon="6.97864">
        <ele>763.69946289062</ele>
        <time>2020-05-14T14:18:06Z</time>
      </trkpt>
      <trkpt lat="43.71935" lon="6.97865">
        <ele>768.80419921875</ele>
        <time>2020-05-14T14:18:07Z</time>
      </trkpt>
      <trkpt lat="43.71935" lon="6.97866">
        <ele>767.86596679688</ele>
        <time>2020-05-14T14:18:08Z</time>
      </trkpt>
      <trkpt lat="43.71936" lon="6.97867">
        <ele>768.38452148438</ele>
        <time>2020-05-14T14:18:09Z</time>
      </trkpt>
      <trkpt lat="43.71937" lon="6.97868">
        <ele>794.48022460938</ele>
        <time>2020-05-14T14:18:10Z</time>
      </trkpt>
      <trkpt lat="43.71938" lon="6.97868">
        <ele>792.40209960938</ele>
        <time>2020-05-14T14:18:11Z</time>
      </trkpt>
      <trkpt lat="43.71938" lon="6.97868">
        <ele>793.69885253906</ele>
        <time>2020-05-14T14:18:12Z</time>
      </trkpt>
      <trkpt lat="43.71939" lon="6.97868">
        <ele>793.03601074219</ele>
        <time>2020-05-14T14:18:13Z</time>
      </trkpt>
      <trkpt lat="43.71939" lon="6.97869">
        <ele>793.37036132812</ele>
        <time>2020-05-14T14:18:14Z</time>
      </trkpt>
      <trkpt lat="43.7194" lon="6.97869">
        <ele>793.56689453125</ele>
        <time>2020-05-14T14:18:15Z</time>
      </trkpt>
      <trkpt lat="43.71942" lon="6.97869">
        <ele>798.01062011719</ele>
        <time>2020-05-14T14:18:16Z</time>
      </trkpt>
      <trkpt lat="43.71943" lon="6.97869">
        <ele>795.51586914062</ele>
        <time>2020-05-14T14:18:17Z</time>
      </trkpt>
      <trkpt lat="43.71944" lon="6.97868">
        <ele>795.15759277344</ele>
        <time>2020-05-14T14:18:18Z</time>
      </trkpt>
      <trkpt lat="43.71945" lon="6.97868">
        <ele>793.9228515625</ele>
        <time>2020-05-14T14:18:19Z</time>
      </trkpt>
      <trkpt lat="43.71947" lon="6.97868">
        <ele>794.93603515625</ele>
        <time>2020-05-14T14:18:20Z</time>
      </trkpt>
      <trkpt lat="43.71948" lon="6.97869">
        <ele>794.43212890625</ele>
        <time>2020-05-14T14:18:21Z</time>
      </trkpt>
      <trkpt lat="43.71949" lon="6.9787">
        <ele>790.32348632812</ele>
        <time>2020-05-14T14:18:22Z</time>
      </trkpt>
      <trkpt lat="43.7195" lon="6.97872">
        <ele>791.16040039062</ele>
        <time>2020-05-14T14:18:23Z</time>
      </trkpt>
      <trkpt lat="43.71952" lon="6.97874">
        <ele>791.06909179688</ele>
        <time>2020-05-14T14:18:24Z</time>
      </trkpt>
      <trkpt lat="43.71953" lon="6.97876">
        <ele>800.90307617188</ele>
        <time>2020-05-14T14:18:25Z</time>
      </trkpt>
      <trkpt lat="43.71953" lon="6.97879">
        <ele>803.13012695312</ele>
        <time>2020-05-14T14:18:26Z</time>
      </trkpt>
      <trkpt lat="43.71954" lon="6.97881">
        <ele>802.29931640625</ele>
        <time>2020-05-14T14:18:27Z</time>
      </trkpt>
      <trkpt lat="43.71956" lon="6.97884">
        <ele>801.4873046875</ele>
        <time>2020-05-14T14:18:28Z</time>
      </trkpt>
      <trkpt lat="43.71957" lon="6.97885">
        <ele>801.611328125</ele>
        <time>2020-05-14T14:18:29Z</time>
      </trkpt>
      <trkpt lat="43.71959" lon="6.97886">
        <ele>802.08984375</ele>
        <time>2020-05-14T14:18:30Z</time>
      </trkpt>
      <trkpt lat="43.71961" lon="6.97887">
        <ele>804.10595703125</ele>
        <time>2020-05-14T14:18:31Z</time>
      </trkpt>
      <trkpt lat="43.71962" lon="6.97887">
        <ele>804.21411132812</ele>
        <time>2020-05-14T14:18:32Z</time>
      </trkpt>
      <trkpt lat="43.71964" lon="6.97888">
        <ele>803.18041992188</ele>
        <time>2020-05-14T14:18:33Z</time>
      </trkpt>
      <trkpt lat="43.71966" lon="6.97889">
        <ele>803.8623046875</ele>
        <time>2020-05-14T14:18:34Z</time>
      </trkpt>
      <trkpt lat="43.71968" lon="6.97889">
        <ele>804.07202148438</ele>
        <time>2020-05-14T14:18:35Z</time>
      </trkpt>
      <trkpt lat="43.7197" lon="6.97889">
        <ele>807.845703125</ele>
        <time>2020-05-14T14:18:36Z</time>
      </trkpt>
      <trkpt lat="43.71972" lon="6.97888">
        <ele>768.48120117188</ele>
        <time>2020-05-14T14:18:37Z</time>
      </trkpt>
      <trkpt lat="43.71974" lon="6.97887">
        <ele>770.85559082031</ele>
        <time>2020-05-14T14:18:38Z</time>
      </trkpt>
      <trkpt lat="43.71976" lon="6.97885">
        <ele>768.88366699219</ele>
        <time>2020-05-14T14:18:39Z</time>
      </trkpt>
      <trkpt lat="43.71978" lon="6.97884">
        <ele>772.87280273438</ele>
        <time>2020-05-14T14:18:40Z</time>
      </trkpt>
      <trkpt lat="43.7198" lon="6.97884">
        <ele>766.07849121094</ele>
        <time>2020-05-14T14:18:41Z</time>
      </trkpt>
      <trkpt lat="43.71982" lon="6.97883">
        <ele>765.13696289062</ele>
        <time>2020-05-14T14:18:42Z</time>
      </trkpt>
      <trkpt lat="43.71984" lon="6.97883">
        <ele>764.92016601562</ele>
        <time>2020-05-14T14:18:43Z</time>
      </trkpt>
      <trkpt lat="43.71986" lon="6.97882">
        <ele>767.23046875</ele>
        <time>2020-05-14T14:18:44Z</time>
      </trkpt>
      <trkpt lat="43.71987" lon="6.97881">
        <ele>768.15673828125</ele>
        <time>2020-05-14T14:18:45Z</time>
      </trkpt>
      <trkpt lat="43.71989" lon="6.9788">
        <ele>761.12622070312</ele>
        <time>2020-05-14T14:18:46Z</time>
      </trkpt>
      <trkpt lat="43.71991" lon="6.97879">
        <ele>750.93920898438</ele>
        <time>2020-05-14T14:18:47Z</time>
      </trkpt>
      <trkpt lat="43.71994" lon="6.97878">
        <ele>767.58081054688</ele>
        <time>2020-05-14T14:18:48Z</time>
      </trkpt>
      <trkpt lat="43.71996" lon="6.97878">
        <ele>756.51989746094</ele>
        <time>2020-05-14T14:18:49Z</time>
      </trkpt>
      <trkpt lat="43.71998" lon="6.97877">
        <ele>746.81774902344</ele>
        <time>2020-05-14T14:18:50Z</time>
      </trkpt>
      <trkpt lat="43.72" lon="6.97877">
        <ele>745.17919921875</ele>
        <time>2020-05-14T14:18:51Z</time>
      </trkpt>
      <trkpt lat="43.72002" lon="6.97877">
        <ele>762.09289550781</ele>
        <time>2020-05-14T14:18:52Z</time>
      </trkpt>
      <trkpt lat="43.72004" lon="6.97876">
        <ele>763.71435546875</ele>
        <time>2020-05-14T14:18:53Z</time>
      </trkpt>
      <trkpt lat="43.72006" lon="6.97875">
        <ele>757.4619140625</ele>
        <time>2020-05-14T14:18:54Z</time>
      </trkpt>
      <trkpt lat="43.72007" lon="6.97873">
        <ele>758.7607421875</ele>
        <time>2020-05-14T14:18:55Z</time>
      </trkpt>
      <trkpt lat="43.72008" lon="6.97872">
        <ele>758.47680664062</ele>
        <time>2020-05-14T14:18:56Z</time>
      </trkpt>
      <trkpt lat="43.72009" lon="6.9787">
        <ele>752.35852050781</ele>
        <time>2020-05-14T14:18:57Z</time>
      </trkpt>
      <trkpt lat="43.7201" lon="6.97869">
        <ele>752.87866210938</ele>
        <time>2020-05-14T14:18:58Z</time>
      </trkpt>
      <trkpt lat="43.72011" lon="6.97867">
        <ele>753.20373535156</ele>
        <time>2020-05-14T14:18:59Z</time>
      </trkpt>
      <trkpt lat="43.72011" lon="6.97866">
        <ele>747.89526367188</ele>
        <time>2020-05-14T14:19:00Z</time>
      </trkpt>
      <trkpt lat="43.72011" lon="6.97866">
        <ele>749.74658203125</ele>
        <time>2020-05-14T14:19:01Z</time>
      </trkpt>
      <trkpt lat="43.72011" lon="6.97866">
        <ele>752.37060546875</ele>
        <time>2020-05-14T14:19:02Z</time>
      </trkpt>
      <trkpt lat="43.72011" lon="6.97865">
        <ele>746.07116699219</ele>
        <time>2020-05-14T14:19:03Z</time>
      </trkpt>
      <trkpt lat="43.7201" lon="6.97865">
        <ele>742.53002929688</ele>
        <time>2020-05-14T14:19:04Z</time>
      </trkpt>
      <trkpt lat="43.7201" lon="6.97865">
        <ele>745.73608398438</ele>
        <time>2020-05-14T14:19:05Z</time>
      </trkpt>
      <trkpt lat="43.7201" lon="6.97865">
        <ele>749.56616210938</ele>
        <time>2020-05-14T14:19:06Z</time>
      </trkpt>
      <trkpt lat="43.7201" lon="6.97866">
        <ele>750.24621582031</ele>
        <time>2020-05-14T14:19:07Z</time>
      </trkpt>
      <trkpt lat="43.7201" lon="6.97866">
        <ele>750.58422851562</ele>
        <time>2020-05-14T14:19:08Z</time>
      </trkpt>
      <trkpt lat="43.72011" lon="6.97867">
        <ele>745.1015625</ele>
        <time>2020-05-14T14:19:09Z</time>
      </trkpt>
      <trkpt lat="43.72011" lon="6.97867">
        <ele>744.80590820312</ele>
        <time>2020-05-14T14:19:10Z</time>
      </trkpt>
      <trkpt lat="43.72011" lon="6.97867">
        <ele>746.57885742188</ele>
        <time>2020-05-14T14:19:11Z</time>
      </trkpt>
      <trkpt lat="43.72011" lon="6.97867">
        <ele>746.92102050781</ele>
        <time>2020-05-14T14:19:12Z</time>
      </trkpt>
      <trkpt lat="43.72011" lon="6.97867">
        <ele>748.45971679688</ele>
        <time>2020-05-14T14:19:13Z</time>
      </trkpt>
      <trkpt lat="43.72011" lon="6.97867">
        <ele>751.61535644531</ele>
        <time>2020-05-14T14:19:14Z</time>
      </trkpt>
      <trkpt lat="43.72011" lon="6.97868">
        <ele>755.96911621094</ele>
        <time>2020-05-14T14:19:15Z</time>
      </trkpt>
      <trkpt lat="43.72012" lon="6.97867">
        <ele>755.69262695312</ele>
        <time>2020-05-14T14:19:16Z</time>
      </trkpt>
      <trkpt lat="43.72013" lon="6.97867">
        <ele>753.65490722656</ele>
        <time>2020-05-14T14:19:17Z</time>
      </trkpt>
      <trkpt lat="43.72014" lon="6.97867">
        <ele>753.94067382812</ele>
        <time>2020-05-14T14:19:18Z</time>
      </trkpt>
      <trkpt lat="43.72016" lon="6.97867">
        <ele>748.93676757812</ele>
        <time>2020-05-14T14:19:19Z</time>
      </trkpt>
      <trkpt lat="43.72017" lon="6.97866">
        <ele>745.46752929688</ele>
        <time>2020-05-14T14:19:20Z</time>
      </trkpt>
      <trkpt lat="43.72019" lon="6.97866">
        <ele>747.123046875</ele>
        <time>2020-05-14T14:19:21Z</time>
      </trkpt>
      <trkpt lat="43.7202" lon="6.97866">
        <ele>749.21118164062</ele>
        <time>2020-05-14T14:19:22Z</time>
      </trkpt>
      <trkpt lat="43.72022" lon="6.97867">
        <ele>741.85888671875</ele>
        <time>2020-05-14T14:19:23Z</time>
      </trkpt>
      <trkpt lat="43.72023" lon="6.97868">
        <ele>742.82238769531</ele>
        <time>2020-05-14T14:19:24Z</time>
      </trkpt>
      <trkpt lat="43.72023" lon="6.9787">
        <ele>738.73583984375</ele>
        <time>2020-05-14T14:19:25Z</time>
      </trkpt>
      <trkpt lat="43.72023" lon="6.97872">
        <ele>760.0390625</ele>
        <time>2020-05-14T14:19:26Z</time>
      </trkpt>
      <trkpt lat="43.72024" lon="6.97873">
        <ele>757.20275878906</ele>
        <time>2020-05-14T14:19:27Z</time>
      </trkpt>
      <trkpt lat="43.72024" lon="6.97874">
        <ele>758.08862304688</ele>
        <time>2020-05-14T14:19:28Z</time>
      </trkpt>
      <trkpt lat="43.72023" lon="6.97875">
        <ele>753.9375</ele>
        <time>2020-05-14T14:19:29Z</time>
      </trkpt>
      <trkpt lat="43.72023" lon="6.97876">
        <ele>753.99475097656</ele>
        <time>2020-05-14T14:19:30Z</time>
      </trkpt>
      <trkpt lat="43.72023" lon="6.97876">
        <ele>754.52270507812</ele>
        <time>2020-05-14T14:19:31Z</time>
      </trkpt>
      <trkpt lat="43.72023" lon="6.97876">
        <ele>755.97045898438</ele>
        <time>2020-05-14T14:19:32Z</time>
      </trkpt>
      <trkpt lat="43.72023" lon="6.97877">
        <ele>755.46704101562</ele>
        <time>2020-05-14T14:19:33Z</time>
      </trkpt>
      <trkpt lat="43.72023" lon="6.97877">
        <ele>756.30725097656</ele>
        <time>2020-05-14T14:19:34Z</time>
      </trkpt>
      <trkpt lat="43.72024" lon="6.97877">
        <ele>754.94140625</ele>
        <time>2020-05-14T14:19:35Z</time>
      </trkpt>
      <trkpt lat="43.72024" lon="6.97878">
        <ele>747.37158203125</ele>
        <time>2020-05-14T14:19:36Z</time>
      </trkpt>
      <trkpt lat="43.72025" lon="6.97878">
        <ele>745.07080078125</ele>
        <time>2020-05-14T14:19:37Z</time>
      </trkpt>
      <trkpt lat="43.72025" lon="6.97878">
        <ele>739.86108398438</ele>
        <time>2020-05-14T14:19:38Z</time>
      </trkpt>
      <trkpt lat="43.72025" lon="6.97879">
        <ele>739.94287109375</ele>
        <time>2020-05-14T14:19:39Z</time>
      </trkpt>
      <trkpt lat="43.72025" lon="6.97879">
        <ele>758.15502929688</ele>
        <time>2020-05-14T14:19:40Z</time>
      </trkpt>
      <trkpt lat="43.72025" lon="6.97879">
        <ele>753.54138183594</ele>
        <time>2020-05-14T14:19:41Z</time>
      </trkpt>
      <trkpt lat="43.72025" lon="6.97879">
        <ele>752.53369140625</ele>
        <time>2020-05-14T14:19:42Z</time>
      </trkpt>
      <trkpt lat="43.72025" lon="6.97879">
        <ele>755.58422851562</ele>
        <time>2020-05-14T14:19:43Z</time>
      </trkpt>
      <trkpt lat="43.72025" lon="6.97879">
        <ele>756.55627441406</ele>
        <time>2020-05-14T14:19:44Z</time>
      </trkpt>
      <trkpt lat="43.72025" lon="6.97879">
        <ele>751.34204101562</ele>
        <time>2020-05-14T14:19:45Z</time>
      </trkpt>
      <trkpt lat="43.72025" lon="6.97879">
        <ele>747.38891601562</ele>
        <time>2020-05-14T14:19:46Z</time>
      </trkpt>
      <trkpt lat="43.72025" lon="6.97879">
        <ele>746.51965332031</ele>
        <time>2020-05-14T14:19:47Z</time>
      </trkpt>
      <trkpt lat="43.72025" lon="6.97879">
        <ele>750.12524414062</ele>
        <time>2020-05-14T14:19:48Z</time>
      </trkpt>
      <trkpt lat="43.72025" lon="6.97879">
        <ele>751.75012207031</ele>
        <time>2020-05-14T14:19:49Z</time>
      </trkpt>
      <trkpt lat="43.72025" lon="6.97879">
        <ele>752.97375488281</ele>
        <time>2020-05-14T14:19:50Z</time>
      </trkpt>
      <trkpt lat="43.72025" lon="6.97879">
        <ele>755.40551757812</ele>
        <time>2020-05-14T14:19:51Z</time>
      </trkpt>
      <trkpt lat="43.72025" lon="6.97879">
        <ele>759.42248535156</ele>
        <time>2020-05-14T14:19:52Z</time>
      </trkpt>
      <trkpt lat="43.72025" lon="6.97879">
        <ele>758.73937988281</ele>
        <time>2020-05-14T14:19:53Z</time>
      </trkpt>
      <trkpt lat="43.72025" lon="6.97879">
        <ele>760.34924316406</ele>
        <time>2020-05-14T14:19:54Z</time>
      </trkpt>
      <trkpt lat="43.72025" lon="6.97879">
        <ele>758.74194335938</ele>
        <time>2020-05-14T14:19:55Z</time>
      </trkpt>
      <trkpt lat="43.72025" lon="6.97879">
        <ele>759.00537109375</ele>
        <time>2020-05-14T14:19:56Z</time>
      </trkpt>
      <trkpt lat="43.72025" lon="6.97879">
        <ele>760.41552734375</ele>
        <time>2020-05-14T14:19:57Z</time>
      </trkpt>
      <trkpt lat="43.72025" lon="6.97879">
        <ele>761.8330078125</ele>
        <time>2020-05-14T14:19:58Z</time>
      </trkpt>
      <trkpt lat="43.72025" lon="6.97879">
        <ele>760.18383789062</ele>
        <time>2020-05-14T14:19:59Z</time>
      </trkpt>
      <trkpt lat="43.72025" lon="6.97879">
        <ele>762.10131835938</ele>
        <time>2020-05-14T14:20:00Z</time>
      </trkpt>
      <trkpt lat="43.72025" lon="6.97879">
        <ele>759.69189453125</ele>
        <time>2020-05-14T14:20:01Z</time>
      </trkpt>
      <trkpt lat="43.72025" lon="6.97879">
        <ele>759.96118164062</ele>
        <time>2020-05-14T14:20:02Z</time>
      </trkpt>
      <trkpt lat="43.72025" lon="6.97879">
        <ele>777.19311523438</ele>
        <time>2020-05-14T14:20:03Z</time>
      </trkpt>
      <trkpt lat="43.72025" lon="6.97879">
        <ele>770.35961914062</ele>
        <time>2020-05-14T14:20:04Z</time>
      </trkpt>
      <trkpt lat="43.72025" lon="6.97879">
        <ele>771.33569335938</ele>
        <time>2020-05-14T14:20:05Z</time>
      </trkpt>
      <trkpt lat="43.72025" lon="6.97879">
        <ele>766.01428222656</ele>
        <time>2020-05-14T14:20:06Z</time>
      </trkpt>
      <trkpt lat="43.72025" lon="6.97879">
        <ele>760.39575195312</ele>
        <time>2020-05-14T14:20:07Z</time>
      </trkpt>
      <trkpt lat="43.72025" lon="6.97879">
        <ele>763.19580078125</ele>
        <time>2020-05-14T14:20:08Z</time>
      </trkpt>
      <trkpt lat="43.72025" lon="6.97879">
        <ele>762.42651367188</ele>
        <time>2020-05-14T14:20:09Z</time>
      </trkpt>
      <trkpt lat="43.72025" lon="6.97879">
        <ele>755.80908203125</ele>
        <time>2020-05-14T14:20:10Z</time>
      </trkpt>
      <trkpt lat="43.72025" lon="6.97879">
        <ele>754.54833984375</ele>
        <time>2020-05-14T14:20:11Z</time>
      </trkpt>
      <trkpt lat="43.72025" lon="6.97879">
        <ele>751.97973632812</ele>
        <time>2020-05-14T14:20:12Z</time>
      </trkpt>
      <trkpt lat="43.72025" lon="6.97879">
        <ele>747.99731445312</ele>
        <time>2020-05-14T14:20:13Z</time>
      </trkpt>
      <trkpt lat="43.72025" lon="6.97879">
        <ele>745.23315429688</ele>
        <time>2020-05-14T14:20:14Z</time>
      </trkpt>
      <trkpt lat="43.72025" lon="6.97879">
        <ele>743.06982421875</ele>
        <time>2020-05-14T14:20:15Z</time>
      </trkpt>
      <trkpt lat="43.72025" lon="6.97879">
        <ele>744.74682617188</ele>
        <time>2020-05-14T14:20:16Z</time>
      </trkpt>
      <trkpt lat="43.72025" lon="6.97879">
        <ele>740.01794433594</ele>
        <time>2020-05-14T14:20:17Z</time>
      </trkpt>
      <trkpt lat="43.72025" lon="6.97879">
        <ele>735.44519042969</ele>
        <time>2020-05-14T14:20:18Z</time>
      </trkpt>
      <trkpt lat="43.72025" lon="6.97879">
        <ele>735.05798339844</ele>
        <time>2020-05-14T14:20:19Z</time>
      </trkpt>
      <trkpt lat="43.72025" lon="6.97879">
        <ele>733.03234863281</ele>
        <time>2020-05-14T14:20:20Z</time>
      </trkpt>
      <trkpt lat="43.72025" lon="6.97879">
        <ele>734.84765625</ele>
        <time>2020-05-14T14:20:21Z</time>
      </trkpt>
      <trkpt lat="43.72025" lon="6.97879">
        <ele>736.01879882812</ele>
        <time>2020-05-14T14:20:22Z</time>
      </trkpt>
      <trkpt lat="43.72025" lon="6.97879">
        <ele>737.97729492188</ele>
        <time>2020-05-14T14:20:23Z</time>
      </trkpt>
      <trkpt lat="43.72025" lon="6.97879">
        <ele>739.31030273438</ele>
        <time>2020-05-14T14:20:24Z</time>
      </trkpt>
      <trkpt lat="43.72025" lon="6.97879">
        <ele>741.61694335938</ele>
        <time>2020-05-14T14:20:25Z</time>
      </trkpt>
      <trkpt lat="43.72025" lon="6.97879">
        <ele>738.8466796875</ele>
        <time>2020-05-14T14:20:26Z</time>
      </trkpt>
      <trkpt lat="43.72025" lon="6.97879">
        <ele>739.60656738281</ele>
        <time>2020-05-14T14:20:27Z</time>
      </trkpt>
      <trkpt lat="43.72025" lon="6.97879">
        <ele>743.080078125</ele>
        <time>2020-05-14T14:20:28Z</time>
      </trkpt>
      <trkpt lat="43.72025" lon="6.97879">
        <ele>743.23120117188</ele>
        <time>2020-05-14T14:20:29Z</time>
      </trkpt>
      <trkpt lat="43.72025" lon="6.97879">
        <ele>750.83837890625</ele>
        <time>2020-05-14T14:20:30Z</time>
      </trkpt>
      <trkpt lat="43.72025" lon="6.97879">
        <ele>752.97900390625</ele>
        <time>2020-05-14T14:20:31Z</time>
      </trkpt>
      <trkpt lat="43.72025" lon="6.97879">
        <ele>758.74353027344</ele>
        <time>2020-05-14T14:20:32Z</time>
      </trkpt>
      <trkpt lat="43.72025" lon="6.97879">
        <ele>755.52612304688</ele>
        <time>2020-05-14T14:20:33Z</time>
      </trkpt>
      <trkpt lat="43.72025" lon="6.97879">
        <ele>758.5341796875</ele>
        <time>2020-05-14T14:20:34Z</time>
      </trkpt>
      <trkpt lat="43.72025" lon="6.97879">
        <ele>762.51391601562</ele>
        <time>2020-05-14T14:20:35Z</time>
      </trkpt>
      <trkpt lat="43.72025" lon="6.97879">
        <ele>762.69775390625</ele>
        <time>2020-05-14T14:20:36Z</time>
      </trkpt>
      <trkpt lat="43.72025" lon="6.97879">
        <ele>755.67321777344</ele>
        <time>2020-05-14T14:20:37Z</time>
      </trkpt>
      <trkpt lat="43.72025" lon="6.97879">
        <ele>773.33618164062</ele>
        <time>2020-05-14T14:20:38Z</time>
      </trkpt>
      <trkpt lat="43.72025" lon="6.97879">
        <ele>773.97302246094</ele>
        <time>2020-05-14T14:20:39Z</time>
      </trkpt>
      <trkpt lat="43.72025" lon="6.97879">
        <ele>774.47277832031</ele>
        <time>2020-05-14T14:20:40Z</time>
      </trkpt>
      <trkpt lat="43.72025" lon="6.97879">
        <ele>773.193359375</ele>
        <time>2020-05-14T14:20:41Z</time>
      </trkpt>
      <trkpt lat="43.72025" lon="6.97879">
        <ele>773.87841796875</ele>
        <time>2020-05-14T14:20:42Z</time>
      </trkpt>
      <trkpt lat="43.72025" lon="6.97879">
        <ele>771.04174804688</ele>
        <time>2020-05-14T14:20:43Z</time>
      </trkpt>
      <trkpt lat="43.72025" lon="6.97879">
        <ele>768.08959960938</ele>
        <time>2020-05-14T14:20:44Z</time>
      </trkpt>
      <trkpt lat="43.72025" lon="6.9788">
        <ele>764.49645996094</ele>
        <time>2020-05-14T14:20:45Z</time>
      </trkpt>
      <trkpt lat="43.72024" lon="6.9788">
        <ele>759.392578125</ele>
        <time>2020-05-14T14:20:46Z</time>
      </trkpt>
      <trkpt lat="43.72024" lon="6.9788">
        <ele>760.06164550781</ele>
        <time>2020-05-14T14:20:47Z</time>
      </trkpt>
      <trkpt lat="43.72025" lon="6.9788">
        <ele>752.04553222656</ele>
        <time>2020-05-14T14:20:48Z</time>
      </trkpt>
      <trkpt lat="43.72025" lon="6.97879">
        <ele>741.31848144531</ele>
        <time>2020-05-14T14:20:49Z</time>
      </trkpt>
      <trkpt lat="43.72025" lon="6.97879">
        <ele>740.69604492188</ele>
        <time>2020-05-14T14:20:50Z</time>
      </trkpt>
      <trkpt lat="43.72025" lon="6.97879">
        <ele>743.9248046875</ele>
        <time>2020-05-14T14:20:51Z</time>
      </trkpt>
      <trkpt lat="43.72025" lon="6.9788">
        <ele>742.8125</ele>
        <time>2020-05-14T14:20:52Z</time>
      </trkpt>
      <trkpt lat="43.72026" lon="6.9788">
        <ele>753.05908203125</ele>
        <time>2020-05-14T14:20:53Z</time>
      </trkpt>
      <trkpt lat="43.72026" lon="6.97881">
        <ele>747.63049316406</ele>
        <time>2020-05-14T14:20:54Z</time>
      </trkpt>
      <trkpt lat="43.72026" lon="6.97881">
        <ele>743.00366210938</ele>
        <time>2020-05-14T14:20:55Z</time>
      </trkpt>
      <trkpt lat="43.72026" lon="6.97881">
        <ele>743.64184570312</ele>
        <time>2020-05-14T14:20:56Z</time>
      </trkpt>
      <trkpt lat="43.72026" lon="6.97882">
        <ele>743.87768554688</ele>
        <time>2020-05-14T14:20:57Z</time>
      </trkpt>
      <trkpt lat="43.72027" lon="6.97882">
        <ele>745.55627441406</ele>
        <time>2020-05-14T14:20:58Z</time>
      </trkpt>
      <trkpt lat="43.72027" lon="6.97882">
        <ele>747.95629882812</ele>
        <time>2020-05-14T14:20:59Z</time>
      </trkpt>
      <trkpt lat="43.72027" lon="6.97882">
        <ele>751.68469238281</ele>
        <time>2020-05-14T14:21:00Z</time>
      </trkpt>
      <trkpt lat="43.72027" lon="6.97882">
        <ele>749.50219726562</ele>
        <time>2020-05-14T14:21:01Z</time>
      </trkpt>
      <trkpt lat="43.72027" lon="6.97882">
        <ele>750.10424804688</ele>
        <time>2020-05-14T14:21:02Z</time>
      </trkpt>
      <trkpt lat="43.72027" lon="6.97882">
        <ele>747.79760742188</ele>
        <time>2020-05-14T14:21:03Z</time>
      </trkpt>
      <trkpt lat="43.72027" lon="6.97882">
        <ele>750.31262207031</ele>
        <time>2020-05-14T14:21:04Z</time>
      </trkpt>
      <trkpt lat="43.72027" lon="6.97882">
        <ele>751.66528320312</ele>
        <time>2020-05-14T14:21:05Z</time>
      </trkpt>
      <trkpt lat="43.72027" lon="6.97882">
        <ele>750.62829589844</ele>
        <time>2020-05-14T14:21:06Z</time>
      </trkpt>
      <trkpt lat="43.72027" lon="6.97882">
        <ele>752.86328125</ele>
        <time>2020-05-14T14:21:07Z</time>
      </trkpt>
      <trkpt lat="43.72027" lon="6.97882">
        <ele>749.41040039062</ele>
        <time>2020-05-14T14:21:08Z</time>
      </trkpt>
      <trkpt lat="43.72027" lon="6.97882">
        <ele>749.58605957031</ele>
        <time>2020-05-14T14:21:09Z</time>
      </trkpt>
      <trkpt lat="43.72027" lon="6.97882">
        <ele>751.01342773438</ele>
        <time>2020-05-14T14:21:10Z</time>
      </trkpt>
      <trkpt lat="43.72027" lon="6.97882">
        <ele>751.03466796875</ele>
        <time>2020-05-14T14:21:11Z</time>
      </trkpt>
      <trkpt lat="43.72027" lon="6.97882">
        <ele>744.54235839844</ele>
        <time>2020-05-14T14:21:12Z</time>
      </trkpt>
      <trkpt lat="43.72027" lon="6.97882">
        <ele>745.91235351562</ele>
        <time>2020-05-14T14:21:13Z</time>
      </trkpt>
      <trkpt lat="43.72027" lon="6.97882">
        <ele>748.22021484375</ele>
        <time>2020-05-14T14:21:14Z</time>
      </trkpt>
      <trkpt lat="43.72027" lon="6.97882">
        <ele>750.34716796875</ele>
        <time>2020-05-14T14:21:15Z</time>
      </trkpt>
      <trkpt lat="43.72027" lon="6.97882">
        <ele>751.16259765625</ele>
        <time>2020-05-14T14:21:16Z</time>
      </trkpt>
      <trkpt lat="43.72027" lon="6.97882">
        <ele>752.20446777344</ele>
        <time>2020-05-14T14:21:17Z</time>
      </trkpt>
      <trkpt lat="43.72027" lon="6.97882">
        <ele>753.36499023438</ele>
        <time>2020-05-14T14:21:18Z</time>
      </trkpt>
      <trkpt lat="43.72027" lon="6.97882">
        <ele>754.5244140625</ele>
        <time>2020-05-14T14:21:19Z</time>
      </trkpt>
      <trkpt lat="43.72027" lon="6.97882">
        <ele>769.15979003906</ele>
        <time>2020-05-14T14:21:20Z</time>
      </trkpt>
      <trkpt lat="43.72027" lon="6.97882">
        <ele>770.20727539062</ele>
        <time>2020-05-14T14:21:21Z</time>
      </trkpt>
      <trkpt lat="43.72027" lon="6.97882">
        <ele>770.99499511719</ele>
        <time>2020-05-14T14:21:22Z</time>
      </trkpt>
      <trkpt lat="43.72027" lon="6.97882">
        <ele>773.78271484375</ele>
        <time>2020-05-14T14:21:23Z</time>
      </trkpt>
      <trkpt lat="43.72027" lon="6.97882">
        <ele>772.78125</ele>
        <time>2020-05-14T14:21:24Z</time>
      </trkpt>
      <trkpt lat="43.72027" lon="6.97882">
        <ele>771.36376953125</ele>
        <time>2020-05-14T14:21:25Z</time>
      </trkpt>
      <trkpt lat="43.72027" lon="6.97882">
        <ele>771.30078125</ele>
        <time>2020-05-14T14:21:26Z</time>
      </trkpt>
      <trkpt lat="43.72027" lon="6.97882">
        <ele>771.10693359375</ele>
        <time>2020-05-14T14:21:27Z</time>
      </trkpt>
      <trkpt lat="43.72027" lon="6.97882">
        <ele>769.93798828125</ele>
        <time>2020-05-14T14:21:28Z</time>
      </trkpt>
      <trkpt lat="43.72027" lon="6.97882">
        <ele>770.67309570312</ele>
        <time>2020-05-14T14:21:29Z</time>
      </trkpt>
      <trkpt lat="43.72027" lon="6.97882">
        <ele>770.69018554688</ele>
        <time>2020-05-14T14:21:30Z</time>
      </trkpt>
      <trkpt lat="43.72027" lon="6.97882">
        <ele>770.27172851562</ele>
        <time>2020-05-14T14:21:31Z</time>
      </trkpt>
      <trkpt lat="43.72027" lon="6.97882">
        <ele>764.36389160156</ele>
        <time>2020-05-14T14:21:32Z</time>
      </trkpt>
      <trkpt lat="43.72027" lon="6.97882">
        <ele>764.07153320312</ele>
        <time>2020-05-14T14:21:33Z</time>
      </trkpt>
      <trkpt lat="43.72027" lon="6.97882">
        <ele>769.46166992188</ele>
        <time>2020-05-14T14:21:34Z</time>
      </trkpt>
      <trkpt lat="43.72027" lon="6.97882">
        <ele>769.92822265625</ele>
        <time>2020-05-14T14:21:35Z</time>
      </trkpt>
      <trkpt lat="43.72027" lon="6.97882">
        <ele>765.57495117188</ele>
        <time>2020-05-14T14:21:36Z</time>
      </trkpt>
      <trkpt lat="43.72026" lon="6.97881">
        <ele>758.12475585938</ele>
        <time>2020-05-14T14:21:37Z</time>
      </trkpt>
      <trkpt lat="43.72026" lon="6.97881">
        <ele>750.8974609375</ele>
        <time>2020-05-14T14:21:38Z</time>
      </trkpt>
      <trkpt lat="43.72026" lon="6.97881">
        <ele>754.86938476562</ele>
        <time>2020-05-14T14:21:39Z</time>
      </trkpt>
      <trkpt lat="43.72026" lon="6.97881">
        <ele>756.2197265625</ele>
        <time>2020-05-14T14:21:40Z</time>
      </trkpt>
      <trkpt lat="43.72026" lon="6.97881">
        <ele>755.01782226562</ele>
        <time>2020-05-14T14:21:41Z</time>
      </trkpt>
      <trkpt lat="43.72026" lon="6.97881">
        <ele>750.95959472656</ele>
        <time>2020-05-14T14:21:42Z</time>
      </trkpt>
      <trkpt lat="43.72027" lon="6.97882">
        <ele>751.123046875</ele>
        <time>2020-05-14T14:21:43Z</time>
      </trkpt>
      <trkpt lat="43.72027" lon="6.97882">
        <ele>754.5625</ele>
        <time>2020-05-14T14:21:44Z</time>
      </trkpt>
      <trkpt lat="43.72027" lon="6.97882">
        <ele>756.49755859375</ele>
        <time>2020-05-14T14:21:45Z</time>
      </trkpt>
      <trkpt lat="43.72027" lon="6.97882">
        <ele>757.96655273438</ele>
        <time>2020-05-14T14:21:46Z</time>
      </trkpt>
      <trkpt lat="43.72027" lon="6.97882">
        <ele>761.18798828125</ele>
        <time>2020-05-14T14:21:47Z</time>
      </trkpt>
      <trkpt lat="43.72027" lon="6.97883">
        <ele>763.60546875</ele>
        <time>2020-05-14T14:21:48Z</time>
      </trkpt>
      <trkpt lat="43.72027" lon="6.97883">
        <ele>766.74096679688</ele>
        <time>2020-05-14T14:21:49Z</time>
      </trkpt>
      <trkpt lat="43.72027" lon="6.97883">
        <ele>768.74584960938</ele>
        <time>2020-05-14T14:21:50Z</time>
      </trkpt>
      <trkpt lat="43.72027" lon="6.97883">
        <ele>770.66430664062</ele>
        <time>2020-05-14T14:21:51Z</time>
      </trkpt>
      <trkpt lat="43.72026" lon="6.97883">
        <ele>771.12915039062</ele>
        <time>2020-05-14T14:21:52Z</time>
      </trkpt>
      <trkpt lat="43.72026" lon="6.97883">
        <ele>772.56176757812</ele>
        <time>2020-05-14T14:21:53Z</time>
      </trkpt>
      <trkpt lat="43.72026" lon="6.97883">
        <ele>772.62683105469</ele>
        <time>2020-05-14T14:21:54Z</time>
      </trkpt>
      <trkpt lat="43.72026" lon="6.97883">
        <ele>774.60913085938</ele>
        <time>2020-05-14T14:21:55Z</time>
      </trkpt>
      <trkpt lat="43.72026" lon="6.97883">
        <ele>776.48681640625</ele>
        <time>2020-05-14T14:21:56Z</time>
      </trkpt>
      <trkpt lat="43.72026" lon="6.97883">
        <ele>776.9345703125</ele>
        <time>2020-05-14T14:21:57Z</time>
      </trkpt>
      <trkpt lat="43.72026" lon="6.97883">
        <ele>779.9619140625</ele>
        <time>2020-05-14T14:21:58Z</time>
      </trkpt>
      <trkpt lat="43.72026" lon="6.97883">
        <ele>774.2607421875</ele>
        <time>2020-05-14T14:21:59Z</time>
      </trkpt>
      <trkpt lat="43.72026" lon="6.97883">
        <ele>773.3046875</ele>
        <time>2020-05-14T14:22:00Z</time>
      </trkpt>
      <trkpt lat="43.72026" lon="6.97883">
        <ele>774.17309570312</ele>
        <time>2020-05-14T14:22:01Z</time>
      </trkpt>
      <trkpt lat="43.72027" lon="6.97883">
        <ele>775.26403808594</ele>
        <time>2020-05-14T14:22:02Z</time>
      </trkpt>
      <trkpt lat="43.72027" lon="6.97883">
        <ele>779.12744140625</ele>
        <time>2020-05-14T14:22:03Z</time>
      </trkpt>
      <trkpt lat="43.72027" lon="6.97883">
        <ele>779.68566894531</ele>
        <time>2020-05-14T14:22:04Z</time>
      </trkpt>
      <trkpt lat="43.72028" lon="6.97882">
        <ele>781.57202148438</ele>
        <time>2020-05-14T14:22:05Z</time>
      </trkpt>
      <trkpt lat="43.72028" lon="6.97882">
        <ele>783.6240234375</ele>
        <time>2020-05-14T14:22:06Z</time>
      </trkpt>
      <trkpt lat="43.72028" lon="6.97882">
        <ele>784.7900390625</ele>
        <time>2020-05-14T14:22:07Z</time>
      </trkpt>
      <trkpt lat="43.72028" lon="6.97882">
        <ele>785.29931640625</ele>
        <time>2020-05-14T14:22:08Z</time>
      </trkpt>
      <trkpt lat="43.72029" lon="6.97881">
        <ele>785.79028320312</ele>
        <time>2020-05-14T14:22:09Z</time>
      </trkpt>
      <trkpt lat="43.72029" lon="6.97881">
        <ele>785.87451171875</ele>
        <time>2020-05-14T14:22:10Z</time>
      </trkpt>
      <trkpt lat="43.72029" lon="6.97881">
        <ele>786.18493652344</ele>
        <time>2020-05-14T14:22:11Z</time>
      </trkpt>
      <trkpt lat="43.72029" lon="6.97881">
        <ele>786.45361328125</ele>
        <time>2020-05-14T14:22:12Z</time>
      </trkpt>
      <trkpt lat="43.72029" lon="6.97881">
        <ele>786.73999023438</ele>
        <time>2020-05-14T14:22:13Z</time>
      </trkpt>
      <trkpt lat="43.72029" lon="6.97881">
        <ele>786.82165527344</ele>
        <time>2020-05-14T14:22:14Z</time>
      </trkpt>
      <trkpt lat="43.72029" lon="6.97881">
        <ele>786.88037109375</ele>
        <time>2020-05-14T14:22:15Z</time>
      </trkpt>
      <trkpt lat="43.72029" lon="6.97881">
        <ele>786.86779785156</ele>
        <time>2020-05-14T14:22:16Z</time>
      </trkpt>
      <trkpt lat="43.72029" lon="6.97881">
        <ele>786.88195800781</ele>
        <time>2020-05-14T14:22:17Z</time>
      </trkpt>
      <trkpt lat="43.72029" lon="6.97881">
        <ele>786.80297851562</ele>
        <time>2020-05-14T14:22:18Z</time>
      </trkpt>
      <trkpt lat="43.72029" lon="6.97881">
        <ele>786.92199707031</ele>
        <time>2020-05-14T14:22:19Z</time>
      </trkpt>
      <trkpt lat="43.7203" lon="6.97881">
        <ele>787.185546875</ele>
        <time>2020-05-14T14:22:20Z</time>
      </trkpt>
      <trkpt lat="43.7203" lon="6.9788">
        <ele>787.37939453125</ele>
        <time>2020-05-14T14:22:21Z</time>
      </trkpt>
      <trkpt lat="43.7203" lon="6.97881">
        <ele>786.67822265625</ele>
        <time>2020-05-14T14:22:22Z</time>
      </trkpt>
      <trkpt lat="43.7203" lon="6.97881">
        <ele>786.14794921875</ele>
        <time>2020-05-14T14:22:23Z</time>
      </trkpt>
      <trkpt lat="43.7203" lon="6.97882">
        <ele>786.18615722656</ele>
        <time>2020-05-14T14:22:24Z</time>
      </trkpt>
      <trkpt lat="43.7203" lon="6.97882">
        <ele>786.28881835938</ele>
        <time>2020-05-14T14:22:25Z</time>
      </trkpt>
      <trkpt lat="43.7203" lon="6.97882">
        <ele>786.37524414062</ele>
        <time>2020-05-14T14:22:26Z</time>
      </trkpt>
      <trkpt lat="43.7203" lon="6.97882">
        <ele>783.51940917969</ele>
        <time>2020-05-14T14:22:27Z</time>
      </trkpt>
      <trkpt lat="43.72029" lon="6.97882">
        <ele>780.59155273438</ele>
        <time>2020-05-14T14:22:28Z</time>
      </trkpt>
      <trkpt lat="43.72028" lon="6.97881">
        <ele>779.6640625</ele>
        <time>2020-05-14T14:22:29Z</time>
      </trkpt>
      <trkpt lat="43.72028" lon="6.97881">
        <ele>778.01000976562</ele>
        <time>2020-05-14T14:22:30Z</time>
      </trkpt>
      <trkpt lat="43.72027" lon="6.97881">
        <ele>773.6826171875</ele>
        <time>2020-05-14T14:22:31Z</time>
      </trkpt>
      <trkpt lat="43.72027" lon="6.9788">
        <ele>774.22399902344</ele>
        <time>2020-05-14T14:22:32Z</time>
      </trkpt>
      <trkpt lat="43.72027" lon="6.9788">
        <ele>773.95166015625</ele>
        <time>2020-05-14T14:22:33Z</time>
      </trkpt>
      <trkpt lat="43.72027" lon="6.9788">
        <ele>771.40686035156</ele>
        <time>2020-05-14T14:22:34Z</time>
      </trkpt>
      <trkpt lat="43.72026" lon="6.9788">
        <ele>768.76733398438</ele>
        <time>2020-05-14T14:22:35Z</time>
      </trkpt>
      <trkpt lat="43.72026" lon="6.97879">
        <ele>771.60766601562</ele>
        <time>2020-05-14T14:22:36Z</time>
      </trkpt>
      <trkpt lat="43.72027" lon="6.97878">
        <ele>775.2236328125</ele>
        <time>2020-05-14T14:22:37Z</time>
      </trkpt>
      <trkpt lat="43.72027" lon="6.97878">
        <ele>774.00390625</ele>
        <time>2020-05-14T14:22:38Z</time>
      </trkpt>
      <trkpt lat="43.72027" lon="6.97878">
        <ele>773.03173828125</ele>
        <time>2020-05-14T14:22:39Z</time>
      </trkpt>
      <trkpt lat="43.72027" lon="6.97879">
        <ele>775.92114257812</ele>
        <time>2020-05-14T14:22:40Z</time>
      </trkpt>
      <trkpt lat="43.72027" lon="6.97879">
        <ele>776.89086914062</ele>
        <time>2020-05-14T14:22:41Z</time>
      </trkpt>
      <trkpt lat="43.72027" lon="6.97879">
        <ele>776.77331542969</ele>
        <time>2020-05-14T14:22:42Z</time>
      </trkpt>
      <trkpt lat="43.72027" lon="6.97879">
        <ele>777.9287109375</ele>
        <time>2020-05-14T14:22:43Z</time>
      </trkpt>
      <trkpt lat="43.72026" lon="6.97877">
        <ele>764.87255859375</ele>
        <time>2020-05-14T14:22:44Z</time>
      </trkpt>
      <trkpt lat="43.72026" lon="6.97875">
        <ele>765.10083007812</ele>
        <time>2020-05-14T14:22:45Z</time>
      </trkpt>
      <trkpt lat="43.72025" lon="6.97873">
        <ele>760.81970214844</ele>
        <time>2020-05-14T14:22:46Z</time>
      </trkpt>
      <trkpt lat="43.72023" lon="6.97872">
        <ele>756.52905273438</ele>
        <time>2020-05-14T14:22:47Z</time>
      </trkpt>
      <trkpt lat="43.72022" lon="6.97871">
        <ele>752.48803710938</ele>
        <time>2020-05-14T14:22:48Z</time>
      </trkpt>
      <trkpt lat="43.7202" lon="6.9787">
        <ele>753.19116210938</ele>
        <time>2020-05-14T14:22:49Z</time>
      </trkpt>
      <trkpt lat="43.72017" lon="6.9787">
        <ele>751.44750976562</ele>
        <time>2020-05-14T14:22:50Z</time>
      </trkpt>
      <trkpt lat="43.72015" lon="6.97871">
        <ele>750.76184082031</ele>
        <time>2020-05-14T14:22:51Z</time>
      </trkpt>
      <trkpt lat="43.72013" lon="6.97872">
        <ele>747.9326171875</ele>
        <time>2020-05-14T14:22:52Z</time>
      </trkpt>
      <trkpt lat="43.72011" lon="6.97873">
        <ele>745.81811523438</ele>
        <time>2020-05-14T14:22:53Z</time>
      </trkpt>
      <trkpt lat="43.72009" lon="6.97874">
        <ele>745.69836425781</ele>
        <time>2020-05-14T14:22:54Z</time>
      </trkpt>
      <trkpt lat="43.72006" lon="6.97875">
        <ele>747.23120117188</ele>
        <time>2020-05-14T14:22:55Z</time>
      </trkpt>
      <trkpt lat="43.72004" lon="6.97876">
        <ele>744.13745117188</ele>
        <time>2020-05-14T14:22:56Z</time>
      </trkpt>
      <trkpt lat="43.72002" lon="6.97876">
        <ele>758.0283203125</ele>
        <time>2020-05-14T14:22:57Z</time>
      </trkpt>
      <trkpt lat="43.72001" lon="6.97877">
        <ele>758.66320800781</ele>
        <time>2020-05-14T14:22:58Z</time>
      </trkpt>
      <trkpt lat="43.71999" lon="6.97878">
        <ele>759.03503417969</ele>
        <time>2020-05-14T14:22:59Z</time>
      </trkpt>
      <trkpt lat="43.71997" lon="6.97879">
        <ele>760.30798339844</ele>
        <time>2020-05-14T14:23:00Z</time>
      </trkpt>
      <trkpt lat="43.71994" lon="6.9788">
        <ele>761.80859375</ele>
        <time>2020-05-14T14:23:01Z</time>
      </trkpt>
      <trkpt lat="43.71992" lon="6.97881">
        <ele>762.15002441406</ele>
        <time>2020-05-14T14:23:02Z</time>
      </trkpt>
      <trkpt lat="43.7199" lon="6.97882">
        <ele>763.63220214844</ele>
        <time>2020-05-14T14:23:03Z</time>
      </trkpt>
      <trkpt lat="43.71988" lon="6.97883">
        <ele>764.20703125</ele>
        <time>2020-05-14T14:23:04Z</time>
      </trkpt>
      <trkpt lat="43.71986" lon="6.97884">
        <ele>763.79736328125</ele>
        <time>2020-05-14T14:23:05Z</time>
      </trkpt>
      <trkpt lat="43.71984" lon="6.97885">
        <ele>752.76684570312</ele>
        <time>2020-05-14T14:23:06Z</time>
      </trkpt>
      <trkpt lat="43.71983" lon="6.97886">
        <ele>752.59594726562</ele>
        <time>2020-05-14T14:23:07Z</time>
      </trkpt>
      <trkpt lat="43.71981" lon="6.97887">
        <ele>755.40991210938</ele>
        <time>2020-05-14T14:23:08Z</time>
      </trkpt>
      <trkpt lat="43.7198" lon="6.97888">
        <ele>756.55603027344</ele>
        <time>2020-05-14T14:23:09Z</time>
      </trkpt>
      <trkpt lat="43.71978" lon="6.97889">
        <ele>759.29736328125</ele>
        <time>2020-05-14T14:23:10Z</time>
      </trkpt>
      <trkpt lat="43.71977" lon="6.97891">
        <ele>760.74609375</ele>
        <time>2020-05-14T14:23:11Z</time>
      </trkpt>
      <trkpt lat="43.71975" lon="6.97892">
        <ele>776.46435546875</ele>
        <time>2020-05-14T14:23:12Z</time>
      </trkpt>
      <trkpt lat="43.71972" lon="6.97892">
        <ele>777.11328125</ele>
        <time>2020-05-14T14:23:13Z</time>
      </trkpt>
      <trkpt lat="43.71969" lon="6.97892">
        <ele>776.38586425781</ele>
        <time>2020-05-14T14:23:14Z</time>
      </trkpt>
      <trkpt lat="43.71966" lon="6.97891">
        <ele>767.71020507812</ele>
        <time>2020-05-14T14:23:15Z</time>
      </trkpt>
      <trkpt lat="43.71962" lon="6.97889">
        <ele>773.21081542969</ele>
        <time>2020-05-14T14:23:16Z</time>
      </trkpt>
      <trkpt lat="43.71958" lon="6.97887">
        <ele>772.23315429688</ele>
        <time>2020-05-14T14:23:17Z</time>
      </trkpt>
      <trkpt lat="43.71953" lon="6.9788">
        <ele>773.04174804688</ele>
        <time>2020-05-14T14:23:18Z</time>
      </trkpt>
      <trkpt lat="43.7195" lon="6.97874">
        <ele>776.33850097656</ele>
        <time>2020-05-14T14:23:19Z</time>
      </trkpt>
      <trkpt lat="43.71948" lon="6.97872">
        <ele>778.12084960938</ele>
        <time>2020-05-14T14:23:20Z</time>
      </trkpt>
      <trkpt lat="43.71947" lon="6.97871">
        <ele>778.10131835938</ele>
        <time>2020-05-14T14:23:21Z</time>
      </trkpt>
      <trkpt lat="43.71946" lon="6.9787">
        <ele>779.875</ele>
        <time>2020-05-14T14:23:22Z</time>
      </trkpt>
      <trkpt lat="43.71944" lon="6.97871">
        <ele>780.76892089844</ele>
        <time>2020-05-14T14:23:23Z</time>
      </trkpt>
      <trkpt lat="43.71943" lon="6.97872">
        <ele>780.734375</ele>
        <time>2020-05-14T14:23:24Z</time>
      </trkpt>
      <trkpt lat="43.71942" lon="6.97871">
        <ele>778.86022949219</ele>
        <time>2020-05-14T14:23:25Z</time>
      </trkpt>
      <trkpt lat="43.71941" lon="6.97869">
        <ele>784.02526855469</ele>
        <time>2020-05-14T14:23:26Z</time>
      </trkpt>
      <trkpt lat="43.7194" lon="6.97867">
        <ele>780.39697265625</ele>
        <time>2020-05-14T14:23:27Z</time>
      </trkpt>
      <trkpt lat="43.7194" lon="6.97866">
        <ele>782.49645996094</ele>
        <time>2020-05-14T14:23:28Z</time>
      </trkpt>
      <trkpt lat="43.7194" lon="6.97865">
        <ele>782.73217773438</ele>
        <time>2020-05-14T14:23:29Z</time>
      </trkpt>
      <trkpt lat="43.7194" lon="6.97865">
        <ele>782.94909667969</ele>
        <time>2020-05-14T14:23:30Z</time>
      </trkpt>
      <trkpt lat="43.71941" lon="6.97864">
        <ele>782.56689453125</ele>
        <time>2020-05-14T14:23:31Z</time>
      </trkpt>
      <trkpt lat="43.71941" lon="6.97865">
        <ele>777.95776367188</ele>
        <time>2020-05-14T14:23:32Z</time>
      </trkpt>
      <trkpt lat="43.71941" lon="6.97865">
        <ele>782.73608398438</ele>
        <time>2020-05-14T14:23:33Z</time>
      </trkpt>
      <trkpt lat="43.71941" lon="6.97864">
        <ele>780.96166992188</ele>
        <time>2020-05-14T14:23:34Z</time>
      </trkpt>
      <trkpt lat="43.71941" lon="6.97864">
        <ele>782.61315917969</ele>
        <time>2020-05-14T14:23:35Z</time>
      </trkpt>
      <trkpt lat="43.71941" lon="6.97863">
        <ele>781.9873046875</ele>
        <time>2020-05-14T14:23:36Z</time>
      </trkpt>
      <trkpt lat="43.71941" lon="6.97862">
        <ele>782.400390625</ele>
        <time>2020-05-14T14:23:37Z</time>
      </trkpt>
      <trkpt lat="43.71941" lon="6.97862">
        <ele>780.55786132812</ele>
        <time>2020-05-14T14:23:38Z</time>
      </trkpt>
      <trkpt lat="43.71941" lon="6.97862">
        <ele>780.33166503906</ele>
        <time>2020-05-14T14:23:39Z</time>
      </trkpt>
      <trkpt lat="43.7194" lon="6.97862">
        <ele>780.03552246094</ele>
        <time>2020-05-14T14:23:40Z</time>
      </trkpt>
      <trkpt lat="43.7194" lon="6.97863">
        <ele>779.77124023438</ele>
        <time>2020-05-14T14:23:41Z</time>
      </trkpt>
      <trkpt lat="43.71941" lon="6.97864">
        <ele>779.931640625</ele>
        <time>2020-05-14T14:23:42Z</time>
      </trkpt>
      <trkpt lat="43.71941" lon="6.97864">
        <ele>780.5078125</ele>
        <time>2020-05-14T14:23:43Z</time>
      </trkpt>
      <trkpt lat="43.71941" lon="6.97864">
        <ele>782.47216796875</ele>
        <time>2020-05-14T14:23:44Z</time>
      </trkpt>
      <trkpt lat="43.71941" lon="6.97864">
        <ele>781.97143554688</ele>
        <time>2020-05-14T14:23:45Z</time>
      </trkpt>
      <trkpt lat="43.7194" lon="6.97864">
        <ele>781.20043945312</ele>
        <time>2020-05-14T14:23:46Z</time>
      </trkpt>
      <trkpt lat="43.7194" lon="6.97864">
        <ele>780.54321289062</ele>
        <time>2020-05-14T14:23:47Z</time>
      </trkpt>
      <trkpt lat="43.7194" lon="6.97864">
        <ele>781.34948730469</ele>
        <time>2020-05-14T14:23:48Z</time>
      </trkpt>
      <trkpt lat="43.7194" lon="6.97864">
        <ele>781.78442382812</ele>
        <time>2020-05-14T14:23:49Z</time>
      </trkpt>
      <trkpt lat="43.7194" lon="6.97864">
        <ele>781.97375488281</ele>
        <time>2020-05-14T14:23:50Z</time>
      </trkpt>
      <trkpt lat="43.7194" lon="6.97863">
        <ele>782.25244140625</ele>
        <time>2020-05-14T14:23:51Z</time>
      </trkpt>
      <trkpt lat="43.7194" lon="6.97863">
        <ele>782.19580078125</ele>
        <time>2020-05-14T14:23:52Z</time>
      </trkpt>
      <trkpt lat="43.7194" lon="6.97863">
        <ele>782.10913085938</ele>
        <time>2020-05-14T14:23:53Z</time>
      </trkpt>
      <trkpt lat="43.7194" lon="6.97863">
        <ele>782.0009765625</ele>
        <time>2020-05-14T14:23:54Z</time>
      </trkpt>
      <trkpt lat="43.7194" lon="6.97863">
        <ele>781.98327636719</ele>
        <time>2020-05-14T14:23:55Z</time>
      </trkpt>
      <trkpt lat="43.7194" lon="6.97863">
        <ele>782.05712890625</ele>
        <time>2020-05-14T14:23:56Z</time>
      </trkpt>
      <trkpt lat="43.7194" lon="6.97863">
        <ele>782.103515625</ele>
        <time>2020-05-14T14:23:57Z</time>
      </trkpt>
      <trkpt lat="43.7194" lon="6.97863">
        <ele>782.08203125</ele>
        <time>2020-05-14T14:23:58Z</time>
      </trkpt>
      <trkpt lat="43.7194" lon="6.97863">
        <ele>782.06469726562</ele>
        <time>2020-05-14T14:23:59Z</time>
      </trkpt>
      <trkpt lat="43.7194" lon="6.97863">
        <ele>782.07983398438</ele>
        <time>2020-05-14T14:24:00Z</time>
      </trkpt>
      <trkpt lat="43.7194" lon="6.97862">
        <ele>782.05798339844</ele>
        <time>2020-05-14T14:24:01Z</time>
      </trkpt>
      <trkpt lat="43.7194" lon="6.97862">
        <ele>782.02038574219</ele>
        <time>2020-05-14T14:24:02Z</time>
      </trkpt>
      <trkpt lat="43.7194" lon="6.97863">
        <ele>782.06298828125</ele>
        <time>2020-05-14T14:24:03Z</time>
      </trkpt>
      <trkpt lat="43.7194" lon="6.97863">
        <ele>782.0703125</ele>
        <time>2020-05-14T14:24:04Z</time>
      </trkpt>
      <trkpt lat="43.7194" lon="6.97863">
        <ele>782.08056640625</ele>
        <time>2020-05-14T14:24:05Z</time>
      </trkpt>
      <trkpt lat="43.7194" lon="6.97863">
        <ele>782.0712890625</ele>
        <time>2020-05-14T14:24:06Z</time>
      </trkpt>
      <trkpt lat="43.7194" lon="6.97863">
        <ele>794.95629882812</ele>
        <time>2020-05-14T14:24:07Z</time>
      </trkpt>
      <trkpt lat="43.7194" lon="6.97863">
        <ele>794.95910644531</ele>
        <time>2020-05-14T14:24:08Z</time>
      </trkpt>
      <trkpt lat="43.7194" lon="6.97863">
        <ele>794.82263183594</ele>
        <time>2020-05-14T14:24:09Z</time>
      </trkpt>
      <trkpt lat="43.7194" lon="6.97863">
        <ele>794.84875488281</ele>
        <time>2020-05-14T14:24:10Z</time>
      </trkpt>
      <trkpt lat="43.71939" lon="6.97863">
        <ele>794.63549804688</ele>
        <time>2020-05-14T14:24:11Z</time>
      </trkpt>
      <trkpt lat="43.71939" lon="6.97862">
        <ele>794.45092773438</ele>
        <time>2020-05-14T14:24:12Z</time>
      </trkpt>
      <trkpt lat="43.71939" lon="6.97862">
        <ele>794.25256347656</ele>
        <time>2020-05-14T14:24:13Z</time>
      </trkpt>
      <trkpt lat="43.71939" lon="6.97862">
        <ele>794.02087402344</ele>
        <time>2020-05-14T14:24:14Z</time>
      </trkpt>
      <trkpt lat="43.71938" lon="6.97862">
        <ele>794.13330078125</ele>
        <time>2020-05-14T14:24:15Z</time>
      </trkpt>
      <trkpt lat="43.71938" lon="6.97862">
        <ele>794.05688476562</ele>
        <time>2020-05-14T14:24:16Z</time>
      </trkpt>
      <trkpt lat="43.71938" lon="6.97862">
        <ele>794.25756835938</ele>
        <time>2020-05-14T14:24:17Z</time>
      </trkpt>
      <trkpt lat="43.71938" lon="6.97862">
        <ele>794.25695800781</ele>
        <time>2020-05-14T14:24:18Z</time>
      </trkpt>
      <trkpt lat="43.71937" lon="6.97862">
        <ele>794.26342773438</ele>
        <time>2020-05-14T14:24:19Z</time>
      </trkpt>
      <trkpt lat="43.71937" lon="6.97862">
        <ele>794.37036132812</ele>
        <time>2020-05-14T14:24:20Z</time>
      </trkpt>
      <trkpt lat="43.71937" lon="6.97862">
        <ele>794.26171875</ele>
        <time>2020-05-14T14:24:21Z</time>
      </trkpt>
      <trkpt lat="43.71937" lon="6.97862">
        <ele>794.23291015625</ele>
        <time>2020-05-14T14:24:22Z</time>
      </trkpt>
      <trkpt lat="43.71937" lon="6.97862">
        <ele>794.23999023438</ele>
        <time>2020-05-14T14:24:23Z</time>
      </trkpt>
      <trkpt lat="43.71937" lon="6.97862">
        <ele>794.24877929688</ele>
        <time>2020-05-14T14:24:24Z</time>
      </trkpt>
      <trkpt lat="43.71937" lon="6.97862">
        <ele>794.26586914062</ele>
        <time>2020-05-14T14:24:25Z</time>
      </trkpt>
      <trkpt lat="43.71937" lon="6.97862">
        <ele>794.27319335938</ele>
        <time>2020-05-14T14:24:26Z</time>
      </trkpt>
      <trkpt lat="43.71937" lon="6.97862">
        <ele>794.27893066406</ele>
        <time>2020-05-14T14:24:27Z</time>
      </trkpt>
      <trkpt lat="43.71937" lon="6.97862">
        <ele>794.28649902344</ele>
        <time>2020-05-14T14:24:28Z</time>
      </trkpt>
      <trkpt lat="43.71937" lon="6.97862">
        <ele>794.298828125</ele>
        <time>2020-05-14T14:24:29Z</time>
      </trkpt>
      <trkpt lat="43.71937" lon="6.97862">
        <ele>777.341796875</ele>
        <time>2020-05-14T14:24:30Z</time>
      </trkpt>
      <trkpt lat="43.71937" lon="6.97862">
        <ele>781.36889648438</ele>
        <time>2020-05-14T14:24:31Z</time>
      </trkpt>
      <trkpt lat="43.71937" lon="6.97862">
        <ele>781.38208007812</ele>
        <time>2020-05-14T14:24:32Z</time>
      </trkpt>
      <trkpt lat="43.71937" lon="6.97862">
        <ele>781.40307617188</ele>
        <time>2020-05-14T14:24:33Z</time>
      </trkpt>
      <trkpt lat="43.71937" lon="6.97862">
        <ele>780.00927734375</ele>
        <time>2020-05-14T14:24:34Z</time>
      </trkpt>
      <trkpt lat="43.71937" lon="6.97862">
        <ele>780.005859375</ele>
        <time>2020-05-14T14:24:35Z</time>
      </trkpt>
      <trkpt lat="43.71937" lon="6.97862">
        <ele>780.03662109375</ele>
        <time>2020-05-14T14:24:36Z</time>
      </trkpt>
      <trkpt lat="43.71937" lon="6.97863">
        <ele>780.52709960938</ele>
        <time>2020-05-14T14:24:37Z</time>
      </trkpt>
      <trkpt lat="43.71937" lon="6.97863">
        <ele>780.77709960938</ele>
        <time>2020-05-14T14:24:38Z</time>
      </trkpt>
      <trkpt lat="43.71938" lon="6.97864">
        <ele>781.06408691406</ele>
        <time>2020-05-14T14:24:39Z</time>
      </trkpt>
      <trkpt lat="43.71938" lon="6.97864">
        <ele>781.13330078125</ele>
        <time>2020-05-14T14:24:40Z</time>
      </trkpt>
      <trkpt lat="43.71938" lon="6.97864">
        <ele>781.32958984375</ele>
        <time>2020-05-14T14:24:41Z</time>
      </trkpt>
      <trkpt lat="43.71938" lon="6.97865">
        <ele>781.35986328125</ele>
        <time>2020-05-14T14:24:42Z</time>
      </trkpt>
      <trkpt lat="43.71938" lon="6.97865">
        <ele>781.54113769531</ele>
        <time>2020-05-14T14:24:43Z</time>
      </trkpt>
      <trkpt lat="43.71938" lon="6.97865">
        <ele>781.03820800781</ele>
        <time>2020-05-14T14:24:44Z</time>
      </trkpt>
      <trkpt lat="43.71938" lon="6.97865">
        <ele>783.04711914062</ele>
        <time>2020-05-14T14:24:45Z</time>
      </trkpt>
      <trkpt lat="43.71937" lon="6.97866">
        <ele>783.07507324219</ele>
        <time>2020-05-14T14:24:46Z</time>
      </trkpt>
      <trkpt lat="43.71938" lon="6.97866">
        <ele>783.25573730469</ele>
        <time>2020-05-14T14:24:47Z</time>
      </trkpt>
      <trkpt lat="43.71938" lon="6.97866">
        <ele>783.06103515625</ele>
        <time>2020-05-14T14:24:48Z</time>
      </trkpt>
      <trkpt lat="43.71938" lon="6.97866">
        <ele>783.17211914062</ele>
        <time>2020-05-14T14:24:49Z</time>
      </trkpt>
      <trkpt lat="43.71938" lon="6.97867">
        <ele>783.34484863281</ele>
        <time>2020-05-14T14:24:50Z</time>
      </trkpt>
      <trkpt lat="43.71938" lon="6.97867">
        <ele>783.39501953125</ele>
        <time>2020-05-14T14:24:51Z</time>
      </trkpt>
      <trkpt lat="43.71938" lon="6.97867">
        <ele>783.42468261719</ele>
        <time>2020-05-14T14:24:52Z</time>
      </trkpt>
      <trkpt lat="43.71938" lon="6.97867">
        <ele>783.46923828125</ele>
        <time>2020-05-14T14:24:53Z</time>
      </trkpt>
      <trkpt lat="43.71938" lon="6.97867">
        <ele>783.458984375</ele>
        <time>2020-05-14T14:24:54Z</time>
      </trkpt>
      <trkpt lat="43.71938" lon="6.97867">
        <ele>783.46618652344</ele>
        <time>2020-05-14T14:24:55Z</time>
      </trkpt>
      <trkpt lat="43.71938" lon="6.97867">
        <ele>783.41015625</ele>
        <time>2020-05-14T14:24:56Z</time>
      </trkpt>
      <trkpt lat="43.71938" lon="6.97867">
        <ele>783.42553710938</ele>
        <time>2020-05-14T14:24:57Z</time>
      </trkpt>
      <trkpt lat="43.71938" lon="6.97867">
        <ele>783.44934082031</ele>
        <time>2020-05-14T14:24:58Z</time>
      </trkpt>
      <trkpt lat="43.71938" lon="6.97867">
        <ele>783.47119140625</ele>
        <time>2020-05-14T14:24:59Z</time>
      </trkpt>
      <trkpt lat="43.71938" lon="6.97867">
        <ele>783.126953125</ele>
        <time>2020-05-14T14:25:00Z</time>
      </trkpt>
      <trkpt lat="43.71938" lon="6.97867">
        <ele>783.1083984375</ele>
        <time>2020-05-14T14:25:01Z</time>
      </trkpt>
      <trkpt lat="43.71938" lon="6.97867">
        <ele>783.04223632812</ele>
        <time>2020-05-14T14:25:02Z</time>
      </trkpt>
      <trkpt lat="43.71938" lon="6.97867">
        <ele>783.1357421875</ele>
        <time>2020-05-14T14:25:03Z</time>
      </trkpt>
      <trkpt lat="43.71938" lon="6.97867">
        <ele>783.21411132812</ele>
        <time>2020-05-14T14:25:04Z</time>
      </trkpt>
      <trkpt lat="43.71938" lon="6.97867">
        <ele>783.19152832031</ele>
        <time>2020-05-14T14:25:05Z</time>
      </trkpt>
      <trkpt lat="43.71938" lon="6.97867">
        <ele>783.205078125</ele>
        <time>2020-05-14T14:25:06Z</time>
      </trkpt>
      <trkpt lat="43.71938" lon="6.97867">
        <ele>783.11706542969</ele>
        <time>2020-05-14T14:25:07Z</time>
      </trkpt>
      <trkpt lat="43.71938" lon="6.97867">
        <ele>782.99658203125</ele>
        <time>2020-05-14T14:25:08Z</time>
      </trkpt>
      <trkpt lat="43.71938" lon="6.97867">
        <ele>782.77270507812</ele>
        <time>2020-05-14T14:25:09Z</time>
      </trkpt>
      <trkpt lat="43.71938" lon="6.97867">
        <ele>782.4091796875</ele>
        <time>2020-05-14T14:25:10Z</time>
      </trkpt>
      <trkpt lat="43.71938" lon="6.97867">
        <ele>782.42980957031</ele>
        <time>2020-05-14T14:25:11Z</time>
      </trkpt>
      <trkpt lat="43.71938" lon="6.97866">
        <ele>782.77734375</ele>
        <time>2020-05-14T14:25:12Z</time>
      </trkpt>
      <trkpt lat="43.71938" lon="6.97866">
        <ele>783.18115234375</ele>
        <time>2020-05-14T14:25:13Z</time>
      </trkpt>
      <trkpt lat="43.71938" lon="6.97866">
        <ele>783.23181152344</ele>
        <time>2020-05-14T14:25:14Z</time>
      </trkpt>
      <trkpt lat="43.71938" lon="6.97866">
        <ele>783.40600585938</ele>
        <time>2020-05-14T14:25:15Z</time>
      </trkpt>
      <trkpt lat="43.71938" lon="6.97866">
        <ele>783.85034179688</ele>
        <time>2020-05-14T14:25:16Z</time>
      </trkpt>
      <trkpt lat="43.71938" lon="6.97866">
        <ele>783.75146484375</ele>
        <time>2020-05-14T14:25:17Z</time>
      </trkpt>
      <trkpt lat="43.71938" lon="6.97866">
        <ele>783.50207519531</ele>
        <time>2020-05-14T14:25:18Z</time>
      </trkpt>
      <trkpt lat="43.71938" lon="6.97866">
        <ele>783.75085449219</ele>
        <time>2020-05-14T14:25:19Z</time>
      </trkpt>
      <trkpt lat="43.71938" lon="6.97866">
        <ele>783.77490234375</ele>
        <time>2020-05-14T14:25:20Z</time>
      </trkpt>
      <trkpt lat="43.71937" lon="6.97866">
        <ele>783.5908203125</ele>
        <time>2020-05-14T14:25:21Z</time>
      </trkpt>
      <trkpt lat="43.71937" lon="6.97866">
        <ele>783.75463867188</ele>
        <time>2020-05-14T14:25:22Z</time>
      </trkpt>
      <trkpt lat="43.71937" lon="6.97866">
        <ele>783.77685546875</ele>
        <time>2020-05-14T14:25:23Z</time>
      </trkpt>
      <trkpt lat="43.71937" lon="6.97866">
        <ele>783.81176757812</ele>
        <time>2020-05-14T14:25:24Z</time>
      </trkpt>
      <trkpt lat="43.71937" lon="6.97866">
        <ele>783.79174804688</ele>
        <time>2020-05-14T14:25:25Z</time>
      </trkpt>
      <trkpt lat="43.71938" lon="6.97866">
        <ele>783.77880859375</ele>
        <time>2020-05-14T14:25:26Z</time>
      </trkpt>
      <trkpt lat="43.71938" lon="6.97866">
        <ele>783.77001953125</ele>
        <time>2020-05-14T14:25:27Z</time>
      </trkpt>
      <trkpt lat="43.71938" lon="6.97866">
        <ele>783.7529296875</ele>
        <time>2020-05-14T14:25:28Z</time>
      </trkpt>
      <trkpt lat="43.71938" lon="6.97866">
        <ele>783.77099609375</ele>
        <time>2020-05-14T14:25:29Z</time>
      </trkpt>
      <trkpt lat="43.71938" lon="6.97866">
        <ele>783.76416015625</ele>
        <time>2020-05-14T14:25:30Z</time>
      </trkpt>
      <trkpt lat="43.71938" lon="6.97866">
        <ele>783.77270507812</ele>
        <time>2020-05-14T14:25:31Z</time>
      </trkpt>
      <trkpt lat="43.71938" lon="6.97866">
        <ele>783.77392578125</ele>
        <time>2020-05-14T14:25:32Z</time>
      </trkpt>
      <trkpt lat="43.71938" lon="6.97866">
        <ele>783.7744140625</ele>
        <time>2020-05-14T14:25:33Z</time>
      </trkpt>
      <trkpt lat="43.71938" lon="6.97866">
        <ele>783.78161621094</ele>
        <time>2020-05-14T14:25:34Z</time>
      </trkpt>
      <trkpt lat="43.71938" lon="6.97866">
        <ele>783.77294921875</ele>
        <time>2020-05-14T14:25:35Z</time>
      </trkpt>
      <trkpt lat="43.71938" lon="6.97866">
        <ele>783.78771972656</ele>
        <time>2020-05-14T14:25:36Z</time>
      </trkpt>
      <trkpt lat="43.71938" lon="6.97866">
        <ele>783.78149414062</ele>
        <time>2020-05-14T14:25:37Z</time>
      </trkpt>
      <trkpt lat="43.71938" lon="6.97866">
        <ele>783.76416015625</ele>
        <time>2020-05-14T14:25:38Z</time>
      </trkpt>
      <trkpt lat="43.71938" lon="6.97866">
        <ele>783.77026367188</ele>
        <time>2020-05-14T14:25:39Z</time>
      </trkpt>
      <trkpt lat="43.71938" lon="6.97866">
        <ele>783.78759765625</ele>
        <time>2020-05-14T14:25:40Z</time>
      </trkpt>
      <trkpt lat="43.71938" lon="6.97866">
        <ele>783.78564453125</ele>
        <time>2020-05-14T14:25:41Z</time>
      </trkpt>
      <trkpt lat="43.71938" lon="6.97866">
        <ele>783.61767578125</ele>
        <time>2020-05-14T14:25:42Z</time>
      </trkpt>
      <trkpt lat="43.71938" lon="6.97866">
        <ele>782.23974609375</ele>
        <time>2020-05-14T14:25:43Z</time>
      </trkpt>
      <trkpt lat="43.71938" lon="6.97866">
        <ele>781.6416015625</ele>
        <time>2020-05-14T14:25:44Z</time>
      </trkpt>
      <trkpt lat="43.71938" lon="6.97866">
        <ele>781.7275390625</ele>
        <time>2020-05-14T14:25:45Z</time>
      </trkpt>
      <trkpt lat="43.71938" lon="6.97866">
        <ele>782.14404296875</ele>
        <time>2020-05-14T14:25:46Z</time>
      </trkpt>
      <trkpt lat="43.71938" lon="6.97866">
        <ele>781.98864746094</ele>
        <time>2020-05-14T14:25:47Z</time>
      </trkpt>
      <trkpt lat="43.71938" lon="6.97866">
        <ele>783.28369140625</ele>
        <time>2020-05-14T14:25:48Z</time>
      </trkpt>
      <trkpt lat="43.71938" lon="6.97866">
        <ele>782.73852539062</ele>
        <time>2020-05-14T14:25:49Z</time>
      </trkpt>
      <trkpt lat="43.71938" lon="6.97866">
        <ele>782.77917480469</ele>
        <time>2020-05-14T14:25:50Z</time>
      </trkpt>
      <trkpt lat="43.71938" lon="6.97866">
        <ele>783.73803710938</ele>
        <time>2020-05-14T14:25:51Z</time>
      </trkpt>
      <trkpt lat="43.71938" lon="6.97866">
        <ele>783.00561523438</ele>
        <time>2020-05-14T14:25:52Z</time>
      </trkpt>
      <trkpt lat="43.71938" lon="6.97866">
        <ele>783.74389648438</ele>
        <time>2020-05-14T14:25:53Z</time>
      </trkpt>
      <trkpt lat="43.71938" lon="6.97866">
        <ele>783.74291992188</ele>
        <time>2020-05-14T14:25:54Z</time>
      </trkpt>
      <trkpt lat="43.71938" lon="6.97866">
        <ele>783.73510742188</ele>
        <time>2020-05-14T14:25:55Z</time>
      </trkpt>
      <trkpt lat="43.71938" lon="6.97866">
        <ele>783.75817871094</ele>
        <time>2020-05-14T14:25:56Z</time>
      </trkpt>
      <trkpt lat="43.71938" lon="6.97866">
        <ele>783.74182128906</ele>
        <time>2020-05-14T14:25:57Z</time>
      </trkpt>
      <trkpt lat="43.71938" lon="6.97866">
        <ele>783.75</ele>
        <time>2020-05-14T14:25:58Z</time>
      </trkpt>
      <trkpt lat="43.71938" lon="6.97866">
        <ele>783.76623535156</ele>
        <time>2020-05-14T14:25:59Z</time>
      </trkpt>
      <trkpt lat="43.71938" lon="6.97866">
        <ele>783.73120117188</ele>
        <time>2020-05-14T14:26:00Z</time>
      </trkpt>
      <trkpt lat="43.71938" lon="6.97866">
        <ele>783.73974609375</ele>
        <time>2020-05-14T14:26:01Z</time>
      </trkpt>
      <trkpt lat="43.71938" lon="6.97866">
        <ele>783.73315429688</ele>
        <time>2020-05-14T14:26:02Z</time>
      </trkpt>
      <trkpt lat="43.71938" lon="6.97866">
        <ele>783.73583984375</ele>
        <time>2020-05-14T14:26:03Z</time>
      </trkpt>
      <trkpt lat="43.71938" lon="6.97866">
        <ele>783.73498535156</ele>
        <time>2020-05-14T14:26:04Z</time>
      </trkpt>
      <trkpt lat="43.71938" lon="6.97866">
        <ele>783.72668457031</ele>
        <time>2020-05-14T14:26:05Z</time>
      </trkpt>
      <trkpt lat="43.71938" lon="6.97866">
        <ele>783.71789550781</ele>
        <time>2020-05-14T14:26:06Z</time>
      </trkpt>
      <trkpt lat="43.71938" lon="6.97866">
        <ele>783.72351074219</ele>
        <time>2020-05-14T14:26:07Z</time>
      </trkpt>
      <trkpt lat="43.71938" lon="6.97866">
        <ele>783.71948242188</ele>
        <time>2020-05-14T14:26:08Z</time>
      </trkpt>
      <trkpt lat="43.71938" lon="6.97866">
        <ele>783.71813964844</ele>
        <time>2020-05-14T14:26:09Z</time>
      </trkpt>
      <trkpt lat="43.71938" lon="6.97866">
        <ele>783.71557617188</ele>
        <time>2020-05-14T14:26:10Z</time>
      </trkpt>
      <trkpt lat="43.71938" lon="6.97866">
        <ele>783.72192382812</ele>
        <time>2020-05-14T14:26:11Z</time>
      </trkpt>
      <trkpt lat="43.71938" lon="6.97866">
        <ele>783.7236328125</ele>
        <time>2020-05-14T14:26:12Z</time>
      </trkpt>
      <trkpt lat="43.71938" lon="6.97866">
        <ele>783.7275390625</ele>
        <time>2020-05-14T14:26:13Z</time>
      </trkpt>
      <trkpt lat="43.71938" lon="6.97866">
        <ele>783.71813964844</ele>
        <time>2020-05-14T14:26:14Z</time>
      </trkpt>
      <trkpt lat="43.71938" lon="6.97866">
        <ele>783.7158203125</ele>
        <time>2020-05-14T14:26:15Z</time>
      </trkpt>
      <trkpt lat="43.71938" lon="6.97866">
        <ele>783.70751953125</ele>
        <time>2020-05-14T14:26:16Z</time>
      </trkpt>
      <trkpt lat="43.71938" lon="6.97866">
        <ele>783.71594238281</ele>
        <time>2020-05-14T14:26:17Z</time>
      </trkpt>
      <trkpt lat="43.71938" lon="6.97866">
        <ele>783.70776367188</ele>
        <time>2020-05-14T14:26:18Z</time>
      </trkpt>
      <trkpt lat="43.71938" lon="6.97866">
        <ele>783.69750976562</ele>
        <time>2020-05-14T14:26:19Z</time>
      </trkpt>
      <trkpt lat="43.71938" lon="6.97866">
        <ele>783.70349121094</ele>
        <time>2020-05-14T14:26:20Z</time>
      </trkpt>
      <trkpt lat="43.71938" lon="6.97866">
        <ele>783.72045898438</ele>
        <time>2020-05-14T14:26:21Z</time>
      </trkpt>
      <trkpt lat="43.71938" lon="6.97866">
        <ele>783.71801757812</ele>
        <time>2020-05-14T14:26:22Z</time>
      </trkpt>
      <trkpt lat="43.71938" lon="6.97866">
        <ele>783.7041015625</ele>
        <time>2020-05-14T14:26:23Z</time>
      </trkpt>
      <trkpt lat="43.71938" lon="6.97866">
        <ele>783.70104980469</ele>
        <time>2020-05-14T14:26:24Z</time>
      </trkpt>
      <trkpt lat="43.71938" lon="6.97866">
        <ele>783.71020507812</ele>
        <time>2020-05-14T14:26:25Z</time>
      </trkpt>
      <trkpt lat="43.71938" lon="6.97866">
        <ele>783.70288085938</ele>
        <time>2020-05-14T14:26:26Z</time>
      </trkpt>
      <trkpt lat="43.71938" lon="6.97866">
        <ele>783.69384765625</ele>
        <time>2020-05-14T14:26:27Z</time>
      </trkpt>
      <trkpt lat="43.71938" lon="6.97866">
        <ele>783.72680664062</ele>
        <time>2020-05-14T14:26:28Z</time>
      </trkpt>
      <trkpt lat="43.71938" lon="6.97866">
        <ele>783.73413085938</ele>
        <time>2020-05-14T14:26:29Z</time>
      </trkpt>
      <trkpt lat="43.71938" lon="6.97866">
        <ele>783.71118164062</ele>
        <time>2020-05-14T14:26:30Z</time>
      </trkpt>
      <trkpt lat="43.71938" lon="6.97866">
        <ele>783.705078125</ele>
        <time>2020-05-14T14:26:31Z</time>
      </trkpt>
      <trkpt lat="43.71938" lon="6.97866">
        <ele>783.71166992188</ele>
        <time>2020-05-14T14:26:32Z</time>
      </trkpt>
      <trkpt lat="43.71938" lon="6.97866">
        <ele>783.70422363281</ele>
        <time>2020-05-14T14:26:33Z</time>
      </trkpt>
      <trkpt lat="43.71938" lon="6.97866">
        <ele>783.71215820312</ele>
        <time>2020-05-14T14:26:34Z</time>
      </trkpt>
      <trkpt lat="43.71938" lon="6.97866">
        <ele>783.71240234375</ele>
        <time>2020-05-14T14:26:35Z</time>
      </trkpt>
      <trkpt lat="43.71938" lon="6.97866">
        <ele>783.71069335938</ele>
        <time>2020-05-14T14:26:36Z</time>
      </trkpt>
      <trkpt lat="43.71938" lon="6.97866">
        <ele>783.69970703125</ele>
        <time>2020-05-14T14:26:37Z</time>
      </trkpt>
      <trkpt lat="43.71938" lon="6.97866">
        <ele>783.70092773438</ele>
        <time>2020-05-14T14:26:38Z</time>
      </trkpt>
      <trkpt lat="43.71938" lon="6.97866">
        <ele>783.70654296875</ele>
        <time>2020-05-14T14:26:39Z</time>
      </trkpt>
      <trkpt lat="43.71938" lon="6.97866">
        <ele>783.70751953125</ele>
        <time>2020-05-14T14:26:40Z</time>
      </trkpt>
      <trkpt lat="43.71938" lon="6.97866">
        <ele>783.61010742188</ele>
        <time>2020-05-14T14:26:41Z</time>
      </trkpt>
      <trkpt lat="43.71938" lon="6.97866">
        <ele>783.6171875</ele>
        <time>2020-05-14T14:26:42Z</time>
      </trkpt>
      <trkpt lat="43.71938" lon="6.97866">
        <ele>773.40112304688</ele>
        <time>2020-05-14T14:26:43Z</time>
      </trkpt>
      <trkpt lat="43.71938" lon="6.97866">
        <ele>773.40185546875</ele>
        <time>2020-05-14T14:26:44Z</time>
      </trkpt>
      <trkpt lat="43.71938" lon="6.97866">
        <ele>773.37377929688</ele>
        <time>2020-05-14T14:26:45Z</time>
      </trkpt>
      <trkpt lat="43.71938" lon="6.97866">
        <ele>773.40209960938</ele>
        <time>2020-05-14T14:26:46Z</time>
      </trkpt>
      <trkpt lat="43.71938" lon="6.97866">
        <ele>773.3896484375</ele>
        <time>2020-05-14T14:26:47Z</time>
      </trkpt>
      <trkpt lat="43.71938" lon="6.97866">
        <ele>773.39135742188</ele>
        <time>2020-05-14T14:26:48Z</time>
      </trkpt>
      <trkpt lat="43.71938" lon="6.97866">
        <ele>773.39184570312</ele>
        <time>2020-05-14T14:26:49Z</time>
      </trkpt>
      <trkpt lat="43.71938" lon="6.97866">
        <ele>773.40771484375</ele>
        <time>2020-05-14T14:26:50Z</time>
      </trkpt>
      <trkpt lat="43.71938" lon="6.97866">
        <ele>773.39331054688</ele>
        <time>2020-05-14T14:26:51Z</time>
      </trkpt>
      <trkpt lat="43.71938" lon="6.97866">
        <ele>773.40893554688</ele>
        <time>2020-05-14T14:26:52Z</time>
      </trkpt>
      <trkpt lat="43.71938" lon="6.97866">
        <ele>773.3037109375</ele>
        <time>2020-05-14T14:26:53Z</time>
      </trkpt>
      <trkpt lat="43.71938" lon="6.97866">
        <ele>784.18115234375</ele>
        <time>2020-05-14T14:26:54Z</time>
      </trkpt>
      <trkpt lat="43.71938" lon="6.97866">
        <ele>783.7236328125</ele>
        <time>2020-05-14T14:26:55Z</time>
      </trkpt>
      <trkpt lat="43.71938" lon="6.97866">
        <ele>783.72436523438</ele>
        <time>2020-05-14T14:26:56Z</time>
      </trkpt>
      <trkpt lat="43.71938" lon="6.97866">
        <ele>783.71801757812</ele>
        <time>2020-05-14T14:26:57Z</time>
      </trkpt>
      <trkpt lat="43.71938" lon="6.97866">
        <ele>783.71704101562</ele>
        <time>2020-05-14T14:26:58Z</time>
      </trkpt>
      <trkpt lat="43.71938" lon="6.97866">
        <ele>783.7021484375</ele>
        <time>2020-05-14T14:26:59Z</time>
      </trkpt>
      <trkpt lat="43.71938" lon="6.97866">
        <ele>783.72766113281</ele>
        <time>2020-05-14T14:27:00Z</time>
      </trkpt>
      <trkpt lat="43.71938" lon="6.97866">
        <ele>783.39526367188</ele>
        <time>2020-05-14T14:27:01Z</time>
      </trkpt>
      <trkpt lat="43.71938" lon="6.97866">
        <ele>782.41796875</ele>
        <time>2020-05-14T14:27:02Z</time>
      </trkpt>
      <trkpt lat="43.71938" lon="6.97866">
        <ele>781.72412109375</ele>
        <time>2020-05-14T14:27:03Z</time>
      </trkpt>
      <trkpt lat="43.71938" lon="6.97866">
        <ele>782.30053710938</ele>
        <time>2020-05-14T14:27:04Z</time>
      </trkpt>
      <trkpt lat="43.71938" lon="6.97866">
        <ele>783.361328125</ele>
        <time>2020-05-14T14:27:05Z</time>
      </trkpt>
      <trkpt lat="43.71938" lon="6.97866">
        <ele>782.54321289062</ele>
        <time>2020-05-14T14:27:06Z</time>
      </trkpt>
      <trkpt lat="43.71938" lon="6.97866">
        <ele>779.34155273438</ele>
        <time>2020-05-14T14:27:07Z</time>
      </trkpt>
      <trkpt lat="43.71938" lon="6.97866">
        <ele>779.43090820312</ele>
        <time>2020-05-14T14:27:08Z</time>
      </trkpt>
      <trkpt lat="43.71938" lon="6.97866">
        <ele>779</ele>
        <time>2020-05-14T14:27:09Z</time>
      </trkpt>
      <trkpt lat="43.71938" lon="6.97866">
        <ele>779.87341308594</ele>
        <time>2020-05-14T14:27:10Z</time>
      </trkpt>
      <trkpt lat="43.71938" lon="6.97866">
        <ele>780.47863769531</ele>
        <time>2020-05-14T14:27:11Z</time>
      </trkpt>
      <trkpt lat="43.71938" lon="6.97866">
        <ele>780.85607910156</ele>
        <time>2020-05-14T14:27:12Z</time>
      </trkpt>
      <trkpt lat="43.71938" lon="6.97866">
        <ele>781.22351074219</ele>
        <time>2020-05-14T14:27:13Z</time>
      </trkpt>
      <trkpt lat="43.71938" lon="6.97866">
        <ele>779.79858398438</ele>
        <time>2020-05-14T14:27:14Z</time>
      </trkpt>
      <trkpt lat="43.71938" lon="6.97866">
        <ele>779.01171875</ele>
        <time>2020-05-14T14:27:15Z</time>
      </trkpt>
      <trkpt lat="43.71938" lon="6.97866">
        <ele>779.74829101562</ele>
        <time>2020-05-14T14:27:16Z</time>
      </trkpt>
      <trkpt lat="43.71938" lon="6.97866">
        <ele>778.77514648438</ele>
        <time>2020-05-14T14:27:17Z</time>
      </trkpt>
      <trkpt lat="43.71938" lon="6.97866">
        <ele>778.07543945312</ele>
        <time>2020-05-14T14:27:18Z</time>
      </trkpt>
      <trkpt lat="43.71938" lon="6.97866">
        <ele>776.03857421875</ele>
        <time>2020-05-14T14:27:19Z</time>
      </trkpt>
      <trkpt lat="43.71938" lon="6.97866">
        <ele>777.0146484375</ele>
        <time>2020-05-14T14:27:20Z</time>
      </trkpt>
      <trkpt lat="43.71938" lon="6.97866">
        <ele>774.91381835938</ele>
        <time>2020-05-14T14:27:21Z</time>
      </trkpt>
      <trkpt lat="43.71938" lon="6.97866">
        <ele>773.76135253906</ele>
        <time>2020-05-14T14:27:22Z</time>
      </trkpt>
      <trkpt lat="43.71938" lon="6.97866">
        <ele>773.12841796875</ele>
        <time>2020-05-14T14:27:23Z</time>
      </trkpt>
      <trkpt lat="43.71938" lon="6.97866">
        <ele>773.78100585938</ele>
        <time>2020-05-14T14:27:24Z</time>
      </trkpt>
      <trkpt lat="43.71938" lon="6.97866">
        <ele>771.73291015625</ele>
        <time>2020-05-14T14:27:25Z</time>
      </trkpt>
      <trkpt lat="43.71938" lon="6.97866">
        <ele>768.34716796875</ele>
        <time>2020-05-14T14:27:26Z</time>
      </trkpt>
      <trkpt lat="43.71938" lon="6.97866">
        <ele>765.763671875</ele>
        <time>2020-05-14T14:27:27Z</time>
      </trkpt>
      <trkpt lat="43.71938" lon="6.97866">
        <ele>767.0947265625</ele>
        <time>2020-05-14T14:27:28Z</time>
      </trkpt>
      <trkpt lat="43.71938" lon="6.97866">
        <ele>766.90173339844</ele>
        <time>2020-05-14T14:27:29Z</time>
      </trkpt>
      <trkpt lat="43.71938" lon="6.97866">
        <ele>767.51904296875</ele>
        <time>2020-05-14T14:27:30Z</time>
      </trkpt>
      <trkpt lat="43.71938" lon="6.97866">
        <ele>767.26879882812</ele>
        <time>2020-05-14T14:27:31Z</time>
      </trkpt>
      <trkpt lat="43.71938" lon="6.97866">
        <ele>767.12768554688</ele>
        <time>2020-05-14T14:27:32Z</time>
      </trkpt>
      <trkpt lat="43.71938" lon="6.97866">
        <ele>764.42761230469</ele>
        <time>2020-05-14T14:27:33Z</time>
      </trkpt>
      <trkpt lat="43.71938" lon="6.97866">
        <ele>763.97912597656</ele>
        <time>2020-05-14T14:27:34Z</time>
      </trkpt>
      <trkpt lat="43.71938" lon="6.97866">
        <ele>766.11596679688</ele>
        <time>2020-05-14T14:27:35Z</time>
      </trkpt>
      <trkpt lat="43.71938" lon="6.97866">
        <ele>767.2412109375</ele>
        <time>2020-05-14T14:27:36Z</time>
      </trkpt>
      <trkpt lat="43.71938" lon="6.97866">
        <ele>770.07666015625</ele>
        <time>2020-05-14T14:27:37Z</time>
      </trkpt>
      <trkpt lat="43.71938" lon="6.97866">
        <ele>769.8662109375</ele>
        <time>2020-05-14T14:27:38Z</time>
      </trkpt>
      <trkpt lat="43.71938" lon="6.97866">
        <ele>770.54565429688</ele>
        <time>2020-05-14T14:27:39Z</time>
      </trkpt>
      <trkpt lat="43.71938" lon="6.97866">
        <ele>771.74609375</ele>
        <time>2020-05-14T14:27:40Z</time>
      </trkpt>
      <trkpt lat="43.71938" lon="6.97866">
        <ele>771.2890625</ele>
        <time>2020-05-14T14:27:41Z</time>
      </trkpt>
      <trkpt lat="43.71938" lon="6.97866">
        <ele>770.21337890625</ele>
        <time>2020-05-14T14:27:42Z</time>
      </trkpt>
      <trkpt lat="43.71938" lon="6.97866">
        <ele>770.37646484375</ele>
        <time>2020-05-14T14:27:43Z</time>
      </trkpt>
      <trkpt lat="43.71938" lon="6.97866">
        <ele>770.72277832031</ele>
        <time>2020-05-14T14:27:44Z</time>
      </trkpt>
      <trkpt lat="43.71938" lon="6.97866">
        <ele>770.39099121094</ele>
        <time>2020-05-14T14:27:45Z</time>
      </trkpt>
      <trkpt lat="43.71938" lon="6.97866">
        <ele>771.5</ele>
        <time>2020-05-14T14:27:46Z</time>
      </trkpt>
      <trkpt lat="43.71938" lon="6.97866">
        <ele>770.69555664062</ele>
        <time>2020-05-14T14:27:47Z</time>
      </trkpt>
      <trkpt lat="43.71938" lon="6.97866">
        <ele>771.39807128906</ele>
        <time>2020-05-14T14:27:48Z</time>
      </trkpt>
      <trkpt lat="43.71938" lon="6.97866">
        <ele>771.93823242188</ele>
        <time>2020-05-14T14:27:49Z</time>
      </trkpt>
      <trkpt lat="43.71938" lon="6.97866">
        <ele>771.64404296875</ele>
        <time>2020-05-14T14:27:50Z</time>
      </trkpt>
      <trkpt lat="43.71938" lon="6.97866">
        <ele>773.09680175781</ele>
        <time>2020-05-14T14:27:51Z</time>
      </trkpt>
      <trkpt lat="43.71938" lon="6.97866">
        <ele>773.5146484375</ele>
        <time>2020-05-14T14:27:52Z</time>
      </trkpt>
      <trkpt lat="43.71938" lon="6.97866">
        <ele>774.03955078125</ele>
        <time>2020-05-14T14:27:53Z</time>
      </trkpt>
      <trkpt lat="43.71938" lon="6.97866">
        <ele>773.3671875</ele>
        <time>2020-05-14T14:27:54Z</time>
      </trkpt>
      <trkpt lat="43.71938" lon="6.97866">
        <ele>771.70727539062</ele>
        <time>2020-05-14T14:27:55Z</time>
      </trkpt>
      <trkpt lat="43.71938" lon="6.97866">
        <ele>772.98034667969</ele>
        <time>2020-05-14T14:27:56Z</time>
      </trkpt>
      <trkpt lat="43.71938" lon="6.97866">
        <ele>774.2021484375</ele>
        <time>2020-05-14T14:27:57Z</time>
      </trkpt>
      <trkpt lat="43.71938" lon="6.97866">
        <ele>776.5703125</ele>
        <time>2020-05-14T14:27:58Z</time>
      </trkpt>
      <trkpt lat="43.71938" lon="6.97866">
        <ele>777.89770507812</ele>
        <time>2020-05-14T14:27:59Z</time>
      </trkpt>
      <trkpt lat="43.71938" lon="6.97866">
        <ele>777.44750976562</ele>
        <time>2020-05-14T14:28:00Z</time>
      </trkpt>
      <trkpt lat="43.71938" lon="6.97866">
        <ele>778.56567382812</ele>
        <time>2020-05-14T14:28:01Z</time>
      </trkpt>
      <trkpt lat="43.71938" lon="6.97866">
        <ele>781.24926757812</ele>
        <time>2020-05-14T14:28:02Z</time>
      </trkpt>
      <trkpt lat="43.71938" lon="6.97866">
        <ele>781.2001953125</ele>
        <time>2020-05-14T14:28:03Z</time>
      </trkpt>
      <trkpt lat="43.71938" lon="6.97866">
        <ele>782.06396484375</ele>
        <time>2020-05-14T14:28:04Z</time>
      </trkpt>
      <trkpt lat="43.71938" lon="6.97866">
        <ele>780.63598632812</ele>
        <time>2020-05-14T14:28:05Z</time>
      </trkpt>
      <trkpt lat="43.71938" lon="6.97866">
        <ele>782.14294433594</ele>
        <time>2020-05-14T14:28:06Z</time>
      </trkpt>
      <trkpt lat="43.71938" lon="6.97866">
        <ele>783.61303710938</ele>
        <time>2020-05-14T14:28:07Z</time>
      </trkpt>
      <trkpt lat="43.71938" lon="6.97866">
        <ele>783.72412109375</ele>
        <time>2020-05-14T14:28:08Z</time>
      </trkpt>
      <trkpt lat="43.71938" lon="6.97866">
        <ele>783.697265625</ele>
        <time>2020-05-14T14:28:09Z</time>
      </trkpt>
      <trkpt lat="43.71938" lon="6.97866">
        <ele>783.12878417969</ele>
        <time>2020-05-14T14:28:10Z</time>
      </trkpt>
      <trkpt lat="43.71938" lon="6.97866">
        <ele>781.61022949219</ele>
        <time>2020-05-14T14:28:11Z</time>
      </trkpt>
      <trkpt lat="43.71938" lon="6.97866">
        <ele>781.28491210938</ele>
        <time>2020-05-14T14:28:12Z</time>
      </trkpt>
      <trkpt lat="43.71938" lon="6.97866">
        <ele>780.93786621094</ele>
        <time>2020-05-14T14:28:13Z</time>
      </trkpt>
      <trkpt lat="43.71938" lon="6.97866">
        <ele>781.69750976562</ele>
        <time>2020-05-14T14:28:14Z</time>
      </trkpt>
      <trkpt lat="43.71938" lon="6.97866">
        <ele>783.1298828125</ele>
        <time>2020-05-14T14:28:15Z</time>
      </trkpt>
      <trkpt lat="43.71938" lon="6.97866">
        <ele>783.71044921875</ele>
        <time>2020-05-14T14:28:16Z</time>
      </trkpt>
      <trkpt lat="43.71938" lon="6.97866">
        <ele>783.68774414062</ele>
        <time>2020-05-14T14:28:17Z</time>
      </trkpt>
      <trkpt lat="43.71938" lon="6.97866">
        <ele>783.71166992188</ele>
        <time>2020-05-14T14:28:18Z</time>
      </trkpt>
      <trkpt lat="43.71938" lon="6.97866">
        <ele>783.71215820312</ele>
        <time>2020-05-14T14:28:19Z</time>
      </trkpt>
      <trkpt lat="43.71938" lon="6.97866">
        <ele>783.71997070312</ele>
        <time>2020-05-14T14:28:20Z</time>
      </trkpt>
      <trkpt lat="43.71938" lon="6.97866">
        <ele>783.72741699219</ele>
        <time>2020-05-14T14:28:21Z</time>
      </trkpt>
      <trkpt lat="43.71938" lon="6.97866">
        <ele>783.7119140625</ele>
        <time>2020-05-14T14:28:22Z</time>
      </trkpt>
      <trkpt lat="43.71938" lon="6.97866">
        <ele>783.71166992188</ele>
        <time>2020-05-14T14:28:23Z</time>
      </trkpt>
      <trkpt lat="43.71938" lon="6.97866">
        <ele>783.70288085938</ele>
        <time>2020-05-14T14:28:24Z</time>
      </trkpt>
      <trkpt lat="43.71938" lon="6.97866">
        <ele>783.71069335938</ele>
        <time>2020-05-14T14:28:25Z</time>
      </trkpt>
      <trkpt lat="43.71938" lon="6.97866">
        <ele>783.71069335938</ele>
        <time>2020-05-14T14:28:26Z</time>
      </trkpt>
      <trkpt lat="43.71938" lon="6.97866">
        <ele>783.70141601562</ele>
        <time>2020-05-14T14:28:27Z</time>
      </trkpt>
      <trkpt lat="43.71938" lon="6.97866">
        <ele>783.70947265625</ele>
        <time>2020-05-14T14:28:28Z</time>
      </trkpt>
      <trkpt lat="43.71938" lon="6.97866">
        <ele>783.71838378906</ele>
        <time>2020-05-14T14:28:29Z</time>
      </trkpt>
      <trkpt lat="43.71938" lon="6.97866">
        <ele>783.701171875</ele>
        <time>2020-05-14T14:28:30Z</time>
      </trkpt>
      <trkpt lat="43.71938" lon="6.97866">
        <ele>783.71142578125</ele>
        <time>2020-05-14T14:28:31Z</time>
      </trkpt>
      <trkpt lat="43.71938" lon="6.97866">
        <ele>783.70495605469</ele>
        <time>2020-05-14T14:28:32Z</time>
      </trkpt>
      <trkpt lat="43.71938" lon="6.97866">
        <ele>783.71435546875</ele>
        <time>2020-05-14T14:28:33Z</time>
      </trkpt>
      <trkpt lat="43.71938" lon="6.97866">
        <ele>783.71435546875</ele>
        <time>2020-05-14T14:28:34Z</time>
      </trkpt>
      <trkpt lat="43.71938" lon="6.97866">
        <ele>783.71459960938</ele>
        <time>2020-05-14T14:28:35Z</time>
      </trkpt>
      <trkpt lat="43.71938" lon="6.97866">
        <ele>783.72888183594</ele>
        <time>2020-05-14T14:28:36Z</time>
      </trkpt>
      <trkpt lat="43.71938" lon="6.97866">
        <ele>783.70971679688</ele>
        <time>2020-05-14T14:28:37Z</time>
      </trkpt>
      <trkpt lat="43.71938" lon="6.97866">
        <ele>783.72424316406</ele>
        <time>2020-05-14T14:28:38Z</time>
      </trkpt>
      <trkpt lat="43.71938" lon="6.97866">
        <ele>783.71423339844</ele>
        <time>2020-05-14T14:28:39Z</time>
      </trkpt>
      <trkpt lat="43.71938" lon="6.97866">
        <ele>783.72009277344</ele>
        <time>2020-05-14T14:28:40Z</time>
      </trkpt>
      <trkpt lat="43.71938" lon="6.97866">
        <ele>783.7255859375</ele>
        <time>2020-05-14T14:28:41Z</time>
      </trkpt>
      <trkpt lat="43.71938" lon="6.97866">
        <ele>783.71740722656</ele>
        <time>2020-05-14T14:28:42Z</time>
      </trkpt>
      <trkpt lat="43.71938" lon="6.97866">
        <ele>783.73291015625</ele>
        <time>2020-05-14T14:28:43Z</time>
      </trkpt>
      <trkpt lat="43.71938" lon="6.97866">
        <ele>783.70581054688</ele>
        <time>2020-05-14T14:28:44Z</time>
      </trkpt>
      <trkpt lat="43.71938" lon="6.97866">
        <ele>783.71984863281</ele>
        <time>2020-05-14T14:28:45Z</time>
      </trkpt>
      <trkpt lat="43.71938" lon="6.97866">
        <ele>783.71630859375</ele>
        <time>2020-05-14T14:28:46Z</time>
      </trkpt>
      <trkpt lat="43.71938" lon="6.97866">
        <ele>783.70703125</ele>
        <time>2020-05-14T14:28:47Z</time>
      </trkpt>
      <trkpt lat="43.71938" lon="6.97866">
        <ele>783.71240234375</ele>
        <time>2020-05-14T14:28:48Z</time>
      </trkpt>
      <trkpt lat="43.71938" lon="6.97866">
        <ele>783.68920898438</ele>
        <time>2020-05-14T14:28:49Z</time>
      </trkpt>
      <trkpt lat="43.71938" lon="6.97866">
        <ele>783.68054199219</ele>
        <time>2020-05-14T14:28:50Z</time>
      </trkpt>
      <trkpt lat="43.71938" lon="6.97866">
        <ele>783.68701171875</ele>
        <time>2020-05-14T14:28:51Z</time>
      </trkpt>
      <trkpt lat="43.71938" lon="6.97866">
        <ele>783.68505859375</ele>
        <time>2020-05-14T14:28:52Z</time>
      </trkpt>
      <trkpt lat="43.71938" lon="6.97866">
        <ele>783.6943359375</ele>
        <time>2020-05-14T14:28:53Z</time>
      </trkpt>
      <trkpt lat="43.71938" lon="6.97866">
        <ele>783.67578125</ele>
        <time>2020-05-14T14:28:54Z</time>
      </trkpt>
      <trkpt lat="43.71938" lon="6.97866">
        <ele>783.67529296875</ele>
        <time>2020-05-14T14:28:55Z</time>
      </trkpt>
      <trkpt lat="43.71938" lon="6.97866">
        <ele>783.67529296875</ele>
        <time>2020-05-14T14:28:56Z</time>
      </trkpt>
      <trkpt lat="43.71938" lon="6.97866">
        <ele>783.68286132812</ele>
        <time>2020-05-14T14:28:57Z</time>
      </trkpt>
      <trkpt lat="43.71938" lon="6.97866">
        <ele>783.67407226562</ele>
        <time>2020-05-14T14:28:58Z</time>
      </trkpt>
      <trkpt lat="43.71938" lon="6.97866">
        <ele>783.67529296875</ele>
        <time>2020-05-14T14:28:59Z</time>
      </trkpt>
      <trkpt lat="43.71938" lon="6.97866">
        <ele>783.68334960938</ele>
        <time>2020-05-14T14:29:00Z</time>
      </trkpt>
      <trkpt lat="43.71938" lon="6.97866">
        <ele>783.68310546875</ele>
        <time>2020-05-14T14:29:01Z</time>
      </trkpt>
      <trkpt lat="43.71938" lon="6.97866">
        <ele>783.68322753906</ele>
        <time>2020-05-14T14:29:02Z</time>
      </trkpt>
      <trkpt lat="43.71938" lon="6.97866">
        <ele>783.67431640625</ele>
        <time>2020-05-14T14:29:03Z</time>
      </trkpt>
      <trkpt lat="43.71938" lon="6.97866">
        <ele>783.68115234375</ele>
        <time>2020-05-14T14:29:04Z</time>
      </trkpt>
      <trkpt lat="43.71938" lon="6.97866">
        <ele>783.67907714844</ele>
        <time>2020-05-14T14:29:05Z</time>
      </trkpt>
      <trkpt lat="43.71938" lon="6.97866">
        <ele>783.66967773438</ele>
        <time>2020-05-14T14:29:06Z</time>
      </trkpt>
      <trkpt lat="43.71938" lon="6.97866">
        <ele>783.677734375</ele>
        <time>2020-05-14T14:29:07Z</time>
      </trkpt>
      <trkpt lat="43.71938" lon="6.97866">
        <ele>783.68969726562</ele>
        <time>2020-05-14T14:29:08Z</time>
      </trkpt>
      <trkpt lat="43.71938" lon="6.97866">
        <ele>783.69079589844</ele>
        <time>2020-05-14T14:29:09Z</time>
      </trkpt>
      <trkpt lat="43.71938" lon="6.97866">
        <ele>783.66430664062</ele>
        <time>2020-05-14T14:29:10Z</time>
      </trkpt>
      <trkpt lat="43.71938" lon="6.97866">
        <ele>783.66174316406</ele>
        <time>2020-05-14T14:29:11Z</time>
      </trkpt>
      <trkpt lat="43.71938" lon="6.97866">
        <ele>783.63818359375</ele>
        <time>2020-05-14T14:29:12Z</time>
      </trkpt>
      <trkpt lat="43.71938" lon="6.97866">
        <ele>783.66784667969</ele>
        <time>2020-05-14T14:29:13Z</time>
      </trkpt>
      <trkpt lat="43.71938" lon="6.97866">
        <ele>783.65844726562</ele>
        <time>2020-05-14T14:29:14Z</time>
      </trkpt>
      <trkpt lat="43.71938" lon="6.97866">
        <ele>783.67211914062</ele>
        <time>2020-05-14T14:29:15Z</time>
      </trkpt>
      <trkpt lat="43.71938" lon="6.97866">
        <ele>783.68603515625</ele>
        <time>2020-05-14T14:29:16Z</time>
      </trkpt>
      <trkpt lat="43.71938" lon="6.97866">
        <ele>783.67749023438</ele>
        <time>2020-05-14T14:29:17Z</time>
      </trkpt>
      <trkpt lat="43.71938" lon="6.97866">
        <ele>783.66870117188</ele>
        <time>2020-05-14T14:29:18Z</time>
      </trkpt>
      <trkpt lat="43.71938" lon="6.97866">
        <ele>783.681640625</ele>
        <time>2020-05-14T14:29:19Z</time>
      </trkpt>
      <trkpt lat="43.71938" lon="6.97866">
        <ele>783.64575195312</ele>
        <time>2020-05-14T14:29:20Z</time>
      </trkpt>
      <trkpt lat="43.71938" lon="6.97866">
        <ele>783.65869140625</ele>
        <time>2020-05-14T14:29:21Z</time>
      </trkpt>
      <trkpt lat="43.71938" lon="6.97866">
        <ele>783.67297363281</ele>
        <time>2020-05-14T14:29:22Z</time>
      </trkpt>
      <trkpt lat="43.71938" lon="6.97866">
        <ele>783.662109375</ele>
        <time>2020-05-14T14:29:23Z</time>
      </trkpt>
      <trkpt lat="43.71938" lon="6.97866">
        <ele>783.66931152344</ele>
        <time>2020-05-14T14:29:24Z</time>
      </trkpt>
      <trkpt lat="43.71938" lon="6.97866">
        <ele>783.6533203125</ele>
        <time>2020-05-14T14:29:25Z</time>
      </trkpt>
      <trkpt lat="43.71938" lon="6.97866">
        <ele>783.65991210938</ele>
        <time>2020-05-14T14:29:26Z</time>
      </trkpt>
      <trkpt lat="43.71938" lon="6.97866">
        <ele>783.65942382812</ele>
        <time>2020-05-14T14:29:27Z</time>
      </trkpt>
      <trkpt lat="43.71938" lon="6.97866">
        <ele>783.658203125</ele>
        <time>2020-05-14T14:29:28Z</time>
      </trkpt>
      <trkpt lat="43.71938" lon="6.97866">
        <ele>783.64013671875</ele>
        <time>2020-05-14T14:29:29Z</time>
      </trkpt>
      <trkpt lat="43.71938" lon="6.97866">
        <ele>783.64624023438</ele>
        <time>2020-05-14T14:29:30Z</time>
      </trkpt>
      <trkpt lat="43.71938" lon="6.97866">
        <ele>783.54541015625</ele>
        <time>2020-05-14T14:29:31Z</time>
      </trkpt>
      <trkpt lat="43.71938" lon="6.97866">
        <ele>783.57495117188</ele>
        <time>2020-05-14T14:29:32Z</time>
      </trkpt>
      <trkpt lat="43.71938" lon="6.97866">
        <ele>773.29223632812</ele>
        <time>2020-05-14T14:29:33Z</time>
      </trkpt>
      <trkpt lat="43.71938" lon="6.97866">
        <ele>773.33764648438</ele>
        <time>2020-05-14T14:29:34Z</time>
      </trkpt>
      <trkpt lat="43.71938" lon="6.97866">
        <ele>773.15698242188</ele>
        <time>2020-05-14T14:29:35Z</time>
      </trkpt>
      <trkpt lat="43.71938" lon="6.97866">
        <ele>784.05834960938</ele>
        <time>2020-05-14T14:29:36Z</time>
      </trkpt>
      <trkpt lat="43.71938" lon="6.97866">
        <ele>783.63830566406</ele>
        <time>2020-05-14T14:29:37Z</time>
      </trkpt>
      <trkpt lat="43.71938" lon="6.97866">
        <ele>783.640625</ele>
        <time>2020-05-14T14:29:38Z</time>
      </trkpt>
      <trkpt lat="43.71938" lon="6.97866">
        <ele>783.646484375</ele>
        <time>2020-05-14T14:29:39Z</time>
      </trkpt>
      <trkpt lat="43.71938" lon="6.97866">
        <ele>783.64453125</ele>
        <time>2020-05-14T14:29:40Z</time>
      </trkpt>
      <trkpt lat="43.71938" lon="6.97866">
        <ele>783.65124511719</ele>
        <time>2020-05-14T14:29:41Z</time>
      </trkpt>
      <trkpt lat="43.71938" lon="6.97866">
        <ele>783.64965820312</ele>
        <time>2020-05-14T14:29:42Z</time>
      </trkpt>
      <trkpt lat="43.71938" lon="6.97866">
        <ele>783.63427734375</ele>
        <time>2020-05-14T14:29:43Z</time>
      </trkpt>
      <trkpt lat="43.71938" lon="6.97866">
        <ele>783.6328125</ele>
        <time>2020-05-14T14:29:44Z</time>
      </trkpt>
      <trkpt lat="43.71938" lon="6.97866">
        <ele>783.64404296875</ele>
        <time>2020-05-14T14:29:45Z</time>
      </trkpt>
      <trkpt lat="43.71938" lon="6.97866">
        <ele>783.64587402344</ele>
        <time>2020-05-14T14:29:46Z</time>
      </trkpt>
      <trkpt lat="43.71938" lon="6.97866">
        <ele>783.65356445312</ele>
        <time>2020-05-14T14:29:47Z</time>
      </trkpt>
      <trkpt lat="43.71938" lon="6.97866">
        <ele>783.62915039062</ele>
        <time>2020-05-14T14:29:48Z</time>
      </trkpt>
      <trkpt lat="43.71938" lon="6.97866">
        <ele>783.619140625</ele>
        <time>2020-05-14T14:29:49Z</time>
      </trkpt>
      <trkpt lat="43.71938" lon="6.97866">
        <ele>783.619140625</ele>
        <time>2020-05-14T14:29:50Z</time>
      </trkpt>
      <trkpt lat="43.71938" lon="6.97866">
        <ele>783.62622070312</ele>
        <time>2020-05-14T14:29:51Z</time>
      </trkpt>
      <trkpt lat="43.71938" lon="6.97866">
        <ele>783.60864257812</ele>
        <time>2020-05-14T14:29:52Z</time>
      </trkpt>
      <trkpt lat="43.71938" lon="6.97866">
        <ele>783.6171875</ele>
        <time>2020-05-14T14:29:53Z</time>
      </trkpt>
      <trkpt lat="43.71938" lon="6.97866">
        <ele>783.62463378906</ele>
        <time>2020-05-14T14:29:54Z</time>
      </trkpt>
      <trkpt lat="43.71938" lon="6.97866">
        <ele>783.62182617188</ele>
        <time>2020-05-14T14:29:55Z</time>
      </trkpt>
      <trkpt lat="43.71938" lon="6.97866">
        <ele>783.63745117188</ele>
        <time>2020-05-14T14:29:56Z</time>
      </trkpt>
      <trkpt lat="43.71938" lon="6.97866">
        <ele>783.64428710938</ele>
        <time>2020-05-14T14:29:57Z</time>
      </trkpt>
      <trkpt lat="43.71938" lon="6.97866">
        <ele>783.61206054688</ele>
        <time>2020-05-14T14:29:58Z</time>
      </trkpt>
      <trkpt lat="43.71938" lon="6.97866">
        <ele>783.60986328125</ele>
        <time>2020-05-14T14:29:59Z</time>
      </trkpt>
      <trkpt lat="43.71938" lon="6.97866">
        <ele>783.60473632812</ele>
        <time>2020-05-14T14:30:00Z</time>
      </trkpt>
      <trkpt lat="43.71938" lon="6.97866">
        <ele>783.61083984375</ele>
        <time>2020-05-14T14:30:01Z</time>
      </trkpt>
      <trkpt lat="43.71938" lon="6.97866">
        <ele>783.62023925781</ele>
        <time>2020-05-14T14:30:02Z</time>
      </trkpt>
      <trkpt lat="43.71938" lon="6.97866">
        <ele>783.61206054688</ele>
        <time>2020-05-14T14:30:03Z</time>
      </trkpt>
      <trkpt lat="43.71938" lon="6.97866">
        <ele>783.6103515625</ele>
        <time>2020-05-14T14:30:04Z</time>
      </trkpt>
      <trkpt lat="43.71938" lon="6.97866">
        <ele>783.60168457031</ele>
        <time>2020-05-14T14:30:05Z</time>
      </trkpt>
      <trkpt lat="43.71938" lon="6.97866">
        <ele>783.59985351562</ele>
        <time>2020-05-14T14:30:06Z</time>
      </trkpt>
      <trkpt lat="43.71938" lon="6.97866">
        <ele>783.60424804688</ele>
        <time>2020-05-14T14:30:07Z</time>
      </trkpt>
      <trkpt lat="43.71938" lon="6.97866">
        <ele>783.6025390625</ele>
        <time>2020-05-14T14:30:08Z</time>
      </trkpt>
      <trkpt lat="43.71938" lon="6.97866">
        <ele>783.59289550781</ele>
        <time>2020-05-14T14:30:09Z</time>
      </trkpt>
      <trkpt lat="43.71938" lon="6.97866">
        <ele>783.60009765625</ele>
        <time>2020-05-14T14:30:10Z</time>
      </trkpt>
      <trkpt lat="43.71938" lon="6.97866">
        <ele>783.57592773438</ele>
        <time>2020-05-14T14:30:11Z</time>
      </trkpt>
      <trkpt lat="43.71938" lon="6.97866">
        <ele>783.62341308594</ele>
        <time>2020-05-14T14:30:12Z</time>
      </trkpt>
      <trkpt lat="43.71938" lon="6.97866">
        <ele>783.6142578125</ele>
        <time>2020-05-14T14:30:13Z</time>
      </trkpt>
      <trkpt lat="43.71938" lon="6.97866">
        <ele>783.59692382812</ele>
        <time>2020-05-14T14:30:14Z</time>
      </trkpt>
      <trkpt lat="43.71938" lon="6.97866">
        <ele>783.59521484375</ele>
        <time>2020-05-14T14:30:15Z</time>
      </trkpt>
      <trkpt lat="43.71938" lon="6.97866">
        <ele>783.58752441406</ele>
        <time>2020-05-14T14:30:16Z</time>
      </trkpt>
      <trkpt lat="43.71938" lon="6.97866">
        <ele>783.5859375</ele>
        <time>2020-05-14T14:30:17Z</time>
      </trkpt>
      <trkpt lat="43.71938" lon="6.97866">
        <ele>783.59155273438</ele>
        <time>2020-05-14T14:30:18Z</time>
      </trkpt>
      <trkpt lat="43.71938" lon="6.97866">
        <ele>783.59008789062</ele>
        <time>2020-05-14T14:30:19Z</time>
      </trkpt>
      <trkpt lat="43.71938" lon="6.97866">
        <ele>783.58227539062</ele>
        <time>2020-05-14T14:30:20Z</time>
      </trkpt>
      <trkpt lat="43.71938" lon="6.97866">
        <ele>783.5888671875</ele>
        <time>2020-05-14T14:30:21Z</time>
      </trkpt>
      <trkpt lat="43.71938" lon="6.97866">
        <ele>783.59753417969</ele>
        <time>2020-05-14T14:30:22Z</time>
      </trkpt>
      <trkpt lat="43.71938" lon="6.97866">
        <ele>783.58190917969</ele>
        <time>2020-05-14T14:30:23Z</time>
      </trkpt>
      <trkpt lat="43.71938" lon="6.97866">
        <ele>783.59899902344</ele>
        <time>2020-05-14T14:30:24Z</time>
      </trkpt>
      <trkpt lat="43.71938" lon="6.97866">
        <ele>783.55676269531</ele>
        <time>2020-05-14T14:30:25Z</time>
      </trkpt>
      <trkpt lat="43.71938" lon="6.97866">
        <ele>783.587890625</ele>
        <time>2020-05-14T14:30:26Z</time>
      </trkpt>
      <trkpt lat="43.71938" lon="6.97866">
        <ele>783.58618164062</ele>
        <time>2020-05-14T14:30:27Z</time>
      </trkpt>
      <trkpt lat="43.71938" lon="6.97866">
        <ele>783.56994628906</ele>
        <time>2020-05-14T14:30:28Z</time>
      </trkpt>
      <trkpt lat="43.71938" lon="6.97866">
        <ele>783.57824707031</ele>
        <time>2020-05-14T14:30:29Z</time>
      </trkpt>
      <trkpt lat="43.71938" lon="6.97866">
        <ele>783.58605957031</ele>
        <time>2020-05-14T14:30:30Z</time>
      </trkpt>
      <trkpt lat="43.71938" lon="6.97866">
        <ele>783.57763671875</ele>
        <time>2020-05-14T14:30:31Z</time>
      </trkpt>
      <trkpt lat="43.71938" lon="6.97866">
        <ele>783.57641601562</ele>
        <time>2020-05-14T14:30:32Z</time>
      </trkpt>
      <trkpt lat="43.71938" lon="6.97866">
        <ele>783.57568359375</ele>
        <time>2020-05-14T14:30:33Z</time>
      </trkpt>
      <trkpt lat="43.71938" lon="6.97866">
        <ele>783.5986328125</ele>
        <time>2020-05-14T14:30:34Z</time>
      </trkpt>
      <trkpt lat="43.71938" lon="6.97866">
        <ele>783.60083007812</ele>
        <time>2020-05-14T14:30:35Z</time>
      </trkpt>
      <trkpt lat="43.71938" lon="6.97866">
        <ele>783.59326171875</ele>
        <time>2020-05-14T14:30:36Z</time>
      </trkpt>
      <trkpt lat="43.71938" lon="6.97866">
        <ele>783.60949707031</ele>
        <time>2020-05-14T14:30:37Z</time>
      </trkpt>
      <trkpt lat="43.71938" lon="6.97866">
        <ele>783.60815429688</ele>
        <time>2020-05-14T14:30:38Z</time>
      </trkpt>
      <trkpt lat="43.71938" lon="6.97866">
        <ele>783.607421875</ele>
        <time>2020-05-14T14:30:39Z</time>
      </trkpt>
      <trkpt lat="43.71938" lon="6.97866">
        <ele>783.60131835938</ele>
        <time>2020-05-14T14:30:40Z</time>
      </trkpt>
      <trkpt lat="43.71938" lon="6.97866">
        <ele>783.599609375</ele>
        <time>2020-05-14T14:30:41Z</time>
      </trkpt>
      <trkpt lat="43.71938" lon="6.97866">
        <ele>783.58251953125</ele>
        <time>2020-05-14T14:30:42Z</time>
      </trkpt>
      <trkpt lat="43.71938" lon="6.97866">
        <ele>783.19482421875</ele>
        <time>2020-05-14T14:30:43Z</time>
      </trkpt>
      <trkpt lat="43.71938" lon="6.97866">
        <ele>781.82165527344</ele>
        <time>2020-05-14T14:30:44Z</time>
      </trkpt>
      <trkpt lat="43.71938" lon="6.97866">
        <ele>782.2421875</ele>
        <time>2020-05-14T14:30:45Z</time>
      </trkpt>
      <trkpt lat="43.71938" lon="6.97866">
        <ele>782.44079589844</ele>
        <time>2020-05-14T14:30:46Z</time>
      </trkpt>
      <trkpt lat="43.71938" lon="6.97866">
        <ele>781.70776367188</ele>
        <time>2020-05-14T14:30:47Z</time>
      </trkpt>
      <trkpt lat="43.71938" lon="6.97866">
        <ele>780.55395507812</ele>
        <time>2020-05-14T14:30:48Z</time>
      </trkpt>
      <trkpt lat="43.71938" lon="6.97867">
        <ele>780.4775390625</ele>
        <time>2020-05-14T14:30:49Z</time>
      </trkpt>
      <trkpt lat="43.71938" lon="6.97867">
        <ele>779.169921875</ele>
        <time>2020-05-14T14:30:50Z</time>
      </trkpt>
      <trkpt lat="43.71938" lon="6.97867">
        <ele>779.65087890625</ele>
        <time>2020-05-14T14:30:51Z</time>
      </trkpt>
      <trkpt lat="43.71938" lon="6.97867">
        <ele>779.21984863281</ele>
        <time>2020-05-14T14:30:52Z</time>
      </trkpt>
      <trkpt lat="43.71938" lon="6.97867">
        <ele>778.85034179688</ele>
        <time>2020-05-14T14:30:53Z</time>
      </trkpt>
      <trkpt lat="43.71938" lon="6.97867">
        <ele>777.74267578125</ele>
        <time>2020-05-14T14:30:54Z</time>
      </trkpt>
      <trkpt lat="43.71938" lon="6.97867">
        <ele>777.27465820312</ele>
        <time>2020-05-14T14:30:55Z</time>
      </trkpt>
      <trkpt lat="43.71938" lon="6.97867">
        <ele>776.96508789062</ele>
        <time>2020-05-14T14:30:56Z</time>
      </trkpt>
      <trkpt lat="43.71938" lon="6.97867">
        <ele>776.98937988281</ele>
        <time>2020-05-14T14:30:57Z</time>
      </trkpt>
      <trkpt lat="43.71938" lon="6.97867">
        <ele>776.62036132812</ele>
        <time>2020-05-14T14:30:58Z</time>
      </trkpt>
      <trkpt lat="43.71938" lon="6.97867">
        <ele>776.91088867188</ele>
        <time>2020-05-14T14:30:59Z</time>
      </trkpt>
      <trkpt lat="43.71938" lon="6.97867">
        <ele>777.1728515625</ele>
        <time>2020-05-14T14:31:00Z</time>
      </trkpt>
      <trkpt lat="43.71938" lon="6.97867">
        <ele>777.0703125</ele>
        <time>2020-05-14T14:31:01Z</time>
      </trkpt>
      <trkpt lat="43.71938" lon="6.97867">
        <ele>776.3056640625</ele>
        <time>2020-05-14T14:31:02Z</time>
      </trkpt>
      <trkpt lat="43.71938" lon="6.97867">
        <ele>776.22326660156</ele>
        <time>2020-05-14T14:31:03Z</time>
      </trkpt>
      <trkpt lat="43.71938" lon="6.97867">
        <ele>774.85522460938</ele>
        <time>2020-05-14T14:31:04Z</time>
      </trkpt>
      <trkpt lat="43.71938" lon="6.97867">
        <ele>776.18237304688</ele>
        <time>2020-05-14T14:31:05Z</time>
      </trkpt>
      <trkpt lat="43.71938" lon="6.97867">
        <ele>776.97924804688</ele>
        <time>2020-05-14T14:31:06Z</time>
      </trkpt>
      <trkpt lat="43.71938" lon="6.97867">
        <ele>777.75415039062</ele>
        <time>2020-05-14T14:31:07Z</time>
      </trkpt>
      <trkpt lat="43.71938" lon="6.97867">
        <ele>778.93579101562</ele>
        <time>2020-05-14T14:31:08Z</time>
      </trkpt>
      <trkpt lat="43.71938" lon="6.97867">
        <ele>778.46704101562</ele>
        <time>2020-05-14T14:31:09Z</time>
      </trkpt>
      <trkpt lat="43.71938" lon="6.97867">
        <ele>778.75732421875</ele>
        <time>2020-05-14T14:31:10Z</time>
      </trkpt>
      <trkpt lat="43.71938" lon="6.97867">
        <ele>778.66845703125</ele>
        <time>2020-05-14T14:31:11Z</time>
      </trkpt>
      <trkpt lat="43.71938" lon="6.97867">
        <ele>779.06555175781</ele>
        <time>2020-05-14T14:31:12Z</time>
      </trkpt>
      <trkpt lat="43.71938" lon="6.97867">
        <ele>779.39343261719</ele>
        <time>2020-05-14T14:31:13Z</time>
      </trkpt>
      <trkpt lat="43.71938" lon="6.97867">
        <ele>780.17529296875</ele>
        <time>2020-05-14T14:31:14Z</time>
      </trkpt>
      <trkpt lat="43.71938" lon="6.97867">
        <ele>780.45874023438</ele>
        <time>2020-05-14T14:31:15Z</time>
      </trkpt>
      <trkpt lat="43.71938" lon="6.97867">
        <ele>780.841796875</ele>
        <time>2020-05-14T14:31:16Z</time>
      </trkpt>
      <trkpt lat="43.71938" lon="6.97867">
        <ele>781.40771484375</ele>
        <time>2020-05-14T14:31:17Z</time>
      </trkpt>
      <trkpt lat="43.71938" lon="6.97867">
        <ele>781.66772460938</ele>
        <time>2020-05-14T14:31:18Z</time>
      </trkpt>
      <trkpt lat="43.71938" lon="6.97867">
        <ele>781.3369140625</ele>
        <time>2020-05-14T14:31:19Z</time>
      </trkpt>
      <trkpt lat="43.71938" lon="6.97867">
        <ele>781.97875976562</ele>
        <time>2020-05-14T14:31:20Z</time>
      </trkpt>
      <trkpt lat="43.71938" lon="6.97867">
        <ele>782.58532714844</ele>
        <time>2020-05-14T14:31:21Z</time>
      </trkpt>
      <trkpt lat="43.71938" lon="6.97867">
        <ele>781.78247070312</ele>
        <time>2020-05-14T14:31:22Z</time>
      </trkpt>
      <trkpt lat="43.71938" lon="6.97867">
        <ele>782.27160644531</ele>
        <time>2020-05-14T14:31:23Z</time>
      </trkpt>
      <trkpt lat="43.71938" lon="6.97867">
        <ele>781.59045410156</ele>
        <time>2020-05-14T14:31:24Z</time>
      </trkpt>
      <trkpt lat="43.71938" lon="6.97867">
        <ele>782.79504394531</ele>
        <time>2020-05-14T14:31:25Z</time>
      </trkpt>
      <trkpt lat="43.71938" lon="6.97867">
        <ele>782.55810546875</ele>
        <time>2020-05-14T14:31:26Z</time>
      </trkpt>
      <trkpt lat="43.71938" lon="6.97867">
        <ele>782.54125976562</ele>
        <time>2020-05-14T14:31:27Z</time>
      </trkpt>
      <trkpt lat="43.71938" lon="6.97867">
        <ele>782.65649414062</ele>
        <time>2020-05-14T14:31:28Z</time>
      </trkpt>
      <trkpt lat="43.71938" lon="6.97867">
        <ele>782.74047851562</ele>
        <time>2020-05-14T14:31:29Z</time>
      </trkpt>
      <trkpt lat="43.71938" lon="6.97867">
        <ele>782.42114257812</ele>
        <time>2020-05-14T14:31:30Z</time>
      </trkpt>
      <trkpt lat="43.71938" lon="6.97867">
        <ele>783.73291015625</ele>
        <time>2020-05-14T14:31:31Z</time>
      </trkpt>
      <trkpt lat="43.71938" lon="6.97867">
        <ele>783.74462890625</ele>
        <time>2020-05-14T14:31:32Z</time>
      </trkpt>
      <trkpt lat="43.71938" lon="6.97867">
        <ele>783.74365234375</ele>
        <time>2020-05-14T14:31:33Z</time>
      </trkpt>
      <trkpt lat="43.71938" lon="6.97867">
        <ele>783.71630859375</ele>
        <time>2020-05-14T14:31:34Z</time>
      </trkpt>
      <trkpt lat="43.71938" lon="6.97867">
        <ele>783.74426269531</ele>
        <time>2020-05-14T14:31:35Z</time>
      </trkpt>
      <trkpt lat="43.71938" lon="6.97867">
        <ele>783.74047851562</ele>
        <time>2020-05-14T14:31:36Z</time>
      </trkpt>
      <trkpt lat="43.71938" lon="6.97867">
        <ele>783.75122070312</ele>
        <time>2020-05-14T14:31:37Z</time>
      </trkpt>
      <trkpt lat="43.71938" lon="6.97867">
        <ele>783.74780273438</ele>
        <time>2020-05-14T14:31:38Z</time>
      </trkpt>
      <trkpt lat="43.71938" lon="6.97867">
        <ele>783.75268554688</ele>
        <time>2020-05-14T14:31:39Z</time>
      </trkpt>
      <trkpt lat="43.71938" lon="6.97867">
        <ele>783.75341796875</ele>
        <time>2020-05-14T14:31:40Z</time>
      </trkpt>
      <trkpt lat="43.71938" lon="6.97867">
        <ele>783.74670410156</ele>
        <time>2020-05-14T14:31:41Z</time>
      </trkpt>
      <trkpt lat="43.71938" lon="6.97867">
        <ele>783.75427246094</ele>
        <time>2020-05-14T14:31:42Z</time>
      </trkpt>
      <trkpt lat="43.71938" lon="6.97867">
        <ele>783.75463867188</ele>
        <time>2020-05-14T14:31:43Z</time>
      </trkpt>
      <trkpt lat="43.71938" lon="6.97867">
        <ele>783.74365234375</ele>
        <time>2020-05-14T14:31:44Z</time>
      </trkpt>
      <trkpt lat="43.71938" lon="6.97867">
        <ele>783.75146484375</ele>
        <time>2020-05-14T14:31:45Z</time>
      </trkpt>
      <trkpt lat="43.71938" lon="6.97867">
        <ele>783.75109863281</ele>
        <time>2020-05-14T14:31:46Z</time>
      </trkpt>
      <trkpt lat="43.71938" lon="6.97867">
        <ele>783.73486328125</ele>
        <time>2020-05-14T14:31:47Z</time>
      </trkpt>
      <trkpt lat="43.71938" lon="6.97867">
        <ele>783.75512695312</ele>
        <time>2020-05-14T14:31:48Z</time>
      </trkpt>
      <trkpt lat="43.71938" lon="6.97867">
        <ele>783.7607421875</ele>
        <time>2020-05-14T14:31:49Z</time>
      </trkpt>
      <trkpt lat="43.71938" lon="6.97867">
        <ele>783.74255371094</ele>
        <time>2020-05-14T14:31:50Z</time>
      </trkpt>
      <trkpt lat="43.71938" lon="6.97867">
        <ele>783.72436523438</ele>
        <time>2020-05-14T14:31:51Z</time>
      </trkpt>
      <trkpt lat="43.71938" lon="6.97867">
        <ele>783.73852539062</ele>
        <time>2020-05-14T14:31:52Z</time>
      </trkpt>
      <trkpt lat="43.71938" lon="6.97867">
        <ele>783.73986816406</ele>
        <time>2020-05-14T14:31:53Z</time>
      </trkpt>
      <trkpt lat="43.71938" lon="6.97867">
        <ele>783.74841308594</ele>
        <time>2020-05-14T14:31:54Z</time>
      </trkpt>
      <trkpt lat="43.71938" lon="6.97867">
        <ele>783.74877929688</ele>
        <time>2020-05-14T14:31:55Z</time>
      </trkpt>
      <trkpt lat="43.71938" lon="6.97867">
        <ele>783.740234375</ele>
        <time>2020-05-14T14:31:56Z</time>
      </trkpt>
      <trkpt lat="43.71938" lon="6.97867">
        <ele>783.74658203125</ele>
        <time>2020-05-14T14:31:57Z</time>
      </trkpt>
      <trkpt lat="43.71938" lon="6.97867">
        <ele>783.73852539062</ele>
        <time>2020-05-14T14:31:58Z</time>
      </trkpt>
      <trkpt lat="43.71938" lon="6.97867">
        <ele>783.736328125</ele>
        <time>2020-05-14T14:31:59Z</time>
      </trkpt>
      <trkpt lat="43.71938" lon="6.97867">
        <ele>783.74340820312</ele>
        <time>2020-05-14T14:32:00Z</time>
      </trkpt>
      <trkpt lat="43.71938" lon="6.97867">
        <ele>783.72680664062</ele>
        <time>2020-05-14T14:32:01Z</time>
      </trkpt>
      <trkpt lat="43.71938" lon="6.97867">
        <ele>783.73229980469</ele>
        <time>2020-05-14T14:32:02Z</time>
      </trkpt>
      <trkpt lat="43.71938" lon="6.97867">
        <ele>783.73901367188</ele>
        <time>2020-05-14T14:32:03Z</time>
      </trkpt>
      <trkpt lat="43.71938" lon="6.97867">
        <ele>783.74755859375</ele>
        <time>2020-05-14T14:32:04Z</time>
      </trkpt>
      <trkpt lat="43.71938" lon="6.97867">
        <ele>783.73669433594</ele>
        <time>2020-05-14T14:32:05Z</time>
      </trkpt>
      <trkpt lat="43.71938" lon="6.97867">
        <ele>783.72644042969</ele>
        <time>2020-05-14T14:32:06Z</time>
      </trkpt>
      <trkpt lat="43.71938" lon="6.97867">
        <ele>783.724609375</ele>
        <time>2020-05-14T14:32:07Z</time>
      </trkpt>
      <trkpt lat="43.71938" lon="6.97867">
        <ele>783.72485351562</ele>
        <time>2020-05-14T14:32:08Z</time>
      </trkpt>
      <trkpt lat="43.71938" lon="6.97867">
        <ele>783.71826171875</ele>
        <time>2020-05-14T14:32:09Z</time>
      </trkpt>
      <trkpt lat="43.71938" lon="6.97867">
        <ele>783.72534179688</ele>
        <time>2020-05-14T14:32:10Z</time>
      </trkpt>
      <trkpt lat="43.71938" lon="6.97867">
        <ele>783.72583007812</ele>
        <time>2020-05-14T14:32:11Z</time>
      </trkpt>
      <trkpt lat="43.71938" lon="6.97867">
        <ele>783.71875</ele>
        <time>2020-05-14T14:32:12Z</time>
      </trkpt>
      <trkpt lat="43.71938" lon="6.97867">
        <ele>783.7236328125</ele>
        <time>2020-05-14T14:32:13Z</time>
      </trkpt>
      <trkpt lat="43.71938" lon="6.97867">
        <ele>783.72290039062</ele>
        <time>2020-05-14T14:32:14Z</time>
      </trkpt>
      <trkpt lat="43.71938" lon="6.97867">
        <ele>783.7138671875</ele>
        <time>2020-05-14T14:32:15Z</time>
      </trkpt>
      <trkpt lat="43.71938" lon="6.97867">
        <ele>783.703125</ele>
        <time>2020-05-14T14:32:16Z</time>
      </trkpt>
      <trkpt lat="43.71938" lon="6.97867">
        <ele>783.70776367188</ele>
        <time>2020-05-14T14:32:17Z</time>
      </trkpt>
      <trkpt lat="43.71938" lon="6.97867">
        <ele>783.70556640625</ele>
        <time>2020-05-14T14:32:18Z</time>
      </trkpt>
      <trkpt lat="43.71938" lon="6.97867">
        <ele>782.31030273438</ele>
        <time>2020-05-14T14:32:19Z</time>
      </trkpt>
      <trkpt lat="43.71938" lon="6.97867">
        <ele>782.66589355469</ele>
        <time>2020-05-14T14:32:20Z</time>
      </trkpt>
      <trkpt lat="43.71938" lon="6.97867">
        <ele>781.14013671875</ele>
        <time>2020-05-14T14:32:21Z</time>
      </trkpt>
      <trkpt lat="43.71938" lon="6.97867">
        <ele>781.978515625</ele>
        <time>2020-05-14T14:32:22Z</time>
      </trkpt>
      <trkpt lat="43.71938" lon="6.97867">
        <ele>780.84057617188</ele>
        <time>2020-05-14T14:32:23Z</time>
      </trkpt>
      <trkpt lat="43.71938" lon="6.97867">
        <ele>781.90808105469</ele>
        <time>2020-05-14T14:32:24Z</time>
      </trkpt>
      <trkpt lat="43.71938" lon="6.97867">
        <ele>782.58679199219</ele>
        <time>2020-05-14T14:32:25Z</time>
      </trkpt>
      <trkpt lat="43.71938" lon="6.97867">
        <ele>783.37475585938</ele>
        <time>2020-05-14T14:32:26Z</time>
      </trkpt>
      <trkpt lat="43.71938" lon="6.97867">
        <ele>783.68579101562</ele>
        <time>2020-05-14T14:32:27Z</time>
      </trkpt>
      <trkpt lat="43.71938" lon="6.97867">
        <ele>783.6845703125</ele>
        <time>2020-05-14T14:32:28Z</time>
      </trkpt>
      <trkpt lat="43.71938" lon="6.97867">
        <ele>781.90942382812</ele>
        <time>2020-05-14T14:32:29Z</time>
      </trkpt>
      <trkpt lat="43.71938" lon="6.97867">
        <ele>783.2509765625</ele>
        <time>2020-05-14T14:32:30Z</time>
      </trkpt>
      <trkpt lat="43.71938" lon="6.97867">
        <ele>781.91821289062</ele>
        <time>2020-05-14T14:32:31Z</time>
      </trkpt>
      <trkpt lat="43.71938" lon="6.97867">
        <ele>781.3017578125</ele>
        <time>2020-05-14T14:32:32Z</time>
      </trkpt>
      <trkpt lat="43.71938" lon="6.97867">
        <ele>781.82470703125</ele>
        <time>2020-05-14T14:32:33Z</time>
      </trkpt>
      <trkpt lat="43.71938" lon="6.97867">
        <ele>782.92321777344</ele>
        <time>2020-05-14T14:32:34Z</time>
      </trkpt>
      <trkpt lat="43.71938" lon="6.97867">
        <ele>783.68676757812</ele>
        <time>2020-05-14T14:32:35Z</time>
      </trkpt>
      <trkpt lat="43.71938" lon="6.97867">
        <ele>783.69311523438</ele>
        <time>2020-05-14T14:32:36Z</time>
      </trkpt>
      <trkpt lat="43.71938" lon="6.97867">
        <ele>783.70703125</ele>
        <time>2020-05-14T14:32:37Z</time>
      </trkpt>
      <trkpt lat="43.71938" lon="6.97867">
        <ele>783.68994140625</ele>
        <time>2020-05-14T14:32:38Z</time>
      </trkpt>
      <trkpt lat="43.71938" lon="6.97867">
        <ele>783.70544433594</ele>
        <time>2020-05-14T14:32:39Z</time>
      </trkpt>
      <trkpt lat="43.71938" lon="6.97867">
        <ele>783.68859863281</ele>
        <time>2020-05-14T14:32:40Z</time>
      </trkpt>
      <trkpt lat="43.71938" lon="6.97867">
        <ele>783.68151855469</ele>
        <time>2020-05-14T14:32:41Z</time>
      </trkpt>
      <trkpt lat="43.71938" lon="6.97867">
        <ele>783.68701171875</ele>
        <time>2020-05-14T14:32:42Z</time>
      </trkpt>
      <trkpt lat="43.71938" lon="6.97867">
        <ele>783.6875</ele>
        <time>2020-05-14T14:32:43Z</time>
      </trkpt>
      <trkpt lat="43.71938" lon="6.97867">
        <ele>783.67834472656</ele>
        <time>2020-05-14T14:32:44Z</time>
      </trkpt>
      <trkpt lat="43.71938" lon="6.97867">
        <ele>783.67163085938</ele>
        <time>2020-05-14T14:32:45Z</time>
      </trkpt>
      <trkpt lat="43.71938" lon="6.97867">
        <ele>783.68774414062</ele>
        <time>2020-05-14T14:32:46Z</time>
      </trkpt>
      <trkpt lat="43.71938" lon="6.97867">
        <ele>783.68859863281</ele>
        <time>2020-05-14T14:32:47Z</time>
      </trkpt>
      <trkpt lat="43.71938" lon="6.97867">
        <ele>783.68896484375</ele>
        <time>2020-05-14T14:32:48Z</time>
      </trkpt>
      <trkpt lat="43.71939" lon="6.97867">
        <ele>783.68041992188</ele>
        <time>2020-05-14T14:32:49Z</time>
      </trkpt>
      <trkpt lat="43.71939" lon="6.97867">
        <ele>783.68078613281</ele>
        <time>2020-05-14T14:32:50Z</time>
      </trkpt>
      <trkpt lat="43.71939" lon="6.97867">
        <ele>783.6806640625</ele>
        <time>2020-05-14T14:32:51Z</time>
      </trkpt>
      <trkpt lat="43.71939" lon="6.97867">
        <ele>783.70288085938</ele>
        <time>2020-05-14T14:32:52Z</time>
      </trkpt>
      <trkpt lat="43.71939" lon="6.97867">
        <ele>783.69348144531</ele>
        <time>2020-05-14T14:32:53Z</time>
      </trkpt>
      <trkpt lat="43.71939" lon="6.97867">
        <ele>783.6611328125</ele>
        <time>2020-05-14T14:32:54Z</time>
      </trkpt>
      <trkpt lat="43.71939" lon="6.97867">
        <ele>783.67724609375</ele>
        <time>2020-05-14T14:32:55Z</time>
      </trkpt>
      <trkpt lat="43.71939" lon="6.97867">
        <ele>783.68286132812</ele>
        <time>2020-05-14T14:32:56Z</time>
      </trkpt>
      <trkpt lat="43.71939" lon="6.97867">
        <ele>783.67529296875</ele>
        <time>2020-05-14T14:32:57Z</time>
      </trkpt>
      <trkpt lat="43.71939" lon="6.97867">
        <ele>783.68237304688</ele>
        <time>2020-05-14T14:32:58Z</time>
      </trkpt>
      <trkpt lat="43.71939" lon="6.97867">
        <ele>783.6728515625</ele>
        <time>2020-05-14T14:32:59Z</time>
      </trkpt>
      <trkpt lat="43.71939" lon="6.97867">
        <ele>783.68017578125</ele>
        <time>2020-05-14T14:33:00Z</time>
      </trkpt>
      <trkpt lat="43.71939" lon="6.97867">
        <ele>783.67163085938</ele>
        <time>2020-05-14T14:33:01Z</time>
      </trkpt>
      <trkpt lat="43.71939" lon="6.97867">
        <ele>783.67260742188</ele>
        <time>2020-05-14T14:33:02Z</time>
      </trkpt>
      <trkpt lat="43.71939" lon="6.97867">
        <ele>783.67114257812</ele>
        <time>2020-05-14T14:33:03Z</time>
      </trkpt>
      <trkpt lat="43.71939" lon="6.97867">
        <ele>783.677734375</ele>
        <time>2020-05-14T14:33:04Z</time>
      </trkpt>
      <trkpt lat="43.71939" lon="6.97867">
        <ele>783.66772460938</ele>
        <time>2020-05-14T14:33:05Z</time>
      </trkpt>
      <trkpt lat="43.71939" lon="6.97867">
        <ele>783.65966796875</ele>
        <time>2020-05-14T14:33:06Z</time>
      </trkpt>
      <trkpt lat="43.71939" lon="6.97867">
        <ele>783.67578125</ele>
        <time>2020-05-14T14:33:07Z</time>
      </trkpt>
      <trkpt lat="43.71939" lon="6.97867">
        <ele>783.67797851562</ele>
        <time>2020-05-14T14:33:08Z</time>
      </trkpt>
      <trkpt lat="43.71939" lon="6.97867">
        <ele>783.68542480469</ele>
        <time>2020-05-14T14:33:09Z</time>
      </trkpt>
      <trkpt lat="43.71939" lon="6.97867">
        <ele>783.66284179688</ele>
        <time>2020-05-14T14:33:10Z</time>
      </trkpt>
      <trkpt lat="43.71939" lon="6.97867">
        <ele>783.6787109375</ele>
        <time>2020-05-14T14:33:11Z</time>
      </trkpt>
      <trkpt lat="43.71939" lon="6.97867">
        <ele>783.02331542969</ele>
        <time>2020-05-14T14:33:12Z</time>
      </trkpt>
      <trkpt lat="43.71939" lon="6.97867">
        <ele>782.94946289062</ele>
        <time>2020-05-14T14:33:13Z</time>
      </trkpt>
      <trkpt lat="43.71939" lon="6.97867">
        <ele>783.67114257812</ele>
        <time>2020-05-14T14:33:14Z</time>
      </trkpt>
      <trkpt lat="43.71939" lon="6.97867">
        <ele>783.67944335938</ele>
        <time>2020-05-14T14:33:15Z</time>
      </trkpt>
      <trkpt lat="43.71939" lon="6.97867">
        <ele>783.6630859375</ele>
        <time>2020-05-14T14:33:16Z</time>
      </trkpt>
      <trkpt lat="43.71939" lon="6.97867">
        <ele>783.6708984375</ele>
        <time>2020-05-14T14:33:17Z</time>
      </trkpt>
      <trkpt lat="43.71939" lon="6.97867">
        <ele>783.67956542969</ele>
        <time>2020-05-14T14:33:18Z</time>
      </trkpt>
      <trkpt lat="43.71939" lon="6.97867">
        <ele>783.67053222656</ele>
        <time>2020-05-14T14:33:19Z</time>
      </trkpt>
      <trkpt lat="43.71939" lon="6.97867">
        <ele>783.68017578125</ele>
        <time>2020-05-14T14:33:20Z</time>
      </trkpt>
      <trkpt lat="43.71939" lon="6.97867">
        <ele>783.6806640625</ele>
        <time>2020-05-14T14:33:21Z</time>
      </trkpt>
      <trkpt lat="43.71939" lon="6.97867">
        <ele>783.68115234375</ele>
        <time>2020-05-14T14:33:22Z</time>
      </trkpt>
      <trkpt lat="43.71939" lon="6.97867">
        <ele>783.68029785156</ele>
        <time>2020-05-14T14:33:23Z</time>
      </trkpt>
      <trkpt lat="43.71939" lon="6.97867">
        <ele>783.68896484375</ele>
        <time>2020-05-14T14:33:24Z</time>
      </trkpt>
      <trkpt lat="43.71939" lon="6.97867">
        <ele>783.22509765625</ele>
        <time>2020-05-14T14:33:25Z</time>
      </trkpt>
      <trkpt lat="43.71939" lon="6.97867">
        <ele>780.28662109375</ele>
        <time>2020-05-14T14:33:26Z</time>
      </trkpt>
      <trkpt lat="43.71939" lon="6.97867">
        <ele>782.25390625</ele>
        <time>2020-05-14T14:33:27Z</time>
      </trkpt>
      <trkpt lat="43.71939" lon="6.97867">
        <ele>782.47314453125</ele>
        <time>2020-05-14T14:33:28Z</time>
      </trkpt>
      <trkpt lat="43.71939" lon="6.97867">
        <ele>782.08618164062</ele>
        <time>2020-05-14T14:33:29Z</time>
      </trkpt>
      <trkpt lat="43.71939" lon="6.97867">
        <ele>783.14416503906</ele>
        <time>2020-05-14T14:33:30Z</time>
      </trkpt>
      <trkpt lat="43.71939" lon="6.97867">
        <ele>783.06713867188</ele>
        <time>2020-05-14T14:33:31Z</time>
      </trkpt>
      <trkpt lat="43.71939" lon="6.97867">
        <ele>782.69470214844</ele>
        <time>2020-05-14T14:33:32Z</time>
      </trkpt>
      <trkpt lat="43.71939" lon="6.97867">
        <ele>782.46899414062</ele>
        <time>2020-05-14T14:33:33Z</time>
      </trkpt>
      <trkpt lat="43.71939" lon="6.97867">
        <ele>783.12414550781</ele>
        <time>2020-05-14T14:33:34Z</time>
      </trkpt>
      <trkpt lat="43.71939" lon="6.97867">
        <ele>783.681640625</ele>
        <time>2020-05-14T14:33:35Z</time>
      </trkpt>
      <trkpt lat="43.71939" lon="6.97867">
        <ele>783.68041992188</ele>
        <time>2020-05-14T14:33:36Z</time>
      </trkpt>
      <trkpt lat="43.71939" lon="6.97867">
        <ele>783.27758789062</ele>
        <time>2020-05-14T14:33:37Z</time>
      </trkpt>
      <trkpt lat="43.71939" lon="6.97867">
        <ele>782.58874511719</ele>
        <time>2020-05-14T14:33:38Z</time>
      </trkpt>
      <trkpt lat="43.71939" lon="6.97867">
        <ele>783.2119140625</ele>
        <time>2020-05-14T14:33:39Z</time>
      </trkpt>
      <trkpt lat="43.71939" lon="6.97867">
        <ele>782.833984375</ele>
        <time>2020-05-14T14:33:40Z</time>
      </trkpt>
      <trkpt lat="43.71939" lon="6.97867">
        <ele>782.58776855469</ele>
        <time>2020-05-14T14:33:41Z</time>
      </trkpt>
      <trkpt lat="43.71939" lon="6.97867">
        <ele>782.65112304688</ele>
        <time>2020-05-14T14:33:42Z</time>
      </trkpt>
      <trkpt lat="43.71939" lon="6.97867">
        <ele>781.771484375</ele>
        <time>2020-05-14T14:33:43Z</time>
      </trkpt>
      <trkpt lat="43.71939" lon="6.97867">
        <ele>780.50219726562</ele>
        <time>2020-05-14T14:33:44Z</time>
      </trkpt>
      <trkpt lat="43.71938" lon="6.97867">
        <ele>780.16943359375</ele>
        <time>2020-05-14T14:33:45Z</time>
      </trkpt>
      <trkpt lat="43.71938" lon="6.97866">
        <ele>782.21630859375</ele>
        <time>2020-05-14T14:33:46Z</time>
      </trkpt>
      <trkpt lat="43.71938" lon="6.97866">
        <ele>782.02270507812</ele>
        <time>2020-05-14T14:33:47Z</time>
      </trkpt>
      <trkpt lat="43.71937" lon="6.97866">
        <ele>782.01477050781</ele>
        <time>2020-05-14T14:33:48Z</time>
      </trkpt>
      <trkpt lat="43.71937" lon="6.97866">
        <ele>780.57116699219</ele>
        <time>2020-05-14T14:33:49Z</time>
      </trkpt>
      <trkpt lat="43.71937" lon="6.97866">
        <ele>780.7666015625</ele>
        <time>2020-05-14T14:33:50Z</time>
      </trkpt>
      <trkpt lat="43.71937" lon="6.97866">
        <ele>779.18994140625</ele>
        <time>2020-05-14T14:33:51Z</time>
      </trkpt>
      <trkpt lat="43.71937" lon="6.97866">
        <ele>777.88415527344</ele>
        <time>2020-05-14T14:33:52Z</time>
      </trkpt>
      <trkpt lat="43.71937" lon="6.97865">
        <ele>777.27465820312</ele>
        <time>2020-05-14T14:33:53Z</time>
      </trkpt>
      <trkpt lat="43.71937" lon="6.97865">
        <ele>777.45251464844</ele>
        <time>2020-05-14T14:33:54Z</time>
      </trkpt>
      <trkpt lat="43.71937" lon="6.97865">
        <ele>777.85656738281</ele>
        <time>2020-05-14T14:33:55Z</time>
      </trkpt>
      <trkpt lat="43.71936" lon="6.97865">
        <ele>778.89770507812</ele>
        <time>2020-05-14T14:33:56Z</time>
      </trkpt>
      <trkpt lat="43.71936" lon="6.97865">
        <ele>778.8466796875</ele>
        <time>2020-05-14T14:33:57Z</time>
      </trkpt>
      <trkpt lat="43.71936" lon="6.97865">
        <ele>780.19506835938</ele>
        <time>2020-05-14T14:33:58Z</time>
      </trkpt>
      <trkpt lat="43.71935" lon="6.97864">
        <ele>779.11450195312</ele>
        <time>2020-05-14T14:33:59Z</time>
      </trkpt>
      <trkpt lat="43.71935" lon="6.97864">
        <ele>781.142578125</ele>
        <time>2020-05-14T14:34:00Z</time>
      </trkpt>
      <trkpt lat="43.71935" lon="6.97864">
        <ele>781.13195800781</ele>
        <time>2020-05-14T14:34:01Z</time>
      </trkpt>
      <trkpt lat="43.71935" lon="6.97864">
        <ele>780.27807617188</ele>
        <time>2020-05-14T14:34:02Z</time>
      </trkpt>
      <trkpt lat="43.71935" lon="6.97863">
        <ele>780.75366210938</ele>
        <time>2020-05-14T14:34:03Z</time>
      </trkpt>
      <trkpt lat="43.71935" lon="6.97863">
        <ele>781.69946289062</ele>
        <time>2020-05-14T14:34:04Z</time>
      </trkpt>
      <trkpt lat="43.71935" lon="6.97863">
        <ele>782.20886230469</ele>
        <time>2020-05-14T14:34:05Z</time>
      </trkpt>
      <trkpt lat="43.71934" lon="6.97864">
        <ele>782.26708984375</ele>
        <time>2020-05-14T14:34:06Z</time>
      </trkpt>
      <trkpt lat="43.71934" lon="6.97864">
        <ele>782.36889648438</ele>
        <time>2020-05-14T14:34:07Z</time>
      </trkpt>
      <trkpt lat="43.71934" lon="6.97864">
        <ele>782.9833984375</ele>
        <time>2020-05-14T14:34:08Z</time>
      </trkpt>
      <trkpt lat="43.71934" lon="6.97864">
        <ele>783.23559570312</ele>
        <time>2020-05-14T14:34:09Z</time>
      </trkpt>
      <trkpt lat="43.71934" lon="6.97864">
        <ele>783.59765625</ele>
        <time>2020-05-14T14:34:10Z</time>
      </trkpt>
      <trkpt lat="43.71934" lon="6.97864">
        <ele>783.72119140625</ele>
        <time>2020-05-14T14:34:11Z</time>
      </trkpt>
      <trkpt lat="43.71934" lon="6.97864">
        <ele>784.142578125</ele>
        <time>2020-05-14T14:34:12Z</time>
      </trkpt>
      <trkpt lat="43.71934" lon="6.97865">
        <ele>784.58666992188</ele>
        <time>2020-05-14T14:34:13Z</time>
      </trkpt>
      <trkpt lat="43.71935" lon="6.97865">
        <ele>783.70971679688</ele>
        <time>2020-05-14T14:34:14Z</time>
      </trkpt>
      <trkpt lat="43.71935" lon="6.97865">
        <ele>777.65563964844</ele>
        <time>2020-05-14T14:34:15Z</time>
      </trkpt>
      <trkpt lat="43.71934" lon="6.97865">
        <ele>775.22802734375</ele>
        <time>2020-05-14T14:34:16Z</time>
      </trkpt>
      <trkpt lat="43.71934" lon="6.97865">
        <ele>773.07250976562</ele>
        <time>2020-05-14T14:34:17Z</time>
      </trkpt>
      <trkpt lat="43.71933" lon="6.97865">
        <ele>772.39575195312</ele>
        <time>2020-05-14T14:34:18Z</time>
      </trkpt>
      <trkpt lat="43.71933" lon="6.97865">
        <ele>771.90197753906</ele>
        <time>2020-05-14T14:34:19Z</time>
      </trkpt>
      <trkpt lat="43.71933" lon="6.97865">
        <ele>773.31030273438</ele>
        <time>2020-05-14T14:34:20Z</time>
      </trkpt>
      <trkpt lat="43.71933" lon="6.97865">
        <ele>775.98046875</ele>
        <time>2020-05-14T14:34:21Z</time>
      </trkpt>
      <trkpt lat="43.71933" lon="6.97866">
        <ele>780.62719726562</ele>
        <time>2020-05-14T14:34:22Z</time>
      </trkpt>
      <trkpt lat="43.71933" lon="6.97866">
        <ele>780.07641601562</ele>
        <time>2020-05-14T14:34:23Z</time>
      </trkpt>
      <trkpt lat="43.71933" lon="6.97866">
        <ele>774.03271484375</ele>
        <time>2020-05-14T14:34:24Z</time>
      </trkpt>
      <trkpt lat="43.71933" lon="6.97867">
        <ele>771.82543945312</ele>
        <time>2020-05-14T14:34:25Z</time>
      </trkpt>
      <trkpt lat="43.71933" lon="6.97867">
        <ele>782.13293457031</ele>
        <time>2020-05-14T14:34:26Z</time>
      </trkpt>
      <trkpt lat="43.71934" lon="6.97867">
        <ele>779.14672851562</ele>
        <time>2020-05-14T14:34:27Z</time>
      </trkpt>
      <trkpt lat="43.71934" lon="6.97867">
        <ele>779.41198730469</ele>
        <time>2020-05-14T14:34:28Z</time>
      </trkpt>
      <trkpt lat="43.71934" lon="6.97867">
        <ele>776.29711914062</ele>
        <time>2020-05-14T14:34:29Z</time>
      </trkpt>
      <trkpt lat="43.71934" lon="6.97867">
        <ele>776.1240234375</ele>
        <time>2020-05-14T14:34:30Z</time>
      </trkpt>
      <trkpt lat="43.71934" lon="6.97867">
        <ele>774.70361328125</ele>
        <time>2020-05-14T14:34:31Z</time>
      </trkpt>
      <trkpt lat="43.71934" lon="6.97867">
        <ele>773.8310546875</ele>
        <time>2020-05-14T14:34:32Z</time>
      </trkpt>
      <trkpt lat="43.71934" lon="6.97867">
        <ele>770.78088378906</ele>
        <time>2020-05-14T14:34:33Z</time>
      </trkpt>
      <trkpt lat="43.71934" lon="6.97867">
        <ele>755.71557617188</ele>
        <time>2020-05-14T14:34:34Z</time>
      </trkpt>
      <trkpt lat="43.71933" lon="6.97867">
        <ele>799.76647949219</ele>
        <time>2020-05-14T14:34:35Z</time>
      </trkpt>
      <trkpt lat="43.71933" lon="6.97867">
        <ele>799.01196289062</ele>
        <time>2020-05-14T14:34:36Z</time>
      </trkpt>
      <trkpt lat="43.71933" lon="6.97866">
        <ele>798.9658203125</ele>
        <time>2020-05-14T14:34:37Z</time>
      </trkpt>
      <trkpt lat="43.71933" lon="6.97866">
        <ele>799.07836914062</ele>
        <time>2020-05-14T14:34:38Z</time>
      </trkpt>
      <trkpt lat="43.71933" lon="6.97866">
        <ele>799.34643554688</ele>
        <time>2020-05-14T14:34:39Z</time>
      </trkpt>
      <trkpt lat="43.71933" lon="6.97866">
        <ele>750.10412597656</ele>
        <time>2020-05-14T14:34:40Z</time>
      </trkpt>
      <trkpt lat="43.71933" lon="6.97866">
        <ele>765.71728515625</ele>
        <time>2020-05-14T14:34:41Z</time>
      </trkpt>
      <trkpt lat="43.71933" lon="6.97866">
        <ele>765.88708496094</ele>
        <time>2020-05-14T14:34:42Z</time>
      </trkpt>
      <trkpt lat="43.71933" lon="6.97866">
        <ele>763.84838867188</ele>
        <time>2020-05-14T14:34:43Z</time>
      </trkpt>
      <trkpt lat="43.71933" lon="6.97866">
        <ele>758.09741210938</ele>
        <time>2020-05-14T14:34:44Z</time>
      </trkpt>
      <trkpt lat="43.71933" lon="6.97866">
        <ele>759.89282226562</ele>
        <time>2020-05-14T14:34:45Z</time>
      </trkpt>
      <trkpt lat="43.71933" lon="6.97866">
        <ele>760.078125</ele>
        <time>2020-05-14T14:34:46Z</time>
      </trkpt>
      <trkpt lat="43.71933" lon="6.97866">
        <ele>760.08666992188</ele>
        <time>2020-05-14T14:34:47Z</time>
      </trkpt>
      <trkpt lat="43.71933" lon="6.97867">
        <ele>758.44995117188</ele>
        <time>2020-05-14T14:34:48Z</time>
      </trkpt>
      <trkpt lat="43.71933" lon="6.97867">
        <ele>755.7646484375</ele>
        <time>2020-05-14T14:34:49Z</time>
      </trkpt>
      <trkpt lat="43.71933" lon="6.97867">
        <ele>759.751953125</ele>
        <time>2020-05-14T14:34:50Z</time>
      </trkpt>
      <trkpt lat="43.71933" lon="6.97867">
        <ele>762.49267578125</ele>
        <time>2020-05-14T14:34:51Z</time>
      </trkpt>
      <trkpt lat="43.71933" lon="6.97867">
        <ele>760.2529296875</ele>
        <time>2020-05-14T14:34:52Z</time>
      </trkpt>
      <trkpt lat="43.71933" lon="6.97867">
        <ele>760.53979492188</ele>
        <time>2020-05-14T14:34:53Z</time>
      </trkpt>
      <trkpt lat="43.71933" lon="6.97867">
        <ele>758.162109375</ele>
        <time>2020-05-14T14:34:54Z</time>
      </trkpt>
      <trkpt lat="43.71933" lon="6.97867">
        <ele>760.619140625</ele>
        <time>2020-05-14T14:34:55Z</time>
      </trkpt>
      <trkpt lat="43.71933" lon="6.97867">
        <ele>760.59228515625</ele>
        <time>2020-05-14T14:34:56Z</time>
      </trkpt>
      <trkpt lat="43.71933" lon="6.97867">
        <ele>753.42980957031</ele>
        <time>2020-05-14T14:34:57Z</time>
      </trkpt>
      <trkpt lat="43.71933" lon="6.97867">
        <ele>771.88244628906</ele>
        <time>2020-05-14T14:34:58Z</time>
      </trkpt>
      <trkpt lat="43.71933" lon="6.97867">
        <ele>768.99340820312</ele>
        <time>2020-05-14T14:34:59Z</time>
      </trkpt>
      <trkpt lat="43.71933" lon="6.97867">
        <ele>770.05029296875</ele>
        <time>2020-05-14T14:35:00Z</time>
      </trkpt>
      <trkpt lat="43.71933" lon="6.97867">
        <ele>772.37243652344</ele>
        <time>2020-05-14T14:35:01Z</time>
      </trkpt>
      <trkpt lat="43.71933" lon="6.97867">
        <ele>773.19714355469</ele>
        <time>2020-05-14T14:35:02Z</time>
      </trkpt>
      <trkpt lat="43.71933" lon="6.97867">
        <ele>773.97802734375</ele>
        <time>2020-05-14T14:35:03Z</time>
      </trkpt>
      <trkpt lat="43.71933" lon="6.97867">
        <ele>773.41821289062</ele>
        <time>2020-05-14T14:35:04Z</time>
      </trkpt>
      <trkpt lat="43.71933" lon="6.97867">
        <ele>766.78210449219</ele>
        <time>2020-05-14T14:35:05Z</time>
      </trkpt>
      <trkpt lat="43.71933" lon="6.97867">
        <ele>765.91381835938</ele>
        <time>2020-05-14T14:35:06Z</time>
      </trkpt>
      <trkpt lat="43.71933" lon="6.97867">
        <ele>762.34545898438</ele>
        <time>2020-05-14T14:35:07Z</time>
      </trkpt>
      <trkpt lat="43.71933" lon="6.97867">
        <ele>763.23876953125</ele>
        <time>2020-05-14T14:35:08Z</time>
      </trkpt>
      <trkpt lat="43.71933" lon="6.97867">
        <ele>761.83349609375</ele>
        <time>2020-05-14T14:35:09Z</time>
      </trkpt>
      <trkpt lat="43.71933" lon="6.97867">
        <ele>757.67529296875</ele>
        <time>2020-05-14T14:35:10Z</time>
      </trkpt>
      <trkpt lat="43.71933" lon="6.97867">
        <ele>756.07421875</ele>
        <time>2020-05-14T14:35:11Z</time>
      </trkpt>
      <trkpt lat="43.71933" lon="6.97867">
        <ele>753.79541015625</ele>
        <time>2020-05-14T14:35:12Z</time>
      </trkpt>
      <trkpt lat="43.71933" lon="6.97867">
        <ele>751.35595703125</ele>
        <time>2020-05-14T14:35:13Z</time>
      </trkpt>
      <trkpt lat="43.71933" lon="6.97867">
        <ele>748.46362304688</ele>
        <time>2020-05-14T14:35:14Z</time>
      </trkpt>
      <trkpt lat="43.71933" lon="6.97867">
        <ele>744.77526855469</ele>
        <time>2020-05-14T14:35:15Z</time>
      </trkpt>
      <trkpt lat="43.71933" lon="6.97867">
        <ele>743.53247070312</ele>
        <time>2020-05-14T14:35:16Z</time>
      </trkpt>
      <trkpt lat="43.71933" lon="6.97867">
        <ele>749.177734375</ele>
        <time>2020-05-14T14:35:17Z</time>
      </trkpt>
      <trkpt lat="43.71933" lon="6.97867">
        <ele>746.80578613281</ele>
        <time>2020-05-14T14:35:18Z</time>
      </trkpt>
      <trkpt lat="43.71933" lon="6.97867">
        <ele>748.26171875</ele>
        <time>2020-05-14T14:35:19Z</time>
      </trkpt>
      <trkpt lat="43.71933" lon="6.97867">
        <ele>746.30615234375</ele>
        <time>2020-05-14T14:35:20Z</time>
      </trkpt>
      <trkpt lat="43.71933" lon="6.97867">
        <ele>743.28198242188</ele>
        <time>2020-05-14T14:35:21Z</time>
      </trkpt>
      <trkpt lat="43.71933" lon="6.97867">
        <ele>745.39794921875</ele>
        <time>2020-05-14T14:35:22Z</time>
      </trkpt>
      <trkpt lat="43.71933" lon="6.97867">
        <ele>758.69543457031</ele>
        <time>2020-05-14T14:35:23Z</time>
      </trkpt>
      <trkpt lat="43.71933" lon="6.97867">
        <ele>754.55004882812</ele>
        <time>2020-05-14T14:35:24Z</time>
      </trkpt>
      <trkpt lat="43.71933" lon="6.97867">
        <ele>746.85461425781</ele>
        <time>2020-05-14T14:35:25Z</time>
      </trkpt>
      <trkpt lat="43.71933" lon="6.97867">
        <ele>748.375</ele>
        <time>2020-05-14T14:35:26Z</time>
      </trkpt>
      <trkpt lat="43.71933" lon="6.97867">
        <ele>744.32299804688</ele>
        <time>2020-05-14T14:35:27Z</time>
      </trkpt>
      <trkpt lat="43.71933" lon="6.97867">
        <ele>750.91540527344</ele>
        <time>2020-05-14T14:35:28Z</time>
      </trkpt>
      <trkpt lat="43.71933" lon="6.97867">
        <ele>740.07153320312</ele>
        <time>2020-05-14T14:35:29Z</time>
      </trkpt>
      <trkpt lat="43.71933" lon="6.97867">
        <ele>739.00415039062</ele>
        <time>2020-05-14T14:35:30Z</time>
      </trkpt>
      <trkpt lat="43.71933" lon="6.97867">
        <ele>741.70739746094</ele>
        <time>2020-05-14T14:35:31Z</time>
      </trkpt>
      <trkpt lat="43.71933" lon="6.97867">
        <ele>743.96044921875</ele>
        <time>2020-05-14T14:35:32Z</time>
      </trkpt>
      <trkpt lat="43.71933" lon="6.97867">
        <ele>747.67065429688</ele>
        <time>2020-05-14T14:35:33Z</time>
      </trkpt>
      <trkpt lat="43.71933" lon="6.97867">
        <ele>749.87939453125</ele>
        <time>2020-05-14T14:35:34Z</time>
      </trkpt>
      <trkpt lat="43.71933" lon="6.97867">
        <ele>747.06665039062</ele>
        <time>2020-05-14T14:35:35Z</time>
      </trkpt>
      <trkpt lat="43.71933" lon="6.97867">
        <ele>748.52685546875</ele>
        <time>2020-05-14T14:35:36Z</time>
      </trkpt>
      <trkpt lat="43.71933" lon="6.97867">
        <ele>748.9658203125</ele>
        <time>2020-05-14T14:35:37Z</time>
      </trkpt>
      <trkpt lat="43.71933" lon="6.97867">
        <ele>744.2021484375</ele>
        <time>2020-05-14T14:35:38Z</time>
      </trkpt>
      <trkpt lat="43.71933" lon="6.97867">
        <ele>747.25146484375</ele>
        <time>2020-05-14T14:35:39Z</time>
      </trkpt>
      <trkpt lat="43.71933" lon="6.97867">
        <ele>747.392578125</ele>
        <time>2020-05-14T14:35:40Z</time>
      </trkpt>
      <trkpt lat="43.71933" lon="6.97867">
        <ele>746.33422851562</ele>
        <time>2020-05-14T14:35:41Z</time>
      </trkpt>
      <trkpt lat="43.71933" lon="6.97867">
        <ele>745.51831054688</ele>
        <time>2020-05-14T14:35:42Z</time>
      </trkpt>
      <trkpt lat="43.71933" lon="6.97867">
        <ele>744.31018066406</ele>
        <time>2020-05-14T14:35:43Z</time>
      </trkpt>
      <trkpt lat="43.71933" lon="6.97867">
        <ele>742.85424804688</ele>
        <time>2020-05-14T14:35:44Z</time>
      </trkpt>
      <trkpt lat="43.71933" lon="6.97867">
        <ele>742.33825683594</ele>
        <time>2020-05-14T14:35:45Z</time>
      </trkpt>
      <trkpt lat="43.71933" lon="6.97867">
        <ele>740.56982421875</ele>
        <time>2020-05-14T14:35:46Z</time>
      </trkpt>
      <trkpt lat="43.71933" lon="6.97867">
        <ele>739.90795898438</ele>
        <time>2020-05-14T14:35:47Z</time>
      </trkpt>
      <trkpt lat="43.71933" lon="6.97867">
        <ele>738.23315429688</ele>
        <time>2020-05-14T14:35:48Z</time>
      </trkpt>
      <trkpt lat="43.71933" lon="6.97867">
        <ele>737.33349609375</ele>
        <time>2020-05-14T14:35:49Z</time>
      </trkpt>
      <trkpt lat="43.71933" lon="6.97867">
        <ele>738.37756347656</ele>
        <time>2020-05-14T14:35:50Z</time>
      </trkpt>
      <trkpt lat="43.71933" lon="6.97867">
        <ele>735.07958984375</ele>
        <time>2020-05-14T14:35:51Z</time>
      </trkpt>
      <trkpt lat="43.71933" lon="6.97867">
        <ele>734.287109375</ele>
        <time>2020-05-14T14:35:52Z</time>
      </trkpt>
      <trkpt lat="43.71933" lon="6.97867">
        <ele>730.26342773438</ele>
        <time>2020-05-14T14:35:53Z</time>
      </trkpt>
      <trkpt lat="43.71933" lon="6.97867">
        <ele>726.25903320312</ele>
        <time>2020-05-14T14:35:54Z</time>
      </trkpt>
      <trkpt lat="43.71933" lon="6.97867">
        <ele>736.43505859375</ele>
        <time>2020-05-14T14:35:55Z</time>
      </trkpt>
      <trkpt lat="43.71933" lon="6.97867">
        <ele>732.89733886719</ele>
        <time>2020-05-14T14:35:56Z</time>
      </trkpt>
      <trkpt lat="43.71933" lon="6.97867">
        <ele>734.37866210938</ele>
        <time>2020-05-14T14:35:57Z</time>
      </trkpt>
      <trkpt lat="43.71933" lon="6.97867">
        <ele>735.52758789062</ele>
        <time>2020-05-14T14:35:58Z</time>
      </trkpt>
      <trkpt lat="43.71933" lon="6.97867">
        <ele>739.23840332031</ele>
        <time>2020-05-14T14:35:59Z</time>
      </trkpt>
      <trkpt lat="43.71933" lon="6.97867">
        <ele>740.42993164062</ele>
        <time>2020-05-14T14:36:00Z</time>
      </trkpt>
      <trkpt lat="43.71933" lon="6.97867">
        <ele>738.21606445312</ele>
        <time>2020-05-14T14:36:01Z</time>
      </trkpt>
      <trkpt lat="43.71933" lon="6.97867">
        <ele>739.32824707031</ele>
        <time>2020-05-14T14:36:02Z</time>
      </trkpt>
      <trkpt lat="43.71933" lon="6.97867">
        <ele>747.6328125</ele>
        <time>2020-05-14T14:36:03Z</time>
      </trkpt>
      <trkpt lat="43.71933" lon="6.97867">
        <ele>738.19677734375</ele>
        <time>2020-05-14T14:36:04Z</time>
      </trkpt>
      <trkpt lat="43.71933" lon="6.97867">
        <ele>741.44763183594</ele>
        <time>2020-05-14T14:36:05Z</time>
      </trkpt>
      <trkpt lat="43.71933" lon="6.97867">
        <ele>736.435546875</ele>
        <time>2020-05-14T14:36:06Z</time>
      </trkpt>
      <trkpt lat="43.71933" lon="6.97867">
        <ele>738.2041015625</ele>
        <time>2020-05-14T14:36:07Z</time>
      </trkpt>
      <trkpt lat="43.71933" lon="6.97867">
        <ele>744.46704101562</ele>
        <time>2020-05-14T14:36:08Z</time>
      </trkpt>
      <trkpt lat="43.71932" lon="6.97867">
        <ele>743.43969726562</ele>
        <time>2020-05-14T14:36:09Z</time>
      </trkpt>
      <trkpt lat="43.71933" lon="6.97867">
        <ele>743.994140625</ele>
        <time>2020-05-14T14:36:10Z</time>
      </trkpt>
      <trkpt lat="43.71933" lon="6.97867">
        <ele>758.08154296875</ele>
        <time>2020-05-14T14:36:11Z</time>
      </trkpt>
      <trkpt lat="43.71933" lon="6.97866">
        <ele>757.25903320312</ele>
        <time>2020-05-14T14:36:12Z</time>
      </trkpt>
      <trkpt lat="43.71933" lon="6.97866">
        <ele>756.04296875</ele>
        <time>2020-05-14T14:36:13Z</time>
      </trkpt>
      <trkpt lat="43.71933" lon="6.97866">
        <ele>754.93383789062</ele>
        <time>2020-05-14T14:36:14Z</time>
      </trkpt>
      <trkpt lat="43.71933" lon="6.97866">
        <ele>757.27001953125</ele>
        <time>2020-05-14T14:36:15Z</time>
      </trkpt>
      <trkpt lat="43.71933" lon="6.97866">
        <ele>759.02734375</ele>
        <time>2020-05-14T14:36:16Z</time>
      </trkpt>
      <trkpt lat="43.71934" lon="6.97867">
        <ele>758.80834960938</ele>
        <time>2020-05-14T14:36:17Z</time>
      </trkpt>
      <trkpt lat="43.71934" lon="6.97867">
        <ele>757.69348144531</ele>
        <time>2020-05-14T14:36:18Z</time>
      </trkpt>
      <trkpt lat="43.71934" lon="6.97867">
        <ele>745.9677734375</ele>
        <time>2020-05-14T14:36:19Z</time>
      </trkpt>
      <trkpt lat="43.71934" lon="6.97867">
        <ele>746.80249023438</ele>
        <time>2020-05-14T14:36:20Z</time>
      </trkpt>
      <trkpt lat="43.71934" lon="6.97867">
        <ele>749.6787109375</ele>
        <time>2020-05-14T14:36:21Z</time>
      </trkpt>
      <trkpt lat="43.71934" lon="6.97867">
        <ele>744.00073242188</ele>
        <time>2020-05-14T14:36:22Z</time>
      </trkpt>
      <trkpt lat="43.71934" lon="6.97867">
        <ele>744.84130859375</ele>
        <time>2020-05-14T14:36:23Z</time>
      </trkpt>
      <trkpt lat="43.71934" lon="6.97867">
        <ele>761.7861328125</ele>
        <time>2020-05-14T14:36:24Z</time>
      </trkpt>
      <trkpt lat="43.71934" lon="6.97867">
        <ele>758.1357421875</ele>
        <time>2020-05-14T14:36:25Z</time>
      </trkpt>
      <trkpt lat="43.71934" lon="6.97867">
        <ele>760.2607421875</ele>
        <time>2020-05-14T14:36:26Z</time>
      </trkpt>
      <trkpt lat="43.71934" lon="6.97867">
        <ele>762.2900390625</ele>
        <time>2020-05-14T14:36:27Z</time>
      </trkpt>
      <trkpt lat="43.71934" lon="6.97867">
        <ele>762.865234375</ele>
        <time>2020-05-14T14:36:28Z</time>
      </trkpt>
      <trkpt lat="43.71934" lon="6.97867">
        <ele>750.83520507812</ele>
        <time>2020-05-14T14:36:29Z</time>
      </trkpt>
      <trkpt lat="43.71934" lon="6.97867">
        <ele>750.58447265625</ele>
        <time>2020-05-14T14:36:30Z</time>
      </trkpt>
      <trkpt lat="43.71934" lon="6.97867">
        <ele>753.07629394531</ele>
        <time>2020-05-14T14:36:31Z</time>
      </trkpt>
      <trkpt lat="43.71934" lon="6.97867">
        <ele>753.86315917969</ele>
        <time>2020-05-14T14:36:32Z</time>
      </trkpt>
      <trkpt lat="43.71934" lon="6.97867">
        <ele>754.28881835938</ele>
        <time>2020-05-14T14:36:33Z</time>
      </trkpt>
      <trkpt lat="43.71934" lon="6.97867">
        <ele>754.27807617188</ele>
        <time>2020-05-14T14:36:34Z</time>
      </trkpt>
      <trkpt lat="43.71934" lon="6.97867">
        <ele>748.9990234375</ele>
        <time>2020-05-14T14:36:35Z</time>
      </trkpt>
      <trkpt lat="43.71934" lon="6.97867">
        <ele>747.34228515625</ele>
        <time>2020-05-14T14:36:36Z</time>
      </trkpt>
      <trkpt lat="43.71934" lon="6.97867">
        <ele>762.00073242188</ele>
        <time>2020-05-14T14:36:37Z</time>
      </trkpt>
      <trkpt lat="43.71934" lon="6.97867">
        <ele>759.07348632812</ele>
        <time>2020-05-14T14:36:38Z</time>
      </trkpt>
      <trkpt lat="43.71934" lon="6.97867">
        <ele>760.37890625</ele>
        <time>2020-05-14T14:36:39Z</time>
      </trkpt>
      <trkpt lat="43.71934" lon="6.97867">
        <ele>757.44116210938</ele>
        <time>2020-05-14T14:36:40Z</time>
      </trkpt>
      <trkpt lat="43.71935" lon="6.97867">
        <ele>762.0361328125</ele>
        <time>2020-05-14T14:36:41Z</time>
      </trkpt>
      <trkpt lat="43.71935" lon="6.97866">
        <ele>761.53076171875</ele>
        <time>2020-05-14T14:36:42Z</time>
      </trkpt>
      <trkpt lat="43.71935" lon="6.97866">
        <ele>765.02001953125</ele>
        <time>2020-05-14T14:36:43Z</time>
      </trkpt>
      <trkpt lat="43.71935" lon="6.97866">
        <ele>768.43505859375</ele>
        <time>2020-05-14T14:36:44Z</time>
      </trkpt>
      <trkpt lat="43.71935" lon="6.97865">
        <ele>761.53002929688</ele>
        <time>2020-05-14T14:36:45Z</time>
      </trkpt>
      <trkpt lat="43.71934" lon="6.97865">
        <ele>760.78259277344</ele>
        <time>2020-05-14T14:36:46Z</time>
      </trkpt>
      <trkpt lat="43.71934" lon="6.97865">
        <ele>795.19482421875</ele>
        <time>2020-05-14T14:36:47Z</time>
      </trkpt>
      <trkpt lat="43.71935" lon="6.97865">
        <ele>794.56811523438</ele>
        <time>2020-05-14T14:36:48Z</time>
      </trkpt>
      <trkpt lat="43.71935" lon="6.97864">
        <ele>794.34057617188</ele>
        <time>2020-05-14T14:36:49Z</time>
      </trkpt>
      <trkpt lat="43.71935" lon="6.97864">
        <ele>797.23071289062</ele>
        <time>2020-05-14T14:36:50Z</time>
      </trkpt>
      <trkpt lat="43.71936" lon="6.97864">
        <ele>796.921875</ele>
        <time>2020-05-14T14:36:51Z</time>
      </trkpt>
      <trkpt lat="43.71936" lon="6.97865">
        <ele>797.12280273438</ele>
        <time>2020-05-14T14:36:52Z</time>
      </trkpt>
      <trkpt lat="43.71936" lon="6.97865">
        <ele>797.20703125</ele>
        <time>2020-05-14T14:36:53Z</time>
      </trkpt>
      <trkpt lat="43.71936" lon="6.97865">
        <ele>797.62890625</ele>
        <time>2020-05-14T14:36:54Z</time>
      </trkpt>
      <trkpt lat="43.71936" lon="6.97865">
        <ele>798.06201171875</ele>
        <time>2020-05-14T14:36:55Z</time>
      </trkpt>
      <trkpt lat="43.71936" lon="6.97865">
        <ele>797.42016601562</ele>
        <time>2020-05-14T14:36:56Z</time>
      </trkpt>
      <trkpt lat="43.71936" lon="6.97865">
        <ele>796.32434082031</ele>
        <time>2020-05-14T14:36:57Z</time>
      </trkpt>
      <trkpt lat="43.71936" lon="6.97865">
        <ele>795.84741210938</ele>
        <time>2020-05-14T14:36:58Z</time>
      </trkpt>
      <trkpt lat="43.71936" lon="6.97865">
        <ele>795.2080078125</ele>
        <time>2020-05-14T14:36:59Z</time>
      </trkpt>
      <trkpt lat="43.71936" lon="6.97865">
        <ele>795.34008789062</ele>
        <time>2020-05-14T14:37:00Z</time>
      </trkpt>
      <trkpt lat="43.71936" lon="6.97865">
        <ele>798.0126953125</ele>
        <time>2020-05-14T14:37:01Z</time>
      </trkpt>
      <trkpt lat="43.71936" lon="6.97865">
        <ele>797.88598632812</ele>
        <time>2020-05-14T14:37:02Z</time>
      </trkpt>
      <trkpt lat="43.71936" lon="6.97865">
        <ele>797.99389648438</ele>
        <time>2020-05-14T14:37:03Z</time>
      </trkpt>
      <trkpt lat="43.71936" lon="6.97865">
        <ele>797.41271972656</ele>
        <time>2020-05-14T14:37:04Z</time>
      </trkpt>
      <trkpt lat="43.71936" lon="6.97865">
        <ele>797.06787109375</ele>
        <time>2020-05-14T14:37:05Z</time>
      </trkpt>
      <trkpt lat="43.71936" lon="6.97865">
        <ele>796.37145996094</ele>
        <time>2020-05-14T14:37:06Z</time>
      </trkpt>
      <trkpt lat="43.71936" lon="6.97865">
        <ele>795.59387207031</ele>
        <time>2020-05-14T14:37:07Z</time>
      </trkpt>
      <trkpt lat="43.71936" lon="6.97865">
        <ele>794.77551269531</ele>
        <time>2020-05-14T14:37:08Z</time>
      </trkpt>
      <trkpt lat="43.71936" lon="6.97865">
        <ele>794.48706054688</ele>
        <time>2020-05-14T14:37:09Z</time>
      </trkpt>
      <trkpt lat="43.71937" lon="6.97864">
        <ele>794.38110351562</ele>
        <time>2020-05-14T14:37:10Z</time>
      </trkpt>
      <trkpt lat="43.71937" lon="6.97863">
        <ele>795.73095703125</ele>
        <time>2020-05-14T14:37:11Z</time>
      </trkpt>
      <trkpt lat="43.71938" lon="6.97862">
        <ele>795.8876953125</ele>
        <time>2020-05-14T14:37:12Z</time>
      </trkpt>
      <trkpt lat="43.71939" lon="6.97862">
        <ele>795.92651367188</ele>
        <time>2020-05-14T14:37:13Z</time>
      </trkpt>
      <trkpt lat="43.7194" lon="6.97862">
        <ele>795.31591796875</ele>
        <time>2020-05-14T14:37:14Z</time>
      </trkpt>
      <trkpt lat="43.71941" lon="6.97862">
        <ele>795.45397949219</ele>
        <time>2020-05-14T14:37:15Z</time>
      </trkpt>
      <trkpt lat="43.71942" lon="6.97863">
        <ele>795.80078125</ele>
        <time>2020-05-14T14:37:16Z</time>
      </trkpt>
      <trkpt lat="43.71943" lon="6.97864">
        <ele>795.99755859375</ele>
        <time>2020-05-14T14:37:17Z</time>
      </trkpt>
      <trkpt lat="43.71944" lon="6.97864">
        <ele>794.13061523438</ele>
        <time>2020-05-14T14:37:18Z</time>
      </trkpt>
      <trkpt lat="43.71945" lon="6.97863">
        <ele>792.79748535156</ele>
        <time>2020-05-14T14:37:19Z</time>
      </trkpt>
      <trkpt lat="43.71947" lon="6.97862">
        <ele>792.04541015625</ele>
        <time>2020-05-14T14:37:20Z</time>
      </trkpt>
      <trkpt lat="43.71948" lon="6.9786">
        <ele>794.06665039062</ele>
        <time>2020-05-14T14:37:21Z</time>
      </trkpt>
      <trkpt lat="43.7195" lon="6.97858">
        <ele>792.9599609375</ele>
        <time>2020-05-14T14:37:22Z</time>
      </trkpt>
      <trkpt lat="43.71951" lon="6.97856">
        <ele>792.46899414062</ele>
        <time>2020-05-14T14:37:23Z</time>
      </trkpt>
      <trkpt lat="43.71953" lon="6.97854">
        <ele>792.05029296875</ele>
        <time>2020-05-14T14:37:24Z</time>
      </trkpt>
      <trkpt lat="43.71954" lon="6.97852">
        <ele>791.16357421875</ele>
        <time>2020-05-14T14:37:25Z</time>
      </trkpt>
      <trkpt lat="43.71955" lon="6.97851">
        <ele>791.07104492188</ele>
        <time>2020-05-14T14:37:26Z</time>
      </trkpt>
      <trkpt lat="43.71957" lon="6.9785">
        <ele>792.69519042969</ele>
        <time>2020-05-14T14:37:27Z</time>
      </trkpt>
      <trkpt lat="43.71958" lon="6.97849">
        <ele>792.44604492188</ele>
        <time>2020-05-14T14:37:28Z</time>
      </trkpt>
      <trkpt lat="43.71959" lon="6.97848">
        <ele>792.43640136719</ele>
        <time>2020-05-14T14:37:29Z</time>
      </trkpt>
      <trkpt lat="43.7196" lon="6.97847">
        <ele>792.0673828125</ele>
        <time>2020-05-14T14:37:30Z</time>
      </trkpt>
      <trkpt lat="43.7196" lon="6.97847">
        <ele>791.63696289062</ele>
        <time>2020-05-14T14:37:31Z</time>
      </trkpt>
      <trkpt lat="43.7196" lon="6.97848">
        <ele>792.04736328125</ele>
        <time>2020-05-14T14:37:32Z</time>
      </trkpt>
      <trkpt lat="43.7196" lon="6.97848">
        <ele>743.5419921875</ele>
        <time>2020-05-14T14:37:33Z</time>
      </trkpt>
      <trkpt lat="43.7196" lon="6.97848">
        <ele>744.60815429688</ele>
        <time>2020-05-14T14:37:34Z</time>
      </trkpt>
      <trkpt lat="43.71961" lon="6.97848">
        <ele>744.25537109375</ele>
        <time>2020-05-14T14:37:35Z</time>
      </trkpt>
      <trkpt lat="43.71962" lon="6.97848">
        <ele>741.44885253906</ele>
        <time>2020-05-14T14:37:36Z</time>
      </trkpt>
      <trkpt lat="43.71963" lon="6.97847">
        <ele>739.72827148438</ele>
        <time>2020-05-14T14:37:37Z</time>
      </trkpt>
      <trkpt lat="43.71965" lon="6.97847">
        <ele>748.119140625</ele>
        <time>2020-05-14T14:37:38Z</time>
      </trkpt>
      <trkpt lat="43.71967" lon="6.97847">
        <ele>790.30651855469</ele>
        <time>2020-05-14T14:37:39Z</time>
      </trkpt>
      <trkpt lat="43.71969" lon="6.97846">
        <ele>791.67358398438</ele>
        <time>2020-05-14T14:37:40Z</time>
      </trkpt>
      <trkpt lat="43.71971" lon="6.97846">
        <ele>791.71606445312</ele>
        <time>2020-05-14T14:37:41Z</time>
      </trkpt>
      <trkpt lat="43.71972" lon="6.97845">
        <ele>792.48046875</ele>
        <time>2020-05-14T14:37:42Z</time>
      </trkpt>
      <trkpt lat="43.71974" lon="6.97845">
        <ele>791.63366699219</ele>
        <time>2020-05-14T14:37:43Z</time>
      </trkpt>
      <trkpt lat="43.71974" lon="6.97843">
        <ele>791.80029296875</ele>
        <time>2020-05-14T14:37:44Z</time>
      </trkpt>
      <trkpt lat="43.71975" lon="6.97841">
        <ele>791.63366699219</ele>
        <time>2020-05-14T14:37:45Z</time>
      </trkpt>
      <trkpt lat="43.71975" lon="6.9784">
        <ele>791.43408203125</ele>
        <time>2020-05-14T14:37:46Z</time>
      </trkpt>
      <trkpt lat="43.71976" lon="6.9784">
        <ele>791.00708007812</ele>
        <time>2020-05-14T14:37:47Z</time>
      </trkpt>
      <trkpt lat="43.71978" lon="6.9784">
        <ele>790.27514648438</ele>
        <time>2020-05-14T14:37:48Z</time>
      </trkpt>
      <trkpt lat="43.71979" lon="6.97841">
        <ele>790.77612304688</ele>
        <time>2020-05-14T14:37:49Z</time>
      </trkpt>
      <trkpt lat="43.7198" lon="6.97843">
        <ele>790.56372070312</ele>
        <time>2020-05-14T14:37:50Z</time>
      </trkpt>
      <trkpt lat="43.71981" lon="6.97844">
        <ele>790.603515625</ele>
        <time>2020-05-14T14:37:51Z</time>
      </trkpt>
      <trkpt lat="43.71982" lon="6.97846">
        <ele>790.60607910156</ele>
        <time>2020-05-14T14:37:52Z</time>
      </trkpt>
      <trkpt lat="43.71983" lon="6.97847">
        <ele>743.87963867188</ele>
        <time>2020-05-14T14:37:53Z</time>
      </trkpt>
      <trkpt lat="43.71983" lon="6.97848">
        <ele>744.43408203125</ele>
        <time>2020-05-14T14:37:54Z</time>
      </trkpt>
      <trkpt lat="43.71983" lon="6.97849">
        <ele>736.38354492188</ele>
        <time>2020-05-14T14:37:55Z</time>
      </trkpt>
      <trkpt lat="43.71983" lon="6.97851">
        <ele>743.61499023438</ele>
        <time>2020-05-14T14:37:56Z</time>
      </trkpt>
      <trkpt lat="43.71983" lon="6.97852">
        <ele>736.68432617188</ele>
        <time>2020-05-14T14:37:57Z</time>
      </trkpt>
      <trkpt lat="43.71984" lon="6.97853">
        <ele>739.38391113281</ele>
        <time>2020-05-14T14:37:58Z</time>
      </trkpt>
      <trkpt lat="43.71985" lon="6.97853">
        <ele>738.154296875</ele>
        <time>2020-05-14T14:37:59Z</time>
      </trkpt>
      <trkpt lat="43.71986" lon="6.97853">
        <ele>734.9267578125</ele>
        <time>2020-05-14T14:38:00Z</time>
      </trkpt>
      <trkpt lat="43.71988" lon="6.97853">
        <ele>733.55541992188</ele>
        <time>2020-05-14T14:38:01Z</time>
      </trkpt>
      <trkpt lat="43.71989" lon="6.97853">
        <ele>736.28149414062</ele>
        <time>2020-05-14T14:38:02Z</time>
      </trkpt>
      <trkpt lat="43.71991" lon="6.97852">
        <ele>738.33996582031</ele>
        <time>2020-05-14T14:38:03Z</time>
      </trkpt>
      <trkpt lat="43.71993" lon="6.97852">
        <ele>740.17309570312</ele>
        <time>2020-05-14T14:38:04Z</time>
      </trkpt>
      <trkpt lat="43.71994" lon="6.97852">
        <ele>736.23608398438</ele>
        <time>2020-05-14T14:38:05Z</time>
      </trkpt>
      <trkpt lat="43.71995" lon="6.97853">
        <ele>731.78698730469</ele>
        <time>2020-05-14T14:38:06Z</time>
      </trkpt>
      <trkpt lat="43.71996" lon="6.97855">
        <ele>728.37915039062</ele>
        <time>2020-05-14T14:38:07Z</time>
      </trkpt>
      <trkpt lat="43.71997" lon="6.97857">
        <ele>739.43041992188</ele>
        <time>2020-05-14T14:38:08Z</time>
      </trkpt>
      <trkpt lat="43.71998" lon="6.97859">
        <ele>737.61962890625</ele>
        <time>2020-05-14T14:38:09Z</time>
      </trkpt>
      <trkpt lat="43.71999" lon="6.97862">
        <ele>730.26513671875</ele>
        <time>2020-05-14T14:38:10Z</time>
      </trkpt>
      <trkpt lat="43.72" lon="6.97864">
        <ele>724.01635742188</ele>
        <time>2020-05-14T14:38:11Z</time>
      </trkpt>
      <trkpt lat="43.72001" lon="6.97866">
        <ele>736.79711914062</ele>
        <time>2020-05-14T14:38:12Z</time>
      </trkpt>
      <trkpt lat="43.72002" lon="6.97866">
        <ele>736.88012695312</ele>
        <time>2020-05-14T14:38:13Z</time>
      </trkpt>
      <trkpt lat="43.72002" lon="6.97866">
        <ele>730.05493164062</ele>
        <time>2020-05-14T14:38:14Z</time>
      </trkpt>
      <trkpt lat="43.72002" lon="6.97865">
        <ele>728.01025390625</ele>
        <time>2020-05-14T14:38:15Z</time>
      </trkpt>
      <trkpt lat="43.72003" lon="6.97864">
        <ele>727.14892578125</ele>
        <time>2020-05-14T14:38:16Z</time>
      </trkpt>
      <trkpt lat="43.72005" lon="6.97863">
        <ele>727.36730957031</ele>
        <time>2020-05-14T14:38:17Z</time>
      </trkpt>
      <trkpt lat="43.72007" lon="6.97863">
        <ele>725.61938476562</ele>
        <time>2020-05-14T14:38:18Z</time>
      </trkpt>
      <trkpt lat="43.72009" lon="6.97862">
        <ele>736.06713867188</ele>
        <time>2020-05-14T14:38:19Z</time>
      </trkpt>
      <trkpt lat="43.72011" lon="6.97861">
        <ele>737.35473632812</ele>
        <time>2020-05-14T14:38:20Z</time>
      </trkpt>
      <trkpt lat="43.72013" lon="6.9786">
        <ele>738.74633789062</ele>
        <time>2020-05-14T14:38:21Z</time>
      </trkpt>
      <trkpt lat="43.72015" lon="6.97859">
        <ele>728.98449707031</ele>
        <time>2020-05-14T14:38:22Z</time>
      </trkpt>
      <trkpt lat="43.72018" lon="6.97858">
        <ele>730.32580566406</ele>
        <time>2020-05-14T14:38:23Z</time>
      </trkpt>
      <trkpt lat="43.7202" lon="6.97858">
        <ele>743.92114257812</ele>
        <time>2020-05-14T14:38:24Z</time>
      </trkpt>
      <trkpt lat="43.72023" lon="6.97859">
        <ele>740.92993164062</ele>
        <time>2020-05-14T14:38:25Z</time>
      </trkpt>
      <trkpt lat="43.72026" lon="6.97859">
        <ele>738.1767578125</ele>
        <time>2020-05-14T14:38:26Z</time>
      </trkpt>
      <trkpt lat="43.72028" lon="6.97859">
        <ele>739.4716796875</ele>
        <time>2020-05-14T14:38:27Z</time>
      </trkpt>
      <trkpt lat="43.72031" lon="6.97859">
        <ele>729.50927734375</ele>
        <time>2020-05-14T14:38:28Z</time>
      </trkpt>
      <trkpt lat="43.72034" lon="6.9786">
        <ele>728.46337890625</ele>
        <time>2020-05-14T14:38:29Z</time>
      </trkpt>
      <trkpt lat="43.72038" lon="6.9786">
        <ele>747.98657226562</ele>
        <time>2020-05-14T14:38:30Z</time>
      </trkpt>
      <trkpt lat="43.72041" lon="6.9786">
        <ele>743.25427246094</ele>
        <time>2020-05-14T14:38:31Z</time>
      </trkpt>
      <trkpt lat="43.72043" lon="6.97859">
        <ele>739.59130859375</ele>
        <time>2020-05-14T14:38:32Z</time>
      </trkpt>
      <trkpt lat="43.72044" lon="6.97855">
        <ele>737.92163085938</ele>
        <time>2020-05-14T14:38:33Z</time>
      </trkpt>
      <trkpt lat="43.72044" lon="6.97851">
        <ele>749.91552734375</ele>
        <time>2020-05-14T14:38:34Z</time>
      </trkpt>
      <trkpt lat="43.72043" lon="6.97847">
        <ele>746.12878417969</ele>
        <time>2020-05-14T14:38:35Z</time>
      </trkpt>
      <trkpt lat="43.72043" lon="6.97844">
        <ele>743.77587890625</ele>
        <time>2020-05-14T14:38:36Z</time>
      </trkpt>
      <trkpt lat="43.72041" lon="6.97844">
        <ele>734.88525390625</ele>
        <time>2020-05-14T14:38:37Z</time>
      </trkpt>
      <trkpt lat="43.72039" lon="6.97844">
        <ele>733.896484375</ele>
        <time>2020-05-14T14:38:38Z</time>
      </trkpt>
      <trkpt lat="43.72039" lon="6.97844">
        <ele>733.97338867188</ele>
        <time>2020-05-14T14:38:39Z</time>
      </trkpt>
      <trkpt lat="43.72038" lon="6.97844">
        <ele>736.25219726562</ele>
        <time>2020-05-14T14:38:40Z</time>
      </trkpt>
      <trkpt lat="43.72038" lon="6.97843">
        <ele>734.3212890625</ele>
        <time>2020-05-14T14:38:41Z</time>
      </trkpt>
      <trkpt lat="43.72037" lon="6.97843">
        <ele>734.98657226562</ele>
        <time>2020-05-14T14:38:42Z</time>
      </trkpt>
      <trkpt lat="43.72037" lon="6.97843">
        <ele>748.36389160156</ele>
        <time>2020-05-14T14:38:43Z</time>
      </trkpt>
      <trkpt lat="43.72037" lon="6.97844">
        <ele>746.77661132812</ele>
        <time>2020-05-14T14:38:44Z</time>
      </trkpt>
      <trkpt lat="43.72038" lon="6.97844">
        <ele>746.82043457031</ele>
        <time>2020-05-14T14:38:45Z</time>
      </trkpt>
      <trkpt lat="43.72038" lon="6.97844">
        <ele>748.474609375</ele>
        <time>2020-05-14T14:38:46Z</time>
      </trkpt>
      <trkpt lat="43.72038" lon="6.97844">
        <ele>749.60083007812</ele>
        <time>2020-05-14T14:38:47Z</time>
      </trkpt>
      <trkpt lat="43.72038" lon="6.97844">
        <ele>747.04504394531</ele>
        <time>2020-05-14T14:38:48Z</time>
      </trkpt>
      <trkpt lat="43.72038" lon="6.97844">
        <ele>745.83374023438</ele>
        <time>2020-05-14T14:38:49Z</time>
      </trkpt>
      <trkpt lat="43.72038" lon="6.97844">
        <ele>744.75952148438</ele>
        <time>2020-05-14T14:38:50Z</time>
      </trkpt>
      <trkpt lat="43.72038" lon="6.97844">
        <ele>747.34704589844</ele>
        <time>2020-05-14T14:38:51Z</time>
      </trkpt>
      <trkpt lat="43.72038" lon="6.97844">
        <ele>748.75512695312</ele>
        <time>2020-05-14T14:38:52Z</time>
      </trkpt>
      <trkpt lat="43.72038" lon="6.97844">
        <ele>753.01306152344</ele>
        <time>2020-05-14T14:38:53Z</time>
      </trkpt>
      <trkpt lat="43.72038" lon="6.97844">
        <ele>751.3134765625</ele>
        <time>2020-05-14T14:38:54Z</time>
      </trkpt>
      <trkpt lat="43.72038" lon="6.97844">
        <ele>742.20617675781</ele>
        <time>2020-05-14T14:38:55Z</time>
      </trkpt>
      <trkpt lat="43.72038" lon="6.97844">
        <ele>739.42431640625</ele>
        <time>2020-05-14T14:38:56Z</time>
      </trkpt>
      <trkpt lat="43.72038" lon="6.97844">
        <ele>741.11547851562</ele>
        <time>2020-05-14T14:38:57Z</time>
      </trkpt>
      <trkpt lat="43.72038" lon="6.97843">
        <ele>737.80810546875</ele>
        <time>2020-05-14T14:38:58Z</time>
      </trkpt>
      <trkpt lat="43.72038" lon="6.97843">
        <ele>748.18481445312</ele>
        <time>2020-05-14T14:38:59Z</time>
      </trkpt>
      <trkpt lat="43.72038" lon="6.97843">
        <ele>742.29479980469</ele>
        <time>2020-05-14T14:39:00Z</time>
      </trkpt>
      <trkpt lat="43.72038" lon="6.97842">
        <ele>738.94201660156</ele>
        <time>2020-05-14T14:39:01Z</time>
      </trkpt>
      <trkpt lat="43.72038" lon="6.97842">
        <ele>737.98767089844</ele>
        <time>2020-05-14T14:39:02Z</time>
      </trkpt>
      <trkpt lat="43.72038" lon="6.97843">
        <ele>736.12084960938</ele>
        <time>2020-05-14T14:39:03Z</time>
      </trkpt>
      <trkpt lat="43.72039" lon="6.97842">
        <ele>736.28393554688</ele>
        <time>2020-05-14T14:39:04Z</time>
      </trkpt>
      <trkpt lat="43.72041" lon="6.9784">
        <ele>735.5791015625</ele>
        <time>2020-05-14T14:39:05Z</time>
      </trkpt>
      <trkpt lat="43.72042" lon="6.97837">
        <ele>734.37768554688</ele>
        <time>2020-05-14T14:39:06Z</time>
      </trkpt>
      <trkpt lat="43.72044" lon="6.97833">
        <ele>735.00463867188</ele>
        <time>2020-05-14T14:39:07Z</time>
      </trkpt>
      <trkpt lat="43.72047" lon="6.9783">
        <ele>734.76965332031</ele>
        <time>2020-05-14T14:39:08Z</time>
      </trkpt>
      <trkpt lat="43.72053" lon="6.97825">
        <ele>733.88720703125</ele>
        <time>2020-05-14T14:39:09Z</time>
      </trkpt>
      <trkpt lat="43.72057" lon="6.97821">
        <ele>732.328125</ele>
        <time>2020-05-14T14:39:10Z</time>
      </trkpt>
      <trkpt lat="43.72062" lon="6.97816">
        <ele>731.18383789062</ele>
        <time>2020-05-14T14:39:11Z</time>
      </trkpt>
      <trkpt lat="43.72065" lon="6.9781">
        <ele>729.03076171875</ele>
        <time>2020-05-14T14:39:12Z</time>
      </trkpt>
      <trkpt lat="43.72071" lon="6.97805">
        <ele>723.56030273438</ele>
        <time>2020-05-14T14:39:13Z</time>
      </trkpt>
      <trkpt lat="43.72078" lon="6.97798">
        <ele>723.51831054688</ele>
        <time>2020-05-14T14:39:14Z</time>
      </trkpt>
      <trkpt lat="43.72084" lon="6.97792">
        <ele>723.25756835938</ele>
        <time>2020-05-14T14:39:15Z</time>
      </trkpt>
      <trkpt lat="43.7209" lon="6.97785">
        <ele>722.53979492188</ele>
        <time>2020-05-14T14:39:16Z</time>
      </trkpt>
      <trkpt lat="43.72095" lon="6.97779">
        <ele>722.11694335938</ele>
        <time>2020-05-14T14:39:17Z</time>
      </trkpt>
      <trkpt lat="43.721" lon="6.9777">
        <ele>721.462890625</ele>
        <time>2020-05-14T14:39:18Z</time>
      </trkpt>
      <trkpt lat="43.72106" lon="6.97761">
        <ele>731.22900390625</ele>
        <time>2020-05-14T14:39:19Z</time>
      </trkpt>
      <trkpt lat="43.72112" lon="6.97753">
        <ele>731.0927734375</ele>
        <time>2020-05-14T14:39:20Z</time>
      </trkpt>
      <trkpt lat="43.72117" lon="6.97744">
        <ele>730.45324707031</ele>
        <time>2020-05-14T14:39:21Z</time>
      </trkpt>
      <trkpt lat="43.7212" lon="6.97737">
        <ele>734.05651855469</ele>
        <time>2020-05-14T14:39:22Z</time>
      </trkpt>
      <trkpt lat="43.72123" lon="6.97731">
        <ele>738.86389160156</ele>
        <time>2020-05-14T14:39:23Z</time>
      </trkpt>
      <trkpt lat="43.72126" lon="6.97724">
        <ele>743.65234375</ele>
        <time>2020-05-14T14:39:24Z</time>
      </trkpt>
      <trkpt lat="43.72128" lon="6.97718">
        <ele>741.95727539062</ele>
        <time>2020-05-14T14:39:25Z</time>
      </trkpt>
      <trkpt lat="43.72129" lon="6.97712">
        <ele>742.11206054688</ele>
        <time>2020-05-14T14:39:26Z</time>
      </trkpt>
      <trkpt lat="43.72131" lon="6.97703">
        <ele>744.953125</ele>
        <time>2020-05-14T14:39:27Z</time>
      </trkpt>
      <trkpt lat="43.7213" lon="6.97696">
        <ele>742.82397460938</ele>
        <time>2020-05-14T14:39:28Z</time>
      </trkpt>
      <trkpt lat="43.72126" lon="6.9769">
        <ele>741.66040039062</ele>
        <time>2020-05-14T14:39:29Z</time>
      </trkpt>
      <trkpt lat="43.72121" lon="6.97686">
        <ele>739.83813476562</ele>
        <time>2020-05-14T14:39:30Z</time>
      </trkpt>
      <trkpt lat="43.72115" lon="6.97683">
        <ele>733.25122070312</ele>
        <time>2020-05-14T14:39:31Z</time>
      </trkpt>
      <trkpt lat="43.7211" lon="6.9768">
        <ele>731.40161132812</ele>
        <time>2020-05-14T14:39:32Z</time>
      </trkpt>
      <trkpt lat="43.72106" lon="6.97674">
        <ele>742.5927734375</ele>
        <time>2020-05-14T14:39:33Z</time>
      </trkpt>
      <trkpt lat="43.72103" lon="6.97665">
        <ele>738.94348144531</ele>
        <time>2020-05-14T14:39:34Z</time>
      </trkpt>
      <trkpt lat="43.72102" lon="6.97655">
        <ele>742.86340332031</ele>
        <time>2020-05-14T14:39:35Z</time>
      </trkpt>
      <trkpt lat="43.72103" lon="6.97644">
        <ele>741.37329101562</ele>
        <time>2020-05-14T14:39:36Z</time>
      </trkpt>
      <trkpt lat="43.72107" lon="6.97634">
        <ele>742.41271972656</ele>
        <time>2020-05-14T14:39:37Z</time>
      </trkpt>
      <trkpt lat="43.72113" lon="6.97625">
        <ele>744.0439453125</ele>
        <time>2020-05-14T14:39:38Z</time>
      </trkpt>
      <trkpt lat="43.72119" lon="6.97616">
        <ele>742.93505859375</ele>
        <time>2020-05-14T14:39:39Z</time>
      </trkpt>
      <trkpt lat="43.72124" lon="6.97606">
        <ele>742.19189453125</ele>
        <time>2020-05-14T14:39:40Z</time>
      </trkpt>
      <trkpt lat="43.72125" lon="6.97594">
        <ele>743.52954101562</ele>
        <time>2020-05-14T14:39:41Z</time>
      </trkpt>
      <trkpt lat="43.72126" lon="6.97583">
        <ele>740.46215820312</ele>
        <time>2020-05-14T14:39:42Z</time>
      </trkpt>
      <trkpt lat="43.72123" lon="6.97571">
        <ele>742.1337890625</ele>
        <time>2020-05-14T14:39:43Z</time>
      </trkpt>
      <trkpt lat="43.72118" lon="6.97564">
        <ele>741.24462890625</ele>
        <time>2020-05-14T14:39:44Z</time>
      </trkpt>
      <trkpt lat="43.7211" lon="6.97558">
        <ele>740.80590820312</ele>
        <time>2020-05-14T14:39:45Z</time>
      </trkpt>
      <trkpt lat="43.72102" lon="6.97554">
        <ele>738.87377929688</ele>
        <time>2020-05-14T14:39:46Z</time>
      </trkpt>
      <trkpt lat="43.72093" lon="6.9755">
        <ele>735.57666015625</ele>
        <time>2020-05-14T14:39:47Z</time>
      </trkpt>
      <trkpt lat="43.72086" lon="6.97544">
        <ele>735.36633300781</ele>
        <time>2020-05-14T14:39:48Z</time>
      </trkpt>
      <trkpt lat="43.72079" lon="6.97535">
        <ele>733.64721679688</ele>
        <time>2020-05-14T14:39:49Z</time>
      </trkpt>
      <trkpt lat="43.72074" lon="6.97524">
        <ele>732.34838867188</ele>
        <time>2020-05-14T14:39:50Z</time>
      </trkpt>
      <trkpt lat="43.72069" lon="6.97512">
        <ele>729.07861328125</ele>
        <time>2020-05-14T14:39:51Z</time>
      </trkpt>
      <trkpt lat="43.72068" lon="6.97499">
        <ele>727.78283691406</ele>
        <time>2020-05-14T14:39:52Z</time>
      </trkpt>
      <trkpt lat="43.72066" lon="6.97487">
        <ele>726.625</ele>
        <time>2020-05-14T14:39:53Z</time>
      </trkpt>
      <trkpt lat="43.72063" lon="6.97474">
        <ele>726.78271484375</ele>
        <time>2020-05-14T14:39:54Z</time>
      </trkpt>
      <trkpt lat="43.72061" lon="6.97461">
        <ele>727.11376953125</ele>
        <time>2020-05-14T14:39:55Z</time>
      </trkpt>
      <trkpt lat="43.7206" lon="6.97449">
        <ele>726.50646972656</ele>
        <time>2020-05-14T14:39:56Z</time>
      </trkpt>
      <trkpt lat="43.7206" lon="6.97435">
        <ele>725.96630859375</ele>
        <time>2020-05-14T14:39:57Z</time>
      </trkpt>
      <trkpt lat="43.72061" lon="6.97421">
        <ele>726.22253417969</ele>
        <time>2020-05-14T14:39:58Z</time>
      </trkpt>
      <trkpt lat="43.72064" lon="6.97408">
        <ele>726.96606445312</ele>
        <time>2020-05-14T14:39:59Z</time>
      </trkpt>
      <trkpt lat="43.72067" lon="6.97395">
        <ele>725.60107421875</ele>
        <time>2020-05-14T14:40:00Z</time>
      </trkpt>
      <trkpt lat="43.72069" lon="6.97381">
        <ele>725.56591796875</ele>
        <time>2020-05-14T14:40:01Z</time>
      </trkpt>
      <trkpt lat="43.72069" lon="6.97367">
        <ele>727.9794921875</ele>
        <time>2020-05-14T14:40:02Z</time>
      </trkpt>
      <trkpt lat="43.72068" lon="6.97352">
        <ele>728.0625</ele>
        <time>2020-05-14T14:40:03Z</time>
      </trkpt>
      <trkpt lat="43.72068" lon="6.97337">
        <ele>723.66906738281</ele>
        <time>2020-05-14T14:40:04Z</time>
      </trkpt>
      <trkpt lat="43.72066" lon="6.97323">
        <ele>722.35986328125</ele>
        <time>2020-05-14T14:40:05Z</time>
      </trkpt>
      <trkpt lat="43.72061" lon="6.97309">
        <ele>721.82263183594</ele>
        <time>2020-05-14T14:40:06Z</time>
      </trkpt>
      <trkpt lat="43.72055" lon="6.97296">
        <ele>721.63623046875</ele>
        <time>2020-05-14T14:40:07Z</time>
      </trkpt>
      <trkpt lat="43.7205" lon="6.97284">
        <ele>729.1650390625</ele>
        <time>2020-05-14T14:40:08Z</time>
      </trkpt>
      <trkpt lat="43.72045" lon="6.9727">
        <ele>727.24536132812</ele>
        <time>2020-05-14T14:40:09Z</time>
      </trkpt>
      <trkpt lat="43.72043" lon="6.97256">
        <ele>726.06860351562</ele>
        <time>2020-05-14T14:40:10Z</time>
      </trkpt>
      <trkpt lat="43.72038" lon="6.97239">
        <ele>722.44921875</ele>
        <time>2020-05-14T14:40:11Z</time>
      </trkpt>
      <trkpt lat="43.72039" lon="6.97224">
        <ele>722.48095703125</ele>
        <time>2020-05-14T14:40:12Z</time>
      </trkpt>
      <trkpt lat="43.72041" lon="6.97209">
        <ele>729.970703125</ele>
        <time>2020-05-14T14:40:13Z</time>
      </trkpt>
      <trkpt lat="43.72044" lon="6.97192">
        <ele>731.61010742188</ele>
        <time>2020-05-14T14:40:14Z</time>
      </trkpt>
      <trkpt lat="43.72046" lon="6.97176">
        <ele>730.85607910156</ele>
        <time>2020-05-14T14:40:15Z</time>
      </trkpt>
      <trkpt lat="43.72047" lon="6.97161">
        <ele>731.103515625</ele>
        <time>2020-05-14T14:40:16Z</time>
      </trkpt>
      <trkpt lat="43.72046" lon="6.97145">
        <ele>730.65258789062</ele>
        <time>2020-05-14T14:40:17Z</time>
      </trkpt>
      <trkpt lat="43.72044" lon="6.97129">
        <ele>730.50366210938</ele>
        <time>2020-05-14T14:40:18Z</time>
      </trkpt>
      <trkpt lat="43.72039" lon="6.97112">
        <ele>729.13793945312</ele>
        <time>2020-05-14T14:40:19Z</time>
      </trkpt>
      <trkpt lat="43.72036" lon="6.97096">
        <ele>728.64794921875</ele>
        <time>2020-05-14T14:40:20Z</time>
      </trkpt>
      <trkpt lat="43.72031" lon="6.9708">
        <ele>728.50634765625</ele>
        <time>2020-05-14T14:40:21Z</time>
      </trkpt>
      <trkpt lat="43.72025" lon="6.97066">
        <ele>728.25073242188</ele>
        <time>2020-05-14T14:40:22Z</time>
      </trkpt>
      <trkpt lat="43.72018" lon="6.97054">
        <ele>727.79309082031</ele>
        <time>2020-05-14T14:40:23Z</time>
      </trkpt>
      <trkpt lat="43.7201" lon="6.97042">
        <ele>727.44213867188</ele>
        <time>2020-05-14T14:40:24Z</time>
      </trkpt>
      <trkpt lat="43.72002" lon="6.9703">
        <ele>726.68444824219</ele>
        <time>2020-05-14T14:40:25Z</time>
      </trkpt>
      <trkpt lat="43.71997" lon="6.97017">
        <ele>727.20922851562</ele>
        <time>2020-05-14T14:40:26Z</time>
      </trkpt>
      <trkpt lat="43.71994" lon="6.97002">
        <ele>727.259765625</ele>
        <time>2020-05-14T14:40:27Z</time>
      </trkpt>
      <trkpt lat="43.71993" lon="6.96987">
        <ele>727.2861328125</ele>
        <time>2020-05-14T14:40:28Z</time>
      </trkpt>
      <trkpt lat="43.7199" lon="6.96973">
        <ele>727.3818359375</ele>
        <time>2020-05-14T14:40:29Z</time>
      </trkpt>
      <trkpt lat="43.71987" lon="6.96959">
        <ele>728.20751953125</ele>
        <time>2020-05-14T14:40:30Z</time>
      </trkpt>
      <trkpt lat="43.71982" lon="6.96944">
        <ele>726.16943359375</ele>
        <time>2020-05-14T14:40:31Z</time>
      </trkpt>
      <trkpt lat="43.71979" lon="6.96931">
        <ele>726.61328125</ele>
        <time>2020-05-14T14:40:32Z</time>
      </trkpt>
      <trkpt lat="43.71979" lon="6.96918">
        <ele>726.53857421875</ele>
        <time>2020-05-14T14:40:33Z</time>
      </trkpt>
      <trkpt lat="43.71978" lon="6.96904">
        <ele>724.93872070312</ele>
        <time>2020-05-14T14:40:34Z</time>
      </trkpt>
      <trkpt lat="43.71982" lon="6.96892">
        <ele>724.10180664062</ele>
        <time>2020-05-14T14:40:35Z</time>
      </trkpt>
      <trkpt lat="43.7199" lon="6.96882">
        <ele>723.80224609375</ele>
        <time>2020-05-14T14:40:36Z</time>
      </trkpt>
      <trkpt lat="43.71998" lon="6.96873">
        <ele>724.00610351562</ele>
        <time>2020-05-14T14:40:37Z</time>
      </trkpt>
      <trkpt lat="43.72007" lon="6.96866">
        <ele>724.146484375</ele>
        <time>2020-05-14T14:40:38Z</time>
      </trkpt>
      <trkpt lat="43.72017" lon="6.96859">
        <ele>724.23046875</ele>
        <time>2020-05-14T14:40:39Z</time>
      </trkpt>
      <trkpt lat="43.72026" lon="6.96853">
        <ele>724.060546875</ele>
        <time>2020-05-14T14:40:40Z</time>
      </trkpt>
      <trkpt lat="43.72035" lon="6.96847">
        <ele>723.79614257812</ele>
        <time>2020-05-14T14:40:41Z</time>
      </trkpt>
      <trkpt lat="43.72045" lon="6.96838">
        <ele>723.87353515625</ele>
        <time>2020-05-14T14:40:42Z</time>
      </trkpt>
      <trkpt lat="43.72053" lon="6.9683">
        <ele>723.4228515625</ele>
        <time>2020-05-14T14:40:43Z</time>
      </trkpt>
      <trkpt lat="43.72061" lon="6.96821">
        <ele>723.57006835938</ele>
        <time>2020-05-14T14:40:44Z</time>
      </trkpt>
      <trkpt lat="43.72071" lon="6.96812">
        <ele>723.79418945312</ele>
        <time>2020-05-14T14:40:45Z</time>
      </trkpt>
      <trkpt lat="43.7208" lon="6.96806">
        <ele>723.92504882812</ele>
        <time>2020-05-14T14:40:46Z</time>
      </trkpt>
      <trkpt lat="43.72087" lon="6.96799">
        <ele>723.396484375</ele>
        <time>2020-05-14T14:40:47Z</time>
      </trkpt>
      <trkpt lat="43.72093" lon="6.96789">
        <ele>723.23657226562</ele>
        <time>2020-05-14T14:40:48Z</time>
      </trkpt>
      <trkpt lat="43.72097" lon="6.9678">
        <ele>723.2294921875</ele>
        <time>2020-05-14T14:40:49Z</time>
      </trkpt>
      <trkpt lat="43.72098" lon="6.96768">
        <ele>723.2509765625</ele>
        <time>2020-05-14T14:40:50Z</time>
      </trkpt>
      <trkpt lat="43.72097" lon="6.96759">
        <ele>723.23303222656</ele>
        <time>2020-05-14T14:40:51Z</time>
      </trkpt>
      <trkpt lat="43.72094" lon="6.9675">
        <ele>722.69970703125</ele>
        <time>2020-05-14T14:40:52Z</time>
      </trkpt>
      <trkpt lat="43.7209" lon="6.9674">
        <ele>722.7265625</ele>
        <time>2020-05-14T14:40:53Z</time>
      </trkpt>
      <trkpt lat="43.72084" lon="6.96737">
        <ele>723.14111328125</ele>
        <time>2020-05-14T14:40:54Z</time>
      </trkpt>
      <trkpt lat="43.72077" lon="6.96737">
        <ele>723.3134765625</ele>
        <time>2020-05-14T14:40:55Z</time>
      </trkpt>
      <trkpt lat="43.7207" lon="6.96736">
        <ele>723.60852050781</ele>
        <time>2020-05-14T14:40:56Z</time>
      </trkpt>
      <trkpt lat="43.72064" lon="6.9674">
        <ele>722.97412109375</ele>
        <time>2020-05-14T14:40:57Z</time>
      </trkpt>
      <trkpt lat="43.72056" lon="6.96744">
        <ele>722.97290039062</ele>
        <time>2020-05-14T14:40:58Z</time>
      </trkpt>
      <trkpt lat="43.72048" lon="6.96746">
        <ele>722.51159667969</ele>
        <time>2020-05-14T14:40:59Z</time>
      </trkpt>
      <trkpt lat="43.7204" lon="6.96747">
        <ele>721.8515625</ele>
        <time>2020-05-14T14:41:00Z</time>
      </trkpt>
      <trkpt lat="43.72032" lon="6.96746">
        <ele>721.23193359375</ele>
        <time>2020-05-14T14:41:01Z</time>
      </trkpt>
      <trkpt lat="43.72024" lon="6.96744">
        <ele>721.46240234375</ele>
        <time>2020-05-14T14:41:02Z</time>
      </trkpt>
      <trkpt lat="43.72016" lon="6.96741">
        <ele>722.14147949219</ele>
        <time>2020-05-14T14:41:03Z</time>
      </trkpt>
      <trkpt lat="43.72007" lon="6.96736">
        <ele>721.49975585938</ele>
        <time>2020-05-14T14:41:04Z</time>
      </trkpt>
      <trkpt lat="43.72" lon="6.96731">
        <ele>720.76318359375</ele>
        <time>2020-05-14T14:41:05Z</time>
      </trkpt>
      <trkpt lat="43.71993" lon="6.96725">
        <ele>719.33862304688</ele>
        <time>2020-05-14T14:41:06Z</time>
      </trkpt>
      <trkpt lat="43.71985" lon="6.96719">
        <ele>718.23107910156</ele>
        <time>2020-05-14T14:41:07Z</time>
      </trkpt>
      <trkpt lat="43.71979" lon="6.96711">
        <ele>718.75048828125</ele>
        <time>2020-05-14T14:41:08Z</time>
      </trkpt>
      <trkpt lat="43.71972" lon="6.96706">
        <ele>719.462890625</ele>
        <time>2020-05-14T14:41:09Z</time>
      </trkpt>
      <trkpt lat="43.71964" lon="6.967">
        <ele>719.98510742188</ele>
        <time>2020-05-14T14:41:10Z</time>
      </trkpt>
      <trkpt lat="43.71958" lon="6.96695">
        <ele>719.82421875</ele>
        <time>2020-05-14T14:41:11Z</time>
      </trkpt>
      <trkpt lat="43.71951" lon="6.96688">
        <ele>720.45776367188</ele>
        <time>2020-05-14T14:41:12Z</time>
      </trkpt>
      <trkpt lat="43.71943" lon="6.96684">
        <ele>721.060546875</ele>
        <time>2020-05-14T14:41:13Z</time>
      </trkpt>
      <trkpt lat="43.71936" lon="6.9668">
        <ele>720.51879882812</ele>
        <time>2020-05-14T14:41:14Z</time>
      </trkpt>
      <trkpt lat="43.71928" lon="6.96676">
        <ele>720.38916015625</ele>
        <time>2020-05-14T14:41:15Z</time>
      </trkpt>
      <trkpt lat="43.71919" lon="6.96677">
        <ele>720.28784179688</ele>
        <time>2020-05-14T14:41:16Z</time>
      </trkpt>
      <trkpt lat="43.71911" lon="6.96681">
        <ele>720.32739257812</ele>
        <time>2020-05-14T14:41:17Z</time>
      </trkpt>
      <trkpt lat="43.71904" lon="6.96687">
        <ele>719.64794921875</ele>
        <time>2020-05-14T14:41:18Z</time>
      </trkpt>
      <trkpt lat="43.71899" lon="6.96696">
        <ele>718.87084960938</ele>
        <time>2020-05-14T14:41:19Z</time>
      </trkpt>
      <trkpt lat="43.71893" lon="6.96706">
        <ele>718.21704101562</ele>
        <time>2020-05-14T14:41:20Z</time>
      </trkpt>
      <trkpt lat="43.71888" lon="6.96717">
        <ele>717.92907714844</ele>
        <time>2020-05-14T14:41:21Z</time>
      </trkpt>
      <trkpt lat="43.71883" lon="6.96728">
        <ele>716.9189453125</ele>
        <time>2020-05-14T14:41:22Z</time>
      </trkpt>
      <trkpt lat="43.71879" lon="6.96739">
        <ele>715.94921875</ele>
        <time>2020-05-14T14:41:23Z</time>
      </trkpt>
      <trkpt lat="43.71874" lon="6.9675">
        <ele>716.28002929688</ele>
        <time>2020-05-14T14:41:24Z</time>
      </trkpt>
      <trkpt lat="43.71868" lon="6.9676">
        <ele>716.02893066406</ele>
        <time>2020-05-14T14:41:25Z</time>
      </trkpt>
      <trkpt lat="43.71863" lon="6.96772">
        <ele>717.42358398438</ele>
        <time>2020-05-14T14:41:26Z</time>
      </trkpt>
      <trkpt lat="43.71858" lon="6.96782">
        <ele>717.34423828125</ele>
        <time>2020-05-14T14:41:27Z</time>
      </trkpt>
      <trkpt lat="43.71852" lon="6.96792">
        <ele>719.46166992188</ele>
        <time>2020-05-14T14:41:28Z</time>
      </trkpt>
      <trkpt lat="43.71845" lon="6.968">
        <ele>718.57788085938</ele>
        <time>2020-05-14T14:41:29Z</time>
      </trkpt>
      <trkpt lat="43.71838" lon="6.96808">
        <ele>717.79296875</ele>
        <time>2020-05-14T14:41:30Z</time>
      </trkpt>
      <trkpt lat="43.71832" lon="6.96816">
        <ele>717.59643554688</ele>
        <time>2020-05-14T14:41:31Z</time>
      </trkpt>
      <trkpt lat="43.71825" lon="6.96824">
        <ele>716.78833007812</ele>
        <time>2020-05-14T14:41:32Z</time>
      </trkpt>
      <trkpt lat="43.71819" lon="6.96834">
        <ele>720.130859375</ele>
        <time>2020-05-14T14:41:33Z</time>
      </trkpt>
      <trkpt lat="43.71815" lon="6.96844">
        <ele>719.98754882812</ele>
        <time>2020-05-14T14:41:34Z</time>
      </trkpt>
      <trkpt lat="43.71811" lon="6.96856">
        <ele>715.025390625</ele>
        <time>2020-05-14T14:41:35Z</time>
      </trkpt>
      <trkpt lat="43.71809" lon="6.96868">
        <ele>716.2666015625</ele>
        <time>2020-05-14T14:41:36Z</time>
      </trkpt>
      <trkpt lat="43.71809" lon="6.96881">
        <ele>716.09240722656</ele>
        <time>2020-05-14T14:41:37Z</time>
      </trkpt>
      <trkpt lat="43.7181" lon="6.96893">
        <ele>717.20434570312</ele>
        <time>2020-05-14T14:41:38Z</time>
      </trkpt>
      <trkpt lat="43.71808" lon="6.96904">
        <ele>717.07336425781</ele>
        <time>2020-05-14T14:41:39Z</time>
      </trkpt>
      <trkpt lat="43.71808" lon="6.96915">
        <ele>716.52685546875</ele>
        <time>2020-05-14T14:41:40Z</time>
      </trkpt>
      <trkpt lat="43.71806" lon="6.96926">
        <ele>717.69848632812</ele>
        <time>2020-05-14T14:41:41Z</time>
      </trkpt>
      <trkpt lat="43.71805" lon="6.96936">
        <ele>719.328125</ele>
        <time>2020-05-14T14:41:42Z</time>
      </trkpt>
      <trkpt lat="43.71803" lon="6.96945">
        <ele>719.17651367188</ele>
        <time>2020-05-14T14:41:43Z</time>
      </trkpt>
      <trkpt lat="43.71801" lon="6.96954">
        <ele>719.71459960938</ele>
        <time>2020-05-14T14:41:44Z</time>
      </trkpt>
      <trkpt lat="43.71799" lon="6.96963">
        <ele>719.7060546875</ele>
        <time>2020-05-14T14:41:45Z</time>
      </trkpt>
      <trkpt lat="43.71797" lon="6.96971">
        <ele>719.26403808594</ele>
        <time>2020-05-14T14:41:46Z</time>
      </trkpt>
      <trkpt lat="43.71794" lon="6.96979">
        <ele>719.62670898438</ele>
        <time>2020-05-14T14:41:47Z</time>
      </trkpt>
      <trkpt lat="43.71791" lon="6.96986">
        <ele>719.67431640625</ele>
        <time>2020-05-14T14:41:48Z</time>
      </trkpt>
      <trkpt lat="43.71787" lon="6.96993">
        <ele>719.76013183594</ele>
        <time>2020-05-14T14:41:49Z</time>
      </trkpt>
      <trkpt lat="43.71784" lon="6.97002">
        <ele>719.72998046875</ele>
        <time>2020-05-14T14:41:50Z</time>
      </trkpt>
      <trkpt lat="43.71781" lon="6.97011">
        <ele>719.62109375</ele>
        <time>2020-05-14T14:41:51Z</time>
      </trkpt>
      <trkpt lat="43.71779" lon="6.97019">
        <ele>719.12622070312</ele>
        <time>2020-05-14T14:41:52Z</time>
      </trkpt>
      <trkpt lat="43.71777" lon="6.97028">
        <ele>718.45288085938</ele>
        <time>2020-05-14T14:41:53Z</time>
      </trkpt>
      <trkpt lat="43.71776" lon="6.97036">
        <ele>717.92504882812</ele>
        <time>2020-05-14T14:41:54Z</time>
      </trkpt>
      <trkpt lat="43.71777" lon="6.97045">
        <ele>717.95458984375</ele>
        <time>2020-05-14T14:41:55Z</time>
      </trkpt>
      <trkpt lat="43.71777" lon="6.97055">
        <ele>718.28784179688</ele>
        <time>2020-05-14T14:41:56Z</time>
      </trkpt>
      <trkpt lat="43.71777" lon="6.97065">
        <ele>716.91796875</ele>
        <time>2020-05-14T14:41:57Z</time>
      </trkpt>
      <trkpt lat="43.71777" lon="6.97075">
        <ele>716.56018066406</ele>
        <time>2020-05-14T14:41:58Z</time>
      </trkpt>
      <trkpt lat="43.71776" lon="6.97084">
        <ele>715.96398925781</ele>
        <time>2020-05-14T14:41:59Z</time>
      </trkpt>
      <trkpt lat="43.71775" lon="6.97093">
        <ele>715.87963867188</ele>
        <time>2020-05-14T14:42:00Z</time>
      </trkpt>
      <trkpt lat="43.71774" lon="6.97103">
        <ele>716.25512695312</ele>
        <time>2020-05-14T14:42:01Z</time>
      </trkpt>
      <trkpt lat="43.71773" lon="6.97112">
        <ele>716.5810546875</ele>
        <time>2020-05-14T14:42:02Z</time>
      </trkpt>
      <trkpt lat="43.71772" lon="6.9712">
        <ele>714.17797851562</ele>
        <time>2020-05-14T14:42:03Z</time>
      </trkpt>
      <trkpt lat="43.71767" lon="6.97129">
        <ele>716.796875</ele>
        <time>2020-05-14T14:42:04Z</time>
      </trkpt>
      <trkpt lat="43.71764" lon="6.97138">
        <ele>715.90380859375</ele>
        <time>2020-05-14T14:42:05Z</time>
      </trkpt>
      <trkpt lat="43.71762" lon="6.97145">
        <ele>715.87524414062</ele>
        <time>2020-05-14T14:42:06Z</time>
      </trkpt>
      <trkpt lat="43.71761" lon="6.97152">
        <ele>715.95251464844</ele>
        <time>2020-05-14T14:42:07Z</time>
      </trkpt>
      <trkpt lat="43.71758" lon="6.97158">
        <ele>714.83032226562</ele>
        <time>2020-05-14T14:42:08Z</time>
      </trkpt>
      <trkpt lat="43.71758" lon="6.97165">
        <ele>717.83605957031</ele>
        <time>2020-05-14T14:42:09Z</time>
      </trkpt>
      <trkpt lat="43.71756" lon="6.97172">
        <ele>718.02453613281</ele>
        <time>2020-05-14T14:42:10Z</time>
      </trkpt>
      <trkpt lat="43.71755" lon="6.97179">
        <ele>717.78564453125</ele>
        <time>2020-05-14T14:42:11Z</time>
      </trkpt>
      <trkpt lat="43.71753" lon="6.97187">
        <ele>717.67407226562</ele>
        <time>2020-05-14T14:42:12Z</time>
      </trkpt>
      <trkpt lat="43.71753" lon="6.97193">
        <ele>718.59606933594</ele>
        <time>2020-05-14T14:42:13Z</time>
      </trkpt>
      <trkpt lat="43.71751" lon="6.972">
        <ele>718.58947753906</ele>
        <time>2020-05-14T14:42:14Z</time>
      </trkpt>
      <trkpt lat="43.7175" lon="6.97206">
        <ele>718.95288085938</ele>
        <time>2020-05-14T14:42:15Z</time>
      </trkpt>
      <trkpt lat="43.71748" lon="6.97212">
        <ele>719.86181640625</ele>
        <time>2020-05-14T14:42:16Z</time>
      </trkpt>
      <trkpt lat="43.71746" lon="6.97218">
        <ele>721.083984375</ele>
        <time>2020-05-14T14:42:17Z</time>
      </trkpt>
      <trkpt lat="43.71744" lon="6.97224">
        <ele>720.77465820312</ele>
        <time>2020-05-14T14:42:18Z</time>
      </trkpt>
      <trkpt lat="43.71743" lon="6.97231">
        <ele>721.00927734375</ele>
        <time>2020-05-14T14:42:19Z</time>
      </trkpt>
      <trkpt lat="43.71741" lon="6.97236">
        <ele>721.51245117188</ele>
        <time>2020-05-14T14:42:20Z</time>
      </trkpt>
      <trkpt lat="43.71738" lon="6.97241">
        <ele>721.31677246094</ele>
        <time>2020-05-14T14:42:21Z</time>
      </trkpt>
      <trkpt lat="43.71735" lon="6.97247">
        <ele>721.75024414062</ele>
        <time>2020-05-14T14:42:22Z</time>
      </trkpt>
      <trkpt lat="43.71733" lon="6.97251">
        <ele>721.84204101562</ele>
        <time>2020-05-14T14:42:23Z</time>
      </trkpt>
      <trkpt lat="43.7173" lon="6.97256">
        <ele>722.24597167969</ele>
        <time>2020-05-14T14:42:24Z</time>
      </trkpt>
      <trkpt lat="43.71727" lon="6.97262">
        <ele>723.04858398438</ele>
        <time>2020-05-14T14:42:25Z</time>
      </trkpt>
      <trkpt lat="43.71724" lon="6.97265">
        <ele>723.57275390625</ele>
        <time>2020-05-14T14:42:26Z</time>
      </trkpt>
      <trkpt lat="43.7172" lon="6.97269">
        <ele>721.30737304688</ele>
        <time>2020-05-14T14:42:27Z</time>
      </trkpt>
      <trkpt lat="43.71717" lon="6.97272">
        <ele>721.64562988281</ele>
        <time>2020-05-14T14:42:28Z</time>
      </trkpt>
      <trkpt lat="43.71712" lon="6.97276">
        <ele>721.91174316406</ele>
        <time>2020-05-14T14:42:29Z</time>
      </trkpt>
      <trkpt lat="43.71708" lon="6.9728">
        <ele>722.44677734375</ele>
        <time>2020-05-14T14:42:30Z</time>
      </trkpt>
      <trkpt lat="43.71704" lon="6.97284">
        <ele>722.88012695312</ele>
        <time>2020-05-14T14:42:31Z</time>
      </trkpt>
      <trkpt lat="43.71699" lon="6.97287">
        <ele>723.34057617188</ele>
        <time>2020-05-14T14:42:32Z</time>
      </trkpt>
      <trkpt lat="43.71696" lon="6.9729">
        <ele>723.57250976562</ele>
        <time>2020-05-14T14:42:33Z</time>
      </trkpt>
      <trkpt lat="43.71693" lon="6.97294">
        <ele>724.10717773438</ele>
        <time>2020-05-14T14:42:34Z</time>
      </trkpt>
      <trkpt lat="43.71689" lon="6.97296">
        <ele>723.81127929688</ele>
        <time>2020-05-14T14:42:35Z</time>
      </trkpt>
      <trkpt lat="43.71687" lon="6.97301">
        <ele>723.96533203125</ele>
        <time>2020-05-14T14:42:36Z</time>
      </trkpt>
      <trkpt lat="43.71683" lon="6.97304">
        <ele>724.35229492188</ele>
        <time>2020-05-14T14:42:37Z</time>
      </trkpt>
      <trkpt lat="43.71679" lon="6.97308">
        <ele>724.31811523438</ele>
        <time>2020-05-14T14:42:38Z</time>
      </trkpt>
      <trkpt lat="43.71676" lon="6.97312">
        <ele>724.14892578125</ele>
        <time>2020-05-14T14:42:39Z</time>
      </trkpt>
      <trkpt lat="43.71673" lon="6.97317">
        <ele>723.85229492188</ele>
        <time>2020-05-14T14:42:40Z</time>
      </trkpt>
      <trkpt lat="43.7167" lon="6.97321">
        <ele>723.97265625</ele>
        <time>2020-05-14T14:42:41Z</time>
      </trkpt>
      <trkpt lat="43.71667" lon="6.97326">
        <ele>723.99194335938</ele>
        <time>2020-05-14T14:42:42Z</time>
      </trkpt>
      <trkpt lat="43.71663" lon="6.97329">
        <ele>724.01745605469</ele>
        <time>2020-05-14T14:42:43Z</time>
      </trkpt>
      <trkpt lat="43.71659" lon="6.97333">
        <ele>724.10998535156</ele>
        <time>2020-05-14T14:42:44Z</time>
      </trkpt>
      <trkpt lat="43.71655" lon="6.97337">
        <ele>724.1171875</ele>
        <time>2020-05-14T14:42:45Z</time>
      </trkpt>
      <trkpt lat="43.71651" lon="6.97341">
        <ele>724.5810546875</ele>
        <time>2020-05-14T14:42:46Z</time>
      </trkpt>
      <trkpt lat="43.71647" lon="6.97345">
        <ele>725.1044921875</ele>
        <time>2020-05-14T14:42:47Z</time>
      </trkpt>
      <trkpt lat="43.71643" lon="6.97347">
        <ele>725.19982910156</ele>
        <time>2020-05-14T14:42:48Z</time>
      </trkpt>
      <trkpt lat="43.71639" lon="6.97349">
        <ele>725.4345703125</ele>
        <time>2020-05-14T14:42:49Z</time>
      </trkpt>
      <trkpt lat="43.71635" lon="6.97352">
        <ele>725.52722167969</ele>
        <time>2020-05-14T14:42:50Z</time>
      </trkpt>
      <trkpt lat="43.71631" lon="6.97355">
        <ele>725.35717773438</ele>
        <time>2020-05-14T14:42:51Z</time>
      </trkpt>
      <trkpt lat="43.71626" lon="6.97355">
        <ele>724.99914550781</ele>
        <time>2020-05-14T14:42:52Z</time>
      </trkpt>
      <trkpt lat="43.71621" lon="6.97356">
        <ele>724.9140625</ele>
        <time>2020-05-14T14:42:53Z</time>
      </trkpt>
      <trkpt lat="43.71616" lon="6.97356">
        <ele>724.7568359375</ele>
        <time>2020-05-14T14:42:54Z</time>
      </trkpt>
      <trkpt lat="43.71611" lon="6.97356">
        <ele>724.58984375</ele>
        <time>2020-05-14T14:42:55Z</time>
      </trkpt>
      <trkpt lat="43.71606" lon="6.97354">
        <ele>723.99560546875</ele>
        <time>2020-05-14T14:42:56Z</time>
      </trkpt>
      <trkpt lat="43.71602" lon="6.97352">
        <ele>724.02978515625</ele>
        <time>2020-05-14T14:42:57Z</time>
      </trkpt>
      <trkpt lat="43.71599" lon="6.97349">
        <ele>723.72094726562</ele>
        <time>2020-05-14T14:42:58Z</time>
      </trkpt>
      <trkpt lat="43.7159" lon="6.97344">
        <ele>720.15368652344</ele>
        <time>2020-05-14T14:42:59Z</time>
      </trkpt>
      <trkpt lat="43.71585" lon="6.97342">
        <ele>720.72192382812</ele>
        <time>2020-05-14T14:43:00Z</time>
      </trkpt>
      <trkpt lat="43.71581" lon="6.97341">
        <ele>720.23718261719</ele>
        <time>2020-05-14T14:43:01Z</time>
      </trkpt>
      <trkpt lat="43.71577" lon="6.97341">
        <ele>722.80932617188</ele>
        <time>2020-05-14T14:43:02Z</time>
      </trkpt>
      <trkpt lat="43.71573" lon="6.97342">
        <ele>722.60925292969</ele>
        <time>2020-05-14T14:43:03Z</time>
      </trkpt>
      <trkpt lat="43.71569" lon="6.97344">
        <ele>722.19360351562</ele>
        <time>2020-05-14T14:43:04Z</time>
      </trkpt>
      <trkpt lat="43.71565" lon="6.97346">
        <ele>722.03015136719</ele>
        <time>2020-05-14T14:43:05Z</time>
      </trkpt>
      <trkpt lat="43.71561" lon="6.97347">
        <ele>722.1201171875</ele>
        <time>2020-05-14T14:43:06Z</time>
      </trkpt>
      <trkpt lat="43.71556" lon="6.97351">
        <ele>722.35522460938</ele>
        <time>2020-05-14T14:43:07Z</time>
      </trkpt>
      <trkpt lat="43.71552" lon="6.97353">
        <ele>722.50378417969</ele>
        <time>2020-05-14T14:43:08Z</time>
      </trkpt>
      <trkpt lat="43.71548" lon="6.97355">
        <ele>723.40209960938</ele>
        <time>2020-05-14T14:43:09Z</time>
      </trkpt>
      <trkpt lat="43.71543" lon="6.97358">
        <ele>720.24841308594</ele>
        <time>2020-05-14T14:43:10Z</time>
      </trkpt>
      <trkpt lat="43.71539" lon="6.97358">
        <ele>721.76635742188</ele>
        <time>2020-05-14T14:43:11Z</time>
      </trkpt>
      <trkpt lat="43.71534" lon="6.97358">
        <ele>721.91137695312</ele>
        <time>2020-05-14T14:43:12Z</time>
      </trkpt>
      <trkpt lat="43.71528" lon="6.97357">
        <ele>722.6748046875</ele>
        <time>2020-05-14T14:43:13Z</time>
      </trkpt>
      <trkpt lat="43.71522" lon="6.97358">
        <ele>722.86450195312</ele>
        <time>2020-05-14T14:43:14Z</time>
      </trkpt>
      <trkpt lat="43.71516" lon="6.97358">
        <ele>723.14770507812</ele>
        <time>2020-05-14T14:43:15Z</time>
      </trkpt>
      <trkpt lat="43.7151" lon="6.97355">
        <ele>723.11682128906</ele>
        <time>2020-05-14T14:43:16Z</time>
      </trkpt>
      <trkpt lat="43.71505" lon="6.97353">
        <ele>723.21411132812</ele>
        <time>2020-05-14T14:43:17Z</time>
      </trkpt>
      <trkpt lat="43.715" lon="6.97352">
        <ele>723.13598632812</ele>
        <time>2020-05-14T14:43:18Z</time>
      </trkpt>
      <trkpt lat="43.71495" lon="6.97349">
        <ele>723.63854980469</ele>
        <time>2020-05-14T14:43:19Z</time>
      </trkpt>
      <trkpt lat="43.7149" lon="6.9735">
        <ele>723.7158203125</ele>
        <time>2020-05-14T14:43:20Z</time>
      </trkpt>
      <trkpt lat="43.71484" lon="6.97351">
        <ele>723.85046386719</ele>
        <time>2020-05-14T14:43:21Z</time>
      </trkpt>
      <trkpt lat="43.71478" lon="6.97352">
        <ele>723.95080566406</ele>
        <time>2020-05-14T14:43:22Z</time>
      </trkpt>
      <trkpt lat="43.71473" lon="6.97354">
        <ele>723.62866210938</ele>
        <time>2020-05-14T14:43:23Z</time>
      </trkpt>
      <trkpt lat="43.71466" lon="6.97355">
        <ele>723.82250976562</ele>
        <time>2020-05-14T14:43:24Z</time>
      </trkpt>
      <trkpt lat="43.71461" lon="6.97356">
        <ele>724.43920898438</ele>
        <time>2020-05-14T14:43:25Z</time>
      </trkpt>
      <trkpt lat="43.71454" lon="6.97354">
        <ele>724.92248535156</ele>
        <time>2020-05-14T14:43:26Z</time>
      </trkpt>
      <trkpt lat="43.71448" lon="6.97352">
        <ele>724.9453125</ele>
        <time>2020-05-14T14:43:27Z</time>
      </trkpt>
      <trkpt lat="43.71442" lon="6.9735">
        <ele>725.19946289062</ele>
        <time>2020-05-14T14:43:28Z</time>
      </trkpt>
      <trkpt lat="43.71436" lon="6.97342">
        <ele>724.57104492188</ele>
        <time>2020-05-14T14:43:29Z</time>
      </trkpt>
      <trkpt lat="43.7143" lon="6.97341">
        <ele>724.64770507812</ele>
        <time>2020-05-14T14:43:30Z</time>
      </trkpt>
      <trkpt lat="43.71424" lon="6.9734">
        <ele>708.4697265625</ele>
        <time>2020-05-14T14:43:31Z</time>
      </trkpt>
      <trkpt lat="43.71419" lon="6.97339">
        <ele>709.5830078125</ele>
        <time>2020-05-14T14:43:32Z</time>
      </trkpt>
      <trkpt lat="43.71413" lon="6.97339">
        <ele>710.11206054688</ele>
        <time>2020-05-14T14:43:33Z</time>
      </trkpt>
      <trkpt lat="43.71407" lon="6.97337">
        <ele>709.45556640625</ele>
        <time>2020-05-14T14:43:34Z</time>
      </trkpt>
      <trkpt lat="43.71401" lon="6.97337">
        <ele>709.09777832031</ele>
        <time>2020-05-14T14:43:35Z</time>
      </trkpt>
      <trkpt lat="43.71395" lon="6.97339">
        <ele>708.62158203125</ele>
        <time>2020-05-14T14:43:36Z</time>
      </trkpt>
      <trkpt lat="43.71389" lon="6.97341">
        <ele>708.66540527344</ele>
        <time>2020-05-14T14:43:37Z</time>
      </trkpt>
      <trkpt lat="43.71383" lon="6.97341">
        <ele>708.79858398438</ele>
        <time>2020-05-14T14:43:38Z</time>
      </trkpt>
      <trkpt lat="43.71376" lon="6.97344">
        <ele>711.01110839844</ele>
        <time>2020-05-14T14:43:39Z</time>
      </trkpt>
      <trkpt lat="43.7137" lon="6.97347">
        <ele>713.72290039062</ele>
        <time>2020-05-14T14:43:40Z</time>
      </trkpt>
      <trkpt lat="43.71363" lon="6.97349">
        <ele>714.16552734375</ele>
        <time>2020-05-14T14:43:41Z</time>
      </trkpt>
      <trkpt lat="43.71357" lon="6.97351">
        <ele>714.79626464844</ele>
        <time>2020-05-14T14:43:42Z</time>
      </trkpt>
      <trkpt lat="43.71351" lon="6.97353">
        <ele>714.28149414062</ele>
        <time>2020-05-14T14:43:43Z</time>
      </trkpt>
      <trkpt lat="43.71345" lon="6.97354">
        <ele>714.3232421875</ele>
        <time>2020-05-14T14:43:44Z</time>
      </trkpt>
      <trkpt lat="43.71338" lon="6.97356">
        <ele>714.44714355469</ele>
        <time>2020-05-14T14:43:45Z</time>
      </trkpt>
      <trkpt lat="43.71332" lon="6.97356">
        <ele>714.58032226562</ele>
        <time>2020-05-14T14:43:46Z</time>
      </trkpt>
      <trkpt lat="43.71326" lon="6.97357">
        <ele>714.6279296875</ele>
        <time>2020-05-14T14:43:47Z</time>
      </trkpt>
      <trkpt lat="43.7132" lon="6.97358">
        <ele>714.36401367188</ele>
        <time>2020-05-14T14:43:48Z</time>
      </trkpt>
      <trkpt lat="43.71312" lon="6.97356">
        <ele>714.10791015625</ele>
        <time>2020-05-14T14:43:49Z</time>
      </trkpt>
      <trkpt lat="43.71307" lon="6.97354">
        <ele>714.27294921875</ele>
        <time>2020-05-14T14:43:50Z</time>
      </trkpt>
      <trkpt lat="43.71302" lon="6.97351">
        <ele>715.423828125</ele>
        <time>2020-05-14T14:43:51Z</time>
      </trkpt>
      <trkpt lat="43.71297" lon="6.97345">
        <ele>715.33666992188</ele>
        <time>2020-05-14T14:43:52Z</time>
      </trkpt>
      <trkpt lat="43.71293" lon="6.97339">
        <ele>715.40002441406</ele>
        <time>2020-05-14T14:43:53Z</time>
      </trkpt>
      <trkpt lat="43.71288" lon="6.97332">
        <ele>715.5234375</ele>
        <time>2020-05-14T14:43:54Z</time>
      </trkpt>
      <trkpt lat="43.71284" lon="6.97324">
        <ele>714.626953125</ele>
        <time>2020-05-14T14:43:55Z</time>
      </trkpt>
      <trkpt lat="43.71279" lon="6.97317">
        <ele>713.62744140625</ele>
        <time>2020-05-14T14:43:56Z</time>
      </trkpt>
      <trkpt lat="43.71275" lon="6.9731">
        <ele>713.95874023438</ele>
        <time>2020-05-14T14:43:57Z</time>
      </trkpt>
      <trkpt lat="43.71271" lon="6.97304">
        <ele>714.5966796875</ele>
        <time>2020-05-14T14:43:58Z</time>
      </trkpt>
      <trkpt lat="43.71266" lon="6.97299">
        <ele>715.34375</ele>
        <time>2020-05-14T14:43:59Z</time>
      </trkpt>
      <trkpt lat="43.71262" lon="6.97293">
        <ele>715.45043945312</ele>
        <time>2020-05-14T14:44:00Z</time>
      </trkpt>
      <trkpt lat="43.71255" lon="6.9729">
        <ele>709.75903320312</ele>
        <time>2020-05-14T14:44:01Z</time>
      </trkpt>
      <trkpt lat="43.7125" lon="6.97286">
        <ele>711.349609375</ele>
        <time>2020-05-14T14:44:02Z</time>
      </trkpt>
      <trkpt lat="43.71245" lon="6.97284">
        <ele>711.07934570312</ele>
        <time>2020-05-14T14:44:03Z</time>
      </trkpt>
      <trkpt lat="43.71238" lon="6.97281">
        <ele>710.63391113281</ele>
        <time>2020-05-14T14:44:04Z</time>
      </trkpt>
      <trkpt lat="43.71232" lon="6.97278">
        <ele>710.54455566406</ele>
        <time>2020-05-14T14:44:05Z</time>
      </trkpt>
      <trkpt lat="43.71227" lon="6.97275">
        <ele>710.2509765625</ele>
        <time>2020-05-14T14:44:06Z</time>
      </trkpt>
      <trkpt lat="43.7122" lon="6.97273">
        <ele>709.98852539062</ele>
        <time>2020-05-14T14:44:07Z</time>
      </trkpt>
      <trkpt lat="43.71215" lon="6.9727">
        <ele>709.82141113281</ele>
        <time>2020-05-14T14:44:08Z</time>
      </trkpt>
      <trkpt lat="43.71209" lon="6.97268">
        <ele>710.4755859375</ele>
        <time>2020-05-14T14:44:09Z</time>
      </trkpt>
      <trkpt lat="43.71202" lon="6.97264">
        <ele>711.0341796875</ele>
        <time>2020-05-14T14:44:10Z</time>
      </trkpt>
      <trkpt lat="43.71197" lon="6.97261">
        <ele>711.38525390625</ele>
        <time>2020-05-14T14:44:11Z</time>
      </trkpt>
      <trkpt lat="43.71191" lon="6.97258">
        <ele>711.47387695312</ele>
        <time>2020-05-14T14:44:12Z</time>
      </trkpt>
      <trkpt lat="43.71185" lon="6.97255">
        <ele>711.38830566406</ele>
        <time>2020-05-14T14:44:13Z</time>
      </trkpt>
      <trkpt lat="43.71179" lon="6.97252">
        <ele>710.91455078125</ele>
        <time>2020-05-14T14:44:14Z</time>
      </trkpt>
      <trkpt lat="43.71174" lon="6.97252">
        <ele>710.20007324219</ele>
        <time>2020-05-14T14:44:15Z</time>
      </trkpt>
      <trkpt lat="43.71167" lon="6.97252">
        <ele>709.7734375</ele>
        <time>2020-05-14T14:44:16Z</time>
      </trkpt>
      <trkpt lat="43.71161" lon="6.97252">
        <ele>709.63317871094</ele>
        <time>2020-05-14T14:44:17Z</time>
      </trkpt>
      <trkpt lat="43.71155" lon="6.97252">
        <ele>709.86840820312</ele>
        <time>2020-05-14T14:44:18Z</time>
      </trkpt>
      <trkpt lat="43.71149" lon="6.97254">
        <ele>710.5439453125</ele>
        <time>2020-05-14T14:44:19Z</time>
      </trkpt>
      <trkpt lat="43.71143" lon="6.97255">
        <ele>711.236328125</ele>
        <time>2020-05-14T14:44:20Z</time>
      </trkpt>
      <trkpt lat="43.71137" lon="6.97258">
        <ele>710.69299316406</ele>
        <time>2020-05-14T14:44:21Z</time>
      </trkpt>
      <trkpt lat="43.71131" lon="6.97259">
        <ele>710.41381835938</ele>
        <time>2020-05-14T14:44:22Z</time>
      </trkpt>
      <trkpt lat="43.71126" lon="6.97261">
        <ele>710.13793945312</ele>
        <time>2020-05-14T14:44:23Z</time>
      </trkpt>
      <trkpt lat="43.71119" lon="6.97261">
        <ele>710.93823242188</ele>
        <time>2020-05-14T14:44:24Z</time>
      </trkpt>
      <trkpt lat="43.71112" lon="6.9726">
        <ele>710.69482421875</ele>
        <time>2020-05-14T14:44:25Z</time>
      </trkpt>
      <trkpt lat="43.71099" lon="6.97254">
        <ele>352.43762207031</ele>
        <time>2020-05-14T14:44:27Z</time>
      </trkpt>
      <trkpt lat="43.71093" lon="6.9725">
        <ele>481.1201171875</ele>
        <time>2020-05-14T14:44:28Z</time>
      </trkpt>
      <trkpt lat="43.71086" lon="6.97246">
        <ele>500.66760253906</ele>
        <time>2020-05-14T14:44:29Z</time>
      </trkpt>
      <trkpt lat="43.71081" lon="6.97243">
        <ele>596.66259765625</ele>
        <time>2020-05-14T14:44:30Z</time>
      </trkpt>
      <trkpt lat="43.71075" lon="6.9724">
        <ele>589.60180664062</ele>
        <time>2020-05-14T14:44:31Z</time>
      </trkpt>
      <trkpt lat="43.7107" lon="6.97235">
        <ele>581.72778320312</ele>
        <time>2020-05-14T14:44:32Z</time>
      </trkpt>
      <trkpt lat="43.71065" lon="6.97231">
        <ele>579.40759277344</ele>
        <time>2020-05-14T14:44:33Z</time>
      </trkpt>
      <trkpt lat="43.7106" lon="6.97227">
        <ele>577.75854492188</ele>
        <time>2020-05-14T14:44:34Z</time>
      </trkpt>
      <trkpt lat="43.71054" lon="6.97223">
        <ele>578.919921875</ele>
        <time>2020-05-14T14:44:35Z</time>
      </trkpt>
      <trkpt lat="43.71049" lon="6.97218">
        <ele>574.88623046875</ele>
        <time>2020-05-14T14:44:36Z</time>
      </trkpt>
      <trkpt lat="43.71043" lon="6.97213">
        <ele>554.044921875</ele>
        <time>2020-05-14T14:44:37Z</time>
      </trkpt>
      <trkpt lat="43.71039" lon="6.97209">
        <ele>169.73388671875</ele>
        <time>2020-05-14T14:44:38Z</time>
      </trkpt>
      <trkpt lat="43.71033" lon="6.97207">
        <ele>173.6484375</ele>
        <time>2020-05-14T14:44:39Z</time>
      </trkpt>
      <trkpt lat="43.7102" lon="6.97205">
        <ele>291.14489746094</ele>
        <time>2020-05-14T14:44:41Z</time>
      </trkpt>
      <trkpt lat="43.71004" lon="6.97213">
        <ele>261.62829589844</ele>
        <time>2020-05-14T14:44:44Z</time>
      </trkpt>
      <trkpt lat="43.70998" lon="6.97218">
        <ele>290.34252929688</ele>
        <time>2020-05-14T14:44:45Z</time>
      </trkpt>
      <trkpt lat="43.70989" lon="6.97232">
        <ele>338.44897460938</ele>
        <time>2020-05-14T14:44:47Z</time>
      </trkpt>
      <trkpt lat="43.70981" lon="6.97258">
        <ele>711.93481445312</ele>
        <time>2020-05-14T14:44:50Z</time>
      </trkpt>
      <trkpt lat="43.70981" lon="6.97269">
        <ele>712.64990234375</ele>
        <time>2020-05-14T14:44:51Z</time>
      </trkpt>
      <trkpt lat="43.70981" lon="6.97279">
        <ele>713.61511230469</ele>
        <time>2020-05-14T14:44:52Z</time>
      </trkpt>
      <trkpt lat="43.70981" lon="6.97288">
        <ele>712.34265136719</ele>
        <time>2020-05-14T14:44:53Z</time>
      </trkpt>
      <trkpt lat="43.70982" lon="6.97298">
        <ele>712.42529296875</ele>
        <time>2020-05-14T14:44:54Z</time>
      </trkpt>
      <trkpt lat="43.70982" lon="6.97309">
        <ele>711.75756835938</ele>
        <time>2020-05-14T14:44:55Z</time>
      </trkpt>
      <trkpt lat="43.70983" lon="6.97319">
        <ele>711.33349609375</ele>
        <time>2020-05-14T14:44:56Z</time>
      </trkpt>
      <trkpt lat="43.70983" lon="6.97329">
        <ele>711.56616210938</ele>
        <time>2020-05-14T14:44:57Z</time>
      </trkpt>
      <trkpt lat="43.70984" lon="6.9734">
        <ele>712.3232421875</ele>
        <time>2020-05-14T14:44:58Z</time>
      </trkpt>
      <trkpt lat="43.70983" lon="6.97351">
        <ele>712.33557128906</ele>
        <time>2020-05-14T14:44:59Z</time>
      </trkpt>
      <trkpt lat="43.70983" lon="6.97361">
        <ele>712.71350097656</ele>
        <time>2020-05-14T14:45:00Z</time>
      </trkpt>
      <trkpt lat="43.70984" lon="6.97372">
        <ele>713.15893554688</ele>
        <time>2020-05-14T14:45:01Z</time>
      </trkpt>
      <trkpt lat="43.70985" lon="6.97382">
        <ele>713.61059570312</ele>
        <time>2020-05-14T14:45:02Z</time>
      </trkpt>
      <trkpt lat="43.70984" lon="6.97393">
        <ele>713.59204101562</ele>
        <time>2020-05-14T14:45:03Z</time>
      </trkpt>
      <trkpt lat="43.70976" lon="6.97405">
        <ele>710.59497070312</ele>
        <time>2020-05-14T14:45:04Z</time>
      </trkpt>
      <trkpt lat="43.70975" lon="6.97415">
        <ele>710.67199707031</ele>
        <time>2020-05-14T14:45:05Z</time>
      </trkpt>
      <trkpt lat="43.70973" lon="6.97425">
        <ele>710.0234375</ele>
        <time>2020-05-14T14:45:06Z</time>
      </trkpt>
      <trkpt lat="43.7097" lon="6.97434">
        <ele>709.81408691406</ele>
        <time>2020-05-14T14:45:07Z</time>
      </trkpt>
      <trkpt lat="43.70967" lon="6.97443">
        <ele>709.845703125</ele>
        <time>2020-05-14T14:45:08Z</time>
      </trkpt>
      <trkpt lat="43.70964" lon="6.97452">
        <ele>710.00341796875</ele>
        <time>2020-05-14T14:45:09Z</time>
      </trkpt>
      <trkpt lat="43.7096" lon="6.9746">
        <ele>710.15759277344</ele>
        <time>2020-05-14T14:45:10Z</time>
      </trkpt>
      <trkpt lat="43.70956" lon="6.97468">
        <ele>709.82800292969</ele>
        <time>2020-05-14T14:45:11Z</time>
      </trkpt>
      <trkpt lat="43.7095" lon="6.97475">
        <ele>709.98071289062</ele>
        <time>2020-05-14T14:45:12Z</time>
      </trkpt>
      <trkpt lat="43.70944" lon="6.97482">
        <ele>710.00354003906</ele>
        <time>2020-05-14T14:45:13Z</time>
      </trkpt>
      <trkpt lat="43.70938" lon="6.97488">
        <ele>709.87548828125</ele>
        <time>2020-05-14T14:45:14Z</time>
      </trkpt>
      <trkpt lat="43.70931" lon="6.97493">
        <ele>709.80346679688</ele>
        <time>2020-05-14T14:45:15Z</time>
      </trkpt>
      <trkpt lat="43.70924" lon="6.97496">
        <ele>710.12377929688</ele>
        <time>2020-05-14T14:45:16Z</time>
      </trkpt>
      <trkpt lat="43.70917" lon="6.975">
        <ele>710.01293945312</ele>
        <time>2020-05-14T14:45:17Z</time>
      </trkpt>
      <trkpt lat="43.7091" lon="6.97505">
        <ele>710.38793945312</ele>
        <time>2020-05-14T14:45:18Z</time>
      </trkpt>
      <trkpt lat="43.70902" lon="6.97507">
        <ele>710.75146484375</ele>
        <time>2020-05-14T14:45:19Z</time>
      </trkpt>
      <trkpt lat="43.70895" lon="6.9751">
        <ele>710.82409667969</ele>
        <time>2020-05-14T14:45:20Z</time>
      </trkpt>
      <trkpt lat="43.70886" lon="6.97511">
        <ele>710.96398925781</ele>
        <time>2020-05-14T14:45:21Z</time>
      </trkpt>
      <trkpt lat="43.70878" lon="6.97514">
        <ele>710.96459960938</ele>
        <time>2020-05-14T14:45:22Z</time>
      </trkpt>
      <trkpt lat="43.7087" lon="6.97515">
        <ele>710.68359375</ele>
        <time>2020-05-14T14:45:23Z</time>
      </trkpt>
      <trkpt lat="43.70862" lon="6.97517">
        <ele>711.92407226562</ele>
        <time>2020-05-14T14:45:24Z</time>
      </trkpt>
      <trkpt lat="43.70854" lon="6.97515">
        <ele>712.30871582031</ele>
        <time>2020-05-14T14:45:25Z</time>
      </trkpt>
      <trkpt lat="43.70846" lon="6.97516">
        <ele>712.2548828125</ele>
        <time>2020-05-14T14:45:26Z</time>
      </trkpt>
      <trkpt lat="43.70838" lon="6.97516">
        <ele>712.34265136719</ele>
        <time>2020-05-14T14:45:27Z</time>
      </trkpt>
      <trkpt lat="43.70831" lon="6.97516">
        <ele>712.15258789062</ele>
        <time>2020-05-14T14:45:28Z</time>
      </trkpt>
      <trkpt lat="43.70822" lon="6.97514">
        <ele>712.62524414062</ele>
        <time>2020-05-14T14:45:29Z</time>
      </trkpt>
      <trkpt lat="43.70814" lon="6.97511">
        <ele>712.607421875</ele>
        <time>2020-05-14T14:45:30Z</time>
      </trkpt>
      <trkpt lat="43.70807" lon="6.97506">
        <ele>712.103515625</ele>
        <time>2020-05-14T14:45:31Z</time>
      </trkpt>
      <trkpt lat="43.70798" lon="6.975">
        <ele>710.63647460938</ele>
        <time>2020-05-14T14:45:32Z</time>
      </trkpt>
      <trkpt lat="43.70792" lon="6.97492">
        <ele>710.72314453125</ele>
        <time>2020-05-14T14:45:33Z</time>
      </trkpt>
      <trkpt lat="43.70787" lon="6.97483">
        <ele>710.48681640625</ele>
        <time>2020-05-14T14:45:34Z</time>
      </trkpt>
      <trkpt lat="43.70781" lon="6.97473">
        <ele>710.47973632812</ele>
        <time>2020-05-14T14:45:35Z</time>
      </trkpt>
      <trkpt lat="43.70775" lon="6.97464">
        <ele>709.13818359375</ele>
        <time>2020-05-14T14:45:36Z</time>
      </trkpt>
      <trkpt lat="43.7077" lon="6.97454">
        <ele>709.47290039062</ele>
        <time>2020-05-14T14:45:37Z</time>
      </trkpt>
      <trkpt lat="43.7077" lon="6.9744">
        <ele>752.98461914062</ele>
        <time>2020-05-14T14:45:38Z</time>
      </trkpt>
      <trkpt lat="43.7077" lon="6.97427">
        <ele>749.70751953125</ele>
        <time>2020-05-14T14:45:39Z</time>
      </trkpt>
      <trkpt lat="43.70769" lon="6.97415">
        <ele>750.29150390625</ele>
        <time>2020-05-14T14:45:40Z</time>
      </trkpt>
      <trkpt lat="43.70767" lon="6.97405">
        <ele>753.45422363281</ele>
        <time>2020-05-14T14:45:41Z</time>
      </trkpt>
      <trkpt lat="43.70767" lon="6.97393">
        <ele>753.541015625</ele>
        <time>2020-05-14T14:45:42Z</time>
      </trkpt>
      <trkpt lat="43.70767" lon="6.97379">
        <ele>755.43151855469</ele>
        <time>2020-05-14T14:45:43Z</time>
      </trkpt>
      <trkpt lat="43.70767" lon="6.97364">
        <ele>755.9658203125</ele>
        <time>2020-05-14T14:45:44Z</time>
      </trkpt>
      <trkpt lat="43.70766" lon="6.97354">
        <ele>755.64599609375</ele>
        <time>2020-05-14T14:45:45Z</time>
      </trkpt>
      <trkpt lat="43.70766" lon="6.97343">
        <ele>754.35791015625</ele>
        <time>2020-05-14T14:45:46Z</time>
      </trkpt>
      <trkpt lat="43.70764" lon="6.97331">
        <ele>752.39892578125</ele>
        <time>2020-05-14T14:45:47Z</time>
      </trkpt>
      <trkpt lat="43.70762" lon="6.97321">
        <ele>751.498046875</ele>
        <time>2020-05-14T14:45:48Z</time>
      </trkpt>
      <trkpt lat="43.70761" lon="6.9731">
        <ele>748.60778808594</ele>
        <time>2020-05-14T14:45:49Z</time>
      </trkpt>
      <trkpt lat="43.7076" lon="6.973">
        <ele>747.30859375</ele>
        <time>2020-05-14T14:45:50Z</time>
      </trkpt>
      <trkpt lat="43.70757" lon="6.9729">
        <ele>751.59875488281</ele>
        <time>2020-05-14T14:45:51Z</time>
      </trkpt>
      <trkpt lat="43.70754" lon="6.9728">
        <ele>752.89233398438</ele>
        <time>2020-05-14T14:45:52Z</time>
      </trkpt>
      <trkpt lat="43.70751" lon="6.9727">
        <ele>756.87329101562</ele>
        <time>2020-05-14T14:45:53Z</time>
      </trkpt>
      <trkpt lat="43.70747" lon="6.9726">
        <ele>752.93774414062</ele>
        <time>2020-05-14T14:45:54Z</time>
      </trkpt>
      <trkpt lat="43.70743" lon="6.97251">
        <ele>752.16381835938</ele>
        <time>2020-05-14T14:45:55Z</time>
      </trkpt>
      <trkpt lat="43.70737" lon="6.9724">
        <ele>752.28515625</ele>
        <time>2020-05-14T14:45:56Z</time>
      </trkpt>
      <trkpt lat="43.70731" lon="6.97233">
        <ele>751.1181640625</ele>
        <time>2020-05-14T14:45:57Z</time>
      </trkpt>
      <trkpt lat="43.70726" lon="6.97225">
        <ele>740.10485839844</ele>
        <time>2020-05-14T14:45:58Z</time>
      </trkpt>
      <trkpt lat="43.70721" lon="6.97217">
        <ele>742.42333984375</ele>
        <time>2020-05-14T14:45:59Z</time>
      </trkpt>
      <trkpt lat="43.70715" lon="6.9721">
        <ele>753.45336914062</ele>
        <time>2020-05-14T14:46:00Z</time>
      </trkpt>
      <trkpt lat="43.70708" lon="6.97204">
        <ele>730.33374023438</ele>
        <time>2020-05-14T14:46:01Z</time>
      </trkpt>
      <trkpt lat="43.707" lon="6.97198">
        <ele>732.10327148438</ele>
        <time>2020-05-14T14:46:02Z</time>
      </trkpt>
      <trkpt lat="43.70693" lon="6.97193">
        <ele>726.78784179688</ele>
        <time>2020-05-14T14:46:03Z</time>
      </trkpt>
      <trkpt lat="43.70686" lon="6.97188">
        <ele>727.58276367188</ele>
        <time>2020-05-14T14:46:04Z</time>
      </trkpt>
      <trkpt lat="43.70678" lon="6.97184">
        <ele>727.05041503906</ele>
        <time>2020-05-14T14:46:05Z</time>
      </trkpt>
      <trkpt lat="43.70671" lon="6.9718">
        <ele>727.49865722656</ele>
        <time>2020-05-14T14:46:06Z</time>
      </trkpt>
      <trkpt lat="43.70663" lon="6.97176">
        <ele>728.01440429688</ele>
        <time>2020-05-14T14:46:07Z</time>
      </trkpt>
      <trkpt lat="43.70656" lon="6.97173">
        <ele>729.54711914062</ele>
        <time>2020-05-14T14:46:08Z</time>
      </trkpt>
      <trkpt lat="43.70647" lon="6.97171">
        <ele>731.611328125</ele>
        <time>2020-05-14T14:46:09Z</time>
      </trkpt>
      <trkpt lat="43.70639" lon="6.97169">
        <ele>732.40686035156</ele>
        <time>2020-05-14T14:46:10Z</time>
      </trkpt>
      <trkpt lat="43.70631" lon="6.97167">
        <ele>732.76684570312</ele>
        <time>2020-05-14T14:46:11Z</time>
      </trkpt>
      <trkpt lat="43.70622" lon="6.97163">
        <ele>731.56372070312</ele>
        <time>2020-05-14T14:46:12Z</time>
      </trkpt>
      <trkpt lat="43.70613" lon="6.97163">
        <ele>732.17114257812</ele>
        <time>2020-05-14T14:46:13Z</time>
      </trkpt>
      <trkpt lat="43.70604" lon="6.97162">
        <ele>731.2646484375</ele>
        <time>2020-05-14T14:46:14Z</time>
      </trkpt>
      <trkpt lat="43.70595" lon="6.97162">
        <ele>731.86547851562</ele>
        <time>2020-05-14T14:46:15Z</time>
      </trkpt>
      <trkpt lat="43.70586" lon="6.97162">
        <ele>732.6708984375</ele>
        <time>2020-05-14T14:46:16Z</time>
      </trkpt>
      <trkpt lat="43.70578" lon="6.97162">
        <ele>732.17041015625</ele>
        <time>2020-05-14T14:46:17Z</time>
      </trkpt>
      <trkpt lat="43.70569" lon="6.97161">
        <ele>731.5986328125</ele>
        <time>2020-05-14T14:46:18Z</time>
      </trkpt>
      <trkpt lat="43.70559" lon="6.9716">
        <ele>730.83447265625</ele>
        <time>2020-05-14T14:46:19Z</time>
      </trkpt>
      <trkpt lat="43.70549" lon="6.97161">
        <ele>731.68139648438</ele>
        <time>2020-05-14T14:46:20Z</time>
      </trkpt>
      <trkpt lat="43.7054" lon="6.9716">
        <ele>731.279296875</ele>
        <time>2020-05-14T14:46:21Z</time>
      </trkpt>
      <trkpt lat="43.70531" lon="6.97156">
        <ele>732.44409179688</ele>
        <time>2020-05-14T14:46:22Z</time>
      </trkpt>
      <trkpt lat="43.70523" lon="6.97155">
        <ele>731.67272949219</ele>
        <time>2020-05-14T14:46:23Z</time>
      </trkpt>
      <trkpt lat="43.70514" lon="6.97153">
        <ele>732.4921875</ele>
        <time>2020-05-14T14:46:24Z</time>
      </trkpt>
      <trkpt lat="43.70505" lon="6.97149">
        <ele>732.87451171875</ele>
        <time>2020-05-14T14:46:25Z</time>
      </trkpt>
      <trkpt lat="43.70496" lon="6.97146">
        <ele>732.95361328125</ele>
        <time>2020-05-14T14:46:26Z</time>
      </trkpt>
      <trkpt lat="43.70486" lon="6.9714">
        <ele>731.73364257812</ele>
        <time>2020-05-14T14:46:27Z</time>
      </trkpt>
      <trkpt lat="43.70478" lon="6.97134">
        <ele>730.32861328125</ele>
        <time>2020-05-14T14:46:28Z</time>
      </trkpt>
      <trkpt lat="43.7047" lon="6.97129">
        <ele>729.46264648438</ele>
        <time>2020-05-14T14:46:29Z</time>
      </trkpt>
      <trkpt lat="43.70462" lon="6.97122">
        <ele>728.73876953125</ele>
        <time>2020-05-14T14:46:30Z</time>
      </trkpt>
      <trkpt lat="43.70455" lon="6.97116">
        <ele>727.40588378906</ele>
        <time>2020-05-14T14:46:31Z</time>
      </trkpt>
      <trkpt lat="43.70449" lon="6.97106">
        <ele>729.95434570312</ele>
        <time>2020-05-14T14:46:32Z</time>
      </trkpt>
      <trkpt lat="43.70441" lon="6.971">
        <ele>728.6943359375</ele>
        <time>2020-05-14T14:46:33Z</time>
      </trkpt>
      <trkpt lat="43.70435" lon="6.97092">
        <ele>728.02990722656</ele>
        <time>2020-05-14T14:46:34Z</time>
      </trkpt>
      <trkpt lat="43.70426" lon="6.97085">
        <ele>725.673828125</ele>
        <time>2020-05-14T14:46:35Z</time>
      </trkpt>
      <trkpt lat="43.70419" lon="6.97076">
        <ele>724.2490234375</ele>
        <time>2020-05-14T14:46:36Z</time>
      </trkpt>
      <trkpt lat="43.70411" lon="6.97068">
        <ele>720.37133789062</ele>
        <time>2020-05-14T14:46:37Z</time>
      </trkpt>
      <trkpt lat="43.70403" lon="6.97061">
        <ele>705.89599609375</ele>
        <time>2020-05-14T14:46:38Z</time>
      </trkpt>
      <trkpt lat="43.70396" lon="6.97051">
        <ele>699.3779296875</ele>
        <time>2020-05-14T14:46:39Z</time>
      </trkpt>
      <trkpt lat="43.7039" lon="6.97043">
        <ele>699.71350097656</ele>
        <time>2020-05-14T14:46:40Z</time>
      </trkpt>
      <trkpt lat="43.70385" lon="6.97033">
        <ele>700.41625976562</ele>
        <time>2020-05-14T14:46:41Z</time>
      </trkpt>
      <trkpt lat="43.7038" lon="6.97022">
        <ele>700.57751464844</ele>
        <time>2020-05-14T14:46:42Z</time>
      </trkpt>
      <trkpt lat="43.70376" lon="6.97011">
        <ele>700.83801269531</ele>
        <time>2020-05-14T14:46:43Z</time>
      </trkpt>
      <trkpt lat="43.70373" lon="6.97001">
        <ele>698.7900390625</ele>
        <time>2020-05-14T14:46:44Z</time>
      </trkpt>
      <trkpt lat="43.7037" lon="6.96987">
        <ele>698.26489257812</ele>
        <time>2020-05-14T14:46:45Z</time>
      </trkpt>
      <trkpt lat="43.70368" lon="6.96974">
        <ele>697.69299316406</ele>
        <time>2020-05-14T14:46:46Z</time>
      </trkpt>
      <trkpt lat="43.70367" lon="6.96962">
        <ele>696.98364257812</ele>
        <time>2020-05-14T14:46:47Z</time>
      </trkpt>
      <trkpt lat="43.70367" lon="6.96949">
        <ele>696.1962890625</ele>
        <time>2020-05-14T14:46:48Z</time>
      </trkpt>
      <trkpt lat="43.70365" lon="6.96938">
        <ele>695.14074707031</ele>
        <time>2020-05-14T14:46:49Z</time>
      </trkpt>
      <trkpt lat="43.70364" lon="6.96925">
        <ele>695.10595703125</ele>
        <time>2020-05-14T14:46:50Z</time>
      </trkpt>
      <trkpt lat="43.70363" lon="6.96914">
        <ele>696.20739746094</ele>
        <time>2020-05-14T14:46:51Z</time>
      </trkpt>
      <trkpt lat="43.70361" lon="6.969">
        <ele>696.900390625</ele>
        <time>2020-05-14T14:46:52Z</time>
      </trkpt>
      <trkpt lat="43.7036" lon="6.96888">
        <ele>696.92578125</ele>
        <time>2020-05-14T14:46:53Z</time>
      </trkpt>
      <trkpt lat="43.70359" lon="6.96876">
        <ele>697.55224609375</ele>
        <time>2020-05-14T14:46:54Z</time>
      </trkpt>
      <trkpt lat="43.70358" lon="6.96863">
        <ele>697.58947753906</ele>
        <time>2020-05-14T14:46:55Z</time>
      </trkpt>
      <trkpt lat="43.70355" lon="6.96851">
        <ele>697.12060546875</ele>
        <time>2020-05-14T14:46:56Z</time>
      </trkpt>
      <trkpt lat="43.70354" lon="6.96841">
        <ele>697.59326171875</ele>
        <time>2020-05-14T14:46:57Z</time>
      </trkpt>
      <trkpt lat="43.70352" lon="6.96828">
        <ele>697.93298339844</ele>
        <time>2020-05-14T14:46:58Z</time>
      </trkpt>
      <trkpt lat="43.70352" lon="6.96817">
        <ele>697.73217773438</ele>
        <time>2020-05-14T14:46:59Z</time>
      </trkpt>
      <trkpt lat="43.70351" lon="6.96805">
        <ele>696.05004882812</ele>
        <time>2020-05-14T14:47:00Z</time>
      </trkpt>
      <trkpt lat="43.70351" lon="6.96793">
        <ele>696.18994140625</ele>
        <time>2020-05-14T14:47:01Z</time>
      </trkpt>
      <trkpt lat="43.7035" lon="6.96782">
        <ele>696.29272460938</ele>
        <time>2020-05-14T14:47:02Z</time>
      </trkpt>
      <trkpt lat="43.7035" lon="6.9677">
        <ele>695.16882324219</ele>
        <time>2020-05-14T14:47:03Z</time>
      </trkpt>
      <trkpt lat="43.70348" lon="6.96758">
        <ele>696.14770507812</ele>
        <time>2020-05-14T14:47:04Z</time>
      </trkpt>
      <trkpt lat="43.70346" lon="6.96746">
        <ele>695.27478027344</ele>
        <time>2020-05-14T14:47:05Z</time>
      </trkpt>
      <trkpt lat="43.70343" lon="6.96734">
        <ele>695.23010253906</ele>
        <time>2020-05-14T14:47:06Z</time>
      </trkpt>
      <trkpt lat="43.70342" lon="6.96722">
        <ele>695.06921386719</ele>
        <time>2020-05-14T14:47:07Z</time>
      </trkpt>
      <trkpt lat="43.7034" lon="6.9671">
        <ele>695.09094238281</ele>
        <time>2020-05-14T14:47:08Z</time>
      </trkpt>
      <trkpt lat="43.70338" lon="6.96698">
        <ele>695.50219726562</ele>
        <time>2020-05-14T14:47:09Z</time>
      </trkpt>
      <trkpt lat="43.70336" lon="6.96686">
        <ele>695.80163574219</ele>
        <time>2020-05-14T14:47:10Z</time>
      </trkpt>
      <trkpt lat="43.70335" lon="6.96673">
        <ele>695.95947265625</ele>
        <time>2020-05-14T14:47:11Z</time>
      </trkpt>
      <trkpt lat="43.70333" lon="6.96661">
        <ele>696.43969726562</ele>
        <time>2020-05-14T14:47:12Z</time>
      </trkpt>
      <trkpt lat="43.7033" lon="6.96649">
        <ele>695.77648925781</ele>
        <time>2020-05-14T14:47:13Z</time>
      </trkpt>
      <trkpt lat="43.70329" lon="6.96637">
        <ele>695.32922363281</ele>
        <time>2020-05-14T14:47:14Z</time>
      </trkpt>
      <trkpt lat="43.70326" lon="6.96626">
        <ele>700.69946289062</ele>
        <time>2020-05-14T14:47:15Z</time>
      </trkpt>
      <trkpt lat="43.70324" lon="6.96614">
        <ele>698.77392578125</ele>
        <time>2020-05-14T14:47:16Z</time>
      </trkpt>
      <trkpt lat="43.70322" lon="6.96601">
        <ele>515.11798095703</ele>
        <time>2020-05-14T14:47:17Z</time>
      </trkpt>
      <trkpt lat="43.7032" lon="6.9659">
        <ele>533.8447265625</ele>
        <time>2020-05-14T14:47:18Z</time>
      </trkpt>
      <trkpt lat="43.70317" lon="6.96578">
        <ele>534.61083984375</ele>
        <time>2020-05-14T14:47:19Z</time>
      </trkpt>
      <trkpt lat="43.70315" lon="6.96566">
        <ele>381.056640625</ele>
        <time>2020-05-14T14:47:20Z</time>
      </trkpt>
      <trkpt lat="43.70312" lon="6.96554">
        <ele>696.07360839844</ele>
        <time>2020-05-14T14:47:21Z</time>
      </trkpt>
      <trkpt lat="43.7031" lon="6.96541">
        <ele>694.80395507812</ele>
        <time>2020-05-14T14:47:22Z</time>
      </trkpt>
      <trkpt lat="43.70308" lon="6.9653">
        <ele>515.69171142578</ele>
        <time>2020-05-14T14:47:23Z</time>
      </trkpt>
      <trkpt lat="43.70306" lon="6.96518">
        <ele>535.20483398438</ele>
        <time>2020-05-14T14:47:24Z</time>
      </trkpt>
      <trkpt lat="43.70303" lon="6.96506">
        <ele>540.62451171875</ele>
        <time>2020-05-14T14:47:25Z</time>
      </trkpt>
      <trkpt lat="43.70302" lon="6.96496">
        <ele>511.99951171875</ele>
        <time>2020-05-14T14:47:26Z</time>
      </trkpt>
      <trkpt lat="43.703" lon="6.96483">
        <ele>503.8173828125</ele>
        <time>2020-05-14T14:47:27Z</time>
      </trkpt>
      <trkpt lat="43.70298" lon="6.96472">
        <ele>497.2275390625</ele>
        <time>2020-05-14T14:47:28Z</time>
      </trkpt>
      <trkpt lat="43.70298" lon="6.96459">
        <ele>534.94177246094</ele>
        <time>2020-05-14T14:47:29Z</time>
      </trkpt>
      <trkpt lat="43.70296" lon="6.96447">
        <ele>532.93237304688</ele>
        <time>2020-05-14T14:47:30Z</time>
      </trkpt>
      <trkpt lat="43.70294" lon="6.96436">
        <ele>539.80627441406</ele>
        <time>2020-05-14T14:47:31Z</time>
      </trkpt>
      <trkpt lat="43.70292" lon="6.96426">
        <ele>547.5439453125</ele>
        <time>2020-05-14T14:47:32Z</time>
      </trkpt>
      <trkpt lat="43.7029" lon="6.96415">
        <ele>544.8154296875</ele>
        <time>2020-05-14T14:47:33Z</time>
      </trkpt>
      <trkpt lat="43.70286" lon="6.96404">
        <ele>539.79516601562</ele>
        <time>2020-05-14T14:47:34Z</time>
      </trkpt>
      <trkpt lat="43.70281" lon="6.96394">
        <ele>508.40808105469</ele>
        <time>2020-05-14T14:47:35Z</time>
      </trkpt>
      <trkpt lat="43.70278" lon="6.96384">
        <ele>505.62976074219</ele>
        <time>2020-05-14T14:47:36Z</time>
      </trkpt>
      <trkpt lat="43.70274" lon="6.96374">
        <ele>492.3046875</ele>
        <time>2020-05-14T14:47:37Z</time>
      </trkpt>
      <trkpt lat="43.7027" lon="6.96361">
        <ele>482.10864257812</ele>
        <time>2020-05-14T14:47:38Z</time>
      </trkpt>
      <trkpt lat="43.70266" lon="6.96351">
        <ele>486.07678222656</ele>
        <time>2020-05-14T14:47:39Z</time>
      </trkpt>
      <trkpt lat="43.70261" lon="6.96341">
        <ele>530.9873046875</ele>
        <time>2020-05-14T14:47:40Z</time>
      </trkpt>
      <trkpt lat="43.70257" lon="6.96332">
        <ele>528.10693359375</ele>
        <time>2020-05-14T14:47:41Z</time>
      </trkpt>
      <trkpt lat="43.70252" lon="6.96322">
        <ele>532.8203125</ele>
        <time>2020-05-14T14:47:42Z</time>
      </trkpt>
      <trkpt lat="43.70248" lon="6.96311">
        <ele>534.09594726562</ele>
        <time>2020-05-14T14:47:43Z</time>
      </trkpt>
      <trkpt lat="43.70244" lon="6.96301">
        <ele>542.0615234375</ele>
        <time>2020-05-14T14:47:44Z</time>
      </trkpt>
      <trkpt lat="43.70238" lon="6.9629">
        <ele>520.91033935547</ele>
        <time>2020-05-14T14:47:45Z</time>
      </trkpt>
      <trkpt lat="43.70234" lon="6.96281">
        <ele>521.39093017578</ele>
        <time>2020-05-14T14:47:46Z</time>
      </trkpt>
      <trkpt lat="43.70228" lon="6.9627">
        <ele>523.83453369141</ele>
        <time>2020-05-14T14:47:47Z</time>
      </trkpt>
      <trkpt lat="43.70224" lon="6.96259">
        <ele>532.62426757812</ele>
        <time>2020-05-14T14:47:48Z</time>
      </trkpt>
      <trkpt lat="43.70219" lon="6.9625">
        <ele>508.39050292969</ele>
        <time>2020-05-14T14:47:49Z</time>
      </trkpt>
      <trkpt lat="43.70213" lon="6.9624">
        <ele>501.80187988281</ele>
        <time>2020-05-14T14:47:50Z</time>
      </trkpt>
      <trkpt lat="43.70207" lon="6.96232">
        <ele>503.25268554688</ele>
        <time>2020-05-14T14:47:51Z</time>
      </trkpt>
      <trkpt lat="43.70201" lon="6.96222">
        <ele>503.14562988281</ele>
        <time>2020-05-14T14:47:52Z</time>
      </trkpt>
      <trkpt lat="43.70194" lon="6.96215">
        <ele>490.77404785156</ele>
        <time>2020-05-14T14:47:53Z</time>
      </trkpt>
      <trkpt lat="43.70185" lon="6.96207">
        <ele>179.09686279297</ele>
        <time>2020-05-14T14:47:54Z</time>
      </trkpt>
      <trkpt lat="43.70168" lon="6.96194">
        <ele>254.23071289062</ele>
        <time>2020-05-14T14:47:56Z</time>
      </trkpt>
      <trkpt lat="43.70161" lon="6.9619">
        <ele>228.27319335938</ele>
        <time>2020-05-14T14:47:57Z</time>
      </trkpt>
      <trkpt lat="43.70146" lon="6.96179">
        <ele>217.16851806641</ele>
        <time>2020-05-14T14:47:59Z</time>
      </trkpt>
      <trkpt lat="43.70132" lon="6.96166">
        <ele>234.53131103516</ele>
        <time>2020-05-14T14:48:01Z</time>
      </trkpt>
      <trkpt lat="43.70124" lon="6.96159">
        <ele>236.537109375</ele>
        <time>2020-05-14T14:48:02Z</time>
      </trkpt>
      <trkpt lat="43.70108" lon="6.96146">
        <ele>213.30114746094</ele>
        <time>2020-05-14T14:48:04Z</time>
      </trkpt>
      <trkpt lat="43.701" lon="6.9614">
        <ele>221.34838867188</ele>
        <time>2020-05-14T14:48:05Z</time>
      </trkpt>
      <trkpt lat="43.70093" lon="6.96134">
        <ele>215.71856689453</ele>
        <time>2020-05-14T14:48:06Z</time>
      </trkpt>
      <trkpt lat="43.7008" lon="6.96125">
        <ele>199.84289550781</ele>
        <time>2020-05-14T14:48:08Z</time>
      </trkpt>
      <trkpt lat="43.70066" lon="6.96113">
        <ele>670.3251953125</ele>
        <time>2020-05-14T14:48:10Z</time>
      </trkpt>
      <trkpt lat="43.70057" lon="6.96107">
        <ele>669.822265625</ele>
        <time>2020-05-14T14:48:11Z</time>
      </trkpt>
      <trkpt lat="43.7005" lon="6.96101">
        <ele>669.8037109375</ele>
        <time>2020-05-14T14:48:12Z</time>
      </trkpt>
      <trkpt lat="43.70044" lon="6.96097">
        <ele>669.69946289062</ele>
        <time>2020-05-14T14:48:13Z</time>
      </trkpt>
      <trkpt lat="43.70036" lon="6.96094">
        <ele>669.4345703125</ele>
        <time>2020-05-14T14:48:14Z</time>
      </trkpt>
      <trkpt lat="43.70029" lon="6.96095">
        <ele>669.16479492188</ele>
        <time>2020-05-14T14:48:15Z</time>
      </trkpt>
      <trkpt lat="43.70021" lon="6.96098">
        <ele>669.06396484375</ele>
        <time>2020-05-14T14:48:16Z</time>
      </trkpt>
      <trkpt lat="43.70014" lon="6.96102">
        <ele>668.83203125</ele>
        <time>2020-05-14T14:48:17Z</time>
      </trkpt>
      <trkpt lat="43.70006" lon="6.9611">
        <ele>668.42724609375</ele>
        <time>2020-05-14T14:48:18Z</time>
      </trkpt>
      <trkpt lat="43.70001" lon="6.9612">
        <ele>668.88012695312</ele>
        <time>2020-05-14T14:48:19Z</time>
      </trkpt>
      <trkpt lat="43.69997" lon="6.9613">
        <ele>668.53833007812</ele>
        <time>2020-05-14T14:48:20Z</time>
      </trkpt>
      <trkpt lat="43.69996" lon="6.96142">
        <ele>668.80639648438</ele>
        <time>2020-05-14T14:48:21Z</time>
      </trkpt>
      <trkpt lat="43.69997" lon="6.96153">
        <ele>668.85693359375</ele>
        <time>2020-05-14T14:48:22Z</time>
      </trkpt>
      <trkpt lat="43.7" lon="6.96164">
        <ele>668.94946289062</ele>
        <time>2020-05-14T14:48:23Z</time>
      </trkpt>
      <trkpt lat="43.70004" lon="6.96174">
        <ele>669.01184082031</ele>
        <time>2020-05-14T14:48:24Z</time>
      </trkpt>
      <trkpt lat="43.70008" lon="6.96184">
        <ele>669.44470214844</ele>
        <time>2020-05-14T14:48:25Z</time>
      </trkpt>
      <trkpt lat="43.70015" lon="6.96192">
        <ele>669.44519042969</ele>
        <time>2020-05-14T14:48:26Z</time>
      </trkpt>
      <trkpt lat="43.7002" lon="6.962">
        <ele>668.81286621094</ele>
        <time>2020-05-14T14:48:27Z</time>
      </trkpt>
      <trkpt lat="43.70024" lon="6.9621">
        <ele>668.75634765625</ele>
        <time>2020-05-14T14:48:28Z</time>
      </trkpt>
      <trkpt lat="43.7003" lon="6.96218">
        <ele>669.76342773438</ele>
        <time>2020-05-14T14:48:29Z</time>
      </trkpt>
      <trkpt lat="43.70036" lon="6.96225">
        <ele>669.275390625</ele>
        <time>2020-05-14T14:48:30Z</time>
      </trkpt>
      <trkpt lat="43.70041" lon="6.96233">
        <ele>667.48010253906</ele>
        <time>2020-05-14T14:48:31Z</time>
      </trkpt>
      <trkpt lat="43.70046" lon="6.96239">
        <ele>668.05078125</ele>
        <time>2020-05-14T14:48:32Z</time>
      </trkpt>
      <trkpt lat="43.70052" lon="6.96248">
        <ele>668.25158691406</ele>
        <time>2020-05-14T14:48:33Z</time>
      </trkpt>
      <trkpt lat="43.70058" lon="6.96257">
        <ele>668.5849609375</ele>
        <time>2020-05-14T14:48:34Z</time>
      </trkpt>
      <trkpt lat="43.70064" lon="6.96265">
        <ele>667.7685546875</ele>
        <time>2020-05-14T14:48:35Z</time>
      </trkpt>
      <trkpt lat="43.7007" lon="6.96273">
        <ele>667.50170898438</ele>
        <time>2020-05-14T14:48:36Z</time>
      </trkpt>
      <trkpt lat="43.70075" lon="6.96282">
        <ele>668.6708984375</ele>
        <time>2020-05-14T14:48:37Z</time>
      </trkpt>
      <trkpt lat="43.7008" lon="6.96292">
        <ele>668.97827148438</ele>
        <time>2020-05-14T14:48:38Z</time>
      </trkpt>
      <trkpt lat="43.70084" lon="6.96303">
        <ele>668.45007324219</ele>
        <time>2020-05-14T14:48:39Z</time>
      </trkpt>
      <trkpt lat="43.70091" lon="6.96315">
        <ele>668.13012695312</ele>
        <time>2020-05-14T14:48:40Z</time>
      </trkpt>
      <trkpt lat="43.70095" lon="6.96326">
        <ele>668.0673828125</ele>
        <time>2020-05-14T14:48:41Z</time>
      </trkpt>
      <trkpt lat="43.70097" lon="6.96338">
        <ele>668.28784179688</ele>
        <time>2020-05-14T14:48:42Z</time>
      </trkpt>
      <trkpt lat="43.70099" lon="6.9635">
        <ele>668.24780273438</ele>
        <time>2020-05-14T14:48:43Z</time>
      </trkpt>
      <trkpt lat="43.70101" lon="6.96361">
        <ele>668.52026367188</ele>
        <time>2020-05-14T14:48:44Z</time>
      </trkpt>
      <trkpt lat="43.70102" lon="6.96373">
        <ele>667.4921875</ele>
        <time>2020-05-14T14:48:45Z</time>
      </trkpt>
      <trkpt lat="43.70104" lon="6.96387">
        <ele>666.41577148438</ele>
        <time>2020-05-14T14:48:46Z</time>
      </trkpt>
      <trkpt lat="43.70104" lon="6.96399">
        <ele>665.42456054688</ele>
        <time>2020-05-14T14:48:47Z</time>
      </trkpt>
      <trkpt lat="43.70104" lon="6.96411">
        <ele>665.03979492188</ele>
        <time>2020-05-14T14:48:48Z</time>
      </trkpt>
      <trkpt lat="43.70104" lon="6.96425">
        <ele>664.4248046875</ele>
        <time>2020-05-14T14:48:49Z</time>
      </trkpt>
      <trkpt lat="43.70104" lon="6.96438">
        <ele>663.63537597656</ele>
        <time>2020-05-14T14:48:50Z</time>
      </trkpt>
      <trkpt lat="43.70104" lon="6.96451">
        <ele>663.54052734375</ele>
        <time>2020-05-14T14:48:51Z</time>
      </trkpt>
      <trkpt lat="43.70103" lon="6.96463">
        <ele>663.05078125</ele>
        <time>2020-05-14T14:48:52Z</time>
      </trkpt>
      <trkpt lat="43.70102" lon="6.96475">
        <ele>665.00463867188</ele>
        <time>2020-05-14T14:48:53Z</time>
      </trkpt>
      <trkpt lat="43.701" lon="6.96486">
        <ele>665.3896484375</ele>
        <time>2020-05-14T14:48:54Z</time>
      </trkpt>
      <trkpt lat="43.70099" lon="6.96499">
        <ele>665.51733398438</ele>
        <time>2020-05-14T14:48:55Z</time>
      </trkpt>
      <trkpt lat="43.70098" lon="6.96511">
        <ele>666.40734863281</ele>
        <time>2020-05-14T14:48:56Z</time>
      </trkpt>
      <trkpt lat="43.70096" lon="6.96522">
        <ele>662.63415527344</ele>
        <time>2020-05-14T14:48:57Z</time>
      </trkpt>
      <trkpt lat="43.70093" lon="6.96534">
        <ele>663.23156738281</ele>
        <time>2020-05-14T14:48:58Z</time>
      </trkpt>
      <trkpt lat="43.70091" lon="6.96546">
        <ele>663.70068359375</ele>
        <time>2020-05-14T14:48:59Z</time>
      </trkpt>
      <trkpt lat="43.70088" lon="6.96559">
        <ele>663.12622070312</ele>
        <time>2020-05-14T14:49:00Z</time>
      </trkpt>
      <trkpt lat="43.70085" lon="6.96571">
        <ele>662.21044921875</ele>
        <time>2020-05-14T14:49:01Z</time>
      </trkpt>
      <trkpt lat="43.70081" lon="6.96582">
        <ele>662.54235839844</ele>
        <time>2020-05-14T14:49:02Z</time>
      </trkpt>
      <trkpt lat="43.70078" lon="6.96594">
        <ele>662.91003417969</ele>
        <time>2020-05-14T14:49:03Z</time>
      </trkpt>
      <trkpt lat="43.70074" lon="6.96607">
        <ele>663.38159179688</ele>
        <time>2020-05-14T14:49:04Z</time>
      </trkpt>
      <trkpt lat="43.7007" lon="6.96619">
        <ele>663.3173828125</ele>
        <time>2020-05-14T14:49:05Z</time>
      </trkpt>
      <trkpt lat="43.70065" lon="6.9663">
        <ele>663.09350585938</ele>
        <time>2020-05-14T14:49:06Z</time>
      </trkpt>
      <trkpt lat="43.7006" lon="6.96642">
        <ele>662.56323242188</ele>
        <time>2020-05-14T14:49:07Z</time>
      </trkpt>
      <trkpt lat="43.70053" lon="6.96652">
        <ele>661.18872070312</ele>
        <time>2020-05-14T14:49:08Z</time>
      </trkpt>
      <trkpt lat="43.70046" lon="6.96662">
        <ele>661.54614257812</ele>
        <time>2020-05-14T14:49:09Z</time>
      </trkpt>
      <trkpt lat="43.70038" lon="6.96671">
        <ele>660.90356445312</ele>
        <time>2020-05-14T14:49:10Z</time>
      </trkpt>
      <trkpt lat="43.7003" lon="6.96679">
        <ele>661.73388671875</ele>
        <time>2020-05-14T14:49:11Z</time>
      </trkpt>
      <trkpt lat="43.70021" lon="6.96688">
        <ele>661.56616210938</ele>
        <time>2020-05-14T14:49:12Z</time>
      </trkpt>
      <trkpt lat="43.70012" lon="6.96696">
        <ele>662.70166015625</ele>
        <time>2020-05-14T14:49:13Z</time>
      </trkpt>
      <trkpt lat="43.70002" lon="6.96703">
        <ele>662.19775390625</ele>
        <time>2020-05-14T14:49:14Z</time>
      </trkpt>
      <trkpt lat="43.69992" lon="6.96708">
        <ele>662.90698242188</ele>
        <time>2020-05-14T14:49:15Z</time>
      </trkpt>
      <trkpt lat="43.69981" lon="6.96712">
        <ele>663.97607421875</ele>
        <time>2020-05-14T14:49:16Z</time>
      </trkpt>
      <trkpt lat="43.6997" lon="6.96715">
        <ele>665.314453125</ele>
        <time>2020-05-14T14:49:17Z</time>
      </trkpt>
      <trkpt lat="43.69959" lon="6.96716">
        <ele>662.33251953125</ele>
        <time>2020-05-14T14:49:18Z</time>
      </trkpt>
      <trkpt lat="43.69948" lon="6.96719">
        <ele>662.38610839844</ele>
        <time>2020-05-14T14:49:19Z</time>
      </trkpt>
      <trkpt lat="43.69937" lon="6.96722">
        <ele>660.82568359375</ele>
        <time>2020-05-14T14:49:20Z</time>
      </trkpt>
      <trkpt lat="43.69927" lon="6.96728">
        <ele>661.1044921875</ele>
        <time>2020-05-14T14:49:21Z</time>
      </trkpt>
      <trkpt lat="43.69918" lon="6.96733">
        <ele>662.14428710938</ele>
        <time>2020-05-14T14:49:22Z</time>
      </trkpt>
      <trkpt lat="43.69908" lon="6.9674">
        <ele>662.97314453125</ele>
        <time>2020-05-14T14:49:23Z</time>
      </trkpt>
      <trkpt lat="43.69898" lon="6.96744">
        <ele>465.84826660156</ele>
        <time>2020-05-14T14:49:24Z</time>
      </trkpt>
      <trkpt lat="43.69885" lon="6.96748">
        <ele>488.79888916016</ele>
        <time>2020-05-14T14:49:25Z</time>
      </trkpt>
      <trkpt lat="43.69871" lon="6.96749">
        <ele>491.49261474609</ele>
        <time>2020-05-14T14:49:26Z</time>
      </trkpt>
      <trkpt lat="43.6986" lon="6.96752">
        <ele>477.75439453125</ele>
        <time>2020-05-14T14:49:27Z</time>
      </trkpt>
      <trkpt lat="43.6984" lon="6.96755">
        <ele>463.75036621094</ele>
        <time>2020-05-14T14:49:28Z</time>
      </trkpt>
      <trkpt lat="43.69829" lon="6.96759">
        <ele>459.72802734375</ele>
        <time>2020-05-14T14:49:29Z</time>
      </trkpt>
      <trkpt lat="43.69817" lon="6.96762">
        <ele>457.45739746094</ele>
        <time>2020-05-14T14:49:30Z</time>
      </trkpt>
      <trkpt lat="43.69805" lon="6.96762">
        <ele>459.69763183594</ele>
        <time>2020-05-14T14:49:31Z</time>
      </trkpt>
      <trkpt lat="43.69793" lon="6.96759">
        <ele>461.18817138672</ele>
        <time>2020-05-14T14:49:32Z</time>
      </trkpt>
      <trkpt lat="43.69781" lon="6.96751">
        <ele>460.64703369141</ele>
        <time>2020-05-14T14:49:33Z</time>
      </trkpt>
      <trkpt lat="43.69771" lon="6.96742">
        <ele>456.88940429688</ele>
        <time>2020-05-14T14:49:34Z</time>
      </trkpt>
      <trkpt lat="43.69761" lon="6.96734">
        <ele>456.2529296875</ele>
        <time>2020-05-14T14:49:35Z</time>
      </trkpt>
      <trkpt lat="43.6975" lon="6.96725">
        <ele>483.97009277344</ele>
        <time>2020-05-14T14:49:36Z</time>
      </trkpt>
      <trkpt lat="43.6974" lon="6.96717">
        <ele>480.72436523438</ele>
        <time>2020-05-14T14:49:37Z</time>
      </trkpt>
      <trkpt lat="43.69728" lon="6.96709">
        <ele>479.08898925781</ele>
        <time>2020-05-14T14:49:38Z</time>
      </trkpt>
      <trkpt lat="43.69718" lon="6.967">
        <ele>476.04138183594</ele>
        <time>2020-05-14T14:49:39Z</time>
      </trkpt>
      <trkpt lat="43.69706" lon="6.96691">
        <ele>475.42199707031</ele>
        <time>2020-05-14T14:49:40Z</time>
      </trkpt>
      <trkpt lat="43.69696" lon="6.96683">
        <ele>458.83123779297</ele>
        <time>2020-05-14T14:49:41Z</time>
      </trkpt>
      <trkpt lat="43.69685" lon="6.96676">
        <ele>461.27038574219</ele>
        <time>2020-05-14T14:49:42Z</time>
      </trkpt>
      <trkpt lat="43.69674" lon="6.96672">
        <ele>462.88830566406</ele>
        <time>2020-05-14T14:49:43Z</time>
      </trkpt>
      <trkpt lat="43.69662" lon="6.9667">
        <ele>463.90106201172</ele>
        <time>2020-05-14T14:49:44Z</time>
      </trkpt>
      <trkpt lat="43.6965" lon="6.96672">
        <ele>472.19494628906</ele>
        <time>2020-05-14T14:49:45Z</time>
      </trkpt>
      <trkpt lat="43.69638" lon="6.96676">
        <ele>476.27746582031</ele>
        <time>2020-05-14T14:49:46Z</time>
      </trkpt>
      <trkpt lat="43.69628" lon="6.96684">
        <ele>515.6103515625</ele>
        <time>2020-05-14T14:49:47Z</time>
      </trkpt>
      <trkpt lat="43.69619" lon="6.96695">
        <ele>506.60400390625</ele>
        <time>2020-05-14T14:49:48Z</time>
      </trkpt>
      <trkpt lat="43.6961" lon="6.96709">
        <ele>503.17785644531</ele>
        <time>2020-05-14T14:49:49Z</time>
      </trkpt>
      <trkpt lat="43.69605" lon="6.96724">
        <ele>500.97912597656</ele>
        <time>2020-05-14T14:49:50Z</time>
      </trkpt>
      <trkpt lat="43.69601" lon="6.96741">
        <ele>507.18188476562</ele>
        <time>2020-05-14T14:49:51Z</time>
      </trkpt>
      <trkpt lat="43.696" lon="6.96757">
        <ele>503.27502441406</ele>
        <time>2020-05-14T14:49:52Z</time>
      </trkpt>
      <trkpt lat="43.696" lon="6.96772">
        <ele>498.62121582031</ele>
        <time>2020-05-14T14:49:53Z</time>
      </trkpt>
      <trkpt lat="43.69602" lon="6.96789">
        <ele>496.32189941406</ele>
        <time>2020-05-14T14:49:54Z</time>
      </trkpt>
      <trkpt lat="43.69604" lon="6.96805">
        <ele>504.78100585938</ele>
        <time>2020-05-14T14:49:55Z</time>
      </trkpt>
      <trkpt lat="43.69605" lon="6.96822">
        <ele>513.63879394531</ele>
        <time>2020-05-14T14:49:56Z</time>
      </trkpt>
      <trkpt lat="43.69603" lon="6.96838">
        <ele>519.08538818359</ele>
        <time>2020-05-14T14:49:57Z</time>
      </trkpt>
      <trkpt lat="43.69599" lon="6.96854">
        <ele>517.89556884766</ele>
        <time>2020-05-14T14:49:58Z</time>
      </trkpt>
      <trkpt lat="43.6959" lon="6.96866">
        <ele>520.04815673828</ele>
        <time>2020-05-14T14:49:59Z</time>
      </trkpt>
      <trkpt lat="43.69581" lon="6.96878">
        <ele>511.484375</ele>
        <time>2020-05-14T14:50:00Z</time>
      </trkpt>
      <trkpt lat="43.69571" lon="6.9689">
        <ele>507.71533203125</ele>
        <time>2020-05-14T14:50:01Z</time>
      </trkpt>
      <trkpt lat="43.69561" lon="6.969">
        <ele>507.12469482422</ele>
        <time>2020-05-14T14:50:02Z</time>
      </trkpt>
      <trkpt lat="43.69552" lon="6.96912">
        <ele>544.88256835938</ele>
        <time>2020-05-14T14:50:03Z</time>
      </trkpt>
      <trkpt lat="43.69543" lon="6.96924">
        <ele>539.1435546875</ele>
        <time>2020-05-14T14:50:04Z</time>
      </trkpt>
      <trkpt lat="43.69536" lon="6.96937">
        <ele>531.78466796875</ele>
        <time>2020-05-14T14:50:05Z</time>
      </trkpt>
      <trkpt lat="43.6953" lon="6.96952">
        <ele>534.81811523438</ele>
        <time>2020-05-14T14:50:06Z</time>
      </trkpt>
      <trkpt lat="43.69524" lon="6.96968">
        <ele>529.31530761719</ele>
        <time>2020-05-14T14:50:07Z</time>
      </trkpt>
      <trkpt lat="43.6952" lon="6.96984">
        <ele>639.44555664062</ele>
        <time>2020-05-14T14:50:08Z</time>
      </trkpt>
      <trkpt lat="43.69516" lon="6.97001">
        <ele>630.30078125</ele>
        <time>2020-05-14T14:50:09Z</time>
      </trkpt>
      <trkpt lat="43.69512" lon="6.97018">
        <ele>633.15258789062</ele>
        <time>2020-05-14T14:50:10Z</time>
      </trkpt>
      <trkpt lat="43.69504" lon="6.97031">
        <ele>633.19189453125</ele>
        <time>2020-05-14T14:50:11Z</time>
      </trkpt>
      <trkpt lat="43.69496" lon="6.97043">
        <ele>631.09631347656</ele>
        <time>2020-05-14T14:50:12Z</time>
      </trkpt>
      <trkpt lat="43.69486" lon="6.97052">
        <ele>630.70678710938</ele>
        <time>2020-05-14T14:50:13Z</time>
      </trkpt>
      <trkpt lat="43.69474" lon="6.97058">
        <ele>506.15557861328</ele>
        <time>2020-05-14T14:50:14Z</time>
      </trkpt>
      <trkpt lat="43.69461" lon="6.97062">
        <ele>517.19586181641</ele>
        <time>2020-05-14T14:50:15Z</time>
      </trkpt>
      <trkpt lat="43.6945" lon="6.9707">
        <ele>516.53265380859</ele>
        <time>2020-05-14T14:50:16Z</time>
      </trkpt>
      <trkpt lat="43.69439" lon="6.97079">
        <ele>516.70458984375</ele>
        <time>2020-05-14T14:50:17Z</time>
      </trkpt>
      <trkpt lat="43.69429" lon="6.97091">
        <ele>513.98840332031</ele>
        <time>2020-05-14T14:50:18Z</time>
      </trkpt>
      <trkpt lat="43.6942" lon="6.97103">
        <ele>515.03436279297</ele>
        <time>2020-05-14T14:50:19Z</time>
      </trkpt>
      <trkpt lat="43.6941" lon="6.97116">
        <ele>515.48547363281</ele>
        <time>2020-05-14T14:50:20Z</time>
      </trkpt>
      <trkpt lat="43.694" lon="6.97127">
        <ele>509.93005371094</ele>
        <time>2020-05-14T14:50:21Z</time>
      </trkpt>
      <trkpt lat="43.69389" lon="6.97138">
        <ele>503.07696533203</ele>
        <time>2020-05-14T14:50:22Z</time>
      </trkpt>
      <trkpt lat="43.69378" lon="6.97146">
        <ele>499.24108886719</ele>
        <time>2020-05-14T14:50:23Z</time>
      </trkpt>
      <trkpt lat="43.69365" lon="6.97151">
        <ele>497.39202880859</ele>
        <time>2020-05-14T14:50:24Z</time>
      </trkpt>
      <trkpt lat="43.69351" lon="6.97155">
        <ele>487.68347167969</ele>
        <time>2020-05-14T14:50:25Z</time>
      </trkpt>
      <trkpt lat="43.69339" lon="6.9716">
        <ele>464.62854003906</ele>
        <time>2020-05-14T14:50:26Z</time>
      </trkpt>
      <trkpt lat="43.69327" lon="6.97165">
        <ele>459.29565429688</ele>
        <time>2020-05-14T14:50:27Z</time>
      </trkpt>
      <trkpt lat="43.69314" lon="6.97173">
        <ele>454.77917480469</ele>
        <time>2020-05-14T14:50:28Z</time>
      </trkpt>
      <trkpt lat="43.69303" lon="6.97181">
        <ele>475.30096435547</ele>
        <time>2020-05-14T14:50:29Z</time>
      </trkpt>
      <trkpt lat="43.69292" lon="6.97192">
        <ele>475.65972900391</ele>
        <time>2020-05-14T14:50:30Z</time>
      </trkpt>
      <trkpt lat="43.69281" lon="6.97203">
        <ele>476.71533203125</ele>
        <time>2020-05-14T14:50:31Z</time>
      </trkpt>
      <trkpt lat="43.69271" lon="6.97215">
        <ele>474.79931640625</ele>
        <time>2020-05-14T14:50:32Z</time>
      </trkpt>
      <trkpt lat="43.6926" lon="6.97225">
        <ele>475.53332519531</ele>
        <time>2020-05-14T14:50:33Z</time>
      </trkpt>
      <trkpt lat="43.69248" lon="6.97233">
        <ele>474.38739013672</ele>
        <time>2020-05-14T14:50:34Z</time>
      </trkpt>
      <trkpt lat="43.69235" lon="6.9724">
        <ele>473.96051025391</ele>
        <time>2020-05-14T14:50:35Z</time>
      </trkpt>
      <trkpt lat="43.69222" lon="6.97246">
        <ele>478.22650146484</ele>
        <time>2020-05-14T14:50:36Z</time>
      </trkpt>
      <trkpt lat="43.69208" lon="6.97251">
        <ele>473.86303710938</ele>
        <time>2020-05-14T14:50:37Z</time>
      </trkpt>
      <trkpt lat="43.69195" lon="6.97254">
        <ele>473.20495605469</ele>
        <time>2020-05-14T14:50:38Z</time>
      </trkpt>
      <trkpt lat="43.69182" lon="6.97257">
        <ele>477.57800292969</ele>
        <time>2020-05-14T14:50:39Z</time>
      </trkpt>
      <trkpt lat="43.6917" lon="6.97261">
        <ele>475.53527832031</ele>
        <time>2020-05-14T14:50:40Z</time>
      </trkpt>
      <trkpt lat="43.69158" lon="6.9727">
        <ele>471.37579345703</ele>
        <time>2020-05-14T14:50:41Z</time>
      </trkpt>
      <trkpt lat="43.69148" lon="6.97279">
        <ele>469.53942871094</ele>
        <time>2020-05-14T14:50:42Z</time>
      </trkpt>
      <trkpt lat="43.69139" lon="6.97292">
        <ele>465.17602539062</ele>
        <time>2020-05-14T14:50:43Z</time>
      </trkpt>
      <trkpt lat="43.69132" lon="6.97307">
        <ele>466.49584960938</ele>
        <time>2020-05-14T14:50:44Z</time>
      </trkpt>
      <trkpt lat="43.69126" lon="6.97323">
        <ele>471.77612304688</ele>
        <time>2020-05-14T14:50:45Z</time>
      </trkpt>
      <trkpt lat="43.69121" lon="6.9734">
        <ele>466.12316894531</ele>
        <time>2020-05-14T14:50:46Z</time>
      </trkpt>
      <trkpt lat="43.69116" lon="6.97356">
        <ele>464.27368164062</ele>
        <time>2020-05-14T14:50:47Z</time>
      </trkpt>
      <trkpt lat="43.6911" lon="6.97369">
        <ele>464.04479980469</ele>
        <time>2020-05-14T14:50:48Z</time>
      </trkpt>
      <trkpt lat="43.69104" lon="6.97384">
        <ele>466.65905761719</ele>
        <time>2020-05-14T14:50:49Z</time>
      </trkpt>
      <trkpt lat="43.69095" lon="6.97395">
        <ele>465.63684082031</ele>
        <time>2020-05-14T14:50:50Z</time>
      </trkpt>
      <trkpt lat="43.69083" lon="6.97404">
        <ele>469.27124023438</ele>
        <time>2020-05-14T14:50:51Z</time>
      </trkpt>
      <trkpt lat="43.69072" lon="6.9741">
        <ele>469.52227783203</ele>
        <time>2020-05-14T14:50:52Z</time>
      </trkpt>
      <trkpt lat="43.6906" lon="6.97415">
        <ele>465.37036132812</ele>
        <time>2020-05-14T14:50:53Z</time>
      </trkpt>
      <trkpt lat="43.69048" lon="6.97416">
        <ele>469.37133789062</ele>
        <time>2020-05-14T14:50:54Z</time>
      </trkpt>
      <trkpt lat="43.69036" lon="6.97417">
        <ele>472.64636230469</ele>
        <time>2020-05-14T14:50:55Z</time>
      </trkpt>
      <trkpt lat="43.69023" lon="6.97414">
        <ele>472.67639160156</ele>
        <time>2020-05-14T14:50:56Z</time>
      </trkpt>
      <trkpt lat="43.69012" lon="6.97412">
        <ele>471.49365234375</ele>
        <time>2020-05-14T14:50:57Z</time>
      </trkpt>
      <trkpt lat="43.68999" lon="6.9741">
        <ele>471.46997070312</ele>
        <time>2020-05-14T14:50:58Z</time>
      </trkpt>
      <trkpt lat="43.68987" lon="6.97408">
        <ele>469.99450683594</ele>
        <time>2020-05-14T14:50:59Z</time>
      </trkpt>
      <trkpt lat="43.68974" lon="6.97406">
        <ele>456.09832763672</ele>
        <time>2020-05-14T14:51:00Z</time>
      </trkpt>
      <trkpt lat="43.68961" lon="6.97404">
        <ele>454.28051757812</ele>
        <time>2020-05-14T14:51:01Z</time>
      </trkpt>
      <trkpt lat="43.68948" lon="6.97402">
        <ele>451.24810791016</ele>
        <time>2020-05-14T14:51:02Z</time>
      </trkpt>
      <trkpt lat="43.68936" lon="6.97401">
        <ele>465.84936523438</ele>
        <time>2020-05-14T14:51:03Z</time>
      </trkpt>
      <trkpt lat="43.68923" lon="6.97398">
        <ele>457.12615966797</ele>
        <time>2020-05-14T14:51:04Z</time>
      </trkpt>
      <trkpt lat="43.68912" lon="6.97396">
        <ele>459.37829589844</ele>
        <time>2020-05-14T14:51:05Z</time>
      </trkpt>
      <trkpt lat="43.68898" lon="6.97394">
        <ele>464.09191894531</ele>
        <time>2020-05-14T14:51:06Z</time>
      </trkpt>
      <trkpt lat="43.68885" lon="6.97391">
        <ele>460.90191650391</ele>
        <time>2020-05-14T14:51:07Z</time>
      </trkpt>
      <trkpt lat="43.68872" lon="6.97389">
        <ele>458.14721679688</ele>
        <time>2020-05-14T14:51:08Z</time>
      </trkpt>
      <trkpt lat="43.68858" lon="6.97389">
        <ele>462.70581054688</ele>
        <time>2020-05-14T14:51:09Z</time>
      </trkpt>
      <trkpt lat="43.68844" lon="6.9739">
        <ele>466.14385986328</ele>
        <time>2020-05-14T14:51:10Z</time>
      </trkpt>
      <trkpt lat="43.6883" lon="6.97394">
        <ele>469.18786621094</ele>
        <time>2020-05-14T14:51:11Z</time>
      </trkpt>
      <trkpt lat="43.68816" lon="6.97401">
        <ele>471.04895019531</ele>
        <time>2020-05-14T14:51:12Z</time>
      </trkpt>
      <trkpt lat="43.68804" lon="6.97408">
        <ele>465.82202148438</ele>
        <time>2020-05-14T14:51:13Z</time>
      </trkpt>
      <trkpt lat="43.68792" lon="6.97418">
        <ele>467.76062011719</ele>
        <time>2020-05-14T14:51:14Z</time>
      </trkpt>
      <trkpt lat="43.68781" lon="6.97429">
        <ele>469.33032226562</ele>
        <time>2020-05-14T14:51:15Z</time>
      </trkpt>
      <trkpt lat="43.68772" lon="6.97443">
        <ele>454.47766113281</ele>
        <time>2020-05-14T14:51:16Z</time>
      </trkpt>
      <trkpt lat="43.68763" lon="6.97458">
        <ele>452.66943359375</ele>
        <time>2020-05-14T14:51:17Z</time>
      </trkpt>
      <trkpt lat="43.68755" lon="6.97473">
        <ele>454.65649414062</ele>
        <time>2020-05-14T14:51:18Z</time>
      </trkpt>
      <trkpt lat="43.68747" lon="6.97487">
        <ele>475.31787109375</ele>
        <time>2020-05-14T14:51:19Z</time>
      </trkpt>
      <trkpt lat="43.68737" lon="6.97498">
        <ele>472.32427978516</ele>
        <time>2020-05-14T14:51:20Z</time>
      </trkpt>
      <trkpt lat="43.68727" lon="6.97506">
        <ele>468.13842773438</ele>
        <time>2020-05-14T14:51:21Z</time>
      </trkpt>
      <trkpt lat="43.68715" lon="6.97512">
        <ele>466.92437744141</ele>
        <time>2020-05-14T14:51:22Z</time>
      </trkpt>
      <trkpt lat="43.68703" lon="6.97514">
        <ele>462.49609375</ele>
        <time>2020-05-14T14:51:23Z</time>
      </trkpt>
      <trkpt lat="43.68691" lon="6.97512">
        <ele>455.33068847656</ele>
        <time>2020-05-14T14:51:24Z</time>
      </trkpt>
      <trkpt lat="43.68678" lon="6.97509">
        <ele>454.13110351562</ele>
        <time>2020-05-14T14:51:25Z</time>
      </trkpt>
      <trkpt lat="43.68666" lon="6.97505">
        <ele>453.08752441406</ele>
        <time>2020-05-14T14:51:26Z</time>
      </trkpt>
      <trkpt lat="43.68652" lon="6.97503">
        <ele>451.60870361328</ele>
        <time>2020-05-14T14:51:27Z</time>
      </trkpt>
      <trkpt lat="43.68637" lon="6.975">
        <ele>451.13299560547</ele>
        <time>2020-05-14T14:51:28Z</time>
      </trkpt>
      <trkpt lat="43.68623" lon="6.97498">
        <ele>450.97534179688</ele>
        <time>2020-05-14T14:51:29Z</time>
      </trkpt>
      <trkpt lat="43.6861" lon="6.97498">
        <ele>453.52368164062</ele>
        <time>2020-05-14T14:51:30Z</time>
      </trkpt>
      <trkpt lat="43.68597" lon="6.97496">
        <ele>456.13366699219</ele>
        <time>2020-05-14T14:51:31Z</time>
      </trkpt>
      <trkpt lat="43.68584" lon="6.97491">
        <ele>453.41784667969</ele>
        <time>2020-05-14T14:51:32Z</time>
      </trkpt>
      <trkpt lat="43.68574" lon="6.97483">
        <ele>453.21020507812</ele>
        <time>2020-05-14T14:51:33Z</time>
      </trkpt>
      <trkpt lat="43.68564" lon="6.97476">
        <ele>454.62420654297</ele>
        <time>2020-05-14T14:51:34Z</time>
      </trkpt>
      <trkpt lat="43.68555" lon="6.97471">
        <ele>456.32940673828</ele>
        <time>2020-05-14T14:51:35Z</time>
      </trkpt>
      <trkpt lat="43.68545" lon="6.9747">
        <ele>459.50756835938</ele>
        <time>2020-05-14T14:51:36Z</time>
      </trkpt>
      <trkpt lat="43.68534" lon="6.97471">
        <ele>457.41748046875</ele>
        <time>2020-05-14T14:51:37Z</time>
      </trkpt>
      <trkpt lat="43.68522" lon="6.97474">
        <ele>458.37463378906</ele>
        <time>2020-05-14T14:51:38Z</time>
      </trkpt>
      <trkpt lat="43.68513" lon="6.9748">
        <ele>457.30285644531</ele>
        <time>2020-05-14T14:51:39Z</time>
      </trkpt>
      <trkpt lat="43.68503" lon="6.97485">
        <ele>460.37133789062</ele>
        <time>2020-05-14T14:51:40Z</time>
      </trkpt>
      <trkpt lat="43.68494" lon="6.97486">
        <ele>461.30358886719</ele>
        <time>2020-05-14T14:51:41Z</time>
      </trkpt>
      <trkpt lat="43.68484" lon="6.97484">
        <ele>459.67980957031</ele>
        <time>2020-05-14T14:51:42Z</time>
      </trkpt>
      <trkpt lat="43.68475" lon="6.97479">
        <ele>457.84484863281</ele>
        <time>2020-05-14T14:51:43Z</time>
      </trkpt>
      <trkpt lat="43.68464" lon="6.9747">
        <ele>446.68371582031</ele>
        <time>2020-05-14T14:51:44Z</time>
      </trkpt>
      <trkpt lat="43.68455" lon="6.97463">
        <ele>445.40563964844</ele>
        <time>2020-05-14T14:51:45Z</time>
      </trkpt>
      <trkpt lat="43.68446" lon="6.97457">
        <ele>446.17041015625</ele>
        <time>2020-05-14T14:51:46Z</time>
      </trkpt>
      <trkpt lat="43.68436" lon="6.9745">
        <ele>446.43591308594</ele>
        <time>2020-05-14T14:51:47Z</time>
      </trkpt>
      <trkpt lat="43.68427" lon="6.97443">
        <ele>445.67749023438</ele>
        <time>2020-05-14T14:51:48Z</time>
      </trkpt>
      <trkpt lat="43.68417" lon="6.97436">
        <ele>444.51666259766</ele>
        <time>2020-05-14T14:51:49Z</time>
      </trkpt>
      <trkpt lat="43.68407" lon="6.97428">
        <ele>456.84033203125</ele>
        <time>2020-05-14T14:51:50Z</time>
      </trkpt>
      <trkpt lat="43.68397" lon="6.97419">
        <ele>454.53601074219</ele>
        <time>2020-05-14T14:51:51Z</time>
      </trkpt>
      <trkpt lat="43.68388" lon="6.97408">
        <ele>457.97155761719</ele>
        <time>2020-05-14T14:51:52Z</time>
      </trkpt>
      <trkpt lat="43.68381" lon="6.97396">
        <ele>454.830078125</ele>
        <time>2020-05-14T14:51:53Z</time>
      </trkpt>
      <trkpt lat="43.68375" lon="6.97383">
        <ele>457.04626464844</ele>
        <time>2020-05-14T14:51:54Z</time>
      </trkpt>
      <trkpt lat="43.6837" lon="6.97368">
        <ele>454.35388183594</ele>
        <time>2020-05-14T14:51:55Z</time>
      </trkpt>
      <trkpt lat="43.68365" lon="6.97352">
        <ele>454.11968994141</ele>
        <time>2020-05-14T14:51:56Z</time>
      </trkpt>
      <trkpt lat="43.6836" lon="6.97339">
        <ele>453.88232421875</ele>
        <time>2020-05-14T14:51:57Z</time>
      </trkpt>
      <trkpt lat="43.68352" lon="6.97325">
        <ele>454.14990234375</ele>
        <time>2020-05-14T14:51:58Z</time>
      </trkpt>
      <trkpt lat="43.68344" lon="6.97312">
        <ele>456.86322021484</ele>
        <time>2020-05-14T14:51:59Z</time>
      </trkpt>
      <trkpt lat="43.68335" lon="6.97302">
        <ele>457.19329833984</ele>
        <time>2020-05-14T14:52:00Z</time>
      </trkpt>
      <trkpt lat="43.68325" lon="6.97291">
        <ele>455.32263183594</ele>
        <time>2020-05-14T14:52:01Z</time>
      </trkpt>
      <trkpt lat="43.68314" lon="6.97283">
        <ele>455.50579833984</ele>
        <time>2020-05-14T14:52:02Z</time>
      </trkpt>
      <trkpt lat="43.68303" lon="6.97274">
        <ele>454.43188476562</ele>
        <time>2020-05-14T14:52:03Z</time>
      </trkpt>
      <trkpt lat="43.68293" lon="6.97266">
        <ele>452.62054443359</ele>
        <time>2020-05-14T14:52:04Z</time>
      </trkpt>
      <trkpt lat="43.68281" lon="6.97257">
        <ele>449.77490234375</ele>
        <time>2020-05-14T14:52:05Z</time>
      </trkpt>
      <trkpt lat="43.68271" lon="6.97248">
        <ele>451.35003662109</ele>
        <time>2020-05-14T14:52:06Z</time>
      </trkpt>
      <trkpt lat="43.68262" lon="6.97238">
        <ele>449.56292724609</ele>
        <time>2020-05-14T14:52:07Z</time>
      </trkpt>
      <trkpt lat="43.68255" lon="6.97225">
        <ele>449.89221191406</ele>
        <time>2020-05-14T14:52:08Z</time>
      </trkpt>
      <trkpt lat="43.68249" lon="6.97211">
        <ele>450.6923828125</ele>
        <time>2020-05-14T14:52:09Z</time>
      </trkpt>
      <trkpt lat="43.68242" lon="6.97195">
        <ele>446.84887695312</ele>
        <time>2020-05-14T14:52:10Z</time>
      </trkpt>
      <trkpt lat="43.68238" lon="6.9718">
        <ele>445.86724853516</ele>
        <time>2020-05-14T14:52:11Z</time>
      </trkpt>
      <trkpt lat="43.68235" lon="6.97165">
        <ele>445.2138671875</ele>
        <time>2020-05-14T14:52:12Z</time>
      </trkpt>
      <trkpt lat="43.68232" lon="6.9715">
        <ele>445.24426269531</ele>
        <time>2020-05-14T14:52:13Z</time>
      </trkpt>
      <trkpt lat="43.68227" lon="6.97135">
        <ele>445.06274414062</ele>
        <time>2020-05-14T14:52:14Z</time>
      </trkpt>
      <trkpt lat="43.68223" lon="6.97121">
        <ele>445.66662597656</ele>
        <time>2020-05-14T14:52:15Z</time>
      </trkpt>
      <trkpt lat="43.68213" lon="6.97115">
        <ele>444.30065917969</ele>
        <time>2020-05-14T14:52:16Z</time>
      </trkpt>
      <trkpt lat="43.68203" lon="6.9711">
        <ele>443.90417480469</ele>
        <time>2020-05-14T14:52:17Z</time>
      </trkpt>
      <trkpt lat="43.68192" lon="6.9711">
        <ele>443.31665039062</ele>
        <time>2020-05-14T14:52:18Z</time>
      </trkpt>
      <trkpt lat="43.68182" lon="6.97112">
        <ele>442.15069580078</ele>
        <time>2020-05-14T14:52:19Z</time>
      </trkpt>
      <trkpt lat="43.68173" lon="6.97117">
        <ele>442.38696289062</ele>
        <time>2020-05-14T14:52:20Z</time>
      </trkpt>
      <trkpt lat="43.68162" lon="6.97125">
        <ele>442.01696777344</ele>
        <time>2020-05-14T14:52:21Z</time>
      </trkpt>
      <trkpt lat="43.68151" lon="6.97133">
        <ele>441.20849609375</ele>
        <time>2020-05-14T14:52:22Z</time>
      </trkpt>
      <trkpt lat="43.68142" lon="6.97141">
        <ele>440.9619140625</ele>
        <time>2020-05-14T14:52:23Z</time>
      </trkpt>
      <trkpt lat="43.68132" lon="6.9715">
        <ele>440.24047851562</ele>
        <time>2020-05-14T14:52:24Z</time>
      </trkpt>
      <trkpt lat="43.68123" lon="6.97158">
        <ele>439.83422851562</ele>
        <time>2020-05-14T14:52:25Z</time>
      </trkpt>
      <trkpt lat="43.68114" lon="6.97166">
        <ele>439.63586425781</ele>
        <time>2020-05-14T14:52:26Z</time>
      </trkpt>
      <trkpt lat="43.68106" lon="6.9717">
        <ele>439.03125</ele>
        <time>2020-05-14T14:52:27Z</time>
      </trkpt>
      <trkpt lat="43.68098" lon="6.97172">
        <ele>438.54498291016</ele>
        <time>2020-05-14T14:52:28Z</time>
      </trkpt>
      <trkpt lat="43.6809" lon="6.97173">
        <ele>438.40356445312</ele>
        <time>2020-05-14T14:52:29Z</time>
      </trkpt>
      <trkpt lat="43.68083" lon="6.97173">
        <ele>437.66589355469</ele>
        <time>2020-05-14T14:52:30Z</time>
      </trkpt>
      <trkpt lat="43.68076" lon="6.97168">
        <ele>437.14514160156</ele>
        <time>2020-05-14T14:52:31Z</time>
      </trkpt>
      <trkpt lat="43.68071" lon="6.97165">
        <ele>437.75646972656</ele>
        <time>2020-05-14T14:52:32Z</time>
      </trkpt>
      <trkpt lat="43.68065" lon="6.9716">
        <ele>437.20129394531</ele>
        <time>2020-05-14T14:52:33Z</time>
      </trkpt>
      <trkpt lat="43.68062" lon="6.97156">
        <ele>436.98071289062</ele>
        <time>2020-05-14T14:52:34Z</time>
      </trkpt>
      <trkpt lat="43.68058" lon="6.97151">
        <ele>437.2080078125</ele>
        <time>2020-05-14T14:52:35Z</time>
      </trkpt>
      <trkpt lat="43.68056" lon="6.97147">
        <ele>436.48327636719</ele>
        <time>2020-05-14T14:52:36Z</time>
      </trkpt>
      <trkpt lat="43.68052" lon="6.97142">
        <ele>436.42785644531</ele>
        <time>2020-05-14T14:52:37Z</time>
      </trkpt>
      <trkpt lat="43.68048" lon="6.97139">
        <ele>436.47338867188</ele>
        <time>2020-05-14T14:52:38Z</time>
      </trkpt>
      <trkpt lat="43.68042" lon="6.97139">
        <ele>436.37963867188</ele>
        <time>2020-05-14T14:52:39Z</time>
      </trkpt>
      <trkpt lat="43.68037" lon="6.97142">
        <ele>436.42370605469</ele>
        <time>2020-05-14T14:52:40Z</time>
      </trkpt>
      <trkpt lat="43.68032" lon="6.97146">
        <ele>436.74090576172</ele>
        <time>2020-05-14T14:52:41Z</time>
      </trkpt>
      <trkpt lat="43.68026" lon="6.9715">
        <ele>437.26745605469</ele>
        <time>2020-05-14T14:52:42Z</time>
      </trkpt>
      <trkpt lat="43.6802" lon="6.97155">
        <ele>438.00738525391</ele>
        <time>2020-05-14T14:52:43Z</time>
      </trkpt>
      <trkpt lat="43.68015" lon="6.97161">
        <ele>438.88684082031</ele>
        <time>2020-05-14T14:52:44Z</time>
      </trkpt>
      <trkpt lat="43.6801" lon="6.97168">
        <ele>438.99353027344</ele>
        <time>2020-05-14T14:52:45Z</time>
      </trkpt>
      <trkpt lat="43.68006" lon="6.97175">
        <ele>439.18139648438</ele>
        <time>2020-05-14T14:52:46Z</time>
      </trkpt>
      <trkpt lat="43.68001" lon="6.97183">
        <ele>438.16943359375</ele>
        <time>2020-05-14T14:52:47Z</time>
      </trkpt>
      <trkpt lat="43.67995" lon="6.97191">
        <ele>440.04833984375</ele>
        <time>2020-05-14T14:52:48Z</time>
      </trkpt>
      <trkpt lat="43.6799" lon="6.97199">
        <ele>440.07055664062</ele>
        <time>2020-05-14T14:52:49Z</time>
      </trkpt>
      <trkpt lat="43.67984" lon="6.97206">
        <ele>440.67395019531</ele>
        <time>2020-05-14T14:52:50Z</time>
      </trkpt>
      <trkpt lat="43.67977" lon="6.97214">
        <ele>440.4912109375</ele>
        <time>2020-05-14T14:52:51Z</time>
      </trkpt>
      <trkpt lat="43.67972" lon="6.97224">
        <ele>439.81909179688</ele>
        <time>2020-05-14T14:52:52Z</time>
      </trkpt>
      <trkpt lat="43.67967" lon="6.97231">
        <ele>438.99835205078</ele>
        <time>2020-05-14T14:52:53Z</time>
      </trkpt>
      <trkpt lat="43.67961" lon="6.97239">
        <ele>439.19799804688</ele>
        <time>2020-05-14T14:52:54Z</time>
      </trkpt>
      <trkpt lat="43.67956" lon="6.97248">
        <ele>439.01293945312</ele>
        <time>2020-05-14T14:52:55Z</time>
      </trkpt>
      <trkpt lat="43.6795" lon="6.97255">
        <ele>439.94982910156</ele>
        <time>2020-05-14T14:52:56Z</time>
      </trkpt>
      <trkpt lat="43.67946" lon="6.97264">
        <ele>439.89178466797</ele>
        <time>2020-05-14T14:52:57Z</time>
      </trkpt>
      <trkpt lat="43.67941" lon="6.97271">
        <ele>440.06085205078</ele>
        <time>2020-05-14T14:52:58Z</time>
      </trkpt>
      <trkpt lat="43.67936" lon="6.97278">
        <ele>439.15356445312</ele>
        <time>2020-05-14T14:52:59Z</time>
      </trkpt>
      <trkpt lat="43.67933" lon="6.97285">
        <ele>437.38696289062</ele>
        <time>2020-05-14T14:53:00Z</time>
      </trkpt>
      <trkpt lat="43.67929" lon="6.97291">
        <ele>436.99114990234</ele>
        <time>2020-05-14T14:53:01Z</time>
      </trkpt>
      <trkpt lat="43.67925" lon="6.97293">
        <ele>436.88110351562</ele>
        <time>2020-05-14T14:53:02Z</time>
      </trkpt>
      <trkpt lat="43.67923" lon="6.97292">
        <ele>436.25</ele>
        <time>2020-05-14T14:53:03Z</time>
      </trkpt>
      <trkpt lat="43.67921" lon="6.97293">
        <ele>436.24426269531</ele>
        <time>2020-05-14T14:53:04Z</time>
      </trkpt>
      <trkpt lat="43.67919" lon="6.97293">
        <ele>436.3251953125</ele>
        <time>2020-05-14T14:53:05Z</time>
      </trkpt>
      <trkpt lat="43.67916" lon="6.97294">
        <ele>437.32189941406</ele>
        <time>2020-05-14T14:53:06Z</time>
      </trkpt>
      <trkpt lat="43.67912" lon="6.97293">
        <ele>437.01354980469</ele>
        <time>2020-05-14T14:53:07Z</time>
      </trkpt>
      <trkpt lat="43.67908" lon="6.97292">
        <ele>436.15588378906</ele>
        <time>2020-05-14T14:53:08Z</time>
      </trkpt>
      <trkpt lat="43.67903" lon="6.97293">
        <ele>436.43615722656</ele>
        <time>2020-05-14T14:53:09Z</time>
      </trkpt>
      <trkpt lat="43.67899" lon="6.97295">
        <ele>436.74633789062</ele>
        <time>2020-05-14T14:53:10Z</time>
      </trkpt>
      <trkpt lat="43.67896" lon="6.97299">
        <ele>437.39453125</ele>
        <time>2020-05-14T14:53:11Z</time>
      </trkpt>
      <trkpt lat="43.67893" lon="6.97303">
        <ele>437.26208496094</ele>
        <time>2020-05-14T14:53:12Z</time>
      </trkpt>
      <trkpt lat="43.6789" lon="6.97308">
        <ele>437.25115966797</ele>
        <time>2020-05-14T14:53:13Z</time>
      </trkpt>
      <trkpt lat="43.67887" lon="6.97312">
        <ele>435.46801757812</ele>
        <time>2020-05-14T14:53:14Z</time>
      </trkpt>
      <trkpt lat="43.67883" lon="6.97316">
        <ele>436.17395019531</ele>
        <time>2020-05-14T14:53:15Z</time>
      </trkpt>
      <trkpt lat="43.67879" lon="6.97319">
        <ele>436.23779296875</ele>
        <time>2020-05-14T14:53:16Z</time>
      </trkpt>
      <trkpt lat="43.67875" lon="6.97322">
        <ele>435.85461425781</ele>
        <time>2020-05-14T14:53:17Z</time>
      </trkpt>
      <trkpt lat="43.6787" lon="6.97324">
        <ele>435.67565917969</ele>
        <time>2020-05-14T14:53:18Z</time>
      </trkpt>
      <trkpt lat="43.67867" lon="6.97328">
        <ele>438.87414550781</ele>
        <time>2020-05-14T14:53:19Z</time>
      </trkpt>
      <trkpt lat="43.67864" lon="6.97334">
        <ele>438.42810058594</ele>
        <time>2020-05-14T14:53:20Z</time>
      </trkpt>
      <trkpt lat="43.67862" lon="6.97341">
        <ele>437.65179443359</ele>
        <time>2020-05-14T14:53:21Z</time>
      </trkpt>
      <trkpt lat="43.67861" lon="6.97349">
        <ele>436.38842773438</ele>
        <time>2020-05-14T14:53:22Z</time>
      </trkpt>
      <trkpt lat="43.67859" lon="6.97356">
        <ele>435.93475341797</ele>
        <time>2020-05-14T14:53:23Z</time>
      </trkpt>
      <trkpt lat="43.67858" lon="6.97362">
        <ele>435.88916015625</ele>
        <time>2020-05-14T14:53:24Z</time>
      </trkpt>
      <trkpt lat="43.67856" lon="6.9737">
        <ele>435.71203613281</ele>
        <time>2020-05-14T14:53:25Z</time>
      </trkpt>
      <trkpt lat="43.67855" lon="6.97377">
        <ele>436.11309814453</ele>
        <time>2020-05-14T14:53:26Z</time>
      </trkpt>
      <trkpt lat="43.67853" lon="6.97384">
        <ele>436.79968261719</ele>
        <time>2020-05-14T14:53:27Z</time>
      </trkpt>
      <trkpt lat="43.67849" lon="6.9739">
        <ele>436.96765136719</ele>
        <time>2020-05-14T14:53:28Z</time>
      </trkpt>
      <trkpt lat="43.67846" lon="6.97397">
        <ele>436.853515625</ele>
        <time>2020-05-14T14:53:29Z</time>
      </trkpt>
      <trkpt lat="43.67842" lon="6.97406">
        <ele>436.54919433594</ele>
        <time>2020-05-14T14:53:30Z</time>
      </trkpt>
      <trkpt lat="43.67836" lon="6.9741">
        <ele>436.70648193359</ele>
        <time>2020-05-14T14:53:31Z</time>
      </trkpt>
      <trkpt lat="43.67831" lon="6.97414">
        <ele>437.82067871094</ele>
        <time>2020-05-14T14:53:32Z</time>
      </trkpt>
      <trkpt lat="43.67825" lon="6.97417">
        <ele>438.41198730469</ele>
        <time>2020-05-14T14:53:33Z</time>
      </trkpt>
      <trkpt lat="43.67818" lon="6.97419">
        <ele>437.94299316406</ele>
        <time>2020-05-14T14:53:34Z</time>
      </trkpt>
      <trkpt lat="43.67811" lon="6.97422">
        <ele>437.77380371094</ele>
        <time>2020-05-14T14:53:35Z</time>
      </trkpt>
      <trkpt lat="43.67805" lon="6.97425">
        <ele>437.02014160156</ele>
        <time>2020-05-14T14:53:36Z</time>
      </trkpt>
      <trkpt lat="43.67798" lon="6.97429">
        <ele>437.49102783203</ele>
        <time>2020-05-14T14:53:37Z</time>
      </trkpt>
      <trkpt lat="43.67792" lon="6.97433">
        <ele>391.80194091797</ele>
        <time>2020-05-14T14:53:38Z</time>
      </trkpt>
      <trkpt lat="43.67785" lon="6.97436">
        <ele>404.12384033203</ele>
        <time>2020-05-14T14:53:39Z</time>
      </trkpt>
      <trkpt lat="43.67778" lon="6.97438">
        <ele>403.49047851562</ele>
        <time>2020-05-14T14:53:40Z</time>
      </trkpt>
      <trkpt lat="43.67769" lon="6.9744">
        <ele>404.259765625</ele>
        <time>2020-05-14T14:53:41Z</time>
      </trkpt>
      <trkpt lat="43.67761" lon="6.97441">
        <ele>404.30163574219</ele>
        <time>2020-05-14T14:53:42Z</time>
      </trkpt>
      <trkpt lat="43.67755" lon="6.97442">
        <ele>402.37365722656</ele>
        <time>2020-05-14T14:53:43Z</time>
      </trkpt>
      <trkpt lat="43.67746" lon="6.97443">
        <ele>399.29595947266</ele>
        <time>2020-05-14T14:53:44Z</time>
      </trkpt>
      <trkpt lat="43.67736" lon="6.97447">
        <ele>399.14916992188</ele>
        <time>2020-05-14T14:53:45Z</time>
      </trkpt>
      <trkpt lat="43.67727" lon="6.97453">
        <ele>398.67907714844</ele>
        <time>2020-05-14T14:53:46Z</time>
      </trkpt>
      <trkpt lat="43.67719" lon="6.97457">
        <ele>398.58697509766</ele>
        <time>2020-05-14T14:53:47Z</time>
      </trkpt>
      <trkpt lat="43.6771" lon="6.97461">
        <ele>397.72387695312</ele>
        <time>2020-05-14T14:53:48Z</time>
      </trkpt>
      <trkpt lat="43.67703" lon="6.97467">
        <ele>400.0791015625</ele>
        <time>2020-05-14T14:53:49Z</time>
      </trkpt>
      <trkpt lat="43.67694" lon="6.97472">
        <ele>403.8837890625</ele>
        <time>2020-05-14T14:53:50Z</time>
      </trkpt>
      <trkpt lat="43.67684" lon="6.97476">
        <ele>403.1181640625</ele>
        <time>2020-05-14T14:53:51Z</time>
      </trkpt>
      <trkpt lat="43.67676" lon="6.97481">
        <ele>400.58654785156</ele>
        <time>2020-05-14T14:53:52Z</time>
      </trkpt>
      <trkpt lat="43.67667" lon="6.97486">
        <ele>400.78149414062</ele>
        <time>2020-05-14T14:53:53Z</time>
      </trkpt>
      <trkpt lat="43.67659" lon="6.97493">
        <ele>392.42944335938</ele>
        <time>2020-05-14T14:53:54Z</time>
      </trkpt>
      <trkpt lat="43.67651" lon="6.97499">
        <ele>387.73101806641</ele>
        <time>2020-05-14T14:53:55Z</time>
      </trkpt>
      <trkpt lat="43.67644" lon="6.97506">
        <ele>384.947265625</ele>
        <time>2020-05-14T14:53:56Z</time>
      </trkpt>
      <trkpt lat="43.67638" lon="6.97513">
        <ele>384.46130371094</ele>
        <time>2020-05-14T14:53:57Z</time>
      </trkpt>
      <trkpt lat="43.67633" lon="6.97521">
        <ele>383.98718261719</ele>
        <time>2020-05-14T14:53:58Z</time>
      </trkpt>
      <trkpt lat="43.67627" lon="6.9753">
        <ele>382.22253417969</ele>
        <time>2020-05-14T14:53:59Z</time>
      </trkpt>
      <trkpt lat="43.67625" lon="6.97541">
        <ele>389.98937988281</ele>
        <time>2020-05-14T14:54:00Z</time>
      </trkpt>
      <trkpt lat="43.67622" lon="6.97551">
        <ele>393.68957519531</ele>
        <time>2020-05-14T14:54:01Z</time>
      </trkpt>
      <trkpt lat="43.67619" lon="6.97562">
        <ele>396.47564697266</ele>
        <time>2020-05-14T14:54:02Z</time>
      </trkpt>
      <trkpt lat="43.67616" lon="6.97571">
        <ele>396.24267578125</ele>
        <time>2020-05-14T14:54:03Z</time>
      </trkpt>
      <trkpt lat="43.67613" lon="6.97581">
        <ele>398.51037597656</ele>
        <time>2020-05-14T14:54:04Z</time>
      </trkpt>
      <trkpt lat="43.6761" lon="6.9759">
        <ele>398.46783447266</ele>
        <time>2020-05-14T14:54:05Z</time>
      </trkpt>
      <trkpt lat="43.67607" lon="6.97599">
        <ele>397.93713378906</ele>
        <time>2020-05-14T14:54:06Z</time>
      </trkpt>
      <trkpt lat="43.67602" lon="6.97607">
        <ele>399.43133544922</ele>
        <time>2020-05-14T14:54:07Z</time>
      </trkpt>
      <trkpt lat="43.67598" lon="6.97616">
        <ele>396.56408691406</ele>
        <time>2020-05-14T14:54:08Z</time>
      </trkpt>
      <trkpt lat="43.67592" lon="6.97625">
        <ele>394.25964355469</ele>
        <time>2020-05-14T14:54:09Z</time>
      </trkpt>
      <trkpt lat="43.67587" lon="6.97633">
        <ele>390.96984863281</ele>
        <time>2020-05-14T14:54:10Z</time>
      </trkpt>
      <trkpt lat="43.67582" lon="6.9764">
        <ele>391.05029296875</ele>
        <time>2020-05-14T14:54:11Z</time>
      </trkpt>
      <trkpt lat="43.67577" lon="6.97648">
        <ele>388.67315673828</ele>
        <time>2020-05-14T14:54:12Z</time>
      </trkpt>
      <trkpt lat="43.67574" lon="6.97655">
        <ele>389.12976074219</ele>
        <time>2020-05-14T14:54:13Z</time>
      </trkpt>
      <trkpt lat="43.67567" lon="6.97662">
        <ele>387.61218261719</ele>
        <time>2020-05-14T14:54:14Z</time>
      </trkpt>
      <trkpt lat="43.67561" lon="6.97668">
        <ele>388.92083740234</ele>
        <time>2020-05-14T14:54:15Z</time>
      </trkpt>
      <trkpt lat="43.67553" lon="6.97676">
        <ele>389.58801269531</ele>
        <time>2020-05-14T14:54:16Z</time>
      </trkpt>
      <trkpt lat="43.67547" lon="6.97685">
        <ele>388.91284179688</ele>
        <time>2020-05-14T14:54:17Z</time>
      </trkpt>
      <trkpt lat="43.67541" lon="6.97696">
        <ele>390.14190673828</ele>
        <time>2020-05-14T14:54:18Z</time>
      </trkpt>
      <trkpt lat="43.67536" lon="6.97707">
        <ele>387.1025390625</ele>
        <time>2020-05-14T14:54:19Z</time>
      </trkpt>
      <trkpt lat="43.67531" lon="6.97719">
        <ele>389.91381835938</ele>
        <time>2020-05-14T14:54:20Z</time>
      </trkpt>
      <trkpt lat="43.67526" lon="6.9773">
        <ele>390.79211425781</ele>
        <time>2020-05-14T14:54:21Z</time>
      </trkpt>
      <trkpt lat="43.67518" lon="6.97741">
        <ele>381.95855712891</ele>
        <time>2020-05-14T14:54:22Z</time>
      </trkpt>
      <trkpt lat="43.6751" lon="6.9775">
        <ele>380.77160644531</ele>
        <time>2020-05-14T14:54:23Z</time>
      </trkpt>
      <trkpt lat="43.67501" lon="6.97757">
        <ele>394.54644775391</ele>
        <time>2020-05-14T14:54:24Z</time>
      </trkpt>
      <trkpt lat="43.6749" lon="6.97765">
        <ele>391.31121826172</ele>
        <time>2020-05-14T14:54:25Z</time>
      </trkpt>
      <trkpt lat="43.67482" lon="6.97772">
        <ele>389.28649902344</ele>
        <time>2020-05-14T14:54:26Z</time>
      </trkpt>
      <trkpt lat="43.67474" lon="6.97778">
        <ele>387.11022949219</ele>
        <time>2020-05-14T14:54:27Z</time>
      </trkpt>
      <trkpt lat="43.67465" lon="6.97784">
        <ele>387.7626953125</ele>
        <time>2020-05-14T14:54:28Z</time>
      </trkpt>
      <trkpt lat="43.67458" lon="6.9779">
        <ele>389.69250488281</ele>
        <time>2020-05-14T14:54:29Z</time>
      </trkpt>
      <trkpt lat="43.67452" lon="6.97796">
        <ele>390.36145019531</ele>
        <time>2020-05-14T14:54:30Z</time>
      </trkpt>
      <trkpt lat="43.67449" lon="6.97805">
        <ele>389.98852539062</ele>
        <time>2020-05-14T14:54:31Z</time>
      </trkpt>
      <trkpt lat="43.67445" lon="6.97814">
        <ele>382.787109375</ele>
        <time>2020-05-14T14:54:32Z</time>
      </trkpt>
      <trkpt lat="43.67446" lon="6.97822">
        <ele>381.93603515625</ele>
        <time>2020-05-14T14:54:33Z</time>
      </trkpt>
      <trkpt lat="43.67451" lon="6.97829">
        <ele>382.44360351562</ele>
        <time>2020-05-14T14:54:34Z</time>
      </trkpt>
      <trkpt lat="43.67457" lon="6.97832">
        <ele>384.93627929688</ele>
        <time>2020-05-14T14:54:35Z</time>
      </trkpt>
      <trkpt lat="43.67464" lon="6.97831">
        <ele>385.05407714844</ele>
        <time>2020-05-14T14:54:36Z</time>
      </trkpt>
      <trkpt lat="43.67469" lon="6.97826">
        <ele>385.67016601562</ele>
        <time>2020-05-14T14:54:37Z</time>
      </trkpt>
      <trkpt lat="43.67475" lon="6.9782">
        <ele>380.41284179688</ele>
        <time>2020-05-14T14:54:38Z</time>
      </trkpt>
      <trkpt lat="43.6748" lon="6.97812">
        <ele>380.91101074219</ele>
        <time>2020-05-14T14:54:39Z</time>
      </trkpt>
      <trkpt lat="43.67487" lon="6.97805">
        <ele>378.37689208984</ele>
        <time>2020-05-14T14:54:40Z</time>
      </trkpt>
      <trkpt lat="43.67492" lon="6.97798">
        <ele>375.30395507812</ele>
        <time>2020-05-14T14:54:41Z</time>
      </trkpt>
      <trkpt lat="43.67499" lon="6.9779">
        <ele>372.9013671875</ele>
        <time>2020-05-14T14:54:42Z</time>
      </trkpt>
      <trkpt lat="43.67508" lon="6.97784">
        <ele>380.01696777344</ele>
        <time>2020-05-14T14:54:43Z</time>
      </trkpt>
      <trkpt lat="43.67517" lon="6.97779">
        <ele>378.09631347656</ele>
        <time>2020-05-14T14:54:44Z</time>
      </trkpt>
      <trkpt lat="43.67526" lon="6.97772">
        <ele>378.02014160156</ele>
        <time>2020-05-14T14:54:45Z</time>
      </trkpt>
      <trkpt lat="43.67535" lon="6.97766">
        <ele>378.50891113281</ele>
        <time>2020-05-14T14:54:46Z</time>
      </trkpt>
      <trkpt lat="43.67546" lon="6.97761">
        <ele>376.412109375</ele>
        <time>2020-05-14T14:54:47Z</time>
      </trkpt>
      <trkpt lat="43.67556" lon="6.97755">
        <ele>376.04272460938</ele>
        <time>2020-05-14T14:54:48Z</time>
      </trkpt>
      <trkpt lat="43.67567" lon="6.97748">
        <ele>374.72241210938</ele>
        <time>2020-05-14T14:54:49Z</time>
      </trkpt>
      <trkpt lat="43.67578" lon="6.97742">
        <ele>369.93334960938</ele>
        <time>2020-05-14T14:54:50Z</time>
      </trkpt>
      <trkpt lat="43.67587" lon="6.97734">
        <ele>370.26129150391</ele>
        <time>2020-05-14T14:54:51Z</time>
      </trkpt>
      <trkpt lat="43.67596" lon="6.97725">
        <ele>369.6025390625</ele>
        <time>2020-05-14T14:54:52Z</time>
      </trkpt>
      <trkpt lat="43.67603" lon="6.97718">
        <ele>376.50720214844</ele>
        <time>2020-05-14T14:54:53Z</time>
      </trkpt>
      <trkpt lat="43.6761" lon="6.97712">
        <ele>375.29235839844</ele>
        <time>2020-05-14T14:54:54Z</time>
      </trkpt>
      <trkpt lat="43.67617" lon="6.97706">
        <ele>375.20806884766</ele>
        <time>2020-05-14T14:54:55Z</time>
      </trkpt>
      <trkpt lat="43.67625" lon="6.97708">
        <ele>376.09191894531</ele>
        <time>2020-05-14T14:54:56Z</time>
      </trkpt>
      <trkpt lat="43.67631" lon="6.97711">
        <ele>376.94818115234</ele>
        <time>2020-05-14T14:54:57Z</time>
      </trkpt>
      <trkpt lat="43.67636" lon="6.97717">
        <ele>377.63916015625</ele>
        <time>2020-05-14T14:54:58Z</time>
      </trkpt>
      <trkpt lat="43.67639" lon="6.97725">
        <ele>377.11389160156</ele>
        <time>2020-05-14T14:54:59Z</time>
      </trkpt>
      <trkpt lat="43.67638" lon="6.97735">
        <ele>376.07550048828</ele>
        <time>2020-05-14T14:55:00Z</time>
      </trkpt>
      <trkpt lat="43.67634" lon="6.97744">
        <ele>375.47094726562</ele>
        <time>2020-05-14T14:55:01Z</time>
      </trkpt>
      <trkpt lat="43.67628" lon="6.97751">
        <ele>374.15209960938</ele>
        <time>2020-05-14T14:55:02Z</time>
      </trkpt>
      <trkpt lat="43.67622" lon="6.97758">
        <ele>375.02514648438</ele>
        <time>2020-05-14T14:55:03Z</time>
      </trkpt>
      <trkpt lat="43.67616" lon="6.97765">
        <ele>376.85430908203</ele>
        <time>2020-05-14T14:55:04Z</time>
      </trkpt>
      <trkpt lat="43.67607" lon="6.97774">
        <ele>375.90936279297</ele>
        <time>2020-05-14T14:55:05Z</time>
      </trkpt>
      <trkpt lat="43.67601" lon="6.97784">
        <ele>376.4150390625</ele>
        <time>2020-05-14T14:55:06Z</time>
      </trkpt>
      <trkpt lat="43.67595" lon="6.97794">
        <ele>375.5986328125</ele>
        <time>2020-05-14T14:55:07Z</time>
      </trkpt>
      <trkpt lat="43.6759" lon="6.97806">
        <ele>376.06762695312</ele>
        <time>2020-05-14T14:55:08Z</time>
      </trkpt>
      <trkpt lat="43.67584" lon="6.97817">
        <ele>376.78210449219</ele>
        <time>2020-05-14T14:55:09Z</time>
      </trkpt>
      <trkpt lat="43.67578" lon="6.97831">
        <ele>377.26391601562</ele>
        <time>2020-05-14T14:55:10Z</time>
      </trkpt>
      <trkpt lat="43.67571" lon="6.97844">
        <ele>375.96948242188</ele>
        <time>2020-05-14T14:55:11Z</time>
      </trkpt>
      <trkpt lat="43.67565" lon="6.97857">
        <ele>375.85461425781</ele>
        <time>2020-05-14T14:55:12Z</time>
      </trkpt>
      <trkpt lat="43.67558" lon="6.9787">
        <ele>375.98382568359</ele>
        <time>2020-05-14T14:55:13Z</time>
      </trkpt>
      <trkpt lat="43.67551" lon="6.97882">
        <ele>376.32653808594</ele>
        <time>2020-05-14T14:55:14Z</time>
      </trkpt>
      <trkpt lat="43.67544" lon="6.97893">
        <ele>376.21081542969</ele>
        <time>2020-05-14T14:55:15Z</time>
      </trkpt>
      <trkpt lat="43.67534" lon="6.97903">
        <ele>375.24035644531</ele>
        <time>2020-05-14T14:55:16Z</time>
      </trkpt>
      <trkpt lat="43.67525" lon="6.97914">
        <ele>375.06341552734</ele>
        <time>2020-05-14T14:55:17Z</time>
      </trkpt>
      <trkpt lat="43.67517" lon="6.97925">
        <ele>374.24157714844</ele>
        <time>2020-05-14T14:55:18Z</time>
      </trkpt>
      <trkpt lat="43.67508" lon="6.97936">
        <ele>374.77941894531</ele>
        <time>2020-05-14T14:55:19Z</time>
      </trkpt>
      <trkpt lat="43.67497" lon="6.97947">
        <ele>374.75170898438</ele>
        <time>2020-05-14T14:55:20Z</time>
      </trkpt>
      <trkpt lat="43.67486" lon="6.97959">
        <ele>372.96667480469</ele>
        <time>2020-05-14T14:55:21Z</time>
      </trkpt>
      <trkpt lat="43.67475" lon="6.97969">
        <ele>373.56311035156</ele>
        <time>2020-05-14T14:55:22Z</time>
      </trkpt>
      <trkpt lat="43.67463" lon="6.9798">
        <ele>371.81457519531</ele>
        <time>2020-05-14T14:55:23Z</time>
      </trkpt>
      <trkpt lat="43.67452" lon="6.97992">
        <ele>371.37390136719</ele>
        <time>2020-05-14T14:55:24Z</time>
      </trkpt>
      <trkpt lat="43.6744" lon="6.98002">
        <ele>369.58508300781</ele>
        <time>2020-05-14T14:55:25Z</time>
      </trkpt>
      <trkpt lat="43.67429" lon="6.98016">
        <ele>367.63903808594</ele>
        <time>2020-05-14T14:55:26Z</time>
      </trkpt>
      <trkpt lat="43.67419" lon="6.98031">
        <ele>368.03198242188</ele>
        <time>2020-05-14T14:55:27Z</time>
      </trkpt>
      <trkpt lat="43.67407" lon="6.98044">
        <ele>367.05017089844</ele>
        <time>2020-05-14T14:55:28Z</time>
      </trkpt>
      <trkpt lat="43.67396" lon="6.98058">
        <ele>365.68701171875</ele>
        <time>2020-05-14T14:55:29Z</time>
      </trkpt>
      <trkpt lat="43.67386" lon="6.98073">
        <ele>368.84985351562</ele>
        <time>2020-05-14T14:55:30Z</time>
      </trkpt>
      <trkpt lat="43.67377" lon="6.98088">
        <ele>368.52307128906</ele>
        <time>2020-05-14T14:55:31Z</time>
      </trkpt>
      <trkpt lat="43.67365" lon="6.98102">
        <ele>367.73101806641</ele>
        <time>2020-05-14T14:55:32Z</time>
      </trkpt>
      <trkpt lat="43.6735" lon="6.98113">
        <ele>365.32556152344</ele>
        <time>2020-05-14T14:55:33Z</time>
      </trkpt>
      <trkpt lat="43.67337" lon="6.98126">
        <ele>365.38732910156</ele>
        <time>2020-05-14T14:55:34Z</time>
      </trkpt>
      <trkpt lat="43.67323" lon="6.98137">
        <ele>365.39074707031</ele>
        <time>2020-05-14T14:55:35Z</time>
      </trkpt>
      <trkpt lat="43.67309" lon="6.98148">
        <ele>365.48474121094</ele>
        <time>2020-05-14T14:55:36Z</time>
      </trkpt>
      <trkpt lat="43.67296" lon="6.98158">
        <ele>365.09729003906</ele>
        <time>2020-05-14T14:55:37Z</time>
      </trkpt>
      <trkpt lat="43.6728" lon="6.9817">
        <ele>364.81701660156</ele>
        <time>2020-05-14T14:55:38Z</time>
      </trkpt>
      <trkpt lat="43.67267" lon="6.98182">
        <ele>364.90179443359</ele>
        <time>2020-05-14T14:55:39Z</time>
      </trkpt>
      <trkpt lat="43.67251" lon="6.98193">
        <ele>363.26654052734</ele>
        <time>2020-05-14T14:55:40Z</time>
      </trkpt>
      <trkpt lat="43.67237" lon="6.98205">
        <ele>361.73559570312</ele>
        <time>2020-05-14T14:55:41Z</time>
      </trkpt>
      <trkpt lat="43.67225" lon="6.98219">
        <ele>361.31384277344</ele>
        <time>2020-05-14T14:55:42Z</time>
      </trkpt>
      <trkpt lat="43.67214" lon="6.9823">
        <ele>360.06909179688</ele>
        <time>2020-05-14T14:55:43Z</time>
      </trkpt>
      <trkpt lat="43.67204" lon="6.98242">
        <ele>357.97772216797</ele>
        <time>2020-05-14T14:55:44Z</time>
      </trkpt>
      <trkpt lat="43.67194" lon="6.98254">
        <ele>356.65185546875</ele>
        <time>2020-05-14T14:55:45Z</time>
      </trkpt>
      <trkpt lat="43.67182" lon="6.98264">
        <ele>357.03936767578</ele>
        <time>2020-05-14T14:55:46Z</time>
      </trkpt>
      <trkpt lat="43.67172" lon="6.98279">
        <ele>356.27026367188</ele>
        <time>2020-05-14T14:55:47Z</time>
      </trkpt>
      <trkpt lat="43.67158" lon="6.98289">
        <ele>354.65588378906</ele>
        <time>2020-05-14T14:55:48Z</time>
      </trkpt>
      <trkpt lat="43.67144" lon="6.98299">
        <ele>348.02136230469</ele>
        <time>2020-05-14T14:55:49Z</time>
      </trkpt>
      <trkpt lat="43.6713" lon="6.98308">
        <ele>347.92620849609</ele>
        <time>2020-05-14T14:55:50Z</time>
      </trkpt>
      <trkpt lat="43.67116" lon="6.98317">
        <ele>347.38220214844</ele>
        <time>2020-05-14T14:55:51Z</time>
      </trkpt>
      <trkpt lat="43.67102" lon="6.98327">
        <ele>346.19226074219</ele>
        <time>2020-05-14T14:55:52Z</time>
      </trkpt>
      <trkpt lat="43.67087" lon="6.98335">
        <ele>346.36938476562</ele>
        <time>2020-05-14T14:55:53Z</time>
      </trkpt>
      <trkpt lat="43.67073" lon="6.98344">
        <ele>347.75988769531</ele>
        <time>2020-05-14T14:55:54Z</time>
      </trkpt>
      <trkpt lat="43.67059" lon="6.98352">
        <ele>347.98059082031</ele>
        <time>2020-05-14T14:55:55Z</time>
      </trkpt>
      <trkpt lat="43.67044" lon="6.9836">
        <ele>346.74523925781</ele>
        <time>2020-05-14T14:55:56Z</time>
      </trkpt>
      <trkpt lat="43.6703" lon="6.98367">
        <ele>349.28649902344</ele>
        <time>2020-05-14T14:55:57Z</time>
      </trkpt>
      <trkpt lat="43.67016" lon="6.98376">
        <ele>350.40924072266</ele>
        <time>2020-05-14T14:55:58Z</time>
      </trkpt>
      <trkpt lat="43.67001" lon="6.98385">
        <ele>349.77648925781</ele>
        <time>2020-05-14T14:55:59Z</time>
      </trkpt>
      <trkpt lat="43.66989" lon="6.98395">
        <ele>349.38696289062</ele>
        <time>2020-05-14T14:56:00Z</time>
      </trkpt>
      <trkpt lat="43.66978" lon="6.98407">
        <ele>349.67944335938</ele>
        <time>2020-05-14T14:56:01Z</time>
      </trkpt>
      <trkpt lat="43.66968" lon="6.98418">
        <ele>341.62292480469</ele>
        <time>2020-05-14T14:56:02Z</time>
      </trkpt>
      <trkpt lat="43.66957" lon="6.98427">
        <ele>342.435546875</ele>
        <time>2020-05-14T14:56:03Z</time>
      </trkpt>
      <trkpt lat="43.66946" lon="6.98432">
        <ele>344.32678222656</ele>
        <time>2020-05-14T14:56:04Z</time>
      </trkpt>
      <trkpt lat="43.66934" lon="6.98436">
        <ele>344.89459228516</ele>
        <time>2020-05-14T14:56:05Z</time>
      </trkpt>
      <trkpt lat="43.66922" lon="6.98439">
        <ele>345.0869140625</ele>
        <time>2020-05-14T14:56:06Z</time>
      </trkpt>
      <trkpt lat="43.66911" lon="6.98441">
        <ele>344.31683349609</ele>
        <time>2020-05-14T14:56:07Z</time>
      </trkpt>
      <trkpt lat="43.669" lon="6.98444">
        <ele>344.48706054688</ele>
        <time>2020-05-14T14:56:08Z</time>
      </trkpt>
      <trkpt lat="43.66889" lon="6.98445">
        <ele>343.32531738281</ele>
        <time>2020-05-14T14:56:09Z</time>
      </trkpt>
      <trkpt lat="43.66878" lon="6.98449">
        <ele>343.07104492188</ele>
        <time>2020-05-14T14:56:10Z</time>
      </trkpt>
      <trkpt lat="43.66867" lon="6.9845">
        <ele>343.73419189453</ele>
        <time>2020-05-14T14:56:11Z</time>
      </trkpt>
      <trkpt lat="43.66856" lon="6.98451">
        <ele>343.09680175781</ele>
        <time>2020-05-14T14:56:12Z</time>
      </trkpt>
      <trkpt lat="43.66845" lon="6.98452">
        <ele>340.95758056641</ele>
        <time>2020-05-14T14:56:13Z</time>
      </trkpt>
      <trkpt lat="43.66836" lon="6.9845">
        <ele>341.7373046875</ele>
        <time>2020-05-14T14:56:14Z</time>
      </trkpt>
      <trkpt lat="43.66827" lon="6.98446">
        <ele>341.89196777344</ele>
        <time>2020-05-14T14:56:15Z</time>
      </trkpt>
      <trkpt lat="43.66818" lon="6.98444">
        <ele>341.09509277344</ele>
        <time>2020-05-14T14:56:16Z</time>
      </trkpt>
      <trkpt lat="43.66809" lon="6.98443">
        <ele>340.89752197266</ele>
        <time>2020-05-14T14:56:17Z</time>
      </trkpt>
      <trkpt lat="43.66801" lon="6.98447">
        <ele>340.65808105469</ele>
        <time>2020-05-14T14:56:18Z</time>
      </trkpt>
      <trkpt lat="43.66793" lon="6.9845">
        <ele>339.22479248047</ele>
        <time>2020-05-14T14:56:19Z</time>
      </trkpt>
      <trkpt lat="43.66785" lon="6.98457">
        <ele>339.43408203125</ele>
        <time>2020-05-14T14:56:20Z</time>
      </trkpt>
      <trkpt lat="43.66775" lon="6.98458">
        <ele>339.80474853516</ele>
        <time>2020-05-14T14:56:21Z</time>
      </trkpt>
      <trkpt lat="43.66766" lon="6.98459">
        <ele>343.73413085938</ele>
        <time>2020-05-14T14:56:22Z</time>
      </trkpt>
      <trkpt lat="43.66756" lon="6.9846">
        <ele>344.53393554688</ele>
        <time>2020-05-14T14:56:23Z</time>
      </trkpt>
      <trkpt lat="43.66746" lon="6.98459">
        <ele>343.69140625</ele>
        <time>2020-05-14T14:56:24Z</time>
      </trkpt>
      <trkpt lat="43.66736" lon="6.98459">
        <ele>343.25207519531</ele>
        <time>2020-05-14T14:56:25Z</time>
      </trkpt>
      <trkpt lat="43.66726" lon="6.98459">
        <ele>342.06774902344</ele>
        <time>2020-05-14T14:56:26Z</time>
      </trkpt>
      <trkpt lat="43.66716" lon="6.98459">
        <ele>342.95794677734</ele>
        <time>2020-05-14T14:56:27Z</time>
      </trkpt>
      <trkpt lat="43.66706" lon="6.9846">
        <ele>344.17175292969</ele>
        <time>2020-05-14T14:56:28Z</time>
      </trkpt>
      <trkpt lat="43.66696" lon="6.98462">
        <ele>343.52783203125</ele>
        <time>2020-05-14T14:56:29Z</time>
      </trkpt>
      <trkpt lat="43.66687" lon="6.98465">
        <ele>343.59600830078</ele>
        <time>2020-05-14T14:56:30Z</time>
      </trkpt>
      <trkpt lat="43.66679" lon="6.98469">
        <ele>347.10247802734</ele>
        <time>2020-05-14T14:56:31Z</time>
      </trkpt>
      <trkpt lat="43.66669" lon="6.98473">
        <ele>348.01928710938</ele>
        <time>2020-05-14T14:56:32Z</time>
      </trkpt>
      <trkpt lat="43.6666" lon="6.98476">
        <ele>331.27099609375</ele>
        <time>2020-05-14T14:56:33Z</time>
      </trkpt>
      <trkpt lat="43.66653" lon="6.98481">
        <ele>330.92907714844</ele>
        <time>2020-05-14T14:56:34Z</time>
      </trkpt>
      <trkpt lat="43.66645" lon="6.98485">
        <ele>330.04638671875</ele>
        <time>2020-05-14T14:56:35Z</time>
      </trkpt>
      <trkpt lat="43.66637" lon="6.9849">
        <ele>329.94616699219</ele>
        <time>2020-05-14T14:56:36Z</time>
      </trkpt>
      <trkpt lat="43.66629" lon="6.98495">
        <ele>330.54223632812</ele>
        <time>2020-05-14T14:56:37Z</time>
      </trkpt>
      <trkpt lat="43.66621" lon="6.985">
        <ele>327.60833740234</ele>
        <time>2020-05-14T14:56:38Z</time>
      </trkpt>
      <trkpt lat="43.66613" lon="6.98505">
        <ele>326.42303466797</ele>
        <time>2020-05-14T14:56:39Z</time>
      </trkpt>
      <trkpt lat="43.66604" lon="6.98511">
        <ele>326.14672851562</ele>
        <time>2020-05-14T14:56:40Z</time>
      </trkpt>
      <trkpt lat="43.66597" lon="6.98515">
        <ele>324.57641601562</ele>
        <time>2020-05-14T14:56:41Z</time>
      </trkpt>
      <trkpt lat="43.6659" lon="6.98519">
        <ele>323.81799316406</ele>
        <time>2020-05-14T14:56:42Z</time>
      </trkpt>
      <trkpt lat="43.66581" lon="6.98523">
        <ele>323.33825683594</ele>
        <time>2020-05-14T14:56:43Z</time>
      </trkpt>
      <trkpt lat="43.66573" lon="6.98527">
        <ele>323.33837890625</ele>
        <time>2020-05-14T14:56:44Z</time>
      </trkpt>
      <trkpt lat="43.66566" lon="6.98532">
        <ele>322.24340820312</ele>
        <time>2020-05-14T14:56:45Z</time>
      </trkpt>
      <trkpt lat="43.66559" lon="6.98536">
        <ele>321.39581298828</ele>
        <time>2020-05-14T14:56:46Z</time>
      </trkpt>
      <trkpt lat="43.66551" lon="6.98541">
        <ele>321.02014160156</ele>
        <time>2020-05-14T14:56:47Z</time>
      </trkpt>
      <trkpt lat="43.66543" lon="6.98545">
        <ele>323.94274902344</ele>
        <time>2020-05-14T14:56:48Z</time>
      </trkpt>
      <trkpt lat="43.66536" lon="6.98551">
        <ele>324.17864990234</ele>
        <time>2020-05-14T14:56:49Z</time>
      </trkpt>
      <trkpt lat="43.66529" lon="6.98555">
        <ele>323.39013671875</ele>
        <time>2020-05-14T14:56:50Z</time>
      </trkpt>
      <trkpt lat="43.66521" lon="6.98561">
        <ele>321.79272460938</ele>
        <time>2020-05-14T14:56:51Z</time>
      </trkpt>
      <trkpt lat="43.66513" lon="6.98567">
        <ele>338.17987060547</ele>
        <time>2020-05-14T14:56:52Z</time>
      </trkpt>
      <trkpt lat="43.66505" lon="6.98571">
        <ele>330.06433105469</ele>
        <time>2020-05-14T14:56:53Z</time>
      </trkpt>
      <trkpt lat="43.66498" lon="6.98576">
        <ele>328.65930175781</ele>
        <time>2020-05-14T14:56:54Z</time>
      </trkpt>
      <trkpt lat="43.6649" lon="6.98581">
        <ele>328.28753662109</ele>
        <time>2020-05-14T14:56:55Z</time>
      </trkpt>
      <trkpt lat="43.66484" lon="6.98588">
        <ele>326.22888183594</ele>
        <time>2020-05-14T14:56:56Z</time>
      </trkpt>
      <trkpt lat="43.66476" lon="6.98594">
        <ele>325.06970214844</ele>
        <time>2020-05-14T14:56:57Z</time>
      </trkpt>
      <trkpt lat="43.66468" lon="6.98598">
        <ele>324.03619384766</ele>
        <time>2020-05-14T14:56:58Z</time>
      </trkpt>
      <trkpt lat="43.66461" lon="6.98602">
        <ele>320.27697753906</ele>
        <time>2020-05-14T14:56:59Z</time>
      </trkpt>
      <trkpt lat="43.6645" lon="6.98607">
        <ele>320.61950683594</ele>
        <time>2020-05-14T14:57:00Z</time>
      </trkpt>
      <trkpt lat="43.66443" lon="6.9861">
        <ele>320.17559814453</ele>
        <time>2020-05-14T14:57:01Z</time>
      </trkpt>
      <trkpt lat="43.66435" lon="6.98614">
        <ele>320.67065429688</ele>
        <time>2020-05-14T14:57:02Z</time>
      </trkpt>
      <trkpt lat="43.66427" lon="6.98616">
        <ele>327.11926269531</ele>
        <time>2020-05-14T14:57:03Z</time>
      </trkpt>
      <trkpt lat="43.6642" lon="6.98619">
        <ele>328.25592041016</ele>
        <time>2020-05-14T14:57:04Z</time>
      </trkpt>
      <trkpt lat="43.66412" lon="6.98624">
        <ele>318.74279785156</ele>
        <time>2020-05-14T14:57:05Z</time>
      </trkpt>
      <trkpt lat="43.66405" lon="6.98628">
        <ele>318.34729003906</ele>
        <time>2020-05-14T14:57:06Z</time>
      </trkpt>
      <trkpt lat="43.66397" lon="6.9863">
        <ele>318.75158691406</ele>
        <time>2020-05-14T14:57:07Z</time>
      </trkpt>
      <trkpt lat="43.66388" lon="6.98634">
        <ele>320.51123046875</ele>
        <time>2020-05-14T14:57:08Z</time>
      </trkpt>
      <trkpt lat="43.6638" lon="6.98637">
        <ele>322.29406738281</ele>
        <time>2020-05-14T14:57:09Z</time>
      </trkpt>
      <trkpt lat="43.66373" lon="6.9864">
        <ele>320.03161621094</ele>
        <time>2020-05-14T14:57:10Z</time>
      </trkpt>
      <trkpt lat="43.66365" lon="6.98642">
        <ele>320.82360839844</ele>
        <time>2020-05-14T14:57:11Z</time>
      </trkpt>
      <trkpt lat="43.66358" lon="6.98647">
        <ele>320.88250732422</ele>
        <time>2020-05-14T14:57:12Z</time>
      </trkpt>
      <trkpt lat="43.6635" lon="6.9865">
        <ele>319.56469726562</ele>
        <time>2020-05-14T14:57:13Z</time>
      </trkpt>
      <trkpt lat="43.66343" lon="6.98654">
        <ele>321.55487060547</ele>
        <time>2020-05-14T14:57:14Z</time>
      </trkpt>
      <trkpt lat="43.66335" lon="6.9866">
        <ele>323.67272949219</ele>
        <time>2020-05-14T14:57:15Z</time>
      </trkpt>
      <trkpt lat="43.66329" lon="6.98666">
        <ele>322.80346679688</ele>
        <time>2020-05-14T14:57:16Z</time>
      </trkpt>
      <trkpt lat="43.66322" lon="6.98671">
        <ele>324.73046875</ele>
        <time>2020-05-14T14:57:17Z</time>
      </trkpt>
      <trkpt lat="43.66313" lon="6.98675">
        <ele>319.759765625</ele>
        <time>2020-05-14T14:57:18Z</time>
      </trkpt>
      <trkpt lat="43.66306" lon="6.9868">
        <ele>318.52087402344</ele>
        <time>2020-05-14T14:57:19Z</time>
      </trkpt>
      <trkpt lat="43.66299" lon="6.98684">
        <ele>320.67700195312</ele>
        <time>2020-05-14T14:57:20Z</time>
      </trkpt>
      <trkpt lat="43.66292" lon="6.98689">
        <ele>318.54144287109</ele>
        <time>2020-05-14T14:57:21Z</time>
      </trkpt>
      <trkpt lat="43.66286" lon="6.98694">
        <ele>316.91528320312</ele>
        <time>2020-05-14T14:57:22Z</time>
      </trkpt>
      <trkpt lat="43.66279" lon="6.98699">
        <ele>314.10327148438</ele>
        <time>2020-05-14T14:57:23Z</time>
      </trkpt>
      <trkpt lat="43.66272" lon="6.98705">
        <ele>313.61169433594</ele>
        <time>2020-05-14T14:57:24Z</time>
      </trkpt>
      <trkpt lat="43.66264" lon="6.98708">
        <ele>312.63073730469</ele>
        <time>2020-05-14T14:57:25Z</time>
      </trkpt>
      <trkpt lat="43.66257" lon="6.98711">
        <ele>312.41320800781</ele>
        <time>2020-05-14T14:57:26Z</time>
      </trkpt>
      <trkpt lat="43.66249" lon="6.98714">
        <ele>319.9462890625</ele>
        <time>2020-05-14T14:57:27Z</time>
      </trkpt>
      <trkpt lat="43.66242" lon="6.98717">
        <ele>318.53295898438</ele>
        <time>2020-05-14T14:57:28Z</time>
      </trkpt>
      <trkpt lat="43.66236" lon="6.98718">
        <ele>317.21826171875</ele>
        <time>2020-05-14T14:57:29Z</time>
      </trkpt>
      <trkpt lat="43.66228" lon="6.98721">
        <ele>318.21160888672</ele>
        <time>2020-05-14T14:57:30Z</time>
      </trkpt>
      <trkpt lat="43.66222" lon="6.98723">
        <ele>318.73956298828</ele>
        <time>2020-05-14T14:57:31Z</time>
      </trkpt>
      <trkpt lat="43.66215" lon="6.98724">
        <ele>318.52416992188</ele>
        <time>2020-05-14T14:57:32Z</time>
      </trkpt>
      <trkpt lat="43.66206" lon="6.98727">
        <ele>319.33251953125</ele>
        <time>2020-05-14T14:57:33Z</time>
      </trkpt>
      <trkpt lat="43.66199" lon="6.98728">
        <ele>323.55969238281</ele>
        <time>2020-05-14T14:57:34Z</time>
      </trkpt>
      <trkpt lat="43.66192" lon="6.9873">
        <ele>305.96984863281</ele>
        <time>2020-05-14T14:57:35Z</time>
      </trkpt>
      <trkpt lat="43.66186" lon="6.98732">
        <ele>301.30035400391</ele>
        <time>2020-05-14T14:57:36Z</time>
      </trkpt>
      <trkpt lat="43.66178" lon="6.98733">
        <ele>294.18566894531</ele>
        <time>2020-05-14T14:57:37Z</time>
      </trkpt>
      <trkpt lat="43.66171" lon="6.98736">
        <ele>291.85913085938</ele>
        <time>2020-05-14T14:57:38Z</time>
      </trkpt>
      <trkpt lat="43.66165" lon="6.98737">
        <ele>290.45922851562</ele>
        <time>2020-05-14T14:57:39Z</time>
      </trkpt>
      <trkpt lat="43.66158" lon="6.98739">
        <ele>291.36541748047</ele>
        <time>2020-05-14T14:57:40Z</time>
      </trkpt>
      <trkpt lat="43.66151" lon="6.98741">
        <ele>291.03576660156</ele>
        <time>2020-05-14T14:57:41Z</time>
      </trkpt>
      <trkpt lat="43.66146" lon="6.98743">
        <ele>292.08410644531</ele>
        <time>2020-05-14T14:57:42Z</time>
      </trkpt>
      <trkpt lat="43.6614" lon="6.98746">
        <ele>292.53131103516</ele>
        <time>2020-05-14T14:57:43Z</time>
      </trkpt>
      <trkpt lat="43.66136" lon="6.9875">
        <ele>292.16174316406</ele>
        <time>2020-05-14T14:57:44Z</time>
      </trkpt>
      <trkpt lat="43.66132" lon="6.98753">
        <ele>292.53576660156</ele>
        <time>2020-05-14T14:57:45Z</time>
      </trkpt>
      <trkpt lat="43.66127" lon="6.98756">
        <ele>332.73266601562</ele>
        <time>2020-05-14T14:57:46Z</time>
      </trkpt>
      <trkpt lat="43.66123" lon="6.98759">
        <ele>330.75012207031</ele>
        <time>2020-05-14T14:57:47Z</time>
      </trkpt>
      <trkpt lat="43.66118" lon="6.98765">
        <ele>331.90014648438</ele>
        <time>2020-05-14T14:57:48Z</time>
      </trkpt>
      <trkpt lat="43.66115" lon="6.98772">
        <ele>333.73803710938</ele>
        <time>2020-05-14T14:57:49Z</time>
      </trkpt>
      <trkpt lat="43.66112" lon="6.98779">
        <ele>344.13232421875</ele>
        <time>2020-05-14T14:57:50Z</time>
      </trkpt>
      <trkpt lat="43.6611" lon="6.98785">
        <ele>346.3349609375</ele>
        <time>2020-05-14T14:57:51Z</time>
      </trkpt>
      <trkpt lat="43.66107" lon="6.98791">
        <ele>350.33636474609</ele>
        <time>2020-05-14T14:57:52Z</time>
      </trkpt>
      <trkpt lat="43.66104" lon="6.98798">
        <ele>350.20031738281</ele>
        <time>2020-05-14T14:57:53Z</time>
      </trkpt>
      <trkpt lat="43.66102" lon="6.98805">
        <ele>338.52673339844</ele>
        <time>2020-05-14T14:57:54Z</time>
      </trkpt>
      <trkpt lat="43.66099" lon="6.98814">
        <ele>341.20245361328</ele>
        <time>2020-05-14T14:57:55Z</time>
      </trkpt>
      <trkpt lat="43.66097" lon="6.98821">
        <ele>340.88629150391</ele>
        <time>2020-05-14T14:57:56Z</time>
      </trkpt>
      <trkpt lat="43.66096" lon="6.9883">
        <ele>341.45275878906</ele>
        <time>2020-05-14T14:57:57Z</time>
      </trkpt>
      <trkpt lat="43.66094" lon="6.98838">
        <ele>339.36138916016</ele>
        <time>2020-05-14T14:57:58Z</time>
      </trkpt>
      <trkpt lat="43.66092" lon="6.98847">
        <ele>336.82250976562</ele>
        <time>2020-05-14T14:57:59Z</time>
      </trkpt>
      <trkpt lat="43.66089" lon="6.98855">
        <ele>333.89379882812</ele>
        <time>2020-05-14T14:58:00Z</time>
      </trkpt>
      <trkpt lat="43.66087" lon="6.98863">
        <ele>333.13586425781</ele>
        <time>2020-05-14T14:58:01Z</time>
      </trkpt>
      <trkpt lat="43.66086" lon="6.98873">
        <ele>334.22119140625</ele>
        <time>2020-05-14T14:58:02Z</time>
      </trkpt>
      <trkpt lat="43.66085" lon="6.98881">
        <ele>330.88287353516</ele>
        <time>2020-05-14T14:58:03Z</time>
      </trkpt>
      <trkpt lat="43.66083" lon="6.9889">
        <ele>327.30749511719</ele>
        <time>2020-05-14T14:58:04Z</time>
      </trkpt>
      <trkpt lat="43.66081" lon="6.98898">
        <ele>326.07244873047</ele>
        <time>2020-05-14T14:58:05Z</time>
      </trkpt>
      <trkpt lat="43.66079" lon="6.98907">
        <ele>327.68157958984</ele>
        <time>2020-05-14T14:58:06Z</time>
      </trkpt>
      <trkpt lat="43.66077" lon="6.98917">
        <ele>329.01287841797</ele>
        <time>2020-05-14T14:58:07Z</time>
      </trkpt>
      <trkpt lat="43.66075" lon="6.98925">
        <ele>327.36291503906</ele>
        <time>2020-05-14T14:58:08Z</time>
      </trkpt>
      <trkpt lat="43.66074" lon="6.98934">
        <ele>328.3779296875</ele>
        <time>2020-05-14T14:58:09Z</time>
      </trkpt>
      <trkpt lat="43.66072" lon="6.98943">
        <ele>327.5234375</ele>
        <time>2020-05-14T14:58:10Z</time>
      </trkpt>
      <trkpt lat="43.6607" lon="6.98952">
        <ele>328.18957519531</ele>
        <time>2020-05-14T14:58:11Z</time>
      </trkpt>
      <trkpt lat="43.66068" lon="6.98961">
        <ele>327.94787597656</ele>
        <time>2020-05-14T14:58:12Z</time>
      </trkpt>
      <trkpt lat="43.66066" lon="6.98971">
        <ele>337.01135253906</ele>
        <time>2020-05-14T14:58:13Z</time>
      </trkpt>
      <trkpt lat="43.66064" lon="6.9898">
        <ele>334.6025390625</ele>
        <time>2020-05-14T14:58:14Z</time>
      </trkpt>
      <trkpt lat="43.66062" lon="6.98988">
        <ele>339.03735351562</ele>
        <time>2020-05-14T14:58:15Z</time>
      </trkpt>
      <trkpt lat="43.6606" lon="6.98997">
        <ele>324.80126953125</ele>
        <time>2020-05-14T14:58:16Z</time>
      </trkpt>
      <trkpt lat="43.66056" lon="6.99005">
        <ele>295.55578613281</ele>
        <time>2020-05-14T14:58:17Z</time>
      </trkpt>
      <trkpt lat="43.66053" lon="6.99014">
        <ele>294.89697265625</ele>
        <time>2020-05-14T14:58:18Z</time>
      </trkpt>
      <trkpt lat="43.6605" lon="6.99024">
        <ele>294.41137695312</ele>
        <time>2020-05-14T14:58:19Z</time>
      </trkpt>
      <trkpt lat="43.66047" lon="6.99032">
        <ele>294.27612304688</ele>
        <time>2020-05-14T14:58:20Z</time>
      </trkpt>
      <trkpt lat="43.66044" lon="6.99042">
        <ele>293.88024902344</ele>
        <time>2020-05-14T14:58:21Z</time>
      </trkpt>
      <trkpt lat="43.66041" lon="6.9905">
        <ele>293.42761230469</ele>
        <time>2020-05-14T14:58:22Z</time>
      </trkpt>
      <trkpt lat="43.66037" lon="6.99058">
        <ele>293.94799804688</ele>
        <time>2020-05-14T14:58:23Z</time>
      </trkpt>
      <trkpt lat="43.66033" lon="6.99066">
        <ele>294.408203125</ele>
        <time>2020-05-14T14:58:24Z</time>
      </trkpt>
      <trkpt lat="43.66028" lon="6.99074">
        <ele>294.32849121094</ele>
        <time>2020-05-14T14:58:25Z</time>
      </trkpt>
      <trkpt lat="43.66025" lon="6.99083">
        <ele>294.89544677734</ele>
        <time>2020-05-14T14:58:26Z</time>
      </trkpt>
      <trkpt lat="43.66021" lon="6.99092">
        <ele>293.58337402344</ele>
        <time>2020-05-14T14:58:27Z</time>
      </trkpt>
      <trkpt lat="43.66017" lon="6.99101">
        <ele>293.26623535156</ele>
        <time>2020-05-14T14:58:28Z</time>
      </trkpt>
      <trkpt lat="43.66013" lon="6.9911">
        <ele>293.21752929688</ele>
        <time>2020-05-14T14:58:29Z</time>
      </trkpt>
      <trkpt lat="43.66009" lon="6.99119">
        <ele>293.47961425781</ele>
        <time>2020-05-14T14:58:30Z</time>
      </trkpt>
      <trkpt lat="43.66005" lon="6.99127">
        <ele>294.13342285156</ele>
        <time>2020-05-14T14:58:31Z</time>
      </trkpt>
      <trkpt lat="43.65999" lon="6.99136">
        <ele>293.57604980469</ele>
        <time>2020-05-14T14:58:32Z</time>
      </trkpt>
      <trkpt lat="43.65993" lon="6.99143">
        <ele>294.31890869141</ele>
        <time>2020-05-14T14:58:33Z</time>
      </trkpt>
      <trkpt lat="43.65988" lon="6.9915">
        <ele>295.30340576172</ele>
        <time>2020-05-14T14:58:34Z</time>
      </trkpt>
      <trkpt lat="43.65983" lon="6.99158">
        <ele>291.49432373047</ele>
        <time>2020-05-14T14:58:35Z</time>
      </trkpt>
      <trkpt lat="43.65978" lon="6.99164">
        <ele>290.09454345703</ele>
        <time>2020-05-14T14:58:36Z</time>
      </trkpt>
      <trkpt lat="43.65972" lon="6.99171">
        <ele>290.05065917969</ele>
        <time>2020-05-14T14:58:37Z</time>
      </trkpt>
      <trkpt lat="43.65967" lon="6.99177">
        <ele>289.66528320312</ele>
        <time>2020-05-14T14:58:38Z</time>
      </trkpt>
      <trkpt lat="43.65961" lon="6.99185">
        <ele>289.80310058594</ele>
        <time>2020-05-14T14:58:39Z</time>
      </trkpt>
      <trkpt lat="43.65955" lon="6.99192">
        <ele>289.45520019531</ele>
        <time>2020-05-14T14:58:40Z</time>
      </trkpt>
      <trkpt lat="43.6595" lon="6.992">
        <ele>289.52819824219</ele>
        <time>2020-05-14T14:58:41Z</time>
      </trkpt>
      <trkpt lat="43.65944" lon="6.99208">
        <ele>289.28137207031</ele>
        <time>2020-05-14T14:58:42Z</time>
      </trkpt>
      <trkpt lat="43.65938" lon="6.99214">
        <ele>288.73046875</ele>
        <time>2020-05-14T14:58:43Z</time>
      </trkpt>
      <trkpt lat="43.65932" lon="6.99222">
        <ele>288.87683105469</ele>
        <time>2020-05-14T14:58:44Z</time>
      </trkpt>
      <trkpt lat="43.65926" lon="6.9923">
        <ele>286.13098144531</ele>
        <time>2020-05-14T14:58:45Z</time>
      </trkpt>
      <trkpt lat="43.6592" lon="6.99238">
        <ele>285.01501464844</ele>
        <time>2020-05-14T14:58:46Z</time>
      </trkpt>
      <trkpt lat="43.65915" lon="6.99246">
        <ele>285.26354980469</ele>
        <time>2020-05-14T14:58:47Z</time>
      </trkpt>
      <trkpt lat="43.65909" lon="6.99253">
        <ele>285.96435546875</ele>
        <time>2020-05-14T14:58:48Z</time>
      </trkpt>
      <trkpt lat="43.65903" lon="6.99259">
        <ele>285.85864257812</ele>
        <time>2020-05-14T14:58:49Z</time>
      </trkpt>
      <trkpt lat="43.65899" lon="6.99267">
        <ele>286.16296386719</ele>
        <time>2020-05-14T14:58:50Z</time>
      </trkpt>
      <trkpt lat="43.65893" lon="6.99275">
        <ele>285.65759277344</ele>
        <time>2020-05-14T14:58:51Z</time>
      </trkpt>
      <trkpt lat="43.65889" lon="6.99285">
        <ele>285.51501464844</ele>
        <time>2020-05-14T14:58:52Z</time>
      </trkpt>
      <trkpt lat="43.65883" lon="6.99292">
        <ele>285.69445800781</ele>
        <time>2020-05-14T14:58:53Z</time>
      </trkpt>
      <trkpt lat="43.65879" lon="6.99301">
        <ele>285.40197753906</ele>
        <time>2020-05-14T14:58:54Z</time>
      </trkpt>
      <trkpt lat="43.65875" lon="6.9931">
        <ele>285.45324707031</ele>
        <time>2020-05-14T14:58:55Z</time>
      </trkpt>
      <trkpt lat="43.65871" lon="6.99321">
        <ele>284.9267578125</ele>
        <time>2020-05-14T14:58:56Z</time>
      </trkpt>
      <trkpt lat="43.65867" lon="6.99329">
        <ele>285.42565917969</ele>
        <time>2020-05-14T14:58:57Z</time>
      </trkpt>
      <trkpt lat="43.65864" lon="6.9934">
        <ele>284.91613769531</ele>
        <time>2020-05-14T14:58:58Z</time>
      </trkpt>
      <trkpt lat="43.6586" lon="6.9935">
        <ele>284.30792236328</ele>
        <time>2020-05-14T14:58:59Z</time>
      </trkpt>
      <trkpt lat="43.65856" lon="6.99361">
        <ele>283.42651367188</ele>
        <time>2020-05-14T14:59:00Z</time>
      </trkpt>
      <trkpt lat="43.65854" lon="6.99371">
        <ele>284.0751953125</ele>
        <time>2020-05-14T14:59:01Z</time>
      </trkpt>
      <trkpt lat="43.65853" lon="6.99382">
        <ele>284.31628417969</ele>
        <time>2020-05-14T14:59:02Z</time>
      </trkpt>
      <trkpt lat="43.65851" lon="6.99392">
        <ele>284.25988769531</ele>
        <time>2020-05-14T14:59:03Z</time>
      </trkpt>
      <trkpt lat="43.65849" lon="6.99402">
        <ele>284.40850830078</ele>
        <time>2020-05-14T14:59:04Z</time>
      </trkpt>
      <trkpt lat="43.65847" lon="6.99411">
        <ele>284.86218261719</ele>
        <time>2020-05-14T14:59:05Z</time>
      </trkpt>
      <trkpt lat="43.65845" lon="6.99421">
        <ele>285.02258300781</ele>
        <time>2020-05-14T14:59:06Z</time>
      </trkpt>
      <trkpt lat="43.65843" lon="6.9943">
        <ele>285.12939453125</ele>
        <time>2020-05-14T14:59:07Z</time>
      </trkpt>
      <trkpt lat="43.65841" lon="6.99439">
        <ele>285.24389648438</ele>
        <time>2020-05-14T14:59:08Z</time>
      </trkpt>
      <trkpt lat="43.65838" lon="6.99449">
        <ele>284.91931152344</ele>
        <time>2020-05-14T14:59:09Z</time>
      </trkpt>
      <trkpt lat="43.65836" lon="6.99459">
        <ele>285.30725097656</ele>
        <time>2020-05-14T14:59:10Z</time>
      </trkpt>
      <trkpt lat="43.65834" lon="6.99468">
        <ele>285.12463378906</ele>
        <time>2020-05-14T14:59:11Z</time>
      </trkpt>
      <trkpt lat="43.65831" lon="6.99477">
        <ele>284.22119140625</ele>
        <time>2020-05-14T14:59:12Z</time>
      </trkpt>
      <trkpt lat="43.65829" lon="6.99487">
        <ele>284.03076171875</ele>
        <time>2020-05-14T14:59:13Z</time>
      </trkpt>
      <trkpt lat="43.65827" lon="6.99497">
        <ele>284.04968261719</ele>
        <time>2020-05-14T14:59:14Z</time>
      </trkpt>
      <trkpt lat="43.65825" lon="6.99506">
        <ele>284.17626953125</ele>
        <time>2020-05-14T14:59:15Z</time>
      </trkpt>
      <trkpt lat="43.65823" lon="6.99516">
        <ele>283.94158935547</ele>
        <time>2020-05-14T14:59:16Z</time>
      </trkpt>
      <trkpt lat="43.65821" lon="6.99524">
        <ele>284.25329589844</ele>
        <time>2020-05-14T14:59:17Z</time>
      </trkpt>
      <trkpt lat="43.65817" lon="6.99532">
        <ele>284.34588623047</ele>
        <time>2020-05-14T14:59:18Z</time>
      </trkpt>
      <trkpt lat="43.65814" lon="6.99541">
        <ele>284.40032958984</ele>
        <time>2020-05-14T14:59:19Z</time>
      </trkpt>
      <trkpt lat="43.65812" lon="6.9955">
        <ele>284.58801269531</ele>
        <time>2020-05-14T14:59:20Z</time>
      </trkpt>
      <trkpt lat="43.65812" lon="6.99558">
        <ele>284.67224121094</ele>
        <time>2020-05-14T14:59:21Z</time>
      </trkpt>
      <trkpt lat="43.65812" lon="6.99566">
        <ele>284.64593505859</ele>
        <time>2020-05-14T14:59:22Z</time>
      </trkpt>
      <trkpt lat="43.65812" lon="6.99575">
        <ele>284.51611328125</ele>
        <time>2020-05-14T14:59:23Z</time>
      </trkpt>
      <trkpt lat="43.6581" lon="6.99585">
        <ele>284.40551757812</ele>
        <time>2020-05-14T14:59:24Z</time>
      </trkpt>
      <trkpt lat="43.65809" lon="6.99594">
        <ele>284.45123291016</ele>
        <time>2020-05-14T14:59:25Z</time>
      </trkpt>
      <trkpt lat="43.65807" lon="6.99602">
        <ele>284.59594726562</ele>
        <time>2020-05-14T14:59:26Z</time>
      </trkpt>
      <trkpt lat="43.65806" lon="6.99609">
        <ele>284.82580566406</ele>
        <time>2020-05-14T14:59:27Z</time>
      </trkpt>
      <trkpt lat="43.65804" lon="6.99616">
        <ele>284.62060546875</ele>
        <time>2020-05-14T14:59:28Z</time>
      </trkpt>
      <trkpt lat="43.65802" lon="6.99623">
        <ele>284.583984375</ele>
        <time>2020-05-14T14:59:29Z</time>
      </trkpt>
      <trkpt lat="43.65801" lon="6.9963">
        <ele>284.67523193359</ele>
        <time>2020-05-14T14:59:30Z</time>
      </trkpt>
      <trkpt lat="43.65799" lon="6.99636">
        <ele>284.78686523438</ele>
        <time>2020-05-14T14:59:31Z</time>
      </trkpt>
      <trkpt lat="43.65798" lon="6.99643">
        <ele>285.25305175781</ele>
        <time>2020-05-14T14:59:32Z</time>
      </trkpt>
      <trkpt lat="43.65797" lon="6.99649">
        <ele>285.24841308594</ele>
        <time>2020-05-14T14:59:33Z</time>
      </trkpt>
      <trkpt lat="43.65797" lon="6.99657">
        <ele>284.783203125</ele>
        <time>2020-05-14T14:59:34Z</time>
      </trkpt>
      <trkpt lat="43.65795" lon="6.99663">
        <ele>285.02160644531</ele>
        <time>2020-05-14T14:59:35Z</time>
      </trkpt>
      <trkpt lat="43.65793" lon="6.99669">
        <ele>284.7666015625</ele>
        <time>2020-05-14T14:59:36Z</time>
      </trkpt>
      <trkpt lat="43.65793" lon="6.99674">
        <ele>285.04907226562</ele>
        <time>2020-05-14T14:59:37Z</time>
      </trkpt>
      <trkpt lat="43.65791" lon="6.9968">
        <ele>285.0244140625</ele>
        <time>2020-05-14T14:59:38Z</time>
      </trkpt>
      <trkpt lat="43.6579" lon="6.99686">
        <ele>284.97241210938</ele>
        <time>2020-05-14T14:59:39Z</time>
      </trkpt>
      <trkpt lat="43.65788" lon="6.99691">
        <ele>284.69915771484</ele>
        <time>2020-05-14T14:59:40Z</time>
      </trkpt>
      <trkpt lat="43.65786" lon="6.99697">
        <ele>284.62329101562</ele>
        <time>2020-05-14T14:59:41Z</time>
      </trkpt>
      <trkpt lat="43.65785" lon="6.99704">
        <ele>284.47338867188</ele>
        <time>2020-05-14T14:59:42Z</time>
      </trkpt>
      <trkpt lat="43.65784" lon="6.99709">
        <ele>285.21398925781</ele>
        <time>2020-05-14T14:59:43Z</time>
      </trkpt>
      <trkpt lat="43.65784" lon="6.99715">
        <ele>285.43334960938</ele>
        <time>2020-05-14T14:59:44Z</time>
      </trkpt>
      <trkpt lat="43.65782" lon="6.99721">
        <ele>285.02758789062</ele>
        <time>2020-05-14T14:59:45Z</time>
      </trkpt>
      <trkpt lat="43.65782" lon="6.99728">
        <ele>284.60028076172</ele>
        <time>2020-05-14T14:59:46Z</time>
      </trkpt>
      <trkpt lat="43.6578" lon="6.99734">
        <ele>284.65869140625</ele>
        <time>2020-05-14T14:59:47Z</time>
      </trkpt>
      <trkpt lat="43.65778" lon="6.9974">
        <ele>284.1318359375</ele>
        <time>2020-05-14T14:59:48Z</time>
      </trkpt>
      <trkpt lat="43.65776" lon="6.99746">
        <ele>283.74932861328</ele>
        <time>2020-05-14T14:59:49Z</time>
      </trkpt>
      <trkpt lat="43.65775" lon="6.99753">
        <ele>283.77404785156</ele>
        <time>2020-05-14T14:59:50Z</time>
      </trkpt>
      <trkpt lat="43.65774" lon="6.9976">
        <ele>283.99420166016</ele>
        <time>2020-05-14T14:59:51Z</time>
      </trkpt>
      <trkpt lat="43.65774" lon="6.99767">
        <ele>284.17028808594</ele>
        <time>2020-05-14T14:59:52Z</time>
      </trkpt>
      <trkpt lat="43.65774" lon="6.99775">
        <ele>284.22894287109</ele>
        <time>2020-05-14T14:59:53Z</time>
      </trkpt>
      <trkpt lat="43.65774" lon="6.99782">
        <ele>284.42541503906</ele>
        <time>2020-05-14T14:59:54Z</time>
      </trkpt>
      <trkpt lat="43.65774" lon="6.99791">
        <ele>284.65124511719</ele>
        <time>2020-05-14T14:59:55Z</time>
      </trkpt>
      <trkpt lat="43.65774" lon="6.99799">
        <ele>284.75103759766</ele>
        <time>2020-05-14T14:59:56Z</time>
      </trkpt>
      <trkpt lat="43.65773" lon="6.99808">
        <ele>284.96057128906</ele>
        <time>2020-05-14T14:59:57Z</time>
      </trkpt>
      <trkpt lat="43.65773" lon="6.99817">
        <ele>284.72143554688</ele>
        <time>2020-05-14T14:59:58Z</time>
      </trkpt>
      <trkpt lat="43.65773" lon="6.99825">
        <ele>284.400390625</ele>
        <time>2020-05-14T14:59:59Z</time>
      </trkpt>
      <trkpt lat="43.65773" lon="6.99834">
        <ele>284.59649658203</ele>
        <time>2020-05-14T15:00:00Z</time>
      </trkpt>
      <trkpt lat="43.65773" lon="6.99843">
        <ele>284.54870605469</ele>
        <time>2020-05-14T15:00:01Z</time>
      </trkpt>
      <trkpt lat="43.65773" lon="6.99851">
        <ele>284.71813964844</ele>
        <time>2020-05-14T15:00:02Z</time>
      </trkpt>
      <trkpt lat="43.65773" lon="6.9986">
        <ele>284.83660888672</ele>
        <time>2020-05-14T15:00:03Z</time>
      </trkpt>
      <trkpt lat="43.65774" lon="6.9987">
        <ele>284.66784667969</ele>
        <time>2020-05-14T15:00:04Z</time>
      </trkpt>
      <trkpt lat="43.65774" lon="6.9988">
        <ele>284.76440429688</ele>
        <time>2020-05-14T15:00:05Z</time>
      </trkpt>
      <trkpt lat="43.65773" lon="6.99889">
        <ele>285.07202148438</ele>
        <time>2020-05-14T15:00:06Z</time>
      </trkpt>
      <trkpt lat="43.65773" lon="6.99898">
        <ele>284.48486328125</ele>
        <time>2020-05-14T15:00:07Z</time>
      </trkpt>
      <trkpt lat="43.65772" lon="6.99908">
        <ele>284.47290039062</ele>
        <time>2020-05-14T15:00:08Z</time>
      </trkpt>
      <trkpt lat="43.65772" lon="6.99918">
        <ele>284.36608886719</ele>
        <time>2020-05-14T15:00:09Z</time>
      </trkpt>
      <trkpt lat="43.65771" lon="6.99929">
        <ele>283.94409179688</ele>
        <time>2020-05-14T15:00:10Z</time>
      </trkpt>
      <trkpt lat="43.65771" lon="6.99939">
        <ele>284.45202636719</ele>
        <time>2020-05-14T15:00:11Z</time>
      </trkpt>
      <trkpt lat="43.6577" lon="6.9995">
        <ele>284.34375</ele>
        <time>2020-05-14T15:00:12Z</time>
      </trkpt>
      <trkpt lat="43.6577" lon="6.9996">
        <ele>284.451171875</ele>
        <time>2020-05-14T15:00:13Z</time>
      </trkpt>
      <trkpt lat="43.6577" lon="6.9997">
        <ele>284.09912109375</ele>
        <time>2020-05-14T15:00:14Z</time>
      </trkpt>
      <trkpt lat="43.6577" lon="6.99979">
        <ele>284.12084960938</ele>
        <time>2020-05-14T15:00:15Z</time>
      </trkpt>
      <trkpt lat="43.65769" lon="6.99988">
        <ele>284.7685546875</ele>
        <time>2020-05-14T15:00:16Z</time>
      </trkpt>
      <trkpt lat="43.65769" lon="6.99998">
        <ele>285.08032226562</ele>
        <time>2020-05-14T15:00:17Z</time>
      </trkpt>
      <trkpt lat="43.65767" lon="7.00006">
        <ele>285.08435058594</ele>
        <time>2020-05-14T15:00:18Z</time>
      </trkpt>
      <trkpt lat="43.65764" lon="7.00014">
        <ele>284.8466796875</ele>
        <time>2020-05-14T15:00:19Z</time>
      </trkpt>
      <trkpt lat="43.65763" lon="7.00023">
        <ele>285.00012207031</ele>
        <time>2020-05-14T15:00:20Z</time>
      </trkpt>
      <trkpt lat="43.65761" lon="7.00031">
        <ele>285.22930908203</ele>
        <time>2020-05-14T15:00:21Z</time>
      </trkpt>
      <trkpt lat="43.65758" lon="7.00038">
        <ele>285.27648925781</ele>
        <time>2020-05-14T15:00:22Z</time>
      </trkpt>
      <trkpt lat="43.65756" lon="7.00047">
        <ele>284.96551513672</ele>
        <time>2020-05-14T15:00:23Z</time>
      </trkpt>
      <trkpt lat="43.65754" lon="7.00055">
        <ele>284.87756347656</ele>
        <time>2020-05-14T15:00:24Z</time>
      </trkpt>
      <trkpt lat="43.65753" lon="7.00063">
        <ele>285.30224609375</ele>
        <time>2020-05-14T15:00:25Z</time>
      </trkpt>
      <trkpt lat="43.65752" lon="7.0007">
        <ele>285.70440673828</ele>
        <time>2020-05-14T15:00:26Z</time>
      </trkpt>
      <trkpt lat="43.6575" lon="7.00076">
        <ele>286.31274414062</ele>
        <time>2020-05-14T15:00:27Z</time>
      </trkpt>
      <trkpt lat="43.65747" lon="7.00084">
        <ele>285.96545410156</ele>
        <time>2020-05-14T15:00:28Z</time>
      </trkpt>
      <trkpt lat="43.65745" lon="7.00091">
        <ele>286.01977539062</ele>
        <time>2020-05-14T15:00:29Z</time>
      </trkpt>
      <trkpt lat="43.65739" lon="7.00095">
        <ele>285.88537597656</ele>
        <time>2020-05-14T15:00:30Z</time>
      </trkpt>
      <trkpt lat="43.65736" lon="7.00101">
        <ele>286.13830566406</ele>
        <time>2020-05-14T15:00:31Z</time>
      </trkpt>
      <trkpt lat="43.65726" lon="7.00105">
        <ele>286.00738525391</ele>
        <time>2020-05-14T15:00:32Z</time>
      </trkpt>
      <trkpt lat="43.65725" lon="7.00111">
        <ele>285.88598632812</ele>
        <time>2020-05-14T15:00:33Z</time>
      </trkpt>
      <trkpt lat="43.65722" lon="7.00116">
        <ele>285.73638916016</ele>
        <time>2020-05-14T15:00:34Z</time>
      </trkpt>
      <trkpt lat="43.65717" lon="7.00121">
        <ele>285.66137695312</ele>
        <time>2020-05-14T15:00:35Z</time>
      </trkpt>
      <trkpt lat="43.65713" lon="7.00126">
        <ele>285.71673583984</ele>
        <time>2020-05-14T15:00:36Z</time>
      </trkpt>
      <trkpt lat="43.65706" lon="7.00128">
        <ele>285.00018310547</ele>
        <time>2020-05-14T15:00:37Z</time>
      </trkpt>
      <trkpt lat="43.65702" lon="7.00132">
        <ele>285.16979980469</ele>
        <time>2020-05-14T15:00:38Z</time>
      </trkpt>
      <trkpt lat="43.65697" lon="7.00137">
        <ele>285.27581787109</ele>
        <time>2020-05-14T15:00:39Z</time>
      </trkpt>
      <trkpt lat="43.65693" lon="7.00141">
        <ele>285.15356445312</ele>
        <time>2020-05-14T15:00:40Z</time>
      </trkpt>
      <trkpt lat="43.6569" lon="7.00146">
        <ele>285.23010253906</ele>
        <time>2020-05-14T15:00:41Z</time>
      </trkpt>
      <trkpt lat="43.65688" lon="7.00152">
        <ele>285.27209472656</ele>
        <time>2020-05-14T15:00:42Z</time>
      </trkpt>
      <trkpt lat="43.65685" lon="7.00157">
        <ele>285.60668945312</ele>
        <time>2020-05-14T15:00:43Z</time>
      </trkpt>
      <trkpt lat="43.65682" lon="7.00162">
        <ele>285.97436523438</ele>
        <time>2020-05-14T15:00:44Z</time>
      </trkpt>
      <trkpt lat="43.65678" lon="7.00168">
        <ele>286.83581542969</ele>
        <time>2020-05-14T15:00:45Z</time>
      </trkpt>
      <trkpt lat="43.65674" lon="7.00174">
        <ele>287.34985351562</ele>
        <time>2020-05-14T15:00:46Z</time>
      </trkpt>
      <trkpt lat="43.65672" lon="7.00179">
        <ele>286.68701171875</ele>
        <time>2020-05-14T15:00:47Z</time>
      </trkpt>
      <trkpt lat="43.6567" lon="7.00186">
        <ele>286.75305175781</ele>
        <time>2020-05-14T15:00:48Z</time>
      </trkpt>
      <trkpt lat="43.65667" lon="7.00192">
        <ele>287.10119628906</ele>
        <time>2020-05-14T15:00:49Z</time>
      </trkpt>
      <trkpt lat="43.65666" lon="7.00198">
        <ele>286.80285644531</ele>
        <time>2020-05-14T15:00:50Z</time>
      </trkpt>
      <trkpt lat="43.65663" lon="7.00204">
        <ele>286.81420898438</ele>
        <time>2020-05-14T15:00:51Z</time>
      </trkpt>
      <trkpt lat="43.65661" lon="7.00209">
        <ele>286.912109375</ele>
        <time>2020-05-14T15:00:52Z</time>
      </trkpt>
      <trkpt lat="43.65658" lon="7.00216">
        <ele>287.01428222656</ele>
        <time>2020-05-14T15:00:53Z</time>
      </trkpt>
      <trkpt lat="43.65656" lon="7.00222">
        <ele>287.03747558594</ele>
        <time>2020-05-14T15:00:54Z</time>
      </trkpt>
      <trkpt lat="43.65655" lon="7.00228">
        <ele>287.29650878906</ele>
        <time>2020-05-14T15:00:55Z</time>
      </trkpt>
      <trkpt lat="43.65653" lon="7.00234">
        <ele>287.46923828125</ele>
        <time>2020-05-14T15:00:56Z</time>
      </trkpt>
      <trkpt lat="43.65652" lon="7.0024">
        <ele>287.88952636719</ele>
        <time>2020-05-14T15:00:57Z</time>
      </trkpt>
      <trkpt lat="43.65651" lon="7.00246">
        <ele>287.71850585938</ele>
        <time>2020-05-14T15:00:58Z</time>
      </trkpt>
      <trkpt lat="43.65648" lon="7.00251">
        <ele>288.80895996094</ele>
        <time>2020-05-14T15:00:59Z</time>
      </trkpt>
      <trkpt lat="43.65646" lon="7.00257">
        <ele>288.80596923828</ele>
        <time>2020-05-14T15:01:00Z</time>
      </trkpt>
      <trkpt lat="43.65644" lon="7.00263">
        <ele>288.6220703125</ele>
        <time>2020-05-14T15:01:01Z</time>
      </trkpt>
      <trkpt lat="43.65641" lon="7.00269">
        <ele>288.6787109375</ele>
        <time>2020-05-14T15:01:02Z</time>
      </trkpt>
      <trkpt lat="43.65639" lon="7.00277">
        <ele>286.92041015625</ele>
        <time>2020-05-14T15:01:03Z</time>
      </trkpt>
      <trkpt lat="43.65638" lon="7.00282">
        <ele>286.27941894531</ele>
        <time>2020-05-14T15:01:04Z</time>
      </trkpt>
      <trkpt lat="43.65637" lon="7.00289">
        <ele>286.14709472656</ele>
        <time>2020-05-14T15:01:05Z</time>
      </trkpt>
      <trkpt lat="43.65636" lon="7.00294">
        <ele>286.69073486328</ele>
        <time>2020-05-14T15:01:06Z</time>
      </trkpt>
      <trkpt lat="43.65634" lon="7.003">
        <ele>286.90124511719</ele>
        <time>2020-05-14T15:01:07Z</time>
      </trkpt>
      <trkpt lat="43.65632" lon="7.00306">
        <ele>286.57733154297</ele>
        <time>2020-05-14T15:01:08Z</time>
      </trkpt>
      <trkpt lat="43.6563" lon="7.00312">
        <ele>287.20202636719</ele>
        <time>2020-05-14T15:01:09Z</time>
      </trkpt>
      <trkpt lat="43.65628" lon="7.00319">
        <ele>287.42791748047</ele>
        <time>2020-05-14T15:01:10Z</time>
      </trkpt>
      <trkpt lat="43.65625" lon="7.00325">
        <ele>287.38818359375</ele>
        <time>2020-05-14T15:01:11Z</time>
      </trkpt>
      <trkpt lat="43.65624" lon="7.00332">
        <ele>287.43737792969</ele>
        <time>2020-05-14T15:01:12Z</time>
      </trkpt>
      <trkpt lat="43.65622" lon="7.00338">
        <ele>287.58044433594</ele>
        <time>2020-05-14T15:01:13Z</time>
      </trkpt>
      <trkpt lat="43.6562" lon="7.00345">
        <ele>288.67974853516</ele>
        <time>2020-05-14T15:01:14Z</time>
      </trkpt>
      <trkpt lat="43.65618" lon="7.00351">
        <ele>288.7578125</ele>
        <time>2020-05-14T15:01:15Z</time>
      </trkpt>
      <trkpt lat="43.65614" lon="7.00355">
        <ele>289.00695800781</ele>
        <time>2020-05-14T15:01:16Z</time>
      </trkpt>
      <trkpt lat="43.65612" lon="7.0036">
        <ele>289.85400390625</ele>
        <time>2020-05-14T15:01:17Z</time>
      </trkpt>
      <trkpt lat="43.65608" lon="7.00363">
        <ele>289.17895507812</ele>
        <time>2020-05-14T15:01:18Z</time>
      </trkpt>
      <trkpt lat="43.65605" lon="7.00366">
        <ele>289.84753417969</ele>
        <time>2020-05-14T15:01:19Z</time>
      </trkpt>
      <trkpt lat="43.656" lon="7.00368">
        <ele>289.7763671875</ele>
        <time>2020-05-14T15:01:20Z</time>
      </trkpt>
      <trkpt lat="43.65596" lon="7.0037">
        <ele>289.91400146484</ele>
        <time>2020-05-14T15:01:21Z</time>
      </trkpt>
      <trkpt lat="43.65592" lon="7.00372">
        <ele>290.09356689453</ele>
        <time>2020-05-14T15:01:22Z</time>
      </trkpt>
      <trkpt lat="43.65587" lon="7.00374">
        <ele>290.70745849609</ele>
        <time>2020-05-14T15:01:23Z</time>
      </trkpt>
      <trkpt lat="43.65583" lon="7.00377">
        <ele>291.23547363281</ele>
        <time>2020-05-14T15:01:24Z</time>
      </trkpt>
      <trkpt lat="43.65579" lon="7.00379">
        <ele>291.83471679688</ele>
        <time>2020-05-14T15:01:25Z</time>
      </trkpt>
      <trkpt lat="43.65574" lon="7.00382">
        <ele>292.15124511719</ele>
        <time>2020-05-14T15:01:26Z</time>
      </trkpt>
      <trkpt lat="43.6557" lon="7.00384">
        <ele>292.56945800781</ele>
        <time>2020-05-14T15:01:27Z</time>
      </trkpt>
      <trkpt lat="43.65565" lon="7.00387">
        <ele>292.61395263672</ele>
        <time>2020-05-14T15:01:28Z</time>
      </trkpt>
      <trkpt lat="43.6556" lon="7.0039">
        <ele>291.40979003906</ele>
        <time>2020-05-14T15:01:29Z</time>
      </trkpt>
      <trkpt lat="43.65556" lon="7.00394">
        <ele>290.85363769531</ele>
        <time>2020-05-14T15:01:30Z</time>
      </trkpt>
      <trkpt lat="43.65552" lon="7.00396">
        <ele>290.96057128906</ele>
        <time>2020-05-14T15:01:31Z</time>
      </trkpt>
      <trkpt lat="43.65547" lon="7.004">
        <ele>291.41522216797</ele>
        <time>2020-05-14T15:01:32Z</time>
      </trkpt>
      <trkpt lat="43.65543" lon="7.00403">
        <ele>291.55163574219</ele>
        <time>2020-05-14T15:01:33Z</time>
      </trkpt>
      <trkpt lat="43.65538" lon="7.00406">
        <ele>291.87927246094</ele>
        <time>2020-05-14T15:01:34Z</time>
      </trkpt>
      <trkpt lat="43.65533" lon="7.00408">
        <ele>292.2138671875</ele>
        <time>2020-05-14T15:01:35Z</time>
      </trkpt>
      <trkpt lat="43.65528" lon="7.00409">
        <ele>293.01025390625</ele>
        <time>2020-05-14T15:01:36Z</time>
      </trkpt>
      <trkpt lat="43.65523" lon="7.0041">
        <ele>293.03918457031</ele>
        <time>2020-05-14T15:01:37Z</time>
      </trkpt>
      <trkpt lat="43.65519" lon="7.00408">
        <ele>292.61254882812</ele>
        <time>2020-05-14T15:01:38Z</time>
      </trkpt>
      <trkpt lat="43.65513" lon="7.00407">
        <ele>292.36791992188</ele>
        <time>2020-05-14T15:01:39Z</time>
      </trkpt>
      <trkpt lat="43.65509" lon="7.00404">
        <ele>292.08728027344</ele>
        <time>2020-05-14T15:01:40Z</time>
      </trkpt>
      <trkpt lat="43.65505" lon="7.00401">
        <ele>292.24230957031</ele>
        <time>2020-05-14T15:01:41Z</time>
      </trkpt>
      <trkpt lat="43.65501" lon="7.00397">
        <ele>291.70251464844</ele>
        <time>2020-05-14T15:01:42Z</time>
      </trkpt>
      <trkpt lat="43.65498" lon="7.00393">
        <ele>291.17742919922</ele>
        <time>2020-05-14T15:01:43Z</time>
      </trkpt>
      <trkpt lat="43.65494" lon="7.00389">
        <ele>290.77526855469</ele>
        <time>2020-05-14T15:01:44Z</time>
      </trkpt>
      <trkpt lat="43.6549" lon="7.00384">
        <ele>290.12646484375</ele>
        <time>2020-05-14T15:01:45Z</time>
      </trkpt>
      <trkpt lat="43.65487" lon="7.00381">
        <ele>290.12408447266</ele>
        <time>2020-05-14T15:01:46Z</time>
      </trkpt>
      <trkpt lat="43.65483" lon="7.00377">
        <ele>289.91577148438</ele>
        <time>2020-05-14T15:01:47Z</time>
      </trkpt>
      <trkpt lat="43.65479" lon="7.00373">
        <ele>290.08837890625</ele>
        <time>2020-05-14T15:01:48Z</time>
      </trkpt>
      <trkpt lat="43.65475" lon="7.00371">
        <ele>290.19146728516</ele>
        <time>2020-05-14T15:01:49Z</time>
      </trkpt>
      <trkpt lat="43.65471" lon="7.00369">
        <ele>290.17303466797</ele>
        <time>2020-05-14T15:01:50Z</time>
      </trkpt>
      <trkpt lat="43.65466" lon="7.00369">
        <ele>289.37194824219</ele>
        <time>2020-05-14T15:01:51Z</time>
      </trkpt>
      <trkpt lat="43.65461" lon="7.00369">
        <ele>288.93347167969</ele>
        <time>2020-05-14T15:01:52Z</time>
      </trkpt>
      <trkpt lat="43.65457" lon="7.00371">
        <ele>288.64514160156</ele>
        <time>2020-05-14T15:01:53Z</time>
      </trkpt>
      <trkpt lat="43.65454" lon="7.00374">
        <ele>288.44329833984</ele>
        <time>2020-05-14T15:01:54Z</time>
      </trkpt>
      <trkpt lat="43.65448" lon="7.00375">
        <ele>288.47454833984</ele>
        <time>2020-05-14T15:01:55Z</time>
      </trkpt>
      <trkpt lat="43.65443" lon="7.00378">
        <ele>288.70593261719</ele>
        <time>2020-05-14T15:01:56Z</time>
      </trkpt>
      <trkpt lat="43.65439" lon="7.00383">
        <ele>288.87512207031</ele>
        <time>2020-05-14T15:01:57Z</time>
      </trkpt>
      <trkpt lat="43.65437" lon="7.00388">
        <ele>289.23645019531</ele>
        <time>2020-05-14T15:01:58Z</time>
      </trkpt>
      <trkpt lat="43.65436" lon="7.00395">
        <ele>289.15881347656</ele>
        <time>2020-05-14T15:01:59Z</time>
      </trkpt>
      <trkpt lat="43.65436" lon="7.00401">
        <ele>289.97766113281</ele>
        <time>2020-05-14T15:02:00Z</time>
      </trkpt>
      <trkpt lat="43.65437" lon="7.00408">
        <ele>290.53479003906</ele>
        <time>2020-05-14T15:02:01Z</time>
      </trkpt>
      <trkpt lat="43.65439" lon="7.00415">
        <ele>290.60583496094</ele>
        <time>2020-05-14T15:02:02Z</time>
      </trkpt>
      <trkpt lat="43.6544" lon="7.00422">
        <ele>290.44665527344</ele>
        <time>2020-05-14T15:02:03Z</time>
      </trkpt>
      <trkpt lat="43.65441" lon="7.00429">
        <ele>290.44445800781</ele>
        <time>2020-05-14T15:02:04Z</time>
      </trkpt>
      <trkpt lat="43.65442" lon="7.00436">
        <ele>290.62268066406</ele>
        <time>2020-05-14T15:02:05Z</time>
      </trkpt>
      <trkpt lat="43.65443" lon="7.00443">
        <ele>290.59289550781</ele>
        <time>2020-05-14T15:02:06Z</time>
      </trkpt>
      <trkpt lat="43.65443" lon="7.0045">
        <ele>290.5263671875</ele>
        <time>2020-05-14T15:02:07Z</time>
      </trkpt>
      <trkpt lat="43.65442" lon="7.00457">
        <ele>290.6728515625</ele>
        <time>2020-05-14T15:02:08Z</time>
      </trkpt>
      <trkpt lat="43.65441" lon="7.00464">
        <ele>290.47454833984</ele>
        <time>2020-05-14T15:02:09Z</time>
      </trkpt>
      <trkpt lat="43.65439" lon="7.00471">
        <ele>290.17266845703</ele>
        <time>2020-05-14T15:02:10Z</time>
      </trkpt>
      <trkpt lat="43.65437" lon="7.00476">
        <ele>289.93560791016</ele>
        <time>2020-05-14T15:02:11Z</time>
      </trkpt>
      <trkpt lat="43.65435" lon="7.00483">
        <ele>290.37396240234</ele>
        <time>2020-05-14T15:02:12Z</time>
      </trkpt>
      <trkpt lat="43.65435" lon="7.0049">
        <ele>290.74853515625</ele>
        <time>2020-05-14T15:02:13Z</time>
      </trkpt>
      <trkpt lat="43.65435" lon="7.00496">
        <ele>291.07275390625</ele>
        <time>2020-05-14T15:02:14Z</time>
      </trkpt>
      <trkpt lat="43.65434" lon="7.00502">
        <ele>290.69982910156</ele>
        <time>2020-05-14T15:02:15Z</time>
      </trkpt>
      <trkpt lat="43.65436" lon="7.00508">
        <ele>291.40679931641</ele>
        <time>2020-05-14T15:02:16Z</time>
      </trkpt>
      <trkpt lat="43.65436" lon="7.00515">
        <ele>291.50744628906</ele>
        <time>2020-05-14T15:02:17Z</time>
      </trkpt>
      <trkpt lat="43.65437" lon="7.00521">
        <ele>292.19763183594</ele>
        <time>2020-05-14T15:02:18Z</time>
      </trkpt>
      <trkpt lat="43.65439" lon="7.00528">
        <ele>292.50402832031</ele>
        <time>2020-05-14T15:02:19Z</time>
      </trkpt>
      <trkpt lat="43.6544" lon="7.00535">
        <ele>292.42053222656</ele>
        <time>2020-05-14T15:02:20Z</time>
      </trkpt>
      <trkpt lat="43.65442" lon="7.00541">
        <ele>292.21801757812</ele>
        <time>2020-05-14T15:02:21Z</time>
      </trkpt>
      <trkpt lat="43.65443" lon="7.00548">
        <ele>291.86401367188</ele>
        <time>2020-05-14T15:02:22Z</time>
      </trkpt>
      <trkpt lat="43.65444" lon="7.00555">
        <ele>291.97229003906</ele>
        <time>2020-05-14T15:02:23Z</time>
      </trkpt>
      <trkpt lat="43.65444" lon="7.00562">
        <ele>291.62707519531</ele>
        <time>2020-05-14T15:02:24Z</time>
      </trkpt>
      <trkpt lat="43.65444" lon="7.00569">
        <ele>291.84240722656</ele>
        <time>2020-05-14T15:02:25Z</time>
      </trkpt>
      <trkpt lat="43.65444" lon="7.00576">
        <ele>291.95251464844</ele>
        <time>2020-05-14T15:02:26Z</time>
      </trkpt>
      <trkpt lat="43.65443" lon="7.00583">
        <ele>292.1396484375</ele>
        <time>2020-05-14T15:02:27Z</time>
      </trkpt>
      <trkpt lat="43.65442" lon="7.00589">
        <ele>292.10217285156</ele>
        <time>2020-05-14T15:02:28Z</time>
      </trkpt>
      <trkpt lat="43.65442" lon="7.00596">
        <ele>292.26184082031</ele>
        <time>2020-05-14T15:02:29Z</time>
      </trkpt>
      <trkpt lat="43.65441" lon="7.00603">
        <ele>292.30395507812</ele>
        <time>2020-05-14T15:02:30Z</time>
      </trkpt>
      <trkpt lat="43.65441" lon="7.0061">
        <ele>292.49877929688</ele>
        <time>2020-05-14T15:02:31Z</time>
      </trkpt>
      <trkpt lat="43.6544" lon="7.00617">
        <ele>292.54821777344</ele>
        <time>2020-05-14T15:02:32Z</time>
      </trkpt>
      <trkpt lat="43.6544" lon="7.00624">
        <ele>292.82849121094</ele>
        <time>2020-05-14T15:02:33Z</time>
      </trkpt>
      <trkpt lat="43.65439" lon="7.00631">
        <ele>293.12744140625</ele>
        <time>2020-05-14T15:02:34Z</time>
      </trkpt>
      <trkpt lat="43.65438" lon="7.00637">
        <ele>293.26257324219</ele>
        <time>2020-05-14T15:02:35Z</time>
      </trkpt>
      <trkpt lat="43.65437" lon="7.00643">
        <ele>293.14672851562</ele>
        <time>2020-05-14T15:02:36Z</time>
      </trkpt>
      <trkpt lat="43.65436" lon="7.0065">
        <ele>292.49548339844</ele>
        <time>2020-05-14T15:02:37Z</time>
      </trkpt>
      <trkpt lat="43.65436" lon="7.00657">
        <ele>292.93676757812</ele>
        <time>2020-05-14T15:02:38Z</time>
      </trkpt>
      <trkpt lat="43.65436" lon="7.00663">
        <ele>292.7705078125</ele>
        <time>2020-05-14T15:02:39Z</time>
      </trkpt>
      <trkpt lat="43.65436" lon="7.0067">
        <ele>292.837890625</ele>
        <time>2020-05-14T15:02:40Z</time>
      </trkpt>
      <trkpt lat="43.65435" lon="7.00677">
        <ele>292.84985351562</ele>
        <time>2020-05-14T15:02:41Z</time>
      </trkpt>
      <trkpt lat="43.65435" lon="7.00683">
        <ele>292.89135742188</ele>
        <time>2020-05-14T15:02:42Z</time>
      </trkpt>
      <trkpt lat="43.65435" lon="7.00691">
        <ele>292.13403320312</ele>
        <time>2020-05-14T15:02:43Z</time>
      </trkpt>
      <trkpt lat="43.65436" lon="7.00697">
        <ele>292.26892089844</ele>
        <time>2020-05-14T15:02:44Z</time>
      </trkpt>
      <trkpt lat="43.65438" lon="7.00704">
        <ele>292.45062255859</ele>
        <time>2020-05-14T15:02:45Z</time>
      </trkpt>
      <trkpt lat="43.65439" lon="7.00711">
        <ele>292.31274414062</ele>
        <time>2020-05-14T15:02:46Z</time>
      </trkpt>
      <trkpt lat="43.65439" lon="7.00719">
        <ele>291.74230957031</ele>
        <time>2020-05-14T15:02:47Z</time>
      </trkpt>
      <trkpt lat="43.65441" lon="7.00726">
        <ele>291.95288085938</ele>
        <time>2020-05-14T15:02:48Z</time>
      </trkpt>
      <trkpt lat="43.65441" lon="7.00733">
        <ele>291.43353271484</ele>
        <time>2020-05-14T15:02:49Z</time>
      </trkpt>
      <trkpt lat="43.65442" lon="7.0074">
        <ele>291.20190429688</ele>
        <time>2020-05-14T15:02:50Z</time>
      </trkpt>
      <trkpt lat="43.65443" lon="7.00747">
        <ele>290.75842285156</ele>
        <time>2020-05-14T15:02:51Z</time>
      </trkpt>
      <trkpt lat="43.65444" lon="7.00755">
        <ele>290.84350585938</ele>
        <time>2020-05-14T15:02:52Z</time>
      </trkpt>
      <trkpt lat="43.65446" lon="7.00762">
        <ele>291.34246826172</ele>
        <time>2020-05-14T15:02:53Z</time>
      </trkpt>
      <trkpt lat="43.65447" lon="7.00769">
        <ele>291.21337890625</ele>
        <time>2020-05-14T15:02:54Z</time>
      </trkpt>
      <trkpt lat="43.65448" lon="7.00776">
        <ele>291.71630859375</ele>
        <time>2020-05-14T15:02:55Z</time>
      </trkpt>
      <trkpt lat="43.65448" lon="7.00784">
        <ele>291.71520996094</ele>
        <time>2020-05-14T15:02:56Z</time>
      </trkpt>
      <trkpt lat="43.65449" lon="7.00791">
        <ele>291.63732910156</ele>
        <time>2020-05-14T15:02:57Z</time>
      </trkpt>
      <trkpt lat="43.65448" lon="7.00798">
        <ele>291.4365234375</ele>
        <time>2020-05-14T15:02:58Z</time>
      </trkpt>
      <trkpt lat="43.65447" lon="7.00805">
        <ele>291.68713378906</ele>
        <time>2020-05-14T15:02:59Z</time>
      </trkpt>
      <trkpt lat="43.65444" lon="7.00812">
        <ele>291.58325195312</ele>
        <time>2020-05-14T15:03:00Z</time>
      </trkpt>
      <trkpt lat="43.65442" lon="7.00818">
        <ele>291.04907226562</ele>
        <time>2020-05-14T15:03:01Z</time>
      </trkpt>
      <trkpt lat="43.65439" lon="7.00824">
        <ele>290.98565673828</ele>
        <time>2020-05-14T15:03:02Z</time>
      </trkpt>
      <trkpt lat="43.65435" lon="7.0083">
        <ele>290.83142089844</ele>
        <time>2020-05-14T15:03:03Z</time>
      </trkpt>
      <trkpt lat="43.65432" lon="7.00834">
        <ele>291.09020996094</ele>
        <time>2020-05-14T15:03:04Z</time>
      </trkpt>
      <trkpt lat="43.65428" lon="7.00841">
        <ele>291.31262207031</ele>
        <time>2020-05-14T15:03:05Z</time>
      </trkpt>
      <trkpt lat="43.65425" lon="7.00846">
        <ele>292.05932617188</ele>
        <time>2020-05-14T15:03:06Z</time>
      </trkpt>
      <trkpt lat="43.65421" lon="7.0085">
        <ele>292.46301269531</ele>
        <time>2020-05-14T15:03:07Z</time>
      </trkpt>
      <trkpt lat="43.65418" lon="7.00855">
        <ele>291.68603515625</ele>
        <time>2020-05-14T15:03:08Z</time>
      </trkpt>
      <trkpt lat="43.65412" lon="7.00858">
        <ele>291.12066650391</ele>
        <time>2020-05-14T15:03:09Z</time>
      </trkpt>
      <trkpt lat="43.65407" lon="7.00861">
        <ele>291.65716552734</ele>
        <time>2020-05-14T15:03:10Z</time>
      </trkpt>
      <trkpt lat="43.65403" lon="7.00863">
        <ele>292.01885986328</ele>
        <time>2020-05-14T15:03:11Z</time>
      </trkpt>
      <trkpt lat="43.65399" lon="7.00866">
        <ele>292.44622802734</ele>
        <time>2020-05-14T15:03:12Z</time>
      </trkpt>
      <trkpt lat="43.65393" lon="7.00869">
        <ele>292.93811035156</ele>
        <time>2020-05-14T15:03:13Z</time>
      </trkpt>
      <trkpt lat="43.65387" lon="7.00871">
        <ele>292.63342285156</ele>
        <time>2020-05-14T15:03:14Z</time>
      </trkpt>
      <trkpt lat="43.65382" lon="7.00873">
        <ele>294.31329345703</ele>
        <time>2020-05-14T15:03:15Z</time>
      </trkpt>
      <trkpt lat="43.65377" lon="7.00875">
        <ele>294.74328613281</ele>
        <time>2020-05-14T15:03:16Z</time>
      </trkpt>
      <trkpt lat="43.65371" lon="7.00877">
        <ele>293.37451171875</ele>
        <time>2020-05-14T15:03:17Z</time>
      </trkpt>
      <trkpt lat="43.65365" lon="7.00879">
        <ele>292.5166015625</ele>
        <time>2020-05-14T15:03:18Z</time>
      </trkpt>
      <trkpt lat="43.65359" lon="7.00881">
        <ele>292.21850585938</ele>
        <time>2020-05-14T15:03:19Z</time>
      </trkpt>
      <trkpt lat="43.65354" lon="7.00883">
        <ele>292.60565185547</ele>
        <time>2020-05-14T15:03:20Z</time>
      </trkpt>
      <trkpt lat="43.65348" lon="7.00884">
        <ele>292.06689453125</ele>
        <time>2020-05-14T15:03:21Z</time>
      </trkpt>
      <trkpt lat="43.65343" lon="7.00884">
        <ele>292.17395019531</ele>
        <time>2020-05-14T15:03:22Z</time>
      </trkpt>
      <trkpt lat="43.65338" lon="7.00885">
        <ele>292.53118896484</ele>
        <time>2020-05-14T15:03:23Z</time>
      </trkpt>
      <trkpt lat="43.65334" lon="7.00885">
        <ele>293.31665039062</ele>
        <time>2020-05-14T15:03:24Z</time>
      </trkpt>
      <trkpt lat="43.65329" lon="7.00885">
        <ele>293.95941162109</ele>
        <time>2020-05-14T15:03:25Z</time>
      </trkpt>
      <trkpt lat="43.65323" lon="7.00884">
        <ele>294.5322265625</ele>
        <time>2020-05-14T15:03:26Z</time>
      </trkpt>
      <trkpt lat="43.65318" lon="7.00884">
        <ele>294.91784667969</ele>
        <time>2020-05-14T15:03:27Z</time>
      </trkpt>
      <trkpt lat="43.65313" lon="7.00884">
        <ele>295.20489501953</ele>
        <time>2020-05-14T15:03:28Z</time>
      </trkpt>
      <trkpt lat="43.65308" lon="7.00885">
        <ele>296.07458496094</ele>
        <time>2020-05-14T15:03:29Z</time>
      </trkpt>
      <trkpt lat="43.65304" lon="7.00886">
        <ele>296.50817871094</ele>
        <time>2020-05-14T15:03:30Z</time>
      </trkpt>
      <trkpt lat="43.653" lon="7.00888">
        <ele>296.7900390625</ele>
        <time>2020-05-14T15:03:31Z</time>
      </trkpt>
      <trkpt lat="43.65296" lon="7.00892">
        <ele>296.75769042969</ele>
        <time>2020-05-14T15:03:32Z</time>
      </trkpt>
      <trkpt lat="43.65292" lon="7.00896">
        <ele>297.01879882812</ele>
        <time>2020-05-14T15:03:33Z</time>
      </trkpt>
      <trkpt lat="43.65289" lon="7.009">
        <ele>297.15209960938</ele>
        <time>2020-05-14T15:03:34Z</time>
      </trkpt>
      <trkpt lat="43.65285" lon="7.00906">
        <ele>296.91357421875</ele>
        <time>2020-05-14T15:03:35Z</time>
      </trkpt>
      <trkpt lat="43.65282" lon="7.00911">
        <ele>296.72143554688</ele>
        <time>2020-05-14T15:03:36Z</time>
      </trkpt>
      <trkpt lat="43.6528" lon="7.00917">
        <ele>296.40478515625</ele>
        <time>2020-05-14T15:03:37Z</time>
      </trkpt>
      <trkpt lat="43.65277" lon="7.00923">
        <ele>296.73376464844</ele>
        <time>2020-05-14T15:03:38Z</time>
      </trkpt>
      <trkpt lat="43.65274" lon="7.00929">
        <ele>296.96020507812</ele>
        <time>2020-05-14T15:03:39Z</time>
      </trkpt>
      <trkpt lat="43.65272" lon="7.00936">
        <ele>296.72729492188</ele>
        <time>2020-05-14T15:03:40Z</time>
      </trkpt>
      <trkpt lat="43.6527" lon="7.00943">
        <ele>296.49072265625</ele>
        <time>2020-05-14T15:03:41Z</time>
      </trkpt>
      <trkpt lat="43.65267" lon="7.00949">
        <ele>296.50921630859</ele>
        <time>2020-05-14T15:03:42Z</time>
      </trkpt>
      <trkpt lat="43.65264" lon="7.00955">
        <ele>296.16931152344</ele>
        <time>2020-05-14T15:03:43Z</time>
      </trkpt>
      <trkpt lat="43.65261" lon="7.0096">
        <ele>295.97729492188</ele>
        <time>2020-05-14T15:03:44Z</time>
      </trkpt>
      <trkpt lat="43.65257" lon="7.00964">
        <ele>295.69561767578</ele>
        <time>2020-05-14T15:03:45Z</time>
      </trkpt>
      <trkpt lat="43.65253" lon="7.00968">
        <ele>295.57397460938</ele>
        <time>2020-05-14T15:03:46Z</time>
      </trkpt>
      <trkpt lat="43.65249" lon="7.00972">
        <ele>295.51019287109</ele>
        <time>2020-05-14T15:03:47Z</time>
      </trkpt>
      <trkpt lat="43.65244" lon="7.00974">
        <ele>295.88385009766</ele>
        <time>2020-05-14T15:03:48Z</time>
      </trkpt>
      <trkpt lat="43.65239" lon="7.00977">
        <ele>295.56860351562</ele>
        <time>2020-05-14T15:03:49Z</time>
      </trkpt>
      <trkpt lat="43.65234" lon="7.00978">
        <ele>295.73248291016</ele>
        <time>2020-05-14T15:03:50Z</time>
      </trkpt>
      <trkpt lat="43.65229" lon="7.0098">
        <ele>295.56127929688</ele>
        <time>2020-05-14T15:03:51Z</time>
      </trkpt>
      <trkpt lat="43.65224" lon="7.00981">
        <ele>295.48657226562</ele>
        <time>2020-05-14T15:03:52Z</time>
      </trkpt>
      <trkpt lat="43.65219" lon="7.00983">
        <ele>295.41717529297</ele>
        <time>2020-05-14T15:03:53Z</time>
      </trkpt>
      <trkpt lat="43.65214" lon="7.00984">
        <ele>295.28771972656</ele>
        <time>2020-05-14T15:03:54Z</time>
      </trkpt>
      <trkpt lat="43.65209" lon="7.00985">
        <ele>295.16845703125</ele>
        <time>2020-05-14T15:03:55Z</time>
      </trkpt>
      <trkpt lat="43.65204" lon="7.00987">
        <ele>295.16040039062</ele>
        <time>2020-05-14T15:03:56Z</time>
      </trkpt>
      <trkpt lat="43.65199" lon="7.00988">
        <ele>295.0830078125</ele>
        <time>2020-05-14T15:03:57Z</time>
      </trkpt>
      <trkpt lat="43.65193" lon="7.00989">
        <ele>295.05810546875</ele>
        <time>2020-05-14T15:03:58Z</time>
      </trkpt>
      <trkpt lat="43.65188" lon="7.00989">
        <ele>295.17297363281</ele>
        <time>2020-05-14T15:03:59Z</time>
      </trkpt>
      <trkpt lat="43.65182" lon="7.00989">
        <ele>294.73266601562</ele>
        <time>2020-05-14T15:04:00Z</time>
      </trkpt>
      <trkpt lat="43.65177" lon="7.00989">
        <ele>294.17529296875</ele>
        <time>2020-05-14T15:04:01Z</time>
      </trkpt>
      <trkpt lat="43.65171" lon="7.00989">
        <ele>294.42407226562</ele>
        <time>2020-05-14T15:04:02Z</time>
      </trkpt>
      <trkpt lat="43.65165" lon="7.00989">
        <ele>294.20422363281</ele>
        <time>2020-05-14T15:04:03Z</time>
      </trkpt>
      <trkpt lat="43.65159" lon="7.00988">
        <ele>294.33831787109</ele>
        <time>2020-05-14T15:04:04Z</time>
      </trkpt>
      <trkpt lat="43.65153" lon="7.00988">
        <ele>295.10144042969</ele>
        <time>2020-05-14T15:04:05Z</time>
      </trkpt>
      <trkpt lat="43.65147" lon="7.00987">
        <ele>295.02307128906</ele>
        <time>2020-05-14T15:04:06Z</time>
      </trkpt>
      <trkpt lat="43.65142" lon="7.00988">
        <ele>294.97900390625</ele>
        <time>2020-05-14T15:04:07Z</time>
      </trkpt>
      <trkpt lat="43.65136" lon="7.00988">
        <ele>294.74475097656</ele>
        <time>2020-05-14T15:04:08Z</time>
      </trkpt>
      <trkpt lat="43.6513" lon="7.00989">
        <ele>294.45043945312</ele>
        <time>2020-05-14T15:04:09Z</time>
      </trkpt>
      <trkpt lat="43.65124" lon="7.00991">
        <ele>294.59118652344</ele>
        <time>2020-05-14T15:04:10Z</time>
      </trkpt>
      <trkpt lat="43.65119" lon="7.00993">
        <ele>294.49145507812</ele>
        <time>2020-05-14T15:04:11Z</time>
      </trkpt>
      <trkpt lat="43.65114" lon="7.00996">
        <ele>294.29638671875</ele>
        <time>2020-05-14T15:04:12Z</time>
      </trkpt>
      <trkpt lat="43.65108" lon="7.00998">
        <ele>293.53289794922</ele>
        <time>2020-05-14T15:04:13Z</time>
      </trkpt>
      <trkpt lat="43.65103" lon="7.01">
        <ele>293.44140625</ele>
        <time>2020-05-14T15:04:14Z</time>
      </trkpt>
      <trkpt lat="43.65098" lon="7.01002">
        <ele>293.33435058594</ele>
        <time>2020-05-14T15:04:15Z</time>
      </trkpt>
      <trkpt lat="43.65092" lon="7.01004">
        <ele>292.97875976562</ele>
        <time>2020-05-14T15:04:16Z</time>
      </trkpt>
      <trkpt lat="43.65086" lon="7.01007">
        <ele>292.77978515625</ele>
        <time>2020-05-14T15:04:17Z</time>
      </trkpt>
      <trkpt lat="43.6508" lon="7.0101">
        <ele>292.36450195312</ele>
        <time>2020-05-14T15:04:18Z</time>
      </trkpt>
      <trkpt lat="43.65074" lon="7.01012">
        <ele>292.59600830078</ele>
        <time>2020-05-14T15:04:19Z</time>
      </trkpt>
      <trkpt lat="43.65068" lon="7.01014">
        <ele>292.81463623047</ele>
        <time>2020-05-14T15:04:20Z</time>
      </trkpt>
      <trkpt lat="43.65062" lon="7.01016">
        <ele>292.92578125</ele>
        <time>2020-05-14T15:04:21Z</time>
      </trkpt>
      <trkpt lat="43.65056" lon="7.01017">
        <ele>292.65319824219</ele>
        <time>2020-05-14T15:04:22Z</time>
      </trkpt>
      <trkpt lat="43.6505" lon="7.01016">
        <ele>292.33801269531</ele>
        <time>2020-05-14T15:04:23Z</time>
      </trkpt>
      <trkpt lat="43.65044" lon="7.01017">
        <ele>292.41253662109</ele>
        <time>2020-05-14T15:04:24Z</time>
      </trkpt>
      <trkpt lat="43.65038" lon="7.01016">
        <ele>292.67041015625</ele>
        <time>2020-05-14T15:04:25Z</time>
      </trkpt>
      <trkpt lat="43.65032" lon="7.01016">
        <ele>292.56457519531</ele>
        <time>2020-05-14T15:04:26Z</time>
      </trkpt>
      <trkpt lat="43.65027" lon="7.01015">
        <ele>292.61730957031</ele>
        <time>2020-05-14T15:04:27Z</time>
      </trkpt>
      <trkpt lat="43.65021" lon="7.01013">
        <ele>293.34301757812</ele>
        <time>2020-05-14T15:04:28Z</time>
      </trkpt>
      <trkpt lat="43.65015" lon="7.01011">
        <ele>293.1806640625</ele>
        <time>2020-05-14T15:04:29Z</time>
      </trkpt>
      <trkpt lat="43.65009" lon="7.01008">
        <ele>293.23571777344</ele>
        <time>2020-05-14T15:04:30Z</time>
      </trkpt>
      <trkpt lat="43.65004" lon="7.01005">
        <ele>293.23217773438</ele>
        <time>2020-05-14T15:04:31Z</time>
      </trkpt>
      <trkpt lat="43.64999" lon="7.01002">
        <ele>293.73071289062</ele>
        <time>2020-05-14T15:04:32Z</time>
      </trkpt>
      <trkpt lat="43.64994" lon="7.00999">
        <ele>293.99291992188</ele>
        <time>2020-05-14T15:04:33Z</time>
      </trkpt>
      <trkpt lat="43.64988" lon="7.00996">
        <ele>293.37536621094</ele>
        <time>2020-05-14T15:04:34Z</time>
      </trkpt>
      <trkpt lat="43.64982" lon="7.00993">
        <ele>293.28991699219</ele>
        <time>2020-05-14T15:04:35Z</time>
      </trkpt>
      <trkpt lat="43.64977" lon="7.00989">
        <ele>293.11193847656</ele>
        <time>2020-05-14T15:04:36Z</time>
      </trkpt>
      <trkpt lat="43.64972" lon="7.00986">
        <ele>293.37756347656</ele>
        <time>2020-05-14T15:04:37Z</time>
      </trkpt>
      <trkpt lat="43.64966" lon="7.00983">
        <ele>293.29119873047</ele>
        <time>2020-05-14T15:04:38Z</time>
      </trkpt>
      <trkpt lat="43.64961" lon="7.00981">
        <ele>293.17492675781</ele>
        <time>2020-05-14T15:04:39Z</time>
      </trkpt>
      <trkpt lat="43.64955" lon="7.00979">
        <ele>293.27252197266</ele>
        <time>2020-05-14T15:04:40Z</time>
      </trkpt>
      <trkpt lat="43.64949" lon="7.00979">
        <ele>293.61596679688</ele>
        <time>2020-05-14T15:04:41Z</time>
      </trkpt>
      <trkpt lat="43.64943" lon="7.00981">
        <ele>293.87182617188</ele>
        <time>2020-05-14T15:04:42Z</time>
      </trkpt>
      <trkpt lat="43.64937" lon="7.00983">
        <ele>293.73291015625</ele>
        <time>2020-05-14T15:04:43Z</time>
      </trkpt>
      <trkpt lat="43.64933" lon="7.00987">
        <ele>293.87316894531</ele>
        <time>2020-05-14T15:04:44Z</time>
      </trkpt>
      <trkpt lat="43.64928" lon="7.00992">
        <ele>293.51452636719</ele>
        <time>2020-05-14T15:04:45Z</time>
      </trkpt>
      <trkpt lat="43.64924" lon="7.00998">
        <ele>293.17541503906</ele>
        <time>2020-05-14T15:04:46Z</time>
      </trkpt>
      <trkpt lat="43.64919" lon="7.01003">
        <ele>292.81701660156</ele>
        <time>2020-05-14T15:04:47Z</time>
      </trkpt>
      <trkpt lat="43.64915" lon="7.01008">
        <ele>292.86865234375</ele>
        <time>2020-05-14T15:04:48Z</time>
      </trkpt>
      <trkpt lat="43.64909" lon="7.01013">
        <ele>293.08752441406</ele>
        <time>2020-05-14T15:04:49Z</time>
      </trkpt>
      <trkpt lat="43.64904" lon="7.01017">
        <ele>293.58825683594</ele>
        <time>2020-05-14T15:04:50Z</time>
      </trkpt>
      <trkpt lat="43.64898" lon="7.0102">
        <ele>293.71215820312</ele>
        <time>2020-05-14T15:04:51Z</time>
      </trkpt>
      <trkpt lat="43.64892" lon="7.01021">
        <ele>293.65295410156</ele>
        <time>2020-05-14T15:04:52Z</time>
      </trkpt>
      <trkpt lat="43.64885" lon="7.01022">
        <ele>293.87780761719</ele>
        <time>2020-05-14T15:04:53Z</time>
      </trkpt>
      <trkpt lat="43.64879" lon="7.01024">
        <ele>293.60522460938</ele>
        <time>2020-05-14T15:04:54Z</time>
      </trkpt>
      <trkpt lat="43.64873" lon="7.01024">
        <ele>293.88940429688</ele>
        <time>2020-05-14T15:04:55Z</time>
      </trkpt>
      <trkpt lat="43.64866" lon="7.01024">
        <ele>293.7646484375</ele>
        <time>2020-05-14T15:04:56Z</time>
      </trkpt>
      <trkpt lat="43.6486" lon="7.01024">
        <ele>293.81884765625</ele>
        <time>2020-05-14T15:04:57Z</time>
      </trkpt>
      <trkpt lat="43.64854" lon="7.01025">
        <ele>293.99987792969</ele>
        <time>2020-05-14T15:04:58Z</time>
      </trkpt>
      <trkpt lat="43.64848" lon="7.01026">
        <ele>294.16491699219</ele>
        <time>2020-05-14T15:04:59Z</time>
      </trkpt>
      <trkpt lat="43.64842" lon="7.01026">
        <ele>294.24749755859</ele>
        <time>2020-05-14T15:05:00Z</time>
      </trkpt>
      <trkpt lat="43.64836" lon="7.01026">
        <ele>294.66748046875</ele>
        <time>2020-05-14T15:05:01Z</time>
      </trkpt>
      <trkpt lat="43.6483" lon="7.01026">
        <ele>294.61560058594</ele>
        <time>2020-05-14T15:05:02Z</time>
      </trkpt>
      <trkpt lat="43.64824" lon="7.01027">
        <ele>294.33911132812</ele>
        <time>2020-05-14T15:05:03Z</time>
      </trkpt>
      <trkpt lat="43.64818" lon="7.01028">
        <ele>294.23663330078</ele>
        <time>2020-05-14T15:05:04Z</time>
      </trkpt>
      <trkpt lat="43.64812" lon="7.01029">
        <ele>294.05883789062</ele>
        <time>2020-05-14T15:05:05Z</time>
      </trkpt>
      <trkpt lat="43.64806" lon="7.01029">
        <ele>294.13519287109</ele>
        <time>2020-05-14T15:05:06Z</time>
      </trkpt>
      <trkpt lat="43.648" lon="7.01029">
        <ele>293.77355957031</ele>
        <time>2020-05-14T15:05:07Z</time>
      </trkpt>
      <trkpt lat="43.64794" lon="7.01029">
        <ele>294.08825683594</ele>
        <time>2020-05-14T15:05:08Z</time>
      </trkpt>
      <trkpt lat="43.64787" lon="7.0103">
        <ele>294.77673339844</ele>
        <time>2020-05-14T15:05:09Z</time>
      </trkpt>
      <trkpt lat="43.64781" lon="7.0103">
        <ele>294.96105957031</ele>
        <time>2020-05-14T15:05:10Z</time>
      </trkpt>
      <trkpt lat="43.64775" lon="7.0103">
        <ele>295.16931152344</ele>
        <time>2020-05-14T15:05:11Z</time>
      </trkpt>
      <trkpt lat="43.64769" lon="7.0103">
        <ele>295.38598632812</ele>
        <time>2020-05-14T15:05:12Z</time>
      </trkpt>
      <trkpt lat="43.64763" lon="7.0103">
        <ele>295.0478515625</ele>
        <time>2020-05-14T15:05:13Z</time>
      </trkpt>
      <trkpt lat="43.64755" lon="7.0103">
        <ele>293.24047851562</ele>
        <time>2020-05-14T15:05:14Z</time>
      </trkpt>
      <trkpt lat="43.64749" lon="7.0103">
        <ele>292.82330322266</ele>
        <time>2020-05-14T15:05:15Z</time>
      </trkpt>
      <trkpt lat="43.64744" lon="7.01031">
        <ele>292.98205566406</ele>
        <time>2020-05-14T15:05:16Z</time>
      </trkpt>
      <trkpt lat="43.64738" lon="7.01032">
        <ele>293.07922363281</ele>
        <time>2020-05-14T15:05:17Z</time>
      </trkpt>
      <trkpt lat="43.64732" lon="7.01035">
        <ele>292.79193115234</ele>
        <time>2020-05-14T15:05:18Z</time>
      </trkpt>
      <trkpt lat="43.64726" lon="7.01037">
        <ele>292.42517089844</ele>
        <time>2020-05-14T15:05:19Z</time>
      </trkpt>
      <trkpt lat="43.64721" lon="7.01041">
        <ele>292.23217773438</ele>
        <time>2020-05-14T15:05:20Z</time>
      </trkpt>
      <trkpt lat="43.64717" lon="7.01045">
        <ele>291.837890625</ele>
        <time>2020-05-14T15:05:21Z</time>
      </trkpt>
      <trkpt lat="43.64712" lon="7.0105">
        <ele>291.91088867188</ele>
        <time>2020-05-14T15:05:22Z</time>
      </trkpt>
      <trkpt lat="43.64707" lon="7.01055">
        <ele>291.90777587891</ele>
        <time>2020-05-14T15:05:23Z</time>
      </trkpt>
      <trkpt lat="43.64703" lon="7.01061">
        <ele>291.78295898438</ele>
        <time>2020-05-14T15:05:24Z</time>
      </trkpt>
      <trkpt lat="43.64698" lon="7.01067">
        <ele>292.19769287109</ele>
        <time>2020-05-14T15:05:25Z</time>
      </trkpt>
      <trkpt lat="43.64694" lon="7.01072">
        <ele>292.31408691406</ele>
        <time>2020-05-14T15:05:26Z</time>
      </trkpt>
      <trkpt lat="43.64689" lon="7.01077">
        <ele>292.15612792969</ele>
        <time>2020-05-14T15:05:27Z</time>
      </trkpt>
      <trkpt lat="43.64685" lon="7.01083">
        <ele>292.51550292969</ele>
        <time>2020-05-14T15:05:28Z</time>
      </trkpt>
      <trkpt lat="43.6468" lon="7.01088">
        <ele>292.51989746094</ele>
        <time>2020-05-14T15:05:29Z</time>
      </trkpt>
      <trkpt lat="43.64674" lon="7.01092">
        <ele>291.69677734375</ele>
        <time>2020-05-14T15:05:30Z</time>
      </trkpt>
      <trkpt lat="43.64668" lon="7.01097">
        <ele>291.96899414062</ele>
        <time>2020-05-14T15:05:31Z</time>
      </trkpt>
      <trkpt lat="43.64663" lon="7.01101">
        <ele>291.89221191406</ele>
        <time>2020-05-14T15:05:32Z</time>
      </trkpt>
      <trkpt lat="43.64657" lon="7.01105">
        <ele>292.12750244141</ele>
        <time>2020-05-14T15:05:33Z</time>
      </trkpt>
      <trkpt lat="43.64651" lon="7.01109">
        <ele>292.23168945312</ele>
        <time>2020-05-14T15:05:34Z</time>
      </trkpt>
      <trkpt lat="43.64644" lon="7.01113">
        <ele>291.84429931641</ele>
        <time>2020-05-14T15:05:35Z</time>
      </trkpt>
      <trkpt lat="43.64638" lon="7.01118">
        <ele>291.94885253906</ele>
        <time>2020-05-14T15:05:36Z</time>
      </trkpt>
      <trkpt lat="43.64631" lon="7.01122">
        <ele>291.81079101562</ele>
        <time>2020-05-14T15:05:37Z</time>
      </trkpt>
      <trkpt lat="43.64625" lon="7.01128">
        <ele>291.0068359375</ele>
        <time>2020-05-14T15:05:38Z</time>
      </trkpt>
      <trkpt lat="43.64618" lon="7.01133">
        <ele>290.78002929688</ele>
        <time>2020-05-14T15:05:39Z</time>
      </trkpt>
      <trkpt lat="43.64611" lon="7.01138">
        <ele>290.66229248047</ele>
        <time>2020-05-14T15:05:40Z</time>
      </trkpt>
      <trkpt lat="43.64605" lon="7.01144">
        <ele>290.09692382812</ele>
        <time>2020-05-14T15:05:41Z</time>
      </trkpt>
      <trkpt lat="43.64598" lon="7.01149">
        <ele>289.57336425781</ele>
        <time>2020-05-14T15:05:42Z</time>
      </trkpt>
      <trkpt lat="43.64591" lon="7.01155">
        <ele>288.58825683594</ele>
        <time>2020-05-14T15:05:43Z</time>
      </trkpt>
      <trkpt lat="43.64584" lon="7.01161">
        <ele>287.83685302734</ele>
        <time>2020-05-14T15:05:44Z</time>
      </trkpt>
      <trkpt lat="43.64577" lon="7.01167">
        <ele>287.33544921875</ele>
        <time>2020-05-14T15:05:45Z</time>
      </trkpt>
      <trkpt lat="43.64568" lon="7.01172">
        <ele>286.84838867188</ele>
        <time>2020-05-14T15:05:46Z</time>
      </trkpt>
      <trkpt lat="43.64561" lon="7.01181">
        <ele>285.84069824219</ele>
        <time>2020-05-14T15:05:47Z</time>
      </trkpt>
      <trkpt lat="43.64553" lon="7.01188">
        <ele>285.86651611328</ele>
        <time>2020-05-14T15:05:48Z</time>
      </trkpt>
      <trkpt lat="43.64546" lon="7.01196">
        <ele>285.7373046875</ele>
        <time>2020-05-14T15:05:49Z</time>
      </trkpt>
      <trkpt lat="43.64539" lon="7.01204">
        <ele>284.82452392578</ele>
        <time>2020-05-14T15:05:50Z</time>
      </trkpt>
      <trkpt lat="43.64533" lon="7.01213">
        <ele>283.96252441406</ele>
        <time>2020-05-14T15:05:51Z</time>
      </trkpt>
      <trkpt lat="43.64526" lon="7.01221">
        <ele>283.46557617188</ele>
        <time>2020-05-14T15:05:52Z</time>
      </trkpt>
      <trkpt lat="43.64519" lon="7.01228">
        <ele>283.43627929688</ele>
        <time>2020-05-14T15:05:53Z</time>
      </trkpt>
      <trkpt lat="43.64511" lon="7.01235">
        <ele>283.82263183594</ele>
        <time>2020-05-14T15:05:54Z</time>
      </trkpt>
      <trkpt lat="43.64502" lon="7.01239">
        <ele>284.31219482422</ele>
        <time>2020-05-14T15:05:55Z</time>
      </trkpt>
      <trkpt lat="43.64491" lon="7.01243">
        <ele>285.22955322266</ele>
        <time>2020-05-14T15:05:56Z</time>
      </trkpt>
      <trkpt lat="43.64482" lon="7.01239">
        <ele>285.37097167969</ele>
        <time>2020-05-14T15:05:57Z</time>
      </trkpt>
      <trkpt lat="43.64472" lon="7.01238">
        <ele>285.29382324219</ele>
        <time>2020-05-14T15:05:58Z</time>
      </trkpt>
      <trkpt lat="43.64462" lon="7.01235">
        <ele>277.69995117188</ele>
        <time>2020-05-14T15:05:59Z</time>
      </trkpt>
      <trkpt lat="43.64453" lon="7.0123">
        <ele>278.53784179688</ele>
        <time>2020-05-14T15:06:00Z</time>
      </trkpt>
      <trkpt lat="43.64445" lon="7.01222">
        <ele>278.07763671875</ele>
        <time>2020-05-14T15:06:01Z</time>
      </trkpt>
      <trkpt lat="43.64438" lon="7.01212">
        <ele>277.63159179688</ele>
        <time>2020-05-14T15:06:02Z</time>
      </trkpt>
      <trkpt lat="43.64431" lon="7.01202">
        <ele>277.77203369141</ele>
        <time>2020-05-14T15:06:03Z</time>
      </trkpt>
      <trkpt lat="43.64423" lon="7.01194">
        <ele>276.6767578125</ele>
        <time>2020-05-14T15:06:04Z</time>
      </trkpt>
      <trkpt lat="43.64414" lon="7.01188">
        <ele>275.89916992188</ele>
        <time>2020-05-14T15:06:05Z</time>
      </trkpt>
      <trkpt lat="43.64404" lon="7.01184">
        <ele>275.45446777344</ele>
        <time>2020-05-14T15:06:06Z</time>
      </trkpt>
      <trkpt lat="43.64393" lon="7.01183">
        <ele>275.18432617188</ele>
        <time>2020-05-14T15:06:07Z</time>
      </trkpt>
      <trkpt lat="43.64384" lon="7.01183">
        <ele>274.80151367188</ele>
        <time>2020-05-14T15:06:08Z</time>
      </trkpt>
      <trkpt lat="43.64373" lon="7.01181">
        <ele>274.10314941406</ele>
        <time>2020-05-14T15:06:09Z</time>
      </trkpt>
      <trkpt lat="43.64364" lon="7.01181">
        <ele>273.8798828125</ele>
        <time>2020-05-14T15:06:10Z</time>
      </trkpt>
      <trkpt lat="43.64354" lon="7.01181">
        <ele>273.36236572266</ele>
        <time>2020-05-14T15:06:11Z</time>
      </trkpt>
      <trkpt lat="43.64344" lon="7.01181">
        <ele>272.50323486328</ele>
        <time>2020-05-14T15:06:12Z</time>
      </trkpt>
      <trkpt lat="43.64337" lon="7.0118">
        <ele>272.05303955078</ele>
        <time>2020-05-14T15:06:13Z</time>
      </trkpt>
      <trkpt lat="43.64331" lon="7.0118">
        <ele>271.93957519531</ele>
        <time>2020-05-14T15:06:14Z</time>
      </trkpt>
      <trkpt lat="43.64327" lon="7.0118">
        <ele>271.99584960938</ele>
        <time>2020-05-14T15:06:15Z</time>
      </trkpt>
      <trkpt lat="43.64324" lon="7.01181">
        <ele>271.716796875</ele>
        <time>2020-05-14T15:06:16Z</time>
      </trkpt>
      <trkpt lat="43.6432" lon="7.01182">
        <ele>271.06469726562</ele>
        <time>2020-05-14T15:06:17Z</time>
      </trkpt>
      <trkpt lat="43.64317" lon="7.01182">
        <ele>270.49645996094</ele>
        <time>2020-05-14T15:06:18Z</time>
      </trkpt>
      <trkpt lat="43.64316" lon="7.01184">
        <ele>270.34411621094</ele>
        <time>2020-05-14T15:06:19Z</time>
      </trkpt>
      <trkpt lat="43.64316" lon="7.01184">
        <ele>270.55670166016</ele>
        <time>2020-05-14T15:06:20Z</time>
      </trkpt>
      <trkpt lat="43.64316" lon="7.01183">
        <ele>270.90295410156</ele>
        <time>2020-05-14T15:06:21Z</time>
      </trkpt>
      <trkpt lat="43.64316" lon="7.01183">
        <ele>270.82525634766</ele>
        <time>2020-05-14T15:06:22Z</time>
      </trkpt>
      <trkpt lat="43.64316" lon="7.01183">
        <ele>270.67358398438</ele>
        <time>2020-05-14T15:06:23Z</time>
      </trkpt>
      <trkpt lat="43.64315" lon="7.01182">
        <ele>270.55096435547</ele>
        <time>2020-05-14T15:06:24Z</time>
      </trkpt>
      <trkpt lat="43.64315" lon="7.01182">
        <ele>270.84582519531</ele>
        <time>2020-05-14T15:06:25Z</time>
      </trkpt>
      <trkpt lat="43.64313" lon="7.01184">
        <ele>270.98498535156</ele>
        <time>2020-05-14T15:06:26Z</time>
      </trkpt>
      <trkpt lat="43.64312" lon="7.01187">
        <ele>270.66015625</ele>
        <time>2020-05-14T15:06:27Z</time>
      </trkpt>
      <trkpt lat="43.64313" lon="7.01191">
        <ele>270.66674804688</ele>
        <time>2020-05-14T15:06:28Z</time>
      </trkpt>
      <trkpt lat="43.64314" lon="7.01194">
        <ele>271.15222167969</ele>
        <time>2020-05-14T15:06:29Z</time>
      </trkpt>
      <trkpt lat="43.64315" lon="7.01198">
        <ele>271.17468261719</ele>
        <time>2020-05-14T15:06:30Z</time>
      </trkpt>
      <trkpt lat="43.64317" lon="7.01202">
        <ele>271.2509765625</ele>
        <time>2020-05-14T15:06:31Z</time>
      </trkpt>
      <trkpt lat="43.64318" lon="7.01206">
        <ele>271.40515136719</ele>
        <time>2020-05-14T15:06:32Z</time>
      </trkpt>
      <trkpt lat="43.6432" lon="7.01211">
        <ele>271.46862792969</ele>
        <time>2020-05-14T15:06:33Z</time>
      </trkpt>
      <trkpt lat="43.64322" lon="7.01217">
        <ele>271.27465820312</ele>
        <time>2020-05-14T15:06:34Z</time>
      </trkpt>
      <trkpt lat="43.64324" lon="7.01222">
        <ele>271.25561523438</ele>
        <time>2020-05-14T15:06:35Z</time>
      </trkpt>
      <trkpt lat="43.64326" lon="7.01228">
        <ele>271.17236328125</ele>
        <time>2020-05-14T15:06:36Z</time>
      </trkpt>
      <trkpt lat="43.64329" lon="7.01235">
        <ele>271.48425292969</ele>
        <time>2020-05-14T15:06:37Z</time>
      </trkpt>
      <trkpt lat="43.64331" lon="7.01242">
        <ele>271.08264160156</ele>
        <time>2020-05-14T15:06:38Z</time>
      </trkpt>
      <trkpt lat="43.64333" lon="7.01249">
        <ele>270.97924804688</ele>
        <time>2020-05-14T15:06:39Z</time>
      </trkpt>
      <trkpt lat="43.64335" lon="7.01256">
        <ele>270.83532714844</ele>
        <time>2020-05-14T15:06:40Z</time>
      </trkpt>
      <trkpt lat="43.64337" lon="7.01265">
        <ele>270.48529052734</ele>
        <time>2020-05-14T15:06:41Z</time>
      </trkpt>
      <trkpt lat="43.64338" lon="7.01273">
        <ele>269.90954589844</ele>
        <time>2020-05-14T15:06:42Z</time>
      </trkpt>
      <trkpt lat="43.64341" lon="7.01281">
        <ele>269.41589355469</ele>
        <time>2020-05-14T15:06:43Z</time>
      </trkpt>
      <trkpt lat="43.64343" lon="7.01289">
        <ele>269.08264160156</ele>
        <time>2020-05-14T15:06:44Z</time>
      </trkpt>
      <trkpt lat="43.64346" lon="7.01298">
        <ele>268.33184814453</ele>
        <time>2020-05-14T15:06:45Z</time>
      </trkpt>
      <trkpt lat="43.64348" lon="7.01307">
        <ele>267.57531738281</ele>
        <time>2020-05-14T15:06:46Z</time>
      </trkpt>
      <trkpt lat="43.6435" lon="7.01316">
        <ele>267.21722412109</ele>
        <time>2020-05-14T15:06:47Z</time>
      </trkpt>
      <trkpt lat="43.64354" lon="7.01325">
        <ele>266.88934326172</ele>
        <time>2020-05-14T15:06:48Z</time>
      </trkpt>
      <trkpt lat="43.64356" lon="7.01335">
        <ele>266.95397949219</ele>
        <time>2020-05-14T15:06:49Z</time>
      </trkpt>
      <trkpt lat="43.64359" lon="7.01345">
        <ele>266.52490234375</ele>
        <time>2020-05-14T15:06:50Z</time>
      </trkpt>
      <trkpt lat="43.64362" lon="7.01355">
        <ele>266.67553710938</ele>
        <time>2020-05-14T15:06:51Z</time>
      </trkpt>
      <trkpt lat="43.64365" lon="7.01365">
        <ele>267.46887207031</ele>
        <time>2020-05-14T15:06:52Z</time>
      </trkpt>
      <trkpt lat="43.64368" lon="7.01377">
        <ele>266.88854980469</ele>
        <time>2020-05-14T15:06:53Z</time>
      </trkpt>
      <trkpt lat="43.64371" lon="7.01388">
        <ele>266.55236816406</ele>
        <time>2020-05-14T15:06:54Z</time>
      </trkpt>
      <trkpt lat="43.64373" lon="7.01399">
        <ele>266.10180664062</ele>
        <time>2020-05-14T15:06:55Z</time>
      </trkpt>
      <trkpt lat="43.64376" lon="7.01411">
        <ele>265.86303710938</ele>
        <time>2020-05-14T15:06:56Z</time>
      </trkpt>
      <trkpt lat="43.64378" lon="7.01423">
        <ele>265.46899414062</ele>
        <time>2020-05-14T15:06:57Z</time>
      </trkpt>
      <trkpt lat="43.6438" lon="7.01435">
        <ele>264.16882324219</ele>
        <time>2020-05-14T15:06:58Z</time>
      </trkpt>
      <trkpt lat="43.64382" lon="7.01448">
        <ele>263.08715820312</ele>
        <time>2020-05-14T15:06:59Z</time>
      </trkpt>
      <trkpt lat="43.64384" lon="7.01461">
        <ele>262.71997070312</ele>
        <time>2020-05-14T15:07:00Z</time>
      </trkpt>
      <trkpt lat="43.64387" lon="7.01473">
        <ele>262.67376708984</ele>
        <time>2020-05-14T15:07:01Z</time>
      </trkpt>
      <trkpt lat="43.64389" lon="7.01486">
        <ele>262.31964111328</ele>
        <time>2020-05-14T15:07:02Z</time>
      </trkpt>
      <trkpt lat="43.64392" lon="7.01499">
        <ele>261.79345703125</ele>
        <time>2020-05-14T15:07:03Z</time>
      </trkpt>
      <trkpt lat="43.64394" lon="7.01513">
        <ele>261.677734375</ele>
        <time>2020-05-14T15:07:04Z</time>
      </trkpt>
      <trkpt lat="43.64396" lon="7.01526">
        <ele>260.91162109375</ele>
        <time>2020-05-14T15:07:05Z</time>
      </trkpt>
      <trkpt lat="43.64399" lon="7.01539">
        <ele>260.53527832031</ele>
        <time>2020-05-14T15:07:06Z</time>
      </trkpt>
      <trkpt lat="43.64401" lon="7.01552">
        <ele>259.81628417969</ele>
        <time>2020-05-14T15:07:07Z</time>
      </trkpt>
      <trkpt lat="43.64403" lon="7.01565">
        <ele>259.35687255859</ele>
        <time>2020-05-14T15:07:08Z</time>
      </trkpt>
      <trkpt lat="43.64406" lon="7.01578">
        <ele>258.99749755859</ele>
        <time>2020-05-14T15:07:09Z</time>
      </trkpt>
      <trkpt lat="43.64409" lon="7.01591">
        <ele>258.79846191406</ele>
        <time>2020-05-14T15:07:10Z</time>
      </trkpt>
      <trkpt lat="43.64411" lon="7.01604">
        <ele>258.78674316406</ele>
        <time>2020-05-14T15:07:11Z</time>
      </trkpt>
      <trkpt lat="43.64413" lon="7.01617">
        <ele>258.47570800781</ele>
        <time>2020-05-14T15:07:12Z</time>
      </trkpt>
      <trkpt lat="43.64414" lon="7.0163">
        <ele>258.04748535156</ele>
        <time>2020-05-14T15:07:13Z</time>
      </trkpt>
      <trkpt lat="43.64414" lon="7.01643">
        <ele>257.81854248047</ele>
        <time>2020-05-14T15:07:14Z</time>
      </trkpt>
      <trkpt lat="43.64412" lon="7.01655">
        <ele>258.08703613281</ele>
        <time>2020-05-14T15:07:15Z</time>
      </trkpt>
      <trkpt lat="43.64411" lon="7.01668">
        <ele>257.80297851562</ele>
        <time>2020-05-14T15:07:16Z</time>
      </trkpt>
      <trkpt lat="43.64411" lon="7.0168">
        <ele>257.50244140625</ele>
        <time>2020-05-14T15:07:17Z</time>
      </trkpt>
      <trkpt lat="43.6441" lon="7.01692">
        <ele>257.2451171875</ele>
        <time>2020-05-14T15:07:18Z</time>
      </trkpt>
      <trkpt lat="43.6441" lon="7.01703">
        <ele>257.43115234375</ele>
        <time>2020-05-14T15:07:19Z</time>
      </trkpt>
      <trkpt lat="43.64411" lon="7.01713">
        <ele>257.75720214844</ele>
        <time>2020-05-14T15:07:20Z</time>
      </trkpt>
      <trkpt lat="43.64411" lon="7.01723">
        <ele>257.72924804688</ele>
        <time>2020-05-14T15:07:21Z</time>
      </trkpt>
      <trkpt lat="43.64411" lon="7.01732">
        <ele>257.99645996094</ele>
        <time>2020-05-14T15:07:22Z</time>
      </trkpt>
      <trkpt lat="43.64412" lon="7.01741">
        <ele>258.01977539062</ele>
        <time>2020-05-14T15:07:23Z</time>
      </trkpt>
      <trkpt lat="43.64412" lon="7.0175">
        <ele>258.40936279297</ele>
        <time>2020-05-14T15:07:24Z</time>
      </trkpt>
      <trkpt lat="43.64412" lon="7.01757">
        <ele>258.80432128906</ele>
        <time>2020-05-14T15:07:25Z</time>
      </trkpt>
      <trkpt lat="43.64413" lon="7.01765">
        <ele>258.65966796875</ele>
        <time>2020-05-14T15:07:26Z</time>
      </trkpt>
      <trkpt lat="43.64414" lon="7.01773">
        <ele>258.84490966797</ele>
        <time>2020-05-14T15:07:27Z</time>
      </trkpt>
      <trkpt lat="43.64414" lon="7.0178">
        <ele>259.20306396484</ele>
        <time>2020-05-14T15:07:28Z</time>
      </trkpt>
      <trkpt lat="43.64415" lon="7.01787">
        <ele>259.28326416016</ele>
        <time>2020-05-14T15:07:29Z</time>
      </trkpt>
      <trkpt lat="43.64416" lon="7.01794">
        <ele>259.31201171875</ele>
        <time>2020-05-14T15:07:30Z</time>
      </trkpt>
      <trkpt lat="43.64416" lon="7.018">
        <ele>259.52429199219</ele>
        <time>2020-05-14T15:07:31Z</time>
      </trkpt>
      <trkpt lat="43.64417" lon="7.01807">
        <ele>259.74041748047</ele>
        <time>2020-05-14T15:07:32Z</time>
      </trkpt>
      <trkpt lat="43.64418" lon="7.01814">
        <ele>259.84741210938</ele>
        <time>2020-05-14T15:07:33Z</time>
      </trkpt>
      <trkpt lat="43.64418" lon="7.0182">
        <ele>259.60119628906</ele>
        <time>2020-05-14T15:07:34Z</time>
      </trkpt>
      <trkpt lat="43.64418" lon="7.01827">
        <ele>259.35827636719</ele>
        <time>2020-05-14T15:07:35Z</time>
      </trkpt>
      <trkpt lat="43.64419" lon="7.01834">
        <ele>259.59875488281</ele>
        <time>2020-05-14T15:07:36Z</time>
      </trkpt>
      <trkpt lat="43.64419" lon="7.01841">
        <ele>259.07086181641</ele>
        <time>2020-05-14T15:07:37Z</time>
      </trkpt>
      <trkpt lat="43.64418" lon="7.01848">
        <ele>259.15606689453</ele>
        <time>2020-05-14T15:07:38Z</time>
      </trkpt>
      <trkpt lat="43.64419" lon="7.01854">
        <ele>259.47021484375</ele>
        <time>2020-05-14T15:07:39Z</time>
      </trkpt>
      <trkpt lat="43.64419" lon="7.01861">
        <ele>259.68182373047</ele>
        <time>2020-05-14T15:07:40Z</time>
      </trkpt>
      <trkpt lat="43.6442" lon="7.01868">
        <ele>259.89501953125</ele>
        <time>2020-05-14T15:07:41Z</time>
      </trkpt>
      <trkpt lat="43.6442" lon="7.01874">
        <ele>259.74456787109</ele>
        <time>2020-05-14T15:07:42Z</time>
      </trkpt>
      <trkpt lat="43.6442" lon="7.01882">
        <ele>259.56909179688</ele>
        <time>2020-05-14T15:07:43Z</time>
      </trkpt>
      <trkpt lat="43.6442" lon="7.01888">
        <ele>259.72583007812</ele>
        <time>2020-05-14T15:07:44Z</time>
      </trkpt>
      <trkpt lat="43.64421" lon="7.01895">
        <ele>259.90417480469</ele>
        <time>2020-05-14T15:07:45Z</time>
      </trkpt>
      <trkpt lat="43.64421" lon="7.01901">
        <ele>259.9501953125</ele>
        <time>2020-05-14T15:07:46Z</time>
      </trkpt>
      <trkpt lat="43.64421" lon="7.01908">
        <ele>260.11413574219</ele>
        <time>2020-05-14T15:07:47Z</time>
      </trkpt>
      <trkpt lat="43.64422" lon="7.01914">
        <ele>260.15710449219</ele>
        <time>2020-05-14T15:07:48Z</time>
      </trkpt>
      <trkpt lat="43.64422" lon="7.01921">
        <ele>260.30590820312</ele>
        <time>2020-05-14T15:07:49Z</time>
      </trkpt>
      <trkpt lat="43.64422" lon="7.01928">
        <ele>260.11328125</ele>
        <time>2020-05-14T15:07:50Z</time>
      </trkpt>
      <trkpt lat="43.64422" lon="7.01935">
        <ele>260.19036865234</ele>
        <time>2020-05-14T15:07:51Z</time>
      </trkpt>
      <trkpt lat="43.64422" lon="7.01942">
        <ele>259.86987304688</ele>
        <time>2020-05-14T15:07:52Z</time>
      </trkpt>
      <trkpt lat="43.64423" lon="7.01948">
        <ele>260.00036621094</ele>
        <time>2020-05-14T15:07:53Z</time>
      </trkpt>
      <trkpt lat="43.64423" lon="7.01955">
        <ele>259.66796875</ele>
        <time>2020-05-14T15:07:54Z</time>
      </trkpt>
      <trkpt lat="43.64423" lon="7.01961">
        <ele>264.9736328125</ele>
        <time>2020-05-14T15:07:55Z</time>
      </trkpt>
      <trkpt lat="43.64422" lon="7.01968">
        <ele>265.09533691406</ele>
        <time>2020-05-14T15:07:56Z</time>
      </trkpt>
      <trkpt lat="43.64422" lon="7.01975">
        <ele>265.05261230469</ele>
        <time>2020-05-14T15:07:57Z</time>
      </trkpt>
      <trkpt lat="43.64422" lon="7.01983">
        <ele>264.34729003906</ele>
        <time>2020-05-14T15:07:58Z</time>
      </trkpt>
      <trkpt lat="43.64421" lon="7.01991">
        <ele>263.88586425781</ele>
        <time>2020-05-14T15:07:59Z</time>
      </trkpt>
      <trkpt lat="43.64418" lon="7.01999">
        <ele>263.55017089844</ele>
        <time>2020-05-14T15:08:00Z</time>
      </trkpt>
      <trkpt lat="43.64414" lon="7.02008">
        <ele>263.08374023438</ele>
        <time>2020-05-14T15:08:01Z</time>
      </trkpt>
      <trkpt lat="43.64411" lon="7.02016">
        <ele>262.53063964844</ele>
        <time>2020-05-14T15:08:02Z</time>
      </trkpt>
      <trkpt lat="43.64409" lon="7.02026">
        <ele>262.03491210938</ele>
        <time>2020-05-14T15:08:03Z</time>
      </trkpt>
      <trkpt lat="43.64407" lon="7.02036">
        <ele>261.54895019531</ele>
        <time>2020-05-14T15:08:04Z</time>
      </trkpt>
      <trkpt lat="43.64404" lon="7.02046">
        <ele>261.16455078125</ele>
        <time>2020-05-14T15:08:05Z</time>
      </trkpt>
      <trkpt lat="43.64399" lon="7.02055">
        <ele>260.9716796875</ele>
        <time>2020-05-14T15:08:06Z</time>
      </trkpt>
      <trkpt lat="43.64394" lon="7.02064">
        <ele>260.50012207031</ele>
        <time>2020-05-14T15:08:07Z</time>
      </trkpt>
      <trkpt lat="43.6439" lon="7.02073">
        <ele>260.08850097656</ele>
        <time>2020-05-14T15:08:08Z</time>
      </trkpt>
      <trkpt lat="43.64386" lon="7.02084">
        <ele>259.72436523438</ele>
        <time>2020-05-14T15:08:09Z</time>
      </trkpt>
      <trkpt lat="43.64382" lon="7.02094">
        <ele>259.55493164062</ele>
        <time>2020-05-14T15:08:10Z</time>
      </trkpt>
      <trkpt lat="43.64379" lon="7.02106">
        <ele>258.88952636719</ele>
        <time>2020-05-14T15:08:11Z</time>
      </trkpt>
      <trkpt lat="43.64375" lon="7.02117">
        <ele>258.47863769531</ele>
        <time>2020-05-14T15:08:12Z</time>
      </trkpt>
      <trkpt lat="43.64371" lon="7.02129">
        <ele>258.42150878906</ele>
        <time>2020-05-14T15:08:13Z</time>
      </trkpt>
      <trkpt lat="43.64368" lon="7.02142">
        <ele>258.06982421875</ele>
        <time>2020-05-14T15:08:14Z</time>
      </trkpt>
      <trkpt lat="43.64364" lon="7.02154">
        <ele>257.89538574219</ele>
        <time>2020-05-14T15:08:15Z</time>
      </trkpt>
      <trkpt lat="43.6436" lon="7.02166">
        <ele>257.26727294922</ele>
        <time>2020-05-14T15:08:16Z</time>
      </trkpt>
      <trkpt lat="43.64356" lon="7.02178">
        <ele>257.00598144531</ele>
        <time>2020-05-14T15:08:17Z</time>
      </trkpt>
      <trkpt lat="43.64352" lon="7.02191">
        <ele>256.87103271484</ele>
        <time>2020-05-14T15:08:18Z</time>
      </trkpt>
      <trkpt lat="43.64348" lon="7.02203">
        <ele>256.26831054688</ele>
        <time>2020-05-14T15:08:19Z</time>
      </trkpt>
      <trkpt lat="43.64344" lon="7.02217">
        <ele>255.87066650391</ele>
        <time>2020-05-14T15:08:20Z</time>
      </trkpt>
      <trkpt lat="43.6434" lon="7.02231">
        <ele>255.5576171875</ele>
        <time>2020-05-14T15:08:21Z</time>
      </trkpt>
      <trkpt lat="43.64336" lon="7.02245">
        <ele>254.95166015625</ele>
        <time>2020-05-14T15:08:22Z</time>
      </trkpt>
      <trkpt lat="43.64333" lon="7.02259">
        <ele>254.26184082031</ele>
        <time>2020-05-14T15:08:23Z</time>
      </trkpt>
      <trkpt lat="43.6433" lon="7.02272">
        <ele>253.85955810547</ele>
        <time>2020-05-14T15:08:24Z</time>
      </trkpt>
      <trkpt lat="43.64327" lon="7.02286">
        <ele>253.72991943359</ele>
        <time>2020-05-14T15:08:25Z</time>
      </trkpt>
      <trkpt lat="43.64325" lon="7.02299">
        <ele>253.67938232422</ele>
        <time>2020-05-14T15:08:26Z</time>
      </trkpt>
      <trkpt lat="43.64322" lon="7.02311">
        <ele>253.79754638672</ele>
        <time>2020-05-14T15:08:27Z</time>
      </trkpt>
      <trkpt lat="43.64319" lon="7.02323">
        <ele>253.40319824219</ele>
        <time>2020-05-14T15:08:28Z</time>
      </trkpt>
      <trkpt lat="43.64317" lon="7.02335">
        <ele>253.11932373047</ele>
        <time>2020-05-14T15:08:29Z</time>
      </trkpt>
      <trkpt lat="43.64314" lon="7.02347">
        <ele>252.7578125</ele>
        <time>2020-05-14T15:08:30Z</time>
      </trkpt>
      <trkpt lat="43.64312" lon="7.02358">
        <ele>252.90570068359</ele>
        <time>2020-05-14T15:08:31Z</time>
      </trkpt>
      <trkpt lat="43.6431" lon="7.0237">
        <ele>253.33239746094</ele>
        <time>2020-05-14T15:08:32Z</time>
      </trkpt>
      <trkpt lat="43.64308" lon="7.02381">
        <ele>253.5634765625</ele>
        <time>2020-05-14T15:08:33Z</time>
      </trkpt>
      <trkpt lat="43.64306" lon="7.02391">
        <ele>253.64147949219</ele>
        <time>2020-05-14T15:08:34Z</time>
      </trkpt>
      <trkpt lat="43.64304" lon="7.02401">
        <ele>253.64587402344</ele>
        <time>2020-05-14T15:08:35Z</time>
      </trkpt>
      <trkpt lat="43.64302" lon="7.02411">
        <ele>253.74169921875</ele>
        <time>2020-05-14T15:08:36Z</time>
      </trkpt>
      <trkpt lat="43.643" lon="7.0242">
        <ele>253.86370849609</ele>
        <time>2020-05-14T15:08:37Z</time>
      </trkpt>
      <trkpt lat="43.64297" lon="7.02429">
        <ele>253.97570800781</ele>
        <time>2020-05-14T15:08:38Z</time>
      </trkpt>
      <trkpt lat="43.64295" lon="7.02438">
        <ele>253.88372802734</ele>
        <time>2020-05-14T15:08:39Z</time>
      </trkpt>
      <trkpt lat="43.64293" lon="7.02447">
        <ele>253.77648925781</ele>
        <time>2020-05-14T15:08:40Z</time>
      </trkpt>
      <trkpt lat="43.64291" lon="7.02456">
        <ele>253.58642578125</ele>
        <time>2020-05-14T15:08:41Z</time>
      </trkpt>
      <trkpt lat="43.64288" lon="7.02465">
        <ele>253.791015625</ele>
        <time>2020-05-14T15:08:42Z</time>
      </trkpt>
      <trkpt lat="43.64286" lon="7.02473">
        <ele>253.77490234375</ele>
        <time>2020-05-14T15:08:43Z</time>
      </trkpt>
      <trkpt lat="43.64284" lon="7.02482">
        <ele>253.85827636719</ele>
        <time>2020-05-14T15:08:44Z</time>
      </trkpt>
      <trkpt lat="43.64281" lon="7.0249">
        <ele>254.23614501953</ele>
        <time>2020-05-14T15:08:45Z</time>
      </trkpt>
      <trkpt lat="43.64278" lon="7.02498">
        <ele>254.08422851562</ele>
        <time>2020-05-14T15:08:46Z</time>
      </trkpt>
      <trkpt lat="43.64275" lon="7.02506">
        <ele>253.93218994141</ele>
        <time>2020-05-14T15:08:47Z</time>
      </trkpt>
      <trkpt lat="43.64272" lon="7.02515">
        <ele>253.65753173828</ele>
        <time>2020-05-14T15:08:48Z</time>
      </trkpt>
      <trkpt lat="43.64269" lon="7.02524">
        <ele>253.31298828125</ele>
        <time>2020-05-14T15:08:49Z</time>
      </trkpt>
      <trkpt lat="43.64265" lon="7.02532">
        <ele>253.16650390625</ele>
        <time>2020-05-14T15:08:50Z</time>
      </trkpt>
      <trkpt lat="43.64261" lon="7.02541">
        <ele>252.94403076172</ele>
        <time>2020-05-14T15:08:51Z</time>
      </trkpt>
      <trkpt lat="43.64257" lon="7.0255">
        <ele>252.73468017578</ele>
        <time>2020-05-14T15:08:52Z</time>
      </trkpt>
      <trkpt lat="43.64253" lon="7.0256">
        <ele>252.54455566406</ele>
        <time>2020-05-14T15:08:53Z</time>
      </trkpt>
      <trkpt lat="43.64249" lon="7.02569">
        <ele>252.28576660156</ele>
        <time>2020-05-14T15:08:54Z</time>
      </trkpt>
      <trkpt lat="43.64245" lon="7.02579">
        <ele>252.61895751953</ele>
        <time>2020-05-14T15:08:55Z</time>
      </trkpt>
      <trkpt lat="43.64241" lon="7.02589">
        <ele>252.13134765625</ele>
        <time>2020-05-14T15:08:56Z</time>
      </trkpt>
      <trkpt lat="43.64236" lon="7.026">
        <ele>251.37268066406</ele>
        <time>2020-05-14T15:08:57Z</time>
      </trkpt>
      <trkpt lat="43.64233" lon="7.02611">
        <ele>250.81939697266</ele>
        <time>2020-05-14T15:08:58Z</time>
      </trkpt>
      <trkpt lat="43.64229" lon="7.02622">
        <ele>250.30493164062</ele>
        <time>2020-05-14T15:08:59Z</time>
      </trkpt>
      <trkpt lat="43.64226" lon="7.02634">
        <ele>250.13439941406</ele>
        <time>2020-05-14T15:09:00Z</time>
      </trkpt>
      <trkpt lat="43.64223" lon="7.02647">
        <ele>249.62817382812</ele>
        <time>2020-05-14T15:09:01Z</time>
      </trkpt>
      <trkpt lat="43.64221" lon="7.0266">
        <ele>248.68511962891</ele>
        <time>2020-05-14T15:09:02Z</time>
      </trkpt>
      <trkpt lat="43.6422" lon="7.02673">
        <ele>248.29345703125</ele>
        <time>2020-05-14T15:09:03Z</time>
      </trkpt>
      <trkpt lat="43.64218" lon="7.02686">
        <ele>248.1689453125</ele>
        <time>2020-05-14T15:09:04Z</time>
      </trkpt>
      <trkpt lat="43.64217" lon="7.02699">
        <ele>247.88238525391</ele>
        <time>2020-05-14T15:09:05Z</time>
      </trkpt>
      <trkpt lat="43.64216" lon="7.02713">
        <ele>248.18695068359</ele>
        <time>2020-05-14T15:09:06Z</time>
      </trkpt>
      <trkpt lat="43.64215" lon="7.02727">
        <ele>248.04388427734</ele>
        <time>2020-05-14T15:09:07Z</time>
      </trkpt>
      <trkpt lat="43.64213" lon="7.02741">
        <ele>244.10974121094</ele>
        <time>2020-05-14T15:09:08Z</time>
      </trkpt>
      <trkpt lat="43.64212" lon="7.02754">
        <ele>243.06109619141</ele>
        <time>2020-05-14T15:09:09Z</time>
      </trkpt>
      <trkpt lat="43.64211" lon="7.02768">
        <ele>242.75036621094</ele>
        <time>2020-05-14T15:09:10Z</time>
      </trkpt>
      <trkpt lat="43.6421" lon="7.02781">
        <ele>242.93664550781</ele>
        <time>2020-05-14T15:09:11Z</time>
      </trkpt>
      <trkpt lat="43.64208" lon="7.02794">
        <ele>242.93298339844</ele>
        <time>2020-05-14T15:09:12Z</time>
      </trkpt>
      <trkpt lat="43.64207" lon="7.02807">
        <ele>242.93835449219</ele>
        <time>2020-05-14T15:09:13Z</time>
      </trkpt>
      <trkpt lat="43.64206" lon="7.0282">
        <ele>242.67822265625</ele>
        <time>2020-05-14T15:09:14Z</time>
      </trkpt>
      <trkpt lat="43.64205" lon="7.02832">
        <ele>242.69512939453</ele>
        <time>2020-05-14T15:09:15Z</time>
      </trkpt>
      <trkpt lat="43.64203" lon="7.02845">
        <ele>241.92230224609</ele>
        <time>2020-05-14T15:09:16Z</time>
      </trkpt>
      <trkpt lat="43.64202" lon="7.02857">
        <ele>242.00927734375</ele>
        <time>2020-05-14T15:09:17Z</time>
      </trkpt>
      <trkpt lat="43.64201" lon="7.02869">
        <ele>242.02587890625</ele>
        <time>2020-05-14T15:09:18Z</time>
      </trkpt>
      <trkpt lat="43.642" lon="7.02881">
        <ele>241.96441650391</ele>
        <time>2020-05-14T15:09:19Z</time>
      </trkpt>
      <trkpt lat="43.64199" lon="7.02892">
        <ele>241.76416015625</ele>
        <time>2020-05-14T15:09:20Z</time>
      </trkpt>
      <trkpt lat="43.64198" lon="7.02905">
        <ele>241.44476318359</ele>
        <time>2020-05-14T15:09:21Z</time>
      </trkpt>
      <trkpt lat="43.64195" lon="7.02918">
        <ele>241.79107666016</ele>
        <time>2020-05-14T15:09:22Z</time>
      </trkpt>
      <trkpt lat="43.64195" lon="7.02929">
        <ele>241.20758056641</ele>
        <time>2020-05-14T15:09:23Z</time>
      </trkpt>
      <trkpt lat="43.64195" lon="7.02941">
        <ele>241.08856201172</ele>
        <time>2020-05-14T15:09:24Z</time>
      </trkpt>
      <trkpt lat="43.64195" lon="7.02953">
        <ele>240.53076171875</ele>
        <time>2020-05-14T15:09:25Z</time>
      </trkpt>
      <trkpt lat="43.64195" lon="7.02964">
        <ele>239.95471191406</ele>
        <time>2020-05-14T15:09:26Z</time>
      </trkpt>
      <trkpt lat="43.64194" lon="7.02975">
        <ele>239.62713623047</ele>
        <time>2020-05-14T15:09:27Z</time>
      </trkpt>
      <trkpt lat="43.64194" lon="7.02986">
        <ele>239.23754882812</ele>
        <time>2020-05-14T15:09:28Z</time>
      </trkpt>
      <trkpt lat="43.64193" lon="7.02998">
        <ele>239.04034423828</ele>
        <time>2020-05-14T15:09:29Z</time>
      </trkpt>
      <trkpt lat="43.64193" lon="7.0301">
        <ele>238.53582763672</ele>
        <time>2020-05-14T15:09:30Z</time>
      </trkpt>
      <trkpt lat="43.64192" lon="7.03021">
        <ele>238.03997802734</ele>
        <time>2020-05-14T15:09:31Z</time>
      </trkpt>
      <trkpt lat="43.64192" lon="7.03032">
        <ele>237.87609863281</ele>
        <time>2020-05-14T15:09:32Z</time>
      </trkpt>
      <trkpt lat="43.64192" lon="7.03044">
        <ele>237.36633300781</ele>
        <time>2020-05-14T15:09:33Z</time>
      </trkpt>
      <trkpt lat="43.64192" lon="7.03057">
        <ele>236.72271728516</ele>
        <time>2020-05-14T15:09:34Z</time>
      </trkpt>
      <trkpt lat="43.64192" lon="7.03068">
        <ele>236.66467285156</ele>
        <time>2020-05-14T15:09:35Z</time>
      </trkpt>
      <trkpt lat="43.64192" lon="7.0308">
        <ele>236.93695068359</ele>
        <time>2020-05-14T15:09:36Z</time>
      </trkpt>
      <trkpt lat="43.64193" lon="7.03092">
        <ele>236.86968994141</ele>
        <time>2020-05-14T15:09:37Z</time>
      </trkpt>
      <trkpt lat="43.64195" lon="7.03102">
        <ele>236.88336181641</ele>
        <time>2020-05-14T15:09:38Z</time>
      </trkpt>
      <trkpt lat="43.64197" lon="7.03113">
        <ele>237.05291748047</ele>
        <time>2020-05-14T15:09:39Z</time>
      </trkpt>
      <trkpt lat="43.64199" lon="7.03123">
        <ele>237.15014648438</ele>
        <time>2020-05-14T15:09:40Z</time>
      </trkpt>
      <trkpt lat="43.642" lon="7.03133">
        <ele>237.22760009766</ele>
        <time>2020-05-14T15:09:41Z</time>
      </trkpt>
      <trkpt lat="43.64203" lon="7.03141">
        <ele>232.7666015625</ele>
        <time>2020-05-14T15:09:42Z</time>
      </trkpt>
      <trkpt lat="43.64205" lon="7.0315">
        <ele>233.33801269531</ele>
        <time>2020-05-14T15:09:43Z</time>
      </trkpt>
      <trkpt lat="43.64208" lon="7.03158">
        <ele>233.88037109375</ele>
        <time>2020-05-14T15:09:44Z</time>
      </trkpt>
      <trkpt lat="43.64211" lon="7.03166">
        <ele>234.00659179688</ele>
        <time>2020-05-14T15:09:45Z</time>
      </trkpt>
      <trkpt lat="43.64214" lon="7.03174">
        <ele>234.03161621094</ele>
        <time>2020-05-14T15:09:46Z</time>
      </trkpt>
      <trkpt lat="43.64216" lon="7.03182">
        <ele>234.22497558594</ele>
        <time>2020-05-14T15:09:47Z</time>
      </trkpt>
      <trkpt lat="43.64218" lon="7.0319">
        <ele>234.34301757812</ele>
        <time>2020-05-14T15:09:48Z</time>
      </trkpt>
      <trkpt lat="43.6422" lon="7.03198">
        <ele>234.27954101562</ele>
        <time>2020-05-14T15:09:49Z</time>
      </trkpt>
      <trkpt lat="43.64221" lon="7.03205">
        <ele>246.46649169922</ele>
        <time>2020-05-14T15:09:50Z</time>
      </trkpt>
      <trkpt lat="43.64223" lon="7.03213">
        <ele>234.86761474609</ele>
        <time>2020-05-14T15:09:51Z</time>
      </trkpt>
      <trkpt lat="43.64224" lon="7.03221">
        <ele>234.96215820312</ele>
        <time>2020-05-14T15:09:52Z</time>
      </trkpt>
      <trkpt lat="43.64225" lon="7.0323">
        <ele>245.40795898438</ele>
        <time>2020-05-14T15:09:53Z</time>
      </trkpt>
      <trkpt lat="43.64225" lon="7.03237">
        <ele>244.08795166016</ele>
        <time>2020-05-14T15:09:54Z</time>
      </trkpt>
      <trkpt lat="43.64226" lon="7.03245">
        <ele>244.07818603516</ele>
        <time>2020-05-14T15:09:55Z</time>
      </trkpt>
      <trkpt lat="43.64226" lon="7.03253">
        <ele>243.73034667969</ele>
        <time>2020-05-14T15:09:56Z</time>
      </trkpt>
      <trkpt lat="43.64226" lon="7.03262">
        <ele>243.85913085938</ele>
        <time>2020-05-14T15:09:57Z</time>
      </trkpt>
      <trkpt lat="43.64226" lon="7.0327">
        <ele>243.74816894531</ele>
        <time>2020-05-14T15:09:58Z</time>
      </trkpt>
      <trkpt lat="43.64226" lon="7.03279">
        <ele>243.55847167969</ele>
        <time>2020-05-14T15:09:59Z</time>
      </trkpt>
      <trkpt lat="43.64226" lon="7.03287">
        <ele>243.00073242188</ele>
        <time>2020-05-14T15:10:00Z</time>
      </trkpt>
      <trkpt lat="43.64226" lon="7.03295">
        <ele>243.88195800781</ele>
        <time>2020-05-14T15:10:01Z</time>
      </trkpt>
      <trkpt lat="43.64226" lon="7.03303">
        <ele>242.52551269531</ele>
        <time>2020-05-14T15:10:02Z</time>
      </trkpt>
      <trkpt lat="43.64226" lon="7.03312">
        <ele>242.14660644531</ele>
        <time>2020-05-14T15:10:03Z</time>
      </trkpt>
      <trkpt lat="43.64224" lon="7.03321">
        <ele>242.07305908203</ele>
        <time>2020-05-14T15:10:04Z</time>
      </trkpt>
      <trkpt lat="43.64223" lon="7.03329">
        <ele>242.1865234375</ele>
        <time>2020-05-14T15:10:05Z</time>
      </trkpt>
      <trkpt lat="43.64223" lon="7.03338">
        <ele>241.984375</ele>
        <time>2020-05-14T15:10:06Z</time>
      </trkpt>
      <trkpt lat="43.64222" lon="7.03347">
        <ele>241.76287841797</ele>
        <time>2020-05-14T15:10:07Z</time>
      </trkpt>
      <trkpt lat="43.64222" lon="7.03355">
        <ele>241.96575927734</ele>
        <time>2020-05-14T15:10:08Z</time>
      </trkpt>
      <trkpt lat="43.64222" lon="7.03363">
        <ele>242.03350830078</ele>
        <time>2020-05-14T15:10:09Z</time>
      </trkpt>
      <trkpt lat="43.64222" lon="7.03371">
        <ele>242.00640869141</ele>
        <time>2020-05-14T15:10:10Z</time>
      </trkpt>
      <trkpt lat="43.64223" lon="7.0338">
        <ele>242.10064697266</ele>
        <time>2020-05-14T15:10:11Z</time>
      </trkpt>
      <trkpt lat="43.64224" lon="7.03388">
        <ele>242.42376708984</ele>
        <time>2020-05-14T15:10:12Z</time>
      </trkpt>
      <trkpt lat="43.64225" lon="7.03397">
        <ele>242.51104736328</ele>
        <time>2020-05-14T15:10:13Z</time>
      </trkpt>
      <trkpt lat="43.64226" lon="7.03405">
        <ele>242.56109619141</ele>
        <time>2020-05-14T15:10:14Z</time>
      </trkpt>
      <trkpt lat="43.64227" lon="7.03413">
        <ele>242.65539550781</ele>
        <time>2020-05-14T15:10:15Z</time>
      </trkpt>
      <trkpt lat="43.64228" lon="7.03421">
        <ele>242.61096191406</ele>
        <time>2020-05-14T15:10:16Z</time>
      </trkpt>
      <trkpt lat="43.64229" lon="7.03429">
        <ele>242.88702392578</ele>
        <time>2020-05-14T15:10:17Z</time>
      </trkpt>
      <trkpt lat="43.64229" lon="7.03436">
        <ele>243.02593994141</ele>
        <time>2020-05-14T15:10:18Z</time>
      </trkpt>
      <trkpt lat="43.6423" lon="7.03443">
        <ele>243.04113769531</ele>
        <time>2020-05-14T15:10:19Z</time>
      </trkpt>
      <trkpt lat="43.64231" lon="7.03451">
        <ele>243.28039550781</ele>
        <time>2020-05-14T15:10:20Z</time>
      </trkpt>
      <trkpt lat="43.64232" lon="7.03458">
        <ele>243.23602294922</ele>
        <time>2020-05-14T15:10:21Z</time>
      </trkpt>
      <trkpt lat="43.64233" lon="7.03465">
        <ele>243.08459472656</ele>
        <time>2020-05-14T15:10:22Z</time>
      </trkpt>
      <trkpt lat="43.64234" lon="7.03471">
        <ele>243.27136230469</ele>
        <time>2020-05-14T15:10:23Z</time>
      </trkpt>
      <trkpt lat="43.64235" lon="7.03478">
        <ele>243.29321289062</ele>
        <time>2020-05-14T15:10:24Z</time>
      </trkpt>
      <trkpt lat="43.64237" lon="7.03484">
        <ele>243.32421875</ele>
        <time>2020-05-14T15:10:25Z</time>
      </trkpt>
      <trkpt lat="43.64238" lon="7.03491">
        <ele>243.18017578125</ele>
        <time>2020-05-14T15:10:26Z</time>
      </trkpt>
      <trkpt lat="43.64238" lon="7.03498">
        <ele>243.17620849609</ele>
        <time>2020-05-14T15:10:27Z</time>
      </trkpt>
      <trkpt lat="43.64238" lon="7.03504">
        <ele>243.38708496094</ele>
        <time>2020-05-14T15:10:28Z</time>
      </trkpt>
      <trkpt lat="43.64237" lon="7.0351">
        <ele>243.55035400391</ele>
        <time>2020-05-14T15:10:29Z</time>
      </trkpt>
      <trkpt lat="43.64236" lon="7.03517">
        <ele>243.70599365234</ele>
        <time>2020-05-14T15:10:30Z</time>
      </trkpt>
      <trkpt lat="43.64236" lon="7.03524">
        <ele>243.87365722656</ele>
        <time>2020-05-14T15:10:31Z</time>
      </trkpt>
      <trkpt lat="43.64237" lon="7.03531">
        <ele>244.08923339844</ele>
        <time>2020-05-14T15:10:32Z</time>
      </trkpt>
      <trkpt lat="43.64238" lon="7.03537">
        <ele>244.17620849609</ele>
        <time>2020-05-14T15:10:33Z</time>
      </trkpt>
      <trkpt lat="43.6424" lon="7.03543">
        <ele>244.50964355469</ele>
        <time>2020-05-14T15:10:34Z</time>
      </trkpt>
      <trkpt lat="43.64241" lon="7.03549">
        <ele>244.52667236328</ele>
        <time>2020-05-14T15:10:35Z</time>
      </trkpt>
      <trkpt lat="43.64241" lon="7.03556">
        <ele>244.54956054688</ele>
        <time>2020-05-14T15:10:36Z</time>
      </trkpt>
      <trkpt lat="43.64242" lon="7.03562">
        <ele>244.72741699219</ele>
        <time>2020-05-14T15:10:37Z</time>
      </trkpt>
      <trkpt lat="43.64242" lon="7.0357">
        <ele>244.50024414062</ele>
        <time>2020-05-14T15:10:38Z</time>
      </trkpt>
      <trkpt lat="43.64242" lon="7.03576">
        <ele>244.3154296875</ele>
        <time>2020-05-14T15:10:39Z</time>
      </trkpt>
      <trkpt lat="43.64242" lon="7.03583">
        <ele>244.28088378906</ele>
        <time>2020-05-14T15:10:40Z</time>
      </trkpt>
      <trkpt lat="43.64242" lon="7.0359">
        <ele>244.12536621094</ele>
        <time>2020-05-14T15:10:41Z</time>
      </trkpt>
      <trkpt lat="43.64242" lon="7.03596">
        <ele>244.18914794922</ele>
        <time>2020-05-14T15:10:42Z</time>
      </trkpt>
      <trkpt lat="43.64242" lon="7.03603">
        <ele>244.43957519531</ele>
        <time>2020-05-14T15:10:43Z</time>
      </trkpt>
      <trkpt lat="43.64243" lon="7.0361">
        <ele>244.51373291016</ele>
        <time>2020-05-14T15:10:44Z</time>
      </trkpt>
      <trkpt lat="43.64243" lon="7.03616">
        <ele>244.65655517578</ele>
        <time>2020-05-14T15:10:45Z</time>
      </trkpt>
      <trkpt lat="43.64244" lon="7.03622">
        <ele>244.35711669922</ele>
        <time>2020-05-14T15:10:46Z</time>
      </trkpt>
      <trkpt lat="43.64244" lon="7.03629">
        <ele>244.64581298828</ele>
        <time>2020-05-14T15:10:47Z</time>
      </trkpt>
      <trkpt lat="43.64245" lon="7.03636">
        <ele>244.9619140625</ele>
        <time>2020-05-14T15:10:48Z</time>
      </trkpt>
      <trkpt lat="43.64246" lon="7.03642">
        <ele>245.15124511719</ele>
        <time>2020-05-14T15:10:49Z</time>
      </trkpt>
      <trkpt lat="43.64247" lon="7.03649">
        <ele>245.32275390625</ele>
        <time>2020-05-14T15:10:50Z</time>
      </trkpt>
      <trkpt lat="43.64248" lon="7.03655">
        <ele>245.41674804688</ele>
        <time>2020-05-14T15:10:51Z</time>
      </trkpt>
      <trkpt lat="43.6425" lon="7.03661">
        <ele>245.69085693359</ele>
        <time>2020-05-14T15:10:52Z</time>
      </trkpt>
      <trkpt lat="43.64251" lon="7.03667">
        <ele>246.02154541016</ele>
        <time>2020-05-14T15:10:53Z</time>
      </trkpt>
      <trkpt lat="43.64252" lon="7.03673">
        <ele>246.15484619141</ele>
        <time>2020-05-14T15:10:54Z</time>
      </trkpt>
      <trkpt lat="43.64253" lon="7.03678">
        <ele>246.78192138672</ele>
        <time>2020-05-14T15:10:55Z</time>
      </trkpt>
      <trkpt lat="43.64254" lon="7.03683">
        <ele>247.10729980469</ele>
        <time>2020-05-14T15:10:56Z</time>
      </trkpt>
      <trkpt lat="43.64256" lon="7.03688">
        <ele>247.4658203125</ele>
        <time>2020-05-14T15:10:57Z</time>
      </trkpt>
      <trkpt lat="43.64257" lon="7.03693">
        <ele>247.55334472656</ele>
        <time>2020-05-14T15:10:58Z</time>
      </trkpt>
      <trkpt lat="43.64258" lon="7.03697">
        <ele>247.79455566406</ele>
        <time>2020-05-14T15:10:59Z</time>
      </trkpt>
      <trkpt lat="43.64259" lon="7.03701">
        <ele>247.89624023438</ele>
        <time>2020-05-14T15:11:00Z</time>
      </trkpt>
      <trkpt lat="43.64261" lon="7.03706">
        <ele>248.23791503906</ele>
        <time>2020-05-14T15:11:01Z</time>
      </trkpt>
      <trkpt lat="43.64262" lon="7.03711">
        <ele>248.53021240234</ele>
        <time>2020-05-14T15:11:02Z</time>
      </trkpt>
      <trkpt lat="43.64263" lon="7.03715">
        <ele>249.09552001953</ele>
        <time>2020-05-14T15:11:03Z</time>
      </trkpt>
      <trkpt lat="43.64264" lon="7.0372">
        <ele>249.2744140625</ele>
        <time>2020-05-14T15:11:04Z</time>
      </trkpt>
      <trkpt lat="43.64265" lon="7.03725">
        <ele>249.32806396484</ele>
        <time>2020-05-14T15:11:05Z</time>
      </trkpt>
      <trkpt lat="43.64266" lon="7.0373">
        <ele>249.50225830078</ele>
        <time>2020-05-14T15:11:06Z</time>
      </trkpt>
      <trkpt lat="43.64268" lon="7.03734">
        <ele>249.43316650391</ele>
        <time>2020-05-14T15:11:07Z</time>
      </trkpt>
      <trkpt lat="43.64269" lon="7.03739">
        <ele>249.49426269531</ele>
        <time>2020-05-14T15:11:08Z</time>
      </trkpt>
      <trkpt lat="43.64271" lon="7.03743">
        <ele>250.00256347656</ele>
        <time>2020-05-14T15:11:09Z</time>
      </trkpt>
      <trkpt lat="43.64272" lon="7.03747">
        <ele>250.27893066406</ele>
        <time>2020-05-14T15:11:10Z</time>
      </trkpt>
      <trkpt lat="43.64274" lon="7.03752">
        <ele>250.08660888672</ele>
        <time>2020-05-14T15:11:11Z</time>
      </trkpt>
      <trkpt lat="43.64275" lon="7.03756">
        <ele>250.35461425781</ele>
        <time>2020-05-14T15:11:12Z</time>
      </trkpt>
      <trkpt lat="43.64277" lon="7.0376">
        <ele>250.49835205078</ele>
        <time>2020-05-14T15:11:13Z</time>
      </trkpt>
      <trkpt lat="43.64278" lon="7.03765">
        <ele>250.48065185547</ele>
        <time>2020-05-14T15:11:14Z</time>
      </trkpt>
      <trkpt lat="43.64279" lon="7.0377">
        <ele>250.56420898438</ele>
        <time>2020-05-14T15:11:15Z</time>
      </trkpt>
      <trkpt lat="43.64281" lon="7.03774">
        <ele>250.42950439453</ele>
        <time>2020-05-14T15:11:16Z</time>
      </trkpt>
      <trkpt lat="43.64282" lon="7.03779">
        <ele>250.61529541016</ele>
        <time>2020-05-14T15:11:17Z</time>
      </trkpt>
      <trkpt lat="43.64284" lon="7.03783">
        <ele>251.18518066406</ele>
        <time>2020-05-14T15:11:18Z</time>
      </trkpt>
      <trkpt lat="43.64285" lon="7.03787">
        <ele>251.37835693359</ele>
        <time>2020-05-14T15:11:19Z</time>
      </trkpt>
      <trkpt lat="43.64287" lon="7.03791">
        <ele>251.44879150391</ele>
        <time>2020-05-14T15:11:20Z</time>
      </trkpt>
      <trkpt lat="43.64289" lon="7.03795">
        <ele>251.85736083984</ele>
        <time>2020-05-14T15:11:21Z</time>
      </trkpt>
      <trkpt lat="43.6429" lon="7.03799">
        <ele>252.18267822266</ele>
        <time>2020-05-14T15:11:22Z</time>
      </trkpt>
      <trkpt lat="43.64292" lon="7.03803">
        <ele>252.11114501953</ele>
        <time>2020-05-14T15:11:23Z</time>
      </trkpt>
      <trkpt lat="43.64293" lon="7.03807">
        <ele>252.22729492188</ele>
        <time>2020-05-14T15:11:24Z</time>
      </trkpt>
      <trkpt lat="43.64295" lon="7.03811">
        <ele>252.75366210938</ele>
        <time>2020-05-14T15:11:25Z</time>
      </trkpt>
      <trkpt lat="43.64297" lon="7.03814">
        <ele>253.06207275391</ele>
        <time>2020-05-14T15:11:26Z</time>
      </trkpt>
      <trkpt lat="43.64299" lon="7.03818">
        <ele>253.6064453125</ele>
        <time>2020-05-14T15:11:27Z</time>
      </trkpt>
      <trkpt lat="43.643" lon="7.0382">
        <ele>254.40270996094</ele>
        <time>2020-05-14T15:11:28Z</time>
      </trkpt>
      <trkpt lat="43.64302" lon="7.03823">
        <ele>254.33654785156</ele>
        <time>2020-05-14T15:11:29Z</time>
      </trkpt>
      <trkpt lat="43.64304" lon="7.03827">
        <ele>254.42340087891</ele>
        <time>2020-05-14T15:11:30Z</time>
      </trkpt>
      <trkpt lat="43.64306" lon="7.0383">
        <ele>254.61956787109</ele>
        <time>2020-05-14T15:11:31Z</time>
      </trkpt>
      <trkpt lat="43.64308" lon="7.03833">
        <ele>254.87133789062</ele>
        <time>2020-05-14T15:11:32Z</time>
      </trkpt>
      <trkpt lat="43.6431" lon="7.03837">
        <ele>255.52624511719</ele>
        <time>2020-05-14T15:11:33Z</time>
      </trkpt>
      <trkpt lat="43.64312" lon="7.03841">
        <ele>256.07775878906</ele>
        <time>2020-05-14T15:11:34Z</time>
      </trkpt>
      <trkpt lat="43.64315" lon="7.03845">
        <ele>256.64208984375</ele>
        <time>2020-05-14T15:11:35Z</time>
      </trkpt>
      <trkpt lat="43.64318" lon="7.03849">
        <ele>257.05987548828</ele>
        <time>2020-05-14T15:11:36Z</time>
      </trkpt>
      <trkpt lat="43.6432" lon="7.03853">
        <ele>257.43603515625</ele>
        <time>2020-05-14T15:11:37Z</time>
      </trkpt>
      <trkpt lat="43.64323" lon="7.03859">
        <ele>257.35803222656</ele>
        <time>2020-05-14T15:11:38Z</time>
      </trkpt>
      <trkpt lat="43.64327" lon="7.03865">
        <ele>256.41955566406</ele>
        <time>2020-05-14T15:11:39Z</time>
      </trkpt>
      <trkpt lat="43.64331" lon="7.03871">
        <ele>256.90173339844</ele>
        <time>2020-05-14T15:11:40Z</time>
      </trkpt>
      <trkpt lat="43.64335" lon="7.03878">
        <ele>256.41223144531</ele>
        <time>2020-05-14T15:11:41Z</time>
      </trkpt>
      <trkpt lat="43.64339" lon="7.03885">
        <ele>256.24731445312</ele>
        <time>2020-05-14T15:11:42Z</time>
      </trkpt>
      <trkpt lat="43.64343" lon="7.03893">
        <ele>256.14978027344</ele>
        <time>2020-05-14T15:11:43Z</time>
      </trkpt>
      <trkpt lat="43.64347" lon="7.03901">
        <ele>255.9208984375</ele>
        <time>2020-05-14T15:11:44Z</time>
      </trkpt>
      <trkpt lat="43.6435" lon="7.03909">
        <ele>255.78491210938</ele>
        <time>2020-05-14T15:11:45Z</time>
      </trkpt>
      <trkpt lat="43.64354" lon="7.03918">
        <ele>255.70922851562</ele>
        <time>2020-05-14T15:11:46Z</time>
      </trkpt>
      <trkpt lat="43.64357" lon="7.03928">
        <ele>256.04162597656</ele>
        <time>2020-05-14T15:11:47Z</time>
      </trkpt>
      <trkpt lat="43.6436" lon="7.03938">
        <ele>255.59838867188</ele>
        <time>2020-05-14T15:11:48Z</time>
      </trkpt>
      <trkpt lat="43.64362" lon="7.03949">
        <ele>254.91455078125</ele>
        <time>2020-05-14T15:11:49Z</time>
      </trkpt>
      <trkpt lat="43.64365" lon="7.03961">
        <ele>253.568359375</ele>
        <time>2020-05-14T15:11:50Z</time>
      </trkpt>
      <trkpt lat="43.64367" lon="7.03973">
        <ele>253.48223876953</ele>
        <time>2020-05-14T15:11:51Z</time>
      </trkpt>
      <trkpt lat="43.64368" lon="7.03985">
        <ele>252.81335449219</ele>
        <time>2020-05-14T15:11:52Z</time>
      </trkpt>
      <trkpt lat="43.64368" lon="7.03997">
        <ele>251.65405273438</ele>
        <time>2020-05-14T15:11:53Z</time>
      </trkpt>
      <trkpt lat="43.64368" lon="7.04009">
        <ele>251.38659667969</ele>
        <time>2020-05-14T15:11:54Z</time>
      </trkpt>
      <trkpt lat="43.64368" lon="7.04021">
        <ele>250.88732910156</ele>
        <time>2020-05-14T15:11:55Z</time>
      </trkpt>
      <trkpt lat="43.64369" lon="7.04034">
        <ele>250.32275390625</ele>
        <time>2020-05-14T15:11:56Z</time>
      </trkpt>
      <trkpt lat="43.64369" lon="7.04046">
        <ele>250.10272216797</ele>
        <time>2020-05-14T15:11:57Z</time>
      </trkpt>
      <trkpt lat="43.64369" lon="7.04059">
        <ele>246.46899414062</ele>
        <time>2020-05-14T15:11:58Z</time>
      </trkpt>
      <trkpt lat="43.64368" lon="7.04073">
        <ele>243.66888427734</ele>
        <time>2020-05-14T15:11:59Z</time>
      </trkpt>
      <trkpt lat="43.64367" lon="7.04085">
        <ele>242.94555664062</ele>
        <time>2020-05-14T15:12:00Z</time>
      </trkpt>
      <trkpt lat="43.64366" lon="7.04098">
        <ele>242.44946289062</ele>
        <time>2020-05-14T15:12:01Z</time>
      </trkpt>
      <trkpt lat="43.64365" lon="7.04111">
        <ele>241.375</ele>
        <time>2020-05-14T15:12:02Z</time>
      </trkpt>
      <trkpt lat="43.64364" lon="7.04124">
        <ele>240.91845703125</ele>
        <time>2020-05-14T15:12:03Z</time>
      </trkpt>
      <trkpt lat="43.64362" lon="7.04137">
        <ele>240.4892578125</ele>
        <time>2020-05-14T15:12:04Z</time>
      </trkpt>
      <trkpt lat="43.64361" lon="7.04151">
        <ele>240.29339599609</ele>
        <time>2020-05-14T15:12:05Z</time>
      </trkpt>
      <trkpt lat="43.64359" lon="7.04165">
        <ele>239.94494628906</ele>
        <time>2020-05-14T15:12:06Z</time>
      </trkpt>
      <trkpt lat="43.64358" lon="7.04179">
        <ele>239.53411865234</ele>
        <time>2020-05-14T15:12:07Z</time>
      </trkpt>
      <trkpt lat="43.64357" lon="7.04193">
        <ele>239.10986328125</ele>
        <time>2020-05-14T15:12:08Z</time>
      </trkpt>
      <trkpt lat="43.64357" lon="7.04207">
        <ele>238.37097167969</ele>
        <time>2020-05-14T15:12:09Z</time>
      </trkpt>
      <trkpt lat="43.64357" lon="7.04221">
        <ele>238.4970703125</ele>
        <time>2020-05-14T15:12:10Z</time>
      </trkpt>
      <trkpt lat="43.64356" lon="7.04235">
        <ele>238.62902832031</ele>
        <time>2020-05-14T15:12:11Z</time>
      </trkpt>
      <trkpt lat="43.64356" lon="7.04249">
        <ele>238.38800048828</ele>
        <time>2020-05-14T15:12:12Z</time>
      </trkpt>
      <trkpt lat="43.64357" lon="7.04263">
        <ele>238.02514648438</ele>
        <time>2020-05-14T15:12:13Z</time>
      </trkpt>
      <trkpt lat="43.64359" lon="7.04279">
        <ele>237.36047363281</ele>
        <time>2020-05-14T15:12:14Z</time>
      </trkpt>
      <trkpt lat="43.6436" lon="7.04293">
        <ele>236.98498535156</ele>
        <time>2020-05-14T15:12:15Z</time>
      </trkpt>
      <trkpt lat="43.64361" lon="7.04309">
        <ele>236.26025390625</ele>
        <time>2020-05-14T15:12:16Z</time>
      </trkpt>
      <trkpt lat="43.64363" lon="7.04323">
        <ele>235.41137695312</ele>
        <time>2020-05-14T15:12:17Z</time>
      </trkpt>
      <trkpt lat="43.64366" lon="7.04336">
        <ele>234.93316650391</ele>
        <time>2020-05-14T15:12:18Z</time>
      </trkpt>
      <trkpt lat="43.64371" lon="7.04349">
        <ele>233.93359375</ele>
        <time>2020-05-14T15:12:19Z</time>
      </trkpt>
      <trkpt lat="43.64378" lon="7.04361">
        <ele>233.31530761719</ele>
        <time>2020-05-14T15:12:20Z</time>
      </trkpt>
      <trkpt lat="43.64385" lon="7.04372">
        <ele>232.37628173828</ele>
        <time>2020-05-14T15:12:21Z</time>
      </trkpt>
      <trkpt lat="43.64392" lon="7.04383">
        <ele>231.43798828125</ele>
        <time>2020-05-14T15:12:22Z</time>
      </trkpt>
      <trkpt lat="43.644" lon="7.04393">
        <ele>230.92877197266</ele>
        <time>2020-05-14T15:12:23Z</time>
      </trkpt>
      <trkpt lat="43.64408" lon="7.04403">
        <ele>230.19683837891</ele>
        <time>2020-05-14T15:12:24Z</time>
      </trkpt>
      <trkpt lat="43.64415" lon="7.04415">
        <ele>229.39782714844</ele>
        <time>2020-05-14T15:12:25Z</time>
      </trkpt>
      <trkpt lat="43.6442" lon="7.0443">
        <ele>228.83129882812</ele>
        <time>2020-05-14T15:12:26Z</time>
      </trkpt>
      <trkpt lat="43.64422" lon="7.04445">
        <ele>228.0498046875</ele>
        <time>2020-05-14T15:12:27Z</time>
      </trkpt>
      <trkpt lat="43.64422" lon="7.0446">
        <ele>227.03015136719</ele>
        <time>2020-05-14T15:12:28Z</time>
      </trkpt>
      <trkpt lat="43.6442" lon="7.04474">
        <ele>219.25830078125</ele>
        <time>2020-05-14T15:12:29Z</time>
      </trkpt>
      <trkpt lat="43.64417" lon="7.04486">
        <ele>218.41131591797</ele>
        <time>2020-05-14T15:12:30Z</time>
      </trkpt>
      <trkpt lat="43.64411" lon="7.04495">
        <ele>218.32647705078</ele>
        <time>2020-05-14T15:12:31Z</time>
      </trkpt>
      <trkpt lat="43.64403" lon="7.04501">
        <ele>215.99926757812</ele>
        <time>2020-05-14T15:12:32Z</time>
      </trkpt>
      <trkpt lat="43.64395" lon="7.04503">
        <ele>215.48876953125</ele>
        <time>2020-05-14T15:12:33Z</time>
      </trkpt>
      <trkpt lat="43.64387" lon="7.04507">
        <ele>214.76257324219</ele>
        <time>2020-05-14T15:12:34Z</time>
      </trkpt>
      <trkpt lat="43.6438" lon="7.04512">
        <ele>214.85473632812</ele>
        <time>2020-05-14T15:12:35Z</time>
      </trkpt>
      <trkpt lat="43.64373" lon="7.0452">
        <ele>214.51928710938</ele>
        <time>2020-05-14T15:12:36Z</time>
      </trkpt>
      <trkpt lat="43.64372" lon="7.04532">
        <ele>214.31701660156</ele>
        <time>2020-05-14T15:12:37Z</time>
      </trkpt>
      <trkpt lat="43.64372" lon="7.04543">
        <ele>213.83032226562</ele>
        <time>2020-05-14T15:12:38Z</time>
      </trkpt>
      <trkpt lat="43.64375" lon="7.04552">
        <ele>214.29357910156</ele>
        <time>2020-05-14T15:12:39Z</time>
      </trkpt>
      <trkpt lat="43.64379" lon="7.0456">
        <ele>214.16174316406</ele>
        <time>2020-05-14T15:12:40Z</time>
      </trkpt>
      <trkpt lat="43.64383" lon="7.04567">
        <ele>214.32354736328</ele>
        <time>2020-05-14T15:12:41Z</time>
      </trkpt>
      <trkpt lat="43.64387" lon="7.04575">
        <ele>214.04449462891</ele>
        <time>2020-05-14T15:12:42Z</time>
      </trkpt>
      <trkpt lat="43.64389" lon="7.04583">
        <ele>214.07019042969</ele>
        <time>2020-05-14T15:12:43Z</time>
      </trkpt>
      <trkpt lat="43.64391" lon="7.04591">
        <ele>214.15393066406</ele>
        <time>2020-05-14T15:12:44Z</time>
      </trkpt>
      <trkpt lat="43.64393" lon="7.04599">
        <ele>214.10021972656</ele>
        <time>2020-05-14T15:12:45Z</time>
      </trkpt>
      <trkpt lat="43.64395" lon="7.04606">
        <ele>214.08947753906</ele>
        <time>2020-05-14T15:12:46Z</time>
      </trkpt>
      <trkpt lat="43.64397" lon="7.04614">
        <ele>214.55004882812</ele>
        <time>2020-05-14T15:12:47Z</time>
      </trkpt>
      <trkpt lat="43.64399" lon="7.04621">
        <ele>214.60308837891</ele>
        <time>2020-05-14T15:12:48Z</time>
      </trkpt>
      <trkpt lat="43.64401" lon="7.04628">
        <ele>214.80517578125</ele>
        <time>2020-05-14T15:12:49Z</time>
      </trkpt>
      <trkpt lat="43.64403" lon="7.04636">
        <ele>214.79711914062</ele>
        <time>2020-05-14T15:12:50Z</time>
      </trkpt>
      <trkpt lat="43.64405" lon="7.04643">
        <ele>214.75610351562</ele>
        <time>2020-05-14T15:12:51Z</time>
      </trkpt>
      <trkpt lat="43.64407" lon="7.0465">
        <ele>214.49536132812</ele>
        <time>2020-05-14T15:12:52Z</time>
      </trkpt>
      <trkpt lat="43.64408" lon="7.04657">
        <ele>214.37072753906</ele>
        <time>2020-05-14T15:12:53Z</time>
      </trkpt>
      <trkpt lat="43.6441" lon="7.04664">
        <ele>214.25231933594</ele>
        <time>2020-05-14T15:12:54Z</time>
      </trkpt>
      <trkpt lat="43.64411" lon="7.04672">
        <ele>214.12176513672</ele>
        <time>2020-05-14T15:12:55Z</time>
      </trkpt>
      <trkpt lat="43.64413" lon="7.0468">
        <ele>213.7802734375</ele>
        <time>2020-05-14T15:12:56Z</time>
      </trkpt>
      <trkpt lat="43.64415" lon="7.04689">
        <ele>213.63568115234</ele>
        <time>2020-05-14T15:12:57Z</time>
      </trkpt>
      <trkpt lat="43.64416" lon="7.04697">
        <ele>213.17272949219</ele>
        <time>2020-05-14T15:12:58Z</time>
      </trkpt>
      <trkpt lat="43.64417" lon="7.04706">
        <ele>212.99713134766</ele>
        <time>2020-05-14T15:12:59Z</time>
      </trkpt>
      <trkpt lat="43.64417" lon="7.04716">
        <ele>212.91821289062</ele>
        <time>2020-05-14T15:13:00Z</time>
      </trkpt>
      <trkpt lat="43.64419" lon="7.04725">
        <ele>212.51062011719</ele>
        <time>2020-05-14T15:13:01Z</time>
      </trkpt>
      <trkpt lat="43.64419" lon="7.04735">
        <ele>212.45599365234</ele>
        <time>2020-05-14T15:13:02Z</time>
      </trkpt>
      <trkpt lat="43.64419" lon="7.04745">
        <ele>212.24938964844</ele>
        <time>2020-05-14T15:13:03Z</time>
      </trkpt>
      <trkpt lat="43.64419" lon="7.04754">
        <ele>212.42059326172</ele>
        <time>2020-05-14T15:13:04Z</time>
      </trkpt>
      <trkpt lat="43.64419" lon="7.04764">
        <ele>212.25146484375</ele>
        <time>2020-05-14T15:13:05Z</time>
      </trkpt>
      <trkpt lat="43.64419" lon="7.04773">
        <ele>212.50524902344</ele>
        <time>2020-05-14T15:13:06Z</time>
      </trkpt>
      <trkpt lat="43.64419" lon="7.04781">
        <ele>212.64471435547</ele>
        <time>2020-05-14T15:13:07Z</time>
      </trkpt>
      <trkpt lat="43.64419" lon="7.04789">
        <ele>212.73657226562</ele>
        <time>2020-05-14T15:13:08Z</time>
      </trkpt>
      <trkpt lat="43.64419" lon="7.04797">
        <ele>212.54650878906</ele>
        <time>2020-05-14T15:13:09Z</time>
      </trkpt>
      <trkpt lat="43.64418" lon="7.04804">
        <ele>212.59710693359</ele>
        <time>2020-05-14T15:13:10Z</time>
      </trkpt>
      <trkpt lat="43.64417" lon="7.04811">
        <ele>212.48095703125</ele>
        <time>2020-05-14T15:13:11Z</time>
      </trkpt>
      <trkpt lat="43.64417" lon="7.04818">
        <ele>212.78991699219</ele>
        <time>2020-05-14T15:13:12Z</time>
      </trkpt>
      <trkpt lat="43.64417" lon="7.04824">
        <ele>213.12133789062</ele>
        <time>2020-05-14T15:13:13Z</time>
      </trkpt>
      <trkpt lat="43.64417" lon="7.0483">
        <ele>213.11175537109</ele>
        <time>2020-05-14T15:13:14Z</time>
      </trkpt>
      <trkpt lat="43.64417" lon="7.04836">
        <ele>213.123046875</ele>
        <time>2020-05-14T15:13:15Z</time>
      </trkpt>
      <trkpt lat="43.64417" lon="7.04842">
        <ele>212.98602294922</ele>
        <time>2020-05-14T15:13:16Z</time>
      </trkpt>
      <trkpt lat="43.64417" lon="7.04848">
        <ele>212.91180419922</ele>
        <time>2020-05-14T15:13:17Z</time>
      </trkpt>
      <trkpt lat="43.64417" lon="7.04853">
        <ele>212.94268798828</ele>
        <time>2020-05-14T15:13:18Z</time>
      </trkpt>
      <trkpt lat="43.64417" lon="7.04859">
        <ele>212.99774169922</ele>
        <time>2020-05-14T15:13:19Z</time>
      </trkpt>
      <trkpt lat="43.64417" lon="7.04864">
        <ele>212.89001464844</ele>
        <time>2020-05-14T15:13:20Z</time>
      </trkpt>
      <trkpt lat="43.64418" lon="7.0487">
        <ele>213.14117431641</ele>
        <time>2020-05-14T15:13:21Z</time>
      </trkpt>
      <trkpt lat="43.64418" lon="7.04875">
        <ele>213.33422851562</ele>
        <time>2020-05-14T15:13:22Z</time>
      </trkpt>
      <trkpt lat="43.64418" lon="7.04881">
        <ele>213.47399902344</ele>
        <time>2020-05-14T15:13:23Z</time>
      </trkpt>
      <trkpt lat="43.64419" lon="7.04886">
        <ele>213.84997558594</ele>
        <time>2020-05-14T15:13:24Z</time>
      </trkpt>
      <trkpt lat="43.6442" lon="7.04892">
        <ele>213.89135742188</ele>
        <time>2020-05-14T15:13:25Z</time>
      </trkpt>
      <trkpt lat="43.6442" lon="7.04897">
        <ele>213.9609375</ele>
        <time>2020-05-14T15:13:26Z</time>
      </trkpt>
      <trkpt lat="43.6442" lon="7.04902">
        <ele>213.85296630859</ele>
        <time>2020-05-14T15:13:27Z</time>
      </trkpt>
      <trkpt lat="43.6442" lon="7.04907">
        <ele>213.90563964844</ele>
        <time>2020-05-14T15:13:28Z</time>
      </trkpt>
      <trkpt lat="43.64419" lon="7.04912">
        <ele>213.86224365234</ele>
        <time>2020-05-14T15:13:29Z</time>
      </trkpt>
      <trkpt lat="43.64417" lon="7.04917">
        <ele>214.07489013672</ele>
        <time>2020-05-14T15:13:30Z</time>
      </trkpt>
      <trkpt lat="43.64414" lon="7.04921">
        <ele>214.09100341797</ele>
        <time>2020-05-14T15:13:31Z</time>
      </trkpt>
      <trkpt lat="43.64411" lon="7.04926">
        <ele>214.50341796875</ele>
        <time>2020-05-14T15:13:32Z</time>
      </trkpt>
      <trkpt lat="43.64409" lon="7.0493">
        <ele>214.12493896484</ele>
        <time>2020-05-14T15:13:33Z</time>
      </trkpt>
      <trkpt lat="43.64407" lon="7.04935">
        <ele>214.32244873047</ele>
        <time>2020-05-14T15:13:34Z</time>
      </trkpt>
      <trkpt lat="43.64405" lon="7.0494">
        <ele>214.49188232422</ele>
        <time>2020-05-14T15:13:35Z</time>
      </trkpt>
      <trkpt lat="43.64403" lon="7.04945">
        <ele>214.47015380859</ele>
        <time>2020-05-14T15:13:36Z</time>
      </trkpt>
      <trkpt lat="43.64401" lon="7.0495">
        <ele>214.42120361328</ele>
        <time>2020-05-14T15:13:37Z</time>
      </trkpt>
      <trkpt lat="43.64399" lon="7.04954">
        <ele>214.31829833984</ele>
        <time>2020-05-14T15:13:38Z</time>
      </trkpt>
      <trkpt lat="43.64395" lon="7.04958">
        <ele>214.36926269531</ele>
        <time>2020-05-14T15:13:39Z</time>
      </trkpt>
      <trkpt lat="43.64392" lon="7.04961">
        <ele>214.45178222656</ele>
        <time>2020-05-14T15:13:40Z</time>
      </trkpt>
      <trkpt lat="43.64388" lon="7.04964">
        <ele>214.68829345703</ele>
        <time>2020-05-14T15:13:41Z</time>
      </trkpt>
      <trkpt lat="43.64384" lon="7.04966">
        <ele>215.18109130859</ele>
        <time>2020-05-14T15:13:42Z</time>
      </trkpt>
      <trkpt lat="43.6438" lon="7.04967">
        <ele>215.21893310547</ele>
        <time>2020-05-14T15:13:43Z</time>
      </trkpt>
      <trkpt lat="43.64377" lon="7.04969">
        <ele>215.48742675781</ele>
        <time>2020-05-14T15:13:44Z</time>
      </trkpt>
      <trkpt lat="43.64374" lon="7.0497">
        <ele>215.86242675781</ele>
        <time>2020-05-14T15:13:45Z</time>
      </trkpt>
      <trkpt lat="43.64371" lon="7.04971">
        <ele>216.24047851562</ele>
        <time>2020-05-14T15:13:46Z</time>
      </trkpt>
      <trkpt lat="43.64368" lon="7.04973">
        <ele>216.31378173828</ele>
        <time>2020-05-14T15:13:47Z</time>
      </trkpt>
      <trkpt lat="43.64365" lon="7.04974">
        <ele>216.28381347656</ele>
        <time>2020-05-14T15:13:48Z</time>
      </trkpt>
      <trkpt lat="43.64363" lon="7.04976">
        <ele>216.44323730469</ele>
        <time>2020-05-14T15:13:49Z</time>
      </trkpt>
      <trkpt lat="43.64361" lon="7.04978">
        <ele>216.44445800781</ele>
        <time>2020-05-14T15:13:50Z</time>
      </trkpt>
      <trkpt lat="43.64358" lon="7.04979">
        <ele>216.53527832031</ele>
        <time>2020-05-14T15:13:51Z</time>
      </trkpt>
      <trkpt lat="43.64356" lon="7.0498">
        <ele>216.62084960938</ele>
        <time>2020-05-14T15:13:52Z</time>
      </trkpt>
      <trkpt lat="43.64354" lon="7.04981">
        <ele>216.744140625</ele>
        <time>2020-05-14T15:13:53Z</time>
      </trkpt>
      <trkpt lat="43.64352" lon="7.04982">
        <ele>216.8076171875</ele>
        <time>2020-05-14T15:13:54Z</time>
      </trkpt>
      <trkpt lat="43.64351" lon="7.04983">
        <ele>217.02825927734</ele>
        <time>2020-05-14T15:13:55Z</time>
      </trkpt>
      <trkpt lat="43.64349" lon="7.04984">
        <ele>217.00616455078</ele>
        <time>2020-05-14T15:13:56Z</time>
      </trkpt>
      <trkpt lat="43.64347" lon="7.04985">
        <ele>217.23498535156</ele>
        <time>2020-05-14T15:13:57Z</time>
      </trkpt>
      <trkpt lat="43.64346" lon="7.04987">
        <ele>217.37658691406</ele>
        <time>2020-05-14T15:13:58Z</time>
      </trkpt>
      <trkpt lat="43.64344" lon="7.04987">
        <ele>217.57562255859</ele>
        <time>2020-05-14T15:13:59Z</time>
      </trkpt>
      <trkpt lat="43.64343" lon="7.04988">
        <ele>217.92224121094</ele>
        <time>2020-05-14T15:14:00Z</time>
      </trkpt>
      <trkpt lat="43.64342" lon="7.04989">
        <ele>217.91326904297</ele>
        <time>2020-05-14T15:14:01Z</time>
      </trkpt>
      <trkpt lat="43.64341" lon="7.04989">
        <ele>218.24719238281</ele>
        <time>2020-05-14T15:14:02Z</time>
      </trkpt>
      <trkpt lat="43.6434" lon="7.0499">
        <ele>218.47705078125</ele>
        <time>2020-05-14T15:14:03Z</time>
      </trkpt>
      <trkpt lat="43.64339" lon="7.04991">
        <ele>218.71618652344</ele>
        <time>2020-05-14T15:14:04Z</time>
      </trkpt>
      <trkpt lat="43.64338" lon="7.04991">
        <ele>218.57000732422</ele>
        <time>2020-05-14T15:14:05Z</time>
      </trkpt>
      <trkpt lat="43.64337" lon="7.04992">
        <ele>218.44067382812</ele>
        <time>2020-05-14T15:14:06Z</time>
      </trkpt>
      <trkpt lat="43.64337" lon="7.04992">
        <ele>218.17376708984</ele>
        <time>2020-05-14T15:14:07Z</time>
      </trkpt>
      <trkpt lat="43.64337" lon="7.04992">
        <ele>218.03118896484</ele>
        <time>2020-05-14T15:14:08Z</time>
      </trkpt>
      <trkpt lat="43.64337" lon="7.04992">
        <ele>217.42272949219</ele>
        <time>2020-05-14T15:14:09Z</time>
      </trkpt>
      <trkpt lat="43.64337" lon="7.04992">
        <ele>217.48608398438</ele>
        <time>2020-05-14T15:14:10Z</time>
      </trkpt>
      <trkpt lat="43.64337" lon="7.04992">
        <ele>217.48876953125</ele>
        <time>2020-05-14T15:14:11Z</time>
      </trkpt>
      <trkpt lat="43.64337" lon="7.04992">
        <ele>217.30303955078</ele>
        <time>2020-05-14T15:14:12Z</time>
      </trkpt>
      <trkpt lat="43.64337" lon="7.04992">
        <ele>217.291015625</ele>
        <time>2020-05-14T15:14:13Z</time>
      </trkpt>
      <trkpt lat="43.64337" lon="7.04992">
        <ele>217.20263671875</ele>
        <time>2020-05-14T15:14:14Z</time>
      </trkpt>
      <trkpt lat="43.64337" lon="7.04992">
        <ele>217.19256591797</ele>
        <time>2020-05-14T15:14:15Z</time>
      </trkpt>
      <trkpt lat="43.64338" lon="7.04992">
        <ele>217.13177490234</ele>
        <time>2020-05-14T15:14:16Z</time>
      </trkpt>
      <trkpt lat="43.64338" lon="7.04992">
        <ele>216.94873046875</ele>
        <time>2020-05-14T15:14:17Z</time>
      </trkpt>
      <trkpt lat="43.64338" lon="7.04992">
        <ele>216.98779296875</ele>
        <time>2020-05-14T15:14:18Z</time>
      </trkpt>
      <trkpt lat="43.64338" lon="7.04992">
        <ele>216.99011230469</ele>
        <time>2020-05-14T15:14:19Z</time>
      </trkpt>
      <trkpt lat="43.64338" lon="7.04992">
        <ele>216.99212646484</ele>
        <time>2020-05-14T15:14:20Z</time>
      </trkpt>
      <trkpt lat="43.64338" lon="7.04992">
        <ele>216.99816894531</ele>
        <time>2020-05-14T15:14:21Z</time>
      </trkpt>
      <trkpt lat="43.64338" lon="7.04992">
        <ele>217.00091552734</ele>
        <time>2020-05-14T15:14:22Z</time>
      </trkpt>
      <trkpt lat="43.64338" lon="7.04992">
        <ele>217.001953125</ele>
        <time>2020-05-14T15:14:23Z</time>
      </trkpt>
      <trkpt lat="43.64338" lon="7.04992">
        <ele>217.00445556641</ele>
        <time>2020-05-14T15:14:24Z</time>
      </trkpt>
      <trkpt lat="43.64338" lon="7.04992">
        <ele>217.00659179688</ele>
        <time>2020-05-14T15:14:25Z</time>
      </trkpt>
      <trkpt lat="43.64338" lon="7.04992">
        <ele>217.00695800781</ele>
        <time>2020-05-14T15:14:26Z</time>
      </trkpt>
      <trkpt lat="43.64338" lon="7.04992">
        <ele>217.00744628906</ele>
        <time>2020-05-14T15:14:27Z</time>
      </trkpt>
      <trkpt lat="43.64338" lon="7.04992">
        <ele>217.00909423828</ele>
        <time>2020-05-14T15:14:28Z</time>
      </trkpt>
      <trkpt lat="43.64337" lon="7.04992">
        <ele>217.21197509766</ele>
        <time>2020-05-14T15:14:29Z</time>
      </trkpt>
      <trkpt lat="43.64336" lon="7.04993">
        <ele>217.48107910156</ele>
        <time>2020-05-14T15:14:30Z</time>
      </trkpt>
      <trkpt lat="43.64334" lon="7.04994">
        <ele>217.31042480469</ele>
        <time>2020-05-14T15:14:31Z</time>
      </trkpt>
      <trkpt lat="43.64332" lon="7.04996">
        <ele>217.74157714844</ele>
        <time>2020-05-14T15:14:32Z</time>
      </trkpt>
      <trkpt lat="43.64329" lon="7.04998">
        <ele>217.87048339844</ele>
        <time>2020-05-14T15:14:33Z</time>
      </trkpt>
      <trkpt lat="43.64326" lon="7.05">
        <ele>217.91119384766</ele>
        <time>2020-05-14T15:14:34Z</time>
      </trkpt>
      <trkpt lat="43.64323" lon="7.05002">
        <ele>217.62902832031</ele>
        <time>2020-05-14T15:14:35Z</time>
      </trkpt>
      <trkpt lat="43.64319" lon="7.05004">
        <ele>217.79913330078</ele>
        <time>2020-05-14T15:14:36Z</time>
      </trkpt>
      <trkpt lat="43.64315" lon="7.05007">
        <ele>217.49304199219</ele>
        <time>2020-05-14T15:14:37Z</time>
      </trkpt>
      <trkpt lat="43.64312" lon="7.0501">
        <ele>217.50024414062</ele>
        <time>2020-05-14T15:14:38Z</time>
      </trkpt>
      <trkpt lat="43.64308" lon="7.05012">
        <ele>218.19702148438</ele>
        <time>2020-05-14T15:14:39Z</time>
      </trkpt>
      <trkpt lat="43.64305" lon="7.05014">
        <ele>218.6337890625</ele>
        <time>2020-05-14T15:14:40Z</time>
      </trkpt>
      <trkpt lat="43.64302" lon="7.05015">
        <ele>218.88702392578</ele>
        <time>2020-05-14T15:14:41Z</time>
      </trkpt>
      <trkpt lat="43.64299" lon="7.05016">
        <ele>219.39294433594</ele>
        <time>2020-05-14T15:14:42Z</time>
      </trkpt>
      <trkpt lat="43.64295" lon="7.05018">
        <ele>219.34307861328</ele>
        <time>2020-05-14T15:14:43Z</time>
      </trkpt>
      <trkpt lat="43.64291" lon="7.0502">
        <ele>219.58898925781</ele>
        <time>2020-05-14T15:14:44Z</time>
      </trkpt>
      <trkpt lat="43.64288" lon="7.05022">
        <ele>219.98571777344</ele>
        <time>2020-05-14T15:14:45Z</time>
      </trkpt>
      <trkpt lat="43.64284" lon="7.05024">
        <ele>221.14093017578</ele>
        <time>2020-05-14T15:14:46Z</time>
      </trkpt>
      <trkpt lat="43.64281" lon="7.05025">
        <ele>220.64733886719</ele>
        <time>2020-05-14T15:14:47Z</time>
      </trkpt>
      <trkpt lat="43.64277" lon="7.05026">
        <ele>221.39929199219</ele>
        <time>2020-05-14T15:14:48Z</time>
      </trkpt>
      <trkpt lat="43.64274" lon="7.05026">
        <ele>221.98919677734</ele>
        <time>2020-05-14T15:14:49Z</time>
      </trkpt>
      <trkpt lat="43.6427" lon="7.05026">
        <ele>222.70306396484</ele>
        <time>2020-05-14T15:14:50Z</time>
      </trkpt>
      <trkpt lat="43.64267" lon="7.05026">
        <ele>222.00823974609</ele>
        <time>2020-05-14T15:14:51Z</time>
      </trkpt>
      <trkpt lat="43.64263" lon="7.05027">
        <ele>221.60845947266</ele>
        <time>2020-05-14T15:14:52Z</time>
      </trkpt>
      <trkpt lat="43.6426" lon="7.05027">
        <ele>221.77612304688</ele>
        <time>2020-05-14T15:14:53Z</time>
      </trkpt>
      <trkpt lat="43.64256" lon="7.05027">
        <ele>221.70330810547</ele>
        <time>2020-05-14T15:14:54Z</time>
      </trkpt>
      <trkpt lat="43.64252" lon="7.05027">
        <ele>221.54339599609</ele>
        <time>2020-05-14T15:14:55Z</time>
      </trkpt>
      <trkpt lat="43.64248" lon="7.05026">
        <ele>222.27917480469</ele>
        <time>2020-05-14T15:14:56Z</time>
      </trkpt>
      <trkpt lat="43.64244" lon="7.05025">
        <ele>221.49566650391</ele>
        <time>2020-05-14T15:14:57Z</time>
      </trkpt>
      <trkpt lat="43.6424" lon="7.05024">
        <ele>221.27667236328</ele>
        <time>2020-05-14T15:14:58Z</time>
      </trkpt>
      <trkpt lat="43.64236" lon="7.05022">
        <ele>221.32141113281</ele>
        <time>2020-05-14T15:14:59Z</time>
      </trkpt>
      <trkpt lat="43.64233" lon="7.05021">
        <ele>221.19396972656</ele>
        <time>2020-05-14T15:15:00Z</time>
      </trkpt>
      <trkpt lat="43.64229" lon="7.0502">
        <ele>221.03149414062</ele>
        <time>2020-05-14T15:15:01Z</time>
      </trkpt>
      <trkpt lat="43.64225" lon="7.05019">
        <ele>221.00524902344</ele>
        <time>2020-05-14T15:15:02Z</time>
      </trkpt>
      <trkpt lat="43.64222" lon="7.05017">
        <ele>221.37451171875</ele>
        <time>2020-05-14T15:15:03Z</time>
      </trkpt>
      <trkpt lat="43.64219" lon="7.05017">
        <ele>221.08081054688</ele>
        <time>2020-05-14T15:15:04Z</time>
      </trkpt>
      <trkpt lat="43.64215" lon="7.05016">
        <ele>220.78002929688</ele>
        <time>2020-05-14T15:15:05Z</time>
      </trkpt>
      <trkpt lat="43.64212" lon="7.05015">
        <ele>221.39624023438</ele>
        <time>2020-05-14T15:15:06Z</time>
      </trkpt>
      <trkpt lat="43.64208" lon="7.05014">
        <ele>221.3759765625</ele>
        <time>2020-05-14T15:15:07Z</time>
      </trkpt>
      <trkpt lat="43.64204" lon="7.05013">
        <ele>220.97686767578</ele>
        <time>2020-05-14T15:15:08Z</time>
      </trkpt>
      <trkpt lat="43.642" lon="7.05012">
        <ele>220.91998291016</ele>
        <time>2020-05-14T15:15:09Z</time>
      </trkpt>
      <trkpt lat="43.64196" lon="7.05011">
        <ele>220.91833496094</ele>
        <time>2020-05-14T15:15:10Z</time>
      </trkpt>
      <trkpt lat="43.64192" lon="7.0501">
        <ele>221.18743896484</ele>
        <time>2020-05-14T15:15:11Z</time>
      </trkpt>
      <trkpt lat="43.64188" lon="7.05009">
        <ele>221.3857421875</ele>
        <time>2020-05-14T15:15:12Z</time>
      </trkpt>
      <trkpt lat="43.64184" lon="7.05009">
        <ele>221.41455078125</ele>
        <time>2020-05-14T15:15:13Z</time>
      </trkpt>
      <trkpt lat="43.6418" lon="7.05008">
        <ele>221.72106933594</ele>
        <time>2020-05-14T15:15:14Z</time>
      </trkpt>
      <trkpt lat="43.64177" lon="7.05007">
        <ele>221.88391113281</ele>
        <time>2020-05-14T15:15:15Z</time>
      </trkpt>
      <trkpt lat="43.64173" lon="7.05007">
        <ele>221.06567382812</ele>
        <time>2020-05-14T15:15:16Z</time>
      </trkpt>
      <trkpt lat="43.64169" lon="7.05007">
        <ele>221.22094726562</ele>
        <time>2020-05-14T15:15:17Z</time>
      </trkpt>
      <trkpt lat="43.64165" lon="7.05008">
        <ele>221.4931640625</ele>
        <time>2020-05-14T15:15:18Z</time>
      </trkpt>
      <trkpt lat="43.64161" lon="7.05008">
        <ele>221.52386474609</ele>
        <time>2020-05-14T15:15:19Z</time>
      </trkpt>
      <trkpt lat="43.64157" lon="7.05009">
        <ele>221.76318359375</ele>
        <time>2020-05-14T15:15:20Z</time>
      </trkpt>
      <trkpt lat="43.64153" lon="7.05009">
        <ele>226.16430664062</ele>
        <time>2020-05-14T15:15:21Z</time>
      </trkpt>
      <trkpt lat="43.6415" lon="7.0501">
        <ele>226.32330322266</ele>
        <time>2020-05-14T15:15:22Z</time>
      </trkpt>
      <trkpt lat="43.64145" lon="7.05011">
        <ele>228.22290039062</ele>
        <time>2020-05-14T15:15:23Z</time>
      </trkpt>
      <trkpt lat="43.64141" lon="7.05012">
        <ele>227.96148681641</ele>
        <time>2020-05-14T15:15:24Z</time>
      </trkpt>
      <trkpt lat="43.64138" lon="7.05014">
        <ele>225.28161621094</ele>
        <time>2020-05-14T15:15:25Z</time>
      </trkpt>
      <trkpt lat="43.64134" lon="7.05015">
        <ele>225.59442138672</ele>
        <time>2020-05-14T15:15:26Z</time>
      </trkpt>
      <trkpt lat="43.64131" lon="7.05017">
        <ele>225.87591552734</ele>
        <time>2020-05-14T15:15:27Z</time>
      </trkpt>
      <trkpt lat="43.64127" lon="7.05018">
        <ele>226.14556884766</ele>
        <time>2020-05-14T15:15:28Z</time>
      </trkpt>
      <trkpt lat="43.64124" lon="7.0502">
        <ele>225.86254882812</ele>
        <time>2020-05-14T15:15:29Z</time>
      </trkpt>
      <trkpt lat="43.6412" lon="7.05022">
        <ele>226.00762939453</ele>
        <time>2020-05-14T15:15:30Z</time>
      </trkpt>
      <trkpt lat="43.64117" lon="7.05024">
        <ele>226.54052734375</ele>
        <time>2020-05-14T15:15:31Z</time>
      </trkpt>
      <trkpt lat="43.64114" lon="7.05026">
        <ele>226.8935546875</ele>
        <time>2020-05-14T15:15:32Z</time>
      </trkpt>
      <trkpt lat="43.64111" lon="7.05028">
        <ele>227.22619628906</ele>
        <time>2020-05-14T15:15:33Z</time>
      </trkpt>
      <trkpt lat="43.64107" lon="7.0503">
        <ele>227.54327392578</ele>
        <time>2020-05-14T15:15:34Z</time>
      </trkpt>
      <trkpt lat="43.64104" lon="7.05032">
        <ele>227.45336914062</ele>
        <time>2020-05-14T15:15:35Z</time>
      </trkpt>
      <trkpt lat="43.64101" lon="7.05034">
        <ele>227.79486083984</ele>
        <time>2020-05-14T15:15:36Z</time>
      </trkpt>
      <trkpt lat="43.64098" lon="7.05036">
        <ele>228.294921875</ele>
        <time>2020-05-14T15:15:37Z</time>
      </trkpt>
      <trkpt lat="43.64095" lon="7.05038">
        <ele>228.62738037109</ele>
        <time>2020-05-14T15:15:38Z</time>
      </trkpt>
      <trkpt lat="43.64092" lon="7.0504">
        <ele>229.19616699219</ele>
        <time>2020-05-14T15:15:39Z</time>
      </trkpt>
      <trkpt lat="43.64089" lon="7.05042">
        <ele>227.09295654297</ele>
        <time>2020-05-14T15:15:40Z</time>
      </trkpt>
      <trkpt lat="43.64086" lon="7.05044">
        <ele>227.39709472656</ele>
        <time>2020-05-14T15:15:41Z</time>
      </trkpt>
      <trkpt lat="43.64083" lon="7.05047">
        <ele>227.53662109375</ele>
        <time>2020-05-14T15:15:42Z</time>
      </trkpt>
      <trkpt lat="43.6408" lon="7.05049">
        <ele>227.64074707031</ele>
        <time>2020-05-14T15:15:43Z</time>
      </trkpt>
      <trkpt lat="43.64077" lon="7.05051">
        <ele>227.92785644531</ele>
        <time>2020-05-14T15:15:44Z</time>
      </trkpt>
      <trkpt lat="43.64074" lon="7.05054">
        <ele>227.8037109375</ele>
        <time>2020-05-14T15:15:45Z</time>
      </trkpt>
      <trkpt lat="43.6407" lon="7.05057">
        <ele>227.86474609375</ele>
        <time>2020-05-14T15:15:46Z</time>
      </trkpt>
      <trkpt lat="43.64067" lon="7.0506">
        <ele>227.86376953125</ele>
        <time>2020-05-14T15:15:47Z</time>
      </trkpt>
      <trkpt lat="43.64064" lon="7.05063">
        <ele>227.83020019531</ele>
        <time>2020-05-14T15:15:48Z</time>
      </trkpt>
      <trkpt lat="43.64061" lon="7.05066">
        <ele>227.92724609375</ele>
        <time>2020-05-14T15:15:49Z</time>
      </trkpt>
      <trkpt lat="43.64058" lon="7.0507">
        <ele>227.79162597656</ele>
        <time>2020-05-14T15:15:50Z</time>
      </trkpt>
      <trkpt lat="43.64056" lon="7.05073">
        <ele>227.78137207031</ele>
        <time>2020-05-14T15:15:51Z</time>
      </trkpt>
      <trkpt lat="43.64053" lon="7.05076">
        <ele>227.87786865234</ele>
        <time>2020-05-14T15:15:52Z</time>
      </trkpt>
      <trkpt lat="43.6405" lon="7.0508">
        <ele>227.89080810547</ele>
        <time>2020-05-14T15:15:53Z</time>
      </trkpt>
      <trkpt lat="43.64047" lon="7.05083">
        <ele>227.96667480469</ele>
        <time>2020-05-14T15:15:54Z</time>
      </trkpt>
      <trkpt lat="43.64044" lon="7.05087">
        <ele>227.98614501953</ele>
        <time>2020-05-14T15:15:55Z</time>
      </trkpt>
      <trkpt lat="43.64042" lon="7.0509">
        <ele>228.10272216797</ele>
        <time>2020-05-14T15:15:56Z</time>
      </trkpt>
      <trkpt lat="43.64039" lon="7.05094">
        <ele>228.25885009766</ele>
        <time>2020-05-14T15:15:57Z</time>
      </trkpt>
      <trkpt lat="43.64037" lon="7.05098">
        <ele>228.36645507812</ele>
        <time>2020-05-14T15:15:58Z</time>
      </trkpt>
      <trkpt lat="43.64034" lon="7.05102">
        <ele>228.88598632812</ele>
        <time>2020-05-14T15:15:59Z</time>
      </trkpt>
      <trkpt lat="43.64032" lon="7.05107">
        <ele>228.96716308594</ele>
        <time>2020-05-14T15:16:00Z</time>
      </trkpt>
      <trkpt lat="43.6403" lon="7.05111">
        <ele>229.60949707031</ele>
        <time>2020-05-14T15:16:01Z</time>
      </trkpt>
      <trkpt lat="43.64029" lon="7.05115">
        <ele>229.78247070312</ele>
        <time>2020-05-14T15:16:02Z</time>
      </trkpt>
      <trkpt lat="43.64027" lon="7.05119">
        <ele>230.00341796875</ele>
        <time>2020-05-14T15:16:03Z</time>
      </trkpt>
      <trkpt lat="43.64025" lon="7.05123">
        <ele>229.88024902344</ele>
        <time>2020-05-14T15:16:04Z</time>
      </trkpt>
      <trkpt lat="43.64023" lon="7.05127">
        <ele>229.84643554688</ele>
        <time>2020-05-14T15:16:05Z</time>
      </trkpt>
      <trkpt lat="43.64022" lon="7.05132">
        <ele>229.78405761719</ele>
        <time>2020-05-14T15:16:06Z</time>
      </trkpt>
      <trkpt lat="43.6402" lon="7.05137">
        <ele>226.71685791016</ele>
        <time>2020-05-14T15:16:07Z</time>
      </trkpt>
      <trkpt lat="43.64019" lon="7.05142">
        <ele>227.89184570312</ele>
        <time>2020-05-14T15:16:08Z</time>
      </trkpt>
      <trkpt lat="43.64018" lon="7.05148">
        <ele>228.00140380859</ele>
        <time>2020-05-14T15:16:09Z</time>
      </trkpt>
      <trkpt lat="43.64017" lon="7.05153">
        <ele>227.86853027344</ele>
        <time>2020-05-14T15:16:10Z</time>
      </trkpt>
      <trkpt lat="43.64016" lon="7.05159">
        <ele>227.79138183594</ele>
        <time>2020-05-14T15:16:11Z</time>
      </trkpt>
      <trkpt lat="43.64015" lon="7.05164">
        <ele>227.79284667969</ele>
        <time>2020-05-14T15:16:12Z</time>
      </trkpt>
      <trkpt lat="43.64014" lon="7.05169">
        <ele>227.95623779297</ele>
        <time>2020-05-14T15:16:13Z</time>
      </trkpt>
      <trkpt lat="43.64013" lon="7.05174">
        <ele>228.07580566406</ele>
        <time>2020-05-14T15:16:14Z</time>
      </trkpt>
      <trkpt lat="43.64012" lon="7.0518">
        <ele>228.01678466797</ele>
        <time>2020-05-14T15:16:15Z</time>
      </trkpt>
      <trkpt lat="43.64011" lon="7.05185">
        <ele>228.00903320312</ele>
        <time>2020-05-14T15:16:16Z</time>
      </trkpt>
      <trkpt lat="43.6401" lon="7.0519">
        <ele>227.94567871094</ele>
        <time>2020-05-14T15:16:17Z</time>
      </trkpt>
      <trkpt lat="43.64009" lon="7.05195">
        <ele>228.50152587891</ele>
        <time>2020-05-14T15:16:18Z</time>
      </trkpt>
      <trkpt lat="43.64009" lon="7.052">
        <ele>228.53466796875</ele>
        <time>2020-05-14T15:16:19Z</time>
      </trkpt>
      <trkpt lat="43.64008" lon="7.05205">
        <ele>228.38201904297</ele>
        <time>2020-05-14T15:16:20Z</time>
      </trkpt>
      <trkpt lat="43.64006" lon="7.0521">
        <ele>228.39636230469</ele>
        <time>2020-05-14T15:16:21Z</time>
      </trkpt>
      <trkpt lat="43.64005" lon="7.05215">
        <ele>228.33319091797</ele>
        <time>2020-05-14T15:16:22Z</time>
      </trkpt>
      <trkpt lat="43.64004" lon="7.05219">
        <ele>228.36218261719</ele>
        <time>2020-05-14T15:16:23Z</time>
      </trkpt>
      <trkpt lat="43.64002" lon="7.05224">
        <ele>228.40069580078</ele>
        <time>2020-05-14T15:16:24Z</time>
      </trkpt>
      <trkpt lat="43.64001" lon="7.05229">
        <ele>228.41735839844</ele>
        <time>2020-05-14T15:16:25Z</time>
      </trkpt>
      <trkpt lat="43.63999" lon="7.05235">
        <ele>228.51037597656</ele>
        <time>2020-05-14T15:16:26Z</time>
      </trkpt>
      <trkpt lat="43.63997" lon="7.0524">
        <ele>228.53039550781</ele>
        <time>2020-05-14T15:16:27Z</time>
      </trkpt>
      <trkpt lat="43.63996" lon="7.05245">
        <ele>228.38311767578</ele>
        <time>2020-05-14T15:16:28Z</time>
      </trkpt>
      <trkpt lat="43.63994" lon="7.05251">
        <ele>228.28021240234</ele>
        <time>2020-05-14T15:16:29Z</time>
      </trkpt>
      <trkpt lat="43.63992" lon="7.05256">
        <ele>228.20709228516</ele>
        <time>2020-05-14T15:16:30Z</time>
      </trkpt>
      <trkpt lat="43.6399" lon="7.05262">
        <ele>228.21594238281</ele>
        <time>2020-05-14T15:16:31Z</time>
      </trkpt>
      <trkpt lat="43.63989" lon="7.05267">
        <ele>228.26525878906</ele>
        <time>2020-05-14T15:16:32Z</time>
      </trkpt>
      <trkpt lat="43.63987" lon="7.05272">
        <ele>228.28466796875</ele>
        <time>2020-05-14T15:16:33Z</time>
      </trkpt>
      <trkpt lat="43.63985" lon="7.05277">
        <ele>228.15240478516</ele>
        <time>2020-05-14T15:16:34Z</time>
      </trkpt>
      <trkpt lat="43.63983" lon="7.05283">
        <ele>228.36724853516</ele>
        <time>2020-05-14T15:16:35Z</time>
      </trkpt>
      <trkpt lat="43.63981" lon="7.05288">
        <ele>228.18804931641</ele>
        <time>2020-05-14T15:16:36Z</time>
      </trkpt>
      <trkpt lat="43.63979" lon="7.05293">
        <ele>228.21716308594</ele>
        <time>2020-05-14T15:16:37Z</time>
      </trkpt>
      <trkpt lat="43.63977" lon="7.05299">
        <ele>228.06121826172</ele>
        <time>2020-05-14T15:16:38Z</time>
      </trkpt>
      <trkpt lat="43.63976" lon="7.05305">
        <ele>227.826171875</ele>
        <time>2020-05-14T15:16:39Z</time>
      </trkpt>
      <trkpt lat="43.63974" lon="7.0531">
        <ele>227.71740722656</ele>
        <time>2020-05-14T15:16:40Z</time>
      </trkpt>
      <trkpt lat="43.63972" lon="7.05316">
        <ele>227.62280273438</ele>
        <time>2020-05-14T15:16:41Z</time>
      </trkpt>
      <trkpt lat="43.6397" lon="7.05321">
        <ele>227.61791992188</ele>
        <time>2020-05-14T15:16:42Z</time>
      </trkpt>
      <trkpt lat="43.63968" lon="7.05327">
        <ele>227.49761962891</ele>
        <time>2020-05-14T15:16:43Z</time>
      </trkpt>
      <trkpt lat="43.63966" lon="7.05332">
        <ele>227.5927734375</ele>
        <time>2020-05-14T15:16:44Z</time>
      </trkpt>
      <trkpt lat="43.63964" lon="7.05338">
        <ele>227.71154785156</ele>
        <time>2020-05-14T15:16:45Z</time>
      </trkpt>
      <trkpt lat="43.63963" lon="7.05343">
        <ele>227.42132568359</ele>
        <time>2020-05-14T15:16:46Z</time>
      </trkpt>
      <trkpt lat="43.63961" lon="7.05349">
        <ele>227.43597412109</ele>
        <time>2020-05-14T15:16:47Z</time>
      </trkpt>
      <trkpt lat="43.6396" lon="7.05355">
        <ele>227.26342773438</ele>
        <time>2020-05-14T15:16:48Z</time>
      </trkpt>
      <trkpt lat="43.63959" lon="7.0536">
        <ele>227.30700683594</ele>
        <time>2020-05-14T15:16:49Z</time>
      </trkpt>
      <trkpt lat="43.63958" lon="7.05366">
        <ele>227.31701660156</ele>
        <time>2020-05-14T15:16:50Z</time>
      </trkpt>
      <trkpt lat="43.63957" lon="7.05373">
        <ele>227.423828125</ele>
        <time>2020-05-14T15:16:51Z</time>
      </trkpt>
      <trkpt lat="43.63956" lon="7.05379">
        <ele>227.42321777344</ele>
        <time>2020-05-14T15:16:52Z</time>
      </trkpt>
      <trkpt lat="43.63955" lon="7.05385">
        <ele>227.50457763672</ele>
        <time>2020-05-14T15:16:53Z</time>
      </trkpt>
      <trkpt lat="43.63955" lon="7.05391">
        <ele>227.53881835938</ele>
        <time>2020-05-14T15:16:54Z</time>
      </trkpt>
      <trkpt lat="43.63954" lon="7.05397">
        <ele>227.48699951172</ele>
        <time>2020-05-14T15:16:55Z</time>
      </trkpt>
      <trkpt lat="43.63953" lon="7.05404">
        <ele>227.35070800781</ele>
        <time>2020-05-14T15:16:56Z</time>
      </trkpt>
      <trkpt lat="43.63953" lon="7.05411">
        <ele>227.48846435547</ele>
        <time>2020-05-14T15:16:57Z</time>
      </trkpt>
      <trkpt lat="43.63952" lon="7.05418">
        <ele>227.33673095703</ele>
        <time>2020-05-14T15:16:58Z</time>
      </trkpt>
      <trkpt lat="43.63951" lon="7.05424">
        <ele>226.97729492188</ele>
        <time>2020-05-14T15:16:59Z</time>
      </trkpt>
      <trkpt lat="43.63951" lon="7.05431">
        <ele>227.06890869141</ele>
        <time>2020-05-14T15:17:00Z</time>
      </trkpt>
      <trkpt lat="43.6395" lon="7.05438">
        <ele>227.09313964844</ele>
        <time>2020-05-14T15:17:01Z</time>
      </trkpt>
      <trkpt lat="43.63948" lon="7.05444">
        <ele>226.92810058594</ele>
        <time>2020-05-14T15:17:02Z</time>
      </trkpt>
      <trkpt lat="43.63947" lon="7.05451">
        <ele>226.81457519531</ele>
        <time>2020-05-14T15:17:03Z</time>
      </trkpt>
      <trkpt lat="43.63946" lon="7.05458">
        <ele>226.94323730469</ele>
        <time>2020-05-14T15:17:04Z</time>
      </trkpt>
      <trkpt lat="43.63945" lon="7.05466">
        <ele>226.83203125</ele>
        <time>2020-05-14T15:17:05Z</time>
      </trkpt>
      <trkpt lat="43.63944" lon="7.05473">
        <ele>226.96734619141</ele>
        <time>2020-05-14T15:17:06Z</time>
      </trkpt>
      <trkpt lat="43.63943" lon="7.0548">
        <ele>226.94396972656</ele>
        <time>2020-05-14T15:17:07Z</time>
      </trkpt>
      <trkpt lat="43.63943" lon="7.05488">
        <ele>226.58935546875</ele>
        <time>2020-05-14T15:17:08Z</time>
      </trkpt>
      <trkpt lat="43.63942" lon="7.05497">
        <ele>226.34692382812</ele>
        <time>2020-05-14T15:17:09Z</time>
      </trkpt>
      <trkpt lat="43.63942" lon="7.05506">
        <ele>226.56701660156</ele>
        <time>2020-05-14T15:17:10Z</time>
      </trkpt>
      <trkpt lat="43.63942" lon="7.05515">
        <ele>226.31951904297</ele>
        <time>2020-05-14T15:17:11Z</time>
      </trkpt>
      <trkpt lat="43.63941" lon="7.05524">
        <ele>225.95751953125</ele>
        <time>2020-05-14T15:17:12Z</time>
      </trkpt>
      <trkpt lat="43.63941" lon="7.05535">
        <ele>225.79180908203</ele>
        <time>2020-05-14T15:17:13Z</time>
      </trkpt>
      <trkpt lat="43.63941" lon="7.05545">
        <ele>225.13098144531</ele>
        <time>2020-05-14T15:17:14Z</time>
      </trkpt>
      <trkpt lat="43.6394" lon="7.05555">
        <ele>225.17254638672</ele>
        <time>2020-05-14T15:17:15Z</time>
      </trkpt>
      <trkpt lat="43.6394" lon="7.05567">
        <ele>201.64324951172</ele>
        <time>2020-05-14T15:17:16Z</time>
      </trkpt>
      <trkpt lat="43.6394" lon="7.05578">
        <ele>204.76782226562</ele>
        <time>2020-05-14T15:17:17Z</time>
      </trkpt>
      <trkpt lat="43.6394" lon="7.05589">
        <ele>204.46508789062</ele>
        <time>2020-05-14T15:17:18Z</time>
      </trkpt>
      <trkpt lat="43.6394" lon="7.05601">
        <ele>204.05889892578</ele>
        <time>2020-05-14T15:17:19Z</time>
      </trkpt>
      <trkpt lat="43.63941" lon="7.05613">
        <ele>203.5126953125</ele>
        <time>2020-05-14T15:17:20Z</time>
      </trkpt>
      <trkpt lat="43.63941" lon="7.05625">
        <ele>202.56518554688</ele>
        <time>2020-05-14T15:17:21Z</time>
      </trkpt>
      <trkpt lat="43.63942" lon="7.05637">
        <ele>201.93322753906</ele>
        <time>2020-05-14T15:17:22Z</time>
      </trkpt>
      <trkpt lat="43.63942" lon="7.05649">
        <ele>201.63159179688</ele>
        <time>2020-05-14T15:17:23Z</time>
      </trkpt>
      <trkpt lat="43.63942" lon="7.05662">
        <ele>201.02429199219</ele>
        <time>2020-05-14T15:17:24Z</time>
      </trkpt>
      <trkpt lat="43.63943" lon="7.05675">
        <ele>200.52166748047</ele>
        <time>2020-05-14T15:17:25Z</time>
      </trkpt>
      <trkpt lat="43.63943" lon="7.05688">
        <ele>200.11999511719</ele>
        <time>2020-05-14T15:17:26Z</time>
      </trkpt>
      <trkpt lat="43.63943" lon="7.05701">
        <ele>335.14758300781</ele>
        <time>2020-05-14T15:17:27Z</time>
      </trkpt>
      <trkpt lat="43.63944" lon="7.05716">
        <ele>298.10791015625</ele>
        <time>2020-05-14T15:17:28Z</time>
      </trkpt>
      <trkpt lat="43.63944" lon="7.0573">
        <ele>297.57495117188</ele>
        <time>2020-05-14T15:17:29Z</time>
      </trkpt>
      <trkpt lat="43.63943" lon="7.05744">
        <ele>339.28039550781</ele>
        <time>2020-05-14T15:17:30Z</time>
      </trkpt>
      <trkpt lat="43.63941" lon="7.05758">
        <ele>322.51708984375</ele>
        <time>2020-05-14T15:17:31Z</time>
      </trkpt>
      <trkpt lat="43.6394" lon="7.05771">
        <ele>321.42858886719</ele>
        <time>2020-05-14T15:17:32Z</time>
      </trkpt>
      <trkpt lat="43.63937" lon="7.05785">
        <ele>320.61541748047</ele>
        <time>2020-05-14T15:17:33Z</time>
      </trkpt>
      <trkpt lat="43.63933" lon="7.05798">
        <ele>320.74658203125</ele>
        <time>2020-05-14T15:17:34Z</time>
      </trkpt>
      <trkpt lat="43.63928" lon="7.05811">
        <ele>319.9931640625</ele>
        <time>2020-05-14T15:17:35Z</time>
      </trkpt>
      <trkpt lat="43.63921" lon="7.05822">
        <ele>319.7431640625</ele>
        <time>2020-05-14T15:17:36Z</time>
      </trkpt>
      <trkpt lat="43.63913" lon="7.05832">
        <ele>319.51403808594</ele>
        <time>2020-05-14T15:17:37Z</time>
      </trkpt>
      <trkpt lat="43.63905" lon="7.05841">
        <ele>318.61242675781</ele>
        <time>2020-05-14T15:17:38Z</time>
      </trkpt>
      <trkpt lat="43.63897" lon="7.0585">
        <ele>318.62060546875</ele>
        <time>2020-05-14T15:17:39Z</time>
      </trkpt>
      <trkpt lat="43.63886" lon="7.05857">
        <ele>318.37939453125</ele>
        <time>2020-05-14T15:17:40Z</time>
      </trkpt>
      <trkpt lat="43.63877" lon="7.05865">
        <ele>317.28381347656</ele>
        <time>2020-05-14T15:17:41Z</time>
      </trkpt>
      <trkpt lat="43.63868" lon="7.05874">
        <ele>317.14337158203</ele>
        <time>2020-05-14T15:17:42Z</time>
      </trkpt>
      <trkpt lat="43.6386" lon="7.05882">
        <ele>316.82604980469</ele>
        <time>2020-05-14T15:17:43Z</time>
      </trkpt>
      <trkpt lat="43.63851" lon="7.05891">
        <ele>316.77709960938</ele>
        <time>2020-05-14T15:17:44Z</time>
      </trkpt>
      <trkpt lat="43.63842" lon="7.059">
        <ele>316.82824707031</ele>
        <time>2020-05-14T15:17:45Z</time>
      </trkpt>
      <trkpt lat="43.63834" lon="7.05908">
        <ele>315.75280761719</ele>
        <time>2020-05-14T15:17:46Z</time>
      </trkpt>
      <trkpt lat="43.63825" lon="7.05916">
        <ele>314.40270996094</ele>
        <time>2020-05-14T15:17:47Z</time>
      </trkpt>
      <trkpt lat="43.63817" lon="7.05924">
        <ele>313.5390625</ele>
        <time>2020-05-14T15:17:48Z</time>
      </trkpt>
      <trkpt lat="43.63809" lon="7.05933">
        <ele>313.31433105469</ele>
        <time>2020-05-14T15:17:49Z</time>
      </trkpt>
      <trkpt lat="43.63801" lon="7.05942">
        <ele>312.47772216797</ele>
        <time>2020-05-14T15:17:50Z</time>
      </trkpt>
      <trkpt lat="43.63793" lon="7.05951">
        <ele>312.06628417969</ele>
        <time>2020-05-14T15:17:51Z</time>
      </trkpt>
      <trkpt lat="43.63785" lon="7.0596">
        <ele>311.35278320312</ele>
        <time>2020-05-14T15:17:52Z</time>
      </trkpt>
      <trkpt lat="43.63777" lon="7.05969">
        <ele>310.94030761719</ele>
        <time>2020-05-14T15:17:53Z</time>
      </trkpt>
      <trkpt lat="43.63769" lon="7.05979">
        <ele>310.8681640625</ele>
        <time>2020-05-14T15:17:54Z</time>
      </trkpt>
      <trkpt lat="43.63761" lon="7.0599">
        <ele>310.04541015625</ele>
        <time>2020-05-14T15:17:55Z</time>
      </trkpt>
      <trkpt lat="43.63753" lon="7.06">
        <ele>308.54699707031</ele>
        <time>2020-05-14T15:17:56Z</time>
      </trkpt>
      <trkpt lat="43.63745" lon="7.0601">
        <ele>308.07299804688</ele>
        <time>2020-05-14T15:17:57Z</time>
      </trkpt>
      <trkpt lat="43.63737" lon="7.0602">
        <ele>308.29626464844</ele>
        <time>2020-05-14T15:17:58Z</time>
      </trkpt>
      <trkpt lat="43.63731" lon="7.06032">
        <ele>307.38177490234</ele>
        <time>2020-05-14T15:17:59Z</time>
      </trkpt>
      <trkpt lat="43.63726" lon="7.06045">
        <ele>306.98657226562</ele>
        <time>2020-05-14T15:18:00Z</time>
      </trkpt>
      <trkpt lat="43.63721" lon="7.0606">
        <ele>306.6025390625</ele>
        <time>2020-05-14T15:18:01Z</time>
      </trkpt>
      <trkpt lat="43.63718" lon="7.06074">
        <ele>305.71435546875</ele>
        <time>2020-05-14T15:18:02Z</time>
      </trkpt>
      <trkpt lat="43.63716" lon="7.06089">
        <ele>176.42071533203</ele>
        <time>2020-05-14T15:18:03Z</time>
      </trkpt>
      <trkpt lat="43.63716" lon="7.06104">
        <ele>181.04730224609</ele>
        <time>2020-05-14T15:18:04Z</time>
      </trkpt>
      <trkpt lat="43.63715" lon="7.06119">
        <ele>180.42913818359</ele>
        <time>2020-05-14T15:18:05Z</time>
      </trkpt>
      <trkpt lat="43.63714" lon="7.06135">
        <ele>179.60516357422</ele>
        <time>2020-05-14T15:18:06Z</time>
      </trkpt>
      <trkpt lat="43.63712" lon="7.0615">
        <ele>178.85235595703</ele>
        <time>2020-05-14T15:18:07Z</time>
      </trkpt>
      <trkpt lat="43.6371" lon="7.06165">
        <ele>178.62268066406</ele>
        <time>2020-05-14T15:18:08Z</time>
      </trkpt>
      <trkpt lat="43.63707" lon="7.06179">
        <ele>177.97369384766</ele>
        <time>2020-05-14T15:18:09Z</time>
      </trkpt>
      <trkpt lat="43.63704" lon="7.06193">
        <ele>177.67443847656</ele>
        <time>2020-05-14T15:18:10Z</time>
      </trkpt>
      <trkpt lat="43.63702" lon="7.06208">
        <ele>176.93054199219</ele>
        <time>2020-05-14T15:18:11Z</time>
      </trkpt>
      <trkpt lat="43.637" lon="7.06223">
        <ele>176.20477294922</ele>
        <time>2020-05-14T15:18:12Z</time>
      </trkpt>
      <trkpt lat="43.63699" lon="7.06238">
        <ele>175.6796875</ele>
        <time>2020-05-14T15:18:13Z</time>
      </trkpt>
      <trkpt lat="43.63698" lon="7.06254">
        <ele>175.23449707031</ele>
        <time>2020-05-14T15:18:14Z</time>
      </trkpt>
      <trkpt lat="43.63698" lon="7.06269">
        <ele>174.64361572266</ele>
        <time>2020-05-14T15:18:15Z</time>
      </trkpt>
      <trkpt lat="43.63698" lon="7.06284">
        <ele>174.64154052734</ele>
        <time>2020-05-14T15:18:16Z</time>
      </trkpt>
      <trkpt lat="43.63698" lon="7.06299">
        <ele>174.11779785156</ele>
        <time>2020-05-14T15:18:17Z</time>
      </trkpt>
      <trkpt lat="43.63696" lon="7.06314">
        <ele>173.15142822266</ele>
        <time>2020-05-14T15:18:18Z</time>
      </trkpt>
      <trkpt lat="43.63694" lon="7.06328">
        <ele>172.49456787109</ele>
        <time>2020-05-14T15:18:19Z</time>
      </trkpt>
      <trkpt lat="43.63689" lon="7.06342">
        <ele>171.53308105469</ele>
        <time>2020-05-14T15:18:20Z</time>
      </trkpt>
      <trkpt lat="43.63684" lon="7.06355">
        <ele>268.30151367188</ele>
        <time>2020-05-14T15:18:21Z</time>
      </trkpt>
      <trkpt lat="43.63677" lon="7.06368">
        <ele>268.00421142578</ele>
        <time>2020-05-14T15:18:22Z</time>
      </trkpt>
      <trkpt lat="43.63671" lon="7.06379">
        <ele>267.46154785156</ele>
        <time>2020-05-14T15:18:23Z</time>
      </trkpt>
      <trkpt lat="43.63665" lon="7.06391">
        <ele>266.64221191406</ele>
        <time>2020-05-14T15:18:24Z</time>
      </trkpt>
      <trkpt lat="43.63658" lon="7.06402">
        <ele>266.49981689453</ele>
        <time>2020-05-14T15:18:25Z</time>
      </trkpt>
      <trkpt lat="43.63652" lon="7.06414">
        <ele>265.87451171875</ele>
        <time>2020-05-14T15:18:26Z</time>
      </trkpt>
      <trkpt lat="43.63647" lon="7.06427">
        <ele>265.48297119141</ele>
        <time>2020-05-14T15:18:27Z</time>
      </trkpt>
      <trkpt lat="43.63643" lon="7.0644">
        <ele>265.11047363281</ele>
        <time>2020-05-14T15:18:28Z</time>
      </trkpt>
      <trkpt lat="43.63641" lon="7.06455">
        <ele>264.58801269531</ele>
        <time>2020-05-14T15:18:29Z</time>
      </trkpt>
      <trkpt lat="43.63641" lon="7.06469">
        <ele>264.22216796875</ele>
        <time>2020-05-14T15:18:30Z</time>
      </trkpt>
      <trkpt lat="43.63643" lon="7.06484">
        <ele>263.62921142578</ele>
        <time>2020-05-14T15:18:31Z</time>
      </trkpt>
      <trkpt lat="43.63648" lon="7.06497">
        <ele>263.13513183594</ele>
        <time>2020-05-14T15:18:32Z</time>
      </trkpt>
      <trkpt lat="43.63654" lon="7.06508">
        <ele>262.83984375</ele>
        <time>2020-05-14T15:18:33Z</time>
      </trkpt>
      <trkpt lat="43.63663" lon="7.06516">
        <ele>262.49505615234</ele>
        <time>2020-05-14T15:18:34Z</time>
      </trkpt>
      <trkpt lat="43.63672" lon="7.06523">
        <ele>261.64154052734</ele>
        <time>2020-05-14T15:18:35Z</time>
      </trkpt>
      <trkpt lat="43.63683" lon="7.06527">
        <ele>260.93682861328</ele>
        <time>2020-05-14T15:18:36Z</time>
      </trkpt>
      <trkpt lat="43.63693" lon="7.06531">
        <ele>260.41882324219</ele>
        <time>2020-05-14T15:18:37Z</time>
      </trkpt>
      <trkpt lat="43.63704" lon="7.06534">
        <ele>259.85632324219</ele>
        <time>2020-05-14T15:18:38Z</time>
      </trkpt>
      <trkpt lat="43.63714" lon="7.06536">
        <ele>259.17749023438</ele>
        <time>2020-05-14T15:18:39Z</time>
      </trkpt>
      <trkpt lat="43.63725" lon="7.06537">
        <ele>259.41333007812</ele>
        <time>2020-05-14T15:18:40Z</time>
      </trkpt>
      <trkpt lat="43.63736" lon="7.06538">
        <ele>259.42419433594</ele>
        <time>2020-05-14T15:18:41Z</time>
      </trkpt>
      <trkpt lat="43.63747" lon="7.06538">
        <ele>259.35217285156</ele>
        <time>2020-05-14T15:18:42Z</time>
      </trkpt>
      <trkpt lat="43.63757" lon="7.06539">
        <ele>259.12487792969</ele>
        <time>2020-05-14T15:18:43Z</time>
      </trkpt>
      <trkpt lat="43.63767" lon="7.0654">
        <ele>258.92224121094</ele>
        <time>2020-05-14T15:18:44Z</time>
      </trkpt>
      <trkpt lat="43.63776" lon="7.06544">
        <ele>258.49987792969</ele>
        <time>2020-05-14T15:18:45Z</time>
      </trkpt>
      <trkpt lat="43.63782" lon="7.06551">
        <ele>257.94421386719</ele>
        <time>2020-05-14T15:18:46Z</time>
      </trkpt>
      <trkpt lat="43.63786" lon="7.06559">
        <ele>257.51416015625</ele>
        <time>2020-05-14T15:18:47Z</time>
      </trkpt>
      <trkpt lat="43.63785" lon="7.06569">
        <ele>257.11804199219</ele>
        <time>2020-05-14T15:18:48Z</time>
      </trkpt>
      <trkpt lat="43.63782" lon="7.06578">
        <ele>257.06359863281</ele>
        <time>2020-05-14T15:18:49Z</time>
      </trkpt>
      <trkpt lat="43.63776" lon="7.06585">
        <ele>257.00958251953</ele>
        <time>2020-05-14T15:18:50Z</time>
      </trkpt>
      <trkpt lat="43.63768" lon="7.06585">
        <ele>257.36871337891</ele>
        <time>2020-05-14T15:18:51Z</time>
      </trkpt>
      <trkpt lat="43.63762" lon="7.06586">
        <ele>257.42321777344</ele>
        <time>2020-05-14T15:18:52Z</time>
      </trkpt>
      <trkpt lat="43.63754" lon="7.06587">
        <ele>257.67565917969</ele>
        <time>2020-05-14T15:18:53Z</time>
      </trkpt>
      <trkpt lat="43.63747" lon="7.06588">
        <ele>257.32269287109</ele>
        <time>2020-05-14T15:18:54Z</time>
      </trkpt>
      <trkpt lat="43.63741" lon="7.0659">
        <ele>257.49401855469</ele>
        <time>2020-05-14T15:18:55Z</time>
      </trkpt>
      <trkpt lat="43.63734" lon="7.06592">
        <ele>157.54797363281</ele>
        <time>2020-05-14T15:18:56Z</time>
      </trkpt>
      <trkpt lat="43.63728" lon="7.06594">
        <ele>158.83245849609</ele>
        <time>2020-05-14T15:18:57Z</time>
      </trkpt>
      <trkpt lat="43.63721" lon="7.06597">
        <ele>157.32360839844</ele>
        <time>2020-05-14T15:18:58Z</time>
      </trkpt>
      <trkpt lat="43.63714" lon="7.066">
        <ele>158.15740966797</ele>
        <time>2020-05-14T15:18:59Z</time>
      </trkpt>
      <trkpt lat="43.63708" lon="7.06601">
        <ele>159.41790771484</ele>
        <time>2020-05-14T15:19:00Z</time>
      </trkpt>
      <trkpt lat="43.637" lon="7.06603">
        <ele>152.08654785156</ele>
        <time>2020-05-14T15:19:01Z</time>
      </trkpt>
      <trkpt lat="43.63693" lon="7.06606">
        <ele>151.34008789062</ele>
        <time>2020-05-14T15:19:02Z</time>
      </trkpt>
      <trkpt lat="43.63686" lon="7.06608">
        <ele>152.98657226562</ele>
        <time>2020-05-14T15:19:03Z</time>
      </trkpt>
      <trkpt lat="43.63679" lon="7.0661">
        <ele>154.67626953125</ele>
        <time>2020-05-14T15:19:04Z</time>
      </trkpt>
      <trkpt lat="43.63671" lon="7.06612">
        <ele>155.39916992188</ele>
        <time>2020-05-14T15:19:05Z</time>
      </trkpt>
      <trkpt lat="43.63665" lon="7.06614">
        <ele>156.11877441406</ele>
        <time>2020-05-14T15:19:06Z</time>
      </trkpt>
      <trkpt lat="43.63659" lon="7.06616">
        <ele>155.82000732422</ele>
        <time>2020-05-14T15:19:07Z</time>
      </trkpt>
      <trkpt lat="43.63652" lon="7.06617">
        <ele>155.51495361328</ele>
        <time>2020-05-14T15:19:08Z</time>
      </trkpt>
      <trkpt lat="43.63647" lon="7.06619">
        <ele>154.91674804688</ele>
        <time>2020-05-14T15:19:09Z</time>
      </trkpt>
      <trkpt lat="43.6364" lon="7.0662">
        <ele>154.87487792969</ele>
        <time>2020-05-14T15:19:10Z</time>
      </trkpt>
      <trkpt lat="43.63634" lon="7.06621">
        <ele>153.25396728516</ele>
        <time>2020-05-14T15:19:11Z</time>
      </trkpt>
      <trkpt lat="43.63628" lon="7.06621">
        <ele>152.65795898438</ele>
        <time>2020-05-14T15:19:12Z</time>
      </trkpt>
      <trkpt lat="43.63621" lon="7.06621">
        <ele>158.40661621094</ele>
        <time>2020-05-14T15:19:13Z</time>
      </trkpt>
      <trkpt lat="43.63615" lon="7.0662">
        <ele>158.21234130859</ele>
        <time>2020-05-14T15:19:14Z</time>
      </trkpt>
      <trkpt lat="43.63608" lon="7.0662">
        <ele>157.2705078125</ele>
        <time>2020-05-14T15:19:15Z</time>
      </trkpt>
      <trkpt lat="43.63602" lon="7.06618">
        <ele>158.29901123047</ele>
        <time>2020-05-14T15:19:16Z</time>
      </trkpt>
      <trkpt lat="43.63596" lon="7.06617">
        <ele>160.17791748047</ele>
        <time>2020-05-14T15:19:17Z</time>
      </trkpt>
      <trkpt lat="43.6359" lon="7.06615">
        <ele>160.845703125</ele>
        <time>2020-05-14T15:19:18Z</time>
      </trkpt>
      <trkpt lat="43.63585" lon="7.06611">
        <ele>160.96215820312</ele>
        <time>2020-05-14T15:19:19Z</time>
      </trkpt>
      <trkpt lat="43.63579" lon="7.06608">
        <ele>160.19244384766</ele>
        <time>2020-05-14T15:19:20Z</time>
      </trkpt>
      <trkpt lat="43.63573" lon="7.06605">
        <ele>159.50903320312</ele>
        <time>2020-05-14T15:19:21Z</time>
      </trkpt>
      <trkpt lat="43.63568" lon="7.06602">
        <ele>159.44024658203</ele>
        <time>2020-05-14T15:19:22Z</time>
      </trkpt>
      <trkpt lat="43.63562" lon="7.06599">
        <ele>159.69714355469</ele>
        <time>2020-05-14T15:19:23Z</time>
      </trkpt>
      <trkpt lat="43.63556" lon="7.06596">
        <ele>159.60668945312</ele>
        <time>2020-05-14T15:19:24Z</time>
      </trkpt>
      <trkpt lat="43.6355" lon="7.06593">
        <ele>159.583984375</ele>
        <time>2020-05-14T15:19:25Z</time>
      </trkpt>
      <trkpt lat="43.63544" lon="7.06591">
        <ele>159.47204589844</ele>
        <time>2020-05-14T15:19:26Z</time>
      </trkpt>
      <trkpt lat="43.63538" lon="7.06591">
        <ele>159.73400878906</ele>
        <time>2020-05-14T15:19:27Z</time>
      </trkpt>
      <trkpt lat="43.63532" lon="7.0659">
        <ele>159.97058105469</ele>
        <time>2020-05-14T15:19:28Z</time>
      </trkpt>
      <trkpt lat="43.63526" lon="7.06589">
        <ele>159.85217285156</ele>
        <time>2020-05-14T15:19:29Z</time>
      </trkpt>
      <trkpt lat="43.6352" lon="7.0659">
        <ele>160.33764648438</ele>
        <time>2020-05-14T15:19:30Z</time>
      </trkpt>
      <trkpt lat="43.63514" lon="7.0659">
        <ele>160.02526855469</ele>
        <time>2020-05-14T15:19:31Z</time>
      </trkpt>
      <trkpt lat="43.63508" lon="7.0659">
        <ele>159.53002929688</ele>
        <time>2020-05-14T15:19:32Z</time>
      </trkpt>
      <trkpt lat="43.63502" lon="7.0659">
        <ele>160.36785888672</ele>
        <time>2020-05-14T15:19:33Z</time>
      </trkpt>
      <trkpt lat="43.63496" lon="7.06591">
        <ele>160.37609863281</ele>
        <time>2020-05-14T15:19:34Z</time>
      </trkpt>
      <trkpt lat="43.63491" lon="7.06591">
        <ele>160.31896972656</ele>
        <time>2020-05-14T15:19:35Z</time>
      </trkpt>
      <trkpt lat="43.63485" lon="7.06592">
        <ele>160.14758300781</ele>
        <time>2020-05-14T15:19:36Z</time>
      </trkpt>
      <trkpt lat="43.63479" lon="7.06593">
        <ele>159.25122070312</ele>
        <time>2020-05-14T15:19:37Z</time>
      </trkpt>
      <trkpt lat="43.63474" lon="7.06594">
        <ele>159.71704101562</ele>
        <time>2020-05-14T15:19:38Z</time>
      </trkpt>
      <trkpt lat="43.63468" lon="7.06595">
        <ele>159.61840820312</ele>
        <time>2020-05-14T15:19:39Z</time>
      </trkpt>
      <trkpt lat="43.63462" lon="7.06596">
        <ele>160.54931640625</ele>
        <time>2020-05-14T15:19:40Z</time>
      </trkpt>
      <trkpt lat="43.63457" lon="7.06597">
        <ele>160.8974609375</ele>
        <time>2020-05-14T15:19:41Z</time>
      </trkpt>
      <trkpt lat="43.63451" lon="7.06599">
        <ele>161.13513183594</ele>
        <time>2020-05-14T15:19:42Z</time>
      </trkpt>
      <trkpt lat="43.63446" lon="7.06601">
        <ele>160.80590820312</ele>
        <time>2020-05-14T15:19:43Z</time>
      </trkpt>
      <trkpt lat="43.63441" lon="7.06605">
        <ele>160.06170654297</ele>
        <time>2020-05-14T15:19:44Z</time>
      </trkpt>
      <trkpt lat="43.63436" lon="7.06608">
        <ele>159.75091552734</ele>
        <time>2020-05-14T15:19:45Z</time>
      </trkpt>
      <trkpt lat="43.63431" lon="7.0661">
        <ele>160.03277587891</ele>
        <time>2020-05-14T15:19:46Z</time>
      </trkpt>
      <trkpt lat="43.63426" lon="7.06614">
        <ele>160.21282958984</ele>
        <time>2020-05-14T15:19:47Z</time>
      </trkpt>
      <trkpt lat="43.63421" lon="7.06617">
        <ele>160.10272216797</ele>
        <time>2020-05-14T15:19:48Z</time>
      </trkpt>
      <trkpt lat="43.63416" lon="7.0662">
        <ele>160.16418457031</ele>
        <time>2020-05-14T15:19:49Z</time>
      </trkpt>
      <trkpt lat="43.63411" lon="7.06623">
        <ele>160.49243164062</ele>
        <time>2020-05-14T15:19:50Z</time>
      </trkpt>
      <trkpt lat="43.63406" lon="7.06626">
        <ele>161.27465820312</ele>
        <time>2020-05-14T15:19:51Z</time>
      </trkpt>
      <trkpt lat="43.63401" lon="7.06629">
        <ele>161.1953125</ele>
        <time>2020-05-14T15:19:52Z</time>
      </trkpt>
      <trkpt lat="43.63396" lon="7.06632">
        <ele>161.03833007812</ele>
        <time>2020-05-14T15:19:53Z</time>
      </trkpt>
      <trkpt lat="43.63391" lon="7.06635">
        <ele>161.392578125</ele>
        <time>2020-05-14T15:19:54Z</time>
      </trkpt>
      <trkpt lat="43.63385" lon="7.06638">
        <ele>161.20153808594</ele>
        <time>2020-05-14T15:19:55Z</time>
      </trkpt>
      <trkpt lat="43.6338" lon="7.06641">
        <ele>161.13555908203</ele>
        <time>2020-05-14T15:19:56Z</time>
      </trkpt>
      <trkpt lat="43.63375" lon="7.06643">
        <ele>160.80139160156</ele>
        <time>2020-05-14T15:19:57Z</time>
      </trkpt>
      <trkpt lat="43.6337" lon="7.06645">
        <ele>160.83361816406</ele>
        <time>2020-05-14T15:19:58Z</time>
      </trkpt>
      <trkpt lat="43.63365" lon="7.06647">
        <ele>160.87677001953</ele>
        <time>2020-05-14T15:19:59Z</time>
      </trkpt>
      <trkpt lat="43.6336" lon="7.0665">
        <ele>160.40234375</ele>
        <time>2020-05-14T15:20:00Z</time>
      </trkpt>
      <trkpt lat="43.63355" lon="7.06653">
        <ele>160.26287841797</ele>
        <time>2020-05-14T15:20:01Z</time>
      </trkpt>
      <trkpt lat="43.63351" lon="7.06656">
        <ele>160.5361328125</ele>
        <time>2020-05-14T15:20:02Z</time>
      </trkpt>
      <trkpt lat="43.63346" lon="7.0666">
        <ele>160.46789550781</ele>
        <time>2020-05-14T15:20:03Z</time>
      </trkpt>
      <trkpt lat="43.63342" lon="7.06663">
        <ele>160.94018554688</ele>
        <time>2020-05-14T15:20:04Z</time>
      </trkpt>
      <trkpt lat="43.63337" lon="7.06667">
        <ele>160.74462890625</ele>
        <time>2020-05-14T15:20:05Z</time>
      </trkpt>
      <trkpt lat="43.63332" lon="7.06671">
        <ele>160.90368652344</ele>
        <time>2020-05-14T15:20:06Z</time>
      </trkpt>
      <trkpt lat="43.63328" lon="7.06676">
        <ele>160.63024902344</ele>
        <time>2020-05-14T15:20:07Z</time>
      </trkpt>
      <trkpt lat="43.63324" lon="7.06681">
        <ele>160.49078369141</ele>
        <time>2020-05-14T15:20:08Z</time>
      </trkpt>
      <trkpt lat="43.63321" lon="7.06688">
        <ele>160.19586181641</ele>
        <time>2020-05-14T15:20:09Z</time>
      </trkpt>
      <trkpt lat="43.63318" lon="7.06694">
        <ele>160.00634765625</ele>
        <time>2020-05-14T15:20:10Z</time>
      </trkpt>
      <trkpt lat="43.63316" lon="7.06702">
        <ele>160.0087890625</ele>
        <time>2020-05-14T15:20:11Z</time>
      </trkpt>
      <trkpt lat="43.63314" lon="7.06709">
        <ele>159.73657226562</ele>
        <time>2020-05-14T15:20:12Z</time>
      </trkpt>
      <trkpt lat="43.63313" lon="7.06718">
        <ele>159.39416503906</ele>
        <time>2020-05-14T15:20:13Z</time>
      </trkpt>
      <trkpt lat="43.63312" lon="7.06727">
        <ele>158.79187011719</ele>
        <time>2020-05-14T15:20:14Z</time>
      </trkpt>
      <trkpt lat="43.63311" lon="7.06736">
        <ele>158.40258789062</ele>
        <time>2020-05-14T15:20:15Z</time>
      </trkpt>
      <trkpt lat="43.63311" lon="7.06746">
        <ele>157.91223144531</ele>
        <time>2020-05-14T15:20:16Z</time>
      </trkpt>
      <trkpt lat="43.6331" lon="7.06755">
        <ele>157.67626953125</ele>
        <time>2020-05-14T15:20:17Z</time>
      </trkpt>
      <trkpt lat="43.63309" lon="7.06765">
        <ele>157.51525878906</ele>
        <time>2020-05-14T15:20:18Z</time>
      </trkpt>
      <trkpt lat="43.63309" lon="7.06774">
        <ele>157.48852539062</ele>
        <time>2020-05-14T15:20:19Z</time>
      </trkpt>
      <trkpt lat="43.63308" lon="7.06784">
        <ele>157.44372558594</ele>
        <time>2020-05-14T15:20:20Z</time>
      </trkpt>
      <trkpt lat="43.63307" lon="7.06793">
        <ele>157.49206542969</ele>
        <time>2020-05-14T15:20:21Z</time>
      </trkpt>
      <trkpt lat="43.63307" lon="7.06802">
        <ele>157.78985595703</ele>
        <time>2020-05-14T15:20:22Z</time>
      </trkpt>
      <trkpt lat="43.63306" lon="7.0681">
        <ele>157.73394775391</ele>
        <time>2020-05-14T15:20:23Z</time>
      </trkpt>
      <trkpt lat="43.63305" lon="7.06819">
        <ele>157.61834716797</ele>
        <time>2020-05-14T15:20:24Z</time>
      </trkpt>
      <trkpt lat="43.63304" lon="7.06827">
        <ele>157.75805664062</ele>
        <time>2020-05-14T15:20:25Z</time>
      </trkpt>
      <trkpt lat="43.63304" lon="7.06834">
        <ele>157.74005126953</ele>
        <time>2020-05-14T15:20:26Z</time>
      </trkpt>
      <trkpt lat="43.63303" lon="7.06842">
        <ele>157.88415527344</ele>
        <time>2020-05-14T15:20:27Z</time>
      </trkpt>
      <trkpt lat="43.63303" lon="7.06849">
        <ele>157.92596435547</ele>
        <time>2020-05-14T15:20:28Z</time>
      </trkpt>
      <trkpt lat="43.63303" lon="7.06857">
        <ele>157.83239746094</ele>
        <time>2020-05-14T15:20:29Z</time>
      </trkpt>
      <trkpt lat="43.63303" lon="7.06865">
        <ele>157.49926757812</ele>
        <time>2020-05-14T15:20:30Z</time>
      </trkpt>
      <trkpt lat="43.63303" lon="7.06872">
        <ele>157.35131835938</ele>
        <time>2020-05-14T15:20:31Z</time>
      </trkpt>
      <trkpt lat="43.63303" lon="7.06879">
        <ele>157.2861328125</ele>
        <time>2020-05-14T15:20:32Z</time>
      </trkpt>
      <trkpt lat="43.63303" lon="7.06887">
        <ele>157.13873291016</ele>
        <time>2020-05-14T15:20:33Z</time>
      </trkpt>
      <trkpt lat="43.63303" lon="7.06895">
        <ele>157.240234375</ele>
        <time>2020-05-14T15:20:34Z</time>
      </trkpt>
      <trkpt lat="43.63303" lon="7.06903">
        <ele>157.08825683594</ele>
        <time>2020-05-14T15:20:35Z</time>
      </trkpt>
      <trkpt lat="43.63303" lon="7.06911">
        <ele>157.15185546875</ele>
        <time>2020-05-14T15:20:36Z</time>
      </trkpt>
      <trkpt lat="43.63303" lon="7.06919">
        <ele>156.90454101562</ele>
        <time>2020-05-14T15:20:37Z</time>
      </trkpt>
      <trkpt lat="43.63304" lon="7.06928">
        <ele>156.78057861328</ele>
        <time>2020-05-14T15:20:38Z</time>
      </trkpt>
      <trkpt lat="43.63305" lon="7.06936">
        <ele>156.46484375</ele>
        <time>2020-05-14T15:20:39Z</time>
      </trkpt>
      <trkpt lat="43.63308" lon="7.06945">
        <ele>156.18658447266</ele>
        <time>2020-05-14T15:20:40Z</time>
      </trkpt>
      <trkpt lat="43.6331" lon="7.06954">
        <ele>156.07611083984</ele>
        <time>2020-05-14T15:20:41Z</time>
      </trkpt>
      <trkpt lat="43.63313" lon="7.06962">
        <ele>155.75146484375</ele>
        <time>2020-05-14T15:20:42Z</time>
      </trkpt>
      <trkpt lat="43.63317" lon="7.06971">
        <ele>155.55926513672</ele>
        <time>2020-05-14T15:20:43Z</time>
      </trkpt>
      <trkpt lat="43.63321" lon="7.06979">
        <ele>155.42242431641</ele>
        <time>2020-05-14T15:20:44Z</time>
      </trkpt>
      <trkpt lat="43.63325" lon="7.06987">
        <ele>155.45520019531</ele>
        <time>2020-05-14T15:20:45Z</time>
      </trkpt>
      <trkpt lat="43.6333" lon="7.06994">
        <ele>155.45275878906</ele>
        <time>2020-05-14T15:20:46Z</time>
      </trkpt>
      <trkpt lat="43.63335" lon="7.07001">
        <ele>155.39044189453</ele>
        <time>2020-05-14T15:20:47Z</time>
      </trkpt>
      <trkpt lat="43.6334" lon="7.07008">
        <ele>155.46051025391</ele>
        <time>2020-05-14T15:20:48Z</time>
      </trkpt>
      <trkpt lat="43.63346" lon="7.07014">
        <ele>155.52258300781</ele>
        <time>2020-05-14T15:20:49Z</time>
      </trkpt>
      <trkpt lat="43.63351" lon="7.0702">
        <ele>155.63024902344</ele>
        <time>2020-05-14T15:20:50Z</time>
      </trkpt>
      <trkpt lat="43.63357" lon="7.07026">
        <ele>155.71472167969</ele>
        <time>2020-05-14T15:20:51Z</time>
      </trkpt>
      <trkpt lat="43.63363" lon="7.07032">
        <ele>155.82922363281</ele>
        <time>2020-05-14T15:20:52Z</time>
      </trkpt>
      <trkpt lat="43.63369" lon="7.07036">
        <ele>155.93438720703</ele>
        <time>2020-05-14T15:20:53Z</time>
      </trkpt>
      <trkpt lat="43.63375" lon="7.07041">
        <ele>155.93756103516</ele>
        <time>2020-05-14T15:20:54Z</time>
      </trkpt>
      <trkpt lat="43.63381" lon="7.07046">
        <ele>156.04437255859</ele>
        <time>2020-05-14T15:20:55Z</time>
      </trkpt>
      <trkpt lat="43.63386" lon="7.07051">
        <ele>156.18688964844</ele>
        <time>2020-05-14T15:20:56Z</time>
      </trkpt>
      <trkpt lat="43.63392" lon="7.07055">
        <ele>156.33074951172</ele>
        <time>2020-05-14T15:20:57Z</time>
      </trkpt>
      <trkpt lat="43.63397" lon="7.07058">
        <ele>156.22583007812</ele>
        <time>2020-05-14T15:20:58Z</time>
      </trkpt>
      <trkpt lat="43.63403" lon="7.07063">
        <ele>156.36981201172</ele>
        <time>2020-05-14T15:20:59Z</time>
      </trkpt>
      <trkpt lat="43.63408" lon="7.07067">
        <ele>156.44909667969</ele>
        <time>2020-05-14T15:21:00Z</time>
      </trkpt>
      <trkpt lat="43.63413" lon="7.07071">
        <ele>155.94940185547</ele>
        <time>2020-05-14T15:21:01Z</time>
      </trkpt>
      <trkpt lat="43.63418" lon="7.07076">
        <ele>155.85455322266</ele>
        <time>2020-05-14T15:21:02Z</time>
      </trkpt>
      <trkpt lat="43.63424" lon="7.0708">
        <ele>155.87176513672</ele>
        <time>2020-05-14T15:21:03Z</time>
      </trkpt>
      <trkpt lat="43.6343" lon="7.07084">
        <ele>154.96893310547</ele>
        <time>2020-05-14T15:21:04Z</time>
      </trkpt>
      <trkpt lat="43.63437" lon="7.07088">
        <ele>154.958984375</ele>
        <time>2020-05-14T15:21:05Z</time>
      </trkpt>
      <trkpt lat="43.63444" lon="7.07092">
        <ele>154.36181640625</ele>
        <time>2020-05-14T15:21:06Z</time>
      </trkpt>
      <trkpt lat="43.63452" lon="7.07095">
        <ele>153.81634521484</ele>
        <time>2020-05-14T15:21:07Z</time>
      </trkpt>
      <trkpt lat="43.63459" lon="7.071">
        <ele>153.18731689453</ele>
        <time>2020-05-14T15:21:08Z</time>
      </trkpt>
      <trkpt lat="43.63466" lon="7.07105">
        <ele>152.83959960938</ele>
        <time>2020-05-14T15:21:09Z</time>
      </trkpt>
      <trkpt lat="43.63473" lon="7.07112">
        <ele>152.06890869141</ele>
        <time>2020-05-14T15:21:10Z</time>
      </trkpt>
      <trkpt lat="43.63479" lon="7.07121">
        <ele>151.25799560547</ele>
        <time>2020-05-14T15:21:11Z</time>
      </trkpt>
      <trkpt lat="43.63482" lon="7.07132">
        <ele>150.74090576172</ele>
        <time>2020-05-14T15:21:12Z</time>
      </trkpt>
      <trkpt lat="43.63483" lon="7.07144">
        <ele>150.39971923828</ele>
        <time>2020-05-14T15:21:13Z</time>
      </trkpt>
      <trkpt lat="43.63481" lon="7.07155">
        <ele>150.28015136719</ele>
        <time>2020-05-14T15:21:14Z</time>
      </trkpt>
      <trkpt lat="43.63479" lon="7.07165">
        <ele>149.90704345703</ele>
        <time>2020-05-14T15:21:15Z</time>
      </trkpt>
      <trkpt lat="43.63475" lon="7.07175">
        <ele>150.04254150391</ele>
        <time>2020-05-14T15:21:16Z</time>
      </trkpt>
      <trkpt lat="43.63472" lon="7.07184">
        <ele>150.00817871094</ele>
        <time>2020-05-14T15:21:17Z</time>
      </trkpt>
      <trkpt lat="43.63469" lon="7.07193">
        <ele>150.27960205078</ele>
        <time>2020-05-14T15:21:18Z</time>
      </trkpt>
      <trkpt lat="43.63467" lon="7.07201">
        <ele>150.7158203125</ele>
        <time>2020-05-14T15:21:19Z</time>
      </trkpt>
      <trkpt lat="43.63465" lon="7.0721">
        <ele>150.93481445312</ele>
        <time>2020-05-14T15:21:20Z</time>
      </trkpt>
      <trkpt lat="43.63464" lon="7.07218">
        <ele>150.72052001953</ele>
        <time>2020-05-14T15:21:21Z</time>
      </trkpt>
      <trkpt lat="43.63463" lon="7.07225">
        <ele>150.92645263672</ele>
        <time>2020-05-14T15:21:22Z</time>
      </trkpt>
      <trkpt lat="43.63462" lon="7.07233">
        <ele>151.13745117188</ele>
        <time>2020-05-14T15:21:23Z</time>
      </trkpt>
      <trkpt lat="43.63461" lon="7.07241">
        <ele>151.16345214844</ele>
        <time>2020-05-14T15:21:24Z</time>
      </trkpt>
      <trkpt lat="43.63461" lon="7.07248">
        <ele>151.13220214844</ele>
        <time>2020-05-14T15:21:25Z</time>
      </trkpt>
      <trkpt lat="43.63461" lon="7.07257">
        <ele>151.09100341797</ele>
        <time>2020-05-14T15:21:26Z</time>
      </trkpt>
      <trkpt lat="43.63461" lon="7.07265">
        <ele>151.09094238281</ele>
        <time>2020-05-14T15:21:27Z</time>
      </trkpt>
      <trkpt lat="43.63461" lon="7.07273">
        <ele>150.95050048828</ele>
        <time>2020-05-14T15:21:28Z</time>
      </trkpt>
      <trkpt lat="43.6346" lon="7.07281">
        <ele>150.97546386719</ele>
        <time>2020-05-14T15:21:29Z</time>
      </trkpt>
      <trkpt lat="43.63459" lon="7.0729">
        <ele>150.69555664062</ele>
        <time>2020-05-14T15:21:30Z</time>
      </trkpt>
      <trkpt lat="43.63458" lon="7.07299">
        <ele>150.48150634766</ele>
        <time>2020-05-14T15:21:31Z</time>
      </trkpt>
      <trkpt lat="43.63456" lon="7.07308">
        <ele>150.71875</ele>
        <time>2020-05-14T15:21:32Z</time>
      </trkpt>
      <trkpt lat="43.63454" lon="7.07315">
        <ele>150.49133300781</ele>
        <time>2020-05-14T15:21:33Z</time>
      </trkpt>
      <trkpt lat="43.63451" lon="7.07323">
        <ele>151.04150390625</ele>
        <time>2020-05-14T15:21:34Z</time>
      </trkpt>
      <trkpt lat="43.63449" lon="7.0733">
        <ele>151.10980224609</ele>
        <time>2020-05-14T15:21:35Z</time>
      </trkpt>
      <trkpt lat="43.63448" lon="7.07338">
        <ele>151.62817382812</ele>
        <time>2020-05-14T15:21:36Z</time>
      </trkpt>
      <trkpt lat="43.63446" lon="7.07344">
        <ele>152.12408447266</ele>
        <time>2020-05-14T15:21:37Z</time>
      </trkpt>
      <trkpt lat="43.63444" lon="7.07351">
        <ele>152.13116455078</ele>
        <time>2020-05-14T15:21:38Z</time>
      </trkpt>
      <trkpt lat="43.63443" lon="7.07356">
        <ele>152.38787841797</ele>
        <time>2020-05-14T15:21:39Z</time>
      </trkpt>
      <trkpt lat="43.63441" lon="7.07362">
        <ele>152.49908447266</ele>
        <time>2020-05-14T15:21:40Z</time>
      </trkpt>
      <trkpt lat="43.6344" lon="7.07368">
        <ele>153.03063964844</ele>
        <time>2020-05-14T15:21:41Z</time>
      </trkpt>
      <trkpt lat="43.63439" lon="7.07373">
        <ele>153.28131103516</ele>
        <time>2020-05-14T15:21:42Z</time>
      </trkpt>
      <trkpt lat="43.63438" lon="7.0738">
        <ele>153.64978027344</ele>
        <time>2020-05-14T15:21:43Z</time>
      </trkpt>
      <trkpt lat="43.63437" lon="7.07386">
        <ele>153.92053222656</ele>
        <time>2020-05-14T15:21:44Z</time>
      </trkpt>
      <trkpt lat="43.63436" lon="7.07392">
        <ele>153.89727783203</ele>
        <time>2020-05-14T15:21:45Z</time>
      </trkpt>
      <trkpt lat="43.63435" lon="7.07398">
        <ele>154.16137695312</ele>
        <time>2020-05-14T15:21:46Z</time>
      </trkpt>
      <trkpt lat="43.63434" lon="7.07404">
        <ele>153.75970458984</ele>
        <time>2020-05-14T15:21:47Z</time>
      </trkpt>
      <trkpt lat="43.63433" lon="7.07412">
        <ele>153.435546875</ele>
        <time>2020-05-14T15:21:48Z</time>
      </trkpt>
      <trkpt lat="43.63432" lon="7.07419">
        <ele>153.18878173828</ele>
        <time>2020-05-14T15:21:49Z</time>
      </trkpt>
      <trkpt lat="43.63431" lon="7.07427">
        <ele>152.88177490234</ele>
        <time>2020-05-14T15:21:50Z</time>
      </trkpt>
      <trkpt lat="43.63431" lon="7.07435">
        <ele>152.66687011719</ele>
        <time>2020-05-14T15:21:51Z</time>
      </trkpt>
      <trkpt lat="43.63431" lon="7.07443">
        <ele>153.01593017578</ele>
        <time>2020-05-14T15:21:52Z</time>
      </trkpt>
      <trkpt lat="43.6343" lon="7.07451">
        <ele>152.89520263672</ele>
        <time>2020-05-14T15:21:53Z</time>
      </trkpt>
      <trkpt lat="43.63429" lon="7.07459">
        <ele>152.73052978516</ele>
        <time>2020-05-14T15:21:54Z</time>
      </trkpt>
      <trkpt lat="43.63428" lon="7.07467">
        <ele>152.63110351562</ele>
        <time>2020-05-14T15:21:55Z</time>
      </trkpt>
      <trkpt lat="43.63427" lon="7.07475">
        <ele>152.42553710938</ele>
        <time>2020-05-14T15:21:56Z</time>
      </trkpt>
      <trkpt lat="43.63426" lon="7.07484">
        <ele>152.31597900391</ele>
        <time>2020-05-14T15:21:57Z</time>
      </trkpt>
      <trkpt lat="43.63425" lon="7.07492">
        <ele>152.43505859375</ele>
        <time>2020-05-14T15:21:58Z</time>
      </trkpt>
      <trkpt lat="43.63424" lon="7.07501">
        <ele>152.34552001953</ele>
        <time>2020-05-14T15:21:59Z</time>
      </trkpt>
      <trkpt lat="43.63422" lon="7.07509">
        <ele>151.87890625</ele>
        <time>2020-05-14T15:22:00Z</time>
      </trkpt>
      <trkpt lat="43.63421" lon="7.07517">
        <ele>151.73754882812</ele>
        <time>2020-05-14T15:22:01Z</time>
      </trkpt>
      <trkpt lat="43.6342" lon="7.07525">
        <ele>151.25207519531</ele>
        <time>2020-05-14T15:22:02Z</time>
      </trkpt>
      <trkpt lat="43.63419" lon="7.07534">
        <ele>151.23266601562</ele>
        <time>2020-05-14T15:22:03Z</time>
      </trkpt>
      <trkpt lat="43.63417" lon="7.07543">
        <ele>150.92327880859</ele>
        <time>2020-05-14T15:22:04Z</time>
      </trkpt>
      <trkpt lat="43.63415" lon="7.0755">
        <ele>151.07958984375</ele>
        <time>2020-05-14T15:22:05Z</time>
      </trkpt>
      <trkpt lat="43.63412" lon="7.07557">
        <ele>151.39636230469</ele>
        <time>2020-05-14T15:22:06Z</time>
      </trkpt>
      <trkpt lat="43.63407" lon="7.07563">
        <ele>150.7568359375</ele>
        <time>2020-05-14T15:22:07Z</time>
      </trkpt>
      <trkpt lat="43.63402" lon="7.07569">
        <ele>150.54016113281</ele>
        <time>2020-05-14T15:22:08Z</time>
      </trkpt>
      <trkpt lat="43.63396" lon="7.07574">
        <ele>150.25744628906</ele>
        <time>2020-05-14T15:22:09Z</time>
      </trkpt>
      <trkpt lat="43.6339" lon="7.07579">
        <ele>149.95532226562</ele>
        <time>2020-05-14T15:22:10Z</time>
      </trkpt>
      <trkpt lat="43.63384" lon="7.07585">
        <ele>149.46569824219</ele>
        <time>2020-05-14T15:22:11Z</time>
      </trkpt>
      <trkpt lat="43.63378" lon="7.07592">
        <ele>149.01013183594</ele>
        <time>2020-05-14T15:22:12Z</time>
      </trkpt>
      <trkpt lat="43.63372" lon="7.07599">
        <ele>148.7294921875</ele>
        <time>2020-05-14T15:22:13Z</time>
      </trkpt>
      <trkpt lat="43.63367" lon="7.07606">
        <ele>148.50915527344</ele>
        <time>2020-05-14T15:22:14Z</time>
      </trkpt>
      <trkpt lat="43.63362" lon="7.07613">
        <ele>148.56573486328</ele>
        <time>2020-05-14T15:22:15Z</time>
      </trkpt>
      <trkpt lat="43.63356" lon="7.07621">
        <ele>148.29010009766</ele>
        <time>2020-05-14T15:22:16Z</time>
      </trkpt>
      <trkpt lat="43.6335" lon="7.07629">
        <ele>147.7763671875</ele>
        <time>2020-05-14T15:22:17Z</time>
      </trkpt>
      <trkpt lat="43.63343" lon="7.07636">
        <ele>147.29382324219</ele>
        <time>2020-05-14T15:22:18Z</time>
      </trkpt>
      <trkpt lat="43.63335" lon="7.07641">
        <ele>146.94134521484</ele>
        <time>2020-05-14T15:22:19Z</time>
      </trkpt>
      <trkpt lat="43.63327" lon="7.07646">
        <ele>146.60766601562</ele>
        <time>2020-05-14T15:22:20Z</time>
      </trkpt>
      <trkpt lat="43.63318" lon="7.07647">
        <ele>146.72222900391</ele>
        <time>2020-05-14T15:22:21Z</time>
      </trkpt>
      <trkpt lat="43.6331" lon="7.07649">
        <ele>146.05511474609</ele>
        <time>2020-05-14T15:22:22Z</time>
      </trkpt>
      <trkpt lat="43.63301" lon="7.07651">
        <ele>145.82250976562</ele>
        <time>2020-05-14T15:22:23Z</time>
      </trkpt>
      <trkpt lat="43.63293" lon="7.07653">
        <ele>145.65856933594</ele>
        <time>2020-05-14T15:22:24Z</time>
      </trkpt>
      <trkpt lat="43.63284" lon="7.07655">
        <ele>145.60217285156</ele>
        <time>2020-05-14T15:22:25Z</time>
      </trkpt>
      <trkpt lat="43.63275" lon="7.07657">
        <ele>145.44860839844</ele>
        <time>2020-05-14T15:22:26Z</time>
      </trkpt>
      <trkpt lat="43.63265" lon="7.07662">
        <ele>145.44647216797</ele>
        <time>2020-05-14T15:22:27Z</time>
      </trkpt>
      <trkpt lat="43.63255" lon="7.07665">
        <ele>144.67993164062</ele>
        <time>2020-05-14T15:22:28Z</time>
      </trkpt>
      <trkpt lat="43.63247" lon="7.0767">
        <ele>144.60827636719</ele>
        <time>2020-05-14T15:22:29Z</time>
      </trkpt>
      <trkpt lat="43.63238" lon="7.07676">
        <ele>144.0908203125</ele>
        <time>2020-05-14T15:22:30Z</time>
      </trkpt>
      <trkpt lat="43.63229" lon="7.07684">
        <ele>142.74664306641</ele>
        <time>2020-05-14T15:22:31Z</time>
      </trkpt>
      <trkpt lat="43.63221" lon="7.07691">
        <ele>142.41943359375</ele>
        <time>2020-05-14T15:22:32Z</time>
      </trkpt>
      <trkpt lat="43.63214" lon="7.07699">
        <ele>141.75811767578</ele>
        <time>2020-05-14T15:22:33Z</time>
      </trkpt>
      <trkpt lat="43.63205" lon="7.07707">
        <ele>141.27038574219</ele>
        <time>2020-05-14T15:22:34Z</time>
      </trkpt>
      <trkpt lat="43.63197" lon="7.07716">
        <ele>140.70422363281</ele>
        <time>2020-05-14T15:22:35Z</time>
      </trkpt>
      <trkpt lat="43.63188" lon="7.07723">
        <ele>140.82104492188</ele>
        <time>2020-05-14T15:22:36Z</time>
      </trkpt>
      <trkpt lat="43.63179" lon="7.07729">
        <ele>140.63012695312</ele>
        <time>2020-05-14T15:22:37Z</time>
      </trkpt>
      <trkpt lat="43.63167" lon="7.07732">
        <ele>140.08276367188</ele>
        <time>2020-05-14T15:22:38Z</time>
      </trkpt>
      <trkpt lat="43.63157" lon="7.07736">
        <ele>139.60845947266</ele>
        <time>2020-05-14T15:22:39Z</time>
      </trkpt>
      <trkpt lat="43.63146" lon="7.0774">
        <ele>139.44171142578</ele>
        <time>2020-05-14T15:22:40Z</time>
      </trkpt>
      <trkpt lat="43.63136" lon="7.07747">
        <ele>138.873046875</ele>
        <time>2020-05-14T15:22:41Z</time>
      </trkpt>
      <trkpt lat="43.63127" lon="7.07756">
        <ele>137.80157470703</ele>
        <time>2020-05-14T15:22:42Z</time>
      </trkpt>
      <trkpt lat="43.6312" lon="7.07767">
        <ele>137.56787109375</ele>
        <time>2020-05-14T15:22:43Z</time>
      </trkpt>
      <trkpt lat="43.63113" lon="7.0778">
        <ele>136.93835449219</ele>
        <time>2020-05-14T15:22:44Z</time>
      </trkpt>
      <trkpt lat="43.63107" lon="7.07793">
        <ele>136.84985351562</ele>
        <time>2020-05-14T15:22:45Z</time>
      </trkpt>
      <trkpt lat="43.631" lon="7.07806">
        <ele>136.79223632812</ele>
        <time>2020-05-14T15:22:46Z</time>
      </trkpt>
      <trkpt lat="43.63091" lon="7.07816">
        <ele>135.37420654297</ele>
        <time>2020-05-14T15:22:47Z</time>
      </trkpt>
      <trkpt lat="43.63081" lon="7.07826">
        <ele>134.41595458984</ele>
        <time>2020-05-14T15:22:48Z</time>
      </trkpt>
      <trkpt lat="43.6307" lon="7.07833">
        <ele>134.04223632812</ele>
        <time>2020-05-14T15:22:49Z</time>
      </trkpt>
      <trkpt lat="43.6306" lon="7.07841">
        <ele>133.53924560547</ele>
        <time>2020-05-14T15:22:50Z</time>
      </trkpt>
      <trkpt lat="43.63049" lon="7.07849">
        <ele>133.03057861328</ele>
        <time>2020-05-14T15:22:51Z</time>
      </trkpt>
      <trkpt lat="43.63039" lon="7.07859">
        <ele>132.59625244141</ele>
        <time>2020-05-14T15:22:52Z</time>
      </trkpt>
      <trkpt lat="43.6303" lon="7.0787">
        <ele>131.734375</ele>
        <time>2020-05-14T15:22:53Z</time>
      </trkpt>
      <trkpt lat="43.63022" lon="7.07882">
        <ele>131.34545898438</ele>
        <time>2020-05-14T15:22:54Z</time>
      </trkpt>
      <trkpt lat="43.63015" lon="7.07896">
        <ele>130.61785888672</ele>
        <time>2020-05-14T15:22:55Z</time>
      </trkpt>
      <trkpt lat="43.63009" lon="7.07911">
        <ele>129.95257568359</ele>
        <time>2020-05-14T15:22:56Z</time>
      </trkpt>
      <trkpt lat="43.63003" lon="7.07926">
        <ele>129.07464599609</ele>
        <time>2020-05-14T15:22:57Z</time>
      </trkpt>
      <trkpt lat="43.62999" lon="7.07941">
        <ele>128.40051269531</ele>
        <time>2020-05-14T15:22:58Z</time>
      </trkpt>
      <trkpt lat="43.62995" lon="7.07957">
        <ele>127.56188964844</ele>
        <time>2020-05-14T15:22:59Z</time>
      </trkpt>
      <trkpt lat="43.62994" lon="7.07973">
        <ele>127.03735351562</ele>
        <time>2020-05-14T15:23:00Z</time>
      </trkpt>
      <trkpt lat="43.62993" lon="7.07989">
        <ele>126.32928466797</ele>
        <time>2020-05-14T15:23:01Z</time>
      </trkpt>
      <trkpt lat="43.62994" lon="7.08004">
        <ele>125.79699707031</ele>
        <time>2020-05-14T15:23:02Z</time>
      </trkpt>
      <trkpt lat="43.62995" lon="7.0802">
        <ele>125.22570800781</ele>
        <time>2020-05-14T15:23:03Z</time>
      </trkpt>
      <trkpt lat="43.62995" lon="7.08036">
        <ele>124.63879394531</ele>
        <time>2020-05-14T15:23:04Z</time>
      </trkpt>
      <trkpt lat="43.62995" lon="7.08052">
        <ele>123.70178222656</ele>
        <time>2020-05-14T15:23:05Z</time>
      </trkpt>
      <trkpt lat="43.62994" lon="7.08067">
        <ele>123.17205810547</ele>
        <time>2020-05-14T15:23:06Z</time>
      </trkpt>
      <trkpt lat="43.62992" lon="7.08083">
        <ele>122.69262695312</ele>
        <time>2020-05-14T15:23:07Z</time>
      </trkpt>
      <trkpt lat="43.62991" lon="7.08099">
        <ele>122.33905029297</ele>
        <time>2020-05-14T15:23:08Z</time>
      </trkpt>
      <trkpt lat="43.62992" lon="7.08114">
        <ele>121.73303222656</ele>
        <time>2020-05-14T15:23:09Z</time>
      </trkpt>
      <trkpt lat="43.62995" lon="7.08128">
        <ele>121.40405273438</ele>
        <time>2020-05-14T15:23:10Z</time>
      </trkpt>
      <trkpt lat="43.63001" lon="7.08142">
        <ele>121.39318847656</ele>
        <time>2020-05-14T15:23:11Z</time>
      </trkpt>
      <trkpt lat="43.6301" lon="7.08152">
        <ele>120.77551269531</ele>
        <time>2020-05-14T15:23:12Z</time>
      </trkpt>
      <trkpt lat="43.6302" lon="7.0816">
        <ele>120.15069580078</ele>
        <time>2020-05-14T15:23:13Z</time>
      </trkpt>
      <trkpt lat="43.6303" lon="7.08165">
        <ele>119.60217285156</ele>
        <time>2020-05-14T15:23:14Z</time>
      </trkpt>
      <trkpt lat="43.63041" lon="7.08168">
        <ele>121.01043701172</ele>
        <time>2020-05-14T15:23:15Z</time>
      </trkpt>
      <trkpt lat="43.63052" lon="7.0817">
        <ele>120.60217285156</ele>
        <time>2020-05-14T15:23:16Z</time>
      </trkpt>
      <trkpt lat="43.63063" lon="7.08169">
        <ele>120.10729980469</ele>
        <time>2020-05-14T15:23:17Z</time>
      </trkpt>
      <trkpt lat="43.63075" lon="7.08166">
        <ele>119.60906982422</ele>
        <time>2020-05-14T15:23:18Z</time>
      </trkpt>
      <trkpt lat="43.63086" lon="7.08163">
        <ele>119.04553222656</ele>
        <time>2020-05-14T15:23:19Z</time>
      </trkpt>
      <trkpt lat="43.63097" lon="7.0816">
        <ele>118.62115478516</ele>
        <time>2020-05-14T15:23:20Z</time>
      </trkpt>
      <trkpt lat="43.63108" lon="7.08159">
        <ele>118.07720947266</ele>
        <time>2020-05-14T15:23:21Z</time>
      </trkpt>
      <trkpt lat="43.63119" lon="7.08157">
        <ele>117.71020507812</ele>
        <time>2020-05-14T15:23:22Z</time>
      </trkpt>
      <trkpt lat="43.6313" lon="7.08156">
        <ele>117.09356689453</ele>
        <time>2020-05-14T15:23:23Z</time>
      </trkpt>
      <trkpt lat="43.63142" lon="7.08155">
        <ele>116.44158935547</ele>
        <time>2020-05-14T15:23:24Z</time>
      </trkpt>
      <trkpt lat="43.63153" lon="7.08152">
        <ele>115.94915771484</ele>
        <time>2020-05-14T15:23:25Z</time>
      </trkpt>
      <trkpt lat="43.63164" lon="7.08147">
        <ele>115.46612548828</ele>
        <time>2020-05-14T15:23:26Z</time>
      </trkpt>
      <trkpt lat="43.63175" lon="7.08141">
        <ele>114.98181152344</ele>
        <time>2020-05-14T15:23:27Z</time>
      </trkpt>
      <trkpt lat="43.63185" lon="7.08134">
        <ele>114.88909912109</ele>
        <time>2020-05-14T15:23:28Z</time>
      </trkpt>
      <trkpt lat="43.63196" lon="7.08128">
        <ele>114.52416992188</ele>
        <time>2020-05-14T15:23:29Z</time>
      </trkpt>
      <trkpt lat="43.63207" lon="7.08122">
        <ele>114.06494140625</ele>
        <time>2020-05-14T15:23:30Z</time>
      </trkpt>
      <trkpt lat="43.63217" lon="7.08117">
        <ele>113.79754638672</ele>
        <time>2020-05-14T15:23:31Z</time>
      </trkpt>
      <trkpt lat="43.63229" lon="7.08112">
        <ele>113.23510742188</ele>
        <time>2020-05-14T15:23:32Z</time>
      </trkpt>
      <trkpt lat="43.6324" lon="7.08109">
        <ele>105.703125</ele>
        <time>2020-05-14T15:23:33Z</time>
      </trkpt>
      <trkpt lat="43.63251" lon="7.08107">
        <ele>104.11706542969</ele>
        <time>2020-05-14T15:23:34Z</time>
      </trkpt>
      <trkpt lat="43.63262" lon="7.08105">
        <ele>103.31207275391</ele>
        <time>2020-05-14T15:23:35Z</time>
      </trkpt>
      <trkpt lat="43.63273" lon="7.08102">
        <ele>103.11169433594</ele>
        <time>2020-05-14T15:23:36Z</time>
      </trkpt>
      <trkpt lat="43.63285" lon="7.081">
        <ele>102.23712158203</ele>
        <time>2020-05-14T15:23:37Z</time>
      </trkpt>
      <trkpt lat="43.63296" lon="7.08097">
        <ele>101.66821289062</ele>
        <time>2020-05-14T15:23:38Z</time>
      </trkpt>
      <trkpt lat="43.63307" lon="7.08094">
        <ele>100.9130859375</ele>
        <time>2020-05-14T15:23:39Z</time>
      </trkpt>
      <trkpt lat="43.63319" lon="7.08093">
        <ele>100.23999023438</ele>
        <time>2020-05-14T15:23:40Z</time>
      </trkpt>
      <trkpt lat="43.6333" lon="7.08095">
        <ele>99.734802246094</ele>
        <time>2020-05-14T15:23:41Z</time>
      </trkpt>
      <trkpt lat="43.63341" lon="7.08099">
        <ele>99.995849609375</ele>
        <time>2020-05-14T15:23:42Z</time>
      </trkpt>
      <trkpt lat="43.63351" lon="7.08105">
        <ele>99.974365234375</ele>
        <time>2020-05-14T15:23:43Z</time>
      </trkpt>
      <trkpt lat="43.63359" lon="7.08113">
        <ele>100.34777832031</ele>
        <time>2020-05-14T15:23:44Z</time>
      </trkpt>
      <trkpt lat="43.63365" lon="7.08122">
        <ele>100.65667724609</ele>
        <time>2020-05-14T15:23:45Z</time>
      </trkpt>
      <trkpt lat="43.63369" lon="7.08133">
        <ele>101.91131591797</ele>
        <time>2020-05-14T15:23:46Z</time>
      </trkpt>
      <trkpt lat="43.63373" lon="7.08144">
        <ele>102.78686523438</ele>
        <time>2020-05-14T15:23:47Z</time>
      </trkpt>
      <trkpt lat="43.63375" lon="7.08155">
        <ele>108.95385742188</ele>
        <time>2020-05-14T15:23:48Z</time>
      </trkpt>
      <trkpt lat="43.63378" lon="7.08164">
        <ele>107.47552490234</ele>
        <time>2020-05-14T15:23:49Z</time>
      </trkpt>
      <trkpt lat="43.6338" lon="7.08173">
        <ele>108.06909179688</ele>
        <time>2020-05-14T15:23:50Z</time>
      </trkpt>
      <trkpt lat="43.63382" lon="7.08181">
        <ele>108.46368408203</ele>
        <time>2020-05-14T15:23:51Z</time>
      </trkpt>
      <trkpt lat="43.63385" lon="7.08189">
        <ele>108.28979492188</ele>
        <time>2020-05-14T15:23:52Z</time>
      </trkpt>
      <trkpt lat="43.63386" lon="7.08196">
        <ele>108.53607177734</ele>
        <time>2020-05-14T15:23:53Z</time>
      </trkpt>
      <trkpt lat="43.63388" lon="7.08202">
        <ele>108.888671875</ele>
        <time>2020-05-14T15:23:54Z</time>
      </trkpt>
      <trkpt lat="43.6339" lon="7.08208">
        <ele>109.43292236328</ele>
        <time>2020-05-14T15:23:55Z</time>
      </trkpt>
      <trkpt lat="43.63391" lon="7.08214">
        <ele>109.10705566406</ele>
        <time>2020-05-14T15:23:56Z</time>
      </trkpt>
      <trkpt lat="43.63392" lon="7.08219">
        <ele>109.22198486328</ele>
        <time>2020-05-14T15:23:57Z</time>
      </trkpt>
      <trkpt lat="43.63393" lon="7.08223">
        <ele>109.00567626953</ele>
        <time>2020-05-14T15:23:58Z</time>
      </trkpt>
      <trkpt lat="43.63393" lon="7.08228">
        <ele>108.58618164062</ele>
        <time>2020-05-14T15:23:59Z</time>
      </trkpt>
      <trkpt lat="43.63394" lon="7.08233">
        <ele>108.09283447266</ele>
        <time>2020-05-14T15:24:00Z</time>
      </trkpt>
      <trkpt lat="43.63395" lon="7.08237">
        <ele>108.51306152344</ele>
        <time>2020-05-14T15:24:01Z</time>
      </trkpt>
      <trkpt lat="43.63396" lon="7.08242">
        <ele>108.59252929688</ele>
        <time>2020-05-14T15:24:02Z</time>
      </trkpt>
      <trkpt lat="43.63397" lon="7.08246">
        <ele>109.10424804688</ele>
        <time>2020-05-14T15:24:03Z</time>
      </trkpt>
      <trkpt lat="43.63397" lon="7.08251">
        <ele>109.3330078125</ele>
        <time>2020-05-14T15:24:04Z</time>
      </trkpt>
      <trkpt lat="43.63398" lon="7.08256">
        <ele>109.2333984375</ele>
        <time>2020-05-14T15:24:05Z</time>
      </trkpt>
      <trkpt lat="43.63398" lon="7.08261">
        <ele>109.54559326172</ele>
        <time>2020-05-14T15:24:06Z</time>
      </trkpt>
      <trkpt lat="43.63398" lon="7.08265">
        <ele>109.66271972656</ele>
        <time>2020-05-14T15:24:07Z</time>
      </trkpt>
      <trkpt lat="43.63398" lon="7.08269">
        <ele>109.74932861328</ele>
        <time>2020-05-14T15:24:08Z</time>
      </trkpt>
      <trkpt lat="43.63399" lon="7.08274">
        <ele>110.04693603516</ele>
        <time>2020-05-14T15:24:09Z</time>
      </trkpt>
      <trkpt lat="43.63399" lon="7.08278">
        <ele>110.04040527344</ele>
        <time>2020-05-14T15:24:10Z</time>
      </trkpt>
      <trkpt lat="43.63399" lon="7.08282">
        <ele>110.46655273438</ele>
        <time>2020-05-14T15:24:11Z</time>
      </trkpt>
      <trkpt lat="43.63399" lon="7.08286">
        <ele>110.89862060547</ele>
        <time>2020-05-14T15:24:12Z</time>
      </trkpt>
      <trkpt lat="43.634" lon="7.08291">
        <ele>110.91015625</ele>
        <time>2020-05-14T15:24:13Z</time>
      </trkpt>
      <trkpt lat="43.634" lon="7.08295">
        <ele>110.98657226562</ele>
        <time>2020-05-14T15:24:14Z</time>
      </trkpt>
      <trkpt lat="43.634" lon="7.08299">
        <ele>111.17224121094</ele>
        <time>2020-05-14T15:24:15Z</time>
      </trkpt>
      <trkpt lat="43.63401" lon="7.08303">
        <ele>111.56781005859</ele>
        <time>2020-05-14T15:24:16Z</time>
      </trkpt>
      <trkpt lat="43.63401" lon="7.08307">
        <ele>111.81097412109</ele>
        <time>2020-05-14T15:24:17Z</time>
      </trkpt>
      <trkpt lat="43.63401" lon="7.08311">
        <ele>111.57861328125</ele>
        <time>2020-05-14T15:24:18Z</time>
      </trkpt>
      <trkpt lat="43.63401" lon="7.08315">
        <ele>111.6552734375</ele>
        <time>2020-05-14T15:24:19Z</time>
      </trkpt>
      <trkpt lat="43.63402" lon="7.08319">
        <ele>111.34509277344</ele>
        <time>2020-05-14T15:24:20Z</time>
      </trkpt>
      <trkpt lat="43.63402" lon="7.08323">
        <ele>111.45568847656</ele>
        <time>2020-05-14T15:24:21Z</time>
      </trkpt>
      <trkpt lat="43.63403" lon="7.08327">
        <ele>111.57348632812</ele>
        <time>2020-05-14T15:24:22Z</time>
      </trkpt>
      <trkpt lat="43.63404" lon="7.08331">
        <ele>111.93591308594</ele>
        <time>2020-05-14T15:24:23Z</time>
      </trkpt>
      <trkpt lat="43.63405" lon="7.08336">
        <ele>112.2685546875</ele>
        <time>2020-05-14T15:24:24Z</time>
      </trkpt>
      <trkpt lat="43.63406" lon="7.0834">
        <ele>112.97180175781</ele>
        <time>2020-05-14T15:24:25Z</time>
      </trkpt>
      <trkpt lat="43.63407" lon="7.08344">
        <ele>113.22387695312</ele>
        <time>2020-05-14T15:24:26Z</time>
      </trkpt>
      <trkpt lat="43.63407" lon="7.08348">
        <ele>113.50549316406</ele>
        <time>2020-05-14T15:24:27Z</time>
      </trkpt>
      <trkpt lat="43.63408" lon="7.08352">
        <ele>113.71875</ele>
        <time>2020-05-14T15:24:28Z</time>
      </trkpt>
      <trkpt lat="43.63409" lon="7.08357">
        <ele>113.85180664062</ele>
        <time>2020-05-14T15:24:29Z</time>
      </trkpt>
      <trkpt lat="43.63409" lon="7.08361">
        <ele>114.16473388672</ele>
        <time>2020-05-14T15:24:30Z</time>
      </trkpt>
      <trkpt lat="43.63409" lon="7.08366">
        <ele>114.13342285156</ele>
        <time>2020-05-14T15:24:31Z</time>
      </trkpt>
      <trkpt lat="43.63408" lon="7.08371">
        <ele>114.38031005859</ele>
        <time>2020-05-14T15:24:32Z</time>
      </trkpt>
      <trkpt lat="43.63408" lon="7.08376">
        <ele>115.23449707031</ele>
        <time>2020-05-14T15:24:33Z</time>
      </trkpt>
      <trkpt lat="43.63407" lon="7.0838">
        <ele>115.70202636719</ele>
        <time>2020-05-14T15:24:34Z</time>
      </trkpt>
      <trkpt lat="43.63407" lon="7.08384">
        <ele>116.16168212891</ele>
        <time>2020-05-14T15:24:35Z</time>
      </trkpt>
      <trkpt lat="43.63406" lon="7.08388">
        <ele>117.18054199219</ele>
        <time>2020-05-14T15:24:36Z</time>
      </trkpt>
      <trkpt lat="43.63405" lon="7.08392">
        <ele>117.49389648438</ele>
        <time>2020-05-14T15:24:37Z</time>
      </trkpt>
      <trkpt lat="43.63404" lon="7.08396">
        <ele>118.14514160156</ele>
        <time>2020-05-14T15:24:38Z</time>
      </trkpt>
      <trkpt lat="43.63403" lon="7.08399">
        <ele>118.56298828125</ele>
        <time>2020-05-14T15:24:39Z</time>
      </trkpt>
      <trkpt lat="43.63401" lon="7.08403">
        <ele>119.04888916016</ele>
        <time>2020-05-14T15:24:40Z</time>
      </trkpt>
      <trkpt lat="43.634" lon="7.08408">
        <ele>119.26928710938</ele>
        <time>2020-05-14T15:24:41Z</time>
      </trkpt>
      <trkpt lat="43.63399" lon="7.08412">
        <ele>119.72283935547</ele>
        <time>2020-05-14T15:24:42Z</time>
      </trkpt>
      <trkpt lat="43.63398" lon="7.08416">
        <ele>119.17138671875</ele>
        <time>2020-05-14T15:24:43Z</time>
      </trkpt>
      <trkpt lat="43.63398" lon="7.0842">
        <ele>119.22039794922</ele>
        <time>2020-05-14T15:24:44Z</time>
      </trkpt>
      <trkpt lat="43.63397" lon="7.08425">
        <ele>119.57513427734</ele>
        <time>2020-05-14T15:24:45Z</time>
      </trkpt>
      <trkpt lat="43.63396" lon="7.08429">
        <ele>119.63446044922</ele>
        <time>2020-05-14T15:24:46Z</time>
      </trkpt>
      <trkpt lat="43.63395" lon="7.08433">
        <ele>119.11041259766</ele>
        <time>2020-05-14T15:24:47Z</time>
      </trkpt>
      <trkpt lat="43.63394" lon="7.08438">
        <ele>119.17547607422</ele>
        <time>2020-05-14T15:24:48Z</time>
      </trkpt>
      <trkpt lat="43.63393" lon="7.08442">
        <ele>119.32220458984</ele>
        <time>2020-05-14T15:24:49Z</time>
      </trkpt>
      <trkpt lat="43.63392" lon="7.08446">
        <ele>119.57556152344</ele>
        <time>2020-05-14T15:24:50Z</time>
      </trkpt>
      <trkpt lat="43.63392" lon="7.08451">
        <ele>121.76599121094</ele>
        <time>2020-05-14T15:24:51Z</time>
      </trkpt>
      <trkpt lat="43.63391" lon="7.08455">
        <ele>122.06762695312</ele>
        <time>2020-05-14T15:24:52Z</time>
      </trkpt>
      <trkpt lat="43.63391" lon="7.08459">
        <ele>122.13720703125</ele>
        <time>2020-05-14T15:24:53Z</time>
      </trkpt>
      <trkpt lat="43.6339" lon="7.08463">
        <ele>122.37420654297</ele>
        <time>2020-05-14T15:24:54Z</time>
      </trkpt>
      <trkpt lat="43.6339" lon="7.08467">
        <ele>122.5771484375</ele>
        <time>2020-05-14T15:24:55Z</time>
      </trkpt>
      <trkpt lat="43.6339" lon="7.0847">
        <ele>122.75665283203</ele>
        <time>2020-05-14T15:24:56Z</time>
      </trkpt>
      <trkpt lat="43.63389" lon="7.08474">
        <ele>122.49578857422</ele>
        <time>2020-05-14T15:24:57Z</time>
      </trkpt>
      <trkpt lat="43.63389" lon="7.08477">
        <ele>122.5087890625</ele>
        <time>2020-05-14T15:24:58Z</time>
      </trkpt>
      <trkpt lat="43.63389" lon="7.08481">
        <ele>122.76525878906</ele>
        <time>2020-05-14T15:24:59Z</time>
      </trkpt>
      <trkpt lat="43.63389" lon="7.08484">
        <ele>123.04479980469</ele>
        <time>2020-05-14T15:25:00Z</time>
      </trkpt>
      <trkpt lat="43.63388" lon="7.08487">
        <ele>123.07989501953</ele>
        <time>2020-05-14T15:25:01Z</time>
      </trkpt>
      <trkpt lat="43.63388" lon="7.08491">
        <ele>123.06579589844</ele>
        <time>2020-05-14T15:25:02Z</time>
      </trkpt>
      <trkpt lat="43.63387" lon="7.08494">
        <ele>123.16058349609</ele>
        <time>2020-05-14T15:25:03Z</time>
      </trkpt>
      <trkpt lat="43.63387" lon="7.08498">
        <ele>123.27661132812</ele>
        <time>2020-05-14T15:25:04Z</time>
      </trkpt>
      <trkpt lat="43.63386" lon="7.08501">
        <ele>123.29724121094</ele>
        <time>2020-05-14T15:25:05Z</time>
      </trkpt>
      <trkpt lat="43.63385" lon="7.08505">
        <ele>123.28778076172</ele>
        <time>2020-05-14T15:25:06Z</time>
      </trkpt>
      <trkpt lat="43.63384" lon="7.08508">
        <ele>123.16717529297</ele>
        <time>2020-05-14T15:25:07Z</time>
      </trkpt>
      <trkpt lat="43.63383" lon="7.08512">
        <ele>123.30340576172</ele>
        <time>2020-05-14T15:25:08Z</time>
      </trkpt>
      <trkpt lat="43.63382" lon="7.08515">
        <ele>123.37225341797</ele>
        <time>2020-05-14T15:25:09Z</time>
      </trkpt>
      <trkpt lat="43.63381" lon="7.08518">
        <ele>121.69848632812</ele>
        <time>2020-05-14T15:25:10Z</time>
      </trkpt>
      <trkpt lat="43.63379" lon="7.08521">
        <ele>122.04956054688</ele>
        <time>2020-05-14T15:25:11Z</time>
      </trkpt>
      <trkpt lat="43.63378" lon="7.08524">
        <ele>122.47729492188</ele>
        <time>2020-05-14T15:25:12Z</time>
      </trkpt>
      <trkpt lat="43.63377" lon="7.08527">
        <ele>122.18707275391</ele>
        <time>2020-05-14T15:25:13Z</time>
      </trkpt>
      <trkpt lat="43.63375" lon="7.0853">
        <ele>122.49639892578</ele>
        <time>2020-05-14T15:25:14Z</time>
      </trkpt>
      <trkpt lat="43.63374" lon="7.08533">
        <ele>122.54742431641</ele>
        <time>2020-05-14T15:25:15Z</time>
      </trkpt>
      <trkpt lat="43.63372" lon="7.08537">
        <ele>122.61968994141</ele>
        <time>2020-05-14T15:25:16Z</time>
      </trkpt>
      <trkpt lat="43.63371" lon="7.08539">
        <ele>122.94555664062</ele>
        <time>2020-05-14T15:25:17Z</time>
      </trkpt>
      <trkpt lat="43.63369" lon="7.08542">
        <ele>122.98443603516</ele>
        <time>2020-05-14T15:25:18Z</time>
      </trkpt>
      <trkpt lat="43.63367" lon="7.08545">
        <ele>123.27203369141</ele>
        <time>2020-05-14T15:25:19Z</time>
      </trkpt>
      <trkpt lat="43.63365" lon="7.08547">
        <ele>123.61303710938</ele>
        <time>2020-05-14T15:25:20Z</time>
      </trkpt>
      <trkpt lat="43.63363" lon="7.08549">
        <ele>123.6640625</ele>
        <time>2020-05-14T15:25:21Z</time>
      </trkpt>
      <trkpt lat="43.63361" lon="7.08551">
        <ele>124.20739746094</ele>
        <time>2020-05-14T15:25:22Z</time>
      </trkpt>
      <trkpt lat="43.63359" lon="7.08553">
        <ele>124.64392089844</ele>
        <time>2020-05-14T15:25:23Z</time>
      </trkpt>
      <trkpt lat="43.63357" lon="7.08555">
        <ele>124.79260253906</ele>
        <time>2020-05-14T15:25:24Z</time>
      </trkpt>
      <trkpt lat="43.63355" lon="7.08557">
        <ele>124.89111328125</ele>
        <time>2020-05-14T15:25:25Z</time>
      </trkpt>
      <trkpt lat="43.63353" lon="7.0856">
        <ele>125.03503417969</ele>
        <time>2020-05-14T15:25:26Z</time>
      </trkpt>
      <trkpt lat="43.63351" lon="7.08562">
        <ele>125.24389648438</ele>
        <time>2020-05-14T15:25:27Z</time>
      </trkpt>
      <trkpt lat="43.63348" lon="7.08564">
        <ele>125.28979492188</ele>
        <time>2020-05-14T15:25:28Z</time>
      </trkpt>
      <trkpt lat="43.63346" lon="7.08566">
        <ele>125.48175048828</ele>
        <time>2020-05-14T15:25:29Z</time>
      </trkpt>
      <trkpt lat="43.63344" lon="7.08567">
        <ele>126.0517578125</ele>
        <time>2020-05-14T15:25:30Z</time>
      </trkpt>
      <trkpt lat="43.63341" lon="7.08569">
        <ele>125.94213867188</ele>
        <time>2020-05-14T15:25:31Z</time>
      </trkpt>
      <trkpt lat="43.63339" lon="7.08571">
        <ele>126.36743164062</ele>
        <time>2020-05-14T15:25:32Z</time>
      </trkpt>
      <trkpt lat="43.63337" lon="7.08573">
        <ele>126.32958984375</ele>
        <time>2020-05-14T15:25:33Z</time>
      </trkpt>
      <trkpt lat="43.63335" lon="7.08575">
        <ele>126.42468261719</ele>
        <time>2020-05-14T15:25:34Z</time>
      </trkpt>
      <trkpt lat="43.63333" lon="7.08577">
        <ele>126.49157714844</ele>
        <time>2020-05-14T15:25:35Z</time>
      </trkpt>
      <trkpt lat="43.63331" lon="7.08579">
        <ele>126.40783691406</ele>
        <time>2020-05-14T15:25:36Z</time>
      </trkpt>
      <trkpt lat="43.63329" lon="7.08581">
        <ele>127.15521240234</ele>
        <time>2020-05-14T15:25:37Z</time>
      </trkpt>
      <trkpt lat="43.63327" lon="7.08583">
        <ele>127.09967041016</ele>
        <time>2020-05-14T15:25:38Z</time>
      </trkpt>
      <trkpt lat="43.63325" lon="7.08585">
        <ele>126.96655273438</ele>
        <time>2020-05-14T15:25:39Z</time>
      </trkpt>
      <trkpt lat="43.63323" lon="7.08587">
        <ele>126.92797851562</ele>
        <time>2020-05-14T15:25:40Z</time>
      </trkpt>
      <trkpt lat="43.6332" lon="7.08588">
        <ele>126.45007324219</ele>
        <time>2020-05-14T15:25:41Z</time>
      </trkpt>
      <trkpt lat="43.63318" lon="7.0859">
        <ele>127.09814453125</ele>
        <time>2020-05-14T15:25:42Z</time>
      </trkpt>
      <trkpt lat="43.63316" lon="7.08591">
        <ele>127.09594726562</ele>
        <time>2020-05-14T15:25:43Z</time>
      </trkpt>
      <trkpt lat="43.63314" lon="7.08593">
        <ele>127.14831542969</ele>
        <time>2020-05-14T15:25:44Z</time>
      </trkpt>
      <trkpt lat="43.63312" lon="7.08595">
        <ele>127.06213378906</ele>
        <time>2020-05-14T15:25:45Z</time>
      </trkpt>
      <trkpt lat="43.6331" lon="7.08597">
        <ele>127.32104492188</ele>
        <time>2020-05-14T15:25:46Z</time>
      </trkpt>
      <trkpt lat="43.63308" lon="7.08598">
        <ele>127.63354492188</ele>
        <time>2020-05-14T15:25:47Z</time>
      </trkpt>
      <trkpt lat="43.63305" lon="7.086">
        <ele>127.26470947266</ele>
        <time>2020-05-14T15:25:48Z</time>
      </trkpt>
      <trkpt lat="43.63303" lon="7.08601">
        <ele>127.34655761719</ele>
        <time>2020-05-14T15:25:49Z</time>
      </trkpt>
      <trkpt lat="43.63301" lon="7.08603">
        <ele>127.64318847656</ele>
        <time>2020-05-14T15:25:50Z</time>
      </trkpt>
      <trkpt lat="43.63299" lon="7.08604">
        <ele>127.82110595703</ele>
        <time>2020-05-14T15:25:51Z</time>
      </trkpt>
      <trkpt lat="43.63297" lon="7.08605">
        <ele>128.20532226562</ele>
        <time>2020-05-14T15:25:52Z</time>
      </trkpt>
      <trkpt lat="43.63294" lon="7.08607">
        <ele>127.91162109375</ele>
        <time>2020-05-14T15:25:53Z</time>
      </trkpt>
      <trkpt lat="43.63292" lon="7.08608">
        <ele>128.029296875</ele>
        <time>2020-05-14T15:25:54Z</time>
      </trkpt>
      <trkpt lat="43.6329" lon="7.0861">
        <ele>128.0791015625</ele>
        <time>2020-05-14T15:25:55Z</time>
      </trkpt>
      <trkpt lat="43.63288" lon="7.08612">
        <ele>127.96942138672</ele>
        <time>2020-05-14T15:25:56Z</time>
      </trkpt>
      <trkpt lat="43.63285" lon="7.08613">
        <ele>128.19427490234</ele>
        <time>2020-05-14T15:25:57Z</time>
      </trkpt>
      <trkpt lat="43.63283" lon="7.08615">
        <ele>127.94128417969</ele>
        <time>2020-05-14T15:25:58Z</time>
      </trkpt>
      <trkpt lat="43.63281" lon="7.08616">
        <ele>128.12280273438</ele>
        <time>2020-05-14T15:25:59Z</time>
      </trkpt>
      <trkpt lat="43.63279" lon="7.08618">
        <ele>128.2216796875</ele>
        <time>2020-05-14T15:26:00Z</time>
      </trkpt>
      <trkpt lat="43.63277" lon="7.0862">
        <ele>128.33599853516</ele>
        <time>2020-05-14T15:26:01Z</time>
      </trkpt>
      <trkpt lat="43.63275" lon="7.08621">
        <ele>128.72668457031</ele>
        <time>2020-05-14T15:26:02Z</time>
      </trkpt>
      <trkpt lat="43.63273" lon="7.08623">
        <ele>128.79663085938</ele>
        <time>2020-05-14T15:26:03Z</time>
      </trkpt>
      <trkpt lat="43.63271" lon="7.08624">
        <ele>129.0185546875</ele>
        <time>2020-05-14T15:26:04Z</time>
      </trkpt>
      <trkpt lat="43.63269" lon="7.08625">
        <ele>129.94134521484</ele>
        <time>2020-05-14T15:26:05Z</time>
      </trkpt>
      <trkpt lat="43.63267" lon="7.08627">
        <ele>130.03393554688</ele>
        <time>2020-05-14T15:26:06Z</time>
      </trkpt>
      <trkpt lat="43.63266" lon="7.08629">
        <ele>130.33154296875</ele>
        <time>2020-05-14T15:26:07Z</time>
      </trkpt>
      <trkpt lat="43.63264" lon="7.08631">
        <ele>130.50219726562</ele>
        <time>2020-05-14T15:26:08Z</time>
      </trkpt>
      <trkpt lat="43.63262" lon="7.08633">
        <ele>130.97595214844</ele>
        <time>2020-05-14T15:26:09Z</time>
      </trkpt>
      <trkpt lat="43.6326" lon="7.08634">
        <ele>131.44183349609</ele>
        <time>2020-05-14T15:26:10Z</time>
      </trkpt>
      <trkpt lat="43.63258" lon="7.08636">
        <ele>131.57824707031</ele>
        <time>2020-05-14T15:26:11Z</time>
      </trkpt>
      <trkpt lat="43.63256" lon="7.08638">
        <ele>131.79528808594</ele>
        <time>2020-05-14T15:26:12Z</time>
      </trkpt>
      <trkpt lat="43.63254" lon="7.0864">
        <ele>131.71197509766</ele>
        <time>2020-05-14T15:26:13Z</time>
      </trkpt>
      <trkpt lat="43.63252" lon="7.08643">
        <ele>131.76171875</ele>
        <time>2020-05-14T15:26:14Z</time>
      </trkpt>
      <trkpt lat="43.6325" lon="7.08645">
        <ele>131.89385986328</ele>
        <time>2020-05-14T15:26:15Z</time>
      </trkpt>
      <trkpt lat="43.63248" lon="7.08647">
        <ele>131.99755859375</ele>
        <time>2020-05-14T15:26:16Z</time>
      </trkpt>
      <trkpt lat="43.63246" lon="7.0865">
        <ele>132.17565917969</ele>
        <time>2020-05-14T15:26:17Z</time>
      </trkpt>
      <trkpt lat="43.63244" lon="7.08652">
        <ele>132.39074707031</ele>
        <time>2020-05-14T15:26:18Z</time>
      </trkpt>
      <trkpt lat="43.63242" lon="7.08654">
        <ele>132.48529052734</ele>
        <time>2020-05-14T15:26:19Z</time>
      </trkpt>
      <trkpt lat="43.6324" lon="7.08657">
        <ele>132.62878417969</ele>
        <time>2020-05-14T15:26:20Z</time>
      </trkpt>
      <trkpt lat="43.63239" lon="7.0866">
        <ele>132.63012695312</ele>
        <time>2020-05-14T15:26:21Z</time>
      </trkpt>
      <trkpt lat="43.63238" lon="7.08663">
        <ele>132.85748291016</ele>
        <time>2020-05-14T15:26:22Z</time>
      </trkpt>
      <trkpt lat="43.63236" lon="7.08665">
        <ele>133.037109375</ele>
        <time>2020-05-14T15:26:23Z</time>
      </trkpt>
      <trkpt lat="43.63235" lon="7.08668">
        <ele>133.02490234375</ele>
        <time>2020-05-14T15:26:24Z</time>
      </trkpt>
      <trkpt lat="43.63233" lon="7.08671">
        <ele>132.9619140625</ele>
        <time>2020-05-14T15:26:25Z</time>
      </trkpt>
      <trkpt lat="43.63232" lon="7.08674">
        <ele>132.80523681641</ele>
        <time>2020-05-14T15:26:26Z</time>
      </trkpt>
      <trkpt lat="43.63231" lon="7.08677">
        <ele>132.88464355469</ele>
        <time>2020-05-14T15:26:27Z</time>
      </trkpt>
      <trkpt lat="43.6323" lon="7.0868">
        <ele>133.01837158203</ele>
        <time>2020-05-14T15:26:28Z</time>
      </trkpt>
      <trkpt lat="43.63229" lon="7.08683">
        <ele>132.87860107422</ele>
        <time>2020-05-14T15:26:29Z</time>
      </trkpt>
      <trkpt lat="43.63227" lon="7.08687">
        <ele>132.93273925781</ele>
        <time>2020-05-14T15:26:30Z</time>
      </trkpt>
      <trkpt lat="43.63226" lon="7.0869">
        <ele>132.98248291016</ele>
        <time>2020-05-14T15:26:31Z</time>
      </trkpt>
      <trkpt lat="43.63225" lon="7.08693">
        <ele>133.06115722656</ele>
        <time>2020-05-14T15:26:32Z</time>
      </trkpt>
      <trkpt lat="43.63223" lon="7.08695">
        <ele>132.96264648438</ele>
        <time>2020-05-14T15:26:33Z</time>
      </trkpt>
      <trkpt lat="43.63222" lon="7.08698">
        <ele>133.08618164062</ele>
        <time>2020-05-14T15:26:34Z</time>
      </trkpt>
      <trkpt lat="43.63221" lon="7.08701">
        <ele>133.23968505859</ele>
        <time>2020-05-14T15:26:35Z</time>
      </trkpt>
      <trkpt lat="43.63219" lon="7.08705">
        <ele>133.28466796875</ele>
        <time>2020-05-14T15:26:36Z</time>
      </trkpt>
      <trkpt lat="43.63218" lon="7.08708">
        <ele>133.39288330078</ele>
        <time>2020-05-14T15:26:37Z</time>
      </trkpt>
      <trkpt lat="43.63217" lon="7.08711">
        <ele>133.52282714844</ele>
        <time>2020-05-14T15:26:38Z</time>
      </trkpt>
      <trkpt lat="43.63216" lon="7.08714">
        <ele>133.69738769531</ele>
        <time>2020-05-14T15:26:39Z</time>
      </trkpt>
      <trkpt lat="43.63214" lon="7.08717">
        <ele>133.79583740234</ele>
        <time>2020-05-14T15:26:40Z</time>
      </trkpt>
      <trkpt lat="43.63213" lon="7.0872">
        <ele>133.86700439453</ele>
        <time>2020-05-14T15:26:41Z</time>
      </trkpt>
      <trkpt lat="43.63212" lon="7.08723">
        <ele>133.78869628906</ele>
        <time>2020-05-14T15:26:42Z</time>
      </trkpt>
      <trkpt lat="43.63211" lon="7.08727">
        <ele>133.70434570312</ele>
        <time>2020-05-14T15:26:43Z</time>
      </trkpt>
      <trkpt lat="43.6321" lon="7.0873">
        <ele>133.60192871094</ele>
        <time>2020-05-14T15:26:44Z</time>
      </trkpt>
      <trkpt lat="43.63209" lon="7.08734">
        <ele>133.66076660156</ele>
        <time>2020-05-14T15:26:45Z</time>
      </trkpt>
      <trkpt lat="43.63208" lon="7.08737">
        <ele>133.82342529297</ele>
        <time>2020-05-14T15:26:46Z</time>
      </trkpt>
      <trkpt lat="43.63206" lon="7.0874">
        <ele>133.99450683594</ele>
        <time>2020-05-14T15:26:47Z</time>
      </trkpt>
      <trkpt lat="43.63205" lon="7.08743">
        <ele>134.14465332031</ele>
        <time>2020-05-14T15:26:48Z</time>
      </trkpt>
      <trkpt lat="43.63204" lon="7.08746">
        <ele>134.16735839844</ele>
        <time>2020-05-14T15:26:49Z</time>
      </trkpt>
      <trkpt lat="43.63202" lon="7.08749">
        <ele>134.27038574219</ele>
        <time>2020-05-14T15:26:50Z</time>
      </trkpt>
      <trkpt lat="43.63201" lon="7.08752">
        <ele>134.20867919922</ele>
        <time>2020-05-14T15:26:51Z</time>
      </trkpt>
      <trkpt lat="43.632" lon="7.08755">
        <ele>134.40344238281</ele>
        <time>2020-05-14T15:26:52Z</time>
      </trkpt>
      <trkpt lat="43.63198" lon="7.08759">
        <ele>134.43481445312</ele>
        <time>2020-05-14T15:26:53Z</time>
      </trkpt>
      <trkpt lat="43.63197" lon="7.08762">
        <ele>134.48382568359</ele>
        <time>2020-05-14T15:26:54Z</time>
      </trkpt>
      <trkpt lat="43.63196" lon="7.08765">
        <ele>135.11486816406</ele>
        <time>2020-05-14T15:26:55Z</time>
      </trkpt>
      <trkpt lat="43.63195" lon="7.08768">
        <ele>135.36627197266</ele>
        <time>2020-05-14T15:26:56Z</time>
      </trkpt>
      <trkpt lat="43.63194" lon="7.0877">
        <ele>135.20892333984</ele>
        <time>2020-05-14T15:26:57Z</time>
      </trkpt>
      <trkpt lat="43.63192" lon="7.08774">
        <ele>135.47784423828</ele>
        <time>2020-05-14T15:26:58Z</time>
      </trkpt>
      <trkpt lat="43.63191" lon="7.08777">
        <ele>135.67352294922</ele>
        <time>2020-05-14T15:26:59Z</time>
      </trkpt>
      <trkpt lat="43.6319" lon="7.0878">
        <ele>135.83837890625</ele>
        <time>2020-05-14T15:27:00Z</time>
      </trkpt>
      <trkpt lat="43.63188" lon="7.08783">
        <ele>135.53051757812</ele>
        <time>2020-05-14T15:27:01Z</time>
      </trkpt>
      <trkpt lat="43.63186" lon="7.08786">
        <ele>135.65252685547</ele>
        <time>2020-05-14T15:27:02Z</time>
      </trkpt>
      <trkpt lat="43.63185" lon="7.08789">
        <ele>135.74450683594</ele>
        <time>2020-05-14T15:27:03Z</time>
      </trkpt>
      <trkpt lat="43.63184" lon="7.08793">
        <ele>135.69305419922</ele>
        <time>2020-05-14T15:27:04Z</time>
      </trkpt>
      <trkpt lat="43.63183" lon="7.08796">
        <ele>135.93469238281</ele>
        <time>2020-05-14T15:27:05Z</time>
      </trkpt>
      <trkpt lat="43.63182" lon="7.08799">
        <ele>135.91833496094</ele>
        <time>2020-05-14T15:27:06Z</time>
      </trkpt>
      <trkpt lat="43.63181" lon="7.08803">
        <ele>136.08471679688</ele>
        <time>2020-05-14T15:27:07Z</time>
      </trkpt>
      <trkpt lat="43.6318" lon="7.08806">
        <ele>135.94702148438</ele>
        <time>2020-05-14T15:27:08Z</time>
      </trkpt>
      <trkpt lat="43.63179" lon="7.0881">
        <ele>136.06750488281</ele>
        <time>2020-05-14T15:27:09Z</time>
      </trkpt>
      <trkpt lat="43.63179" lon="7.08814">
        <ele>136.16363525391</ele>
        <time>2020-05-14T15:27:10Z</time>
      </trkpt>
      <trkpt lat="43.63178" lon="7.08817">
        <ele>136.21313476562</ele>
        <time>2020-05-14T15:27:11Z</time>
      </trkpt>
      <trkpt lat="43.63177" lon="7.08821">
        <ele>136.23852539062</ele>
        <time>2020-05-14T15:27:12Z</time>
      </trkpt>
      <trkpt lat="43.63177" lon="7.08824">
        <ele>136.37384033203</ele>
        <time>2020-05-14T15:27:13Z</time>
      </trkpt>
      <trkpt lat="43.63177" lon="7.08828">
        <ele>136.21514892578</ele>
        <time>2020-05-14T15:27:14Z</time>
      </trkpt>
      <trkpt lat="43.63177" lon="7.08831">
        <ele>136.12255859375</ele>
        <time>2020-05-14T15:27:15Z</time>
      </trkpt>
      <trkpt lat="43.63177" lon="7.08835">
        <ele>136.18341064453</ele>
        <time>2020-05-14T15:27:16Z</time>
      </trkpt>
      <trkpt lat="43.63177" lon="7.08838">
        <ele>135.9462890625</ele>
        <time>2020-05-14T15:27:17Z</time>
      </trkpt>
      <trkpt lat="43.63177" lon="7.08842">
        <ele>136.12805175781</ele>
        <time>2020-05-14T15:27:18Z</time>
      </trkpt>
      <trkpt lat="43.63177" lon="7.08846">
        <ele>136.09387207031</ele>
        <time>2020-05-14T15:27:19Z</time>
      </trkpt>
      <trkpt lat="43.63177" lon="7.08849">
        <ele>136.11877441406</ele>
        <time>2020-05-14T15:27:20Z</time>
      </trkpt>
      <trkpt lat="43.63178" lon="7.08853">
        <ele>136.158203125</ele>
        <time>2020-05-14T15:27:21Z</time>
      </trkpt>
      <trkpt lat="43.63178" lon="7.08857">
        <ele>136.02276611328</ele>
        <time>2020-05-14T15:27:22Z</time>
      </trkpt>
      <trkpt lat="43.63179" lon="7.08862">
        <ele>135.88708496094</ele>
        <time>2020-05-14T15:27:23Z</time>
      </trkpt>
      <trkpt lat="43.6318" lon="7.08867">
        <ele>136.05059814453</ele>
        <time>2020-05-14T15:27:24Z</time>
      </trkpt>
      <trkpt lat="43.63181" lon="7.08872">
        <ele>135.94702148438</ele>
        <time>2020-05-14T15:27:25Z</time>
      </trkpt>
      <trkpt lat="43.63181" lon="7.08878">
        <ele>135.67028808594</ele>
        <time>2020-05-14T15:27:26Z</time>
      </trkpt>
      <trkpt lat="43.63182" lon="7.08884">
        <ele>135.63079833984</ele>
        <time>2020-05-14T15:27:27Z</time>
      </trkpt>
      <trkpt lat="43.63183" lon="7.0889">
        <ele>135.51971435547</ele>
        <time>2020-05-14T15:27:28Z</time>
      </trkpt>
      <trkpt lat="43.63184" lon="7.08897">
        <ele>135.33752441406</ele>
        <time>2020-05-14T15:27:29Z</time>
      </trkpt>
      <trkpt lat="43.63185" lon="7.08904">
        <ele>135.09716796875</ele>
        <time>2020-05-14T15:27:30Z</time>
      </trkpt>
      <trkpt lat="43.63186" lon="7.08911">
        <ele>134.93560791016</ele>
        <time>2020-05-14T15:27:31Z</time>
      </trkpt>
      <trkpt lat="43.63187" lon="7.08918">
        <ele>134.583984375</ele>
        <time>2020-05-14T15:27:32Z</time>
      </trkpt>
      <trkpt lat="43.63188" lon="7.08926">
        <ele>134.33483886719</ele>
        <time>2020-05-14T15:27:33Z</time>
      </trkpt>
      <trkpt lat="43.63189" lon="7.08933">
        <ele>134.00061035156</ele>
        <time>2020-05-14T15:27:34Z</time>
      </trkpt>
      <trkpt lat="43.6319" lon="7.08941">
        <ele>133.86254882812</ele>
        <time>2020-05-14T15:27:35Z</time>
      </trkpt>
      <trkpt lat="43.63191" lon="7.08949">
        <ele>133.66967773438</ele>
        <time>2020-05-14T15:27:36Z</time>
      </trkpt>
      <trkpt lat="43.63192" lon="7.08956">
        <ele>133.52880859375</ele>
        <time>2020-05-14T15:27:37Z</time>
      </trkpt>
      <trkpt lat="43.63193" lon="7.08964">
        <ele>132.98278808594</ele>
        <time>2020-05-14T15:27:38Z</time>
      </trkpt>
      <trkpt lat="43.63194" lon="7.08972">
        <ele>132.83703613281</ele>
        <time>2020-05-14T15:27:39Z</time>
      </trkpt>
      <trkpt lat="43.63195" lon="7.0898">
        <ele>132.65612792969</ele>
        <time>2020-05-14T15:27:40Z</time>
      </trkpt>
      <trkpt lat="43.63196" lon="7.08988">
        <ele>132.45697021484</ele>
        <time>2020-05-14T15:27:41Z</time>
      </trkpt>
      <trkpt lat="43.63195" lon="7.08997">
        <ele>132.3349609375</ele>
        <time>2020-05-14T15:27:42Z</time>
      </trkpt>
      <trkpt lat="43.63195" lon="7.09005">
        <ele>132.16418457031</ele>
        <time>2020-05-14T15:27:43Z</time>
      </trkpt>
      <trkpt lat="43.63195" lon="7.09013">
        <ele>132.28332519531</ele>
        <time>2020-05-14T15:27:44Z</time>
      </trkpt>
      <trkpt lat="43.63194" lon="7.09021">
        <ele>132.33984375</ele>
        <time>2020-05-14T15:27:45Z</time>
      </trkpt>
      <trkpt lat="43.63192" lon="7.09028">
        <ele>132.42761230469</ele>
        <time>2020-05-14T15:27:46Z</time>
      </trkpt>
      <trkpt lat="43.63191" lon="7.09034">
        <ele>132.71374511719</ele>
        <time>2020-05-14T15:27:47Z</time>
      </trkpt>
      <trkpt lat="43.63189" lon="7.0904">
        <ele>132.90557861328</ele>
        <time>2020-05-14T15:27:48Z</time>
      </trkpt>
      <trkpt lat="43.63188" lon="7.09045">
        <ele>133.13928222656</ele>
        <time>2020-05-14T15:27:49Z</time>
      </trkpt>
      <trkpt lat="43.63186" lon="7.0905">
        <ele>133.39196777344</ele>
        <time>2020-05-14T15:27:50Z</time>
      </trkpt>
      <trkpt lat="43.63185" lon="7.09055">
        <ele>133.61322021484</ele>
        <time>2020-05-14T15:27:51Z</time>
      </trkpt>
      <trkpt lat="43.63184" lon="7.0906">
        <ele>133.69403076172</ele>
        <time>2020-05-14T15:27:52Z</time>
      </trkpt>
      <trkpt lat="43.63182" lon="7.09064">
        <ele>133.80670166016</ele>
        <time>2020-05-14T15:27:53Z</time>
      </trkpt>
      <trkpt lat="43.63181" lon="7.09069">
        <ele>133.83551025391</ele>
        <time>2020-05-14T15:27:54Z</time>
      </trkpt>
      <trkpt lat="43.6318" lon="7.09073">
        <ele>134.88061523438</ele>
        <time>2020-05-14T15:27:55Z</time>
      </trkpt>
      <trkpt lat="43.63179" lon="7.09077">
        <ele>134.83813476562</ele>
        <time>2020-05-14T15:27:56Z</time>
      </trkpt>
      <trkpt lat="43.63177" lon="7.09081">
        <ele>135.0927734375</ele>
        <time>2020-05-14T15:27:57Z</time>
      </trkpt>
      <trkpt lat="43.63176" lon="7.09085">
        <ele>135.16613769531</ele>
        <time>2020-05-14T15:27:58Z</time>
      </trkpt>
      <trkpt lat="43.63174" lon="7.09089">
        <ele>135.15014648438</ele>
        <time>2020-05-14T15:27:59Z</time>
      </trkpt>
      <trkpt lat="43.63172" lon="7.09093">
        <ele>135.33801269531</ele>
        <time>2020-05-14T15:28:00Z</time>
      </trkpt>
      <trkpt lat="43.6317" lon="7.09097">
        <ele>135.64044189453</ele>
        <time>2020-05-14T15:28:01Z</time>
      </trkpt>
      <trkpt lat="43.63168" lon="7.09101">
        <ele>135.91796875</ele>
        <time>2020-05-14T15:28:02Z</time>
      </trkpt>
      <trkpt lat="43.63166" lon="7.09105">
        <ele>136.38928222656</ele>
        <time>2020-05-14T15:28:03Z</time>
      </trkpt>
      <trkpt lat="43.63164" lon="7.09108">
        <ele>136.64520263672</ele>
        <time>2020-05-14T15:28:04Z</time>
      </trkpt>
      <trkpt lat="43.63161" lon="7.09111">
        <ele>136.83837890625</ele>
        <time>2020-05-14T15:28:05Z</time>
      </trkpt>
      <trkpt lat="43.63158" lon="7.09114">
        <ele>137.15283203125</ele>
        <time>2020-05-14T15:28:06Z</time>
      </trkpt>
      <trkpt lat="43.63156" lon="7.09116">
        <ele>137.14770507812</ele>
        <time>2020-05-14T15:28:07Z</time>
      </trkpt>
      <trkpt lat="43.63154" lon="7.09118">
        <ele>138.11450195312</ele>
        <time>2020-05-14T15:28:08Z</time>
      </trkpt>
      <trkpt lat="43.63151" lon="7.09119">
        <ele>138.67803955078</ele>
        <time>2020-05-14T15:28:09Z</time>
      </trkpt>
      <trkpt lat="43.63148" lon="7.0912">
        <ele>138.16510009766</ele>
        <time>2020-05-14T15:28:10Z</time>
      </trkpt>
      <trkpt lat="43.63145" lon="7.09121">
        <ele>139.04187011719</ele>
        <time>2020-05-14T15:28:11Z</time>
      </trkpt>
      <trkpt lat="43.63142" lon="7.09123">
        <ele>138.95062255859</ele>
        <time>2020-05-14T15:28:12Z</time>
      </trkpt>
      <trkpt lat="43.63139" lon="7.09125">
        <ele>139.32202148438</ele>
        <time>2020-05-14T15:28:13Z</time>
      </trkpt>
      <trkpt lat="43.63136" lon="7.09126">
        <ele>139.45220947266</ele>
        <time>2020-05-14T15:28:14Z</time>
      </trkpt>
      <trkpt lat="43.63134" lon="7.09128">
        <ele>139.48205566406</ele>
        <time>2020-05-14T15:28:15Z</time>
      </trkpt>
      <trkpt lat="43.63131" lon="7.09129">
        <ele>139.86755371094</ele>
        <time>2020-05-14T15:28:16Z</time>
      </trkpt>
      <trkpt lat="43.63128" lon="7.0913">
        <ele>140.06707763672</ele>
        <time>2020-05-14T15:28:17Z</time>
      </trkpt>
      <trkpt lat="43.63125" lon="7.09132">
        <ele>140.31805419922</ele>
        <time>2020-05-14T15:28:18Z</time>
      </trkpt>
      <trkpt lat="43.63122" lon="7.09133">
        <ele>140.27581787109</ele>
        <time>2020-05-14T15:28:19Z</time>
      </trkpt>
      <trkpt lat="43.63119" lon="7.09135">
        <ele>140.52075195312</ele>
        <time>2020-05-14T15:28:20Z</time>
      </trkpt>
      <trkpt lat="43.63117" lon="7.09136">
        <ele>140.8369140625</ele>
        <time>2020-05-14T15:28:21Z</time>
      </trkpt>
      <trkpt lat="43.63114" lon="7.09137">
        <ele>141.09991455078</ele>
        <time>2020-05-14T15:28:22Z</time>
      </trkpt>
      <trkpt lat="43.63112" lon="7.09139">
        <ele>141.47735595703</ele>
        <time>2020-05-14T15:28:23Z</time>
      </trkpt>
      <trkpt lat="43.63109" lon="7.0914">
        <ele>141.46929931641</ele>
        <time>2020-05-14T15:28:24Z</time>
      </trkpt>
      <trkpt lat="43.63107" lon="7.09141">
        <ele>142.15576171875</ele>
        <time>2020-05-14T15:28:25Z</time>
      </trkpt>
      <trkpt lat="43.63105" lon="7.09142">
        <ele>142.46069335938</ele>
        <time>2020-05-14T15:28:26Z</time>
      </trkpt>
      <trkpt lat="43.63102" lon="7.09144">
        <ele>142.30908203125</ele>
        <time>2020-05-14T15:28:27Z</time>
      </trkpt>
      <trkpt lat="43.631" lon="7.09147">
        <ele>142.51477050781</ele>
        <time>2020-05-14T15:28:28Z</time>
      </trkpt>
      <trkpt lat="43.63098" lon="7.0915">
        <ele>142.84338378906</ele>
        <time>2020-05-14T15:28:29Z</time>
      </trkpt>
      <trkpt lat="43.63095" lon="7.09153">
        <ele>142.99865722656</ele>
        <time>2020-05-14T15:28:30Z</time>
      </trkpt>
      <trkpt lat="43.63093" lon="7.09155">
        <ele>142.90325927734</ele>
        <time>2020-05-14T15:28:31Z</time>
      </trkpt>
      <trkpt lat="43.6309" lon="7.09158">
        <ele>143.03747558594</ele>
        <time>2020-05-14T15:28:32Z</time>
      </trkpt>
      <trkpt lat="43.63088" lon="7.0916">
        <ele>143.23822021484</ele>
        <time>2020-05-14T15:28:33Z</time>
      </trkpt>
      <trkpt lat="43.63085" lon="7.09163">
        <ele>142.63439941406</ele>
        <time>2020-05-14T15:28:34Z</time>
      </trkpt>
      <trkpt lat="43.63083" lon="7.09165">
        <ele>142.30340576172</ele>
        <time>2020-05-14T15:28:35Z</time>
      </trkpt>
      <trkpt lat="43.6308" lon="7.09168">
        <ele>141.54132080078</ele>
        <time>2020-05-14T15:28:36Z</time>
      </trkpt>
      <trkpt lat="43.63077" lon="7.0917">
        <ele>141.33679199219</ele>
        <time>2020-05-14T15:28:37Z</time>
      </trkpt>
      <trkpt lat="43.63074" lon="7.09172">
        <ele>141.36401367188</ele>
        <time>2020-05-14T15:28:38Z</time>
      </trkpt>
      <trkpt lat="43.63072" lon="7.09173">
        <ele>139.67034912109</ele>
        <time>2020-05-14T15:28:39Z</time>
      </trkpt>
      <trkpt lat="43.63069" lon="7.09176">
        <ele>139.14758300781</ele>
        <time>2020-05-14T15:28:40Z</time>
      </trkpt>
      <trkpt lat="43.63067" lon="7.09178">
        <ele>138.28015136719</ele>
        <time>2020-05-14T15:28:41Z</time>
      </trkpt>
      <trkpt lat="43.63065" lon="7.09181">
        <ele>139.07696533203</ele>
        <time>2020-05-14T15:28:42Z</time>
      </trkpt>
      <trkpt lat="43.63063" lon="7.09183">
        <ele>140.060546875</ele>
        <time>2020-05-14T15:28:43Z</time>
      </trkpt>
      <trkpt lat="43.63061" lon="7.09186">
        <ele>141.01153564453</ele>
        <time>2020-05-14T15:28:44Z</time>
      </trkpt>
      <trkpt lat="43.63059" lon="7.09189">
        <ele>141.51135253906</ele>
        <time>2020-05-14T15:28:45Z</time>
      </trkpt>
      <trkpt lat="43.63057" lon="7.09192">
        <ele>141.45831298828</ele>
        <time>2020-05-14T15:28:46Z</time>
      </trkpt>
      <trkpt lat="43.63055" lon="7.09195">
        <ele>139.00268554688</ele>
        <time>2020-05-14T15:28:47Z</time>
      </trkpt>
      <trkpt lat="43.63053" lon="7.09199">
        <ele>139.15991210938</ele>
        <time>2020-05-14T15:28:48Z</time>
      </trkpt>
      <trkpt lat="43.63051" lon="7.09203">
        <ele>139.87145996094</ele>
        <time>2020-05-14T15:28:49Z</time>
      </trkpt>
      <trkpt lat="43.63049" lon="7.09208">
        <ele>139.00109863281</ele>
        <time>2020-05-14T15:28:50Z</time>
      </trkpt>
      <trkpt lat="43.63048" lon="7.09214">
        <ele>138.88610839844</ele>
        <time>2020-05-14T15:28:51Z</time>
      </trkpt>
      <trkpt lat="43.63047" lon="7.09223">
        <ele>139.00817871094</ele>
        <time>2020-05-14T15:28:52Z</time>
      </trkpt>
      <trkpt lat="43.63046" lon="7.0923">
        <ele>142.65185546875</ele>
        <time>2020-05-14T15:28:53Z</time>
      </trkpt>
      <trkpt lat="43.63044" lon="7.09238">
        <ele>143.18664550781</ele>
        <time>2020-05-14T15:28:54Z</time>
      </trkpt>
      <trkpt lat="43.63042" lon="7.09246">
        <ele>142.94805908203</ele>
        <time>2020-05-14T15:28:55Z</time>
      </trkpt>
      <trkpt lat="43.6304" lon="7.09255">
        <ele>142.42797851562</ele>
        <time>2020-05-14T15:28:56Z</time>
      </trkpt>
      <trkpt lat="43.6304" lon="7.09265">
        <ele>141.78344726562</ele>
        <time>2020-05-14T15:28:57Z</time>
      </trkpt>
      <trkpt lat="43.63038" lon="7.09273">
        <ele>141.45373535156</ele>
        <time>2020-05-14T15:28:58Z</time>
      </trkpt>
      <trkpt lat="43.63036" lon="7.0928">
        <ele>140.69287109375</ele>
        <time>2020-05-14T15:28:59Z</time>
      </trkpt>
      <trkpt lat="43.63033" lon="7.09288">
        <ele>140.47338867188</ele>
        <time>2020-05-14T15:29:00Z</time>
      </trkpt>
      <trkpt lat="43.63031" lon="7.09297">
        <ele>139.99224853516</ele>
        <time>2020-05-14T15:29:01Z</time>
      </trkpt>
      <trkpt lat="43.63028" lon="7.09306">
        <ele>139.55108642578</ele>
        <time>2020-05-14T15:29:02Z</time>
      </trkpt>
      <trkpt lat="43.63024" lon="7.09313">
        <ele>139.44519042969</ele>
        <time>2020-05-14T15:29:03Z</time>
      </trkpt>
      <trkpt lat="43.63021" lon="7.09318">
        <ele>139.09362792969</ele>
        <time>2020-05-14T15:29:04Z</time>
      </trkpt>
      <trkpt lat="43.63019" lon="7.09323">
        <ele>138.72705078125</ele>
        <time>2020-05-14T15:29:05Z</time>
      </trkpt>
      <trkpt lat="43.63016" lon="7.09327">
        <ele>138.83013916016</ele>
        <time>2020-05-14T15:29:06Z</time>
      </trkpt>
      <trkpt lat="43.63012" lon="7.09331">
        <ele>137.99603271484</ele>
        <time>2020-05-14T15:29:07Z</time>
      </trkpt>
      <trkpt lat="43.63007" lon="7.09335">
        <ele>137.64636230469</ele>
        <time>2020-05-14T15:29:08Z</time>
      </trkpt>
      <trkpt lat="43.63002" lon="7.09339">
        <ele>137.1015625</ele>
        <time>2020-05-14T15:29:09Z</time>
      </trkpt>
      <trkpt lat="43.62997" lon="7.09344">
        <ele>136.87414550781</ele>
        <time>2020-05-14T15:29:10Z</time>
      </trkpt>
      <trkpt lat="43.62992" lon="7.0935">
        <ele>136.66247558594</ele>
        <time>2020-05-14T15:29:11Z</time>
      </trkpt>
      <trkpt lat="43.62987" lon="7.09357">
        <ele>136.13549804688</ele>
        <time>2020-05-14T15:29:12Z</time>
      </trkpt>
      <trkpt lat="43.62982" lon="7.09366">
        <ele>135.72241210938</ele>
        <time>2020-05-14T15:29:13Z</time>
      </trkpt>
      <trkpt lat="43.62976" lon="7.09374">
        <ele>135.11187744141</ele>
        <time>2020-05-14T15:29:14Z</time>
      </trkpt>
      <trkpt lat="43.6297" lon="7.09382">
        <ele>134.55407714844</ele>
        <time>2020-05-14T15:29:15Z</time>
      </trkpt>
      <trkpt lat="43.62963" lon="7.09389">
        <ele>134.28521728516</ele>
        <time>2020-05-14T15:29:16Z</time>
      </trkpt>
      <trkpt lat="43.62957" lon="7.09394">
        <ele>134.08129882812</ele>
        <time>2020-05-14T15:29:17Z</time>
      </trkpt>
      <trkpt lat="43.6295" lon="7.094">
        <ele>133.93817138672</ele>
        <time>2020-05-14T15:29:18Z</time>
      </trkpt>
      <trkpt lat="43.62943" lon="7.09406">
        <ele>133.30529785156</ele>
        <time>2020-05-14T15:29:19Z</time>
      </trkpt>
      <trkpt lat="43.62937" lon="7.09413">
        <ele>133.53588867188</ele>
        <time>2020-05-14T15:29:20Z</time>
      </trkpt>
      <trkpt lat="43.62932" lon="7.0942">
        <ele>133.40222167969</ele>
        <time>2020-05-14T15:29:21Z</time>
      </trkpt>
      <trkpt lat="43.62927" lon="7.09428">
        <ele>132.90960693359</ele>
        <time>2020-05-14T15:29:22Z</time>
      </trkpt>
      <trkpt lat="43.62922" lon="7.09435">
        <ele>124.71276855469</ele>
        <time>2020-05-14T15:29:23Z</time>
      </trkpt>
      <trkpt lat="43.62917" lon="7.09443">
        <ele>125.95202636719</ele>
        <time>2020-05-14T15:29:24Z</time>
      </trkpt>
      <trkpt lat="43.62913" lon="7.09453">
        <ele>125.42938232422</ele>
        <time>2020-05-14T15:29:25Z</time>
      </trkpt>
      <trkpt lat="43.62907" lon="7.09461">
        <ele>125.06372070312</ele>
        <time>2020-05-14T15:29:26Z</time>
      </trkpt>
      <trkpt lat="43.62903" lon="7.0947">
        <ele>125.03216552734</ele>
        <time>2020-05-14T15:29:27Z</time>
      </trkpt>
      <trkpt lat="43.62897" lon="7.0948">
        <ele>124.30548095703</ele>
        <time>2020-05-14T15:29:28Z</time>
      </trkpt>
      <trkpt lat="43.62891" lon="7.0949">
        <ele>123.87530517578</ele>
        <time>2020-05-14T15:29:29Z</time>
      </trkpt>
      <trkpt lat="43.62885" lon="7.095">
        <ele>123.24383544922</ele>
        <time>2020-05-14T15:29:30Z</time>
      </trkpt>
      <trkpt lat="43.6288" lon="7.0951">
        <ele>111.56072998047</ele>
        <time>2020-05-14T15:29:31Z</time>
      </trkpt>
      <trkpt lat="43.62874" lon="7.09518">
        <ele>113.44818115234</ele>
        <time>2020-05-14T15:29:32Z</time>
      </trkpt>
      <trkpt lat="43.6287" lon="7.09526">
        <ele>113.21459960938</ele>
        <time>2020-05-14T15:29:33Z</time>
      </trkpt>
      <trkpt lat="43.62866" lon="7.09534">
        <ele>113.02978515625</ele>
        <time>2020-05-14T15:29:34Z</time>
      </trkpt>
      <trkpt lat="43.62861" lon="7.09542">
        <ele>112.62182617188</ele>
        <time>2020-05-14T15:29:35Z</time>
      </trkpt>
      <trkpt lat="43.62857" lon="7.09551">
        <ele>111.74322509766</ele>
        <time>2020-05-14T15:29:36Z</time>
      </trkpt>
      <trkpt lat="43.62852" lon="7.09558">
        <ele>111.20086669922</ele>
        <time>2020-05-14T15:29:37Z</time>
      </trkpt>
      <trkpt lat="43.62847" lon="7.09566">
        <ele>110.31921386719</ele>
        <time>2020-05-14T15:29:38Z</time>
      </trkpt>
      <trkpt lat="43.62843" lon="7.09573">
        <ele>109.81695556641</ele>
        <time>2020-05-14T15:29:39Z</time>
      </trkpt>
      <trkpt lat="43.62839" lon="7.0958">
        <ele>109.28759765625</ele>
        <time>2020-05-14T15:29:40Z</time>
      </trkpt>
      <trkpt lat="43.62835" lon="7.09588">
        <ele>109.01495361328</ele>
        <time>2020-05-14T15:29:41Z</time>
      </trkpt>
      <trkpt lat="43.62831" lon="7.09596">
        <ele>108.86383056641</ele>
        <time>2020-05-14T15:29:42Z</time>
      </trkpt>
      <trkpt lat="43.62828" lon="7.09604">
        <ele>107.97064208984</ele>
        <time>2020-05-14T15:29:43Z</time>
      </trkpt>
      <trkpt lat="43.62824" lon="7.09612">
        <ele>107.73651123047</ele>
        <time>2020-05-14T15:29:44Z</time>
      </trkpt>
      <trkpt lat="43.62821" lon="7.0962">
        <ele>107.26824951172</ele>
        <time>2020-05-14T15:29:45Z</time>
      </trkpt>
      <trkpt lat="43.62819" lon="7.09628">
        <ele>106.74664306641</ele>
        <time>2020-05-14T15:29:46Z</time>
      </trkpt>
      <trkpt lat="43.62817" lon="7.09635">
        <ele>106.39282226562</ele>
        <time>2020-05-14T15:29:47Z</time>
      </trkpt>
      <trkpt lat="43.62814" lon="7.09643">
        <ele>106.25689697266</ele>
        <time>2020-05-14T15:29:48Z</time>
      </trkpt>
      <trkpt lat="43.62811" lon="7.09649">
        <ele>106.45068359375</ele>
        <time>2020-05-14T15:29:49Z</time>
      </trkpt>
      <trkpt lat="43.62807" lon="7.09654">
        <ele>106.21179199219</ele>
        <time>2020-05-14T15:29:50Z</time>
      </trkpt>
      <trkpt lat="43.62803" lon="7.09658">
        <ele>106.26684570312</ele>
        <time>2020-05-14T15:29:51Z</time>
      </trkpt>
      <trkpt lat="43.62796" lon="7.09653">
        <ele>106.30523681641</ele>
        <time>2020-05-14T15:29:52Z</time>
      </trkpt>
      <trkpt lat="43.62791" lon="7.0965">
        <ele>106.14392089844</ele>
        <time>2020-05-14T15:29:53Z</time>
      </trkpt>
      <trkpt lat="43.62788" lon="7.09643">
        <ele>105.35119628906</ele>
        <time>2020-05-14T15:29:54Z</time>
      </trkpt>
      <trkpt lat="43.62786" lon="7.09633">
        <ele>104.70104980469</ele>
        <time>2020-05-14T15:29:55Z</time>
      </trkpt>
      <trkpt lat="43.62787" lon="7.09624">
        <ele>104.31439208984</ele>
        <time>2020-05-14T15:29:56Z</time>
      </trkpt>
      <trkpt lat="43.62787" lon="7.09615">
        <ele>104.10284423828</ele>
        <time>2020-05-14T15:29:57Z</time>
      </trkpt>
      <trkpt lat="43.62786" lon="7.09606">
        <ele>103.59661865234</ele>
        <time>2020-05-14T15:29:58Z</time>
      </trkpt>
      <trkpt lat="43.62785" lon="7.09596">
        <ele>103.22387695312</ele>
        <time>2020-05-14T15:29:59Z</time>
      </trkpt>
      <trkpt lat="43.62785" lon="7.09587">
        <ele>103.21948242188</ele>
        <time>2020-05-14T15:30:00Z</time>
      </trkpt>
      <trkpt lat="43.62784" lon="7.09577">
        <ele>103.17254638672</ele>
        <time>2020-05-14T15:30:01Z</time>
      </trkpt>
      <trkpt lat="43.62784" lon="7.09567">
        <ele>102.54534912109</ele>
        <time>2020-05-14T15:30:02Z</time>
      </trkpt>
      <trkpt lat="43.62783" lon="7.09557">
        <ele>102.00756835938</ele>
        <time>2020-05-14T15:30:03Z</time>
      </trkpt>
      <trkpt lat="43.62783" lon="7.09547">
        <ele>101.80181884766</ele>
        <time>2020-05-14T15:30:04Z</time>
      </trkpt>
      <trkpt lat="43.62782" lon="7.09537">
        <ele>101.77075195312</ele>
        <time>2020-05-14T15:30:05Z</time>
      </trkpt>
      <trkpt lat="43.62781" lon="7.09527">
        <ele>95.517761230469</ele>
        <time>2020-05-14T15:30:06Z</time>
      </trkpt>
      <trkpt lat="43.6278" lon="7.09517">
        <ele>95.223266601562</ele>
        <time>2020-05-14T15:30:07Z</time>
      </trkpt>
      <trkpt lat="43.62779" lon="7.09506">
        <ele>94.760681152344</ele>
        <time>2020-05-14T15:30:08Z</time>
      </trkpt>
      <trkpt lat="43.62778" lon="7.09496">
        <ele>94.446350097656</ele>
        <time>2020-05-14T15:30:09Z</time>
      </trkpt>
      <trkpt lat="43.62777" lon="7.09485">
        <ele>94.160583496094</ele>
        <time>2020-05-14T15:30:10Z</time>
      </trkpt>
      <trkpt lat="43.62776" lon="7.09475">
        <ele>93.93896484375</ele>
        <time>2020-05-14T15:30:11Z</time>
      </trkpt>
      <trkpt lat="43.62775" lon="7.09464">
        <ele>93.35693359375</ele>
        <time>2020-05-14T15:30:12Z</time>
      </trkpt>
      <trkpt lat="43.62775" lon="7.09453">
        <ele>102.68823242188</ele>
        <time>2020-05-14T15:30:13Z</time>
      </trkpt>
      <trkpt lat="43.62777" lon="7.09442">
        <ele>103.67419433594</ele>
        <time>2020-05-14T15:30:14Z</time>
      </trkpt>
      <trkpt lat="43.62779" lon="7.09432">
        <ele>103.478515625</ele>
        <time>2020-05-14T15:30:15Z</time>
      </trkpt>
      <trkpt lat="43.62781" lon="7.09423">
        <ele>103.21447753906</ele>
        <time>2020-05-14T15:30:16Z</time>
      </trkpt>
      <trkpt lat="43.62784" lon="7.09413">
        <ele>103.13391113281</ele>
        <time>2020-05-14T15:30:17Z</time>
      </trkpt>
      <trkpt lat="43.62786" lon="7.09404">
        <ele>103.15032958984</ele>
        <time>2020-05-14T15:30:18Z</time>
      </trkpt>
      <trkpt lat="43.62789" lon="7.09395">
        <ele>102.97888183594</ele>
        <time>2020-05-14T15:30:19Z</time>
      </trkpt>
      <trkpt lat="43.62791" lon="7.09387">
        <ele>102.82873535156</ele>
        <time>2020-05-14T15:30:20Z</time>
      </trkpt>
      <trkpt lat="43.62794" lon="7.09379">
        <ele>102.51965332031</ele>
        <time>2020-05-14T15:30:21Z</time>
      </trkpt>
      <trkpt lat="43.62797" lon="7.0937">
        <ele>103.83825683594</ele>
        <time>2020-05-14T15:30:22Z</time>
      </trkpt>
      <trkpt lat="43.62799" lon="7.09363">
        <ele>104.01336669922</ele>
        <time>2020-05-14T15:30:23Z</time>
      </trkpt>
      <trkpt lat="43.62802" lon="7.09355">
        <ele>103.77661132812</ele>
        <time>2020-05-14T15:30:24Z</time>
      </trkpt>
      <trkpt lat="43.62806" lon="7.09347">
        <ele>103.72381591797</ele>
        <time>2020-05-14T15:30:25Z</time>
      </trkpt>
      <trkpt lat="43.62809" lon="7.09339">
        <ele>101.8017578125</ele>
        <time>2020-05-14T15:30:26Z</time>
      </trkpt>
      <trkpt lat="43.62811" lon="7.09332">
        <ele>101.95935058594</ele>
        <time>2020-05-14T15:30:27Z</time>
      </trkpt>
      <trkpt lat="43.62813" lon="7.09323">
        <ele>102.48083496094</ele>
        <time>2020-05-14T15:30:28Z</time>
      </trkpt>
      <trkpt lat="43.62816" lon="7.09314">
        <ele>102.54174804688</ele>
        <time>2020-05-14T15:30:29Z</time>
      </trkpt>
      <trkpt lat="43.62816" lon="7.09305">
        <ele>103.01983642578</ele>
        <time>2020-05-14T15:30:30Z</time>
      </trkpt>
      <trkpt lat="43.62816" lon="7.09295">
        <ele>102.7900390625</ele>
        <time>2020-05-14T15:30:31Z</time>
      </trkpt>
      <trkpt lat="43.62814" lon="7.09287">
        <ele>102.84564208984</ele>
        <time>2020-05-14T15:30:32Z</time>
      </trkpt>
      <trkpt lat="43.62808" lon="7.09281">
        <ele>101.68884277344</ele>
        <time>2020-05-14T15:30:33Z</time>
      </trkpt>
      <trkpt lat="43.62801" lon="7.09277">
        <ele>101.26293945312</ele>
        <time>2020-05-14T15:30:34Z</time>
      </trkpt>
      <trkpt lat="43.62796" lon="7.09274">
        <ele>100.15447998047</ele>
        <time>2020-05-14T15:30:35Z</time>
      </trkpt>
      <trkpt lat="43.62789" lon="7.0928">
        <ele>99.615478515625</ele>
        <time>2020-05-14T15:30:36Z</time>
      </trkpt>
      <trkpt lat="43.62785" lon="7.09289">
        <ele>99.328491210938</ele>
        <time>2020-05-14T15:30:37Z</time>
      </trkpt>
      <trkpt lat="43.62783" lon="7.09299">
        <ele>98.899658203125</ele>
        <time>2020-05-14T15:30:38Z</time>
      </trkpt>
      <trkpt lat="43.62783" lon="7.0931">
        <ele>98.312561035156</ele>
        <time>2020-05-14T15:30:39Z</time>
      </trkpt>
      <trkpt lat="43.62781" lon="7.09322">
        <ele>97.65673828125</ele>
        <time>2020-05-14T15:30:40Z</time>
      </trkpt>
      <trkpt lat="43.62778" lon="7.09333">
        <ele>97.456298828125</ele>
        <time>2020-05-14T15:30:41Z</time>
      </trkpt>
      <trkpt lat="43.62775" lon="7.09344">
        <ele>96.6064453125</ele>
        <time>2020-05-14T15:30:42Z</time>
      </trkpt>
      <trkpt lat="43.6277" lon="7.09355">
        <ele>95.919189453125</ele>
        <time>2020-05-14T15:30:43Z</time>
      </trkpt>
      <trkpt lat="43.62765" lon="7.09365">
        <ele>95.460021972656</ele>
        <time>2020-05-14T15:30:44Z</time>
      </trkpt>
      <trkpt lat="43.6276" lon="7.09375">
        <ele>95.2392578125</ele>
        <time>2020-05-14T15:30:45Z</time>
      </trkpt>
      <trkpt lat="43.62755" lon="7.09385">
        <ele>94.948974609375</ele>
        <time>2020-05-14T15:30:46Z</time>
      </trkpt>
      <trkpt lat="43.6275" lon="7.09395">
        <ele>94.532470703125</ele>
        <time>2020-05-14T15:30:47Z</time>
      </trkpt>
      <trkpt lat="43.62744" lon="7.09405">
        <ele>94.097106933594</ele>
        <time>2020-05-14T15:30:48Z</time>
      </trkpt>
      <trkpt lat="43.62738" lon="7.09416">
        <ele>94.099304199219</ele>
        <time>2020-05-14T15:30:49Z</time>
      </trkpt>
      <trkpt lat="43.62733" lon="7.09426">
        <ele>93.72314453125</ele>
        <time>2020-05-14T15:30:50Z</time>
      </trkpt>
      <trkpt lat="43.62728" lon="7.09437">
        <ele>93.343505859375</ele>
        <time>2020-05-14T15:30:51Z</time>
      </trkpt>
      <trkpt lat="43.62723" lon="7.09449">
        <ele>92.902893066406</ele>
        <time>2020-05-14T15:30:52Z</time>
      </trkpt>
      <trkpt lat="43.62719" lon="7.09461">
        <ele>92.459777832031</ele>
        <time>2020-05-14T15:30:53Z</time>
      </trkpt>
      <trkpt lat="43.62715" lon="7.09473">
        <ele>91.95703125</ele>
        <time>2020-05-14T15:30:54Z</time>
      </trkpt>
      <trkpt lat="43.62711" lon="7.09486">
        <ele>91.18798828125</ele>
        <time>2020-05-14T15:30:55Z</time>
      </trkpt>
      <trkpt lat="43.62708" lon="7.09499">
        <ele>90.669128417969</ele>
        <time>2020-05-14T15:30:56Z</time>
      </trkpt>
      <trkpt lat="43.62705" lon="7.09512">
        <ele>90.288269042969</ele>
        <time>2020-05-14T15:30:57Z</time>
      </trkpt>
      <trkpt lat="43.627" lon="7.09524">
        <ele>89.751708984375</ele>
        <time>2020-05-14T15:30:58Z</time>
      </trkpt>
      <trkpt lat="43.62693" lon="7.09535">
        <ele>89.393798828125</ele>
        <time>2020-05-14T15:30:59Z</time>
      </trkpt>
      <trkpt lat="43.62685" lon="7.09542">
        <ele>89.120788574219</ele>
        <time>2020-05-14T15:31:00Z</time>
      </trkpt>
      <trkpt lat="43.62676" lon="7.09546">
        <ele>88.601135253906</ele>
        <time>2020-05-14T15:31:01Z</time>
      </trkpt>
      <trkpt lat="43.62666" lon="7.09548">
        <ele>88.198486328125</ele>
        <time>2020-05-14T15:31:02Z</time>
      </trkpt>
      <trkpt lat="43.62657" lon="7.09552">
        <ele>88.100402832031</ele>
        <time>2020-05-14T15:31:03Z</time>
      </trkpt>
      <trkpt lat="43.62649" lon="7.09559">
        <ele>87.722229003906</ele>
        <time>2020-05-14T15:31:04Z</time>
      </trkpt>
      <trkpt lat="43.62641" lon="7.09565">
        <ele>87.370239257812</ele>
        <time>2020-05-14T15:31:05Z</time>
      </trkpt>
      <trkpt lat="43.62634" lon="7.09573">
        <ele>87.114868164062</ele>
        <time>2020-05-14T15:31:06Z</time>
      </trkpt>
      <trkpt lat="43.62628" lon="7.09584">
        <ele>86.549072265625</ele>
        <time>2020-05-14T15:31:07Z</time>
      </trkpt>
      <trkpt lat="43.62624" lon="7.09595">
        <ele>86.206237792969</ele>
        <time>2020-05-14T15:31:08Z</time>
      </trkpt>
      <trkpt lat="43.6262" lon="7.09606">
        <ele>85.807922363281</ele>
        <time>2020-05-14T15:31:09Z</time>
      </trkpt>
      <trkpt lat="43.62619" lon="7.09616">
        <ele>85.460510253906</ele>
        <time>2020-05-14T15:31:10Z</time>
      </trkpt>
      <trkpt lat="43.62618" lon="7.09625">
        <ele>85.104736328125</ele>
        <time>2020-05-14T15:31:11Z</time>
      </trkpt>
      <trkpt lat="43.62618" lon="7.09629">
        <ele>85.054138183594</ele>
        <time>2020-05-14T15:31:12Z</time>
      </trkpt>
      <trkpt lat="43.62618" lon="7.0963">
        <ele>84.679931640625</ele>
        <time>2020-05-14T15:31:13Z</time>
      </trkpt>
      <trkpt lat="43.62618" lon="7.09631">
        <ele>84.720458984375</ele>
        <time>2020-05-14T15:31:14Z</time>
      </trkpt>
      <trkpt lat="43.62618" lon="7.09631">
        <ele>84.404541015625</ele>
        <time>2020-05-14T15:31:15Z</time>
      </trkpt>
      <trkpt lat="43.62618" lon="7.09632">
        <ele>84.568542480469</ele>
        <time>2020-05-14T15:31:16Z</time>
      </trkpt>
      <trkpt lat="43.62618" lon="7.09633">
        <ele>84.294250488281</ele>
        <time>2020-05-14T15:31:17Z</time>
      </trkpt>
      <trkpt lat="43.62619" lon="7.09633">
        <ele>84.237854003906</ele>
        <time>2020-05-14T15:31:18Z</time>
      </trkpt>
      <trkpt lat="43.62619" lon="7.09633">
        <ele>84.242248535156</ele>
        <time>2020-05-14T15:31:19Z</time>
      </trkpt>
      <trkpt lat="43.62619" lon="7.09633">
        <ele>84.263793945312</ele>
        <time>2020-05-14T15:31:20Z</time>
      </trkpt>
      <trkpt lat="43.62619" lon="7.09633">
        <ele>84.452575683594</ele>
        <time>2020-05-14T15:31:21Z</time>
      </trkpt>
      <trkpt lat="43.62618" lon="7.09633">
        <ele>84.586791992188</ele>
        <time>2020-05-14T15:31:22Z</time>
      </trkpt>
      <trkpt lat="43.62618" lon="7.09633">
        <ele>84.556396484375</ele>
        <time>2020-05-14T15:31:23Z</time>
      </trkpt>
      <trkpt lat="43.62618" lon="7.09633">
        <ele>84.666137695312</ele>
        <time>2020-05-14T15:31:24Z</time>
      </trkpt>
      <trkpt lat="43.62618" lon="7.09633">
        <ele>84.678039550781</ele>
        <time>2020-05-14T15:31:25Z</time>
      </trkpt>
      <trkpt lat="43.62618" lon="7.09633">
        <ele>84.704528808594</ele>
        <time>2020-05-14T15:31:26Z</time>
      </trkpt>
      <trkpt lat="43.62618" lon="7.09633">
        <ele>84.729614257812</ele>
        <time>2020-05-14T15:31:27Z</time>
      </trkpt>
      <trkpt lat="43.62618" lon="7.09633">
        <ele>84.742370605469</ele>
        <time>2020-05-14T15:31:28Z</time>
      </trkpt>
      <trkpt lat="43.62618" lon="7.09633">
        <ele>84.742065429688</ele>
        <time>2020-05-14T15:31:29Z</time>
      </trkpt>
      <trkpt lat="43.62618" lon="7.09633">
        <ele>84.739624023438</ele>
        <time>2020-05-14T15:31:30Z</time>
      </trkpt>
      <trkpt lat="43.62618" lon="7.09633">
        <ele>84.738952636719</ele>
        <time>2020-05-14T15:31:31Z</time>
      </trkpt>
      <trkpt lat="43.62618" lon="7.09633">
        <ele>84.7373046875</ele>
        <time>2020-05-14T15:31:32Z</time>
      </trkpt>
      <trkpt lat="43.62618" lon="7.09633">
        <ele>84.740234375</ele>
        <time>2020-05-14T15:31:33Z</time>
      </trkpt>
      <trkpt lat="43.62618" lon="7.09633">
        <ele>84.739624023438</ele>
        <time>2020-05-14T15:31:34Z</time>
      </trkpt>
      <trkpt lat="43.62618" lon="7.09633">
        <ele>84.740539550781</ele>
        <time>2020-05-14T15:31:35Z</time>
      </trkpt>
      <trkpt lat="43.62618" lon="7.09633">
        <ele>84.736572265625</ele>
        <time>2020-05-14T15:31:36Z</time>
      </trkpt>
      <trkpt lat="43.62618" lon="7.09633">
        <ele>84.737670898438</ele>
        <time>2020-05-14T15:31:37Z</time>
      </trkpt>
      <trkpt lat="43.62618" lon="7.09633">
        <ele>84.738647460938</ele>
        <time>2020-05-14T15:31:38Z</time>
      </trkpt>
      <trkpt lat="43.62618" lon="7.09633">
        <ele>84.737670898438</ele>
        <time>2020-05-14T15:31:39Z</time>
      </trkpt>
      <trkpt lat="43.62618" lon="7.09633">
        <ele>84.736633300781</ele>
        <time>2020-05-14T15:31:40Z</time>
      </trkpt>
      <trkpt lat="43.62618" lon="7.09633">
        <ele>84.733703613281</ele>
        <time>2020-05-14T15:31:41Z</time>
      </trkpt>
      <trkpt lat="43.62618" lon="7.09633">
        <ele>84.730651855469</ele>
        <time>2020-05-14T15:31:42Z</time>
      </trkpt>
      <trkpt lat="43.62618" lon="7.09633">
        <ele>84.730407714844</ele>
        <time>2020-05-14T15:31:43Z</time>
      </trkpt>
      <trkpt lat="43.62618" lon="7.09633">
        <ele>84.729675292969</ele>
        <time>2020-05-14T15:31:44Z</time>
      </trkpt>
      <trkpt lat="43.62618" lon="7.09633">
        <ele>84.584350585938</ele>
        <time>2020-05-14T15:31:45Z</time>
      </trkpt>
      <trkpt lat="43.62618" lon="7.09633">
        <ele>84.582580566406</ele>
        <time>2020-05-14T15:31:46Z</time>
      </trkpt>
      <trkpt lat="43.62618" lon="7.09633">
        <ele>84.662048339844</ele>
        <time>2020-05-14T15:31:47Z</time>
      </trkpt>
      <trkpt lat="43.62618" lon="7.09632">
        <ele>84.555053710938</ele>
        <time>2020-05-14T15:31:48Z</time>
      </trkpt>
      <trkpt lat="43.62618" lon="7.09632">
        <ele>84.602661132812</ele>
        <time>2020-05-14T15:31:49Z</time>
      </trkpt>
      <trkpt lat="43.62619" lon="7.09632">
        <ele>84.503051757812</ele>
        <time>2020-05-14T15:31:50Z</time>
      </trkpt>
      <trkpt lat="43.62619" lon="7.09632">
        <ele>84.419494628906</ele>
        <time>2020-05-14T15:31:51Z</time>
      </trkpt>
      <trkpt lat="43.62619" lon="7.09632">
        <ele>84.410827636719</ele>
        <time>2020-05-14T15:31:52Z</time>
      </trkpt>
      <trkpt lat="43.62619" lon="7.09633">
        <ele>84.303344726562</ele>
        <time>2020-05-14T15:31:53Z</time>
      </trkpt>
      <trkpt lat="43.62619" lon="7.09633">
        <ele>85.392272949219</ele>
        <time>2020-05-14T15:31:54Z</time>
      </trkpt>
      <trkpt lat="43.62619" lon="7.09633">
        <ele>85.426025390625</ele>
        <time>2020-05-14T15:31:55Z</time>
      </trkpt>
      <trkpt lat="43.62619" lon="7.09633">
        <ele>85.411254882812</ele>
        <time>2020-05-14T15:31:56Z</time>
      </trkpt>
      <trkpt lat="43.62619" lon="7.09633">
        <ele>85.452026367188</ele>
        <time>2020-05-14T15:31:57Z</time>
      </trkpt>
      <trkpt lat="43.62618" lon="7.09633">
        <ele>85.529541015625</ele>
        <time>2020-05-14T15:31:58Z</time>
      </trkpt>
      <trkpt lat="43.62618" lon="7.09633">
        <ele>85.606689453125</ele>
        <time>2020-05-14T15:31:59Z</time>
      </trkpt>
      <trkpt lat="43.62618" lon="7.09634">
        <ele>86.279174804688</ele>
        <time>2020-05-14T15:32:00Z</time>
      </trkpt>
      <trkpt lat="43.62618" lon="7.09635">
        <ele>86.641418457031</ele>
        <time>2020-05-14T15:32:01Z</time>
      </trkpt>
      <trkpt lat="43.62617" lon="7.09639">
        <ele>87.120666503906</ele>
        <time>2020-05-14T15:32:02Z</time>
      </trkpt>
      <trkpt lat="43.62616" lon="7.09643">
        <ele>87.013916015625</ele>
        <time>2020-05-14T15:32:03Z</time>
      </trkpt>
      <trkpt lat="43.62617" lon="7.09649">
        <ele>87.739929199219</ele>
        <time>2020-05-14T15:32:04Z</time>
      </trkpt>
      <trkpt lat="43.62613" lon="7.09656">
        <ele>87.801818847656</ele>
        <time>2020-05-14T15:32:05Z</time>
      </trkpt>
      <trkpt lat="43.62609" lon="7.09661">
        <ele>86.602783203125</ele>
        <time>2020-05-14T15:32:06Z</time>
      </trkpt>
      <trkpt lat="43.62603" lon="7.09665">
        <ele>85.922912597656</ele>
        <time>2020-05-14T15:32:07Z</time>
      </trkpt>
      <trkpt lat="43.62595" lon="7.09668">
        <ele>85.777160644531</ele>
        <time>2020-05-14T15:32:08Z</time>
      </trkpt>
      <trkpt lat="43.62587" lon="7.09671">
        <ele>84.637817382812</ele>
        <time>2020-05-14T15:32:09Z</time>
      </trkpt>
      <trkpt lat="43.62579" lon="7.09673">
        <ele>84.346923828125</ele>
        <time>2020-05-14T15:32:10Z</time>
      </trkpt>
      <trkpt lat="43.62569" lon="7.09674">
        <ele>83.485656738281</ele>
        <time>2020-05-14T15:32:11Z</time>
      </trkpt>
      <trkpt lat="43.62558" lon="7.09677">
        <ele>83.426086425781</ele>
        <time>2020-05-14T15:32:12Z</time>
      </trkpt>
      <trkpt lat="43.62548" lon="7.09679">
        <ele>82.077453613281</ele>
        <time>2020-05-14T15:32:13Z</time>
      </trkpt>
      <trkpt lat="43.62538" lon="7.0968">
        <ele>80.6533203125</ele>
        <time>2020-05-14T15:32:14Z</time>
      </trkpt>
      <trkpt lat="43.62528" lon="7.09683">
        <ele>81.136474609375</ele>
        <time>2020-05-14T15:32:15Z</time>
      </trkpt>
      <trkpt lat="43.62518" lon="7.09687">
        <ele>80.94921875</ele>
        <time>2020-05-14T15:32:16Z</time>
      </trkpt>
      <trkpt lat="43.62508" lon="7.0969">
        <ele>81.672546386719</ele>
        <time>2020-05-14T15:32:17Z</time>
      </trkpt>
      <trkpt lat="43.62497" lon="7.09694">
        <ele>81.125366210938</ele>
        <time>2020-05-14T15:32:18Z</time>
      </trkpt>
      <trkpt lat="43.62488" lon="7.09697">
        <ele>80.88330078125</ele>
        <time>2020-05-14T15:32:19Z</time>
      </trkpt>
      <trkpt lat="43.62479" lon="7.09702">
        <ele>81.556640625</ele>
        <time>2020-05-14T15:32:20Z</time>
      </trkpt>
      <trkpt lat="43.6247" lon="7.09705">
        <ele>82.031372070312</ele>
        <time>2020-05-14T15:32:21Z</time>
      </trkpt>
      <trkpt lat="43.6246" lon="7.09708">
        <ele>80.832641601562</ele>
        <time>2020-05-14T15:32:22Z</time>
      </trkpt>
      <trkpt lat="43.62449" lon="7.09711">
        <ele>80.142333984375</ele>
        <time>2020-05-14T15:32:23Z</time>
      </trkpt>
      <trkpt lat="43.62438" lon="7.09716">
        <ele>79.022583007812</ele>
        <time>2020-05-14T15:32:24Z</time>
      </trkpt>
      <trkpt lat="43.62428" lon="7.0972">
        <ele>79.625122070312</ele>
        <time>2020-05-14T15:32:25Z</time>
      </trkpt>
      <trkpt lat="43.6242" lon="7.09726">
        <ele>79.759460449219</ele>
        <time>2020-05-14T15:32:26Z</time>
      </trkpt>
      <trkpt lat="43.62412" lon="7.09735">
        <ele>78.139343261719</ele>
        <time>2020-05-14T15:32:27Z</time>
      </trkpt>
      <trkpt lat="43.62405" lon="7.09745">
        <ele>77.799743652344</ele>
        <time>2020-05-14T15:32:28Z</time>
      </trkpt>
      <trkpt lat="43.624" lon="7.09755">
        <ele>79.275695800781</ele>
        <time>2020-05-14T15:32:29Z</time>
      </trkpt>
      <trkpt lat="43.62393" lon="7.09765">
        <ele>79.662475585938</ele>
        <time>2020-05-14T15:32:30Z</time>
      </trkpt>
      <trkpt lat="43.62388" lon="7.09774">
        <ele>80.060852050781</ele>
        <time>2020-05-14T15:32:31Z</time>
      </trkpt>
      <trkpt lat="43.62384" lon="7.09787">
        <ele>79.091430664062</ele>
        <time>2020-05-14T15:32:32Z</time>
      </trkpt>
      <trkpt lat="43.62379" lon="7.09796">
        <ele>78.165405273438</ele>
        <time>2020-05-14T15:32:33Z</time>
      </trkpt>
      <trkpt lat="43.62375" lon="7.09808">
        <ele>77.979064941406</ele>
        <time>2020-05-14T15:32:34Z</time>
      </trkpt>
      <trkpt lat="43.62371" lon="7.09816">
        <ele>77.903930664062</ele>
        <time>2020-05-14T15:32:35Z</time>
      </trkpt>
      <trkpt lat="43.62366" lon="7.09823">
        <ele>77.627746582031</ele>
        <time>2020-05-14T15:32:36Z</time>
      </trkpt>
      <trkpt lat="43.62361" lon="7.09831">
        <ele>77.740539550781</ele>
        <time>2020-05-14T15:32:37Z</time>
      </trkpt>
      <trkpt lat="43.62358" lon="7.09838">
        <ele>78.157531738281</ele>
        <time>2020-05-14T15:32:38Z</time>
      </trkpt>
      <trkpt lat="43.62353" lon="7.09845">
        <ele>77.078186035156</ele>
        <time>2020-05-14T15:32:39Z</time>
      </trkpt>
      <trkpt lat="43.62348" lon="7.09853">
        <ele>75.860595703125</ele>
        <time>2020-05-14T15:32:40Z</time>
      </trkpt>
      <trkpt lat="43.62345" lon="7.0986">
        <ele>75.606872558594</ele>
        <time>2020-05-14T15:32:41Z</time>
      </trkpt>
      <trkpt lat="43.62343" lon="7.09867">
        <ele>74.323059082031</ele>
        <time>2020-05-14T15:32:42Z</time>
      </trkpt>
      <trkpt lat="43.62341" lon="7.09875">
        <ele>73.630676269531</ele>
        <time>2020-05-14T15:32:43Z</time>
      </trkpt>
      <trkpt lat="43.62339" lon="7.09882">
        <ele>73.271301269531</ele>
        <time>2020-05-14T15:32:44Z</time>
      </trkpt>
      <trkpt lat="43.62336" lon="7.0989">
        <ele>72.351928710938</ele>
        <time>2020-05-14T15:32:45Z</time>
      </trkpt>
      <trkpt lat="43.62333" lon="7.09897">
        <ele>71.145385742188</ele>
        <time>2020-05-14T15:32:46Z</time>
      </trkpt>
      <trkpt lat="43.6233" lon="7.09904">
        <ele>71.339477539062</ele>
        <time>2020-05-14T15:32:47Z</time>
      </trkpt>
      <trkpt lat="43.62327" lon="7.09908">
        <ele>72.291137695312</ele>
        <time>2020-05-14T15:32:48Z</time>
      </trkpt>
      <trkpt lat="43.62321" lon="7.09909">
        <ele>72.045654296875</ele>
        <time>2020-05-14T15:32:49Z</time>
      </trkpt>
      <trkpt lat="43.62315" lon="7.09909">
        <ele>70.3466796875</ele>
        <time>2020-05-14T15:32:50Z</time>
      </trkpt>
      <trkpt lat="43.62309" lon="7.09909">
        <ele>71.543334960938</ele>
        <time>2020-05-14T15:32:51Z</time>
      </trkpt>
      <trkpt lat="43.62303" lon="7.09911">
        <ele>71.747741699219</ele>
        <time>2020-05-14T15:32:52Z</time>
      </trkpt>
      <trkpt lat="43.62298" lon="7.09911">
        <ele>72.478820800781</ele>
        <time>2020-05-14T15:32:53Z</time>
      </trkpt>
      <trkpt lat="43.62293" lon="7.0991">
        <ele>73.028076171875</ele>
        <time>2020-05-14T15:32:54Z</time>
      </trkpt>
      <trkpt lat="43.62287" lon="7.09912">
        <ele>74.916748046875</ele>
        <time>2020-05-14T15:32:55Z</time>
      </trkpt>
      <trkpt lat="43.6228" lon="7.09915">
        <ele>76.2470703125</ele>
        <time>2020-05-14T15:32:56Z</time>
      </trkpt>
      <trkpt lat="43.62275" lon="7.09917">
        <ele>75.624145507812</ele>
        <time>2020-05-14T15:32:57Z</time>
      </trkpt>
      <trkpt lat="43.62269" lon="7.09921">
        <ele>75.720764160156</ele>
        <time>2020-05-14T15:32:58Z</time>
      </trkpt>
      <trkpt lat="43.62263" lon="7.09927">
        <ele>76.825927734375</ele>
        <time>2020-05-14T15:32:59Z</time>
      </trkpt>
      <trkpt lat="43.62258" lon="7.09932">
        <ele>78.132507324219</ele>
        <time>2020-05-14T15:33:00Z</time>
      </trkpt>
      <trkpt lat="43.62253" lon="7.09938">
        <ele>81.21484375</ele>
        <time>2020-05-14T15:33:01Z</time>
      </trkpt>
      <trkpt lat="43.62248" lon="7.09944">
        <ele>83.002075195312</ele>
        <time>2020-05-14T15:33:02Z</time>
      </trkpt>
      <trkpt lat="43.62243" lon="7.09947">
        <ele>82.934692382812</ele>
        <time>2020-05-14T15:33:03Z</time>
      </trkpt>
      <trkpt lat="43.62238" lon="7.09953">
        <ele>84.524475097656</ele>
        <time>2020-05-14T15:33:04Z</time>
      </trkpt>
      <trkpt lat="43.62233" lon="7.09957">
        <ele>82.956298828125</ele>
        <time>2020-05-14T15:33:05Z</time>
      </trkpt>
      <trkpt lat="43.62229" lon="7.09962">
        <ele>82.935791015625</ele>
        <time>2020-05-14T15:33:06Z</time>
      </trkpt>
      <trkpt lat="43.62225" lon="7.09966">
        <ele>82.915893554688</ele>
        <time>2020-05-14T15:33:07Z</time>
      </trkpt>
      <trkpt lat="43.6222" lon="7.09969">
        <ele>80.840393066406</ele>
        <time>2020-05-14T15:33:08Z</time>
      </trkpt>
      <trkpt lat="43.62216" lon="7.09973">
        <ele>80.443115234375</ele>
        <time>2020-05-14T15:33:09Z</time>
      </trkpt>
      <trkpt lat="43.62211" lon="7.09975">
        <ele>79.178955078125</ele>
        <time>2020-05-14T15:33:10Z</time>
      </trkpt>
      <trkpt lat="43.62206" lon="7.09978">
        <ele>80.473571777344</ele>
        <time>2020-05-14T15:33:11Z</time>
      </trkpt>
      <trkpt lat="43.62199" lon="7.09979">
        <ele>80.844848632812</ele>
        <time>2020-05-14T15:33:12Z</time>
      </trkpt>
      <trkpt lat="43.62196" lon="7.09984">
        <ele>81.314819335938</ele>
        <time>2020-05-14T15:33:13Z</time>
      </trkpt>
      <trkpt lat="43.62193" lon="7.09992">
        <ele>81.721313476562</ele>
        <time>2020-05-14T15:33:14Z</time>
      </trkpt>
      <trkpt lat="43.62192" lon="7.10001">
        <ele>80.947204589844</ele>
        <time>2020-05-14T15:33:15Z</time>
      </trkpt>
      <trkpt lat="43.62193" lon="7.10009">
        <ele>80.367248535156</ele>
        <time>2020-05-14T15:33:16Z</time>
      </trkpt>
      <trkpt lat="43.62192" lon="7.10017">
        <ele>63.242309570312</ele>
        <time>2020-05-14T15:33:17Z</time>
      </trkpt>
      <trkpt lat="43.6219" lon="7.10026">
        <ele>62.853820800781</ele>
        <time>2020-05-14T15:33:18Z</time>
      </trkpt>
      <trkpt lat="43.62185" lon="7.10031">
        <ele>62.01171875</ele>
        <time>2020-05-14T15:33:19Z</time>
      </trkpt>
      <trkpt lat="43.62178" lon="7.10037">
        <ele>61.386169433594</ele>
        <time>2020-05-14T15:33:20Z</time>
      </trkpt>
      <trkpt lat="43.62173" lon="7.10043">
        <ele>61.440551757812</ele>
        <time>2020-05-14T15:33:21Z</time>
      </trkpt>
      <trkpt lat="43.62167" lon="7.10048">
        <ele>61.351135253906</ele>
        <time>2020-05-14T15:33:22Z</time>
      </trkpt>
      <trkpt lat="43.62161" lon="7.10053">
        <ele>61.05859375</ele>
        <time>2020-05-14T15:33:23Z</time>
      </trkpt>
      <trkpt lat="43.62156" lon="7.10059">
        <ele>60.781066894531</ele>
        <time>2020-05-14T15:33:24Z</time>
      </trkpt>
      <trkpt lat="43.62151" lon="7.10064">
        <ele>60.842895507812</ele>
        <time>2020-05-14T15:33:25Z</time>
      </trkpt>
      <trkpt lat="43.62145" lon="7.10069">
        <ele>60.824035644531</ele>
        <time>2020-05-14T15:33:26Z</time>
      </trkpt>
      <trkpt lat="43.62139" lon="7.10072">
        <ele>61.104553222656</ele>
        <time>2020-05-14T15:33:27Z</time>
      </trkpt>
      <trkpt lat="43.62132" lon="7.10077">
        <ele>61.22314453125</ele>
        <time>2020-05-14T15:33:28Z</time>
      </trkpt>
      <trkpt lat="43.62126" lon="7.1008">
        <ele>61.725341796875</ele>
        <time>2020-05-14T15:33:29Z</time>
      </trkpt>
      <trkpt lat="43.6212" lon="7.10084">
        <ele>61.969848632812</ele>
        <time>2020-05-14T15:33:30Z</time>
      </trkpt>
      <trkpt lat="43.62114" lon="7.10087">
        <ele>61.690490722656</ele>
        <time>2020-05-14T15:33:31Z</time>
      </trkpt>
      <trkpt lat="43.62108" lon="7.10091">
        <ele>62.051513671875</ele>
        <time>2020-05-14T15:33:32Z</time>
      </trkpt>
      <trkpt lat="43.62102" lon="7.10095">
        <ele>62.1943359375</ele>
        <time>2020-05-14T15:33:33Z</time>
      </trkpt>
      <trkpt lat="43.62095" lon="7.101">
        <ele>61.627624511719</ele>
        <time>2020-05-14T15:33:34Z</time>
      </trkpt>
      <trkpt lat="43.62088" lon="7.10103">
        <ele>60.627075195312</ele>
        <time>2020-05-14T15:33:35Z</time>
      </trkpt>
      <trkpt lat="43.62082" lon="7.10106">
        <ele>60.842956542969</ele>
        <time>2020-05-14T15:33:36Z</time>
      </trkpt>
      <trkpt lat="43.62075" lon="7.10109">
        <ele>60.708557128906</ele>
        <time>2020-05-14T15:33:37Z</time>
      </trkpt>
      <trkpt lat="43.62069" lon="7.10112">
        <ele>60.850036621094</ele>
        <time>2020-05-14T15:33:38Z</time>
      </trkpt>
      <trkpt lat="43.62062" lon="7.10114">
        <ele>61.118225097656</ele>
        <time>2020-05-14T15:33:39Z</time>
      </trkpt>
      <trkpt lat="43.62055" lon="7.10115">
        <ele>60.691101074219</ele>
        <time>2020-05-14T15:33:40Z</time>
      </trkpt>
      <trkpt lat="43.62049" lon="7.10116">
        <ele>59.734985351562</ele>
        <time>2020-05-14T15:33:41Z</time>
      </trkpt>
      <trkpt lat="43.62043" lon="7.10117">
        <ele>60.840759277344</ele>
        <time>2020-05-14T15:33:42Z</time>
      </trkpt>
      <trkpt lat="43.62038" lon="7.10119">
        <ele>61.193664550781</ele>
        <time>2020-05-14T15:33:43Z</time>
      </trkpt>
      <trkpt lat="43.62031" lon="7.10121">
        <ele>61.703857421875</ele>
        <time>2020-05-14T15:33:44Z</time>
      </trkpt>
      <trkpt lat="43.62025" lon="7.10125">
        <ele>61.438903808594</ele>
        <time>2020-05-14T15:33:45Z</time>
      </trkpt>
      <trkpt lat="43.62018" lon="7.10128">
        <ele>61.217651367188</ele>
        <time>2020-05-14T15:33:46Z</time>
      </trkpt>
      <trkpt lat="43.62013" lon="7.1013">
        <ele>59.244689941406</ele>
        <time>2020-05-14T15:33:47Z</time>
      </trkpt>
      <trkpt lat="43.62009" lon="7.10134">
        <ele>60.070190429688</ele>
        <time>2020-05-14T15:33:48Z</time>
      </trkpt>
      <trkpt lat="43.62004" lon="7.10139">
        <ele>60.021911621094</ele>
        <time>2020-05-14T15:33:49Z</time>
      </trkpt>
      <trkpt lat="43.62" lon="7.10144">
        <ele>58.964965820312</ele>
        <time>2020-05-14T15:33:50Z</time>
      </trkpt>
      <trkpt lat="43.61993" lon="7.10148">
        <ele>58.661682128906</ele>
        <time>2020-05-14T15:33:51Z</time>
      </trkpt>
      <trkpt lat="43.61987" lon="7.10154">
        <ele>58.592468261719</ele>
        <time>2020-05-14T15:33:52Z</time>
      </trkpt>
      <trkpt lat="43.61983" lon="7.10159">
        <ele>58.391662597656</ele>
        <time>2020-05-14T15:33:53Z</time>
      </trkpt>
      <trkpt lat="43.61978" lon="7.10164">
        <ele>59.823791503906</ele>
        <time>2020-05-14T15:33:54Z</time>
      </trkpt>
      <trkpt lat="43.61974" lon="7.10169">
        <ele>60.077331542969</ele>
        <time>2020-05-14T15:33:55Z</time>
      </trkpt>
      <trkpt lat="43.61969" lon="7.10173">
        <ele>60.420043945312</ele>
        <time>2020-05-14T15:33:56Z</time>
      </trkpt>
      <trkpt lat="43.61963" lon="7.10177">
        <ele>60.224914550781</ele>
        <time>2020-05-14T15:33:57Z</time>
      </trkpt>
      <trkpt lat="43.61959" lon="7.10181">
        <ele>60.177673339844</ele>
        <time>2020-05-14T15:33:58Z</time>
      </trkpt>
      <trkpt lat="43.61953" lon="7.10185">
        <ele>59.937927246094</ele>
        <time>2020-05-14T15:33:59Z</time>
      </trkpt>
      <trkpt lat="43.61947" lon="7.1019">
        <ele>60.17919921875</ele>
        <time>2020-05-14T15:34:00Z</time>
      </trkpt>
      <trkpt lat="43.61942" lon="7.10193">
        <ele>60.523498535156</ele>
        <time>2020-05-14T15:34:01Z</time>
      </trkpt>
      <trkpt lat="43.61938" lon="7.10195">
        <ele>62.145751953125</ele>
        <time>2020-05-14T15:34:02Z</time>
      </trkpt>
      <trkpt lat="43.61934" lon="7.10199">
        <ele>62.686950683594</ele>
        <time>2020-05-14T15:34:03Z</time>
      </trkpt>
      <trkpt lat="43.61927" lon="7.10202">
        <ele>62.140563964844</ele>
        <time>2020-05-14T15:34:04Z</time>
      </trkpt>
      <trkpt lat="43.61922" lon="7.10206">
        <ele>62.28173828125</ele>
        <time>2020-05-14T15:34:05Z</time>
      </trkpt>
      <trkpt lat="43.61916" lon="7.10209">
        <ele>60.346801757812</ele>
        <time>2020-05-14T15:34:06Z</time>
      </trkpt>
      <trkpt lat="43.61911" lon="7.10213">
        <ele>58.846252441406</ele>
        <time>2020-05-14T15:34:07Z</time>
      </trkpt>
      <trkpt lat="43.61905" lon="7.10217">
        <ele>57.873229980469</ele>
        <time>2020-05-14T15:34:08Z</time>
      </trkpt>
      <trkpt lat="43.619" lon="7.10221">
        <ele>57.943115234375</ele>
        <time>2020-05-14T15:34:09Z</time>
      </trkpt>
      <trkpt lat="43.61895" lon="7.10225">
        <ele>58.593933105469</ele>
        <time>2020-05-14T15:34:10Z</time>
      </trkpt>
      <trkpt lat="43.61888" lon="7.1023">
        <ele>58.357971191406</ele>
        <time>2020-05-14T15:34:11Z</time>
      </trkpt>
      <trkpt lat="43.61883" lon="7.10234">
        <ele>58.388000488281</ele>
        <time>2020-05-14T15:34:12Z</time>
      </trkpt>
      <trkpt lat="43.61878" lon="7.10237">
        <ele>58.219421386719</ele>
        <time>2020-05-14T15:34:13Z</time>
      </trkpt>
      <trkpt lat="43.61872" lon="7.1024">
        <ele>58.028198242188</ele>
        <time>2020-05-14T15:34:14Z</time>
      </trkpt>
      <trkpt lat="43.61866" lon="7.10245">
        <ele>58.011596679688</ele>
        <time>2020-05-14T15:34:15Z</time>
      </trkpt>
      <trkpt lat="43.6186" lon="7.1025">
        <ele>58.471740722656</ele>
        <time>2020-05-14T15:34:16Z</time>
      </trkpt>
      <trkpt lat="43.61854" lon="7.10253">
        <ele>57.926513671875</ele>
        <time>2020-05-14T15:34:17Z</time>
      </trkpt>
      <trkpt lat="43.61849" lon="7.10258">
        <ele>58.491027832031</ele>
        <time>2020-05-14T15:34:18Z</time>
      </trkpt>
      <trkpt lat="43.61845" lon="7.10263">
        <ele>58.097534179688</ele>
        <time>2020-05-14T15:34:19Z</time>
      </trkpt>
      <trkpt lat="43.61839" lon="7.10267">
        <ele>58.233276367188</ele>
        <time>2020-05-14T15:34:20Z</time>
      </trkpt>
      <trkpt lat="43.61835" lon="7.10272">
        <ele>57.858520507812</ele>
        <time>2020-05-14T15:34:21Z</time>
      </trkpt>
      <trkpt lat="43.6183" lon="7.10276">
        <ele>57.718811035156</ele>
        <time>2020-05-14T15:34:22Z</time>
      </trkpt>
      <trkpt lat="43.61825" lon="7.10282">
        <ele>56.916748046875</ele>
        <time>2020-05-14T15:34:23Z</time>
      </trkpt>
      <trkpt lat="43.6182" lon="7.10286">
        <ele>57.262573242188</ele>
        <time>2020-05-14T15:34:24Z</time>
      </trkpt>
      <trkpt lat="43.61816" lon="7.10288">
        <ele>57.395263671875</ele>
        <time>2020-05-14T15:34:25Z</time>
      </trkpt>
      <trkpt lat="43.61811" lon="7.10294">
        <ele>57.809448242188</ele>
        <time>2020-05-14T15:34:26Z</time>
      </trkpt>
      <trkpt lat="43.61806" lon="7.10299">
        <ele>57.067993164062</ele>
        <time>2020-05-14T15:34:27Z</time>
      </trkpt>
      <trkpt lat="43.61802" lon="7.10303">
        <ele>57.343566894531</ele>
        <time>2020-05-14T15:34:28Z</time>
      </trkpt>
      <trkpt lat="43.61797" lon="7.10307">
        <ele>57.037048339844</ele>
        <time>2020-05-14T15:34:29Z</time>
      </trkpt>
      <trkpt lat="43.61792" lon="7.10309">
        <ele>56.670349121094</ele>
        <time>2020-05-14T15:34:30Z</time>
      </trkpt>
      <trkpt lat="43.61788" lon="7.10312">
        <ele>58.065856933594</ele>
        <time>2020-05-14T15:34:31Z</time>
      </trkpt>
      <trkpt lat="43.61783" lon="7.10315">
        <ele>57.951965332031</ele>
        <time>2020-05-14T15:34:32Z</time>
      </trkpt>
      <trkpt lat="43.61779" lon="7.1032">
        <ele>57.438537597656</ele>
        <time>2020-05-14T15:34:33Z</time>
      </trkpt>
      <trkpt lat="43.61775" lon="7.10325">
        <ele>57.5390625</ele>
        <time>2020-05-14T15:34:34Z</time>
      </trkpt>
      <trkpt lat="43.6177" lon="7.10329">
        <ele>57.791931152344</ele>
        <time>2020-05-14T15:34:35Z</time>
      </trkpt>
      <trkpt lat="43.61766" lon="7.10334">
        <ele>58.285522460938</ele>
        <time>2020-05-14T15:34:36Z</time>
      </trkpt>
      <trkpt lat="43.61762" lon="7.10338">
        <ele>58.822021484375</ele>
        <time>2020-05-14T15:34:37Z</time>
      </trkpt>
      <trkpt lat="43.61757" lon="7.10343">
        <ele>58.959167480469</ele>
        <time>2020-05-14T15:34:38Z</time>
      </trkpt>
      <trkpt lat="43.61752" lon="7.10348">
        <ele>59.374267578125</ele>
        <time>2020-05-14T15:34:39Z</time>
      </trkpt>
      <trkpt lat="43.61748" lon="7.10354">
        <ele>58.967163085938</ele>
        <time>2020-05-14T15:34:40Z</time>
      </trkpt>
      <trkpt lat="43.61743" lon="7.10362">
        <ele>58.388732910156</ele>
        <time>2020-05-14T15:34:41Z</time>
      </trkpt>
      <trkpt lat="43.61738" lon="7.10367">
        <ele>58.297180175781</ele>
        <time>2020-05-14T15:34:42Z</time>
      </trkpt>
      <trkpt lat="43.61734" lon="7.10374">
        <ele>58.471252441406</ele>
        <time>2020-05-14T15:34:43Z</time>
      </trkpt>
      <trkpt lat="43.6173" lon="7.1038">
        <ele>58.381774902344</ele>
        <time>2020-05-14T15:34:44Z</time>
      </trkpt>
      <trkpt lat="43.61726" lon="7.10386">
        <ele>58.171325683594</ele>
        <time>2020-05-14T15:34:45Z</time>
      </trkpt>
      <trkpt lat="43.61722" lon="7.10393">
        <ele>57.749328613281</ele>
        <time>2020-05-14T15:34:46Z</time>
      </trkpt>
      <trkpt lat="43.61718" lon="7.104">
        <ele>57.174865722656</ele>
        <time>2020-05-14T15:34:47Z</time>
      </trkpt>
      <trkpt lat="43.61715" lon="7.10408">
        <ele>57.400207519531</ele>
        <time>2020-05-14T15:34:48Z</time>
      </trkpt>
      <trkpt lat="43.61712" lon="7.10416">
        <ele>57.542358398438</ele>
        <time>2020-05-14T15:34:49Z</time>
      </trkpt>
      <trkpt lat="43.61709" lon="7.10423">
        <ele>57.662109375</ele>
        <time>2020-05-14T15:34:50Z</time>
      </trkpt>
      <trkpt lat="43.61707" lon="7.10432">
        <ele>58.040832519531</ele>
        <time>2020-05-14T15:34:51Z</time>
      </trkpt>
      <trkpt lat="43.61705" lon="7.10441">
        <ele>57.489685058594</ele>
        <time>2020-05-14T15:34:52Z</time>
      </trkpt>
      <trkpt lat="43.61702" lon="7.10449">
        <ele>57.416931152344</ele>
        <time>2020-05-14T15:34:53Z</time>
      </trkpt>
      <trkpt lat="43.617" lon="7.10459">
        <ele>56.880676269531</ele>
        <time>2020-05-14T15:34:54Z</time>
      </trkpt>
      <trkpt lat="43.61698" lon="7.10467">
        <ele>57.027099609375</ele>
        <time>2020-05-14T15:34:55Z</time>
      </trkpt>
      <trkpt lat="43.61696" lon="7.10476">
        <ele>57.17578125</ele>
        <time>2020-05-14T15:34:56Z</time>
      </trkpt>
      <trkpt lat="43.61694" lon="7.10484">
        <ele>57.998840332031</ele>
        <time>2020-05-14T15:34:57Z</time>
      </trkpt>
      <trkpt lat="43.6169" lon="7.10492">
        <ele>58.660705566406</ele>
        <time>2020-05-14T15:34:58Z</time>
      </trkpt>
      <trkpt lat="43.61688" lon="7.105">
        <ele>58.95849609375</ele>
        <time>2020-05-14T15:34:59Z</time>
      </trkpt>
      <trkpt lat="43.61685" lon="7.10509">
        <ele>58.245544433594</ele>
        <time>2020-05-14T15:35:00Z</time>
      </trkpt>
      <trkpt lat="43.61684" lon="7.10518">
        <ele>58.080871582031</ele>
        <time>2020-05-14T15:35:01Z</time>
      </trkpt>
      <trkpt lat="43.61681" lon="7.10527">
        <ele>58.356628417969</ele>
        <time>2020-05-14T15:35:02Z</time>
      </trkpt>
      <trkpt lat="43.61679" lon="7.10535">
        <ele>58.058044433594</ele>
        <time>2020-05-14T15:35:03Z</time>
      </trkpt>
      <trkpt lat="43.61677" lon="7.10542">
        <ele>59.072448730469</ele>
        <time>2020-05-14T15:35:04Z</time>
      </trkpt>
      <trkpt lat="43.61673" lon="7.10551">
        <ele>59.791320800781</ele>
        <time>2020-05-14T15:35:05Z</time>
      </trkpt>
      <trkpt lat="43.6167" lon="7.10559">
        <ele>59.471313476562</ele>
        <time>2020-05-14T15:35:06Z</time>
      </trkpt>
      <trkpt lat="43.61668" lon="7.10567">
        <ele>59.214477539062</ele>
        <time>2020-05-14T15:35:07Z</time>
      </trkpt>
      <trkpt lat="43.61664" lon="7.10575">
        <ele>58.782897949219</ele>
        <time>2020-05-14T15:35:08Z</time>
      </trkpt>
      <trkpt lat="43.61661" lon="7.10583">
        <ele>58.390869140625</ele>
        <time>2020-05-14T15:35:09Z</time>
      </trkpt>
      <trkpt lat="43.61658" lon="7.1059">
        <ele>57.465759277344</ele>
        <time>2020-05-14T15:35:10Z</time>
      </trkpt>
      <trkpt lat="43.61655" lon="7.10597">
        <ele>57.694946289062</ele>
        <time>2020-05-14T15:35:11Z</time>
      </trkpt>
      <trkpt lat="43.61652" lon="7.10604">
        <ele>57.999755859375</ele>
        <time>2020-05-14T15:35:12Z</time>
      </trkpt>
      <trkpt lat="43.61648" lon="7.10612">
        <ele>57.665832519531</ele>
        <time>2020-05-14T15:35:13Z</time>
      </trkpt>
      <trkpt lat="43.61645" lon="7.10618">
        <ele>57.775939941406</ele>
        <time>2020-05-14T15:35:14Z</time>
      </trkpt>
      <trkpt lat="43.61642" lon="7.10627">
        <ele>57.77294921875</ele>
        <time>2020-05-14T15:35:15Z</time>
      </trkpt>
      <trkpt lat="43.61638" lon="7.10633">
        <ele>58.264465332031</ele>
        <time>2020-05-14T15:35:16Z</time>
      </trkpt>
      <trkpt lat="43.61633" lon="7.10639">
        <ele>58.377319335938</ele>
        <time>2020-05-14T15:35:17Z</time>
      </trkpt>
      <trkpt lat="43.61629" lon="7.10645">
        <ele>58.045227050781</ele>
        <time>2020-05-14T15:35:18Z</time>
      </trkpt>
      <trkpt lat="43.61624" lon="7.10651">
        <ele>57.774169921875</ele>
        <time>2020-05-14T15:35:19Z</time>
      </trkpt>
      <trkpt lat="43.6162" lon="7.10657">
        <ele>58.262329101562</ele>
        <time>2020-05-14T15:35:20Z</time>
      </trkpt>
      <trkpt lat="43.61617" lon="7.10662">
        <ele>58.631958007812</ele>
        <time>2020-05-14T15:35:21Z</time>
      </trkpt>
      <trkpt lat="43.61612" lon="7.10667">
        <ele>58.851623535156</ele>
        <time>2020-05-14T15:35:22Z</time>
      </trkpt>
      <trkpt lat="43.61607" lon="7.10672">
        <ele>59.1103515625</ele>
        <time>2020-05-14T15:35:23Z</time>
      </trkpt>
      <trkpt lat="43.61603" lon="7.10677">
        <ele>59.221435546875</ele>
        <time>2020-05-14T15:35:24Z</time>
      </trkpt>
      <trkpt lat="43.61599" lon="7.10682">
        <ele>58.98486328125</ele>
        <time>2020-05-14T15:35:25Z</time>
      </trkpt>
      <trkpt lat="43.61594" lon="7.10689">
        <ele>58.832580566406</ele>
        <time>2020-05-14T15:35:26Z</time>
      </trkpt>
      <trkpt lat="43.6159" lon="7.10695">
        <ele>58.935119628906</ele>
        <time>2020-05-14T15:35:27Z</time>
      </trkpt>
      <trkpt lat="43.61586" lon="7.107">
        <ele>58.906372070312</ele>
        <time>2020-05-14T15:35:28Z</time>
      </trkpt>
      <trkpt lat="43.61582" lon="7.10706">
        <ele>58.440856933594</ele>
        <time>2020-05-14T15:35:29Z</time>
      </trkpt>
      <trkpt lat="43.61578" lon="7.10712">
        <ele>57.941467285156</ele>
        <time>2020-05-14T15:35:30Z</time>
      </trkpt>
      <trkpt lat="43.61574" lon="7.10717">
        <ele>57.661071777344</ele>
        <time>2020-05-14T15:35:31Z</time>
      </trkpt>
      <trkpt lat="43.61571" lon="7.10723">
        <ele>57.940856933594</ele>
        <time>2020-05-14T15:35:32Z</time>
      </trkpt>
      <trkpt lat="43.61568" lon="7.10728">
        <ele>58.742065429688</ele>
        <time>2020-05-14T15:35:33Z</time>
      </trkpt>
      <trkpt lat="43.61564" lon="7.10734">
        <ele>58.939575195312</ele>
        <time>2020-05-14T15:35:34Z</time>
      </trkpt>
      <trkpt lat="43.61561" lon="7.10739">
        <ele>59.228637695312</ele>
        <time>2020-05-14T15:35:35Z</time>
      </trkpt>
      <trkpt lat="43.61558" lon="7.10743">
        <ele>59.405151367188</ele>
        <time>2020-05-14T15:35:36Z</time>
      </trkpt>
      <trkpt lat="43.61556" lon="7.10749">
        <ele>58.646728515625</ele>
        <time>2020-05-14T15:35:37Z</time>
      </trkpt>
      <trkpt lat="43.61553" lon="7.10754">
        <ele>59.593139648438</ele>
        <time>2020-05-14T15:35:38Z</time>
      </trkpt>
      <trkpt lat="43.61551" lon="7.10759">
        <ele>59.5322265625</ele>
        <time>2020-05-14T15:35:39Z</time>
      </trkpt>
      <trkpt lat="43.61547" lon="7.10764">
        <ele>59.105407714844</ele>
        <time>2020-05-14T15:35:40Z</time>
      </trkpt>
      <trkpt lat="43.61543" lon="7.1077">
        <ele>58.459716796875</ele>
        <time>2020-05-14T15:35:41Z</time>
      </trkpt>
      <trkpt lat="43.6154" lon="7.10774">
        <ele>58.28662109375</ele>
        <time>2020-05-14T15:35:42Z</time>
      </trkpt>
      <trkpt lat="43.61538" lon="7.1078">
        <ele>58.3974609375</ele>
        <time>2020-05-14T15:35:43Z</time>
      </trkpt>
      <trkpt lat="43.61534" lon="7.10785">
        <ele>58.585571289062</ele>
        <time>2020-05-14T15:35:44Z</time>
      </trkpt>
      <trkpt lat="43.61531" lon="7.10789">
        <ele>58.658081054688</ele>
        <time>2020-05-14T15:35:45Z</time>
      </trkpt>
      <trkpt lat="43.61529" lon="7.10794">
        <ele>59.567443847656</ele>
        <time>2020-05-14T15:35:46Z</time>
      </trkpt>
      <trkpt lat="43.61525" lon="7.108">
        <ele>59.205810546875</ele>
        <time>2020-05-14T15:35:47Z</time>
      </trkpt>
      <trkpt lat="43.61524" lon="7.10805">
        <ele>59.112731933594</ele>
        <time>2020-05-14T15:35:48Z</time>
      </trkpt>
      <trkpt lat="43.6152" lon="7.1081">
        <ele>59.161010742188</ele>
        <time>2020-05-14T15:35:49Z</time>
      </trkpt>
      <trkpt lat="43.61516" lon="7.10817">
        <ele>58.757568359375</ele>
        <time>2020-05-14T15:35:50Z</time>
      </trkpt>
      <trkpt lat="43.61513" lon="7.10822">
        <ele>58.455993652344</ele>
        <time>2020-05-14T15:35:51Z</time>
      </trkpt>
      <trkpt lat="43.61509" lon="7.10828">
        <ele>58.163208007812</ele>
        <time>2020-05-14T15:35:52Z</time>
      </trkpt>
      <trkpt lat="43.61504" lon="7.10832">
        <ele>58.313781738281</ele>
        <time>2020-05-14T15:35:53Z</time>
      </trkpt>
      <trkpt lat="43.61499" lon="7.10836">
        <ele>58.558837890625</ele>
        <time>2020-05-14T15:35:54Z</time>
      </trkpt>
      <trkpt lat="43.61492" lon="7.10841">
        <ele>57.945983886719</ele>
        <time>2020-05-14T15:35:55Z</time>
      </trkpt>
      <trkpt lat="43.61488" lon="7.10845">
        <ele>58.373168945312</ele>
        <time>2020-05-14T15:35:56Z</time>
      </trkpt>
      <trkpt lat="43.61483" lon="7.10848">
        <ele>58.619506835938</ele>
        <time>2020-05-14T15:35:57Z</time>
      </trkpt>
      <trkpt lat="43.61478" lon="7.10852">
        <ele>58.271606445312</ele>
        <time>2020-05-14T15:35:58Z</time>
      </trkpt>
      <trkpt lat="43.61473" lon="7.10855">
        <ele>59.626037597656</ele>
        <time>2020-05-14T15:35:59Z</time>
      </trkpt>
      <trkpt lat="43.61468" lon="7.10859">
        <ele>59.88671875</ele>
        <time>2020-05-14T15:36:00Z</time>
      </trkpt>
      <trkpt lat="43.61463" lon="7.10863">
        <ele>58.975830078125</ele>
        <time>2020-05-14T15:36:01Z</time>
      </trkpt>
      <trkpt lat="43.61458" lon="7.10866">
        <ele>60.557861328125</ele>
        <time>2020-05-14T15:36:02Z</time>
      </trkpt>
      <trkpt lat="43.61452" lon="7.10868">
        <ele>60.619445800781</ele>
        <time>2020-05-14T15:36:03Z</time>
      </trkpt>
      <trkpt lat="43.61447" lon="7.10869">
        <ele>60.915405273438</ele>
        <time>2020-05-14T15:36:04Z</time>
      </trkpt>
      <trkpt lat="43.61441" lon="7.1087">
        <ele>60.687622070312</ele>
        <time>2020-05-14T15:36:05Z</time>
      </trkpt>
      <trkpt lat="43.61436" lon="7.10872">
        <ele>61.018615722656</ele>
        <time>2020-05-14T15:36:06Z</time>
      </trkpt>
      <trkpt lat="43.6143" lon="7.10873">
        <ele>60.945983886719</ele>
        <time>2020-05-14T15:36:07Z</time>
      </trkpt>
      <trkpt lat="43.61424" lon="7.10874">
        <ele>60.80615234375</ele>
        <time>2020-05-14T15:36:08Z</time>
      </trkpt>
      <trkpt lat="43.61418" lon="7.10875">
        <ele>60.704956054688</ele>
        <time>2020-05-14T15:36:09Z</time>
      </trkpt>
      <trkpt lat="43.61413" lon="7.10875">
        <ele>60.443237304688</ele>
        <time>2020-05-14T15:36:10Z</time>
      </trkpt>
      <trkpt lat="43.61408" lon="7.10876">
        <ele>60.668762207031</ele>
        <time>2020-05-14T15:36:11Z</time>
      </trkpt>
      <trkpt lat="43.61403" lon="7.10876">
        <ele>60.490234375</ele>
        <time>2020-05-14T15:36:12Z</time>
      </trkpt>
      <trkpt lat="43.61398" lon="7.10875">
        <ele>60.810424804688</ele>
        <time>2020-05-14T15:36:13Z</time>
      </trkpt>
      <trkpt lat="43.61393" lon="7.10875">
        <ele>61.554870605469</ele>
        <time>2020-05-14T15:36:14Z</time>
      </trkpt>
      <trkpt lat="43.61388" lon="7.10876">
        <ele>61.670288085938</ele>
        <time>2020-05-14T15:36:15Z</time>
      </trkpt>
      <trkpt lat="43.61383" lon="7.10876">
        <ele>60.752502441406</ele>
        <time>2020-05-14T15:36:16Z</time>
      </trkpt>
      <trkpt lat="43.61379" lon="7.10877">
        <ele>60.6591796875</ele>
        <time>2020-05-14T15:36:17Z</time>
      </trkpt>
      <trkpt lat="43.61373" lon="7.10877">
        <ele>61.412109375</ele>
        <time>2020-05-14T15:36:18Z</time>
      </trkpt>
      <trkpt lat="43.61369" lon="7.10877">
        <ele>61.145935058594</ele>
        <time>2020-05-14T15:36:19Z</time>
      </trkpt>
      <trkpt lat="43.61364" lon="7.10876">
        <ele>60.54052734375</ele>
        <time>2020-05-14T15:36:20Z</time>
      </trkpt>
      <trkpt lat="43.6136" lon="7.10876">
        <ele>60.753356933594</ele>
        <time>2020-05-14T15:36:21Z</time>
      </trkpt>
      <trkpt lat="43.61354" lon="7.10877">
        <ele>60.86279296875</ele>
        <time>2020-05-14T15:36:22Z</time>
      </trkpt>
      <trkpt lat="43.61347" lon="7.10878">
        <ele>61.480529785156</ele>
        <time>2020-05-14T15:36:23Z</time>
      </trkpt>
      <trkpt lat="43.61341" lon="7.10878">
        <ele>61.555297851562</ele>
        <time>2020-05-14T15:36:24Z</time>
      </trkpt>
      <trkpt lat="43.61336" lon="7.10877">
        <ele>61.923583984375</ele>
        <time>2020-05-14T15:36:25Z</time>
      </trkpt>
      <trkpt lat="43.6133" lon="7.10877">
        <ele>59.877563476562</ele>
        <time>2020-05-14T15:36:26Z</time>
      </trkpt>
      <trkpt lat="43.61324" lon="7.10878">
        <ele>60.122741699219</ele>
        <time>2020-05-14T15:36:27Z</time>
      </trkpt>
      <trkpt lat="43.61318" lon="7.10878">
        <ele>60.2744140625</ele>
        <time>2020-05-14T15:36:28Z</time>
      </trkpt>
      <trkpt lat="43.61312" lon="7.10878">
        <ele>60.193603515625</ele>
        <time>2020-05-14T15:36:29Z</time>
      </trkpt>
      <trkpt lat="43.61306" lon="7.10878">
        <ele>60.710205078125</ele>
        <time>2020-05-14T15:36:30Z</time>
      </trkpt>
      <trkpt lat="43.61301" lon="7.10877">
        <ele>60.6943359375</ele>
        <time>2020-05-14T15:36:31Z</time>
      </trkpt>
      <trkpt lat="43.61295" lon="7.10876">
        <ele>60.930480957031</ele>
        <time>2020-05-14T15:36:32Z</time>
      </trkpt>
      <trkpt lat="43.61289" lon="7.10873">
        <ele>60.856689453125</ele>
        <time>2020-05-14T15:36:33Z</time>
      </trkpt>
      <trkpt lat="43.61282" lon="7.10871">
        <ele>60.43212890625</ele>
        <time>2020-05-14T15:36:34Z</time>
      </trkpt>
      <trkpt lat="43.61276" lon="7.10867">
        <ele>60.519409179688</ele>
        <time>2020-05-14T15:36:35Z</time>
      </trkpt>
      <trkpt lat="43.6127" lon="7.10864">
        <ele>61.23046875</ele>
        <time>2020-05-14T15:36:36Z</time>
      </trkpt>
      <trkpt lat="43.61265" lon="7.1086">
        <ele>61.569885253906</ele>
        <time>2020-05-14T15:36:37Z</time>
      </trkpt>
      <trkpt lat="43.6126" lon="7.10857">
        <ele>61.566223144531</ele>
        <time>2020-05-14T15:36:38Z</time>
      </trkpt>
      <trkpt lat="43.61254" lon="7.10853">
        <ele>60.699523925781</ele>
        <time>2020-05-14T15:36:39Z</time>
      </trkpt>
      <trkpt lat="43.61247" lon="7.10851">
        <ele>60.414978027344</ele>
        <time>2020-05-14T15:36:40Z</time>
      </trkpt>
      <trkpt lat="43.61241" lon="7.1085">
        <ele>60.6611328125</ele>
        <time>2020-05-14T15:36:41Z</time>
      </trkpt>
      <trkpt lat="43.61235" lon="7.10849">
        <ele>60.717590332031</ele>
        <time>2020-05-14T15:36:42Z</time>
      </trkpt>
      <trkpt lat="43.61229" lon="7.10848">
        <ele>61.069702148438</ele>
        <time>2020-05-14T15:36:43Z</time>
      </trkpt>
      <trkpt lat="43.61223" lon="7.10847">
        <ele>60.762451171875</ele>
        <time>2020-05-14T15:36:44Z</time>
      </trkpt>
      <trkpt lat="43.61216" lon="7.10847">
        <ele>61.39111328125</ele>
        <time>2020-05-14T15:36:45Z</time>
      </trkpt>
      <trkpt lat="43.6121" lon="7.10849">
        <ele>61.355590820312</ele>
        <time>2020-05-14T15:36:46Z</time>
      </trkpt>
      <trkpt lat="43.61204" lon="7.1085">
        <ele>61.075561523438</ele>
        <time>2020-05-14T15:36:47Z</time>
      </trkpt>
      <trkpt lat="43.61197" lon="7.10853">
        <ele>60.96826171875</ele>
        <time>2020-05-14T15:36:48Z</time>
      </trkpt>
      <trkpt lat="43.61191" lon="7.10854">
        <ele>61.017517089844</ele>
        <time>2020-05-14T15:36:49Z</time>
      </trkpt>
      <trkpt lat="43.61185" lon="7.10857">
        <ele>61.24853515625</ele>
        <time>2020-05-14T15:36:50Z</time>
      </trkpt>
      <trkpt lat="43.61179" lon="7.10861">
        <ele>62.028930664062</ele>
        <time>2020-05-14T15:36:51Z</time>
      </trkpt>
      <trkpt lat="43.61173" lon="7.10865">
        <ele>61.099914550781</ele>
        <time>2020-05-14T15:36:52Z</time>
      </trkpt>
      <trkpt lat="43.61169" lon="7.10866">
        <ele>61.543029785156</ele>
        <time>2020-05-14T15:36:53Z</time>
      </trkpt>
      <trkpt lat="43.61162" lon="7.10871">
        <ele>61.263427734375</ele>
        <time>2020-05-14T15:36:54Z</time>
      </trkpt>
      <trkpt lat="43.61156" lon="7.1087">
        <ele>61.377868652344</ele>
        <time>2020-05-14T15:36:55Z</time>
      </trkpt>
      <trkpt lat="43.61149" lon="7.1088">
        <ele>61.273315429688</ele>
        <time>2020-05-14T15:36:56Z</time>
      </trkpt>
      <trkpt lat="43.61144" lon="7.10887">
        <ele>61.352905273438</ele>
        <time>2020-05-14T15:36:57Z</time>
      </trkpt>
      <trkpt lat="43.61139" lon="7.10895">
        <ele>60.57568359375</ele>
        <time>2020-05-14T15:36:58Z</time>
      </trkpt>
      <trkpt lat="43.61132" lon="7.10901">
        <ele>58.991943359375</ele>
        <time>2020-05-14T15:36:59Z</time>
      </trkpt>
      <trkpt lat="43.61128" lon="7.10906">
        <ele>59.009704589844</ele>
        <time>2020-05-14T15:37:00Z</time>
      </trkpt>
      <trkpt lat="43.61125" lon="7.10914">
        <ele>58.779357910156</ele>
        <time>2020-05-14T15:37:01Z</time>
      </trkpt>
      <trkpt lat="43.61122" lon="7.1092">
        <ele>58.833801269531</ele>
        <time>2020-05-14T15:37:02Z</time>
      </trkpt>
      <trkpt lat="43.61119" lon="7.10927">
        <ele>58.119934082031</ele>
        <time>2020-05-14T15:37:03Z</time>
      </trkpt>
      <trkpt lat="43.61117" lon="7.10935">
        <ele>58.589782714844</ele>
        <time>2020-05-14T15:37:04Z</time>
      </trkpt>
      <trkpt lat="43.61114" lon="7.10942">
        <ele>58.719299316406</ele>
        <time>2020-05-14T15:37:05Z</time>
      </trkpt>
      <trkpt lat="43.61111" lon="7.10948">
        <ele>58.741882324219</ele>
        <time>2020-05-14T15:37:06Z</time>
      </trkpt>
      <trkpt lat="43.61107" lon="7.10954">
        <ele>58.672729492188</ele>
        <time>2020-05-14T15:37:07Z</time>
      </trkpt>
      <trkpt lat="43.61102" lon="7.1096">
        <ele>58.679321289062</ele>
        <time>2020-05-14T15:37:08Z</time>
      </trkpt>
      <trkpt lat="43.61098" lon="7.10966">
        <ele>58.934631347656</ele>
        <time>2020-05-14T15:37:09Z</time>
      </trkpt>
      <trkpt lat="43.61097" lon="7.10973">
        <ele>58.462890625</ele>
        <time>2020-05-14T15:37:10Z</time>
      </trkpt>
      <trkpt lat="43.61093" lon="7.10979">
        <ele>60.074584960938</ele>
        <time>2020-05-14T15:37:11Z</time>
      </trkpt>
      <trkpt lat="43.61087" lon="7.10983">
        <ele>58.608642578125</ele>
        <time>2020-05-14T15:37:12Z</time>
      </trkpt>
      <trkpt lat="43.61087" lon="7.1099">
        <ele>59.152465820312</ele>
        <time>2020-05-14T15:37:13Z</time>
      </trkpt>
      <trkpt lat="43.61079" lon="7.1099">
        <ele>58.995361328125</ele>
        <time>2020-05-14T15:37:14Z</time>
      </trkpt>
      <trkpt lat="43.61073" lon="7.10992">
        <ele>59.139343261719</ele>
        <time>2020-05-14T15:37:15Z</time>
      </trkpt>
      <trkpt lat="43.61066" lon="7.10994">
        <ele>59.406860351562</ele>
        <time>2020-05-14T15:37:16Z</time>
      </trkpt>
      <trkpt lat="43.61058" lon="7.10995">
        <ele>59.773132324219</ele>
        <time>2020-05-14T15:37:17Z</time>
      </trkpt>
      <trkpt lat="43.61054" lon="7.10995">
        <ele>59.4111328125</ele>
        <time>2020-05-14T15:37:18Z</time>
      </trkpt>
      <trkpt lat="43.61048" lon="7.10996">
        <ele>59.053405761719</ele>
        <time>2020-05-14T15:37:19Z</time>
      </trkpt>
      <trkpt lat="43.61042" lon="7.10994">
        <ele>57.282897949219</ele>
        <time>2020-05-14T15:37:20Z</time>
      </trkpt>
      <trkpt lat="43.61037" lon="7.10995">
        <ele>57.33154296875</ele>
        <time>2020-05-14T15:37:21Z</time>
      </trkpt>
      <trkpt lat="43.61031" lon="7.10996">
        <ele>57.940490722656</ele>
        <time>2020-05-14T15:37:22Z</time>
      </trkpt>
      <trkpt lat="43.61026" lon="7.10998">
        <ele>58.937561035156</ele>
        <time>2020-05-14T15:37:23Z</time>
      </trkpt>
      <trkpt lat="43.61021" lon="7.10999">
        <ele>59.163940429688</ele>
        <time>2020-05-14T15:37:24Z</time>
      </trkpt>
      <trkpt lat="43.61016" lon="7.11">
        <ele>59.256286621094</ele>
        <time>2020-05-14T15:37:25Z</time>
      </trkpt>
      <trkpt lat="43.6101" lon="7.11001">
        <ele>59.190063476562</ele>
        <time>2020-05-14T15:37:26Z</time>
      </trkpt>
      <trkpt lat="43.61005" lon="7.11002">
        <ele>59.522644042969</ele>
        <time>2020-05-14T15:37:27Z</time>
      </trkpt>
      <trkpt lat="43.61" lon="7.11003">
        <ele>60.031433105469</ele>
        <time>2020-05-14T15:37:28Z</time>
      </trkpt>
      <trkpt lat="43.60995" lon="7.11003">
        <ele>60.214416503906</ele>
        <time>2020-05-14T15:37:29Z</time>
      </trkpt>
      <trkpt lat="43.6099" lon="7.11005">
        <ele>59.932495117188</ele>
        <time>2020-05-14T15:37:30Z</time>
      </trkpt>
      <trkpt lat="43.60985" lon="7.11005">
        <ele>60.026428222656</ele>
        <time>2020-05-14T15:37:31Z</time>
      </trkpt>
      <trkpt lat="43.60979" lon="7.11006">
        <ele>59.966613769531</ele>
        <time>2020-05-14T15:37:32Z</time>
      </trkpt>
      <trkpt lat="43.60973" lon="7.11008">
        <ele>60.047119140625</ele>
        <time>2020-05-14T15:37:33Z</time>
      </trkpt>
      <trkpt lat="43.60968" lon="7.11008">
        <ele>59.945678710938</ele>
        <time>2020-05-14T15:37:34Z</time>
      </trkpt>
      <trkpt lat="43.60963" lon="7.1101">
        <ele>60.099609375</ele>
        <time>2020-05-14T15:37:35Z</time>
      </trkpt>
      <trkpt lat="43.60958" lon="7.1101">
        <ele>60.770690917969</ele>
        <time>2020-05-14T15:37:36Z</time>
      </trkpt>
      <trkpt lat="43.60951" lon="7.1101">
        <ele>60.796630859375</ele>
        <time>2020-05-14T15:37:37Z</time>
      </trkpt>
      <trkpt lat="43.60945" lon="7.11013">
        <ele>60.76904296875</ele>
        <time>2020-05-14T15:37:38Z</time>
      </trkpt>
      <trkpt lat="43.6094" lon="7.11014">
        <ele>60.352233886719</ele>
        <time>2020-05-14T15:37:39Z</time>
      </trkpt>
      <trkpt lat="43.60934" lon="7.11016">
        <ele>59.960510253906</ele>
        <time>2020-05-14T15:37:40Z</time>
      </trkpt>
      <trkpt lat="43.60928" lon="7.11019">
        <ele>59.752136230469</ele>
        <time>2020-05-14T15:37:41Z</time>
      </trkpt>
      <trkpt lat="43.60922" lon="7.11022">
        <ele>60.195129394531</ele>
        <time>2020-05-14T15:37:42Z</time>
      </trkpt>
      <trkpt lat="43.60918" lon="7.11027">
        <ele>59.196533203125</ele>
        <time>2020-05-14T15:37:43Z</time>
      </trkpt>
      <trkpt lat="43.60912" lon="7.11031">
        <ele>59.080505371094</ele>
        <time>2020-05-14T15:37:44Z</time>
      </trkpt>
      <trkpt lat="43.60906" lon="7.11035">
        <ele>58.503601074219</ele>
        <time>2020-05-14T15:37:45Z</time>
      </trkpt>
      <trkpt lat="43.60901" lon="7.11039">
        <ele>58.152526855469</ele>
        <time>2020-05-14T15:37:46Z</time>
      </trkpt>
      <trkpt lat="43.60896" lon="7.11044">
        <ele>59.692810058594</ele>
        <time>2020-05-14T15:37:47Z</time>
      </trkpt>
      <trkpt lat="43.60891" lon="7.11048">
        <ele>60.298645019531</ele>
        <time>2020-05-14T15:37:48Z</time>
      </trkpt>
      <trkpt lat="43.60886" lon="7.11051">
        <ele>58.836547851562</ele>
        <time>2020-05-14T15:37:49Z</time>
      </trkpt>
      <trkpt lat="43.60881" lon="7.11056">
        <ele>59.427124023438</ele>
        <time>2020-05-14T15:37:50Z</time>
      </trkpt>
      <trkpt lat="43.60877" lon="7.11061">
        <ele>59.322937011719</ele>
        <time>2020-05-14T15:37:51Z</time>
      </trkpt>
      <trkpt lat="43.60872" lon="7.11064">
        <ele>59.502380371094</ele>
        <time>2020-05-14T15:37:52Z</time>
      </trkpt>
      <trkpt lat="43.60868" lon="7.11068">
        <ele>59.797668457031</ele>
        <time>2020-05-14T15:37:53Z</time>
      </trkpt>
      <trkpt lat="43.60864" lon="7.11072">
        <ele>59.937194824219</ele>
        <time>2020-05-14T15:37:54Z</time>
      </trkpt>
      <trkpt lat="43.60858" lon="7.11075">
        <ele>60.158264160156</ele>
        <time>2020-05-14T15:37:55Z</time>
      </trkpt>
      <trkpt lat="43.60853" lon="7.1108">
        <ele>59.998168945312</ele>
        <time>2020-05-14T15:37:56Z</time>
      </trkpt>
      <trkpt lat="43.60847" lon="7.11086">
        <ele>56.57861328125</ele>
        <time>2020-05-14T15:37:57Z</time>
      </trkpt>
      <trkpt lat="43.60842" lon="7.1109">
        <ele>56.38232421875</ele>
        <time>2020-05-14T15:37:58Z</time>
      </trkpt>
      <trkpt lat="43.60837" lon="7.11093">
        <ele>56.643005371094</ele>
        <time>2020-05-14T15:37:59Z</time>
      </trkpt>
      <trkpt lat="43.60832" lon="7.11096">
        <ele>56.800964355469</ele>
        <time>2020-05-14T15:38:00Z</time>
      </trkpt>
      <trkpt lat="43.60827" lon="7.111">
        <ele>56.730102539062</ele>
        <time>2020-05-14T15:38:01Z</time>
      </trkpt>
      <trkpt lat="43.60822" lon="7.11102">
        <ele>56.7783203125</ele>
        <time>2020-05-14T15:38:02Z</time>
      </trkpt>
      <trkpt lat="43.60817" lon="7.11106">
        <ele>56.798645019531</ele>
        <time>2020-05-14T15:38:03Z</time>
      </trkpt>
      <trkpt lat="43.60813" lon="7.11108">
        <ele>57.012451171875</ele>
        <time>2020-05-14T15:38:04Z</time>
      </trkpt>
      <trkpt lat="43.60808" lon="7.11111">
        <ele>57.238464355469</ele>
        <time>2020-05-14T15:38:05Z</time>
      </trkpt>
      <trkpt lat="43.60804" lon="7.11115">
        <ele>57.18115234375</ele>
        <time>2020-05-14T15:38:06Z</time>
      </trkpt>
      <trkpt lat="43.60799" lon="7.11118">
        <ele>57.054382324219</ele>
        <time>2020-05-14T15:38:07Z</time>
      </trkpt>
      <trkpt lat="43.60794" lon="7.1112">
        <ele>56.940307617188</ele>
        <time>2020-05-14T15:38:08Z</time>
      </trkpt>
      <trkpt lat="43.6079" lon="7.11122">
        <ele>56.981384277344</ele>
        <time>2020-05-14T15:38:09Z</time>
      </trkpt>
      <trkpt lat="43.60786" lon="7.11123">
        <ele>57.324645996094</ele>
        <time>2020-05-14T15:38:10Z</time>
      </trkpt>
      <trkpt lat="43.60781" lon="7.11123">
        <ele>57.375793457031</ele>
        <time>2020-05-14T15:38:11Z</time>
      </trkpt>
      <trkpt lat="43.60777" lon="7.11122">
        <ele>57.831848144531</ele>
        <time>2020-05-14T15:38:12Z</time>
      </trkpt>
      <trkpt lat="43.60772" lon="7.11121">
        <ele>57.742858886719</ele>
        <time>2020-05-14T15:38:13Z</time>
      </trkpt>
      <trkpt lat="43.60767" lon="7.11121">
        <ele>57.42431640625</ele>
        <time>2020-05-14T15:38:14Z</time>
      </trkpt>
      <trkpt lat="43.60763" lon="7.11122">
        <ele>57.680114746094</ele>
        <time>2020-05-14T15:38:15Z</time>
      </trkpt>
      <trkpt lat="43.6076" lon="7.11124">
        <ele>57.956665039062</ele>
        <time>2020-05-14T15:38:16Z</time>
      </trkpt>
      <trkpt lat="43.60756" lon="7.11126">
        <ele>57.995788574219</ele>
        <time>2020-05-14T15:38:17Z</time>
      </trkpt>
      <trkpt lat="43.60753" lon="7.11129">
        <ele>57.666564941406</ele>
        <time>2020-05-14T15:38:18Z</time>
      </trkpt>
      <trkpt lat="43.6075" lon="7.11132">
        <ele>58.316467285156</ele>
        <time>2020-05-14T15:38:19Z</time>
      </trkpt>
      <trkpt lat="43.60746" lon="7.11134">
        <ele>58.409729003906</ele>
        <time>2020-05-14T15:38:20Z</time>
      </trkpt>
      <trkpt lat="43.60743" lon="7.11134">
        <ele>58.833923339844</ele>
        <time>2020-05-14T15:38:21Z</time>
      </trkpt>
      <trkpt lat="43.60739" lon="7.11135">
        <ele>58.460754394531</ele>
        <time>2020-05-14T15:38:22Z</time>
      </trkpt>
      <trkpt lat="43.60735" lon="7.11135">
        <ele>58.488220214844</ele>
        <time>2020-05-14T15:38:23Z</time>
      </trkpt>
      <trkpt lat="43.60732" lon="7.11136">
        <ele>58.328857421875</ele>
        <time>2020-05-14T15:38:24Z</time>
      </trkpt>
      <trkpt lat="43.60729" lon="7.11137">
        <ele>58.381042480469</ele>
        <time>2020-05-14T15:38:25Z</time>
      </trkpt>
      <trkpt lat="43.60727" lon="7.11137">
        <ele>58.472473144531</ele>
        <time>2020-05-14T15:38:26Z</time>
      </trkpt>
      <trkpt lat="43.60724" lon="7.11138">
        <ele>58.7392578125</ele>
        <time>2020-05-14T15:38:27Z</time>
      </trkpt>
      <trkpt lat="43.60721" lon="7.11139">
        <ele>58.619689941406</ele>
        <time>2020-05-14T15:38:28Z</time>
      </trkpt>
      <trkpt lat="43.60718" lon="7.1114">
        <ele>59.306579589844</ele>
        <time>2020-05-14T15:38:29Z</time>
      </trkpt>
      <trkpt lat="43.60715" lon="7.1114">
        <ele>59.839477539062</ele>
        <time>2020-05-14T15:38:30Z</time>
      </trkpt>
      <trkpt lat="43.60713" lon="7.11141">
        <ele>60.688659667969</ele>
        <time>2020-05-14T15:38:31Z</time>
      </trkpt>
      <trkpt lat="43.6071" lon="7.11142">
        <ele>60.903198242188</ele>
        <time>2020-05-14T15:38:32Z</time>
      </trkpt>
      <trkpt lat="43.60707" lon="7.11143">
        <ele>60.161682128906</ele>
        <time>2020-05-14T15:38:33Z</time>
      </trkpt>
      <trkpt lat="43.60704" lon="7.11144">
        <ele>59.649658203125</ele>
        <time>2020-05-14T15:38:34Z</time>
      </trkpt>
      <trkpt lat="43.607" lon="7.11146">
        <ele>60.00830078125</ele>
        <time>2020-05-14T15:38:35Z</time>
      </trkpt>
      <trkpt lat="43.60697" lon="7.11147">
        <ele>60.276123046875</ele>
        <time>2020-05-14T15:38:36Z</time>
      </trkpt>
      <trkpt lat="43.60694" lon="7.11149">
        <ele>60.967041015625</ele>
        <time>2020-05-14T15:38:37Z</time>
      </trkpt>
      <trkpt lat="43.60692" lon="7.1115">
        <ele>60.264831542969</ele>
        <time>2020-05-14T15:38:38Z</time>
      </trkpt>
      <trkpt lat="43.60689" lon="7.11152">
        <ele>59.762390136719</ele>
        <time>2020-05-14T15:38:39Z</time>
      </trkpt>
      <trkpt lat="43.60686" lon="7.11154">
        <ele>60.25830078125</ele>
        <time>2020-05-14T15:38:40Z</time>
      </trkpt>
      <trkpt lat="43.60683" lon="7.11155">
        <ele>60.442504882812</ele>
        <time>2020-05-14T15:38:41Z</time>
      </trkpt>
      <trkpt lat="43.60679" lon="7.11156">
        <ele>61.16357421875</ele>
        <time>2020-05-14T15:38:42Z</time>
      </trkpt>
      <trkpt lat="43.60676" lon="7.11157">
        <ele>61.535522460938</ele>
        <time>2020-05-14T15:38:43Z</time>
      </trkpt>
      <trkpt lat="43.60673" lon="7.11158">
        <ele>61.06005859375</ele>
        <time>2020-05-14T15:38:44Z</time>
      </trkpt>
      <trkpt lat="43.60671" lon="7.11159">
        <ele>60.974975585938</ele>
        <time>2020-05-14T15:38:45Z</time>
      </trkpt>
      <trkpt lat="43.60669" lon="7.11161">
        <ele>61.043151855469</ele>
        <time>2020-05-14T15:38:46Z</time>
      </trkpt>
      <trkpt lat="43.60667" lon="7.11163">
        <ele>62.3681640625</ele>
        <time>2020-05-14T15:38:47Z</time>
      </trkpt>
      <trkpt lat="43.60664" lon="7.11164">
        <ele>62.607116699219</ele>
        <time>2020-05-14T15:38:48Z</time>
      </trkpt>
      <trkpt lat="43.60662" lon="7.11165">
        <ele>63.451049804688</ele>
        <time>2020-05-14T15:38:49Z</time>
      </trkpt>
      <trkpt lat="43.60659" lon="7.11166">
        <ele>63.542846679688</ele>
        <time>2020-05-14T15:38:50Z</time>
      </trkpt>
      <trkpt lat="43.60657" lon="7.11168">
        <ele>63.570495605469</ele>
        <time>2020-05-14T15:38:51Z</time>
      </trkpt>
      <trkpt lat="43.60655" lon="7.11169">
        <ele>63.590515136719</ele>
        <time>2020-05-14T15:38:52Z</time>
      </trkpt>
      <trkpt lat="43.60652" lon="7.11171">
        <ele>64.398498535156</ele>
        <time>2020-05-14T15:38:53Z</time>
      </trkpt>
      <trkpt lat="43.6065" lon="7.11172">
        <ele>64.643371582031</ele>
        <time>2020-05-14T15:38:54Z</time>
      </trkpt>
      <trkpt lat="43.60648" lon="7.11173">
        <ele>66.532409667969</ele>
        <time>2020-05-14T15:38:55Z</time>
      </trkpt>
      <trkpt lat="43.60645" lon="7.11174">
        <ele>66.933349609375</ele>
        <time>2020-05-14T15:38:56Z</time>
      </trkpt>
      <trkpt lat="43.60643" lon="7.11175">
        <ele>67.408447265625</ele>
        <time>2020-05-14T15:38:57Z</time>
      </trkpt>
      <trkpt lat="43.60641" lon="7.11176">
        <ele>67.672302246094</ele>
        <time>2020-05-14T15:38:58Z</time>
      </trkpt>
      <trkpt lat="43.60638" lon="7.11178">
        <ele>67.658630371094</ele>
        <time>2020-05-14T15:38:59Z</time>
      </trkpt>
      <trkpt lat="43.60636" lon="7.11179">
        <ele>67.392578125</ele>
        <time>2020-05-14T15:39:00Z</time>
      </trkpt>
      <trkpt lat="43.60633" lon="7.11181">
        <ele>67.572875976562</ele>
        <time>2020-05-14T15:39:01Z</time>
      </trkpt>
      <trkpt lat="43.60631" lon="7.11182">
        <ele>67.613342285156</ele>
        <time>2020-05-14T15:39:02Z</time>
      </trkpt>
      <trkpt lat="43.60629" lon="7.11183">
        <ele>67.459899902344</ele>
        <time>2020-05-14T15:39:03Z</time>
      </trkpt>
      <trkpt lat="43.60627" lon="7.11183">
        <ele>67.212829589844</ele>
        <time>2020-05-14T15:39:04Z</time>
      </trkpt>
      <trkpt lat="43.60624" lon="7.11184">
        <ele>67.13232421875</ele>
        <time>2020-05-14T15:39:05Z</time>
      </trkpt>
      <trkpt lat="43.60622" lon="7.11186">
        <ele>62.0205078125</ele>
        <time>2020-05-14T15:39:06Z</time>
      </trkpt>
      <trkpt lat="43.6062" lon="7.11188">
        <ele>62.270385742188</ele>
        <time>2020-05-14T15:39:07Z</time>
      </trkpt>
      <trkpt lat="43.60617" lon="7.1119">
        <ele>62.236083984375</ele>
        <time>2020-05-14T15:39:08Z</time>
      </trkpt>
      <trkpt lat="43.60615" lon="7.11192">
        <ele>62.205932617188</ele>
        <time>2020-05-14T15:39:09Z</time>
      </trkpt>
      <trkpt lat="43.60613" lon="7.11194">
        <ele>64.573852539062</ele>
        <time>2020-05-14T15:39:10Z</time>
      </trkpt>
      <trkpt lat="43.60611" lon="7.11196">
        <ele>63.18994140625</ele>
        <time>2020-05-14T15:39:11Z</time>
      </trkpt>
      <trkpt lat="43.60609" lon="7.11198">
        <ele>62.980651855469</ele>
        <time>2020-05-14T15:39:12Z</time>
      </trkpt>
      <trkpt lat="43.60607" lon="7.112">
        <ele>63.366638183594</ele>
        <time>2020-05-14T15:39:13Z</time>
      </trkpt>
      <trkpt lat="43.60605" lon="7.11202">
        <ele>63.559631347656</ele>
        <time>2020-05-14T15:39:14Z</time>
      </trkpt>
      <trkpt lat="43.60603" lon="7.11203">
        <ele>64.204772949219</ele>
        <time>2020-05-14T15:39:15Z</time>
      </trkpt>
      <trkpt lat="43.60601" lon="7.11204">
        <ele>65.079711914062</ele>
        <time>2020-05-14T15:39:16Z</time>
      </trkpt>
      <trkpt lat="43.60599" lon="7.11205">
        <ele>68.205993652344</ele>
        <time>2020-05-14T15:39:17Z</time>
      </trkpt>
      <trkpt lat="43.60598" lon="7.11207">
        <ele>69.038452148438</ele>
        <time>2020-05-14T15:39:18Z</time>
      </trkpt>
      <trkpt lat="43.60597" lon="7.11208">
        <ele>69.660034179688</ele>
        <time>2020-05-14T15:39:19Z</time>
      </trkpt>
      <trkpt lat="43.60596" lon="7.11209">
        <ele>70.05517578125</ele>
        <time>2020-05-14T15:39:20Z</time>
      </trkpt>
      <trkpt lat="43.60595" lon="7.1121">
        <ele>69.493103027344</ele>
        <time>2020-05-14T15:39:21Z</time>
      </trkpt>
      <trkpt lat="43.60593" lon="7.11212">
        <ele>74.324523925781</ele>
        <time>2020-05-14T15:39:22Z</time>
      </trkpt>
      <trkpt lat="43.60591" lon="7.11213">
        <ele>74.719482421875</ele>
        <time>2020-05-14T15:39:23Z</time>
      </trkpt>
      <trkpt lat="43.60588" lon="7.11215">
        <ele>74.299621582031</ele>
        <time>2020-05-14T15:39:24Z</time>
      </trkpt>
      <trkpt lat="43.60586" lon="7.11216">
        <ele>74.462158203125</ele>
        <time>2020-05-14T15:39:25Z</time>
      </trkpt>
      <trkpt lat="43.60583" lon="7.11218">
        <ele>75.23291015625</ele>
        <time>2020-05-14T15:39:26Z</time>
      </trkpt>
      <trkpt lat="43.60581" lon="7.1122">
        <ele>74.987121582031</ele>
        <time>2020-05-14T15:39:27Z</time>
      </trkpt>
      <trkpt lat="43.60579" lon="7.11221">
        <ele>75.041564941406</ele>
        <time>2020-05-14T15:39:28Z</time>
      </trkpt>
      <trkpt lat="43.60576" lon="7.11223">
        <ele>75.439453125</ele>
        <time>2020-05-14T15:39:29Z</time>
      </trkpt>
      <trkpt lat="43.60573" lon="7.11225">
        <ele>74.613159179688</ele>
        <time>2020-05-14T15:39:30Z</time>
      </trkpt>
      <trkpt lat="43.60571" lon="7.11227">
        <ele>74.417846679688</ele>
        <time>2020-05-14T15:39:31Z</time>
      </trkpt>
      <trkpt lat="43.60568" lon="7.11229">
        <ele>74.226623535156</ele>
        <time>2020-05-14T15:39:32Z</time>
      </trkpt>
      <trkpt lat="43.60566" lon="7.1123">
        <ele>74.330200195312</ele>
        <time>2020-05-14T15:39:33Z</time>
      </trkpt>
      <trkpt lat="43.60562" lon="7.11231">
        <ele>73.970092773438</ele>
        <time>2020-05-14T15:39:34Z</time>
      </trkpt>
      <trkpt lat="43.60559" lon="7.11232">
        <ele>74.469360351562</ele>
        <time>2020-05-14T15:39:35Z</time>
      </trkpt>
      <trkpt lat="43.60556" lon="7.11233">
        <ele>74.452087402344</ele>
        <time>2020-05-14T15:39:36Z</time>
      </trkpt>
      <trkpt lat="43.60553" lon="7.11233">
        <ele>74.56884765625</ele>
        <time>2020-05-14T15:39:37Z</time>
      </trkpt>
      <trkpt lat="43.6055" lon="7.11234">
        <ele>74.720886230469</ele>
        <time>2020-05-14T15:39:38Z</time>
      </trkpt>
      <trkpt lat="43.60546" lon="7.11234">
        <ele>74.905883789062</ele>
        <time>2020-05-14T15:39:39Z</time>
      </trkpt>
      <trkpt lat="43.60543" lon="7.11235">
        <ele>75.054504394531</ele>
        <time>2020-05-14T15:39:40Z</time>
      </trkpt>
      <trkpt lat="43.6054" lon="7.11234">
        <ele>75.815612792969</ele>
        <time>2020-05-14T15:39:41Z</time>
      </trkpt>
      <trkpt lat="43.60537" lon="7.11234">
        <ele>76.237121582031</ele>
        <time>2020-05-14T15:39:42Z</time>
      </trkpt>
      <trkpt lat="43.60533" lon="7.11234">
        <ele>76.063720703125</ele>
        <time>2020-05-14T15:39:43Z</time>
      </trkpt>
      <trkpt lat="43.6053" lon="7.11234">
        <ele>75.854248046875</ele>
        <time>2020-05-14T15:39:44Z</time>
      </trkpt>
      <trkpt lat="43.60527" lon="7.11233">
        <ele>75.924438476562</ele>
        <time>2020-05-14T15:39:45Z</time>
      </trkpt>
      <trkpt lat="43.60525" lon="7.11233">
        <ele>75.41552734375</ele>
        <time>2020-05-14T15:39:46Z</time>
      </trkpt>
      <trkpt lat="43.60522" lon="7.11232">
        <ele>75.556274414062</ele>
        <time>2020-05-14T15:39:47Z</time>
      </trkpt>
      <trkpt lat="43.6052" lon="7.11232">
        <ele>75.163635253906</ele>
        <time>2020-05-14T15:39:48Z</time>
      </trkpt>
      <trkpt lat="43.60517" lon="7.11231">
        <ele>74.817626953125</ele>
        <time>2020-05-14T15:39:49Z</time>
      </trkpt>
      <trkpt lat="43.60515" lon="7.1123">
        <ele>74.767822265625</ele>
        <time>2020-05-14T15:39:50Z</time>
      </trkpt>
      <trkpt lat="43.60512" lon="7.1123">
        <ele>74.684326171875</ele>
        <time>2020-05-14T15:39:51Z</time>
      </trkpt>
      <trkpt lat="43.6051" lon="7.1123">
        <ele>74.888427734375</ele>
        <time>2020-05-14T15:39:52Z</time>
      </trkpt>
      <trkpt lat="43.60507" lon="7.11229">
        <ele>74.910705566406</ele>
        <time>2020-05-14T15:39:53Z</time>
      </trkpt>
      <trkpt lat="43.60505" lon="7.11229">
        <ele>74.767822265625</ele>
        <time>2020-05-14T15:39:54Z</time>
      </trkpt>
      <trkpt lat="43.60502" lon="7.11228">
        <ele>73.885986328125</ele>
        <time>2020-05-14T15:39:55Z</time>
      </trkpt>
      <trkpt lat="43.60499" lon="7.11228">
        <ele>73.701416015625</ele>
        <time>2020-05-14T15:39:56Z</time>
      </trkpt>
      <trkpt lat="43.60496" lon="7.11227">
        <ele>73.642272949219</ele>
        <time>2020-05-14T15:39:57Z</time>
      </trkpt>
      <trkpt lat="43.60493" lon="7.11227">
        <ele>74.068420410156</ele>
        <time>2020-05-14T15:39:58Z</time>
      </trkpt>
      <trkpt lat="43.60489" lon="7.11227">
        <ele>74.360229492188</ele>
        <time>2020-05-14T15:39:59Z</time>
      </trkpt>
      <trkpt lat="43.60485" lon="7.11227">
        <ele>74.612060546875</ele>
        <time>2020-05-14T15:40:00Z</time>
      </trkpt>
      <trkpt lat="43.60482" lon="7.11227">
        <ele>74.885620117188</ele>
        <time>2020-05-14T15:40:01Z</time>
      </trkpt>
      <trkpt lat="43.60479" lon="7.11227">
        <ele>75.200622558594</ele>
        <time>2020-05-14T15:40:02Z</time>
      </trkpt>
      <trkpt lat="43.60476" lon="7.11227">
        <ele>75.489868164062</ele>
        <time>2020-05-14T15:40:03Z</time>
      </trkpt>
      <trkpt lat="43.60472" lon="7.11227">
        <ele>75.689575195312</ele>
        <time>2020-05-14T15:40:04Z</time>
      </trkpt>
      <trkpt lat="43.60469" lon="7.11227">
        <ele>76.461242675781</ele>
        <time>2020-05-14T15:40:05Z</time>
      </trkpt>
      <trkpt lat="43.60466" lon="7.11228">
        <ele>76.271545410156</ele>
        <time>2020-05-14T15:40:06Z</time>
      </trkpt>
      <trkpt lat="43.60463" lon="7.11228">
        <ele>77.064453125</ele>
        <time>2020-05-14T15:40:07Z</time>
      </trkpt>
      <trkpt lat="43.6046" lon="7.11228">
        <ele>77.793334960938</ele>
        <time>2020-05-14T15:40:08Z</time>
      </trkpt>
      <trkpt lat="43.60456" lon="7.11228">
        <ele>78.258850097656</ele>
        <time>2020-05-14T15:40:09Z</time>
      </trkpt>
      <trkpt lat="43.60453" lon="7.11228">
        <ele>77.091613769531</ele>
        <time>2020-05-14T15:40:10Z</time>
      </trkpt>
      <trkpt lat="43.6045" lon="7.11228">
        <ele>76.764587402344</ele>
        <time>2020-05-14T15:40:11Z</time>
      </trkpt>
      <trkpt lat="43.60446" lon="7.11228">
        <ele>76.1162109375</ele>
        <time>2020-05-14T15:40:12Z</time>
      </trkpt>
      <trkpt lat="43.60442" lon="7.11229">
        <ele>75.553466796875</ele>
        <time>2020-05-14T15:40:13Z</time>
      </trkpt>
      <trkpt lat="43.60438" lon="7.11229">
        <ele>75.902893066406</ele>
        <time>2020-05-14T15:40:14Z</time>
      </trkpt>
      <trkpt lat="43.60434" lon="7.11229">
        <ele>75.502563476562</ele>
        <time>2020-05-14T15:40:15Z</time>
      </trkpt>
      <trkpt lat="43.6043" lon="7.1123">
        <ele>75.285522460938</ele>
        <time>2020-05-14T15:40:16Z</time>
      </trkpt>
      <trkpt lat="43.60426" lon="7.1123">
        <ele>75.013793945312</ele>
        <time>2020-05-14T15:40:17Z</time>
      </trkpt>
      <trkpt lat="43.60422" lon="7.11231">
        <ele>74.672424316406</ele>
        <time>2020-05-14T15:40:18Z</time>
      </trkpt>
      <trkpt lat="43.60418" lon="7.11232">
        <ele>74.673278808594</ele>
        <time>2020-05-14T15:40:19Z</time>
      </trkpt>
      <trkpt lat="43.60414" lon="7.11233">
        <ele>74.576599121094</ele>
        <time>2020-05-14T15:40:20Z</time>
      </trkpt>
      <trkpt lat="43.6041" lon="7.11234">
        <ele>74.234191894531</ele>
        <time>2020-05-14T15:40:21Z</time>
      </trkpt>
      <trkpt lat="43.60405" lon="7.11236">
        <ele>74.362548828125</ele>
        <time>2020-05-14T15:40:22Z</time>
      </trkpt>
      <trkpt lat="43.60401" lon="7.11238">
        <ele>74.09912109375</ele>
        <time>2020-05-14T15:40:23Z</time>
      </trkpt>
      <trkpt lat="43.60397" lon="7.1124">
        <ele>74.204711914062</ele>
        <time>2020-05-14T15:40:24Z</time>
      </trkpt>
      <trkpt lat="43.60392" lon="7.11242">
        <ele>74.248779296875</ele>
        <time>2020-05-14T15:40:25Z</time>
      </trkpt>
      <trkpt lat="43.60388" lon="7.11246">
        <ele>74.615905761719</ele>
        <time>2020-05-14T15:40:26Z</time>
      </trkpt>
      <trkpt lat="43.60383" lon="7.11247">
        <ele>74.816528320312</ele>
        <time>2020-05-14T15:40:27Z</time>
      </trkpt>
      <trkpt lat="43.60379" lon="7.11248">
        <ele>75.721740722656</ele>
        <time>2020-05-14T15:40:28Z</time>
      </trkpt>
      <trkpt lat="43.60374" lon="7.11249">
        <ele>75.622863769531</ele>
        <time>2020-05-14T15:40:29Z</time>
      </trkpt>
      <trkpt lat="43.6037" lon="7.11249">
        <ele>75.474609375</ele>
        <time>2020-05-14T15:40:30Z</time>
      </trkpt>
      <trkpt lat="43.60366" lon="7.11248">
        <ele>75.830322265625</ele>
        <time>2020-05-14T15:40:31Z</time>
      </trkpt>
      <trkpt lat="43.60362" lon="7.11248">
        <ele>75.926818847656</ele>
        <time>2020-05-14T15:40:32Z</time>
      </trkpt>
      <trkpt lat="43.60358" lon="7.11249">
        <ele>75.674499511719</ele>
        <time>2020-05-14T15:40:33Z</time>
      </trkpt>
      <trkpt lat="43.60354" lon="7.11248">
        <ele>75.511962890625</ele>
        <time>2020-05-14T15:40:34Z</time>
      </trkpt>
      <trkpt lat="43.60349" lon="7.11248">
        <ele>75.871154785156</ele>
        <time>2020-05-14T15:40:35Z</time>
      </trkpt>
      <trkpt lat="43.60345" lon="7.11247">
        <ele>75.783508300781</ele>
        <time>2020-05-14T15:40:36Z</time>
      </trkpt>
      <trkpt lat="43.60341" lon="7.11246">
        <ele>75.202819824219</ele>
        <time>2020-05-14T15:40:37Z</time>
      </trkpt>
      <trkpt lat="43.60337" lon="7.11245">
        <ele>75.033203125</ele>
        <time>2020-05-14T15:40:38Z</time>
      </trkpt>
      <trkpt lat="43.60334" lon="7.11244">
        <ele>75.118896484375</ele>
        <time>2020-05-14T15:40:39Z</time>
      </trkpt>
      <trkpt lat="43.60331" lon="7.11242">
        <ele>75.614318847656</ele>
        <time>2020-05-14T15:40:40Z</time>
      </trkpt>
      <trkpt lat="43.60329" lon="7.1124">
        <ele>75.58251953125</ele>
        <time>2020-05-14T15:40:41Z</time>
      </trkpt>
      <trkpt lat="43.60327" lon="7.11238">
        <ele>75.152282714844</ele>
        <time>2020-05-14T15:40:42Z</time>
      </trkpt>
      <trkpt lat="43.60324" lon="7.11235">
        <ele>75.0634765625</ele>
        <time>2020-05-14T15:40:43Z</time>
      </trkpt>
      <trkpt lat="43.60321" lon="7.11233">
        <ele>75.143737792969</ele>
        <time>2020-05-14T15:40:44Z</time>
      </trkpt>
      <trkpt lat="43.60317" lon="7.11231">
        <ele>74.708862304688</ele>
        <time>2020-05-14T15:40:45Z</time>
      </trkpt>
      <trkpt lat="43.60313" lon="7.11229">
        <ele>74.986328125</ele>
        <time>2020-05-14T15:40:46Z</time>
      </trkpt>
      <trkpt lat="43.60306" lon="7.11229">
        <ele>75.078247070312</ele>
        <time>2020-05-14T15:40:47Z</time>
      </trkpt>
      <trkpt lat="43.60301" lon="7.11229">
        <ele>75.270324707031</ele>
        <time>2020-05-14T15:40:48Z</time>
      </trkpt>
      <trkpt lat="43.60297" lon="7.1123">
        <ele>74.744384765625</ele>
        <time>2020-05-14T15:40:49Z</time>
      </trkpt>
      <trkpt lat="43.60295" lon="7.11234">
        <ele>74.666687011719</ele>
        <time>2020-05-14T15:40:50Z</time>
      </trkpt>
      <trkpt lat="43.60292" lon="7.11239">
        <ele>74.655883789062</ele>
        <time>2020-05-14T15:40:51Z</time>
      </trkpt>
      <trkpt lat="43.6029" lon="7.11244">
        <ele>74.797302246094</ele>
        <time>2020-05-14T15:40:52Z</time>
      </trkpt>
      <trkpt lat="43.60287" lon="7.11249">
        <ele>74.296264648438</ele>
        <time>2020-05-14T15:40:53Z</time>
      </trkpt>
      <trkpt lat="43.60282" lon="7.11252">
        <ele>73.886352539062</ele>
        <time>2020-05-14T15:40:54Z</time>
      </trkpt>
      <trkpt lat="43.60278" lon="7.11254">
        <ele>74.462646484375</ele>
        <time>2020-05-14T15:40:55Z</time>
      </trkpt>
      <trkpt lat="43.60273" lon="7.11255">
        <ele>74.374145507812</ele>
        <time>2020-05-14T15:40:56Z</time>
      </trkpt>
      <trkpt lat="43.60269" lon="7.11257">
        <ele>74.515258789062</ele>
        <time>2020-05-14T15:40:57Z</time>
      </trkpt>
      <trkpt lat="43.60264" lon="7.11258">
        <ele>74.765747070312</ele>
        <time>2020-05-14T15:40:58Z</time>
      </trkpt>
      <trkpt lat="43.60258" lon="7.11257">
        <ele>74.663513183594</ele>
        <time>2020-05-14T15:40:59Z</time>
      </trkpt>
      <trkpt lat="43.60253" lon="7.11258">
        <ele>74.601196289062</ele>
        <time>2020-05-14T15:41:00Z</time>
      </trkpt>
      <trkpt lat="43.60248" lon="7.11258">
        <ele>74.726135253906</ele>
        <time>2020-05-14T15:41:01Z</time>
      </trkpt>
      <trkpt lat="43.60243" lon="7.11258">
        <ele>74.651977539062</ele>
        <time>2020-05-14T15:41:02Z</time>
      </trkpt>
      <trkpt lat="43.60238" lon="7.11257">
        <ele>74.940368652344</ele>
        <time>2020-05-14T15:41:03Z</time>
      </trkpt>
      <trkpt lat="43.60232" lon="7.11257">
        <ele>75.114379882812</ele>
        <time>2020-05-14T15:41:04Z</time>
      </trkpt>
      <trkpt lat="43.60227" lon="7.11256">
        <ele>75.156066894531</ele>
        <time>2020-05-14T15:41:05Z</time>
      </trkpt>
      <trkpt lat="43.60221" lon="7.11255">
        <ele>75.240112304688</ele>
        <time>2020-05-14T15:41:06Z</time>
      </trkpt>
      <trkpt lat="43.60216" lon="7.11254">
        <ele>75.401184082031</ele>
        <time>2020-05-14T15:41:07Z</time>
      </trkpt>
      <trkpt lat="43.60211" lon="7.11254">
        <ele>75.805786132812</ele>
        <time>2020-05-14T15:41:08Z</time>
      </trkpt>
      <trkpt lat="43.60205" lon="7.11253">
        <ele>75.940368652344</ele>
        <time>2020-05-14T15:41:09Z</time>
      </trkpt>
      <trkpt lat="43.602" lon="7.11253">
        <ele>75.53515625</ele>
        <time>2020-05-14T15:41:10Z</time>
      </trkpt>
      <trkpt lat="43.60194" lon="7.11253">
        <ele>75.212158203125</ele>
        <time>2020-05-14T15:41:11Z</time>
      </trkpt>
      <trkpt lat="43.60188" lon="7.11253">
        <ele>74.793029785156</ele>
        <time>2020-05-14T15:41:12Z</time>
      </trkpt>
      <trkpt lat="43.60183" lon="7.11253">
        <ele>75.263305664062</ele>
        <time>2020-05-14T15:41:13Z</time>
      </trkpt>
      <trkpt lat="43.60177" lon="7.11254">
        <ele>74.931518554688</ele>
        <time>2020-05-14T15:41:14Z</time>
      </trkpt>
      <trkpt lat="43.60172" lon="7.11255">
        <ele>74.349670410156</ele>
        <time>2020-05-14T15:41:15Z</time>
      </trkpt>
      <trkpt lat="43.60166" lon="7.11256">
        <ele>74.378967285156</ele>
        <time>2020-05-14T15:41:16Z</time>
      </trkpt>
      <trkpt lat="43.6016" lon="7.11256">
        <ele>74.66748046875</ele>
        <time>2020-05-14T15:41:17Z</time>
      </trkpt>
      <trkpt lat="43.60153" lon="7.11256">
        <ele>74.550048828125</ele>
        <time>2020-05-14T15:41:18Z</time>
      </trkpt>
      <trkpt lat="43.60146" lon="7.11258">
        <ele>74.392822265625</ele>
        <time>2020-05-14T15:41:19Z</time>
      </trkpt>
      <trkpt lat="43.6014" lon="7.11259">
        <ele>74.266357421875</ele>
        <time>2020-05-14T15:41:20Z</time>
      </trkpt>
      <trkpt lat="43.60136" lon="7.11261">
        <ele>74.457824707031</ele>
        <time>2020-05-14T15:41:21Z</time>
      </trkpt>
      <trkpt lat="43.60131" lon="7.11262">
        <ele>74.862854003906</ele>
        <time>2020-05-14T15:41:22Z</time>
      </trkpt>
      <trkpt lat="43.60126" lon="7.11263">
        <ele>74.936279296875</ele>
        <time>2020-05-14T15:41:23Z</time>
      </trkpt>
      <trkpt lat="43.60121" lon="7.11264">
        <ele>75.146545410156</ele>
        <time>2020-05-14T15:41:24Z</time>
      </trkpt>
      <trkpt lat="43.60115" lon="7.11266">
        <ele>74.878845214844</ele>
        <time>2020-05-14T15:41:25Z</time>
      </trkpt>
      <trkpt lat="43.60109" lon="7.11267">
        <ele>75.521240234375</ele>
        <time>2020-05-14T15:41:26Z</time>
      </trkpt>
      <trkpt lat="43.60105" lon="7.11267">
        <ele>75.464294433594</ele>
        <time>2020-05-14T15:41:27Z</time>
      </trkpt>
      <trkpt lat="43.60099" lon="7.11269">
        <ele>90.703002929688</ele>
        <time>2020-05-14T15:41:28Z</time>
      </trkpt>
      <trkpt lat="43.60093" lon="7.1127">
        <ele>88.451171875</ele>
        <time>2020-05-14T15:41:29Z</time>
      </trkpt>
      <trkpt lat="43.60088" lon="7.11271">
        <ele>87.809692382812</ele>
        <time>2020-05-14T15:41:30Z</time>
      </trkpt>
      <trkpt lat="43.60082" lon="7.11272">
        <ele>87.280212402344</ele>
        <time>2020-05-14T15:41:31Z</time>
      </trkpt>
      <trkpt lat="43.60076" lon="7.11273">
        <ele>86.564147949219</ele>
        <time>2020-05-14T15:41:32Z</time>
      </trkpt>
      <trkpt lat="43.6007" lon="7.11275">
        <ele>86.382568359375</ele>
        <time>2020-05-14T15:41:33Z</time>
      </trkpt>
      <trkpt lat="43.60064" lon="7.11276">
        <ele>86.5849609375</ele>
        <time>2020-05-14T15:41:34Z</time>
      </trkpt>
      <trkpt lat="43.60058" lon="7.11277">
        <ele>85.7900390625</ele>
        <time>2020-05-14T15:41:35Z</time>
      </trkpt>
      <trkpt lat="43.60052" lon="7.11279">
        <ele>85.514892578125</ele>
        <time>2020-05-14T15:41:36Z</time>
      </trkpt>
      <trkpt lat="43.60046" lon="7.11279">
        <ele>85.231262207031</ele>
        <time>2020-05-14T15:41:37Z</time>
      </trkpt>
      <trkpt lat="43.6004" lon="7.11282">
        <ele>86.125244140625</ele>
        <time>2020-05-14T15:41:38Z</time>
      </trkpt>
      <trkpt lat="43.60035" lon="7.11283">
        <ele>85.949890136719</ele>
        <time>2020-05-14T15:41:39Z</time>
      </trkpt>
      <trkpt lat="43.6003" lon="7.11283">
        <ele>85.334167480469</ele>
        <time>2020-05-14T15:41:40Z</time>
      </trkpt>
      <trkpt lat="43.60023" lon="7.11285">
        <ele>84.6181640625</ele>
        <time>2020-05-14T15:41:41Z</time>
      </trkpt>
      <trkpt lat="43.60017" lon="7.11287">
        <ele>84.173889160156</ele>
        <time>2020-05-14T15:41:42Z</time>
      </trkpt>
      <trkpt lat="43.60012" lon="7.1129">
        <ele>85.107360839844</ele>
        <time>2020-05-14T15:41:43Z</time>
      </trkpt>
      <trkpt lat="43.60006" lon="7.11293">
        <ele>84.750244140625</ele>
        <time>2020-05-14T15:41:44Z</time>
      </trkpt>
      <trkpt lat="43.60002" lon="7.11296">
        <ele>84.23486328125</ele>
        <time>2020-05-14T15:41:45Z</time>
      </trkpt>
      <trkpt lat="43.59997" lon="7.11297">
        <ele>84.18798828125</ele>
        <time>2020-05-14T15:41:46Z</time>
      </trkpt>
      <trkpt lat="43.59993" lon="7.11297">
        <ele>84.869689941406</ele>
        <time>2020-05-14T15:41:47Z</time>
      </trkpt>
      <trkpt lat="43.59987" lon="7.11298">
        <ele>85.457153320312</ele>
        <time>2020-05-14T15:41:48Z</time>
      </trkpt>
      <trkpt lat="43.59983" lon="7.11298">
        <ele>84.672302246094</ele>
        <time>2020-05-14T15:41:49Z</time>
      </trkpt>
      <trkpt lat="43.59977" lon="7.11298">
        <ele>85.149475097656</ele>
        <time>2020-05-14T15:41:50Z</time>
      </trkpt>
      <trkpt lat="43.59972" lon="7.11299">
        <ele>85.689575195312</ele>
        <time>2020-05-14T15:41:51Z</time>
      </trkpt>
      <trkpt lat="43.59967" lon="7.113">
        <ele>85.773193359375</ele>
        <time>2020-05-14T15:41:52Z</time>
      </trkpt>
      <trkpt lat="43.59963" lon="7.113">
        <ele>86.146118164062</ele>
        <time>2020-05-14T15:41:53Z</time>
      </trkpt>
      <trkpt lat="43.59957" lon="7.113">
        <ele>86.543029785156</ele>
        <time>2020-05-14T15:41:54Z</time>
      </trkpt>
      <trkpt lat="43.59952" lon="7.113">
        <ele>85.548156738281</ele>
        <time>2020-05-14T15:41:55Z</time>
      </trkpt>
      <trkpt lat="43.59947" lon="7.11301">
        <ele>85.544799804688</ele>
        <time>2020-05-14T15:41:56Z</time>
      </trkpt>
      <trkpt lat="43.59942" lon="7.113">
        <ele>86.163208007812</ele>
        <time>2020-05-14T15:41:57Z</time>
      </trkpt>
      <trkpt lat="43.59935" lon="7.113">
        <ele>85.598815917969</ele>
        <time>2020-05-14T15:41:58Z</time>
      </trkpt>
      <trkpt lat="43.5993" lon="7.113">
        <ele>85.885620117188</ele>
        <time>2020-05-14T15:41:59Z</time>
      </trkpt>
      <trkpt lat="43.59926" lon="7.113">
        <ele>86.671752929688</ele>
        <time>2020-05-14T15:42:00Z</time>
      </trkpt>
      <trkpt lat="43.59922" lon="7.113">
        <ele>86.898010253906</ele>
        <time>2020-05-14T15:42:01Z</time>
      </trkpt>
      <trkpt lat="43.59916" lon="7.11301">
        <ele>87.298889160156</ele>
        <time>2020-05-14T15:42:02Z</time>
      </trkpt>
      <trkpt lat="43.59912" lon="7.11302">
        <ele>86.217895507812</ele>
        <time>2020-05-14T15:42:03Z</time>
      </trkpt>
      <trkpt lat="43.59908" lon="7.11302">
        <ele>85.203979492188</ele>
        <time>2020-05-14T15:42:04Z</time>
      </trkpt>
      <trkpt lat="43.59902" lon="7.11303">
        <ele>84.168090820312</ele>
        <time>2020-05-14T15:42:05Z</time>
      </trkpt>
      <trkpt lat="43.59898" lon="7.11302">
        <ele>83.362915039062</ele>
        <time>2020-05-14T15:42:06Z</time>
      </trkpt>
      <trkpt lat="43.59893" lon="7.11302">
        <ele>84.173034667969</ele>
        <time>2020-05-14T15:42:07Z</time>
      </trkpt>
      <trkpt lat="43.59889" lon="7.11304">
        <ele>85.480224609375</ele>
        <time>2020-05-14T15:42:08Z</time>
      </trkpt>
      <trkpt lat="43.59886" lon="7.11305">
        <ele>87.109985351562</ele>
        <time>2020-05-14T15:42:09Z</time>
      </trkpt>
      <trkpt lat="43.5988" lon="7.11306">
        <ele>87.795593261719</ele>
        <time>2020-05-14T15:42:10Z</time>
      </trkpt>
      <trkpt lat="43.59876" lon="7.11306">
        <ele>87.7353515625</ele>
        <time>2020-05-14T15:42:11Z</time>
      </trkpt>
      <trkpt lat="43.5987" lon="7.11309">
        <ele>86.325500488281</ele>
        <time>2020-05-14T15:42:12Z</time>
      </trkpt>
      <trkpt lat="43.59866" lon="7.1131">
        <ele>85.622497558594</ele>
        <time>2020-05-14T15:42:13Z</time>
      </trkpt>
      <trkpt lat="43.59862" lon="7.11312">
        <ele>85.34765625</ele>
        <time>2020-05-14T15:42:14Z</time>
      </trkpt>
      <trkpt lat="43.59859" lon="7.11314">
        <ele>85.311950683594</ele>
        <time>2020-05-14T15:42:15Z</time>
      </trkpt>
      <trkpt lat="43.59854" lon="7.11316">
        <ele>85.1298828125</ele>
        <time>2020-05-14T15:42:16Z</time>
      </trkpt>
      <trkpt lat="43.5985" lon="7.11319">
        <ele>85.910766601562</ele>
        <time>2020-05-14T15:42:17Z</time>
      </trkpt>
      <trkpt lat="43.59845" lon="7.11321">
        <ele>87.186706542969</ele>
        <time>2020-05-14T15:42:18Z</time>
      </trkpt>
      <trkpt lat="43.5984" lon="7.11323">
        <ele>88.229553222656</ele>
        <time>2020-05-14T15:42:19Z</time>
      </trkpt>
      <trkpt lat="43.59836" lon="7.11326">
        <ele>88.680297851562</ele>
        <time>2020-05-14T15:42:20Z</time>
      </trkpt>
      <trkpt lat="43.59831" lon="7.11328">
        <ele>88.753295898438</ele>
        <time>2020-05-14T15:42:21Z</time>
      </trkpt>
      <trkpt lat="43.59826" lon="7.1133">
        <ele>88.347473144531</ele>
        <time>2020-05-14T15:42:22Z</time>
      </trkpt>
      <trkpt lat="43.59822" lon="7.11332">
        <ele>81.108520507812</ele>
        <time>2020-05-14T15:42:23Z</time>
      </trkpt>
      <trkpt lat="43.59818" lon="7.11334">
        <ele>80.299682617188</ele>
        <time>2020-05-14T15:42:24Z</time>
      </trkpt>
      <trkpt lat="43.59812" lon="7.11336">
        <ele>80.665283203125</ele>
        <time>2020-05-14T15:42:25Z</time>
      </trkpt>
      <trkpt lat="43.59808" lon="7.11337">
        <ele>81.028259277344</ele>
        <time>2020-05-14T15:42:26Z</time>
      </trkpt>
      <trkpt lat="43.59804" lon="7.11339">
        <ele>81.251586914062</ele>
        <time>2020-05-14T15:42:27Z</time>
      </trkpt>
      <trkpt lat="43.598" lon="7.11342">
        <ele>81.139587402344</ele>
        <time>2020-05-14T15:42:28Z</time>
      </trkpt>
      <trkpt lat="43.59794" lon="7.11345">
        <ele>81.062622070312</ele>
        <time>2020-05-14T15:42:29Z</time>
      </trkpt>
      <trkpt lat="43.59789" lon="7.11347">
        <ele>80.720031738281</ele>
        <time>2020-05-14T15:42:30Z</time>
      </trkpt>
      <trkpt lat="43.59785" lon="7.11349">
        <ele>79.911499023438</ele>
        <time>2020-05-14T15:42:31Z</time>
      </trkpt>
      <trkpt lat="43.5978" lon="7.1135">
        <ele>79.321899414062</ele>
        <time>2020-05-14T15:42:32Z</time>
      </trkpt>
      <trkpt lat="43.59776" lon="7.11352">
        <ele>79.192565917969</ele>
        <time>2020-05-14T15:42:33Z</time>
      </trkpt>
      <trkpt lat="43.59772" lon="7.11353">
        <ele>79.371704101562</ele>
        <time>2020-05-14T15:42:34Z</time>
      </trkpt>
      <trkpt lat="43.59767" lon="7.11356">
        <ele>79.269104003906</ele>
        <time>2020-05-14T15:42:35Z</time>
      </trkpt>
      <trkpt lat="43.59762" lon="7.11357">
        <ele>79.200927734375</ele>
        <time>2020-05-14T15:42:36Z</time>
      </trkpt>
      <trkpt lat="43.59757" lon="7.11359">
        <ele>79.756103515625</ele>
        <time>2020-05-14T15:42:37Z</time>
      </trkpt>
      <trkpt lat="43.59753" lon="7.1136">
        <ele>79.696228027344</ele>
        <time>2020-05-14T15:42:38Z</time>
      </trkpt>
      <trkpt lat="43.59747" lon="7.11362">
        <ele>79.396789550781</ele>
        <time>2020-05-14T15:42:39Z</time>
      </trkpt>
      <trkpt lat="43.59742" lon="7.11363">
        <ele>79.305236816406</ele>
        <time>2020-05-14T15:42:40Z</time>
      </trkpt>
      <trkpt lat="43.59737" lon="7.11366">
        <ele>79.309692382812</ele>
        <time>2020-05-14T15:42:41Z</time>
      </trkpt>
      <trkpt lat="43.59732" lon="7.11367">
        <ele>79.615905761719</ele>
        <time>2020-05-14T15:42:42Z</time>
      </trkpt>
      <trkpt lat="43.59727" lon="7.11368">
        <ele>79.162780761719</ele>
        <time>2020-05-14T15:42:43Z</time>
      </trkpt>
      <trkpt lat="43.59723" lon="7.1137">
        <ele>78.737854003906</ele>
        <time>2020-05-14T15:42:44Z</time>
      </trkpt>
      <trkpt lat="43.59718" lon="7.11372">
        <ele>78.594360351562</ele>
        <time>2020-05-14T15:42:45Z</time>
      </trkpt>
      <trkpt lat="43.59712" lon="7.11373">
        <ele>78.395751953125</ele>
        <time>2020-05-14T15:42:46Z</time>
      </trkpt>
      <trkpt lat="43.59709" lon="7.11375">
        <ele>79.432006835938</ele>
        <time>2020-05-14T15:42:47Z</time>
      </trkpt>
      <trkpt lat="43.59703" lon="7.11376">
        <ele>79.604064941406</ele>
        <time>2020-05-14T15:42:48Z</time>
      </trkpt>
      <trkpt lat="43.59698" lon="7.11375">
        <ele>79.88134765625</ele>
        <time>2020-05-14T15:42:49Z</time>
      </trkpt>
      <trkpt lat="43.59693" lon="7.11374">
        <ele>79.833801269531</ele>
        <time>2020-05-14T15:42:50Z</time>
      </trkpt>
      <trkpt lat="43.59688" lon="7.11372">
        <ele>79.34375</ele>
        <time>2020-05-14T15:42:51Z</time>
      </trkpt>
      <trkpt lat="43.59684" lon="7.11372">
        <ele>78.892456054688</ele>
        <time>2020-05-14T15:42:52Z</time>
      </trkpt>
      <trkpt lat="43.59679" lon="7.11372">
        <ele>79.065490722656</ele>
        <time>2020-05-14T15:42:53Z</time>
      </trkpt>
      <trkpt lat="43.59675" lon="7.11376">
        <ele>78.900817871094</ele>
        <time>2020-05-14T15:42:54Z</time>
      </trkpt>
      <trkpt lat="43.59672" lon="7.11382">
        <ele>78.78125</ele>
        <time>2020-05-14T15:42:55Z</time>
      </trkpt>
      <trkpt lat="43.59669" lon="7.11387">
        <ele>78.657104492188</ele>
        <time>2020-05-14T15:42:56Z</time>
      </trkpt>
      <trkpt lat="43.59666" lon="7.11393">
        <ele>78.625</ele>
        <time>2020-05-14T15:42:57Z</time>
      </trkpt>
      <trkpt lat="43.59662" lon="7.11397">
        <ele>80.73095703125</ele>
        <time>2020-05-14T15:42:58Z</time>
      </trkpt>
      <trkpt lat="43.59658" lon="7.11401">
        <ele>80.723327636719</ele>
        <time>2020-05-14T15:42:59Z</time>
      </trkpt>
      <trkpt lat="43.59653" lon="7.11405">
        <ele>80.63525390625</ele>
        <time>2020-05-14T15:43:00Z</time>
      </trkpt>
      <trkpt lat="43.59648" lon="7.11408">
        <ele>80.827575683594</ele>
        <time>2020-05-14T15:43:01Z</time>
      </trkpt>
      <trkpt lat="43.59642" lon="7.11411">
        <ele>81.877746582031</ele>
        <time>2020-05-14T15:43:02Z</time>
      </trkpt>
      <trkpt lat="43.59636" lon="7.11413">
        <ele>82.889282226562</ele>
        <time>2020-05-14T15:43:03Z</time>
      </trkpt>
      <trkpt lat="43.59629" lon="7.11416">
        <ele>79.415405273438</ele>
        <time>2020-05-14T15:43:04Z</time>
      </trkpt>
      <trkpt lat="43.59623" lon="7.11418">
        <ele>79.581176757812</ele>
        <time>2020-05-14T15:43:05Z</time>
      </trkpt>
      <trkpt lat="43.59616" lon="7.1142">
        <ele>79.973327636719</ele>
        <time>2020-05-14T15:43:06Z</time>
      </trkpt>
      <trkpt lat="43.59609" lon="7.11423">
        <ele>79.53515625</ele>
        <time>2020-05-14T15:43:07Z</time>
      </trkpt>
      <trkpt lat="43.59603" lon="7.11425">
        <ele>79.639282226562</ele>
        <time>2020-05-14T15:43:08Z</time>
      </trkpt>
      <trkpt lat="43.59596" lon="7.11427">
        <ele>79.773681640625</ele>
        <time>2020-05-14T15:43:09Z</time>
      </trkpt>
      <trkpt lat="43.5959" lon="7.11429">
        <ele>80.165405273438</ele>
        <time>2020-05-14T15:43:10Z</time>
      </trkpt>
      <trkpt lat="43.59584" lon="7.11433">
        <ele>81.472229003906</ele>
        <time>2020-05-14T15:43:11Z</time>
      </trkpt>
      <trkpt lat="43.59578" lon="7.11437">
        <ele>82.854248046875</ele>
        <time>2020-05-14T15:43:12Z</time>
      </trkpt>
      <trkpt lat="43.59573" lon="7.1144">
        <ele>82.334716796875</ele>
        <time>2020-05-14T15:43:13Z</time>
      </trkpt>
      <trkpt lat="43.59567" lon="7.11443">
        <ele>83.261535644531</ele>
        <time>2020-05-14T15:43:14Z</time>
      </trkpt>
      <trkpt lat="43.5956" lon="7.11446">
        <ele>82.519287109375</ele>
        <time>2020-05-14T15:43:15Z</time>
      </trkpt>
      <trkpt lat="43.59554" lon="7.11451">
        <ele>78.357971191406</ele>
        <time>2020-05-14T15:43:16Z</time>
      </trkpt>
      <trkpt lat="43.59547" lon="7.11455">
        <ele>78.1376953125</ele>
        <time>2020-05-14T15:43:17Z</time>
      </trkpt>
      <trkpt lat="43.59541" lon="7.1146">
        <ele>77.744934082031</ele>
        <time>2020-05-14T15:43:18Z</time>
      </trkpt>
      <trkpt lat="43.59533" lon="7.11463">
        <ele>79.21826171875</ele>
        <time>2020-05-14T15:43:19Z</time>
      </trkpt>
      <trkpt lat="43.59528" lon="7.11463">
        <ele>80.045288085938</ele>
        <time>2020-05-14T15:43:20Z</time>
      </trkpt>
      <trkpt lat="43.59522" lon="7.11465">
        <ele>79.577392578125</ele>
        <time>2020-05-14T15:43:21Z</time>
      </trkpt>
      <trkpt lat="43.59514" lon="7.11469">
        <ele>80.371704101562</ele>
        <time>2020-05-14T15:43:22Z</time>
      </trkpt>
      <trkpt lat="43.59509" lon="7.11472">
        <ele>80.931762695312</ele>
        <time>2020-05-14T15:43:23Z</time>
      </trkpt>
      <trkpt lat="43.59503" lon="7.11475">
        <ele>79.609680175781</ele>
        <time>2020-05-14T15:43:24Z</time>
      </trkpt>
      <trkpt lat="43.59496" lon="7.11477">
        <ele>79.808959960938</ele>
        <time>2020-05-14T15:43:25Z</time>
      </trkpt>
      <trkpt lat="43.59489" lon="7.11479">
        <ele>79.8564453125</ele>
        <time>2020-05-14T15:43:26Z</time>
      </trkpt>
      <trkpt lat="43.59483" lon="7.11481">
        <ele>80.507019042969</ele>
        <time>2020-05-14T15:43:27Z</time>
      </trkpt>
      <trkpt lat="43.59476" lon="7.11482">
        <ele>79.761779785156</ele>
        <time>2020-05-14T15:43:28Z</time>
      </trkpt>
      <trkpt lat="43.59469" lon="7.11483">
        <ele>79.585876464844</ele>
        <time>2020-05-14T15:43:29Z</time>
      </trkpt>
      <trkpt lat="43.59461" lon="7.11484">
        <ele>79.390930175781</ele>
        <time>2020-05-14T15:43:30Z</time>
      </trkpt>
      <trkpt lat="43.59454" lon="7.11485">
        <ele>79.075988769531</ele>
        <time>2020-05-14T15:43:31Z</time>
      </trkpt>
      <trkpt lat="43.59446" lon="7.11486">
        <ele>79.387451171875</ele>
        <time>2020-05-14T15:43:32Z</time>
      </trkpt>
      <trkpt lat="43.5944" lon="7.11487">
        <ele>78.791015625</ele>
        <time>2020-05-14T15:43:33Z</time>
      </trkpt>
      <trkpt lat="43.59433" lon="7.11488">
        <ele>75.291320800781</ele>
        <time>2020-05-14T15:43:34Z</time>
      </trkpt>
      <trkpt lat="43.59424" lon="7.11489">
        <ele>73.883483886719</ele>
        <time>2020-05-14T15:43:35Z</time>
      </trkpt>
      <trkpt lat="43.59417" lon="7.11489">
        <ele>75.147277832031</ele>
        <time>2020-05-14T15:43:36Z</time>
      </trkpt>
      <trkpt lat="43.59411" lon="7.11489">
        <ele>75.383911132812</ele>
        <time>2020-05-14T15:43:37Z</time>
      </trkpt>
      <trkpt lat="43.59405" lon="7.1149">
        <ele>74.982238769531</ele>
        <time>2020-05-14T15:43:38Z</time>
      </trkpt>
      <trkpt lat="43.59398" lon="7.1149">
        <ele>75.316162109375</ele>
        <time>2020-05-14T15:43:39Z</time>
      </trkpt>
      <trkpt lat="43.59392" lon="7.11491">
        <ele>75.484619140625</ele>
        <time>2020-05-14T15:43:40Z</time>
      </trkpt>
      <trkpt lat="43.59386" lon="7.11491">
        <ele>75.552124023438</ele>
        <time>2020-05-14T15:43:41Z</time>
      </trkpt>
      <trkpt lat="43.5938" lon="7.11493">
        <ele>76.220153808594</ele>
        <time>2020-05-14T15:43:42Z</time>
      </trkpt>
      <trkpt lat="43.59375" lon="7.11495">
        <ele>76.480346679688</ele>
        <time>2020-05-14T15:43:43Z</time>
      </trkpt>
      <trkpt lat="43.59369" lon="7.11496">
        <ele>76.352661132812</ele>
        <time>2020-05-14T15:43:44Z</time>
      </trkpt>
      <trkpt lat="43.59363" lon="7.11497">
        <ele>76.764953613281</ele>
        <time>2020-05-14T15:43:45Z</time>
      </trkpt>
      <trkpt lat="43.59356" lon="7.11499">
        <ele>76.906188964844</ele>
        <time>2020-05-14T15:43:46Z</time>
      </trkpt>
      <trkpt lat="43.5935" lon="7.11501">
        <ele>76.824645996094</ele>
        <time>2020-05-14T15:43:47Z</time>
      </trkpt>
      <trkpt lat="43.59345" lon="7.11504">
        <ele>77.060668945312</ele>
        <time>2020-05-14T15:43:48Z</time>
      </trkpt>
      <trkpt lat="43.5934" lon="7.11507">
        <ele>76.014282226562</ele>
        <time>2020-05-14T15:43:49Z</time>
      </trkpt>
      <trkpt lat="43.59334" lon="7.1151">
        <ele>76.406799316406</ele>
        <time>2020-05-14T15:43:50Z</time>
      </trkpt>
      <trkpt lat="43.5933" lon="7.11513">
        <ele>76.448791503906</ele>
        <time>2020-05-14T15:43:51Z</time>
      </trkpt>
      <trkpt lat="43.59325" lon="7.11515">
        <ele>76.868469238281</ele>
        <time>2020-05-14T15:43:52Z</time>
      </trkpt>
      <trkpt lat="43.59321" lon="7.11516">
        <ele>77.190612792969</ele>
        <time>2020-05-14T15:43:53Z</time>
      </trkpt>
      <trkpt lat="43.59316" lon="7.11519">
        <ele>77.161682128906</ele>
        <time>2020-05-14T15:43:54Z</time>
      </trkpt>
      <trkpt lat="43.59311" lon="7.11521">
        <ele>77.37890625</ele>
        <time>2020-05-14T15:43:55Z</time>
      </trkpt>
      <trkpt lat="43.59306" lon="7.11523">
        <ele>77.32763671875</ele>
        <time>2020-05-14T15:43:56Z</time>
      </trkpt>
      <trkpt lat="43.59301" lon="7.11525">
        <ele>77.463256835938</ele>
        <time>2020-05-14T15:43:57Z</time>
      </trkpt>
      <trkpt lat="43.59297" lon="7.11526">
        <ele>77.720642089844</ele>
        <time>2020-05-14T15:43:58Z</time>
      </trkpt>
      <trkpt lat="43.59291" lon="7.11529">
        <ele>77.767883300781</ele>
        <time>2020-05-14T15:43:59Z</time>
      </trkpt>
      <trkpt lat="43.59286" lon="7.11532">
        <ele>78.169799804688</ele>
        <time>2020-05-14T15:44:00Z</time>
      </trkpt>
      <trkpt lat="43.59282" lon="7.11535">
        <ele>78.479614257812</ele>
        <time>2020-05-14T15:44:01Z</time>
      </trkpt>
      <trkpt lat="43.59278" lon="7.11537">
        <ele>78.809326171875</ele>
        <time>2020-05-14T15:44:02Z</time>
      </trkpt>
      <trkpt lat="43.59273" lon="7.1154">
        <ele>78.571472167969</ele>
        <time>2020-05-14T15:44:03Z</time>
      </trkpt>
      <trkpt lat="43.59268" lon="7.11541">
        <ele>78.683166503906</ele>
        <time>2020-05-14T15:44:04Z</time>
      </trkpt>
      <trkpt lat="43.59264" lon="7.11543">
        <ele>78.428833007812</ele>
        <time>2020-05-14T15:44:05Z</time>
      </trkpt>
      <trkpt lat="43.59258" lon="7.11543">
        <ele>78.266662597656</ele>
        <time>2020-05-14T15:44:06Z</time>
      </trkpt>
      <trkpt lat="43.59255" lon="7.11544">
        <ele>78.076721191406</ele>
        <time>2020-05-14T15:44:07Z</time>
      </trkpt>
      <trkpt lat="43.59251" lon="7.11544">
        <ele>78.158996582031</ele>
        <time>2020-05-14T15:44:08Z</time>
      </trkpt>
      <trkpt lat="43.59247" lon="7.11546">
        <ele>78.204711914062</ele>
        <time>2020-05-14T15:44:09Z</time>
      </trkpt>
      <trkpt lat="43.59243" lon="7.11549">
        <ele>78.527709960938</ele>
        <time>2020-05-14T15:44:10Z</time>
      </trkpt>
      <trkpt lat="43.5924" lon="7.11553">
        <ele>77.61376953125</ele>
        <time>2020-05-14T15:44:11Z</time>
      </trkpt>
      <trkpt lat="43.59238" lon="7.11559">
        <ele>77.130493164062</ele>
        <time>2020-05-14T15:44:12Z</time>
      </trkpt>
      <trkpt lat="43.59237" lon="7.11567">
        <ele>76.90185546875</ele>
        <time>2020-05-14T15:44:13Z</time>
      </trkpt>
      <trkpt lat="43.59234" lon="7.11574">
        <ele>76.373352050781</ele>
        <time>2020-05-14T15:44:14Z</time>
      </trkpt>
      <trkpt lat="43.59232" lon="7.11579">
        <ele>76.2060546875</ele>
        <time>2020-05-14T15:44:15Z</time>
      </trkpt>
      <trkpt lat="43.59227" lon="7.11583">
        <ele>76.115478515625</ele>
        <time>2020-05-14T15:44:16Z</time>
      </trkpt>
      <trkpt lat="43.59222" lon="7.11587">
        <ele>76.334594726562</ele>
        <time>2020-05-14T15:44:17Z</time>
      </trkpt>
      <trkpt lat="43.59217" lon="7.11589">
        <ele>76.179992675781</ele>
        <time>2020-05-14T15:44:18Z</time>
      </trkpt>
      <trkpt lat="43.59213" lon="7.11593">
        <ele>75.763122558594</ele>
        <time>2020-05-14T15:44:19Z</time>
      </trkpt>
      <trkpt lat="43.59208" lon="7.11595">
        <ele>75.063720703125</ele>
        <time>2020-05-14T15:44:20Z</time>
      </trkpt>
      <trkpt lat="43.59203" lon="7.11598">
        <ele>74.653564453125</ele>
        <time>2020-05-14T15:44:21Z</time>
      </trkpt>
      <trkpt lat="43.59198" lon="7.11602">
        <ele>75.7197265625</ele>
        <time>2020-05-14T15:44:22Z</time>
      </trkpt>
      <trkpt lat="43.59193" lon="7.11606">
        <ele>76.156921386719</ele>
        <time>2020-05-14T15:44:23Z</time>
      </trkpt>
      <trkpt lat="43.59188" lon="7.1161">
        <ele>76.135864257812</ele>
        <time>2020-05-14T15:44:24Z</time>
      </trkpt>
      <trkpt lat="43.59183" lon="7.11613">
        <ele>75.743774414062</ele>
        <time>2020-05-14T15:44:25Z</time>
      </trkpt>
      <trkpt lat="43.59177" lon="7.11616">
        <ele>75.856201171875</ele>
        <time>2020-05-14T15:44:26Z</time>
      </trkpt>
      <trkpt lat="43.59172" lon="7.1162">
        <ele>76.02587890625</ele>
        <time>2020-05-14T15:44:27Z</time>
      </trkpt>
      <trkpt lat="43.5917" lon="7.11621">
        <ele>75.892211914062</ele>
        <time>2020-05-14T15:44:28Z</time>
      </trkpt>
      <trkpt lat="43.59168" lon="7.1162">
        <ele>75.766845703125</ele>
        <time>2020-05-14T15:44:29Z</time>
      </trkpt>
      <trkpt lat="43.59165" lon="7.11622">
        <ele>75.4326171875</ele>
        <time>2020-05-14T15:44:30Z</time>
      </trkpt>
      <trkpt lat="43.59165" lon="7.11622">
        <ele>75.638793945312</ele>
        <time>2020-05-14T15:44:31Z</time>
      </trkpt>
      <trkpt lat="43.59164" lon="7.11622">
        <ele>75.307373046875</ele>
        <time>2020-05-14T15:44:32Z</time>
      </trkpt>
      <trkpt lat="43.59164" lon="7.11622">
        <ele>75.374877929688</ele>
        <time>2020-05-14T15:44:33Z</time>
      </trkpt>
      <trkpt lat="43.59162" lon="7.11624">
        <ele>75.703491210938</ele>
        <time>2020-05-14T15:44:34Z</time>
      </trkpt>
      <trkpt lat="43.5916" lon="7.11626">
        <ele>76.072631835938</ele>
        <time>2020-05-14T15:44:35Z</time>
      </trkpt>
      <trkpt lat="43.59157" lon="7.11628">
        <ele>75.967102050781</ele>
        <time>2020-05-14T15:44:36Z</time>
      </trkpt>
      <trkpt lat="43.59154" lon="7.11631">
        <ele>74.05322265625</ele>
        <time>2020-05-14T15:44:37Z</time>
      </trkpt>
      <trkpt lat="43.59152" lon="7.11632">
        <ele>74.361450195312</ele>
        <time>2020-05-14T15:44:38Z</time>
      </trkpt>
      <trkpt lat="43.59149" lon="7.11634">
        <ele>74.323608398438</ele>
        <time>2020-05-14T15:44:39Z</time>
      </trkpt>
      <trkpt lat="43.59144" lon="7.11636">
        <ele>74.510498046875</ele>
        <time>2020-05-14T15:44:40Z</time>
      </trkpt>
      <trkpt lat="43.5914" lon="7.11638">
        <ele>73.817993164062</ele>
        <time>2020-05-14T15:44:41Z</time>
      </trkpt>
      <trkpt lat="43.59136" lon="7.11641">
        <ele>74.85546875</ele>
        <time>2020-05-14T15:44:42Z</time>
      </trkpt>
      <trkpt lat="43.59131" lon="7.11645">
        <ele>74.670043945312</ele>
        <time>2020-05-14T15:44:43Z</time>
      </trkpt>
      <trkpt lat="43.59127" lon="7.11646">
        <ele>75.226379394531</ele>
        <time>2020-05-14T15:44:44Z</time>
      </trkpt>
      <trkpt lat="43.59121" lon="7.11648">
        <ele>74.887573242188</ele>
        <time>2020-05-14T15:44:45Z</time>
      </trkpt>
      <trkpt lat="43.59117" lon="7.11651">
        <ele>75.149291992188</ele>
        <time>2020-05-14T15:44:46Z</time>
      </trkpt>
      <trkpt lat="43.59112" lon="7.11656">
        <ele>75.030822753906</ele>
        <time>2020-05-14T15:44:47Z</time>
      </trkpt>
      <trkpt lat="43.59107" lon="7.11658">
        <ele>75.024047851562</ele>
        <time>2020-05-14T15:44:48Z</time>
      </trkpt>
      <trkpt lat="43.59102" lon="7.11661">
        <ele>75.210327148438</ele>
        <time>2020-05-14T15:44:49Z</time>
      </trkpt>
      <trkpt lat="43.59099" lon="7.11665">
        <ele>71.937255859375</ele>
        <time>2020-05-14T15:44:50Z</time>
      </trkpt>
      <trkpt lat="43.59094" lon="7.11668">
        <ele>71.794677734375</ele>
        <time>2020-05-14T15:44:51Z</time>
      </trkpt>
      <trkpt lat="43.5909" lon="7.11672">
        <ele>71.969421386719</ele>
        <time>2020-05-14T15:44:52Z</time>
      </trkpt>
      <trkpt lat="43.59083" lon="7.11675">
        <ele>71.643371582031</ele>
        <time>2020-05-14T15:44:53Z</time>
      </trkpt>
      <trkpt lat="43.59077" lon="7.11679">
        <ele>72.169067382812</ele>
        <time>2020-05-14T15:44:54Z</time>
      </trkpt>
      <trkpt lat="43.59072" lon="7.11682">
        <ele>72.040405273438</ele>
        <time>2020-05-14T15:44:55Z</time>
      </trkpt>
      <trkpt lat="43.59066" lon="7.11686">
        <ele>72.353881835938</ele>
        <time>2020-05-14T15:44:56Z</time>
      </trkpt>
      <trkpt lat="43.59061" lon="7.11692">
        <ele>73.264282226562</ele>
        <time>2020-05-14T15:44:57Z</time>
      </trkpt>
      <trkpt lat="43.59056" lon="7.11698">
        <ele>74.567199707031</ele>
        <time>2020-05-14T15:44:58Z</time>
      </trkpt>
      <trkpt lat="43.5905" lon="7.11702">
        <ele>75.098510742188</ele>
        <time>2020-05-14T15:44:59Z</time>
      </trkpt>
      <trkpt lat="43.59044" lon="7.11706">
        <ele>74.650939941406</ele>
        <time>2020-05-14T15:45:00Z</time>
      </trkpt>
      <trkpt lat="43.5904" lon="7.1171">
        <ele>75.367614746094</ele>
        <time>2020-05-14T15:45:01Z</time>
      </trkpt>
      <trkpt lat="43.59032" lon="7.11715">
        <ele>76.3310546875</ele>
        <time>2020-05-14T15:45:02Z</time>
      </trkpt>
      <trkpt lat="43.59027" lon="7.11718">
        <ele>74.229187011719</ele>
        <time>2020-05-14T15:45:03Z</time>
      </trkpt>
      <trkpt lat="43.59019" lon="7.11723">
        <ele>74.274780273438</ele>
        <time>2020-05-14T15:45:04Z</time>
      </trkpt>
      <trkpt lat="43.59012" lon="7.11728">
        <ele>74.115661621094</ele>
        <time>2020-05-14T15:45:05Z</time>
      </trkpt>
      <trkpt lat="43.59007" lon="7.1173">
        <ele>74.431091308594</ele>
        <time>2020-05-14T15:45:06Z</time>
      </trkpt>
      <trkpt lat="43.59001" lon="7.11734">
        <ele>74.387451171875</ele>
        <time>2020-05-14T15:45:07Z</time>
      </trkpt>
      <trkpt lat="43.58996" lon="7.11739">
        <ele>74.117919921875</ele>
        <time>2020-05-14T15:45:08Z</time>
      </trkpt>
      <trkpt lat="43.5899" lon="7.11744">
        <ele>72.199279785156</ele>
        <time>2020-05-14T15:45:09Z</time>
      </trkpt>
      <trkpt lat="43.58983" lon="7.11748">
        <ele>74.192260742188</ele>
        <time>2020-05-14T15:45:10Z</time>
      </trkpt>
      <trkpt lat="43.58977" lon="7.11751">
        <ele>74.284240722656</ele>
        <time>2020-05-14T15:45:11Z</time>
      </trkpt>
      <trkpt lat="43.5897" lon="7.11756">
        <ele>73.473327636719</ele>
        <time>2020-05-14T15:45:12Z</time>
      </trkpt>
      <trkpt lat="43.58964" lon="7.1176">
        <ele>69.618041992188</ele>
        <time>2020-05-14T15:45:13Z</time>
      </trkpt>
      <trkpt lat="43.58958" lon="7.11762">
        <ele>70.572204589844</ele>
        <time>2020-05-14T15:45:14Z</time>
      </trkpt>
      <trkpt lat="43.5895" lon="7.11765">
        <ele>70.723693847656</ele>
        <time>2020-05-14T15:45:15Z</time>
      </trkpt>
      <trkpt lat="43.58944" lon="7.1177">
        <ele>70.15185546875</ele>
        <time>2020-05-14T15:45:16Z</time>
      </trkpt>
      <trkpt lat="43.58937" lon="7.11774">
        <ele>69.560974121094</ele>
        <time>2020-05-14T15:45:17Z</time>
      </trkpt>
      <trkpt lat="43.58931" lon="7.11778">
        <ele>69.319580078125</ele>
        <time>2020-05-14T15:45:18Z</time>
      </trkpt>
      <trkpt lat="43.58924" lon="7.11782">
        <ele>71.097106933594</ele>
        <time>2020-05-14T15:45:19Z</time>
      </trkpt>
      <trkpt lat="43.58917" lon="7.11786">
        <ele>71.472412109375</ele>
        <time>2020-05-14T15:45:20Z</time>
      </trkpt>
      <trkpt lat="43.58911" lon="7.1179">
        <ele>73.051086425781</ele>
        <time>2020-05-14T15:45:21Z</time>
      </trkpt>
      <trkpt lat="43.58904" lon="7.11795">
        <ele>73.059204101562</ele>
        <time>2020-05-14T15:45:22Z</time>
      </trkpt>
      <trkpt lat="43.58898" lon="7.11799">
        <ele>70.361083984375</ele>
        <time>2020-05-14T15:45:23Z</time>
      </trkpt>
      <trkpt lat="43.58893" lon="7.11803">
        <ele>72.939208984375</ele>
        <time>2020-05-14T15:45:24Z</time>
      </trkpt>
      <trkpt lat="43.58886" lon="7.11806">
        <ele>73.944580078125</ele>
        <time>2020-05-14T15:45:25Z</time>
      </trkpt>
      <trkpt lat="43.5888" lon="7.11811">
        <ele>74.561157226562</ele>
        <time>2020-05-14T15:45:26Z</time>
      </trkpt>
      <trkpt lat="43.58872" lon="7.11816">
        <ele>74.537109375</ele>
        <time>2020-05-14T15:45:27Z</time>
      </trkpt>
      <trkpt lat="43.58868" lon="7.1182">
        <ele>74.807312011719</ele>
        <time>2020-05-14T15:45:28Z</time>
      </trkpt>
      <trkpt lat="43.58866" lon="7.11819">
        <ele>74.208618164062</ele>
        <time>2020-05-14T15:45:29Z</time>
      </trkpt>
      <trkpt lat="43.58863" lon="7.11821">
        <ele>74.160522460938</ele>
        <time>2020-05-14T15:45:30Z</time>
      </trkpt>
      <trkpt lat="43.58861" lon="7.11822">
        <ele>73.87744140625</ele>
        <time>2020-05-14T15:45:31Z</time>
      </trkpt>
      <trkpt lat="43.58858" lon="7.11824">
        <ele>73.750732421875</ele>
        <time>2020-05-14T15:45:32Z</time>
      </trkpt>
      <trkpt lat="43.58855" lon="7.11826">
        <ele>69.432250976562</ele>
        <time>2020-05-14T15:45:33Z</time>
      </trkpt>
      <trkpt lat="43.58852" lon="7.11828">
        <ele>68.968566894531</ele>
        <time>2020-05-14T15:45:34Z</time>
      </trkpt>
      <trkpt lat="43.58848" lon="7.11831">
        <ele>69.369750976562</ele>
        <time>2020-05-14T15:45:35Z</time>
      </trkpt>
      <trkpt lat="43.58845" lon="7.11833">
        <ele>69.246948242188</ele>
        <time>2020-05-14T15:45:36Z</time>
      </trkpt>
      <trkpt lat="43.58839" lon="7.11836">
        <ele>69.456176757812</ele>
        <time>2020-05-14T15:45:37Z</time>
      </trkpt>
      <trkpt lat="43.58833" lon="7.11839">
        <ele>69.12060546875</ele>
        <time>2020-05-14T15:45:38Z</time>
      </trkpt>
      <trkpt lat="43.58829" lon="7.11842">
        <ele>69.117797851562</ele>
        <time>2020-05-14T15:45:39Z</time>
      </trkpt>
      <trkpt lat="43.58822" lon="7.11846">
        <ele>68.686401367188</ele>
        <time>2020-05-14T15:45:40Z</time>
      </trkpt>
      <trkpt lat="43.58817" lon="7.1185">
        <ele>68.992309570312</ele>
        <time>2020-05-14T15:45:41Z</time>
      </trkpt>
      <trkpt lat="43.58813" lon="7.11854">
        <ele>68.818298339844</ele>
        <time>2020-05-14T15:45:42Z</time>
      </trkpt>
      <trkpt lat="43.58808" lon="7.11858">
        <ele>67.80419921875</ele>
        <time>2020-05-14T15:45:43Z</time>
      </trkpt>
      <trkpt lat="43.58803" lon="7.11861">
        <ele>68.138305664062</ele>
        <time>2020-05-14T15:45:44Z</time>
      </trkpt>
      <trkpt lat="43.58798" lon="7.11867">
        <ele>68.485961914062</ele>
        <time>2020-05-14T15:45:45Z</time>
      </trkpt>
      <trkpt lat="43.58794" lon="7.11873">
        <ele>68.532043457031</ele>
        <time>2020-05-14T15:45:46Z</time>
      </trkpt>
      <trkpt lat="43.5879" lon="7.11878">
        <ele>68.655395507812</ele>
        <time>2020-05-14T15:45:47Z</time>
      </trkpt>
      <trkpt lat="43.58784" lon="7.11883">
        <ele>68.87548828125</ele>
        <time>2020-05-14T15:45:48Z</time>
      </trkpt>
      <trkpt lat="43.5878" lon="7.11887">
        <ele>68.698913574219</ele>
        <time>2020-05-14T15:45:49Z</time>
      </trkpt>
      <trkpt lat="43.58776" lon="7.1189">
        <ele>69.039428710938</ele>
        <time>2020-05-14T15:45:50Z</time>
      </trkpt>
      <trkpt lat="43.58771" lon="7.11894">
        <ele>68.927856445312</ele>
        <time>2020-05-14T15:45:51Z</time>
      </trkpt>
      <trkpt lat="43.58766" lon="7.11895">
        <ele>68.549865722656</ele>
        <time>2020-05-14T15:45:52Z</time>
      </trkpt>
      <trkpt lat="43.58761" lon="7.11893">
        <ele>67.858459472656</ele>
        <time>2020-05-14T15:45:53Z</time>
      </trkpt>
      <trkpt lat="43.58756" lon="7.11891">
        <ele>68.125549316406</ele>
        <time>2020-05-14T15:45:54Z</time>
      </trkpt>
      <trkpt lat="43.5875" lon="7.1189">
        <ele>67.360656738281</ele>
        <time>2020-05-14T15:45:55Z</time>
      </trkpt>
      <trkpt lat="43.58745" lon="7.11888">
        <ele>67.695617675781</ele>
        <time>2020-05-14T15:45:56Z</time>
      </trkpt>
      <trkpt lat="43.5874" lon="7.11888">
        <ele>67.403137207031</ele>
        <time>2020-05-14T15:45:57Z</time>
      </trkpt>
      <trkpt lat="43.58735" lon="7.11885">
        <ele>67.017028808594</ele>
        <time>2020-05-14T15:45:58Z</time>
      </trkpt>
      <trkpt lat="43.5873" lon="7.11883">
        <ele>66.562438964844</ele>
        <time>2020-05-14T15:45:59Z</time>
      </trkpt>
      <trkpt lat="43.58725" lon="7.11881">
        <ele>66.906799316406</ele>
        <time>2020-05-14T15:46:00Z</time>
      </trkpt>
      <trkpt lat="43.58722" lon="7.11879">
        <ele>67.162902832031</ele>
        <time>2020-05-14T15:46:01Z</time>
      </trkpt>
      <trkpt lat="43.58717" lon="7.11877">
        <ele>67.004089355469</ele>
        <time>2020-05-14T15:46:02Z</time>
      </trkpt>
      <trkpt lat="43.58713" lon="7.11874">
        <ele>67.479919433594</ele>
        <time>2020-05-14T15:46:03Z</time>
      </trkpt>
      <trkpt lat="43.58708" lon="7.11873">
        <ele>67.226013183594</ele>
        <time>2020-05-14T15:46:04Z</time>
      </trkpt>
      <trkpt lat="43.58702" lon="7.11872">
        <ele>67.161193847656</ele>
        <time>2020-05-14T15:46:05Z</time>
      </trkpt>
      <trkpt lat="43.58698" lon="7.1187">
        <ele>68.0986328125</ele>
        <time>2020-05-14T15:46:06Z</time>
      </trkpt>
      <trkpt lat="43.58693" lon="7.11868">
        <ele>67.952758789062</ele>
        <time>2020-05-14T15:46:07Z</time>
      </trkpt>
      <trkpt lat="43.58688" lon="7.11866">
        <ele>67.763061523438</ele>
        <time>2020-05-14T15:46:08Z</time>
      </trkpt>
      <trkpt lat="43.58683" lon="7.11864">
        <ele>67.8955078125</ele>
        <time>2020-05-14T15:46:09Z</time>
      </trkpt>
      <trkpt lat="43.58678" lon="7.11862">
        <ele>67.984069824219</ele>
        <time>2020-05-14T15:46:10Z</time>
      </trkpt>
      <trkpt lat="43.58673" lon="7.11861">
        <ele>67.916442871094</ele>
        <time>2020-05-14T15:46:11Z</time>
      </trkpt>
      <trkpt lat="43.58667" lon="7.11859">
        <ele>68.428283691406</ele>
        <time>2020-05-14T15:46:12Z</time>
      </trkpt>
      <trkpt lat="43.58662" lon="7.11857">
        <ele>68.518493652344</ele>
        <time>2020-05-14T15:46:13Z</time>
      </trkpt>
      <trkpt lat="43.58657" lon="7.11856">
        <ele>67.714599609375</ele>
        <time>2020-05-14T15:46:14Z</time>
      </trkpt>
      <trkpt lat="43.58651" lon="7.11853">
        <ele>67.97021484375</ele>
        <time>2020-05-14T15:46:15Z</time>
      </trkpt>
      <trkpt lat="43.58646" lon="7.11853">
        <ele>67.486083984375</ele>
        <time>2020-05-14T15:46:16Z</time>
      </trkpt>
      <trkpt lat="43.5864" lon="7.11848">
        <ele>66.211120605469</ele>
        <time>2020-05-14T15:46:17Z</time>
      </trkpt>
      <trkpt lat="43.58635" lon="7.11847">
        <ele>66.190856933594</ele>
        <time>2020-05-14T15:46:18Z</time>
      </trkpt>
      <trkpt lat="43.5863" lon="7.11845">
        <ele>65.825927734375</ele>
        <time>2020-05-14T15:46:19Z</time>
      </trkpt>
      <trkpt lat="43.58625" lon="7.11843">
        <ele>66.314331054688</ele>
        <time>2020-05-14T15:46:20Z</time>
      </trkpt>
      <trkpt lat="43.5862" lon="7.11841">
        <ele>65.714111328125</ele>
        <time>2020-05-14T15:46:21Z</time>
      </trkpt>
      <trkpt lat="43.58615" lon="7.1184">
        <ele>66.372924804688</ele>
        <time>2020-05-14T15:46:22Z</time>
      </trkpt>
      <trkpt lat="43.58611" lon="7.11837">
        <ele>66.285278320312</ele>
        <time>2020-05-14T15:46:23Z</time>
      </trkpt>
      <trkpt lat="43.58606" lon="7.11835">
        <ele>66.409484863281</ele>
        <time>2020-05-14T15:46:24Z</time>
      </trkpt>
      <trkpt lat="43.58602" lon="7.11832">
        <ele>66.626647949219</ele>
        <time>2020-05-14T15:46:25Z</time>
      </trkpt>
      <trkpt lat="43.58598" lon="7.11829">
        <ele>66.727905273438</ele>
        <time>2020-05-14T15:46:26Z</time>
      </trkpt>
      <trkpt lat="43.58594" lon="7.11826">
        <ele>66.103515625</ele>
        <time>2020-05-14T15:46:27Z</time>
      </trkpt>
      <trkpt lat="43.5859" lon="7.11823">
        <ele>66.332824707031</ele>
        <time>2020-05-14T15:46:28Z</time>
      </trkpt>
      <trkpt lat="43.58586" lon="7.1182">
        <ele>66.927673339844</ele>
        <time>2020-05-14T15:46:29Z</time>
      </trkpt>
      <trkpt lat="43.58582" lon="7.11818">
        <ele>67.484741210938</ele>
        <time>2020-05-14T15:46:30Z</time>
      </trkpt>
      <trkpt lat="43.58577" lon="7.11815">
        <ele>67.270080566406</ele>
        <time>2020-05-14T15:46:31Z</time>
      </trkpt>
      <trkpt lat="43.58573" lon="7.11813">
        <ele>67.5703125</ele>
        <time>2020-05-14T15:46:32Z</time>
      </trkpt>
      <trkpt lat="43.5857" lon="7.11812">
        <ele>67.6474609375</ele>
        <time>2020-05-14T15:46:33Z</time>
      </trkpt>
      <trkpt lat="43.58566" lon="7.11809">
        <ele>67.779602050781</ele>
        <time>2020-05-14T15:46:34Z</time>
      </trkpt>
      <trkpt lat="43.58563" lon="7.11808">
        <ele>68.432250976562</ele>
        <time>2020-05-14T15:46:35Z</time>
      </trkpt>
      <trkpt lat="43.58559" lon="7.11806">
        <ele>67.392700195312</ele>
        <time>2020-05-14T15:46:36Z</time>
      </trkpt>
      <trkpt lat="43.58556" lon="7.11805">
        <ele>67.653564453125</ele>
        <time>2020-05-14T15:46:37Z</time>
      </trkpt>
      <trkpt lat="43.58552" lon="7.11804">
        <ele>68.216125488281</ele>
        <time>2020-05-14T15:46:38Z</time>
      </trkpt>
      <trkpt lat="43.58549" lon="7.11802">
        <ele>68.6064453125</ele>
        <time>2020-05-14T15:46:39Z</time>
      </trkpt>
      <trkpt lat="43.58546" lon="7.118">
        <ele>67.965881347656</ele>
        <time>2020-05-14T15:46:40Z</time>
      </trkpt>
      <trkpt lat="43.58542" lon="7.11797">
        <ele>67.074951171875</ele>
        <time>2020-05-14T15:46:41Z</time>
      </trkpt>
      <trkpt lat="43.5854" lon="7.11794">
        <ele>67.408325195312</ele>
        <time>2020-05-14T15:46:42Z</time>
      </trkpt>
      <trkpt lat="43.58538" lon="7.1179">
        <ele>67.226135253906</ele>
        <time>2020-05-14T15:46:43Z</time>
      </trkpt>
      <trkpt lat="43.58536" lon="7.11786">
        <ele>67.206237792969</ele>
        <time>2020-05-14T15:46:44Z</time>
      </trkpt>
      <trkpt lat="43.58534" lon="7.11782">
        <ele>67.437255859375</ele>
        <time>2020-05-14T15:46:45Z</time>
      </trkpt>
      <trkpt lat="43.58532" lon="7.11778">
        <ele>67.846496582031</ele>
        <time>2020-05-14T15:46:46Z</time>
      </trkpt>
      <trkpt lat="43.58532" lon="7.11773">
        <ele>67.702453613281</ele>
        <time>2020-05-14T15:46:47Z</time>
      </trkpt>
      <trkpt lat="43.58531" lon="7.11768">
        <ele>67.527465820312</ele>
        <time>2020-05-14T15:46:48Z</time>
      </trkpt>
      <trkpt lat="43.58532" lon="7.11763">
        <ele>67.9296875</ele>
        <time>2020-05-14T15:46:49Z</time>
      </trkpt>
      <trkpt lat="43.58532" lon="7.11758">
        <ele>68.37255859375</ele>
        <time>2020-05-14T15:46:50Z</time>
      </trkpt>
      <trkpt lat="43.58532" lon="7.11753">
        <ele>68.822692871094</ele>
        <time>2020-05-14T15:46:51Z</time>
      </trkpt>
      <trkpt lat="43.58532" lon="7.11749">
        <ele>69.010681152344</ele>
        <time>2020-05-14T15:46:52Z</time>
      </trkpt>
      <trkpt lat="43.58532" lon="7.11744">
        <ele>69.201538085938</ele>
        <time>2020-05-14T15:46:53Z</time>
      </trkpt>
      <trkpt lat="43.58531" lon="7.1174">
        <ele>68.81787109375</ele>
        <time>2020-05-14T15:46:54Z</time>
      </trkpt>
      <trkpt lat="43.5853" lon="7.11735">
        <ele>69.128173828125</ele>
        <time>2020-05-14T15:46:55Z</time>
      </trkpt>
      <trkpt lat="43.5853" lon="7.11732">
        <ele>68.8251953125</ele>
        <time>2020-05-14T15:46:56Z</time>
      </trkpt>
      <trkpt lat="43.58529" lon="7.11728">
        <ele>69.559509277344</ele>
        <time>2020-05-14T15:46:57Z</time>
      </trkpt>
      <trkpt lat="43.58528" lon="7.11725">
        <ele>69.063598632812</ele>
        <time>2020-05-14T15:46:58Z</time>
      </trkpt>
      <trkpt lat="43.58528" lon="7.11721">
        <ele>69.05859375</ele>
        <time>2020-05-14T15:46:59Z</time>
      </trkpt>
      <trkpt lat="43.58528" lon="7.11717">
        <ele>68.968627929688</ele>
        <time>2020-05-14T15:47:00Z</time>
      </trkpt>
      <trkpt lat="43.58528" lon="7.11713">
        <ele>69.324584960938</ele>
        <time>2020-05-14T15:47:01Z</time>
      </trkpt>
      <trkpt lat="43.58527" lon="7.11709">
        <ele>68.787109375</ele>
        <time>2020-05-14T15:47:02Z</time>
      </trkpt>
      <trkpt lat="43.58527" lon="7.11705">
        <ele>68.9375</ele>
        <time>2020-05-14T15:47:03Z</time>
      </trkpt>
      <trkpt lat="43.58526" lon="7.11701">
        <ele>68.810729980469</ele>
        <time>2020-05-14T15:47:04Z</time>
      </trkpt>
      <trkpt lat="43.58525" lon="7.11696">
        <ele>69.009521484375</ele>
        <time>2020-05-14T15:47:05Z</time>
      </trkpt>
      <trkpt lat="43.58525" lon="7.1169">
        <ele>68.969665527344</ele>
        <time>2020-05-14T15:47:06Z</time>
      </trkpt>
      <trkpt lat="43.58525" lon="7.11685">
        <ele>68.545227050781</ele>
        <time>2020-05-14T15:47:07Z</time>
      </trkpt>
      <trkpt lat="43.58525" lon="7.1168">
        <ele>68.798522949219</ele>
        <time>2020-05-14T15:47:08Z</time>
      </trkpt>
      <trkpt lat="43.58526" lon="7.11675">
        <ele>68.925048828125</ele>
        <time>2020-05-14T15:47:09Z</time>
      </trkpt>
      <trkpt lat="43.58527" lon="7.1167">
        <ele>69.328857421875</ele>
        <time>2020-05-14T15:47:10Z</time>
      </trkpt>
      <trkpt lat="43.58528" lon="7.11665">
        <ele>69.770935058594</ele>
        <time>2020-05-14T15:47:11Z</time>
      </trkpt>
      <trkpt lat="43.58529" lon="7.1166">
        <ele>69.629028320312</ele>
        <time>2020-05-14T15:47:12Z</time>
      </trkpt>
      <trkpt lat="43.58531" lon="7.11655">
        <ele>69.651428222656</ele>
        <time>2020-05-14T15:47:13Z</time>
      </trkpt>
      <trkpt lat="43.58532" lon="7.1165">
        <ele>69.350952148438</ele>
        <time>2020-05-14T15:47:14Z</time>
      </trkpt>
      <trkpt lat="43.58534" lon="7.11645">
        <ele>69.129028320312</ele>
        <time>2020-05-14T15:47:15Z</time>
      </trkpt>
      <trkpt lat="43.58535" lon="7.11639">
        <ele>69.56298828125</ele>
        <time>2020-05-14T15:47:16Z</time>
      </trkpt>
      <trkpt lat="43.58537" lon="7.11634">
        <ele>69.497436523438</ele>
        <time>2020-05-14T15:47:17Z</time>
      </trkpt>
      <trkpt lat="43.58538" lon="7.11628">
        <ele>69.491638183594</ele>
        <time>2020-05-14T15:47:18Z</time>
      </trkpt>
      <trkpt lat="43.58539" lon="7.11623">
        <ele>70.236145019531</ele>
        <time>2020-05-14T15:47:19Z</time>
      </trkpt>
      <trkpt lat="43.5854" lon="7.11619">
        <ele>70.037048339844</ele>
        <time>2020-05-14T15:47:20Z</time>
      </trkpt>
      <trkpt lat="43.58541" lon="7.11614">
        <ele>69.739685058594</ele>
        <time>2020-05-14T15:47:21Z</time>
      </trkpt>
      <trkpt lat="43.58542" lon="7.1161">
        <ele>69.7890625</ele>
        <time>2020-05-14T15:47:22Z</time>
      </trkpt>
      <trkpt lat="43.58543" lon="7.11605">
        <ele>69.789123535156</ele>
        <time>2020-05-14T15:47:23Z</time>
      </trkpt>
      <trkpt lat="43.58544" lon="7.11599">
        <ele>69.826416015625</ele>
        <time>2020-05-14T15:47:24Z</time>
      </trkpt>
      <trkpt lat="43.58545" lon="7.11594">
        <ele>69.897766113281</ele>
        <time>2020-05-14T15:47:25Z</time>
      </trkpt>
      <trkpt lat="43.58546" lon="7.11589">
        <ele>70.224243164062</ele>
        <time>2020-05-14T15:47:26Z</time>
      </trkpt>
      <trkpt lat="43.58547" lon="7.11583">
        <ele>70.39208984375</ele>
        <time>2020-05-14T15:47:27Z</time>
      </trkpt>
      <trkpt lat="43.58549" lon="7.11576">
        <ele>70.227355957031</ele>
        <time>2020-05-14T15:47:28Z</time>
      </trkpt>
      <trkpt lat="43.5855" lon="7.1157">
        <ele>70.216613769531</ele>
        <time>2020-05-14T15:47:29Z</time>
      </trkpt>
      <trkpt lat="43.5855" lon="7.11564">
        <ele>70.750305175781</ele>
        <time>2020-05-14T15:47:30Z</time>
      </trkpt>
      <trkpt lat="43.58552" lon="7.11557">
        <ele>70.141845703125</ele>
        <time>2020-05-14T15:47:31Z</time>
      </trkpt>
      <trkpt lat="43.58553" lon="7.11549">
        <ele>70.323608398438</ele>
        <time>2020-05-14T15:47:32Z</time>
      </trkpt>
      <trkpt lat="43.58554" lon="7.11541">
        <ele>70.055847167969</ele>
        <time>2020-05-14T15:47:33Z</time>
      </trkpt>
      <trkpt lat="43.58555" lon="7.11533">
        <ele>70.070251464844</ele>
        <time>2020-05-14T15:47:34Z</time>
      </trkpt>
      <trkpt lat="43.58556" lon="7.11526">
        <ele>69.821533203125</ele>
        <time>2020-05-14T15:47:35Z</time>
      </trkpt>
      <trkpt lat="43.58557" lon="7.11518">
        <ele>70.473022460938</ele>
        <time>2020-05-14T15:47:36Z</time>
      </trkpt>
      <trkpt lat="43.58558" lon="7.11511">
        <ele>70.488342285156</ele>
        <time>2020-05-14T15:47:37Z</time>
      </trkpt>
      <trkpt lat="43.58559" lon="7.11503">
        <ele>70.001770019531</ele>
        <time>2020-05-14T15:47:38Z</time>
      </trkpt>
      <trkpt lat="43.58559" lon="7.11495">
        <ele>70.212585449219</ele>
        <time>2020-05-14T15:47:39Z</time>
      </trkpt>
      <trkpt lat="43.58557" lon="7.11487">
        <ele>69.539428710938</ele>
        <time>2020-05-14T15:47:40Z</time>
      </trkpt>
      <trkpt lat="43.58559" lon="7.11479">
        <ele>69.693115234375</ele>
        <time>2020-05-14T15:47:41Z</time>
      </trkpt>
      <trkpt lat="43.5856" lon="7.11474">
        <ele>68.963256835938</ele>
        <time>2020-05-14T15:47:42Z</time>
      </trkpt>
      <trkpt lat="43.58561" lon="7.11471">
        <ele>68.882446289062</ele>
        <time>2020-05-14T15:47:43Z</time>
      </trkpt>
      <trkpt lat="43.58561" lon="7.11468">
        <ele>69.805847167969</ele>
        <time>2020-05-14T15:47:44Z</time>
      </trkpt>
      <trkpt lat="43.58561" lon="7.11466">
        <ele>69.565002441406</ele>
        <time>2020-05-14T15:47:45Z</time>
      </trkpt>
      <trkpt lat="43.58562" lon="7.11463">
        <ele>70.075073242188</ele>
        <time>2020-05-14T15:47:46Z</time>
      </trkpt>
      <trkpt lat="43.58562" lon="7.1146">
        <ele>69.551574707031</ele>
        <time>2020-05-14T15:47:47Z</time>
      </trkpt>
      <trkpt lat="43.58563" lon="7.11459">
        <ele>70.62353515625</ele>
        <time>2020-05-14T15:47:48Z</time>
      </trkpt>
      <trkpt lat="43.58563" lon="7.11457">
        <ele>71.270263671875</ele>
        <time>2020-05-14T15:47:49Z</time>
      </trkpt>
      <trkpt lat="43.58565" lon="7.11454">
        <ele>71.382934570312</ele>
        <time>2020-05-14T15:47:50Z</time>
      </trkpt>
      <trkpt lat="43.58567" lon="7.11451">
        <ele>71.617797851562</ele>
        <time>2020-05-14T15:47:51Z</time>
      </trkpt>
      <trkpt lat="43.58567" lon="7.11448">
        <ele>71.569213867188</ele>
        <time>2020-05-14T15:47:52Z</time>
      </trkpt>
      <trkpt lat="43.58567" lon="7.11446">
        <ele>71.376525878906</ele>
        <time>2020-05-14T15:47:53Z</time>
      </trkpt>
      <trkpt lat="43.58567" lon="7.11444">
        <ele>71.988098144531</ele>
        <time>2020-05-14T15:47:54Z</time>
      </trkpt>
      <trkpt lat="43.58567" lon="7.11443">
        <ele>72.732543945312</ele>
        <time>2020-05-14T15:47:55Z</time>
      </trkpt>
      <trkpt lat="43.58567" lon="7.11441">
        <ele>73.047485351562</ele>
        <time>2020-05-14T15:47:56Z</time>
      </trkpt>
      <trkpt lat="43.58568" lon="7.11438">
        <ele>72.880126953125</ele>
        <time>2020-05-14T15:47:57Z</time>
      </trkpt>
      <trkpt lat="43.58569" lon="7.11435">
        <ele>72.676452636719</ele>
        <time>2020-05-14T15:47:58Z</time>
      </trkpt>
      <trkpt lat="43.58569" lon="7.11433">
        <ele>72.010620117188</ele>
        <time>2020-05-14T15:47:59Z</time>
      </trkpt>
      <trkpt lat="43.5857" lon="7.11431">
        <ele>71.4619140625</ele>
        <time>2020-05-14T15:48:00Z</time>
      </trkpt>
      <trkpt lat="43.58571" lon="7.11428">
        <ele>71.394104003906</ele>
        <time>2020-05-14T15:48:01Z</time>
      </trkpt>
      <trkpt lat="43.58571" lon="7.11426">
        <ele>71.036926269531</ele>
        <time>2020-05-14T15:48:02Z</time>
      </trkpt>
      <trkpt lat="43.58572" lon="7.11423">
        <ele>71.092712402344</ele>
        <time>2020-05-14T15:48:03Z</time>
      </trkpt>
      <trkpt lat="43.58573" lon="7.11419">
        <ele>71.047790527344</ele>
        <time>2020-05-14T15:48:04Z</time>
      </trkpt>
      <trkpt lat="43.58573" lon="7.11415">
        <ele>70.803955078125</ele>
        <time>2020-05-14T15:48:05Z</time>
      </trkpt>
      <trkpt lat="43.58574" lon="7.11412">
        <ele>70.696044921875</ele>
        <time>2020-05-14T15:48:06Z</time>
      </trkpt>
      <trkpt lat="43.58575" lon="7.11407">
        <ele>70.807006835938</ele>
        <time>2020-05-14T15:48:07Z</time>
      </trkpt>
      <trkpt lat="43.58576" lon="7.11403">
        <ele>69.796447753906</ele>
        <time>2020-05-14T15:48:08Z</time>
      </trkpt>
      <trkpt lat="43.58578" lon="7.11399">
        <ele>69.468200683594</ele>
        <time>2020-05-14T15:48:09Z</time>
      </trkpt>
      <trkpt lat="43.58579" lon="7.11394">
        <ele>69.234985351562</ele>
        <time>2020-05-14T15:48:10Z</time>
      </trkpt>
      <trkpt lat="43.58581" lon="7.11389">
        <ele>69.491882324219</ele>
        <time>2020-05-14T15:48:11Z</time>
      </trkpt>
      <trkpt lat="43.58582" lon="7.11384">
        <ele>69.472412109375</ele>
        <time>2020-05-14T15:48:12Z</time>
      </trkpt>
      <trkpt lat="43.58584" lon="7.11378">
        <ele>69.717407226562</ele>
        <time>2020-05-14T15:48:13Z</time>
      </trkpt>
      <trkpt lat="43.58585" lon="7.11373">
        <ele>69.864685058594</ele>
        <time>2020-05-14T15:48:14Z</time>
      </trkpt>
      <trkpt lat="43.58587" lon="7.11367">
        <ele>69.813171386719</ele>
        <time>2020-05-14T15:48:15Z</time>
      </trkpt>
      <trkpt lat="43.58588" lon="7.11361">
        <ele>69.601379394531</ele>
        <time>2020-05-14T15:48:16Z</time>
      </trkpt>
      <trkpt lat="43.5859" lon="7.11355">
        <ele>69.665405273438</ele>
        <time>2020-05-14T15:48:17Z</time>
      </trkpt>
      <trkpt lat="43.58592" lon="7.1135">
        <ele>69.632385253906</ele>
        <time>2020-05-14T15:48:18Z</time>
      </trkpt>
      <trkpt lat="43.58593" lon="7.11344">
        <ele>69.428588867188</ele>
        <time>2020-05-14T15:48:19Z</time>
      </trkpt>
      <trkpt lat="43.58595" lon="7.11337">
        <ele>69.274658203125</ele>
        <time>2020-05-14T15:48:20Z</time>
      </trkpt>
      <trkpt lat="43.58595" lon="7.11333">
        <ele>69.234741210938</ele>
        <time>2020-05-14T15:48:21Z</time>
      </trkpt>
      <trkpt lat="43.58596" lon="7.11329">
        <ele>69.384460449219</ele>
        <time>2020-05-14T15:48:22Z</time>
      </trkpt>
      <trkpt lat="43.58597" lon="7.11323">
        <ele>68.708129882812</ele>
        <time>2020-05-14T15:48:23Z</time>
      </trkpt>
      <trkpt lat="43.58598" lon="7.11317">
        <ele>68.73046875</ele>
        <time>2020-05-14T15:48:24Z</time>
      </trkpt>
      <trkpt lat="43.58598" lon="7.11311">
        <ele>68.903686523438</ele>
        <time>2020-05-14T15:48:25Z</time>
      </trkpt>
      <trkpt lat="43.586" lon="7.11304">
        <ele>68.725708007812</ele>
        <time>2020-05-14T15:48:26Z</time>
      </trkpt>
      <trkpt lat="43.586" lon="7.11299">
        <ele>68.545654296875</ele>
        <time>2020-05-14T15:48:27Z</time>
      </trkpt>
      <trkpt lat="43.58601" lon="7.11293">
        <ele>68.474060058594</ele>
        <time>2020-05-14T15:48:28Z</time>
      </trkpt>
      <trkpt lat="43.58602" lon="7.11288">
        <ele>67.129516601562</ele>
        <time>2020-05-14T15:48:29Z</time>
      </trkpt>
      <trkpt lat="43.58603" lon="7.11283">
        <ele>67.327026367188</ele>
        <time>2020-05-14T15:48:30Z</time>
      </trkpt>
      <trkpt lat="43.58603" lon="7.11278">
        <ele>67.844482421875</ele>
        <time>2020-05-14T15:48:31Z</time>
      </trkpt>
      <trkpt lat="43.58604" lon="7.11273">
        <ele>67.766418457031</ele>
        <time>2020-05-14T15:48:32Z</time>
      </trkpt>
      <trkpt lat="43.58605" lon="7.11267">
        <ele>68.140197753906</ele>
        <time>2020-05-14T15:48:33Z</time>
      </trkpt>
      <trkpt lat="43.58606" lon="7.11262">
        <ele>68.2861328125</ele>
        <time>2020-05-14T15:48:34Z</time>
      </trkpt>
      <trkpt lat="43.58607" lon="7.11256">
        <ele>68.590637207031</ele>
        <time>2020-05-14T15:48:35Z</time>
      </trkpt>
      <trkpt lat="43.58608" lon="7.1125">
        <ele>68.685119628906</ele>
        <time>2020-05-14T15:48:36Z</time>
      </trkpt>
      <trkpt lat="43.58609" lon="7.11244">
        <ele>69.495971679688</ele>
        <time>2020-05-14T15:48:37Z</time>
      </trkpt>
      <trkpt lat="43.5861" lon="7.11238">
        <ele>69.368286132812</ele>
        <time>2020-05-14T15:48:38Z</time>
      </trkpt>
      <trkpt lat="43.5861" lon="7.11232">
        <ele>69.425842285156</ele>
        <time>2020-05-14T15:48:39Z</time>
      </trkpt>
      <trkpt lat="43.58611" lon="7.11227">
        <ele>69.557373046875</ele>
        <time>2020-05-14T15:48:40Z</time>
      </trkpt>
      <trkpt lat="43.58611" lon="7.11222">
        <ele>69.698181152344</ele>
        <time>2020-05-14T15:48:41Z</time>
      </trkpt>
      <trkpt lat="43.58612" lon="7.11217">
        <ele>69.709716796875</ele>
        <time>2020-05-14T15:48:42Z</time>
      </trkpt>
      <trkpt lat="43.58613" lon="7.11212">
        <ele>69.818664550781</ele>
        <time>2020-05-14T15:48:43Z</time>
      </trkpt>
      <trkpt lat="43.58615" lon="7.11207">
        <ele>69.747314453125</ele>
        <time>2020-05-14T15:48:44Z</time>
      </trkpt>
      <trkpt lat="43.58616" lon="7.11203">
        <ele>69.616821289062</ele>
        <time>2020-05-14T15:48:45Z</time>
      </trkpt>
      <trkpt lat="43.58618" lon="7.112">
        <ele>70.293029785156</ele>
        <time>2020-05-14T15:48:46Z</time>
      </trkpt>
      <trkpt lat="43.5862" lon="7.11196">
        <ele>69.988952636719</ele>
        <time>2020-05-14T15:48:47Z</time>
      </trkpt>
      <trkpt lat="43.58623" lon="7.11192">
        <ele>69.15283203125</ele>
        <time>2020-05-14T15:48:48Z</time>
      </trkpt>
      <trkpt lat="43.58625" lon="7.11189">
        <ele>69.903564453125</ele>
        <time>2020-05-14T15:48:49Z</time>
      </trkpt>
      <trkpt lat="43.58628" lon="7.11185">
        <ele>70.155517578125</ele>
        <time>2020-05-14T15:48:50Z</time>
      </trkpt>
      <trkpt lat="43.5863" lon="7.11182">
        <ele>70.718994140625</ele>
        <time>2020-05-14T15:48:51Z</time>
      </trkpt>
      <trkpt lat="43.58632" lon="7.11178">
        <ele>143.90112304688</ele>
        <time>2020-05-14T15:48:52Z</time>
      </trkpt>
      <trkpt lat="43.58634" lon="7.11175">
        <ele>143.56036376953</ele>
        <time>2020-05-14T15:48:53Z</time>
      </trkpt>
      <trkpt lat="43.58636" lon="7.11172">
        <ele>143.66918945312</ele>
        <time>2020-05-14T15:48:54Z</time>
      </trkpt>
      <trkpt lat="43.58639" lon="7.1117">
        <ele>141.39343261719</ele>
        <time>2020-05-14T15:48:55Z</time>
      </trkpt>
      <trkpt lat="43.58641" lon="7.11168">
        <ele>141.83447265625</ele>
        <time>2020-05-14T15:48:56Z</time>
      </trkpt>
      <trkpt lat="43.58644" lon="7.11167">
        <ele>139.453125</ele>
        <time>2020-05-14T15:48:57Z</time>
      </trkpt>
      <trkpt lat="43.58647" lon="7.11165">
        <ele>138.76446533203</ele>
        <time>2020-05-14T15:48:58Z</time>
      </trkpt>
      <trkpt lat="43.5865" lon="7.11163">
        <ele>136.81646728516</ele>
        <time>2020-05-14T15:48:59Z</time>
      </trkpt>
      <trkpt lat="43.58653" lon="7.11161">
        <ele>134.64672851562</ele>
        <time>2020-05-14T15:49:00Z</time>
      </trkpt>
      <trkpt lat="43.58656" lon="7.11158">
        <ele>119.86743164062</ele>
        <time>2020-05-14T15:49:01Z</time>
      </trkpt>
      <trkpt lat="43.58659" lon="7.11155">
        <ele>124.2431640625</ele>
        <time>2020-05-14T15:49:02Z</time>
      </trkpt>
      <trkpt lat="43.58662" lon="7.11153">
        <ele>122.69793701172</ele>
        <time>2020-05-14T15:49:03Z</time>
      </trkpt>
      <trkpt lat="43.58665" lon="7.1115">
        <ele>124.20855712891</ele>
        <time>2020-05-14T15:49:04Z</time>
      </trkpt>
      <trkpt lat="43.58668" lon="7.11148">
        <ele>137.72619628906</ele>
        <time>2020-05-14T15:49:05Z</time>
      </trkpt>
      <trkpt lat="43.58671" lon="7.11146">
        <ele>137.19244384766</ele>
        <time>2020-05-14T15:49:06Z</time>
      </trkpt>
      <trkpt lat="43.58674" lon="7.11144">
        <ele>120.49761962891</ele>
        <time>2020-05-14T15:49:07Z</time>
      </trkpt>
      <trkpt lat="43.58677" lon="7.11142">
        <ele>123.30535888672</ele>
        <time>2020-05-14T15:49:08Z</time>
      </trkpt>
      <trkpt lat="43.5868" lon="7.1114">
        <ele>127.44049072266</ele>
        <time>2020-05-14T15:49:09Z</time>
      </trkpt>
      <trkpt lat="43.58682" lon="7.11139">
        <ele>126.83569335938</ele>
        <time>2020-05-14T15:49:10Z</time>
      </trkpt>
      <trkpt lat="43.58685" lon="7.11137">
        <ele>125.48394775391</ele>
        <time>2020-05-14T15:49:11Z</time>
      </trkpt>
      <trkpt lat="43.58688" lon="7.11135">
        <ele>127.03283691406</ele>
        <time>2020-05-14T15:49:12Z</time>
      </trkpt>
      <trkpt lat="43.58692" lon="7.11133">
        <ele>134.29858398438</ele>
        <time>2020-05-14T15:49:13Z</time>
      </trkpt>
      <trkpt lat="43.58695" lon="7.1113">
        <ele>136.88824462891</ele>
        <time>2020-05-14T15:49:14Z</time>
      </trkpt>
      <trkpt lat="43.58699" lon="7.11129">
        <ele>135.50988769531</ele>
        <time>2020-05-14T15:49:15Z</time>
      </trkpt>
      <trkpt lat="43.58703" lon="7.11127">
        <ele>116.69293212891</ele>
        <time>2020-05-14T15:49:16Z</time>
      </trkpt>
      <trkpt lat="43.58707" lon="7.11125">
        <ele>118.38433837891</ele>
        <time>2020-05-14T15:49:17Z</time>
      </trkpt>
      <trkpt lat="43.58711" lon="7.11123">
        <ele>94.640747070312</ele>
        <time>2020-05-14T15:49:18Z</time>
      </trkpt>
      <trkpt lat="43.58714" lon="7.11121">
        <ele>93.098205566406</ele>
        <time>2020-05-14T15:49:19Z</time>
      </trkpt>
      <trkpt lat="43.58718" lon="7.11118">
        <ele>93.827331542969</ele>
        <time>2020-05-14T15:49:20Z</time>
      </trkpt>
      <trkpt lat="43.58721" lon="7.11116">
        <ele>87.324035644531</ele>
        <time>2020-05-14T15:49:21Z</time>
      </trkpt>
      <trkpt lat="43.58725" lon="7.11114">
        <ele>88.846435546875</ele>
        <time>2020-05-14T15:49:22Z</time>
      </trkpt>
      <trkpt lat="43.58728" lon="7.11111">
        <ele>87.907043457031</ele>
        <time>2020-05-14T15:49:23Z</time>
      </trkpt>
      <trkpt lat="43.58731" lon="7.11108">
        <ele>86.539428710938</ele>
        <time>2020-05-14T15:49:24Z</time>
      </trkpt>
      <trkpt lat="43.58735" lon="7.11105">
        <ele>87.017456054688</ele>
        <time>2020-05-14T15:49:25Z</time>
      </trkpt>
      <trkpt lat="43.58738" lon="7.11102">
        <ele>87.747009277344</ele>
        <time>2020-05-14T15:49:26Z</time>
      </trkpt>
      <trkpt lat="43.5874" lon="7.111">
        <ele>90.195495605469</ele>
        <time>2020-05-14T15:49:27Z</time>
      </trkpt>
      <trkpt lat="43.58743" lon="7.11097">
        <ele>93.192687988281</ele>
        <time>2020-05-14T15:49:28Z</time>
      </trkpt>
      <trkpt lat="43.58746" lon="7.11092">
        <ele>94.696350097656</ele>
        <time>2020-05-14T15:49:29Z</time>
      </trkpt>
      <trkpt lat="43.58749" lon="7.11088">
        <ele>95.3076171875</ele>
        <time>2020-05-14T15:49:30Z</time>
      </trkpt>
      <trkpt lat="43.58751" lon="7.11081">
        <ele>96.750732421875</ele>
        <time>2020-05-14T15:49:31Z</time>
      </trkpt>
      <trkpt lat="43.58754" lon="7.11076">
        <ele>91.959899902344</ele>
        <time>2020-05-14T15:49:32Z</time>
      </trkpt>
      <trkpt lat="43.58757" lon="7.1107">
        <ele>93.440734863281</ele>
        <time>2020-05-14T15:49:33Z</time>
      </trkpt>
      <trkpt lat="43.58759" lon="7.11066">
        <ele>93.521301269531</ele>
        <time>2020-05-14T15:49:34Z</time>
      </trkpt>
      <trkpt lat="43.58762" lon="7.11063">
        <ele>93.8994140625</ele>
        <time>2020-05-14T15:49:35Z</time>
      </trkpt>
      <trkpt lat="43.58765" lon="7.11059">
        <ele>94.256958007812</ele>
        <time>2020-05-14T15:49:36Z</time>
      </trkpt>
      <trkpt lat="43.58767" lon="7.11053">
        <ele>94.409729003906</ele>
        <time>2020-05-14T15:49:37Z</time>
      </trkpt>
      <trkpt lat="43.5877" lon="7.11047">
        <ele>93.997375488281</ele>
        <time>2020-05-14T15:49:38Z</time>
      </trkpt>
      <trkpt lat="43.58774" lon="7.11042">
        <ele>94.625732421875</ele>
        <time>2020-05-14T15:49:39Z</time>
      </trkpt>
      <trkpt lat="43.58778" lon="7.11037">
        <ele>97.553466796875</ele>
        <time>2020-05-14T15:49:40Z</time>
      </trkpt>
      <trkpt lat="43.58782" lon="7.11032">
        <ele>97.757873535156</ele>
        <time>2020-05-14T15:49:41Z</time>
      </trkpt>
      <trkpt lat="43.58786" lon="7.11029">
        <ele>98.230590820312</ele>
        <time>2020-05-14T15:49:42Z</time>
      </trkpt>
      <trkpt lat="43.5879" lon="7.11024">
        <ele>93.96484375</ele>
        <time>2020-05-14T15:49:43Z</time>
      </trkpt>
      <trkpt lat="43.58795" lon="7.1102">
        <ele>95.319763183594</ele>
        <time>2020-05-14T15:49:44Z</time>
      </trkpt>
      <trkpt lat="43.588" lon="7.11016">
        <ele>95.444396972656</ele>
        <time>2020-05-14T15:49:45Z</time>
      </trkpt>
      <trkpt lat="43.58805" lon="7.11014">
        <ele>94.331115722656</ele>
        <time>2020-05-14T15:49:46Z</time>
      </trkpt>
      <trkpt lat="43.5881" lon="7.11013">
        <ele>93.485717773438</ele>
        <time>2020-05-14T15:49:47Z</time>
      </trkpt>
      <trkpt lat="43.58814" lon="7.11011">
        <ele>92.462219238281</ele>
        <time>2020-05-14T15:49:48Z</time>
      </trkpt>
      <trkpt lat="43.58819" lon="7.11009">
        <ele>91.452026367188</ele>
        <time>2020-05-14T15:49:49Z</time>
      </trkpt>
      <trkpt lat="43.58824" lon="7.11009">
        <ele>92.331481933594</ele>
        <time>2020-05-14T15:49:50Z</time>
      </trkpt>
      <trkpt lat="43.58828" lon="7.11008">
        <ele>92.76611328125</ele>
        <time>2020-05-14T15:49:51Z</time>
      </trkpt>
      <trkpt lat="43.58833" lon="7.1101">
        <ele>92.97216796875</ele>
        <time>2020-05-14T15:49:52Z</time>
      </trkpt>
      <trkpt lat="43.58837" lon="7.1101">
        <ele>94.103515625</ele>
        <time>2020-05-14T15:49:53Z</time>
      </trkpt>
      <trkpt lat="43.5884" lon="7.11011">
        <ele>93.277587890625</ele>
        <time>2020-05-14T15:49:54Z</time>
      </trkpt>
      <trkpt lat="43.58844" lon="7.11011">
        <ele>92.355712890625</ele>
        <time>2020-05-14T15:49:55Z</time>
      </trkpt>
      <trkpt lat="43.58848" lon="7.11014">
        <ele>91.996459960938</ele>
        <time>2020-05-14T15:49:56Z</time>
      </trkpt>
      <trkpt lat="43.58853" lon="7.11017">
        <ele>93.479797363281</ele>
        <time>2020-05-14T15:49:57Z</time>
      </trkpt>
      <trkpt lat="43.58857" lon="7.1102">
        <ele>92.661743164062</ele>
        <time>2020-05-14T15:49:58Z</time>
      </trkpt>
      <trkpt lat="43.58862" lon="7.11021">
        <ele>93.920471191406</ele>
        <time>2020-05-14T15:49:59Z</time>
      </trkpt>
      <trkpt lat="43.58866" lon="7.11024">
        <ele>94.171142578125</ele>
        <time>2020-05-14T15:50:00Z</time>
      </trkpt>
      <trkpt lat="43.5887" lon="7.11025">
        <ele>94.780822753906</ele>
        <time>2020-05-14T15:50:01Z</time>
      </trkpt>
      <trkpt lat="43.58875" lon="7.11026">
        <ele>96.773681640625</ele>
        <time>2020-05-14T15:50:02Z</time>
      </trkpt>
      <trkpt lat="43.58879" lon="7.11028">
        <ele>97.286254882812</ele>
        <time>2020-05-14T15:50:03Z</time>
      </trkpt>
      <trkpt lat="43.58883" lon="7.11029">
        <ele>97.23779296875</ele>
        <time>2020-05-14T15:50:04Z</time>
      </trkpt>
      <trkpt lat="43.58888" lon="7.1103">
        <ele>97.360534667969</ele>
        <time>2020-05-14T15:50:05Z</time>
      </trkpt>
      <trkpt lat="43.58892" lon="7.11031">
        <ele>97.538635253906</ele>
        <time>2020-05-14T15:50:06Z</time>
      </trkpt>
      <trkpt lat="43.58895" lon="7.11033">
        <ele>92.30517578125</ele>
        <time>2020-05-14T15:50:07Z</time>
      </trkpt>
      <trkpt lat="43.58899" lon="7.11034">
        <ele>92.008117675781</ele>
        <time>2020-05-14T15:50:08Z</time>
      </trkpt>
      <trkpt lat="43.58904" lon="7.11036">
        <ele>91.488952636719</ele>
        <time>2020-05-14T15:50:09Z</time>
      </trkpt>
      <trkpt lat="43.58908" lon="7.11037">
        <ele>91.174499511719</ele>
        <time>2020-05-14T15:50:10Z</time>
      </trkpt>
      <trkpt lat="43.58912" lon="7.11038">
        <ele>90.900390625</ele>
        <time>2020-05-14T15:50:11Z</time>
      </trkpt>
      <trkpt lat="43.58916" lon="7.1104">
        <ele>90.355651855469</ele>
        <time>2020-05-14T15:50:12Z</time>
      </trkpt>
      <trkpt lat="43.5892" lon="7.11041">
        <ele>91.524658203125</ele>
        <time>2020-05-14T15:50:13Z</time>
      </trkpt>
      <trkpt lat="43.58923" lon="7.11043">
        <ele>90.557495117188</ele>
        <time>2020-05-14T15:50:14Z</time>
      </trkpt>
      <trkpt lat="43.58927" lon="7.11044">
        <ele>90.214538574219</ele>
        <time>2020-05-14T15:50:15Z</time>
      </trkpt>
      <trkpt lat="43.58931" lon="7.11046">
        <ele>91.625610351562</ele>
        <time>2020-05-14T15:50:16Z</time>
      </trkpt>
      <trkpt lat="43.58935" lon="7.11047">
        <ele>92.882202148438</ele>
        <time>2020-05-14T15:50:17Z</time>
      </trkpt>
      <trkpt lat="43.58939" lon="7.11048">
        <ele>92.599609375</ele>
        <time>2020-05-14T15:50:18Z</time>
      </trkpt>
      <trkpt lat="43.58943" lon="7.11049">
        <ele>92.068786621094</ele>
        <time>2020-05-14T15:50:19Z</time>
      </trkpt>
      <trkpt lat="43.58947" lon="7.11049">
        <ele>92.3798828125</ele>
        <time>2020-05-14T15:50:20Z</time>
      </trkpt>
      <trkpt lat="43.58951" lon="7.11049">
        <ele>93.921203613281</ele>
        <time>2020-05-14T15:50:21Z</time>
      </trkpt>
      <trkpt lat="43.58955" lon="7.11049">
        <ele>95.200744628906</ele>
        <time>2020-05-14T15:50:22Z</time>
      </trkpt>
      <trkpt lat="43.58959" lon="7.11049">
        <ele>89.504211425781</ele>
        <time>2020-05-14T15:50:23Z</time>
      </trkpt>
      <trkpt lat="43.58963" lon="7.11049">
        <ele>90.584045410156</ele>
        <time>2020-05-14T15:50:24Z</time>
      </trkpt>
      <trkpt lat="43.58967" lon="7.11048">
        <ele>92.057556152344</ele>
        <time>2020-05-14T15:50:25Z</time>
      </trkpt>
      <trkpt lat="43.58972" lon="7.11047">
        <ele>92.315246582031</ele>
        <time>2020-05-14T15:50:26Z</time>
      </trkpt>
      <trkpt lat="43.58976" lon="7.11047">
        <ele>90.687866210938</ele>
        <time>2020-05-14T15:50:27Z</time>
      </trkpt>
      <trkpt lat="43.5898" lon="7.11046">
        <ele>90.655944824219</ele>
        <time>2020-05-14T15:50:28Z</time>
      </trkpt>
      <trkpt lat="43.58984" lon="7.11045">
        <ele>90.433776855469</ele>
        <time>2020-05-14T15:50:29Z</time>
      </trkpt>
      <trkpt lat="43.58988" lon="7.11043">
        <ele>89.8017578125</ele>
        <time>2020-05-14T15:50:30Z</time>
      </trkpt>
      <trkpt lat="43.58992" lon="7.11041">
        <ele>90.468994140625</ele>
        <time>2020-05-14T15:50:31Z</time>
      </trkpt>
      <trkpt lat="43.58996" lon="7.11038">
        <ele>88.779602050781</ele>
        <time>2020-05-14T15:50:32Z</time>
      </trkpt>
      <trkpt lat="43.59" lon="7.11035">
        <ele>88.841674804688</ele>
        <time>2020-05-14T15:50:33Z</time>
      </trkpt>
      <trkpt lat="43.59004" lon="7.11032">
        <ele>89.796203613281</ele>
        <time>2020-05-14T15:50:34Z</time>
      </trkpt>
      <trkpt lat="43.59007" lon="7.1103">
        <ele>88.900146484375</ele>
        <time>2020-05-14T15:50:35Z</time>
      </trkpt>
      <trkpt lat="43.59011" lon="7.11028">
        <ele>88.787841796875</ele>
        <time>2020-05-14T15:50:36Z</time>
      </trkpt>
      <trkpt lat="43.59015" lon="7.11025">
        <ele>88.236999511719</ele>
        <time>2020-05-14T15:50:37Z</time>
      </trkpt>
      <trkpt lat="43.59018" lon="7.11022">
        <ele>87.982788085938</ele>
        <time>2020-05-14T15:50:38Z</time>
      </trkpt>
      <trkpt lat="43.5902" lon="7.11018">
        <ele>89.010803222656</ele>
        <time>2020-05-14T15:50:39Z</time>
      </trkpt>
      <trkpt lat="43.59024" lon="7.11015">
        <ele>88.391052246094</ele>
        <time>2020-05-14T15:50:40Z</time>
      </trkpt>
      <trkpt lat="43.59027" lon="7.11011">
        <ele>87.614624023438</ele>
        <time>2020-05-14T15:50:41Z</time>
      </trkpt>
      <trkpt lat="43.5903" lon="7.11008">
        <ele>88.239807128906</ele>
        <time>2020-05-14T15:50:42Z</time>
      </trkpt>
      <trkpt lat="43.59033" lon="7.11003">
        <ele>88.133728027344</ele>
        <time>2020-05-14T15:50:43Z</time>
      </trkpt>
      <trkpt lat="43.59035" lon="7.10999">
        <ele>88.447631835938</ele>
        <time>2020-05-14T15:50:44Z</time>
      </trkpt>
      <trkpt lat="43.59038" lon="7.10993">
        <ele>86.856689453125</ele>
        <time>2020-05-14T15:50:45Z</time>
      </trkpt>
      <trkpt lat="43.59041" lon="7.10987">
        <ele>87.894592285156</ele>
        <time>2020-05-14T15:50:46Z</time>
      </trkpt>
      <trkpt lat="43.59044" lon="7.10983">
        <ele>87.698364257812</ele>
        <time>2020-05-14T15:50:47Z</time>
      </trkpt>
      <trkpt lat="43.59045" lon="7.10977">
        <ele>87.120971679688</ele>
        <time>2020-05-14T15:50:48Z</time>
      </trkpt>
      <trkpt lat="43.59046" lon="7.10972">
        <ele>87.89208984375</ele>
        <time>2020-05-14T15:50:49Z</time>
      </trkpt>
      <trkpt lat="43.59047" lon="7.10967">
        <ele>88.242858886719</ele>
        <time>2020-05-14T15:50:50Z</time>
      </trkpt>
      <trkpt lat="43.5905" lon="7.1096">
        <ele>89.408142089844</ele>
        <time>2020-05-14T15:50:51Z</time>
      </trkpt>
      <trkpt lat="43.59051" lon="7.10953">
        <ele>88.753295898438</ele>
        <time>2020-05-14T15:50:52Z</time>
      </trkpt>
      <trkpt lat="43.59052" lon="7.10947">
        <ele>88.373901367188</ele>
        <time>2020-05-14T15:50:53Z</time>
      </trkpt>
      <trkpt lat="43.59053" lon="7.10942">
        <ele>88.287109375</ele>
        <time>2020-05-14T15:50:54Z</time>
      </trkpt>
      <trkpt lat="43.59055" lon="7.10935">
        <ele>89.152465820312</ele>
        <time>2020-05-14T15:50:55Z</time>
      </trkpt>
      <trkpt lat="43.59054" lon="7.10928">
        <ele>89.026489257812</ele>
        <time>2020-05-14T15:50:56Z</time>
      </trkpt>
      <trkpt lat="43.59055" lon="7.10922">
        <ele>89.438110351562</ele>
        <time>2020-05-14T15:50:57Z</time>
      </trkpt>
      <trkpt lat="43.59054" lon="7.10917">
        <ele>93.510375976562</ele>
        <time>2020-05-14T15:50:58Z</time>
      </trkpt>
      <trkpt lat="43.59055" lon="7.10911">
        <ele>93.621643066406</ele>
        <time>2020-05-14T15:50:59Z</time>
      </trkpt>
      <trkpt lat="43.59055" lon="7.10904">
        <ele>93.418762207031</ele>
        <time>2020-05-14T15:51:00Z</time>
      </trkpt>
      <trkpt lat="43.59055" lon="7.10897">
        <ele>93.072387695312</ele>
        <time>2020-05-14T15:51:01Z</time>
      </trkpt>
      <trkpt lat="43.59055" lon="7.10891">
        <ele>92.765258789062</ele>
        <time>2020-05-14T15:51:02Z</time>
      </trkpt>
      <trkpt lat="43.59055" lon="7.10885">
        <ele>94.093383789062</ele>
        <time>2020-05-14T15:51:03Z</time>
      </trkpt>
      <trkpt lat="43.59056" lon="7.10878">
        <ele>94.050842285156</ele>
        <time>2020-05-14T15:51:04Z</time>
      </trkpt>
      <trkpt lat="43.59054" lon="7.10872">
        <ele>94.556884765625</ele>
        <time>2020-05-14T15:51:05Z</time>
      </trkpt>
      <trkpt lat="43.5905" lon="7.10865">
        <ele>88.399108886719</ele>
        <time>2020-05-14T15:51:06Z</time>
      </trkpt>
      <trkpt lat="43.59049" lon="7.10859">
        <ele>92.364562988281</ele>
        <time>2020-05-14T15:51:07Z</time>
      </trkpt>
      <trkpt lat="43.59048" lon="7.10851">
        <ele>93.058288574219</ele>
        <time>2020-05-14T15:51:08Z</time>
      </trkpt>
      <trkpt lat="43.59047" lon="7.10847">
        <ele>93.7509765625</ele>
        <time>2020-05-14T15:51:09Z</time>
      </trkpt>
      <trkpt lat="43.59046" lon="7.1084">
        <ele>94.565551757812</ele>
        <time>2020-05-14T15:51:10Z</time>
      </trkpt>
      <trkpt lat="43.59046" lon="7.10832">
        <ele>94.348449707031</ele>
        <time>2020-05-14T15:51:11Z</time>
      </trkpt>
      <trkpt lat="43.59044" lon="7.10825">
        <ele>92.954772949219</ele>
        <time>2020-05-14T15:51:12Z</time>
      </trkpt>
      <trkpt lat="43.59044" lon="7.10819">
        <ele>92.578735351562</ele>
        <time>2020-05-14T15:51:13Z</time>
      </trkpt>
      <trkpt lat="43.59043" lon="7.10812">
        <ele>92.576171875</ele>
        <time>2020-05-14T15:51:14Z</time>
      </trkpt>
      <trkpt lat="43.59041" lon="7.10806">
        <ele>91.905822753906</ele>
        <time>2020-05-14T15:51:15Z</time>
      </trkpt>
      <trkpt lat="43.59039" lon="7.10799">
        <ele>90.415832519531</ele>
        <time>2020-05-14T15:51:16Z</time>
      </trkpt>
      <trkpt lat="43.59039" lon="7.10793">
        <ele>90.98193359375</ele>
        <time>2020-05-14T15:51:17Z</time>
      </trkpt>
      <trkpt lat="43.59038" lon="7.10788">
        <ele>91.17041015625</ele>
        <time>2020-05-14T15:51:18Z</time>
      </trkpt>
      <trkpt lat="43.59037" lon="7.10781">
        <ele>92.145263671875</ele>
        <time>2020-05-14T15:51:19Z</time>
      </trkpt>
      <trkpt lat="43.59036" lon="7.10774">
        <ele>93.28564453125</ele>
        <time>2020-05-14T15:51:20Z</time>
      </trkpt>
      <trkpt lat="43.59036" lon="7.10768">
        <ele>92.813110351562</ele>
        <time>2020-05-14T15:51:21Z</time>
      </trkpt>
      <trkpt lat="43.59036" lon="7.10761">
        <ele>93.445373535156</ele>
        <time>2020-05-14T15:51:22Z</time>
      </trkpt>
      <trkpt lat="43.59037" lon="7.10754">
        <ele>96.867919921875</ele>
        <time>2020-05-14T15:51:23Z</time>
      </trkpt>
      <trkpt lat="43.59035" lon="7.10745">
        <ele>96.393676757812</ele>
        <time>2020-05-14T15:51:24Z</time>
      </trkpt>
      <trkpt lat="43.59036" lon="7.10737">
        <ele>95.920837402344</ele>
        <time>2020-05-14T15:51:25Z</time>
      </trkpt>
      <trkpt lat="43.59036" lon="7.1073">
        <ele>94.441162109375</ele>
        <time>2020-05-14T15:51:26Z</time>
      </trkpt>
      <trkpt lat="43.59037" lon="7.10724">
        <ele>87.462646484375</ele>
        <time>2020-05-14T15:51:27Z</time>
      </trkpt>
      <trkpt lat="43.59038" lon="7.10717">
        <ele>89.56201171875</ele>
        <time>2020-05-14T15:51:28Z</time>
      </trkpt>
      <trkpt lat="43.59039" lon="7.10711">
        <ele>89.876281738281</ele>
        <time>2020-05-14T15:51:29Z</time>
      </trkpt>
      <trkpt lat="43.5904" lon="7.10704">
        <ele>88.993286132812</ele>
        <time>2020-05-14T15:51:30Z</time>
      </trkpt>
      <trkpt lat="43.59042" lon="7.10698">
        <ele>89.822998046875</ele>
        <time>2020-05-14T15:51:31Z</time>
      </trkpt>
      <trkpt lat="43.59045" lon="7.10692">
        <ele>89.24560546875</ele>
        <time>2020-05-14T15:51:32Z</time>
      </trkpt>
      <trkpt lat="43.59047" lon="7.10686">
        <ele>89.686645507812</ele>
        <time>2020-05-14T15:51:33Z</time>
      </trkpt>
      <trkpt lat="43.59049" lon="7.1068">
        <ele>91.763916015625</ele>
        <time>2020-05-14T15:51:34Z</time>
      </trkpt>
      <trkpt lat="43.59051" lon="7.10674">
        <ele>91.978759765625</ele>
        <time>2020-05-14T15:51:35Z</time>
      </trkpt>
      <trkpt lat="43.59054" lon="7.10667">
        <ele>137.88623046875</ele>
        <time>2020-05-14T15:51:36Z</time>
      </trkpt>
      <trkpt lat="43.59055" lon="7.10663">
        <ele>125.39056396484</ele>
        <time>2020-05-14T15:51:37Z</time>
      </trkpt>
      <trkpt lat="43.59058" lon="7.10658">
        <ele>128.43701171875</ele>
        <time>2020-05-14T15:51:38Z</time>
      </trkpt>
      <trkpt lat="43.5906" lon="7.10653">
        <ele>134.17901611328</ele>
        <time>2020-05-14T15:51:39Z</time>
      </trkpt>
      <trkpt lat="43.59063" lon="7.10648">
        <ele>134.82464599609</ele>
        <time>2020-05-14T15:51:40Z</time>
      </trkpt>
      <trkpt lat="43.59065" lon="7.10643">
        <ele>133.37261962891</ele>
        <time>2020-05-14T15:51:41Z</time>
      </trkpt>
      <trkpt lat="43.59069" lon="7.10639">
        <ele>138.48571777344</ele>
        <time>2020-05-14T15:51:42Z</time>
      </trkpt>
      <trkpt lat="43.59072" lon="7.10636">
        <ele>136.41174316406</ele>
        <time>2020-05-14T15:51:43Z</time>
      </trkpt>
      <trkpt lat="43.59074" lon="7.10631">
        <ele>135.64697265625</ele>
        <time>2020-05-14T15:51:44Z</time>
      </trkpt>
      <trkpt lat="43.59077" lon="7.10627">
        <ele>132.0595703125</ele>
        <time>2020-05-14T15:51:45Z</time>
      </trkpt>
      <trkpt lat="43.5908" lon="7.10622">
        <ele>130.9033203125</ele>
        <time>2020-05-14T15:51:46Z</time>
      </trkpt>
      <trkpt lat="43.59083" lon="7.10617">
        <ele>129.64068603516</ele>
        <time>2020-05-14T15:51:47Z</time>
      </trkpt>
      <trkpt lat="43.59086" lon="7.10616">
        <ele>133.35638427734</ele>
        <time>2020-05-14T15:51:48Z</time>
      </trkpt>
      <trkpt lat="43.59089" lon="7.10612">
        <ele>125.72821044922</ele>
        <time>2020-05-14T15:51:49Z</time>
      </trkpt>
      <trkpt lat="43.59093" lon="7.10611">
        <ele>126.66589355469</ele>
        <time>2020-05-14T15:51:50Z</time>
      </trkpt>
      <trkpt lat="43.59096" lon="7.10608">
        <ele>122.65551757812</ele>
        <time>2020-05-14T15:51:51Z</time>
      </trkpt>
      <trkpt lat="43.59099" lon="7.10604">
        <ele>119.13433837891</ele>
        <time>2020-05-14T15:51:52Z</time>
      </trkpt>
      <trkpt lat="43.59102" lon="7.106">
        <ele>120.11254882812</ele>
        <time>2020-05-14T15:51:53Z</time>
      </trkpt>
      <trkpt lat="43.59105" lon="7.10597">
        <ele>124.76458740234</ele>
        <time>2020-05-14T15:51:54Z</time>
      </trkpt>
      <trkpt lat="43.59109" lon="7.10593">
        <ele>126.64929199219</ele>
        <time>2020-05-14T15:51:55Z</time>
      </trkpt>
      <trkpt lat="43.59112" lon="7.10589">
        <ele>130.36352539062</ele>
        <time>2020-05-14T15:51:56Z</time>
      </trkpt>
      <trkpt lat="43.59116" lon="7.10586">
        <ele>130.05297851562</ele>
        <time>2020-05-14T15:51:57Z</time>
      </trkpt>
      <trkpt lat="43.5912" lon="7.10583">
        <ele>133.25610351562</ele>
        <time>2020-05-14T15:51:58Z</time>
      </trkpt>
      <trkpt lat="43.59124" lon="7.1058">
        <ele>136.16418457031</ele>
        <time>2020-05-14T15:51:59Z</time>
      </trkpt>
      <trkpt lat="43.59127" lon="7.10578">
        <ele>137.97119140625</ele>
        <time>2020-05-14T15:52:00Z</time>
      </trkpt>
      <trkpt lat="43.59131" lon="7.10575">
        <ele>123.19055175781</ele>
        <time>2020-05-14T15:52:01Z</time>
      </trkpt>
      <trkpt lat="43.59134" lon="7.10573">
        <ele>128.50323486328</ele>
        <time>2020-05-14T15:52:02Z</time>
      </trkpt>
      <trkpt lat="43.59138" lon="7.1057">
        <ele>125.41680908203</ele>
        <time>2020-05-14T15:52:03Z</time>
      </trkpt>
      <trkpt lat="43.59141" lon="7.10568">
        <ele>125.3916015625</ele>
        <time>2020-05-14T15:52:04Z</time>
      </trkpt>
      <trkpt lat="43.59144" lon="7.10565">
        <ele>134.75360107422</ele>
        <time>2020-05-14T15:52:05Z</time>
      </trkpt>
      <trkpt lat="43.59148" lon="7.10563">
        <ele>136.01739501953</ele>
        <time>2020-05-14T15:52:06Z</time>
      </trkpt>
      <trkpt lat="43.59151" lon="7.1056">
        <ele>142.42596435547</ele>
        <time>2020-05-14T15:52:07Z</time>
      </trkpt>
      <trkpt lat="43.59153" lon="7.10557">
        <ele>124.94586181641</ele>
        <time>2020-05-14T15:52:08Z</time>
      </trkpt>
      <trkpt lat="43.59156" lon="7.10553">
        <ele>121.95861816406</ele>
        <time>2020-05-14T15:52:09Z</time>
      </trkpt>
      <trkpt lat="43.59158" lon="7.1055">
        <ele>94.919311523438</ele>
        <time>2020-05-14T15:52:10Z</time>
      </trkpt>
      <trkpt lat="43.5916" lon="7.10546">
        <ele>93.376037597656</ele>
        <time>2020-05-14T15:52:11Z</time>
      </trkpt>
      <trkpt lat="43.59162" lon="7.10542">
        <ele>93.1640625</ele>
        <time>2020-05-14T15:52:12Z</time>
      </trkpt>
      <trkpt lat="43.59164" lon="7.10537">
        <ele>92.755920410156</ele>
        <time>2020-05-14T15:52:13Z</time>
      </trkpt>
      <trkpt lat="43.59166" lon="7.10533">
        <ele>93.072937011719</ele>
        <time>2020-05-14T15:52:14Z</time>
      </trkpt>
      <trkpt lat="43.59168" lon="7.10529">
        <ele>93.583129882812</ele>
        <time>2020-05-14T15:52:15Z</time>
      </trkpt>
      <trkpt lat="43.5917" lon="7.10525">
        <ele>93.232116699219</ele>
        <time>2020-05-14T15:52:16Z</time>
      </trkpt>
      <trkpt lat="43.59172" lon="7.1052">
        <ele>94.204528808594</ele>
        <time>2020-05-14T15:52:17Z</time>
      </trkpt>
      <trkpt lat="43.59174" lon="7.10515">
        <ele>94.386108398438</ele>
        <time>2020-05-14T15:52:18Z</time>
      </trkpt>
      <trkpt lat="43.59176" lon="7.10511">
        <ele>94.677795410156</ele>
        <time>2020-05-14T15:52:19Z</time>
      </trkpt>
      <trkpt lat="43.59178" lon="7.10507">
        <ele>94.311157226562</ele>
        <time>2020-05-14T15:52:20Z</time>
      </trkpt>
      <trkpt lat="43.5918" lon="7.10503">
        <ele>97.031188964844</ele>
        <time>2020-05-14T15:52:21Z</time>
      </trkpt>
      <trkpt lat="43.59181" lon="7.10499">
        <ele>96.352111816406</ele>
        <time>2020-05-14T15:52:22Z</time>
      </trkpt>
      <trkpt lat="43.59183" lon="7.10494">
        <ele>95.937377929688</ele>
        <time>2020-05-14T15:52:23Z</time>
      </trkpt>
      <trkpt lat="43.59184" lon="7.10488">
        <ele>97.392456054688</ele>
        <time>2020-05-14T15:52:24Z</time>
      </trkpt>
      <trkpt lat="43.59185" lon="7.10483">
        <ele>93.189331054688</ele>
        <time>2020-05-14T15:52:25Z</time>
      </trkpt>
      <trkpt lat="43.59186" lon="7.10478">
        <ele>94.348388671875</ele>
        <time>2020-05-14T15:52:26Z</time>
      </trkpt>
      <trkpt lat="43.59187" lon="7.10473">
        <ele>94.603149414062</ele>
        <time>2020-05-14T15:52:27Z</time>
      </trkpt>
      <trkpt lat="43.59189" lon="7.10467">
        <ele>95.2744140625</ele>
        <time>2020-05-14T15:52:28Z</time>
      </trkpt>
      <trkpt lat="43.5919" lon="7.10462">
        <ele>95.210021972656</ele>
        <time>2020-05-14T15:52:29Z</time>
      </trkpt>
      <trkpt lat="43.59191" lon="7.10458">
        <ele>95.466613769531</ele>
        <time>2020-05-14T15:52:30Z</time>
      </trkpt>
      <trkpt lat="43.59193" lon="7.10453">
        <ele>95.717895507812</ele>
        <time>2020-05-14T15:52:31Z</time>
      </trkpt>
      <trkpt lat="43.59194" lon="7.10448">
        <ele>96.5615234375</ele>
        <time>2020-05-14T15:52:32Z</time>
      </trkpt>
      <trkpt lat="43.59195" lon="7.10443">
        <ele>95.91357421875</ele>
        <time>2020-05-14T15:52:33Z</time>
      </trkpt>
      <trkpt lat="43.59197" lon="7.10438">
        <ele>95.306274414062</ele>
        <time>2020-05-14T15:52:34Z</time>
      </trkpt>
      <trkpt lat="43.59198" lon="7.10433">
        <ele>95.352722167969</ele>
        <time>2020-05-14T15:52:35Z</time>
      </trkpt>
      <trkpt lat="43.59199" lon="7.10428">
        <ele>95.021118164062</ele>
        <time>2020-05-14T15:52:36Z</time>
      </trkpt>
      <trkpt lat="43.592" lon="7.10422">
        <ele>97.374633789062</ele>
        <time>2020-05-14T15:52:37Z</time>
      </trkpt>
      <trkpt lat="43.59202" lon="7.10417">
        <ele>97.547546386719</ele>
        <time>2020-05-14T15:52:38Z</time>
      </trkpt>
      <trkpt lat="43.59203" lon="7.10412">
        <ele>97.390686035156</ele>
        <time>2020-05-14T15:52:39Z</time>
      </trkpt>
      <trkpt lat="43.59204" lon="7.10407">
        <ele>96.628540039062</ele>
        <time>2020-05-14T15:52:40Z</time>
      </trkpt>
      <trkpt lat="43.59206" lon="7.10402">
        <ele>96.663024902344</ele>
        <time>2020-05-14T15:52:41Z</time>
      </trkpt>
      <trkpt lat="43.59207" lon="7.10397">
        <ele>93.181945800781</ele>
        <time>2020-05-14T15:52:42Z</time>
      </trkpt>
      <trkpt lat="43.59208" lon="7.10392">
        <ele>93.650512695312</ele>
        <time>2020-05-14T15:52:43Z</time>
      </trkpt>
      <trkpt lat="43.59209" lon="7.10387">
        <ele>94.119506835938</ele>
        <time>2020-05-14T15:52:44Z</time>
      </trkpt>
      <trkpt lat="43.5921" lon="7.10382">
        <ele>93.761474609375</ele>
        <time>2020-05-14T15:52:45Z</time>
      </trkpt>
      <trkpt lat="43.59211" lon="7.10379">
        <ele>94.491760253906</ele>
        <time>2020-05-14T15:52:46Z</time>
      </trkpt>
      <trkpt lat="43.59212" lon="7.10376">
        <ele>94.386169433594</ele>
        <time>2020-05-14T15:52:47Z</time>
      </trkpt>
      <trkpt lat="43.59213" lon="7.10373">
        <ele>93.988098144531</ele>
        <time>2020-05-14T15:52:48Z</time>
      </trkpt>
      <trkpt lat="43.59215" lon="7.1037">
        <ele>93.715576171875</ele>
        <time>2020-05-14T15:52:49Z</time>
      </trkpt>
      <trkpt lat="43.59216" lon="7.10367">
        <ele>93.327453613281</ele>
        <time>2020-05-14T15:52:50Z</time>
      </trkpt>
      <trkpt lat="43.59217" lon="7.10365">
        <ele>92.420166015625</ele>
        <time>2020-05-14T15:52:51Z</time>
      </trkpt>
      <trkpt lat="43.59219" lon="7.10363">
        <ele>92.135192871094</ele>
        <time>2020-05-14T15:52:52Z</time>
      </trkpt>
      <trkpt lat="43.5922" lon="7.10361">
        <ele>92.827575683594</ele>
        <time>2020-05-14T15:52:53Z</time>
      </trkpt>
      <trkpt lat="43.59221" lon="7.10357">
        <ele>93.840393066406</ele>
        <time>2020-05-14T15:52:54Z</time>
      </trkpt>
      <trkpt lat="43.59221" lon="7.10353">
        <ele>93.455810546875</ele>
        <time>2020-05-14T15:52:55Z</time>
      </trkpt>
      <trkpt lat="43.59222" lon="7.1035">
        <ele>92.415405273438</ele>
        <time>2020-05-14T15:52:56Z</time>
      </trkpt>
      <trkpt lat="43.59222" lon="7.10346">
        <ele>94.064392089844</ele>
        <time>2020-05-14T15:52:57Z</time>
      </trkpt>
      <trkpt lat="43.59223" lon="7.10342">
        <ele>93.884033203125</ele>
        <time>2020-05-14T15:52:58Z</time>
      </trkpt>
      <trkpt lat="43.59223" lon="7.10339">
        <ele>95.102233886719</ele>
        <time>2020-05-14T15:52:59Z</time>
      </trkpt>
      <trkpt lat="43.59223" lon="7.10335">
        <ele>95.535095214844</ele>
        <time>2020-05-14T15:53:00Z</time>
      </trkpt>
      <trkpt lat="43.59224" lon="7.10331">
        <ele>96.594055175781</ele>
        <time>2020-05-14T15:53:01Z</time>
      </trkpt>
      <trkpt lat="43.59225" lon="7.10327">
        <ele>98.396850585938</ele>
        <time>2020-05-14T15:53:02Z</time>
      </trkpt>
      <trkpt lat="43.59226" lon="7.10323">
        <ele>98.921447753906</ele>
        <time>2020-05-14T15:53:03Z</time>
      </trkpt>
      <trkpt lat="43.59227" lon="7.10319">
        <ele>99.5234375</ele>
        <time>2020-05-14T15:53:04Z</time>
      </trkpt>
      <trkpt lat="43.59229" lon="7.10316">
        <ele>99.889770507812</ele>
        <time>2020-05-14T15:53:05Z</time>
      </trkpt>
      <trkpt lat="43.5923" lon="7.10312">
        <ele>100.80218505859</ele>
        <time>2020-05-14T15:53:06Z</time>
      </trkpt>
      <trkpt lat="43.59232" lon="7.10308">
        <ele>100.65563964844</ele>
        <time>2020-05-14T15:53:07Z</time>
      </trkpt>
      <trkpt lat="43.59233" lon="7.10304">
        <ele>97.898864746094</ele>
        <time>2020-05-14T15:53:08Z</time>
      </trkpt>
      <trkpt lat="43.59235" lon="7.103">
        <ele>98.719421386719</ele>
        <time>2020-05-14T15:53:09Z</time>
      </trkpt>
      <trkpt lat="43.59236" lon="7.10297">
        <ele>99.062866210938</ele>
        <time>2020-05-14T15:53:10Z</time>
      </trkpt>
      <trkpt lat="43.59237" lon="7.10293">
        <ele>98.72314453125</ele>
        <time>2020-05-14T15:53:11Z</time>
      </trkpt>
      <trkpt lat="43.59239" lon="7.10289">
        <ele>98.516418457031</ele>
        <time>2020-05-14T15:53:12Z</time>
      </trkpt>
      <trkpt lat="43.5924" lon="7.10287">
        <ele>100.40368652344</ele>
        <time>2020-05-14T15:53:13Z</time>
      </trkpt>
      <trkpt lat="43.59241" lon="7.10284">
        <ele>100.20867919922</ele>
        <time>2020-05-14T15:53:14Z</time>
      </trkpt>
      <trkpt lat="43.59243" lon="7.1028">
        <ele>100.49670410156</ele>
        <time>2020-05-14T15:53:15Z</time>
      </trkpt>
      <trkpt lat="43.59244" lon="7.10276">
        <ele>100.73565673828</ele>
        <time>2020-05-14T15:53:16Z</time>
      </trkpt>
      <trkpt lat="43.59246" lon="7.10272">
        <ele>97.478881835938</ele>
        <time>2020-05-14T15:53:17Z</time>
      </trkpt>
      <trkpt lat="43.59247" lon="7.10268">
        <ele>98.002563476562</ele>
        <time>2020-05-14T15:53:18Z</time>
      </trkpt>
      <trkpt lat="43.59249" lon="7.10266">
        <ele>97.837585449219</ele>
        <time>2020-05-14T15:53:19Z</time>
      </trkpt>
      <trkpt lat="43.59252" lon="7.10265">
        <ele>98.569763183594</ele>
        <time>2020-05-14T15:53:20Z</time>
      </trkpt>
      <trkpt lat="43.59254" lon="7.10266">
        <ele>98.17236328125</ele>
        <time>2020-05-14T15:53:21Z</time>
      </trkpt>
      <trkpt lat="43.59256" lon="7.10269">
        <ele>93.535766601562</ele>
        <time>2020-05-14T15:53:22Z</time>
      </trkpt>
      <trkpt lat="43.59257" lon="7.10273">
        <ele>93.416748046875</ele>
        <time>2020-05-14T15:53:23Z</time>
      </trkpt>
      <trkpt lat="43.59258" lon="7.10275">
        <ele>93.065795898438</ele>
        <time>2020-05-14T15:53:24Z</time>
      </trkpt>
      <trkpt lat="43.59259" lon="7.10277">
        <ele>93.242553710938</ele>
        <time>2020-05-14T15:53:25Z</time>
      </trkpt>
      <trkpt lat="43.59259" lon="7.10278">
        <ele>93.13037109375</ele>
        <time>2020-05-14T15:53:26Z</time>
      </trkpt>
      <trkpt lat="43.5926" lon="7.1028">
        <ele>93.127685546875</ele>
        <time>2020-05-14T15:53:27Z</time>
      </trkpt>
      <trkpt lat="43.5926" lon="7.1028">
        <ele>93.182067871094</ele>
        <time>2020-05-14T15:53:28Z</time>
      </trkpt>
      <trkpt lat="43.5926" lon="7.10281">
        <ele>93.161437988281</ele>
        <time>2020-05-14T15:53:29Z</time>
      </trkpt>
      <trkpt lat="43.59259" lon="7.1028">
        <ele>93.085754394531</ele>
        <time>2020-05-14T15:53:30Z</time>
      </trkpt>
      <trkpt lat="43.5926" lon="7.10279">
        <ele>93.037475585938</ele>
        <time>2020-05-14T15:53:31Z</time>
      </trkpt>
      <trkpt lat="43.5926" lon="7.10279">
        <ele>102.43615722656</ele>
        <time>2020-05-14T15:53:32Z</time>
      </trkpt>
      <trkpt lat="43.5926" lon="7.10279">
        <ele>101.58032226562</ele>
        <time>2020-05-14T15:53:33Z</time>
      </trkpt>
      <trkpt lat="43.5926" lon="7.10279">
        <ele>101.53039550781</ele>
        <time>2020-05-14T15:53:34Z</time>
      </trkpt>
      <trkpt lat="43.59259" lon="7.10278">
        <ele>101.47601318359</ele>
        <time>2020-05-14T15:53:35Z</time>
      </trkpt>
      <trkpt lat="43.59259" lon="7.10278">
        <ele>101.23376464844</ele>
        <time>2020-05-14T15:53:36Z</time>
      </trkpt>
      <trkpt lat="43.59259" lon="7.10277">
        <ele>101.58209228516</ele>
        <time>2020-05-14T15:53:37Z</time>
      </trkpt>
      <trkpt lat="43.59259" lon="7.10277">
        <ele>100.6845703125</ele>
        <time>2020-05-14T15:53:38Z</time>
      </trkpt>
      <trkpt lat="43.59259" lon="7.10277">
        <ele>101.66320800781</ele>
        <time>2020-05-14T15:53:39Z</time>
      </trkpt>
      <trkpt lat="43.59258" lon="7.10277">
        <ele>101.75311279297</ele>
        <time>2020-05-14T15:53:40Z</time>
      </trkpt>
      <trkpt lat="43.59258" lon="7.10277">
        <ele>100.19714355469</ele>
        <time>2020-05-14T15:53:41Z</time>
      </trkpt>
      <trkpt lat="43.59258" lon="7.10277">
        <ele>92.755126953125</ele>
        <time>2020-05-14T15:53:42Z</time>
      </trkpt>
      <trkpt lat="43.59258" lon="7.10277">
        <ele>92.749389648438</ele>
        <time>2020-05-14T15:53:43Z</time>
      </trkpt>
      <trkpt lat="43.59258" lon="7.10278">
        <ele>92.725341796875</ele>
        <time>2020-05-14T15:53:44Z</time>
      </trkpt>
      <trkpt lat="43.59258" lon="7.10278">
        <ele>92.752685546875</ele>
        <time>2020-05-14T15:53:45Z</time>
      </trkpt>
      <trkpt lat="43.59258" lon="7.10278">
        <ele>92.713134765625</ele>
        <time>2020-05-14T15:53:46Z</time>
      </trkpt>
      <trkpt lat="43.59258" lon="7.10278">
        <ele>92.725769042969</ele>
        <time>2020-05-14T15:53:47Z</time>
      </trkpt>
      <trkpt lat="43.59258" lon="7.10278">
        <ele>92.712829589844</ele>
        <time>2020-05-14T15:53:48Z</time>
      </trkpt>
      <trkpt lat="43.59258" lon="7.10278">
        <ele>92.700561523438</ele>
        <time>2020-05-14T15:53:49Z</time>
      </trkpt>
      <trkpt lat="43.59259" lon="7.10278">
        <ele>92.580627441406</ele>
        <time>2020-05-14T15:53:50Z</time>
      </trkpt>
      <trkpt lat="43.59259" lon="7.10279">
        <ele>92.741333007812</ele>
        <time>2020-05-14T15:53:51Z</time>
      </trkpt>
      <trkpt lat="43.59259" lon="7.10279">
        <ele>92.725952148438</ele>
        <time>2020-05-14T15:53:52Z</time>
      </trkpt>
      <trkpt lat="43.59259" lon="7.10279">
        <ele>92.86279296875</ele>
        <time>2020-05-14T15:53:53Z</time>
      </trkpt>
      <trkpt lat="43.59259" lon="7.10278">
        <ele>92.847961425781</ele>
        <time>2020-05-14T15:53:54Z</time>
      </trkpt>
      <trkpt lat="43.5926" lon="7.10278">
        <ele>92.703552246094</ele>
        <time>2020-05-14T15:53:55Z</time>
      </trkpt>
      <trkpt lat="43.5926" lon="7.10279">
        <ele>92.628540039062</ele>
        <time>2020-05-14T15:53:56Z</time>
      </trkpt>
      <trkpt lat="43.5926" lon="7.10279">
        <ele>92.664428710938</ele>
        <time>2020-05-14T15:53:57Z</time>
      </trkpt>
      <trkpt lat="43.5926" lon="7.10278">
        <ele>92.707336425781</ele>
        <time>2020-05-14T15:53:58Z</time>
      </trkpt>
      <trkpt lat="43.5926" lon="7.10278">
        <ele>92.739196777344</ele>
        <time>2020-05-14T15:53:59Z</time>
      </trkpt>
      <trkpt lat="43.5926" lon="7.10278">
        <ele>92.734436035156</ele>
        <time>2020-05-14T15:54:00Z</time>
      </trkpt>
      <trkpt lat="43.5926" lon="7.10279">
        <ele>92.578369140625</ele>
        <time>2020-05-14T15:54:01Z</time>
      </trkpt>
      <trkpt lat="43.5926" lon="7.10279">
        <ele>92.655395507812</ele>
        <time>2020-05-14T15:54:02Z</time>
      </trkpt>
      <trkpt lat="43.5926" lon="7.10279">
        <ele>92.781799316406</ele>
        <time>2020-05-14T15:54:03Z</time>
      </trkpt>
      <trkpt lat="43.59259" lon="7.10278">
        <ele>92.755432128906</ele>
        <time>2020-05-14T15:54:04Z</time>
      </trkpt>
      <trkpt lat="43.59259" lon="7.10278">
        <ele>92.745910644531</ele>
        <time>2020-05-14T15:54:05Z</time>
      </trkpt>
      <trkpt lat="43.59259" lon="7.10278">
        <ele>92.790832519531</ele>
        <time>2020-05-14T15:54:06Z</time>
      </trkpt>
      <trkpt lat="43.59259" lon="7.10278">
        <ele>92.781494140625</ele>
        <time>2020-05-14T15:54:07Z</time>
      </trkpt>
      <trkpt lat="43.59258" lon="7.10278">
        <ele>92.783569335938</ele>
        <time>2020-05-14T15:54:08Z</time>
      </trkpt>
      <trkpt lat="43.59258" lon="7.10278">
        <ele>92.788940429688</ele>
        <time>2020-05-14T15:54:09Z</time>
      </trkpt>
      <trkpt lat="43.59258" lon="7.10278">
        <ele>92.788696289062</ele>
        <time>2020-05-14T15:54:10Z</time>
      </trkpt>
      <trkpt lat="43.59258" lon="7.10278">
        <ele>92.785400390625</ele>
        <time>2020-05-14T15:54:11Z</time>
      </trkpt>
      <trkpt lat="43.59258" lon="7.10278">
        <ele>92.786682128906</ele>
        <time>2020-05-14T15:54:12Z</time>
      </trkpt>
      <trkpt lat="43.59258" lon="7.10278">
        <ele>92.7900390625</ele>
        <time>2020-05-14T15:54:13Z</time>
      </trkpt>
      <trkpt lat="43.59258" lon="7.10278">
        <ele>92.790161132812</ele>
        <time>2020-05-14T15:54:14Z</time>
      </trkpt>
      <trkpt lat="43.59258" lon="7.10277">
        <ele>92.792663574219</ele>
        <time>2020-05-14T15:54:15Z</time>
      </trkpt>
      <trkpt lat="43.59258" lon="7.10277">
        <ele>92.792602539062</ele>
        <time>2020-05-14T15:54:16Z</time>
      </trkpt>
      <trkpt lat="43.59258" lon="7.10277">
        <ele>92.791870117188</ele>
        <time>2020-05-14T15:54:17Z</time>
      </trkpt>
      <trkpt lat="43.59258" lon="7.10277">
        <ele>92.793579101562</ele>
        <time>2020-05-14T15:54:18Z</time>
      </trkpt>
      <trkpt lat="43.59258" lon="7.10277">
        <ele>92.791564941406</ele>
        <time>2020-05-14T15:54:19Z</time>
      </trkpt>
      <trkpt lat="43.59258" lon="7.10277">
        <ele>92.789794921875</ele>
        <time>2020-05-14T15:54:20Z</time>
      </trkpt>
      <trkpt lat="43.59258" lon="7.10277">
        <ele>92.79052734375</ele>
        <time>2020-05-14T15:54:21Z</time>
      </trkpt>
      <trkpt lat="43.59258" lon="7.10277">
        <ele>92.791259765625</ele>
        <time>2020-05-14T15:54:22Z</time>
      </trkpt>
      <trkpt lat="43.59258" lon="7.10277">
        <ele>92.790893554688</ele>
        <time>2020-05-14T15:54:23Z</time>
      </trkpt>
      <trkpt lat="43.59258" lon="7.10277">
        <ele>92.793823242188</ele>
        <time>2020-05-14T15:54:24Z</time>
      </trkpt>
      <trkpt lat="43.59258" lon="7.10277">
        <ele>92.795593261719</ele>
        <time>2020-05-14T15:54:25Z</time>
      </trkpt>
      <trkpt lat="43.59258" lon="7.10277">
        <ele>92.795532226562</ele>
        <time>2020-05-14T15:54:26Z</time>
      </trkpt>
      <trkpt lat="43.59258" lon="7.10277">
        <ele>92.796142578125</ele>
        <time>2020-05-14T15:54:27Z</time>
      </trkpt>
      <trkpt lat="43.59258" lon="7.10277">
        <ele>92.797485351562</ele>
        <time>2020-05-14T15:54:28Z</time>
      </trkpt>
      <trkpt lat="43.59258" lon="7.10277">
        <ele>92.797424316406</ele>
        <time>2020-05-14T15:54:29Z</time>
      </trkpt>
      <trkpt lat="43.59258" lon="7.10277">
        <ele>92.797119140625</ele>
        <time>2020-05-14T15:54:30Z</time>
      </trkpt>
      <trkpt lat="43.59258" lon="7.10277">
        <ele>92.796997070312</ele>
        <time>2020-05-14T15:54:31Z</time>
      </trkpt>
      <trkpt lat="43.59258" lon="7.10277">
        <ele>92.795715332031</ele>
        <time>2020-05-14T15:54:32Z</time>
      </trkpt>
      <trkpt lat="43.59258" lon="7.10277">
        <ele>92.795043945312</ele>
        <time>2020-05-14T15:54:33Z</time>
      </trkpt>
      <trkpt lat="43.59258" lon="7.10277">
        <ele>92.794006347656</ele>
        <time>2020-05-14T15:54:34Z</time>
      </trkpt>
      <trkpt lat="43.59258" lon="7.10277">
        <ele>92.793823242188</ele>
        <time>2020-05-14T15:54:35Z</time>
      </trkpt>
      <trkpt lat="43.59258" lon="7.10277">
        <ele>92.795349121094</ele>
        <time>2020-05-14T15:54:36Z</time>
      </trkpt>
      <trkpt lat="43.59258" lon="7.10277">
        <ele>92.794067382812</ele>
        <time>2020-05-14T15:54:37Z</time>
      </trkpt>
      <trkpt lat="43.59258" lon="7.10277">
        <ele>92.766479492188</ele>
        <time>2020-05-14T15:54:38Z</time>
      </trkpt>
      <trkpt lat="43.59258" lon="7.10277">
        <ele>92.781433105469</ele>
        <time>2020-05-14T15:54:39Z</time>
      </trkpt>
      <trkpt lat="43.59258" lon="7.10278">
        <ele>92.679565429688</ele>
        <time>2020-05-14T15:54:40Z</time>
      </trkpt>
      <trkpt lat="43.59258" lon="7.10278">
        <ele>92.59228515625</ele>
        <time>2020-05-14T15:54:41Z</time>
      </trkpt>
      <trkpt lat="43.59258" lon="7.10278">
        <ele>92.50146484375</ele>
        <time>2020-05-14T15:54:42Z</time>
      </trkpt>
      <trkpt lat="43.59258" lon="7.10278">
        <ele>92.529663085938</ele>
        <time>2020-05-14T15:54:43Z</time>
      </trkpt>
      <trkpt lat="43.59258" lon="7.10278">
        <ele>92.473205566406</ele>
        <time>2020-05-14T15:54:44Z</time>
      </trkpt>
      <trkpt lat="43.59258" lon="7.10278">
        <ele>92.35009765625</ele>
        <time>2020-05-14T15:54:45Z</time>
      </trkpt>
      <trkpt lat="43.59258" lon="7.10278">
        <ele>92.55712890625</ele>
        <time>2020-05-14T15:54:46Z</time>
      </trkpt>
      <trkpt lat="43.59258" lon="7.10278">
        <ele>92.61669921875</ele>
        <time>2020-05-14T15:54:47Z</time>
      </trkpt>
      <trkpt lat="43.59258" lon="7.10278">
        <ele>92.644409179688</ele>
        <time>2020-05-14T15:54:48Z</time>
      </trkpt>
      <trkpt lat="43.59258" lon="7.10278">
        <ele>92.655212402344</ele>
        <time>2020-05-14T15:54:49Z</time>
      </trkpt>
      <trkpt lat="43.59258" lon="7.10278">
        <ele>92.638610839844</ele>
        <time>2020-05-14T15:54:50Z</time>
      </trkpt>
      <trkpt lat="43.59258" lon="7.10278">
        <ele>92.62060546875</ele>
        <time>2020-05-14T15:54:51Z</time>
      </trkpt>
      <trkpt lat="43.59258" lon="7.10278">
        <ele>92.995239257812</ele>
        <time>2020-05-14T15:54:52Z</time>
      </trkpt>
      <trkpt lat="43.59258" lon="7.10277">
        <ele>92.436645507812</ele>
        <time>2020-05-14T15:54:53Z</time>
      </trkpt>
      <trkpt lat="43.59258" lon="7.10278">
        <ele>92.22802734375</ele>
        <time>2020-05-14T15:54:54Z</time>
      </trkpt>
      <trkpt lat="43.59258" lon="7.10279">
        <ele>92.463256835938</ele>
        <time>2020-05-14T15:54:55Z</time>
      </trkpt>
      <trkpt lat="43.59257" lon="7.10278">
        <ele>92.844177246094</ele>
        <time>2020-05-14T15:54:56Z</time>
      </trkpt>
      <trkpt lat="43.59257" lon="7.10278">
        <ele>93.248901367188</ele>
        <time>2020-05-14T15:54:57Z</time>
      </trkpt>
      <trkpt lat="43.59257" lon="7.10278">
        <ele>93.284423828125</ele>
        <time>2020-05-14T15:54:58Z</time>
      </trkpt>
      <trkpt lat="43.59257" lon="7.10278">
        <ele>92.969543457031</ele>
        <time>2020-05-14T15:54:59Z</time>
      </trkpt>
      <trkpt lat="43.59257" lon="7.10277">
        <ele>92.643615722656</ele>
        <time>2020-05-14T15:55:00Z</time>
      </trkpt>
      <trkpt lat="43.59257" lon="7.10277">
        <ele>97.254089355469</ele>
        <time>2020-05-14T15:55:01Z</time>
      </trkpt>
      <trkpt lat="43.59257" lon="7.10277">
        <ele>96.247741699219</ele>
        <time>2020-05-14T15:55:02Z</time>
      </trkpt>
      <trkpt lat="43.59257" lon="7.10277">
        <ele>96.476501464844</ele>
        <time>2020-05-14T15:55:03Z</time>
      </trkpt>
      <trkpt lat="43.59257" lon="7.10277">
        <ele>96.78076171875</ele>
        <time>2020-05-14T15:55:04Z</time>
      </trkpt>
      <trkpt lat="43.59257" lon="7.10276">
        <ele>92.629150390625</ele>
        <time>2020-05-14T15:55:05Z</time>
      </trkpt>
      <trkpt lat="43.59256" lon="7.10276">
        <ele>92.696655273438</ele>
        <time>2020-05-14T15:55:06Z</time>
      </trkpt>
      <trkpt lat="43.59256" lon="7.10276">
        <ele>92.820068359375</ele>
        <time>2020-05-14T15:55:07Z</time>
      </trkpt>
      <trkpt lat="43.59256" lon="7.10277">
        <ele>92.608154296875</ele>
        <time>2020-05-14T15:55:08Z</time>
      </trkpt>
      <trkpt lat="43.59256" lon="7.10278">
        <ele>92.642700195312</ele>
        <time>2020-05-14T15:55:09Z</time>
      </trkpt>
      <trkpt lat="43.59256" lon="7.10278">
        <ele>92.7509765625</ele>
        <time>2020-05-14T15:55:10Z</time>
      </trkpt>
      <trkpt lat="43.59256" lon="7.10277">
        <ele>92.6982421875</ele>
        <time>2020-05-14T15:55:11Z</time>
      </trkpt>
      <trkpt lat="43.59256" lon="7.10277">
        <ele>92.596618652344</ele>
        <time>2020-05-14T15:55:12Z</time>
      </trkpt>
      <trkpt lat="43.59255" lon="7.10277">
        <ele>92.74609375</ele>
        <time>2020-05-14T15:55:13Z</time>
      </trkpt>
      <trkpt lat="43.59254" lon="7.10276">
        <ele>92.8955078125</ele>
        <time>2020-05-14T15:55:14Z</time>
      </trkpt>
      <trkpt lat="43.59252" lon="7.10273">
        <ele>93.417907714844</ele>
        <time>2020-05-14T15:55:15Z</time>
      </trkpt>
      <trkpt lat="43.59251" lon="7.1027">
        <ele>93.871215820312</ele>
        <time>2020-05-14T15:55:16Z</time>
      </trkpt>
      <trkpt lat="43.59251" lon="7.10267">
        <ele>94.437316894531</ele>
        <time>2020-05-14T15:55:17Z</time>
      </trkpt>
      <trkpt lat="43.59251" lon="7.10264">
        <ele>94.195373535156</ele>
        <time>2020-05-14T15:55:18Z</time>
      </trkpt>
      <trkpt lat="43.5925" lon="7.10261">
        <ele>93.748291015625</ele>
        <time>2020-05-14T15:55:19Z</time>
      </trkpt>
      <trkpt lat="43.59249" lon="7.10259">
        <ele>93.263549804688</ele>
        <time>2020-05-14T15:55:20Z</time>
      </trkpt>
      <trkpt lat="43.59247" lon="7.10256">
        <ele>92.83837890625</ele>
        <time>2020-05-14T15:55:21Z</time>
      </trkpt>
      <trkpt lat="43.59247" lon="7.10252">
        <ele>93.280578613281</ele>
        <time>2020-05-14T15:55:22Z</time>
      </trkpt>
      <trkpt lat="43.59248" lon="7.10248">
        <ele>92.76611328125</ele>
        <time>2020-05-14T15:55:23Z</time>
      </trkpt>
      <trkpt lat="43.5925" lon="7.10245">
        <ele>97.074340820312</ele>
        <time>2020-05-14T15:55:24Z</time>
      </trkpt>
      <trkpt lat="43.59253" lon="7.10241">
        <ele>95.241882324219</ele>
        <time>2020-05-14T15:55:25Z</time>
      </trkpt>
      <trkpt lat="43.59255" lon="7.10238">
        <ele>95.131713867188</ele>
        <time>2020-05-14T15:55:26Z</time>
      </trkpt>
      <trkpt lat="43.59257" lon="7.10234">
        <ele>95.304260253906</ele>
        <time>2020-05-14T15:55:27Z</time>
      </trkpt>
      <trkpt lat="43.59259" lon="7.1023">
        <ele>95.217651367188</ele>
        <time>2020-05-14T15:55:28Z</time>
      </trkpt>
      <trkpt lat="43.59261" lon="7.10227">
        <ele>95.143859863281</ele>
        <time>2020-05-14T15:55:29Z</time>
      </trkpt>
      <trkpt lat="43.59263" lon="7.10223">
        <ele>95.136291503906</ele>
        <time>2020-05-14T15:55:30Z</time>
      </trkpt>
      <trkpt lat="43.59264" lon="7.10219">
        <ele>95.217407226562</ele>
        <time>2020-05-14T15:55:31Z</time>
      </trkpt>
      <trkpt lat="43.59266" lon="7.10216">
        <ele>95.323486328125</ele>
        <time>2020-05-14T15:55:32Z</time>
      </trkpt>
      <trkpt lat="43.59268" lon="7.10212">
        <ele>95.399536132812</ele>
        <time>2020-05-14T15:55:33Z</time>
      </trkpt>
      <trkpt lat="43.5927" lon="7.10208">
        <ele>95.478515625</ele>
        <time>2020-05-14T15:55:34Z</time>
      </trkpt>
      <trkpt lat="43.59271" lon="7.10205">
        <ele>95.602600097656</ele>
        <time>2020-05-14T15:55:35Z</time>
      </trkpt>
      <trkpt lat="43.59273" lon="7.10201">
        <ele>95.73486328125</ele>
        <time>2020-05-14T15:55:36Z</time>
      </trkpt>
      <trkpt lat="43.59275" lon="7.10197">
        <ele>95.889831542969</ele>
        <time>2020-05-14T15:55:37Z</time>
      </trkpt>
      <trkpt lat="43.59276" lon="7.10194">
        <ele>96.157836914062</ele>
        <time>2020-05-14T15:55:38Z</time>
      </trkpt>
      <trkpt lat="43.59278" lon="7.1019">
        <ele>96.40478515625</ele>
        <time>2020-05-14T15:55:39Z</time>
      </trkpt>
      <trkpt lat="43.59279" lon="7.10187">
        <ele>94.703430175781</ele>
        <time>2020-05-14T15:55:40Z</time>
      </trkpt>
      <trkpt lat="43.59281" lon="7.10184">
        <ele>94.657775878906</ele>
        <time>2020-05-14T15:55:41Z</time>
      </trkpt>
      <trkpt lat="43.59282" lon="7.1018">
        <ele>94.983032226562</ele>
        <time>2020-05-14T15:55:42Z</time>
      </trkpt>
      <trkpt lat="43.59284" lon="7.10178">
        <ele>94.887756347656</ele>
        <time>2020-05-14T15:55:43Z</time>
      </trkpt>
      <trkpt lat="43.59285" lon="7.10175">
        <ele>95.153442382812</ele>
        <time>2020-05-14T15:55:44Z</time>
      </trkpt>
      <trkpt lat="43.59286" lon="7.10173">
        <ele>95.39697265625</ele>
        <time>2020-05-14T15:55:45Z</time>
      </trkpt>
      <trkpt lat="43.59286" lon="7.10171">
        <ele>96.017272949219</ele>
        <time>2020-05-14T15:55:46Z</time>
      </trkpt>
      <trkpt lat="43.59286" lon="7.1017">
        <ele>96.343933105469</ele>
        <time>2020-05-14T15:55:47Z</time>
      </trkpt>
      <trkpt lat="43.59286" lon="7.1017">
        <ele>96.530822753906</ele>
        <time>2020-05-14T15:55:48Z</time>
      </trkpt>
      <trkpt lat="43.59286" lon="7.1017">
        <ele>96.658935546875</ele>
        <time>2020-05-14T15:55:49Z</time>
      </trkpt>
      <trkpt lat="43.59286" lon="7.10169">
        <ele>96.7490234375</ele>
        <time>2020-05-14T15:55:50Z</time>
      </trkpt>
      <trkpt lat="43.59286" lon="7.10166">
        <ele>97.074096679688</ele>
        <time>2020-05-14T15:55:51Z</time>
      </trkpt>
      <trkpt lat="43.59287" lon="7.10164">
        <ele>97.091735839844</ele>
        <time>2020-05-14T15:55:52Z</time>
      </trkpt>
      <trkpt lat="43.59287" lon="7.10162">
        <ele>97.465393066406</ele>
        <time>2020-05-14T15:55:53Z</time>
      </trkpt>
      <trkpt lat="43.59287" lon="7.10162">
        <ele>97.11376953125</ele>
        <time>2020-05-14T15:55:54Z</time>
      </trkpt>
      <trkpt lat="43.59287" lon="7.10163">
        <ele>97.121704101562</ele>
        <time>2020-05-14T15:55:55Z</time>
      </trkpt>
      <trkpt lat="43.59287" lon="7.10162">
        <ele>99.159851074219</ele>
        <time>2020-05-14T15:55:56Z</time>
      </trkpt>
      <trkpt lat="43.59287" lon="7.10161">
        <ele>99.173400878906</ele>
        <time>2020-05-14T15:55:57Z</time>
      </trkpt>
      <trkpt lat="43.59288" lon="7.10158">
        <ele>99.260070800781</ele>
        <time>2020-05-14T15:55:58Z</time>
      </trkpt>
      <trkpt lat="43.59289" lon="7.10155">
        <ele>99.412841796875</ele>
        <time>2020-05-14T15:55:59Z</time>
      </trkpt>
      <trkpt lat="43.5929" lon="7.10151">
        <ele>99.539306640625</ele>
        <time>2020-05-14T15:56:00Z</time>
      </trkpt>
      <trkpt lat="43.59291" lon="7.10146">
        <ele>99.636169433594</ele>
        <time>2020-05-14T15:56:01Z</time>
      </trkpt>
      <trkpt lat="43.59293" lon="7.10142">
        <ele>99.783874511719</ele>
        <time>2020-05-14T15:56:02Z</time>
      </trkpt>
      <trkpt lat="43.59294" lon="7.10137">
        <ele>99.958862304688</ele>
        <time>2020-05-14T15:56:03Z</time>
      </trkpt>
      <trkpt lat="43.59295" lon="7.10132">
        <ele>99.898254394531</ele>
        <time>2020-05-14T15:56:04Z</time>
      </trkpt>
      <trkpt lat="43.59296" lon="7.10127">
        <ele>99.899475097656</ele>
        <time>2020-05-14T15:56:05Z</time>
      </trkpt>
      <trkpt lat="43.59297" lon="7.10122">
        <ele>100.22961425781</ele>
        <time>2020-05-14T15:56:06Z</time>
      </trkpt>
      <trkpt lat="43.59297" lon="7.10117">
        <ele>100.38146972656</ele>
        <time>2020-05-14T15:56:07Z</time>
      </trkpt>
      <trkpt lat="43.59299" lon="7.10111">
        <ele>100.59466552734</ele>
        <time>2020-05-14T15:56:08Z</time>
      </trkpt>
      <trkpt lat="43.593" lon="7.10106">
        <ele>100.88647460938</ele>
        <time>2020-05-14T15:56:09Z</time>
      </trkpt>
      <trkpt lat="43.59301" lon="7.10102">
        <ele>100.79260253906</ele>
        <time>2020-05-14T15:56:10Z</time>
      </trkpt>
      <trkpt lat="43.59302" lon="7.10097">
        <ele>101.2177734375</ele>
        <time>2020-05-14T15:56:11Z</time>
      </trkpt>
      <trkpt lat="43.59303" lon="7.10092">
        <ele>101.36077880859</ele>
        <time>2020-05-14T15:56:12Z</time>
      </trkpt>
      <trkpt lat="43.59304" lon="7.10086">
        <ele>101.61682128906</ele>
        <time>2020-05-14T15:56:13Z</time>
      </trkpt>
      <trkpt lat="43.59305" lon="7.10081">
        <ele>101.716796875</ele>
        <time>2020-05-14T15:56:14Z</time>
      </trkpt>
      <trkpt lat="43.59306" lon="7.10076">
        <ele>102.10046386719</ele>
        <time>2020-05-14T15:56:15Z</time>
      </trkpt>
      <trkpt lat="43.59307" lon="7.10071">
        <ele>102.92492675781</ele>
        <time>2020-05-14T15:56:16Z</time>
      </trkpt>
      <trkpt lat="43.59308" lon="7.10066">
        <ele>103.26672363281</ele>
        <time>2020-05-14T15:56:17Z</time>
      </trkpt>
      <trkpt lat="43.5931" lon="7.10062">
        <ele>103.19854736328</ele>
        <time>2020-05-14T15:56:18Z</time>
      </trkpt>
      <trkpt lat="43.59311" lon="7.10057">
        <ele>103.07250976562</ele>
        <time>2020-05-14T15:56:19Z</time>
      </trkpt>
      <trkpt lat="43.59312" lon="7.10052">
        <ele>103.41003417969</ele>
        <time>2020-05-14T15:56:20Z</time>
      </trkpt>
      <trkpt lat="43.59313" lon="7.10047">
        <ele>103.62719726562</ele>
        <time>2020-05-14T15:56:21Z</time>
      </trkpt>
      <trkpt lat="43.59314" lon="7.10043">
        <ele>103.55969238281</ele>
        <time>2020-05-14T15:56:22Z</time>
      </trkpt>
      <trkpt lat="43.59315" lon="7.10038">
        <ele>104.11407470703</ele>
        <time>2020-05-14T15:56:23Z</time>
      </trkpt>
      <trkpt lat="43.59317" lon="7.10033">
        <ele>104.36218261719</ele>
        <time>2020-05-14T15:56:24Z</time>
      </trkpt>
      <trkpt lat="43.59318" lon="7.10028">
        <ele>104.34631347656</ele>
        <time>2020-05-14T15:56:25Z</time>
      </trkpt>
      <trkpt lat="43.59319" lon="7.10024">
        <ele>104.29046630859</ele>
        <time>2020-05-14T15:56:26Z</time>
      </trkpt>
      <trkpt lat="43.59321" lon="7.10019">
        <ele>104.26202392578</ele>
        <time>2020-05-14T15:56:27Z</time>
      </trkpt>
      <trkpt lat="43.59322" lon="7.10015">
        <ele>104.28137207031</ele>
        <time>2020-05-14T15:56:28Z</time>
      </trkpt>
      <trkpt lat="43.59323" lon="7.1001">
        <ele>104.49749755859</ele>
        <time>2020-05-14T15:56:29Z</time>
      </trkpt>
      <trkpt lat="43.59325" lon="7.10005">
        <ele>104.57208251953</ele>
        <time>2020-05-14T15:56:30Z</time>
      </trkpt>
      <trkpt lat="43.59327" lon="7.1">
        <ele>104.82202148438</ele>
        <time>2020-05-14T15:56:31Z</time>
      </trkpt>
      <trkpt lat="43.59328" lon="7.09996">
        <ele>104.8447265625</ele>
        <time>2020-05-14T15:56:32Z</time>
      </trkpt>
      <trkpt lat="43.5933" lon="7.09991">
        <ele>104.60876464844</ele>
        <time>2020-05-14T15:56:33Z</time>
      </trkpt>
      <trkpt lat="43.59332" lon="7.09986">
        <ele>104.21411132812</ele>
        <time>2020-05-14T15:56:34Z</time>
      </trkpt>
      <trkpt lat="43.59333" lon="7.09981">
        <ele>103.97552490234</ele>
        <time>2020-05-14T15:56:35Z</time>
      </trkpt>
      <trkpt lat="43.59336" lon="7.09976">
        <ele>103.87658691406</ele>
        <time>2020-05-14T15:56:36Z</time>
      </trkpt>
      <trkpt lat="43.59338" lon="7.09972">
        <ele>103.78070068359</ele>
        <time>2020-05-14T15:56:37Z</time>
      </trkpt>
      <trkpt lat="43.5934" lon="7.09967">
        <ele>103.56762695312</ele>
        <time>2020-05-14T15:56:38Z</time>
      </trkpt>
      <trkpt lat="43.59342" lon="7.09963">
        <ele>103.76037597656</ele>
        <time>2020-05-14T15:56:39Z</time>
      </trkpt>
      <trkpt lat="43.59344" lon="7.09959">
        <ele>103.75012207031</ele>
        <time>2020-05-14T15:56:40Z</time>
      </trkpt>
      <trkpt lat="43.59346" lon="7.09954">
        <ele>103.75311279297</ele>
        <time>2020-05-14T15:56:41Z</time>
      </trkpt>
      <trkpt lat="43.59349" lon="7.0995">
        <ele>103.92431640625</ele>
        <time>2020-05-14T15:56:42Z</time>
      </trkpt>
      <trkpt lat="43.59351" lon="7.09945">
        <ele>104.18878173828</ele>
        <time>2020-05-14T15:56:43Z</time>
      </trkpt>
      <trkpt lat="43.59353" lon="7.09941">
        <ele>104.49041748047</ele>
        <time>2020-05-14T15:56:44Z</time>
      </trkpt>
      <trkpt lat="43.59356" lon="7.09937">
        <ele>104.45501708984</ele>
        <time>2020-05-14T15:56:45Z</time>
      </trkpt>
      <trkpt lat="43.59358" lon="7.09933">
        <ele>104.32299804688</ele>
        <time>2020-05-14T15:56:46Z</time>
      </trkpt>
      <trkpt lat="43.59361" lon="7.09929">
        <ele>104.17364501953</ele>
        <time>2020-05-14T15:56:47Z</time>
      </trkpt>
      <trkpt lat="43.59364" lon="7.09925">
        <ele>104.25390625</ele>
        <time>2020-05-14T15:56:48Z</time>
      </trkpt>
      <trkpt lat="43.59366" lon="7.09921">
        <ele>104.20904541016</ele>
        <time>2020-05-14T15:56:49Z</time>
      </trkpt>
      <trkpt lat="43.59369" lon="7.09917">
        <ele>104.32208251953</ele>
        <time>2020-05-14T15:56:50Z</time>
      </trkpt>
      <trkpt lat="43.59371" lon="7.09913">
        <ele>104.4208984375</ele>
        <time>2020-05-14T15:56:51Z</time>
      </trkpt>
      <trkpt lat="43.59374" lon="7.09909">
        <ele>104.60015869141</ele>
        <time>2020-05-14T15:56:52Z</time>
      </trkpt>
      <trkpt lat="43.59376" lon="7.09905">
        <ele>104.71044921875</ele>
        <time>2020-05-14T15:56:53Z</time>
      </trkpt>
      <trkpt lat="43.59379" lon="7.09901">
        <ele>104.85266113281</ele>
        <time>2020-05-14T15:56:54Z</time>
      </trkpt>
      <trkpt lat="43.59382" lon="7.09897">
        <ele>104.84838867188</ele>
        <time>2020-05-14T15:56:55Z</time>
      </trkpt>
      <trkpt lat="43.59384" lon="7.09893">
        <ele>104.95129394531</ele>
        <time>2020-05-14T15:56:56Z</time>
      </trkpt>
      <trkpt lat="43.59387" lon="7.09889">
        <ele>105.02532958984</ele>
        <time>2020-05-14T15:56:57Z</time>
      </trkpt>
      <trkpt lat="43.59389" lon="7.09885">
        <ele>104.82727050781</ele>
        <time>2020-05-14T15:56:58Z</time>
      </trkpt>
      <trkpt lat="43.59392" lon="7.09881">
        <ele>104.68298339844</ele>
        <time>2020-05-14T15:56:59Z</time>
      </trkpt>
      <trkpt lat="43.59394" lon="7.09877">
        <ele>104.80261230469</ele>
        <time>2020-05-14T15:57:00Z</time>
      </trkpt>
      <trkpt lat="43.59397" lon="7.09873">
        <ele>105.14886474609</ele>
        <time>2020-05-14T15:57:01Z</time>
      </trkpt>
      <trkpt lat="43.59399" lon="7.09869">
        <ele>105.30456542969</ele>
        <time>2020-05-14T15:57:02Z</time>
      </trkpt>
      <trkpt lat="43.59402" lon="7.09865">
        <ele>105.59039306641</ele>
        <time>2020-05-14T15:57:03Z</time>
      </trkpt>
      <trkpt lat="43.59404" lon="7.09862">
        <ele>105.68688964844</ele>
        <time>2020-05-14T15:57:04Z</time>
      </trkpt>
      <trkpt lat="43.59406" lon="7.09858">
        <ele>105.94964599609</ele>
        <time>2020-05-14T15:57:05Z</time>
      </trkpt>
      <trkpt lat="43.59409" lon="7.09854">
        <ele>106.24829101562</ele>
        <time>2020-05-14T15:57:06Z</time>
      </trkpt>
      <trkpt lat="43.59412" lon="7.0985">
        <ele>106.65954589844</ele>
        <time>2020-05-14T15:57:07Z</time>
      </trkpt>
      <trkpt lat="43.59414" lon="7.09846">
        <ele>106.51739501953</ele>
        <time>2020-05-14T15:57:08Z</time>
      </trkpt>
      <trkpt lat="43.59416" lon="7.09842">
        <ele>106.77423095703</ele>
        <time>2020-05-14T15:57:09Z</time>
      </trkpt>
      <trkpt lat="43.59419" lon="7.09838">
        <ele>106.99536132812</ele>
        <time>2020-05-14T15:57:10Z</time>
      </trkpt>
      <trkpt lat="43.59421" lon="7.09834">
        <ele>107.06518554688</ele>
        <time>2020-05-14T15:57:11Z</time>
      </trkpt>
      <trkpt lat="43.59424" lon="7.09831">
        <ele>107.02233886719</ele>
        <time>2020-05-14T15:57:12Z</time>
      </trkpt>
      <trkpt lat="43.59426" lon="7.09826">
        <ele>106.97283935547</ele>
        <time>2020-05-14T15:57:13Z</time>
      </trkpt>
      <trkpt lat="43.59428" lon="7.09822">
        <ele>107.14886474609</ele>
        <time>2020-05-14T15:57:14Z</time>
      </trkpt>
      <trkpt lat="43.5943" lon="7.09818">
        <ele>107.08294677734</ele>
        <time>2020-05-14T15:57:15Z</time>
      </trkpt>
      <trkpt lat="43.59432" lon="7.09814">
        <ele>107.01550292969</ele>
        <time>2020-05-14T15:57:16Z</time>
      </trkpt>
      <trkpt lat="43.59433" lon="7.09809">
        <ele>107.03570556641</ele>
        <time>2020-05-14T15:57:17Z</time>
      </trkpt>
      <trkpt lat="43.59435" lon="7.09805">
        <ele>107.21331787109</ele>
        <time>2020-05-14T15:57:18Z</time>
      </trkpt>
      <trkpt lat="43.59436" lon="7.098">
        <ele>107.38830566406</ele>
        <time>2020-05-14T15:57:19Z</time>
      </trkpt>
      <trkpt lat="43.59437" lon="7.09796">
        <ele>107.56768798828</ele>
        <time>2020-05-14T15:57:20Z</time>
      </trkpt>
      <trkpt lat="43.59438" lon="7.09791">
        <ele>107.75885009766</ele>
        <time>2020-05-14T15:57:21Z</time>
      </trkpt>
      <trkpt lat="43.59439" lon="7.09786">
        <ele>107.79046630859</ele>
        <time>2020-05-14T15:57:22Z</time>
      </trkpt>
      <trkpt lat="43.5944" lon="7.09781">
        <ele>108.07751464844</ele>
        <time>2020-05-14T15:57:23Z</time>
      </trkpt>
      <trkpt lat="43.5944" lon="7.09776">
        <ele>107.85638427734</ele>
        <time>2020-05-14T15:57:24Z</time>
      </trkpt>
      <trkpt lat="43.59441" lon="7.09771">
        <ele>108.02935791016</ele>
        <time>2020-05-14T15:57:25Z</time>
      </trkpt>
      <trkpt lat="43.59441" lon="7.09766">
        <ele>108.05297851562</ele>
        <time>2020-05-14T15:57:26Z</time>
      </trkpt>
      <trkpt lat="43.59441" lon="7.09761">
        <ele>108.22601318359</ele>
        <time>2020-05-14T15:57:27Z</time>
      </trkpt>
      <trkpt lat="43.59441" lon="7.09756">
        <ele>108.32562255859</ele>
        <time>2020-05-14T15:57:28Z</time>
      </trkpt>
      <trkpt lat="43.5944" lon="7.09751">
        <ele>108.43133544922</ele>
        <time>2020-05-14T15:57:29Z</time>
      </trkpt>
      <trkpt lat="43.5944" lon="7.09747">
        <ele>108.11834716797</ele>
        <time>2020-05-14T15:57:30Z</time>
      </trkpt>
      <trkpt lat="43.59439" lon="7.09742">
        <ele>108.21301269531</ele>
        <time>2020-05-14T15:57:31Z</time>
      </trkpt>
      <trkpt lat="43.59438" lon="7.09737">
        <ele>107.8974609375</ele>
        <time>2020-05-14T15:57:32Z</time>
      </trkpt>
      <trkpt lat="43.59437" lon="7.09732">
        <ele>107.77380371094</ele>
        <time>2020-05-14T15:57:33Z</time>
      </trkpt>
      <trkpt lat="43.59436" lon="7.09728">
        <ele>107.89001464844</ele>
        <time>2020-05-14T15:57:34Z</time>
      </trkpt>
      <trkpt lat="43.59435" lon="7.09723">
        <ele>108.02026367188</ele>
        <time>2020-05-14T15:57:35Z</time>
      </trkpt>
      <trkpt lat="43.59433" lon="7.09719">
        <ele>108.201171875</ele>
        <time>2020-05-14T15:57:36Z</time>
      </trkpt>
      <trkpt lat="43.59432" lon="7.09714">
        <ele>108.24237060547</ele>
        <time>2020-05-14T15:57:37Z</time>
      </trkpt>
      <trkpt lat="43.5943" lon="7.0971">
        <ele>107.76025390625</ele>
        <time>2020-05-14T15:57:38Z</time>
      </trkpt>
      <trkpt lat="43.59428" lon="7.09705">
        <ele>107.71069335938</ele>
        <time>2020-05-14T15:57:39Z</time>
      </trkpt>
      <trkpt lat="43.59427" lon="7.09701">
        <ele>107.86212158203</ele>
        <time>2020-05-14T15:57:40Z</time>
      </trkpt>
      <trkpt lat="43.59425" lon="7.09696">
        <ele>107.83367919922</ele>
        <time>2020-05-14T15:57:41Z</time>
      </trkpt>
      <trkpt lat="43.59423" lon="7.09691">
        <ele>107.84197998047</ele>
        <time>2020-05-14T15:57:42Z</time>
      </trkpt>
      <trkpt lat="43.59422" lon="7.09687">
        <ele>107.63659667969</ele>
        <time>2020-05-14T15:57:43Z</time>
      </trkpt>
      <trkpt lat="43.5942" lon="7.09682">
        <ele>107.30743408203</ele>
        <time>2020-05-14T15:57:44Z</time>
      </trkpt>
      <trkpt lat="43.59419" lon="7.09677">
        <ele>107.39947509766</ele>
        <time>2020-05-14T15:57:45Z</time>
      </trkpt>
      <trkpt lat="43.59417" lon="7.09673">
        <ele>107.52557373047</ele>
        <time>2020-05-14T15:57:46Z</time>
      </trkpt>
      <trkpt lat="43.59415" lon="7.09668">
        <ele>107.73919677734</ele>
        <time>2020-05-14T15:57:47Z</time>
      </trkpt>
      <trkpt lat="43.59414" lon="7.09663">
        <ele>107.61193847656</ele>
        <time>2020-05-14T15:57:48Z</time>
      </trkpt>
      <trkpt lat="43.59412" lon="7.09659">
        <ele>107.78784179688</ele>
        <time>2020-05-14T15:57:49Z</time>
      </trkpt>
      <trkpt lat="43.5941" lon="7.09655">
        <ele>107.63214111328</ele>
        <time>2020-05-14T15:57:50Z</time>
      </trkpt>
      <trkpt lat="43.59409" lon="7.0965">
        <ele>107.59252929688</ele>
        <time>2020-05-14T15:57:51Z</time>
      </trkpt>
      <trkpt lat="43.59408" lon="7.09645">
        <ele>107.84661865234</ele>
        <time>2020-05-14T15:57:52Z</time>
      </trkpt>
      <trkpt lat="43.59406" lon="7.0964">
        <ele>107.81988525391</ele>
        <time>2020-05-14T15:57:53Z</time>
      </trkpt>
      <trkpt lat="43.59405" lon="7.09636">
        <ele>107.95526123047</ele>
        <time>2020-05-14T15:57:54Z</time>
      </trkpt>
      <trkpt lat="43.59404" lon="7.09631">
        <ele>108.39001464844</ele>
        <time>2020-05-14T15:57:55Z</time>
      </trkpt>
      <trkpt lat="43.59403" lon="7.09626">
        <ele>108.12438964844</ele>
        <time>2020-05-14T15:57:56Z</time>
      </trkpt>
      <trkpt lat="43.59402" lon="7.09621">
        <ele>108.30535888672</ele>
        <time>2020-05-14T15:57:57Z</time>
      </trkpt>
      <trkpt lat="43.59401" lon="7.09616">
        <ele>108.26550292969</ele>
        <time>2020-05-14T15:57:58Z</time>
      </trkpt>
      <trkpt lat="43.594" lon="7.09611">
        <ele>108.31048583984</ele>
        <time>2020-05-14T15:57:59Z</time>
      </trkpt>
      <trkpt lat="43.594" lon="7.09606">
        <ele>108.46325683594</ele>
        <time>2020-05-14T15:58:00Z</time>
      </trkpt>
      <trkpt lat="43.59399" lon="7.09601">
        <ele>108.82696533203</ele>
        <time>2020-05-14T15:58:01Z</time>
      </trkpt>
      <trkpt lat="43.59399" lon="7.09596">
        <ele>109.02722167969</ele>
        <time>2020-05-14T15:58:02Z</time>
      </trkpt>
      <trkpt lat="43.59399" lon="7.09591">
        <ele>109.1806640625</ele>
        <time>2020-05-14T15:58:03Z</time>
      </trkpt>
      <trkpt lat="43.59399" lon="7.09585">
        <ele>109.06298828125</ele>
        <time>2020-05-14T15:58:04Z</time>
      </trkpt>
      <trkpt lat="43.59399" lon="7.0958">
        <ele>109.14044189453</ele>
        <time>2020-05-14T15:58:05Z</time>
      </trkpt>
      <trkpt lat="43.59399" lon="7.09575">
        <ele>109.30548095703</ele>
        <time>2020-05-14T15:58:06Z</time>
      </trkpt>
      <trkpt lat="43.59399" lon="7.0957">
        <ele>109.43487548828</ele>
        <time>2020-05-14T15:58:07Z</time>
      </trkpt>
      <trkpt lat="43.59399" lon="7.09565">
        <ele>109.39526367188</ele>
        <time>2020-05-14T15:58:08Z</time>
      </trkpt>
      <trkpt lat="43.59399" lon="7.09559">
        <ele>109.82818603516</ele>
        <time>2020-05-14T15:58:09Z</time>
      </trkpt>
      <trkpt lat="43.59399" lon="7.09554">
        <ele>109.91845703125</ele>
        <time>2020-05-14T15:58:10Z</time>
      </trkpt>
      <trkpt lat="43.594" lon="7.09548">
        <ele>109.97888183594</ele>
        <time>2020-05-14T15:58:11Z</time>
      </trkpt>
      <trkpt lat="43.594" lon="7.09543">
        <ele>110.27282714844</ele>
        <time>2020-05-14T15:58:12Z</time>
      </trkpt>
      <trkpt lat="43.594" lon="7.09537">
        <ele>110.30493164062</ele>
        <time>2020-05-14T15:58:13Z</time>
      </trkpt>
      <trkpt lat="43.59401" lon="7.09532">
        <ele>110.54943847656</ele>
        <time>2020-05-14T15:58:14Z</time>
      </trkpt>
      <trkpt lat="43.59401" lon="7.09527">
        <ele>110.72961425781</ele>
        <time>2020-05-14T15:58:15Z</time>
      </trkpt>
      <trkpt lat="43.59401" lon="7.09521">
        <ele>110.34753417969</ele>
        <time>2020-05-14T15:58:16Z</time>
      </trkpt>
      <trkpt lat="43.59402" lon="7.09516">
        <ele>110.63696289062</ele>
        <time>2020-05-14T15:58:17Z</time>
      </trkpt>
      <trkpt lat="43.59403" lon="7.09511">
        <ele>110.89801025391</ele>
        <time>2020-05-14T15:58:18Z</time>
      </trkpt>
      <trkpt lat="43.59404" lon="7.09506">
        <ele>111.17218017578</ele>
        <time>2020-05-14T15:58:19Z</time>
      </trkpt>
      <trkpt lat="43.59405" lon="7.09501">
        <ele>111.10046386719</ele>
        <time>2020-05-14T15:58:20Z</time>
      </trkpt>
      <trkpt lat="43.59406" lon="7.09496">
        <ele>111.23785400391</ele>
        <time>2020-05-14T15:58:21Z</time>
      </trkpt>
      <trkpt lat="43.59407" lon="7.09491">
        <ele>111.58795166016</ele>
        <time>2020-05-14T15:58:22Z</time>
      </trkpt>
      <trkpt lat="43.59408" lon="7.09486">
        <ele>112.08258056641</ele>
        <time>2020-05-14T15:58:23Z</time>
      </trkpt>
      <trkpt lat="43.59409" lon="7.09483">
        <ele>112.46459960938</ele>
        <time>2020-05-14T15:58:24Z</time>
      </trkpt>
      <trkpt lat="43.5941" lon="7.09478">
        <ele>113.27380371094</ele>
        <time>2020-05-14T15:58:25Z</time>
      </trkpt>
      <trkpt lat="43.59412" lon="7.09473">
        <ele>114.01391601562</ele>
        <time>2020-05-14T15:58:26Z</time>
      </trkpt>
      <trkpt lat="43.59413" lon="7.09468">
        <ele>114.07763671875</ele>
        <time>2020-05-14T15:58:27Z</time>
      </trkpt>
      <trkpt lat="43.59415" lon="7.09464">
        <ele>113.87475585938</ele>
        <time>2020-05-14T15:58:28Z</time>
      </trkpt>
      <trkpt lat="43.59416" lon="7.09459">
        <ele>114.18896484375</ele>
        <time>2020-05-14T15:58:29Z</time>
      </trkpt>
      <trkpt lat="43.59418" lon="7.09454">
        <ele>114.04510498047</ele>
        <time>2020-05-14T15:58:30Z</time>
      </trkpt>
      <trkpt lat="43.59419" lon="7.0945">
        <ele>113.99755859375</ele>
        <time>2020-05-14T15:58:31Z</time>
      </trkpt>
      <trkpt lat="43.59421" lon="7.09445">
        <ele>114.01116943359</ele>
        <time>2020-05-14T15:58:32Z</time>
      </trkpt>
      <trkpt lat="43.59422" lon="7.0944">
        <ele>114.10272216797</ele>
        <time>2020-05-14T15:58:33Z</time>
      </trkpt>
      <trkpt lat="43.59424" lon="7.09436">
        <ele>114.07183837891</ele>
        <time>2020-05-14T15:58:34Z</time>
      </trkpt>
      <trkpt lat="43.59426" lon="7.09431">
        <ele>114.24768066406</ele>
        <time>2020-05-14T15:58:35Z</time>
      </trkpt>
      <trkpt lat="43.59427" lon="7.09426">
        <ele>114.42266845703</ele>
        <time>2020-05-14T15:58:36Z</time>
      </trkpt>
      <trkpt lat="43.59429" lon="7.09421">
        <ele>114.69647216797</ele>
        <time>2020-05-14T15:58:37Z</time>
      </trkpt>
      <trkpt lat="43.59431" lon="7.09416">
        <ele>114.92053222656</ele>
        <time>2020-05-14T15:58:38Z</time>
      </trkpt>
      <trkpt lat="43.59432" lon="7.09411">
        <ele>115.12548828125</ele>
        <time>2020-05-14T15:58:39Z</time>
      </trkpt>
      <trkpt lat="43.59434" lon="7.09407">
        <ele>115.4345703125</ele>
        <time>2020-05-14T15:58:40Z</time>
      </trkpt>
      <trkpt lat="43.59435" lon="7.09402">
        <ele>115.62609863281</ele>
        <time>2020-05-14T15:58:41Z</time>
      </trkpt>
      <trkpt lat="43.59437" lon="7.09397">
        <ele>115.80682373047</ele>
        <time>2020-05-14T15:58:42Z</time>
      </trkpt>
      <trkpt lat="43.59439" lon="7.09393">
        <ele>115.88879394531</ele>
        <time>2020-05-14T15:58:43Z</time>
      </trkpt>
      <trkpt lat="43.5944" lon="7.09388">
        <ele>116.33770751953</ele>
        <time>2020-05-14T15:58:44Z</time>
      </trkpt>
      <trkpt lat="43.59442" lon="7.09384">
        <ele>116.76287841797</ele>
        <time>2020-05-14T15:58:45Z</time>
      </trkpt>
      <trkpt lat="43.59444" lon="7.09379">
        <ele>117.07250976562</ele>
        <time>2020-05-14T15:58:46Z</time>
      </trkpt>
      <trkpt lat="43.59446" lon="7.09375">
        <ele>116.82275390625</ele>
        <time>2020-05-14T15:58:47Z</time>
      </trkpt>
      <trkpt lat="43.59447" lon="7.0937">
        <ele>117.33581542969</ele>
        <time>2020-05-14T15:58:48Z</time>
      </trkpt>
      <trkpt lat="43.59449" lon="7.09366">
        <ele>117.31079101562</ele>
        <time>2020-05-14T15:58:49Z</time>
      </trkpt>
      <trkpt lat="43.59451" lon="7.09361">
        <ele>117.32196044922</ele>
        <time>2020-05-14T15:58:50Z</time>
      </trkpt>
      <trkpt lat="43.59453" lon="7.09357">
        <ele>117.17303466797</ele>
        <time>2020-05-14T15:58:51Z</time>
      </trkpt>
      <trkpt lat="43.59454" lon="7.09352">
        <ele>117.08428955078</ele>
        <time>2020-05-14T15:58:52Z</time>
      </trkpt>
      <trkpt lat="43.59456" lon="7.09348">
        <ele>117.09515380859</ele>
        <time>2020-05-14T15:58:53Z</time>
      </trkpt>
      <trkpt lat="43.59457" lon="7.09342">
        <ele>117.21301269531</ele>
        <time>2020-05-14T15:58:54Z</time>
      </trkpt>
      <trkpt lat="43.59459" lon="7.09338">
        <ele>117.12347412109</ele>
        <time>2020-05-14T15:58:55Z</time>
      </trkpt>
      <trkpt lat="43.5946" lon="7.09333">
        <ele>117.05053710938</ele>
        <time>2020-05-14T15:58:56Z</time>
      </trkpt>
      <trkpt lat="43.59462" lon="7.09328">
        <ele>117.28979492188</ele>
        <time>2020-05-14T15:58:57Z</time>
      </trkpt>
      <trkpt lat="43.59464" lon="7.09323">
        <ele>117.63439941406</ele>
        <time>2020-05-14T15:58:58Z</time>
      </trkpt>
      <trkpt lat="43.59466" lon="7.09318">
        <ele>117.91491699219</ele>
        <time>2020-05-14T15:58:59Z</time>
      </trkpt>
      <trkpt lat="43.59467" lon="7.09313">
        <ele>117.86791992188</ele>
        <time>2020-05-14T15:59:00Z</time>
      </trkpt>
      <trkpt lat="43.59469" lon="7.09308">
        <ele>117.83447265625</ele>
        <time>2020-05-14T15:59:01Z</time>
      </trkpt>
      <trkpt lat="43.59471" lon="7.09303">
        <ele>117.97772216797</ele>
        <time>2020-05-14T15:59:02Z</time>
      </trkpt>
      <trkpt lat="43.59472" lon="7.09298">
        <ele>117.75024414062</ele>
        <time>2020-05-14T15:59:03Z</time>
      </trkpt>
      <trkpt lat="43.59474" lon="7.09293">
        <ele>117.83770751953</ele>
        <time>2020-05-14T15:59:04Z</time>
      </trkpt>
      <trkpt lat="43.59476" lon="7.09288">
        <ele>118.19201660156</ele>
        <time>2020-05-14T15:59:05Z</time>
      </trkpt>
      <trkpt lat="43.59478" lon="7.09283">
        <ele>118.13836669922</ele>
        <time>2020-05-14T15:59:06Z</time>
      </trkpt>
      <trkpt lat="43.59479" lon="7.09279">
        <ele>118.13989257812</ele>
        <time>2020-05-14T15:59:07Z</time>
      </trkpt>
      <trkpt lat="43.59482" lon="7.09274">
        <ele>118.16906738281</ele>
        <time>2020-05-14T15:59:08Z</time>
      </trkpt>
      <trkpt lat="43.59484" lon="7.09269">
        <ele>118.32641601562</ele>
        <time>2020-05-14T15:59:09Z</time>
      </trkpt>
      <trkpt lat="43.59487" lon="7.09265">
        <ele>118.29632568359</ele>
        <time>2020-05-14T15:59:10Z</time>
      </trkpt>
      <trkpt lat="43.5949" lon="7.0926">
        <ele>118.29870605469</ele>
        <time>2020-05-14T15:59:11Z</time>
      </trkpt>
      <trkpt lat="43.59493" lon="7.09256">
        <ele>118.52893066406</ele>
        <time>2020-05-14T15:59:12Z</time>
      </trkpt>
      <trkpt lat="43.59495" lon="7.09252">
        <ele>118.75018310547</ele>
        <time>2020-05-14T15:59:13Z</time>
      </trkpt>
      <trkpt lat="43.59498" lon="7.09248">
        <ele>118.59124755859</ele>
        <time>2020-05-14T15:59:14Z</time>
      </trkpt>
      <trkpt lat="43.59501" lon="7.09245">
        <ele>118.61291503906</ele>
        <time>2020-05-14T15:59:15Z</time>
      </trkpt>
      <trkpt lat="43.59505" lon="7.09243">
        <ele>118.59643554688</ele>
        <time>2020-05-14T15:59:16Z</time>
      </trkpt>
      <trkpt lat="43.59508" lon="7.09241">
        <ele>118.80133056641</ele>
        <time>2020-05-14T15:59:17Z</time>
      </trkpt>
      <trkpt lat="43.59511" lon="7.09242">
        <ele>123.97222900391</ele>
        <time>2020-05-14T15:59:18Z</time>
      </trkpt>
      <trkpt lat="43.59515" lon="7.09243">
        <ele>124.13214111328</ele>
        <time>2020-05-14T15:59:19Z</time>
      </trkpt>
      <trkpt lat="43.59518" lon="7.09246">
        <ele>124.14001464844</ele>
        <time>2020-05-14T15:59:20Z</time>
      </trkpt>
      <trkpt lat="43.59522" lon="7.09248">
        <ele>124.60333251953</ele>
        <time>2020-05-14T15:59:21Z</time>
      </trkpt>
      <trkpt lat="43.59526" lon="7.0925">
        <ele>124.74456787109</ele>
        <time>2020-05-14T15:59:22Z</time>
      </trkpt>
      <trkpt lat="43.5953" lon="7.09251">
        <ele>125.25244140625</ele>
        <time>2020-05-14T15:59:23Z</time>
      </trkpt>
      <trkpt lat="43.59534" lon="7.09252">
        <ele>125.49865722656</ele>
        <time>2020-05-14T15:59:24Z</time>
      </trkpt>
      <trkpt lat="43.59538" lon="7.09252">
        <ele>125.90161132812</ele>
        <time>2020-05-14T15:59:25Z</time>
      </trkpt>
      <trkpt lat="43.59542" lon="7.09252">
        <ele>126.16241455078</ele>
        <time>2020-05-14T15:59:26Z</time>
      </trkpt>
      <trkpt lat="43.59546" lon="7.09252">
        <ele>126.32379150391</ele>
        <time>2020-05-14T15:59:27Z</time>
      </trkpt>
      <trkpt lat="43.59549" lon="7.09252">
        <ele>126.6650390625</ele>
        <time>2020-05-14T15:59:28Z</time>
      </trkpt>
      <trkpt lat="43.59553" lon="7.09251">
        <ele>126.82250976562</ele>
        <time>2020-05-14T15:59:29Z</time>
      </trkpt>
      <trkpt lat="43.59557" lon="7.09249">
        <ele>127.06188964844</ele>
        <time>2020-05-14T15:59:30Z</time>
      </trkpt>
      <trkpt lat="43.5956" lon="7.09248">
        <ele>127.31860351562</ele>
        <time>2020-05-14T15:59:31Z</time>
      </trkpt>
      <trkpt lat="43.59564" lon="7.09247">
        <ele>127.27087402344</ele>
        <time>2020-05-14T15:59:32Z</time>
      </trkpt>
      <trkpt lat="43.59568" lon="7.09246">
        <ele>127.40643310547</ele>
        <time>2020-05-14T15:59:33Z</time>
      </trkpt>
      <trkpt lat="43.59571" lon="7.09244">
        <ele>127.77166748047</ele>
        <time>2020-05-14T15:59:34Z</time>
      </trkpt>
      <trkpt lat="43.59575" lon="7.09243">
        <ele>127.88012695312</ele>
        <time>2020-05-14T15:59:35Z</time>
      </trkpt>
      <trkpt lat="43.59578" lon="7.09241">
        <ele>127.74755859375</ele>
        <time>2020-05-14T15:59:36Z</time>
      </trkpt>
      <trkpt lat="43.59582" lon="7.0924">
        <ele>127.89514160156</ele>
        <time>2020-05-14T15:59:37Z</time>
      </trkpt>
      <trkpt lat="43.59585" lon="7.09239">
        <ele>128.21508789062</ele>
        <time>2020-05-14T15:59:38Z</time>
      </trkpt>
      <trkpt lat="43.59589" lon="7.09238">
        <ele>128.36584472656</ele>
        <time>2020-05-14T15:59:39Z</time>
      </trkpt>
      <trkpt lat="43.59592" lon="7.09237">
        <ele>128.74395751953</ele>
        <time>2020-05-14T15:59:40Z</time>
      </trkpt>
      <trkpt lat="43.59596" lon="7.09236">
        <ele>129.02673339844</ele>
        <time>2020-05-14T15:59:41Z</time>
      </trkpt>
      <trkpt lat="43.59599" lon="7.09236">
        <ele>129.6337890625</ele>
        <time>2020-05-14T15:59:42Z</time>
      </trkpt>
      <trkpt lat="43.59601" lon="7.09235">
        <ele>129.71154785156</ele>
        <time>2020-05-14T15:59:43Z</time>
      </trkpt>
      <trkpt lat="43.59604" lon="7.09236">
        <ele>130.04705810547</ele>
        <time>2020-05-14T15:59:44Z</time>
      </trkpt>
      <trkpt lat="43.59606" lon="7.09238">
        <ele>130.17858886719</ele>
        <time>2020-05-14T15:59:45Z</time>
      </trkpt>
      <trkpt lat="43.59608" lon="7.0924">
        <ele>130.31597900391</ele>
        <time>2020-05-14T15:59:46Z</time>
      </trkpt>
      <trkpt lat="43.59609" lon="7.09243">
        <ele>130.61401367188</ele>
        <time>2020-05-14T15:59:47Z</time>
      </trkpt>
      <trkpt lat="43.59609" lon="7.09247">
        <ele>131.30187988281</ele>
        <time>2020-05-14T15:59:48Z</time>
      </trkpt>
      <trkpt lat="43.59609" lon="7.09251">
        <ele>132.00268554688</ele>
        <time>2020-05-14T15:59:49Z</time>
      </trkpt>
      <trkpt lat="43.59609" lon="7.09255">
        <ele>131.79595947266</ele>
        <time>2020-05-14T15:59:50Z</time>
      </trkpt>
      <trkpt lat="43.59609" lon="7.09259">
        <ele>131.65771484375</ele>
        <time>2020-05-14T15:59:51Z</time>
      </trkpt>
      <trkpt lat="43.59609" lon="7.09263">
        <ele>131.96704101562</ele>
        <time>2020-05-14T15:59:52Z</time>
      </trkpt>
      <trkpt lat="43.59609" lon="7.09267">
        <ele>132.51727294922</ele>
        <time>2020-05-14T15:59:53Z</time>
      </trkpt>
      <trkpt lat="43.59609" lon="7.09271">
        <ele>132.83776855469</ele>
        <time>2020-05-14T15:59:54Z</time>
      </trkpt>
      <trkpt lat="43.59609" lon="7.09275">
        <ele>132.69427490234</ele>
        <time>2020-05-14T15:59:55Z</time>
      </trkpt>
      <trkpt lat="43.59609" lon="7.09279">
        <ele>132.55914306641</ele>
        <time>2020-05-14T15:59:56Z</time>
      </trkpt>
      <trkpt lat="43.59608" lon="7.09283">
        <ele>132.24255371094</ele>
        <time>2020-05-14T15:59:57Z</time>
      </trkpt>
      <trkpt lat="43.59608" lon="7.09287">
        <ele>131.92352294922</ele>
        <time>2020-05-14T15:59:58Z</time>
      </trkpt>
      <trkpt lat="43.59608" lon="7.09291">
        <ele>131.91870117188</ele>
        <time>2020-05-14T15:59:59Z</time>
      </trkpt>
      <trkpt lat="43.59608" lon="7.09294">
        <ele>132.33056640625</ele>
        <time>2020-05-14T16:00:00Z</time>
      </trkpt>
      <trkpt lat="43.59608" lon="7.09296">
        <ele>132.19189453125</ele>
        <time>2020-05-14T16:00:01Z</time>
      </trkpt>
      <trkpt lat="43.59608" lon="7.09299">
        <ele>131.57708740234</ele>
        <time>2020-05-14T16:00:02Z</time>
      </trkpt>
      <trkpt lat="43.59608" lon="7.09301">
        <ele>131.44976806641</ele>
        <time>2020-05-14T16:00:03Z</time>
      </trkpt>
      <trkpt lat="43.59607" lon="7.09304">
        <ele>131.61987304688</ele>
        <time>2020-05-14T16:00:04Z</time>
      </trkpt>
      <trkpt lat="43.59607" lon="7.09306">
        <ele>130.96893310547</ele>
        <time>2020-05-14T16:00:05Z</time>
      </trkpt>
      <trkpt lat="43.59606" lon="7.09308">
        <ele>130.94006347656</ele>
        <time>2020-05-14T16:00:06Z</time>
      </trkpt>
      <trkpt lat="43.59606" lon="7.09309">
        <ele>130.97613525391</ele>
        <time>2020-05-14T16:00:07Z</time>
      </trkpt>
      <trkpt lat="43.59605" lon="7.09311">
        <ele>131.61773681641</ele>
        <time>2020-05-14T16:00:08Z</time>
      </trkpt>
      <trkpt lat="43.59605" lon="7.09313">
        <ele>131.58483886719</ele>
        <time>2020-05-14T16:00:09Z</time>
      </trkpt>
      <trkpt lat="43.59605" lon="7.09316">
        <ele>132.06414794922</ele>
        <time>2020-05-14T16:00:10Z</time>
      </trkpt>
      <trkpt lat="43.59605" lon="7.09319">
        <ele>132.37255859375</ele>
        <time>2020-05-14T16:00:11Z</time>
      </trkpt>
      <trkpt lat="43.59606" lon="7.09323">
        <ele>133.10473632812</ele>
        <time>2020-05-14T16:00:12Z</time>
      </trkpt>
      <trkpt lat="43.59608" lon="7.09326">
        <ele>134.10272216797</ele>
        <time>2020-05-14T16:00:13Z</time>
      </trkpt>
      <trkpt lat="43.59609" lon="7.0933">
        <ele>134.48913574219</ele>
        <time>2020-05-14T16:00:14Z</time>
      </trkpt>
      <trkpt lat="43.5961" lon="7.09334">
        <ele>134.44641113281</ele>
        <time>2020-05-14T16:00:15Z</time>
      </trkpt>
      <trkpt lat="43.59612" lon="7.09338">
        <ele>134.73333740234</ele>
        <time>2020-05-14T16:00:16Z</time>
      </trkpt>
      <trkpt lat="43.59613" lon="7.09342">
        <ele>134.83972167969</ele>
        <time>2020-05-14T16:00:17Z</time>
      </trkpt>
      <trkpt lat="43.59615" lon="7.09346">
        <ele>134.55706787109</ele>
        <time>2020-05-14T16:00:18Z</time>
      </trkpt>
      <trkpt lat="43.59616" lon="7.09349">
        <ele>134.72241210938</ele>
        <time>2020-05-14T16:00:19Z</time>
      </trkpt>
      <trkpt lat="43.59617" lon="7.09353">
        <ele>134.66546630859</ele>
        <time>2020-05-14T16:00:20Z</time>
      </trkpt>
      <trkpt lat="43.59618" lon="7.09357">
        <ele>134.91918945312</ele>
        <time>2020-05-14T16:00:21Z</time>
      </trkpt>
      <trkpt lat="43.59618" lon="7.09361">
        <ele>134.80548095703</ele>
        <time>2020-05-14T16:00:22Z</time>
      </trkpt>
      <trkpt lat="43.59618" lon="7.09365">
        <ele>134.82720947266</ele>
        <time>2020-05-14T16:00:23Z</time>
      </trkpt>
      <trkpt lat="43.59618" lon="7.09368">
        <ele>134.67907714844</ele>
        <time>2020-05-14T16:00:24Z</time>
      </trkpt>
      <trkpt lat="43.59619" lon="7.0937">
        <ele>134.48132324219</ele>
        <time>2020-05-14T16:00:25Z</time>
      </trkpt>
      <trkpt lat="43.5962" lon="7.09371">
        <ele>134.80847167969</ele>
        <time>2020-05-14T16:00:26Z</time>
      </trkpt>
      <trkpt lat="43.59621" lon="7.09372">
        <ele>134.85437011719</ele>
        <time>2020-05-14T16:00:27Z</time>
      </trkpt>
      <trkpt lat="43.59622" lon="7.09375">
        <ele>134.53173828125</ele>
        <time>2020-05-14T16:00:28Z</time>
      </trkpt>
      <trkpt lat="43.59623" lon="7.09378">
        <ele>134.33917236328</ele>
        <time>2020-05-14T16:00:29Z</time>
      </trkpt>
      <trkpt lat="43.59624" lon="7.09382">
        <ele>134.22100830078</ele>
        <time>2020-05-14T16:00:30Z</time>
      </trkpt>
      <trkpt lat="43.59626" lon="7.09386">
        <ele>134.38562011719</ele>
        <time>2020-05-14T16:00:31Z</time>
      </trkpt>
      <trkpt lat="43.59627" lon="7.09389">
        <ele>134.55261230469</ele>
        <time>2020-05-14T16:00:32Z</time>
      </trkpt>
      <trkpt lat="43.59629" lon="7.09392">
        <ele>135.08239746094</ele>
        <time>2020-05-14T16:00:33Z</time>
      </trkpt>
      <trkpt lat="43.59631" lon="7.09395">
        <ele>135.39709472656</ele>
        <time>2020-05-14T16:00:34Z</time>
      </trkpt>
      <trkpt lat="43.59633" lon="7.09398">
        <ele>134.61041259766</ele>
        <time>2020-05-14T16:00:35Z</time>
      </trkpt>
      <trkpt lat="43.59635" lon="7.09402">
        <ele>134.57775878906</ele>
        <time>2020-05-14T16:00:36Z</time>
      </trkpt>
      <trkpt lat="43.59637" lon="7.09406">
        <ele>135.26403808594</ele>
        <time>2020-05-14T16:00:37Z</time>
      </trkpt>
      <trkpt lat="43.59639" lon="7.0941">
        <ele>135.20880126953</ele>
        <time>2020-05-14T16:00:38Z</time>
      </trkpt>
      <trkpt lat="43.59641" lon="7.09415">
        <ele>135.18096923828</ele>
        <time>2020-05-14T16:00:39Z</time>
      </trkpt>
      <trkpt lat="43.59643" lon="7.0942">
        <ele>135.16735839844</ele>
        <time>2020-05-14T16:00:40Z</time>
      </trkpt>
      <trkpt lat="43.59644" lon="7.09426">
        <ele>135.07318115234</ele>
        <time>2020-05-14T16:00:41Z</time>
      </trkpt>
      <trkpt lat="43.59644" lon="7.09432">
        <ele>134.72888183594</ele>
        <time>2020-05-14T16:00:42Z</time>
      </trkpt>
      <trkpt lat="43.59644" lon="7.09437">
        <ele>134.26544189453</ele>
        <time>2020-05-14T16:00:43Z</time>
      </trkpt>
      <trkpt lat="43.59644" lon="7.09443">
        <ele>134.16839599609</ele>
        <time>2020-05-14T16:00:44Z</time>
      </trkpt>
      <trkpt lat="43.59643" lon="7.09448">
        <ele>134.06878662109</ele>
        <time>2020-05-14T16:00:45Z</time>
      </trkpt>
      <trkpt lat="43.59643" lon="7.09452">
        <ele>133.93194580078</ele>
        <time>2020-05-14T16:00:46Z</time>
      </trkpt>
      <trkpt lat="43.59643" lon="7.09456">
        <ele>133.90643310547</ele>
        <time>2020-05-14T16:00:47Z</time>
      </trkpt>
      <trkpt lat="43.59642" lon="7.0946">
        <ele>133.60333251953</ele>
        <time>2020-05-14T16:00:48Z</time>
      </trkpt>
      <trkpt lat="43.59641" lon="7.09463">
        <ele>133.5185546875</ele>
        <time>2020-05-14T16:00:49Z</time>
      </trkpt>
      <trkpt lat="43.59639" lon="7.09465">
        <ele>133.14971923828</ele>
        <time>2020-05-14T16:00:50Z</time>
      </trkpt>
      <trkpt lat="43.59636" lon="7.09465">
        <ele>132.61462402344</ele>
        <time>2020-05-14T16:00:51Z</time>
      </trkpt>
      <trkpt lat="43.59632" lon="7.09464">
        <ele>132.59039306641</ele>
        <time>2020-05-14T16:00:52Z</time>
      </trkpt>
      <trkpt lat="43.59629" lon="7.09464">
        <ele>132.88989257812</ele>
        <time>2020-05-14T16:00:53Z</time>
      </trkpt>
      <trkpt lat="43.59626" lon="7.09464">
        <ele>133.10919189453</ele>
        <time>2020-05-14T16:00:54Z</time>
      </trkpt>
      <trkpt lat="43.59623" lon="7.09464">
        <ele>133.24291992188</ele>
        <time>2020-05-14T16:00:55Z</time>
      </trkpt>
      <trkpt lat="43.59623" lon="7.09465">
        <ele>132.98883056641</ele>
        <time>2020-05-14T16:00:56Z</time>
      </trkpt>
      <trkpt lat="43.59623" lon="7.09465">
        <ele>133.03637695312</ele>
        <time>2020-05-14T16:00:57Z</time>
      </trkpt>
      <trkpt lat="43.59624" lon="7.09465">
        <ele>133.04040527344</ele>
        <time>2020-05-14T16:00:58Z</time>
      </trkpt>
      <trkpt lat="43.59625" lon="7.09466">
        <ele>133.61193847656</ele>
        <time>2020-05-14T16:00:59Z</time>
      </trkpt>
      <trkpt lat="43.59627" lon="7.09467">
        <ele>133.56274414062</ele>
        <time>2020-05-14T16:01:00Z</time>
      </trkpt>
      <trkpt lat="43.59628" lon="7.09467">
        <ele>133.57080078125</ele>
        <time>2020-05-14T16:01:01Z</time>
      </trkpt>
      <trkpt lat="43.59628" lon="7.09467">
        <ele>133.66381835938</ele>
        <time>2020-05-14T16:01:02Z</time>
      </trkpt>
      <trkpt lat="43.59628" lon="7.09467">
        <ele>133.77661132812</ele>
        <time>2020-05-14T16:01:03Z</time>
      </trkpt>
      <trkpt lat="43.59629" lon="7.09467">
        <ele>133.73010253906</ele>
        <time>2020-05-14T16:01:04Z</time>
      </trkpt>
      <trkpt lat="43.59629" lon="7.09468">
        <ele>133.70104980469</ele>
        <time>2020-05-14T16:01:05Z</time>
      </trkpt>
      <trkpt lat="43.59629" lon="7.09468">
        <ele>133.62677001953</ele>
        <time>2020-05-14T16:01:06Z</time>
      </trkpt>
      <trkpt lat="43.59629" lon="7.09468">
        <ele>133.51416015625</ele>
        <time>2020-05-14T16:01:07Z</time>
      </trkpt>
      <trkpt lat="43.59629" lon="7.09468">
        <ele>133.35919189453</ele>
        <time>2020-05-14T16:01:08Z</time>
      </trkpt>
      <trkpt lat="43.5963" lon="7.09468">
        <ele>133.29943847656</ele>
        <time>2020-05-14T16:01:09Z</time>
      </trkpt>
      <trkpt lat="43.5963" lon="7.09468">
        <ele>133.30090332031</ele>
        <time>2020-05-14T16:01:10Z</time>
      </trkpt>
      <trkpt lat="43.5963" lon="7.09468">
        <ele>133.37640380859</ele>
        <time>2020-05-14T16:01:11Z</time>
      </trkpt>
      <trkpt lat="43.5963" lon="7.09468">
        <ele>133.38647460938</ele>
        <time>2020-05-14T16:01:12Z</time>
      </trkpt>
      <trkpt lat="43.5963" lon="7.09468">
        <ele>133.36859130859</ele>
        <time>2020-05-14T16:01:13Z</time>
      </trkpt>
      <trkpt lat="43.59631" lon="7.09468">
        <ele>133.36187744141</ele>
        <time>2020-05-14T16:01:14Z</time>
      </trkpt>
      <trkpt lat="43.59631" lon="7.09468">
        <ele>133.35699462891</ele>
        <time>2020-05-14T16:01:15Z</time>
      </trkpt>
      <trkpt lat="43.59631" lon="7.09468">
        <ele>133.33984375</ele>
        <time>2020-05-14T16:01:16Z</time>
      </trkpt>
      <trkpt lat="43.59631" lon="7.09468">
        <ele>133.31823730469</ele>
        <time>2020-05-14T16:01:17Z</time>
      </trkpt>
      <trkpt lat="43.59631" lon="7.09468">
        <ele>133.34240722656</ele>
        <time>2020-05-14T16:01:18Z</time>
      </trkpt>
      <trkpt lat="43.59631" lon="7.09468">
        <ele>133.34875488281</ele>
        <time>2020-05-14T16:01:19Z</time>
      </trkpt>
      <trkpt lat="43.59632" lon="7.09468">
        <ele>133.36901855469</ele>
        <time>2020-05-14T16:01:20Z</time>
      </trkpt>
      <trkpt lat="43.59632" lon="7.09468">
        <ele>133.35949707031</ele>
        <time>2020-05-14T16:01:21Z</time>
      </trkpt>
      <trkpt lat="43.59632" lon="7.09468">
        <ele>133.38336181641</ele>
        <time>2020-05-14T16:01:22Z</time>
      </trkpt>
      <trkpt lat="43.59632" lon="7.09468">
        <ele>133.40258789062</ele>
        <time>2020-05-14T16:01:23Z</time>
      </trkpt>
      <trkpt lat="43.59632" lon="7.09468">
        <ele>133.38940429688</ele>
        <time>2020-05-14T16:01:24Z</time>
      </trkpt>
      <trkpt lat="43.59632" lon="7.09468">
        <ele>133.37060546875</ele>
        <time>2020-05-14T16:01:25Z</time>
      </trkpt>
      <trkpt lat="43.59632" lon="7.09468">
        <ele>133.35229492188</ele>
        <time>2020-05-14T16:01:26Z</time>
      </trkpt>
      <trkpt lat="43.59632" lon="7.09468">
        <ele>133.34814453125</ele>
        <time>2020-05-14T16:01:27Z</time>
      </trkpt>
      <trkpt lat="43.59632" lon="7.09468">
        <ele>133.33715820312</ele>
        <time>2020-05-14T16:01:28Z</time>
      </trkpt>
      <trkpt lat="43.59632" lon="7.09468">
        <ele>133.32342529297</ele>
        <time>2020-05-14T16:01:29Z</time>
      </trkpt>
      <trkpt lat="43.59632" lon="7.09468">
        <ele>133.31182861328</ele>
        <time>2020-05-14T16:01:30Z</time>
      </trkpt>
      <trkpt lat="43.59632" lon="7.09468">
        <ele>133.29797363281</ele>
        <time>2020-05-14T16:01:31Z</time>
      </trkpt>
      <trkpt lat="43.59632" lon="7.09468">
        <ele>133.29626464844</ele>
        <time>2020-05-14T16:01:32Z</time>
      </trkpt>
      <trkpt lat="43.59632" lon="7.09468">
        <ele>133.26843261719</ele>
        <time>2020-05-14T16:01:33Z</time>
      </trkpt>
      <trkpt lat="43.59632" lon="7.09468">
        <ele>133.24230957031</ele>
        <time>2020-05-14T16:01:34Z</time>
      </trkpt>
      <trkpt lat="43.59632" lon="7.09468">
        <ele>133.22467041016</ele>
        <time>2020-05-14T16:01:35Z</time>
      </trkpt>
      <trkpt lat="43.59632" lon="7.09468">
        <ele>133.20715332031</ele>
        <time>2020-05-14T16:01:36Z</time>
      </trkpt>
      <trkpt lat="43.59632" lon="7.09468">
        <ele>133.18011474609</ele>
        <time>2020-05-14T16:01:37Z</time>
      </trkpt>
      <trkpt lat="43.59632" lon="7.09468">
        <ele>133.16613769531</ele>
        <time>2020-05-14T16:01:38Z</time>
      </trkpt>
      <trkpt lat="43.59632" lon="7.09468">
        <ele>133.1630859375</ele>
        <time>2020-05-14T16:01:39Z</time>
      </trkpt>
      <trkpt lat="43.59632" lon="7.09468">
        <ele>133.16760253906</ele>
        <time>2020-05-14T16:01:40Z</time>
      </trkpt>
      <trkpt lat="43.59632" lon="7.09468">
        <ele>133.171875</ele>
        <time>2020-05-14T16:01:41Z</time>
      </trkpt>
      <trkpt lat="43.59632" lon="7.09468">
        <ele>133.20703125</ele>
        <time>2020-05-14T16:01:42Z</time>
      </trkpt>
      <trkpt lat="43.59632" lon="7.09468">
        <ele>133.25970458984</ele>
        <time>2020-05-14T16:01:43Z</time>
      </trkpt>
      <trkpt lat="43.59632" lon="7.09468">
        <ele>133.34460449219</ele>
        <time>2020-05-14T16:01:44Z</time>
      </trkpt>
      <trkpt lat="43.59632" lon="7.09468">
        <ele>133.26849365234</ele>
        <time>2020-05-14T16:01:45Z</time>
      </trkpt>
      <trkpt lat="43.59632" lon="7.09468">
        <ele>133.28790283203</ele>
        <time>2020-05-14T16:01:46Z</time>
      </trkpt>
      <trkpt lat="43.59632" lon="7.09468">
        <ele>133.29205322266</ele>
        <time>2020-05-14T16:01:47Z</time>
      </trkpt>
      <trkpt lat="43.59632" lon="7.09468">
        <ele>133.27514648438</ele>
        <time>2020-05-14T16:01:48Z</time>
      </trkpt>
      <trkpt lat="43.59632" lon="7.09468">
        <ele>133.28540039062</ele>
        <time>2020-05-14T16:01:49Z</time>
      </trkpt>
      <trkpt lat="43.59632" lon="7.09468">
        <ele>133.29180908203</ele>
        <time>2020-05-14T16:01:50Z</time>
      </trkpt>
      <trkpt lat="43.59632" lon="7.09468">
        <ele>133.29296875</ele>
        <time>2020-05-14T16:01:51Z</time>
      </trkpt>
      <trkpt lat="43.59632" lon="7.09468">
        <ele>133.26654052734</ele>
        <time>2020-05-14T16:01:52Z</time>
      </trkpt>
      <trkpt lat="43.59632" lon="7.09468">
        <ele>133.24597167969</ele>
        <time>2020-05-14T16:01:53Z</time>
      </trkpt>
      <trkpt lat="43.59632" lon="7.09468">
        <ele>133.24200439453</ele>
        <time>2020-05-14T16:01:54Z</time>
      </trkpt>
      <trkpt lat="43.59632" lon="7.09468">
        <ele>133.24487304688</ele>
        <time>2020-05-14T16:01:55Z</time>
      </trkpt>
      <trkpt lat="43.59632" lon="7.09468">
        <ele>133.25360107422</ele>
        <time>2020-05-14T16:01:56Z</time>
      </trkpt>
      <trkpt lat="43.59633" lon="7.09468">
        <ele>133.27551269531</ele>
        <time>2020-05-14T16:01:57Z</time>
      </trkpt>
      <trkpt lat="43.59633" lon="7.09468">
        <ele>132.97875976562</ele>
        <time>2020-05-14T16:01:58Z</time>
      </trkpt>
      <trkpt lat="43.59637" lon="7.09468">
        <ele>134.60913085938</ele>
        <time>2020-05-14T16:01:59Z</time>
      </trkpt>
      <trkpt lat="43.59639" lon="7.09468">
        <ele>133.94165039062</ele>
        <time>2020-05-14T16:02:00Z</time>
      </trkpt>
      <trkpt lat="43.5964" lon="7.09468">
        <ele>134.65563964844</ele>
        <time>2020-05-14T16:02:01Z</time>
      </trkpt>
      <trkpt lat="43.59641" lon="7.09468">
        <ele>134.1943359375</ele>
        <time>2020-05-14T16:02:02Z</time>
      </trkpt>
      <trkpt lat="43.59643" lon="7.09468">
        <ele>134.19079589844</ele>
        <time>2020-05-14T16:02:03Z</time>
      </trkpt>
      <trkpt lat="43.59644" lon="7.09468">
        <ele>134.263671875</ele>
        <time>2020-05-14T16:02:04Z</time>
      </trkpt>
      <trkpt lat="43.59645" lon="7.09468">
        <ele>134.28430175781</ele>
        <time>2020-05-14T16:02:05Z</time>
      </trkpt>
      <trkpt lat="43.59645" lon="7.09468">
        <ele>134.62524414062</ele>
        <time>2020-05-14T16:02:06Z</time>
      </trkpt>
      <trkpt lat="43.59646" lon="7.09467">
        <ele>135.18151855469</ele>
        <time>2020-05-14T16:02:07Z</time>
      </trkpt>
      <trkpt lat="43.59647" lon="7.09467">
        <ele>136.23944091797</ele>
        <time>2020-05-14T16:02:08Z</time>
      </trkpt>
      <trkpt lat="43.59648" lon="7.09467">
        <ele>136.68695068359</ele>
        <time>2020-05-14T16:02:09Z</time>
      </trkpt>
      <trkpt lat="43.59649" lon="7.09467">
        <ele>137.12768554688</ele>
        <time>2020-05-14T16:02:10Z</time>
      </trkpt>
      <trkpt lat="43.59649" lon="7.09467">
        <ele>137.37725830078</ele>
        <time>2020-05-14T16:02:11Z</time>
      </trkpt>
      <trkpt lat="43.59649" lon="7.09466">
        <ele>137.32043457031</ele>
        <time>2020-05-14T16:02:12Z</time>
      </trkpt>
      <trkpt lat="43.59648" lon="7.09466">
        <ele>137.30828857422</ele>
        <time>2020-05-14T16:02:13Z</time>
      </trkpt>
      <trkpt lat="43.59649" lon="7.09467">
        <ele>137.12060546875</ele>
        <time>2020-05-14T16:02:14Z</time>
      </trkpt>
      <trkpt lat="43.59649" lon="7.09467">
        <ele>137.15814208984</ele>
        <time>2020-05-14T16:02:15Z</time>
      </trkpt>
      <trkpt lat="43.5965" lon="7.09467">
        <ele>137.27593994141</ele>
        <time>2020-05-14T16:02:16Z</time>
      </trkpt>
      <trkpt lat="43.5965" lon="7.09467">
        <ele>137.32287597656</ele>
        <time>2020-05-14T16:02:17Z</time>
      </trkpt>
      <trkpt lat="43.5965" lon="7.09467">
        <ele>137.0048828125</ele>
        <time>2020-05-14T16:02:18Z</time>
      </trkpt>
      <trkpt lat="43.59649" lon="7.09467">
        <ele>136.99041748047</ele>
        <time>2020-05-14T16:02:19Z</time>
      </trkpt>
      <trkpt lat="43.59647" lon="7.09466">
        <ele>137.35223388672</ele>
        <time>2020-05-14T16:02:20Z</time>
      </trkpt>
      <trkpt lat="43.59645" lon="7.09466">
        <ele>137.54119873047</ele>
        <time>2020-05-14T16:02:21Z</time>
      </trkpt>
      <trkpt lat="43.59644" lon="7.09466">
        <ele>138.62280273438</ele>
        <time>2020-05-14T16:02:22Z</time>
      </trkpt>
      <trkpt lat="43.59643" lon="7.09467">
        <ele>138.80676269531</ele>
        <time>2020-05-14T16:02:23Z</time>
      </trkpt>
      <trkpt lat="43.59642" lon="7.09467">
        <ele>136.47930908203</ele>
        <time>2020-05-14T16:02:24Z</time>
      </trkpt>
      <trkpt lat="43.59642" lon="7.09468">
        <ele>136.69781494141</ele>
        <time>2020-05-14T16:02:25Z</time>
      </trkpt>
      <trkpt lat="43.5964" lon="7.09468">
        <ele>137.73779296875</ele>
        <time>2020-05-14T16:02:26Z</time>
      </trkpt>
      <trkpt lat="43.59639" lon="7.09468">
        <ele>137.28735351562</ele>
        <time>2020-05-14T16:02:27Z</time>
      </trkpt>
      <trkpt lat="43.59638" lon="7.09467">
        <ele>138.25531005859</ele>
        <time>2020-05-14T16:02:28Z</time>
      </trkpt>
      <trkpt lat="43.59637" lon="7.09467">
        <ele>137.98358154297</ele>
        <time>2020-05-14T16:02:29Z</time>
      </trkpt>
      <trkpt lat="43.59636" lon="7.09467">
        <ele>138.23864746094</ele>
        <time>2020-05-14T16:02:30Z</time>
      </trkpt>
      <trkpt lat="43.59635" lon="7.09466">
        <ele>138.35321044922</ele>
        <time>2020-05-14T16:02:31Z</time>
      </trkpt>
      <trkpt lat="43.59634" lon="7.09466">
        <ele>138.77606201172</ele>
        <time>2020-05-14T16:02:32Z</time>
      </trkpt>
      <trkpt lat="43.59633" lon="7.09466">
        <ele>139.73986816406</ele>
        <time>2020-05-14T16:02:33Z</time>
      </trkpt>
      <trkpt lat="43.59633" lon="7.09465">
        <ele>139.83752441406</ele>
        <time>2020-05-14T16:02:34Z</time>
      </trkpt>
      <trkpt lat="43.59633" lon="7.09465">
        <ele>139.52075195312</ele>
        <time>2020-05-14T16:02:35Z</time>
      </trkpt>
      <trkpt lat="43.59632" lon="7.09464">
        <ele>139.18591308594</ele>
        <time>2020-05-14T16:02:36Z</time>
      </trkpt>
      <trkpt lat="43.59632" lon="7.09463">
        <ele>138.20068359375</ele>
        <time>2020-05-14T16:02:37Z</time>
      </trkpt>
      <trkpt lat="43.59632" lon="7.09464">
        <ele>138.18322753906</ele>
        <time>2020-05-14T16:02:38Z</time>
      </trkpt>
      <trkpt lat="43.59631" lon="7.09465">
        <ele>137.81018066406</ele>
        <time>2020-05-14T16:02:39Z</time>
      </trkpt>
      <trkpt lat="43.59631" lon="7.09465">
        <ele>137.49780273438</ele>
        <time>2020-05-14T16:02:40Z</time>
      </trkpt>
      <trkpt lat="43.5963" lon="7.09465">
        <ele>137.62219238281</ele>
        <time>2020-05-14T16:02:41Z</time>
      </trkpt>
      <trkpt lat="43.5963" lon="7.09465">
        <ele>136.71197509766</ele>
        <time>2020-05-14T16:02:42Z</time>
      </trkpt>
      <trkpt lat="43.5963" lon="7.09465">
        <ele>136.48254394531</ele>
        <time>2020-05-14T16:02:43Z</time>
      </trkpt>
      <trkpt lat="43.5963" lon="7.09465">
        <ele>136.46002197266</ele>
        <time>2020-05-14T16:02:44Z</time>
      </trkpt>
      <trkpt lat="43.5963" lon="7.09465">
        <ele>136.578125</ele>
        <time>2020-05-14T16:02:45Z</time>
      </trkpt>
      <trkpt lat="43.5963" lon="7.09465">
        <ele>136.87408447266</ele>
        <time>2020-05-14T16:02:46Z</time>
      </trkpt>
      <trkpt lat="43.59629" lon="7.09465">
        <ele>136.99597167969</ele>
        <time>2020-05-14T16:02:47Z</time>
      </trkpt>
      <trkpt lat="43.59629" lon="7.09465">
        <ele>137.13427734375</ele>
        <time>2020-05-14T16:02:48Z</time>
      </trkpt>
      <trkpt lat="43.59629" lon="7.09465">
        <ele>137.38739013672</ele>
        <time>2020-05-14T16:02:49Z</time>
      </trkpt>
      <trkpt lat="43.59629" lon="7.09465">
        <ele>137.30285644531</ele>
        <time>2020-05-14T16:02:50Z</time>
      </trkpt>
      <trkpt lat="43.59629" lon="7.09465">
        <ele>137.640625</ele>
        <time>2020-05-14T16:02:51Z</time>
      </trkpt>
      <trkpt lat="43.59629" lon="7.09465">
        <ele>137.80718994141</ele>
        <time>2020-05-14T16:02:52Z</time>
      </trkpt>
      <trkpt lat="43.59629" lon="7.09465">
        <ele>137.75073242188</ele>
        <time>2020-05-14T16:02:53Z</time>
      </trkpt>
      <trkpt lat="43.59629" lon="7.09465">
        <ele>137.56103515625</ele>
        <time>2020-05-14T16:02:54Z</time>
      </trkpt>
      <trkpt lat="43.59629" lon="7.09465">
        <ele>137.40124511719</ele>
        <time>2020-05-14T16:02:55Z</time>
      </trkpt>
      <trkpt lat="43.59629" lon="7.09465">
        <ele>137.15393066406</ele>
        <time>2020-05-14T16:02:56Z</time>
      </trkpt>
      <trkpt lat="43.59629" lon="7.09465">
        <ele>137.17199707031</ele>
        <time>2020-05-14T16:02:57Z</time>
      </trkpt>
      <trkpt lat="43.59629" lon="7.09465">
        <ele>137.22027587891</ele>
        <time>2020-05-14T16:02:58Z</time>
      </trkpt>
      <trkpt lat="43.59629" lon="7.09465">
        <ele>137.23492431641</ele>
        <time>2020-05-14T16:02:59Z</time>
      </trkpt>
      <trkpt lat="43.59629" lon="7.09465">
        <ele>137.37841796875</ele>
        <time>2020-05-14T16:03:00Z</time>
      </trkpt>
      <trkpt lat="43.59629" lon="7.09465">
        <ele>137.36279296875</ele>
        <time>2020-05-14T16:03:01Z</time>
      </trkpt>
      <trkpt lat="43.59629" lon="7.09465">
        <ele>137.37658691406</ele>
        <time>2020-05-14T16:03:02Z</time>
      </trkpt>
      <trkpt lat="43.59629" lon="7.09465">
        <ele>137.46130371094</ele>
        <time>2020-05-14T16:03:03Z</time>
      </trkpt>
      <trkpt lat="43.59629" lon="7.09465">
        <ele>137.51409912109</ele>
        <time>2020-05-14T16:03:04Z</time>
      </trkpt>
      <trkpt lat="43.59629" lon="7.09465">
        <ele>138.64782714844</ele>
        <time>2020-05-14T16:03:05Z</time>
      </trkpt>
      <trkpt lat="43.59629" lon="7.09465">
        <ele>138.48162841797</ele>
        <time>2020-05-14T16:03:06Z</time>
      </trkpt>
      <trkpt lat="43.59629" lon="7.09465">
        <ele>138.61676025391</ele>
        <time>2020-05-14T16:03:07Z</time>
      </trkpt>
      <trkpt lat="43.59629" lon="7.09465">
        <ele>138.75238037109</ele>
        <time>2020-05-14T16:03:08Z</time>
      </trkpt>
      <trkpt lat="43.59629" lon="7.09465">
        <ele>138.82836914062</ele>
        <time>2020-05-14T16:03:09Z</time>
      </trkpt>
      <trkpt lat="43.59629" lon="7.09465">
        <ele>138.37420654297</ele>
        <time>2020-05-14T16:03:10Z</time>
      </trkpt>
      <trkpt lat="43.59629" lon="7.09465">
        <ele>135.93383789062</ele>
        <time>2020-05-14T16:03:11Z</time>
      </trkpt>
      <trkpt lat="43.59629" lon="7.09466">
        <ele>135.4482421875</ele>
        <time>2020-05-14T16:03:12Z</time>
      </trkpt>
      <trkpt lat="43.59628" lon="7.09466">
        <ele>134.91522216797</ele>
        <time>2020-05-14T16:03:13Z</time>
      </trkpt>
      <trkpt lat="43.59629" lon="7.09467">
        <ele>134.08325195312</ele>
        <time>2020-05-14T16:03:14Z</time>
      </trkpt>
      <trkpt lat="43.59629" lon="7.09467">
        <ele>133.67907714844</ele>
        <time>2020-05-14T16:03:15Z</time>
      </trkpt>
      <trkpt lat="43.59629" lon="7.09467">
        <ele>133.58343505859</ele>
        <time>2020-05-14T16:03:16Z</time>
      </trkpt>
      <trkpt lat="43.59628" lon="7.09467">
        <ele>133.42358398438</ele>
        <time>2020-05-14T16:03:17Z</time>
      </trkpt>
      <trkpt lat="43.59628" lon="7.09467">
        <ele>133.32641601562</ele>
        <time>2020-05-14T16:03:18Z</time>
      </trkpt>
      <trkpt lat="43.59628" lon="7.09467">
        <ele>133.65588378906</ele>
        <time>2020-05-14T16:03:19Z</time>
      </trkpt>
      <trkpt lat="43.59628" lon="7.09467">
        <ele>132.84423828125</ele>
        <time>2020-05-14T16:03:20Z</time>
      </trkpt>
      <trkpt lat="43.59628" lon="7.09467">
        <ele>133.04760742188</ele>
        <time>2020-05-14T16:03:21Z</time>
      </trkpt>
      <trkpt lat="43.59628" lon="7.09467">
        <ele>133.09594726562</ele>
        <time>2020-05-14T16:03:22Z</time>
      </trkpt>
      <trkpt lat="43.59628" lon="7.09467">
        <ele>133.10235595703</ele>
        <time>2020-05-14T16:03:23Z</time>
      </trkpt>
      <trkpt lat="43.59628" lon="7.09467">
        <ele>133.17254638672</ele>
        <time>2020-05-14T16:03:24Z</time>
      </trkpt>
      <trkpt lat="43.59628" lon="7.09467">
        <ele>133.14251708984</ele>
        <time>2020-05-14T16:03:25Z</time>
      </trkpt>
      <trkpt lat="43.59628" lon="7.09467">
        <ele>133.11376953125</ele>
        <time>2020-05-14T16:03:26Z</time>
      </trkpt>
      <trkpt lat="43.59628" lon="7.09467">
        <ele>133.12713623047</ele>
        <time>2020-05-14T16:03:27Z</time>
      </trkpt>
      <trkpt lat="43.59628" lon="7.09467">
        <ele>133.14099121094</ele>
        <time>2020-05-14T16:03:28Z</time>
      </trkpt>
      <trkpt lat="43.59628" lon="7.09467">
        <ele>133.15838623047</ele>
        <time>2020-05-14T16:03:29Z</time>
      </trkpt>
      <trkpt lat="43.59628" lon="7.09467">
        <ele>133.15759277344</ele>
        <time>2020-05-14T16:03:30Z</time>
      </trkpt>
      <trkpt lat="43.59628" lon="7.09467">
        <ele>133.14709472656</ele>
        <time>2020-05-14T16:03:31Z</time>
      </trkpt>
      <trkpt lat="43.59628" lon="7.09467">
        <ele>133.09436035156</ele>
        <time>2020-05-14T16:03:32Z</time>
      </trkpt>
      <trkpt lat="43.59628" lon="7.09467">
        <ele>133.10290527344</ele>
        <time>2020-05-14T16:03:33Z</time>
      </trkpt>
      <trkpt lat="43.59628" lon="7.09467">
        <ele>133.15209960938</ele>
        <time>2020-05-14T16:03:34Z</time>
      </trkpt>
      <trkpt lat="43.59628" lon="7.09467">
        <ele>133.08361816406</ele>
        <time>2020-05-14T16:03:35Z</time>
      </trkpt>
      <trkpt lat="43.59628" lon="7.09467">
        <ele>132.98895263672</ele>
        <time>2020-05-14T16:03:36Z</time>
      </trkpt>
      <trkpt lat="43.59628" lon="7.09467">
        <ele>132.98944091797</ele>
        <time>2020-05-14T16:03:37Z</time>
      </trkpt>
      <trkpt lat="43.59628" lon="7.09467">
        <ele>132.99615478516</ele>
        <time>2020-05-14T16:03:38Z</time>
      </trkpt>
      <trkpt lat="43.59628" lon="7.09467">
        <ele>132.99182128906</ele>
        <time>2020-05-14T16:03:39Z</time>
      </trkpt>
      <trkpt lat="43.59628" lon="7.09467">
        <ele>132.98803710938</ele>
        <time>2020-05-14T16:03:40Z</time>
      </trkpt>
      <trkpt lat="43.59628" lon="7.09467">
        <ele>132.98461914062</ele>
        <time>2020-05-14T16:03:41Z</time>
      </trkpt>
      <trkpt lat="43.59628" lon="7.09467">
        <ele>132.99157714844</ele>
        <time>2020-05-14T16:03:42Z</time>
      </trkpt>
      <trkpt lat="43.59628" lon="7.09467">
        <ele>132.974609375</ele>
        <time>2020-05-14T16:03:43Z</time>
      </trkpt>
      <trkpt lat="43.59628" lon="7.09467">
        <ele>132.97338867188</ele>
        <time>2020-05-14T16:03:44Z</time>
      </trkpt>
    </trkseg>
  </trk>
</gpx>